
Distance (Route):
Temperature : 19.9°C
Humidity : 48.9%
Pressure : 930.7hPa| Receiver | Frames | First received | Last received |
|---|---|---|---|
| DO3MHA-12 | 759 | 2026-09-01 15:48:17 | 2026-09-01 18:00:12 |
| DO3MHA-11 | 711 | 2026-09-01 15:48:31 | 2026-09-01 18:00:51 |
| BAUMI2-15 | 354 | 2026-09-01 16:18:44 | 2026-09-01 17:55:39 |
| OE5DXL-15 | 265 | 2026-09-01 15:53:42 | 2026-09-01 18:05:35 |
| OE5DRO-10 | 199 | 2026-09-01 16:04:16 | 2026-09-01 17:59:49 |
| OE5WHR-10 | 164 | 2026-09-01 16:23:33 | 2026-09-01 17:54:00 |
| DG1MFX-10 | 156 | 2026-09-01 16:01:05 | 2026-09-01 18:02:00 |
| DB0UT-7 | 135 | 2026-09-01 16:03:18 | 2026-09-01 17:34:49 |
| NBG1-10 | 133 | 2026-09-01 15:53:10 | 2026-09-01 17:49:30 |
| DL6DJ-15 | 133 | 2026-09-01 15:56:50 | 2026-09-01 17:52:49 |
| DM0DOS-11 | 118 | 2026-09-01 16:47:50 | 2026-09-01 17:15:46 |
| OE5MMP-10 | 114 | 2026-09-01 16:23:20 | 2026-09-01 17:53:49 |
| DG1MJG | 97 | 2026-09-01 15:48:26 | 2026-09-01 17:45:13 |
| OM5KV | 88 | 2026-09-01 17:04:46 | 2026-09-01 17:21:28 |
| PG1ADW-2 | 80 | 2026-09-01 16:26:49 | 2026-09-01 17:36:04 |
| DK5PH-5 | 77 | 2026-09-01 16:29:14 | 2026-09-01 17:22:46 |
| PETON7-10 | 77 | 2026-09-01 16:49:59 | 2026-09-01 17:15:55 |
| IN3HCDX | 60 | 2026-09-01 16:20:07 | 2026-09-01 17:36:32 |
| DF7PN | 55 | 2026-09-01 16:22:59 | 2026-09-01 17:23:33 |
| OE8JPQ-2 | 55 | 2026-09-01 16:51:22 | 2026-09-01 17:15:48 |
| DB0NH | 52 | 2026-09-01 15:57:42 | 2026-09-01 17:49:37 |
| DL2OL | 49 | 2026-09-01 15:56:13 | 2026-09-01 17:19:18 |
| OE3JTB-15 | 41 | 2026-09-01 16:24:08 | 2026-09-01 17:57:30 |
| OE5HKT-10 | 30 | 2026-09-01 16:53:08 | 2026-09-01 17:37:22 |
| DO8TBO-1 | 27 | 2026-09-01 16:11:47 | 2026-09-01 17:22:40 |
| DF3TZ-5 | 24 | 2026-09-01 16:52:20 | 2026-09-01 17:33:44 |
| DN1GJH-1 | 21 | 2026-09-01 16:21:00 | 2026-09-01 17:23:29 |
| DM7RM-13 | 19 | 2026-09-01 16:49:53 | 2026-09-01 17:12:50 |
| SONDE2-11 | 17 | 2026-09-01 16:55:22 | 2026-09-01 17:09:51 |
| DF1GD-15 | 13 | 2026-09-01 16:34:59 | 2026-09-01 17:13:17 |
| DH7VM-15 | 12 | 2026-09-01 16:18:38 | 2026-09-01 17:25:15 |
| DF2AP-13 | 12 | 2026-09-01 16:40:08 | 2026-09-01 17:15:26 |
| EDDB2-11 | 11 | 2026-09-01 17:04:33 | 2026-09-01 17:11:48 |
| OE5REO-15 | 9 | 2026-09-01 16:55:50 | 2026-09-01 17:11:10 |
| AM1SDL-15 | 6 | 2026-09-01 16:52:55 | 2026-09-01 17:14:32 |
| SONCRA | 5 | 2026-09-01 17:04:16 | 2026-09-01 17:09:27 |
| DB0ND-19 | 4 | 2026-09-01 15:57:22 | 2026-09-01 17:13:55 |
| DJTTGO | 3 | 2026-09-01 17:00:36 | 2026-09-01 17:09:25 |
| Receiver | Date | Latitude | Longitude | Direction | Speed | Altitude | Climb | Temperature | Humidity | Pressure | Voltage | Killtimer | Uptime | BKT | XDATA |
|---|---|---|---|---|---|---|---|---|---|---|---|---|---|---|---|
| OE5DXL-15 | 2026-09-01 18:05:35 | 47.86665 | 12.59536 | 250° | 11km/h | 830m | -3.9m/s | 19.9°C | 48.9% | 930.7hPa | 2.7V | 00:00:00 | 00:00:00 | 00:00:00 | |
| OE5DXL-15 | 2026-09-01 18:05:33 | 47.86667 | 12.59543 | 246° | 9km/h | 838m | -4.1m/s | 19.8°C | 49.2% | 929.7hPa | 2.7V | 07:34:00 | 00:00:00 | 00:00:00 | |
| OE5DXL-15 | 2026-09-01 18:05:27 | 47.86672 | 12.59561 | 255° | 7km/h | 861m | -3.5m/s | 19.6°C | 49.7% | 927.4hPa | 2.7V | 00:00:00 | 00:00:00 | 00:00:00 | |
| OE5DXL-15 | 2026-09-01 18:05:20 | 47.86675 | 12.59581 | 260° | 7km/h | 887m | -3.7m/s | 19.4°C | 50.2% | 924.5hPa | 2.7V | 00:00:00 | 00:00:00 | 00:00:00 | |
| OE5DXL-15 | 2026-09-01 18:05:14 | 47.86678 | 12.59597 | 259° | 5km/h | 910m | -3.8m/s | 19.2°C | 50.6% | 922.1hPa | 2.7V | 00:00:00 | 00:00:00 | 00:00:00 | |
| OE5DXL-15 | 2026-09-01 18:05:08 | 47.86679 | 12.59608 | 254° | 4km/h | 934m | -3.8m/s | 19.1°C | 50.9% | 919.7hPa | 2.7V | 00:00:00 | 00:00:00 | 00:00:00 | |
| OE5DXL-15 | 2026-09-01 18:05:02 | 47.86680 | 12.59616 | 286° | 2km/h | 957m | -3.8m/s | 18.9°C | 51.2% | 917.0hPa | 2.7V | 00:00:00 | 00:00:00 | 00:00:00 | |
| OE5DXL-15 | 2026-09-01 18:04:56 | 47.86679 | 12.59620 | 287° | 2km/h | 980m | -3.8m/s | 18.8°C | 50.2% | 914.6hPa | 2.7V | 00:00:00 | 00:00:00 | 00:00:00 | |
| OE5DXL-15 | 2026-09-01 18:04:50 | 47.86680 | 12.59624 | 234° | 2km/h | 1002m | -3.9m/s | 18.6°C | 50.8% | 912.3hPa | 2.7V | 00:00:00 | 00:00:00 | 00:00:00 | |
| OE5DXL-15 | 2026-09-01 18:04:44 | 47.86682 | 12.59627 | 221° | 2km/h | 1027m | -4.1m/s | 18.4°C | 51.5% | 909.6hPa | 2.7V | 07:34:00 | 00:00:00 | 00:00:00 | |
| OE5DXL-15 | 2026-09-01 18:04:38 | 47.86683 | 12.59628 | 342° | 2km/h | 1052m | -4.1m/s | 18.1°C | 52.5% | 907.0hPa | 2.7V | 00:00:00 | 00:00:00 | 00:00:00 | |
| OE5DXL-15 | 2026-09-01 18:04:32 | 47.86685 | 12.59627 | 175° | 2km/h | 1075m | -3.7m/s | 17.9°C | 52.5% | 904.5hPa | 2.7V | 00:00:00 | 00:00:00 | 00:00:00 | |
| OE5DXL-15 | 2026-09-01 18:04:26 | 47.86689 | 12.59627 | 187° | 2km/h | 1099m | -3.6m/s | 17.7°C | 53.4% | 901.9hPa | 2.7V | 00:00:00 | 00:00:00 | 00:00:00 | |
| OE5DXL-15 | 2026-09-01 18:04:20 | 47.86692 | 12.59627 | 157° | 2km/h | 1122m | -3.6m/s | 17.5°C | 54.1% | 899.5hPa | 2.7V | 00:00:00 | 00:00:00 | 00:00:00 | |
| OE5DXL-15 | 2026-09-01 18:04:14 | 47.86695 | 12.59625 | 159° | 4km/h | 1145m | -3.6m/s | 17.2°C | 54.8% | 897.2hPa | 2.7V | 00:00:00 | 00:00:00 | 00:00:00 | |
| OE5DXL-15 | 2026-09-01 18:04:08 | 47.86699 | 12.59622 | 145° | 2km/h | 1167m | -3.8m/s | 17.0°C | 55.5% | 894.7hPa | 2.7V | 00:00:00 | 00:00:00 | 00:00:00 | |
| OE5DXL-15 | 2026-09-01 18:04:02 | 47.86701 | 12.59620 | 116° | 2km/h | 1190m | -3.5m/s | 16.8°C | 55.7% | 892.5hPa | 2.7V | 00:00:00 | 00:00:00 | 00:00:00 | |
| OE5DXL-15 | 2026-09-01 18:03:56 | 47.86702 | 12.59617 | 139° | 2km/h | 1212m | -3.5m/s | 16.6°C | 56.3% | 890.2hPa | 2.7V | 07:35:00 | 00:00:00 | 00:00:00 | |
| OE5DXL-15 | 2026-09-01 18:03:50 | 47.86704 | 12.59614 | 107° | 2km/h | 1233m | -3.8m/s | 16.4°C | 56.7% | 888.0hPa | 2.7V | 00:00:00 | 00:00:00 | 00:00:00 | |
| OE5DXL-15 | 2026-09-01 18:03:44 | 47.86704 | 12.59610 | 91° | 2km/h | 1257m | -3.4m/s | 16.2°C | 56.0% | 885.5hPa | 2.7V | 00:00:00 | 00:00:00 | 00:00:00 | |
| OE5DXL-15 | 2026-09-01 18:03:38 | 47.86704 | 12.59607 | 116° | 2km/h | 1279m | -3.6m/s | 16.0°C | 56.6% | 883.2hPa | 2.7V | 00:00:00 | 00:00:00 | 00:00:00 | |
| OE5DXL-15 | 2026-09-01 18:03:26 | 47.86706 | 12.59599 | 118° | 4km/h | 1325m | -3.8m/s | 15.6°C | 57.7% | 878.4hPa | 2.7V | 00:00:00 | 00:00:00 | 00:00:00 | |
| OE5DXL-15 | 2026-09-01 18:03:20 | 47.86706 | 12.59593 | 77° | 2km/h | 1348m | -3.8m/s | 15.4°C | 57.9% | 875.8hPa | 2.7V | 00:00:00 | 00:00:00 | 00:00:00 | |
| OE5DXL-15 | 2026-09-01 18:03:14 | 47.86705 | 12.59587 | 87° | 2km/h | 1372m | -3.8m/s | 15.1°C | 58.7% | 873.3hPa | 2.7V | 00:00:00 | 00:00:00 | 00:00:00 | |
| OE5DXL-15 | 2026-09-01 18:03:08 | 47.86705 | 12.59581 | 93° | 4km/h | 1397m | -3.8m/s | 14.9°C | 59.4% | 871.0hPa | 2.7V | 07:36:00 | 00:00:00 | 00:00:00 | |
| OE5DXL-15 | 2026-09-01 18:03:02 | 47.86704 | 12.59575 | 82° | 4km/h | 1420m | -4.0m/s | 14.7°C | 60.1% | 868.6hPa | 2.7V | 00:00:00 | 00:00:00 | 00:00:00 | |
| OE5DXL-15 | 2026-09-01 18:02:56 | 47.86703 | 12.59567 | 68° | 4km/h | 1444m | -4.0m/s | 14.5°C | 60.7% | 866.1hPa | 2.7V | 00:00:00 | 00:00:00 | 00:00:00 | |
| OE5DXL-15 | 2026-09-01 18:02:50 | 47.86702 | 12.59559 | 75° | 4km/h | 1469m | -4.0m/s | 14.2°C | 61.5% | 863.7hPa | 2.7V | 00:00:00 | 00:00:00 | 00:00:00 | |
| OE5DXL-15 | 2026-09-01 18:02:44 | 47.86701 | 12.59551 | 80° | 4km/h | 1493m | -4.0m/s | 14.0°C | 62.2% | 861.2hPa | 2.7V | 00:00:00 | 00:00:00 | 00:00:00 | |
| OE5DXL-15 | 2026-09-01 18:02:38 | 47.86700 | 12.59543 | 85° | 4km/h | 1517m | -3.8m/s | 13.8°C | 62.7% | 858.7hPa | 2.7V | 00:00:00 | 00:00:00 | 00:00:00 | |
| OE5DXL-15 | 2026-09-01 18:02:32 | 47.86699 | 12.59535 | 88° | 4km/h | 1541m | -4.2m/s | 13.6°C | 63.8% | 856.3hPa | 2.7V | 00:00:00 | 00:00:00 | 00:00:00 | |
| OE5DXL-15 | 2026-09-01 18:02:26 | 47.86699 | 12.59527 | 75° | 4km/h | 1566m | -4.0m/s | 13.3°C | 64.4% | 853.9hPa | 2.7V | 00:00:00 | 02:52:07 | 00:00:00 | |
| OE5DXL-15 | 2026-09-01 18:02:20 | 47.86698 | 12.59518 | 82° | 5km/h | 1590m | -4.2m/s | 13.1°C | 64.8% | 851.4hPa | 2.7V | 07:37:00 | 00:00:00 | 00:00:00 | |
| OE5DXL-15 | 2026-09-01 18:02:14 | 47.86696 | 12.59508 | 80° | 5km/h | 1615m | -3.9m/s | 12.9°C | 65.5% | 848.9hPa | 2.7V | 00:00:00 | 00:00:00 | 00:00:00 | |
| OE5DXL-15 | 2026-09-01 18:02:08 | 47.86695 | 12.59496 | 72° | 5km/h | 1640m | -4.0m/s | 12.6°C | 66.9% | 846.2hPa | 2.7V | 00:00:00 | 00:00:00 | 00:00:00 | |
| DG1MFX-10 | 2026-09-01 18:02:00 | 47.86693 | 12.59482 | 73° | 5km/h | 1669m | -4.1m/s | 12.5°C | 66.8% | 843.3hPa | 2.7V | 07:37:00 | 00:00:00 | 00:00:00 | |
| OE5DXL-15 | 2026-09-01 18:01:48 | 47.86690 | 12.59452 | 87° | 7km/h | 1722m | -4.1m/s | 11.9°C | 68.9% | 838.0hPa | 2.7V | 00:00:00 | 00:00:00 | 00:00:00 | |
| DG1MFX-10 | 2026-09-01 18:01:40 | 47.86688 | 12.59436 | 85° | 7km/h | 1751m | -4.0m/s | 11.7°C | 69.5% | 835.1hPa | 2.7V | 07:38:00 | 00:00:00 | 00:00:00 | |
| OE5DXL-15 | 2026-09-01 18:01:28 | 47.86686 | 12.59402 | 82° | 7km/h | 1806m | -4.1m/s | 11.1°C | 72.0% | 829.7hPa | 2.7V | 00:00:00 | 00:00:00 | 00:00:00 | |
| DG1MFX-10 | 2026-09-01 18:01:19 | 47.86684 | 12.59380 | 87° | 7km/h | 1840m | -4.0m/s | 10.8°C | 72.7% | 826.3hPa | 2.7V | 07:38:00 | 00:00:00 | 00:00:00 | |
| OE5DXL-15 | 2026-09-01 18:01:08 | 47.86684 | 12.59343 | 86° | 9km/h | 1890m | -4.0m/s | 10.3°C | 75.3% | 821.4hPa | 2.7V | 00:00:00 | 00:00:00 | 00:00:00 | |
| DG1MFX-10 | 2026-09-01 18:00:59 | 47.86683 | 12.59314 | 90° | 9km/h | 1924m | -4.2m/s | 10.0°C | 76.2% | 818.2hPa | 2.7V | 07:39:00 | 00:00:00 | 00:00:00 | |
| DO3MHA-11 | 2026-09-01 18:00:51 | 47.86681 | 12.59281 | 83° | 11km/h | 1962m | -4.2m/s | 9.6°C | 78.4% | 814.5hPa | 2.7V | 00:00:00 | 02:50:32 | 00:00:00 | |
| OE5DXL-15 | 2026-09-01 18:00:48 | 47.86680 | 12.59269 | 87° | 11km/h | 1974m | -4.1m/s | 9.5°C | 78.9% | 813.1hPa | 2.7V | 00:00:00 | 00:00:00 | 00:00:00 | |
| DO3MHA-11 | 2026-09-01 18:00:46 | 47.86680 | 12.59260 | 87° | 11km/h | 1983m | -4.0m/s | 9.4°C | 79.4% | 812.3hPa | 2.7V | 00:00:00 | 02:50:27 | 00:00:00 | |
| DO3MHA-11 | 2026-09-01 18:00:41 | 47.86679 | 12.59239 | 86° | 11km/h | 2004m | -4.2m/s | 9.2°C | 80.3% | 810.2hPa | 2.7V | 00:00:00 | 02:50:22 | 00:00:00 | |
| DG1MFX-10 | 2026-09-01 18:00:38 | 47.86679 | 12.59231 | 88° | 11km/h | 2013m | -4.4m/s | 9.2°C | 80.0% | 809.4hPa | 2.7V | 07:39:00 | 00:00:00 | 00:00:00 | |
| DO3MHA-11 | 2026-09-01 18:00:36 | 47.86679 | 12.59218 | 85° | 13km/h | 2025m | -4.2m/s | 9.1°C | 81.3% | 808.1hPa | 2.7V | 00:00:00 | 02:50:17 | 00:00:00 | |
| DO3MHA-11 | 2026-09-01 18:00:31 | 47.86677 | 12.59196 | 86° | 13km/h | 2048m | -4.3m/s | 8.8°C | 82.2% | 806.0hPa | 2.7V | 00:00:00 | 02:50:12 | 00:00:00 | |
| OE5DXL-15 | 2026-09-01 18:00:28 | 47.86677 | 12.59182 | 88° | 15km/h | 2060m | -4.2m/s | 8.7°C | 82.8% | 804.8hPa | 2.7V | 00:00:00 | 00:00:00 | 00:00:00 | |
| DO3MHA-11 | 2026-09-01 18:00:21 | 47.86676 | 12.59144 | 90° | 15km/h | 2089m | -4.1m/s | 8.4°C | 84.2% | 801.8hPa | 2.7V | 00:00:00 | 02:50:02 | 00:00:00 | |
| DG1MFX-10 | 2026-09-01 18:00:17 | 47.86676 | 12.59127 | 90° | 15km/h | 2102m | -4.4m/s | 8.4°C | 83.9% | 800.5hPa | 2.7V | 07:40:00 | 00:00:00 | 00:00:00 | |
| DO3MHA-11 | 2026-09-01 18:00:16 | 47.86676 | 12.59116 | 88° | 15km/h | 2111m | -4.2m/s | 8.3°C | 85.0% | 799.8hPa | 2.7V | 00:00:00 | 02:49:57 | 00:00:00 | |
| DO3MHA-12 | 2026-09-01 18:00:12 | 47.86675 | 12.59094 | 87° | 16km/h | 2128m | -4.4m/s | 8.1°C | 85.5% | 798.1hPa | 2.7V | 00:00:00 | 02:49:53 | 00:00:00 | |
| DO3MHA-11 | 2026-09-01 18:00:11 | 47.86675 | 12.59088 | 88° | 16km/h | 2133m | -4.4m/s | 8.1°C | 85.8% | 797.6hPa | 2.7V | 00:00:00 | 02:49:52 | 00:00:00 | |
| OE5DXL-15 | 2026-09-01 18:00:08 | 47.86675 | 12.59070 | 91° | 18km/h | 2146m | -4.3m/s | 8.0°C | 85.7% | 796.3hPa | 2.7V | 07:39:00 | 00:00:00 | 00:00:00 | |
| DO3MHA-12 | 2026-09-01 18:00:07 | 47.86675 | 12.59064 | 91° | 16km/h | 2150m | -4.2m/s | 8.0°C | 85.9% | 796.0hPa | 2.7V | 00:00:00 | 02:49:48 | 00:00:00 | |
| DO3MHA-11 | 2026-09-01 18:00:06 | 47.86675 | 12.59058 | 91° | 16km/h | 2154m | -3.9m/s | 7.9°C | 86.1% | 795.6hPa | 2.7V | 00:00:00 | 02:49:47 | 00:00:00 | |
| DO3MHA-12 | 2026-09-01 18:00:02 | 47.86675 | 12.59032 | 92° | 18km/h | 2171m | -4.2m/s | 7.8°C | 86.7% | 794.0hPa | 2.7V | 00:00:00 | 02:49:43 | 00:00:00 | |
| DO3MHA-11 | 2026-09-01 18:00:01 | 47.86675 | 12.59025 | 92° | 18km/h | 2175m | -4.1m/s | 7.7°C | 87.0% | 793.5hPa | 2.7V | 00:00:00 | 02:49:42 | 00:00:00 | |
| DO3MHA-12 | 2026-09-01 17:59:57 | 47.86675 | 12.58997 | 92° | 18km/h | 2193m | -4.1m/s | 7.5°C | 87.9% | 791.9hPa | 2.7V | 00:00:00 | 02:49:38 | 00:00:00 | |
| DO3MHA-11 | 2026-09-01 17:59:56 | 47.86675 | 12.58990 | 90° | 18km/h | 2197m | -4.2m/s | 7.5°C | 88.0% | 791.5hPa | 2.7V | 00:00:00 | 02:49:37 | 00:00:00 | |
| DO3MHA-12 | 2026-09-01 17:59:52 | 47.86676 | 12.58962 | 93° | 18km/h | 2213m | -4.1m/s | 7.4°C | 88.6% | 789.9hPa | 2.7V | 00:00:00 | 02:49:33 | 00:00:00 | |
| DO3MHA-11 | 2026-09-01 17:59:51 | 47.86676 | 12.58955 | 93° | 18km/h | 2217m | -4.0m/s | 7.3°C | 88.8% | 789.5hPa | 2.7V | 00:00:00 | 02:49:32 | 00:00:00 | |
| OE5DRO-10 | 2026-09-01 17:59:49 | 47.86676 | 12.58941 | 91° | 20km/h | 2226m | -3.9m/s | 7.3°C | 88.7% | 788.8hPa | 2.7V | 00:00:00 | 00:00:00 | 00:00:00 | |
| OE5DXL-15 | 2026-09-01 17:59:48 | 47.86676 | 12.58934 | 92° | 20km/h | 2230m | -4.0m/s | 7.2°C | 88.8% | 788.4hPa | 2.7V | 00:00:00 | 00:00:00 | 00:00:00 | |
| DO3MHA-12 | 2026-09-01 17:59:47 | 47.86676 | 12.58926 | 91° | 20km/h | 2234m | -3.9m/s | 7.2°C | 89.2% | 787.9hPa | 2.7V | 07:39:00 | 02:49:28 | 00:00:00 | |
| DO3MHA-11 | 2026-09-01 17:59:46 | 47.86676 | 12.58919 | 92° | 20km/h | 2238m | -4.2m/s | 7.2°C | 88.7% | 787.4hPa | 2.7V | 07:39:00 | 02:49:27 | 00:00:00 | |
| DO3MHA-12 | 2026-09-01 17:59:42 | 47.86676 | 12.58889 | 91° | 20km/h | 2254m | -3.9m/s | 7.1°C | 88.2% | 786.0hPa | 2.7V | 00:00:00 | 02:49:23 | 00:00:00 | |
| DO3MHA-11 | 2026-09-01 17:59:41 | 47.86676 | 12.58881 | 91° | 20km/h | 2259m | -4.0m/s | 7.0°C | 88.3% | 785.6hPa | 2.7V | 00:00:00 | 02:49:22 | 00:00:00 | |
| DO3MHA-12 | 2026-09-01 17:59:37 | 47.86677 | 12.58850 | 91° | 20km/h | 2275m | -4.2m/s | 6.9°C | 88.8% | 784.0hPa | 2.7V | 00:00:00 | 02:49:18 | 00:00:00 | |
| DO3MHA-11 | 2026-09-01 17:59:36 | 47.86677 | 12.58842 | 92° | 22km/h | 2279m | -3.9m/s | 6.9°C | 88.9% | 783.6hPa | 2.7V | 00:00:00 | 02:49:17 | 00:00:00 | |
| OE5DRO-10 | 2026-09-01 17:59:34 | 47.86677 | 12.58827 | 91° | 22km/h | 2287m | -3.8m/s | 6.8°C | 89.3% | 782.8hPa | 2.7V | 00:00:00 | 00:00:00 | 00:00:00 | |
| DO3MHA-12 | 2026-09-01 17:59:32 | 47.86676 | 12.58810 | 88° | 22km/h | 2295m | -4.2m/s | 6.7°C | 89.5% | 782.0hPa | 2.7V | 00:00:00 | 02:49:13 | 00:00:00 | |
| DO3MHA-11 | 2026-09-01 17:59:31 | 47.86676 | 12.58802 | 89° | 22km/h | 2299m | -4.0m/s | 6.7°C | 89.5% | 781.9hPa | 2.7V | 00:00:00 | 02:49:12 | 00:00:00 | |
| OE5DXL-15 | 2026-09-01 17:59:28 | 47.86676 | 12.58777 | 89° | 24km/h | 2311m | -4.0m/s | 6.6°C | 90.1% | 780.6hPa | 2.7V | 00:00:00 | 00:00:00 | 00:00:00 | |
| DO3MHA-12 | 2026-09-01 17:59:27 | 47.86675 | 12.58769 | 88° | 22km/h | 2315m | -3.9m/s | 6.6°C | 90.3% | 780.3hPa | 2.7V | 00:00:00 | 02:49:08 | 00:00:00 | |
| DO3MHA-11 | 2026-09-01 17:59:26 | 47.86675 | 12.58761 | 89° | 24km/h | 2319m | -4.0m/s | 6.5°C | 90.3% | 779.8hPa | 2.7V | 00:00:00 | 02:49:07 | 00:00:00 | |
| DO3MHA-12 | 2026-09-01 17:59:22 | 47.86675 | 12.58726 | 89° | 24km/h | 2336m | -4.1m/s | 6.4°C | 90.8% | 778.3hPa | 2.7V | 00:00:00 | 02:49:03 | 00:00:00 | |
| DO3MHA-11 | 2026-09-01 17:59:21 | 47.86675 | 12.58717 | 90° | 24km/h | 2340m | -4.2m/s | 6.4°C | 90.9% | 777.8hPa | 2.7V | 00:00:00 | 02:49:02 | 00:00:00 | |
| OE5DRO-10 | 2026-09-01 17:59:20 | 47.86675 | 12.58708 | 91° | 24km/h | 2344m | -4.2m/s | 6.3°C | 91.2% | 777.5hPa | 2.7V | 07:40:00 | 00:00:00 | 00:00:00 | |
| DO3MHA-12 | 2026-09-01 17:59:17 | 47.86675 | 12.58681 | 89° | 26km/h | 2357m | -4.1m/s | 6.2°C | 91.9% | 776.3hPa | 2.7V | 00:00:00 | 02:48:58 | 00:00:00 | |
| DO3MHA-11 | 2026-09-01 17:59:16 | 47.86675 | 12.58672 | 88° | 26km/h | 2361m | -4.1m/s | 6.2°C | 92.0% | 775.9hPa | 2.7V | 00:00:00 | 02:48:57 | 00:00:00 | |
| OE5DRO-10 | 2026-09-01 17:59:13 | 47.86673 | 12.58644 | 87° | 26km/h | 2373m | -4.0m/s | 6.1°C | 92.4% | 774.7hPa | 2.7V | 00:00:00 | 00:00:00 | 00:00:00 | |
| DO3MHA-12 | 2026-09-01 17:59:12 | 47.86673 | 12.58634 | 88° | 26km/h | 2377m | -4.0m/s | 6.1°C | 90.8% | 774.4hPa | 2.7V | 00:00:00 | 02:48:53 | 00:00:00 | |
| DO3MHA-11 | 2026-09-01 17:59:11 | 47.86673 | 12.58625 | 86° | 26km/h | 2381m | -4.1m/s | 6.0°C | 91.2% | 773.8hPa | 2.7V | 00:00:00 | 02:48:52 | 00:00:00 | |
| OE5DXL-15 | 2026-09-01 17:59:08 | 47.86671 | 12.58596 | 86° | 27km/h | 2394m | -4.0m/s | 5.9°C | 91.8% | 772.7hPa | 2.7V | 00:00:00 | 00:00:00 | 00:00:00 | |
| DO3MHA-12 | 2026-09-01 17:59:07 | 47.86671 | 12.58586 | 86° | 26km/h | 2398m | -4.0m/s | 5.9°C | 91.8% | 772.3hPa | 2.7V | 07:40:00 | 02:48:48 | 00:00:00 | |
| DO3MHA-11 | 2026-09-01 17:59:06 | 47.86670 | 12.58577 | 86° | 26km/h | 2402m | -3.9m/s | 5.9°C | 92.1% | 772.0hPa | 2.7V | 07:40:00 | 02:48:47 | 00:00:00 | |
| DO3MHA-11 | 2026-09-01 17:59:01 | 47.86668 | 12.58528 | 87° | 27km/h | 2422m | -4.0m/s | 5.7°C | 92.5% | 770.0hPa | 2.7V | 00:00:00 | 02:48:42 | 00:00:00 | |
| OE5DRO-10 | 2026-09-01 17:58:59 | 47.86667 | 12.58508 | 86° | 27km/h | 2430m | -3.9m/s | 5.7°C | 92.7% | 769.4hPa | 2.7V | 00:00:00 | 00:00:00 | 00:00:00 | |
| DO3MHA-12 | 2026-09-01 17:58:57 | 47.86666 | 12.58487 | 87° | 27km/h | 2437m | -3.8m/s | 5.6°C | 92.7% | 768.6hPa | 2.7V | 00:00:00 | 02:48:38 | 00:00:00 | |
| DO3MHA-11 | 2026-09-01 17:58:56 | 47.86666 | 12.58477 | 86° | 27km/h | 2441m | -4.1m/s | 5.6°C | 92.9% | 768.3hPa | 2.7V | 00:00:00 | 02:48:37 | 00:00:00 | |
| DG1MFX-10 | 2026-09-01 17:58:55 | 47.86666 | 12.58477 | 87° | 27km/h | 2441m | -4.1m/s | 5.6°C | 91.8% | 768.4hPa | 2.7V | 07:40:00 | 00:00:00 | 00:00:00 | |
| DO3MHA-12 | 2026-09-01 17:58:52 | 47.86663 | 12.58435 | 84° | 29km/h | 2458m | -3.9m/s | 5.5°C | 93.2% | 766.7hPa | 2.7V | 00:00:00 | 02:48:33 | 00:00:00 | |
| DO3MHA-11 | 2026-09-01 17:58:51 | 47.86662 | 12.58424 | 84° | 29km/h | 2462m | -4.0m/s | 5.4°C | 93.5% | 766.4hPa | 2.7V | 00:00:00 | 02:48:32 | 00:00:00 | |
| OE5DXL-15 | 2026-09-01 17:58:48 | 47.86660 | 12.58392 | 84° | 29km/h | 2474m | -4.0m/s | 5.3°C | 94.1% | 765.3hPa | 2.7V | 00:00:00 | 00:00:00 | 00:00:00 | |
| DO3MHA-12 | 2026-09-01 17:58:47 | 47.86659 | 12.58381 | 84° | 29km/h | 2478m | -3.9m/s | 5.3°C | 94.0% | 764.8hPa | 2.7V | 00:00:00 | 02:48:28 | 00:00:00 | |
| DO3MHA-11 | 2026-09-01 17:58:46 | 47.86658 | 12.58370 | 83° | 29km/h | 2482m | -3.7m/s | 5.2°C | 94.4% | 764.3hPa | 2.7V | 00:00:00 | 02:48:27 | 00:00:00 | |
| OE5DRO-10 | 2026-09-01 17:58:45 | 47.86657 | 12.58359 | 85° | 29km/h | 2486m | -3.9m/s | 5.2°C | 94.5% | 764.1hPa | 2.7V | 00:00:00 | 00:00:00 | 00:00:00 | |
| DO3MHA-12 | 2026-09-01 17:58:42 | 47.86655 | 12.58325 | 85° | 29km/h | 2498m | -3.8m/s | 5.1°C | 94.8% | 763.1hPa | 2.7V | 00:00:00 | 02:48:23 | 00:00:00 | |
| DO3MHA-11 | 2026-09-01 17:58:41 | 47.86654 | 12.58314 | 85° | 29km/h | 2502m | -3.9m/s | 5.1°C | 94.9% | 762.6hPa | 2.7V | 00:00:00 | 02:48:22 | 00:00:00 | |
| OE5DRO-10 | 2026-09-01 17:58:38 | 47.86652 | 12.58281 | 85° | 31km/h | 2513m | -3.7m/s | 5.0°C | 95.0% | 761.6hPa | 2.7V | 00:00:00 | 00:00:00 | 00:00:00 | |
| DO3MHA-12 | 2026-09-01 17:58:37 | 47.86651 | 12.58270 | 87° | 31km/h | 2517m | -3.7m/s | 4.9°C | 95.2% | 761.2hPa | 2.7V | 00:00:00 | 02:48:18 | 00:00:00 | |
| DO3MHA-11 | 2026-09-01 17:58:36 | 47.86651 | 12.58258 | 86° | 31km/h | 2521m | -3.9m/s | 4.9°C | 95.3% | 761.0hPa | 2.7V | 00:00:00 | 02:48:17 | 00:00:00 | |
| DG1MFX-10 | 2026-09-01 17:58:34 | 47.86650 | 12.58247 | 88° | 29km/h | 2525m | -3.8m/s | 4.9°C | 94.1% | 760.6hPa | 2.7V | 07:41:00 | 00:00:00 | 00:00:00 | |
| DO3MHA-12 | 2026-09-01 17:58:32 | 47.86649 | 12.58213 | 87° | 31km/h | 2537m | -3.8m/s | 4.8°C | 94.9% | 759.2hPa | 2.7V | 00:00:00 | 02:48:13 | 00:00:00 | |
| DO3MHA-11 | 2026-09-01 17:58:31 | 47.86649 | 12.58201 | 88° | 31km/h | 2540m | -3.6m/s | 4.8°C | 95.1% | 759.0hPa | 2.7V | 00:00:00 | 02:48:12 | 00:00:00 | |
| OE5DXL-15 | 2026-09-01 17:58:28 | 47.86648 | 12.58166 | 87° | 33km/h | 2551m | -3.3m/s | 4.7°C | 95.3% | 758.0hPa | 2.7V | 00:00:00 | 00:00:00 | 00:00:00 | |
| DO3MHA-12 | 2026-09-01 17:58:27 | 47.86647 | 12.58154 | 86° | 31km/h | 2555m | -3.5m/s | 4.7°C | 95.8% | 757.6hPa | 2.7V | 07:41:00 | 02:48:08 | 00:00:00 | |
| DO3MHA-11 | 2026-09-01 17:58:26 | 47.86647 | 12.58142 | 86° | 31km/h | 2558m | -3.5m/s | 4.6°C | 95.7% | 757.3hPa | 2.7V | 07:41:00 | 02:48:07 | 00:00:00 | |
| OE5DRO-10 | 2026-09-01 17:58:24 | 47.86645 | 12.58118 | 85° | 33km/h | 2565m | -3.3m/s | 4.6°C | 95.9% | 756.7hPa | 2.7V | 07:41:00 | 00:00:00 | 00:00:00 | |
| DO3MHA-12 | 2026-09-01 17:58:22 | 47.86644 | 12.58094 | 86° | 33km/h | 2572m | -3.6m/s | 4.5°C | 96.4% | 756.1hPa | 2.7V | 00:00:00 | 02:48:03 | 00:00:00 | |
| DO3MHA-11 | 2026-09-01 17:58:21 | 47.86643 | 12.58082 | 87° | 33km/h | 2576m | -3.6m/s | 4.5°C | 96.6% | 755.7hPa | 2.7V | 00:00:00 | 02:48:02 | 00:00:00 | |
| DO3MHA-12 | 2026-09-01 17:58:17 | 47.86642 | 12.58032 | 90° | 35km/h | 2590m | -3.3m/s | 4.4°C | 95.8% | 754.4hPa | 2.7V | 00:00:00 | 02:47:58 | 00:00:00 | |
| DO3MHA-11 | 2026-09-01 17:58:16 | 47.86642 | 12.58019 | 91° | 35km/h | 2593m | -3.2m/s | 4.4°C | 95.6% | 754.1hPa | 2.7V | 00:00:00 | 02:47:57 | 00:00:00 | |
| DG1MFX-10 | 2026-09-01 17:58:14 | 47.86642 | 12.58007 | 92° | 35km/h | 2597m | -3.4m/s | 4.4°C | 94.3% | 753.9hPa | 2.7V | 07:41:00 | 00:00:00 | 00:00:00 | |
| DO3MHA-12 | 2026-09-01 17:58:12 | 47.86642 | 12.57969 | 91° | 33km/h | 2607m | -3.4m/s | 4.3°C | 95.8% | 752.9hPa | 2.7V | 00:00:00 | 02:47:53 | 00:00:00 | |
| DO3MHA-11 | 2026-09-01 17:58:11 | 47.86642 | 12.57956 | 89° | 33km/h | 2610m | -3.4m/s | 4.3°C | 96.0% | 752.5hPa | 2.7V | 00:00:00 | 02:47:52 | 00:00:00 | |
| OE5DRO-10 | 2026-09-01 17:58:10 | 47.86642 | 12.57944 | 88° | 35km/h | 2614m | -3.3m/s | 4.3°C | 96.1% | 752.2hPa | 2.7V | 00:00:00 | 00:00:00 | 00:00:00 | |
| OE5DXL-15 | 2026-09-01 17:58:08 | 47.86641 | 12.57919 | 86° | 38km/h | 2620m | -3.2m/s | 4.2°C | 96.3% | 751.6hPa | 2.6V | 00:00:00 | 00:00:00 | 00:00:00 | |
| DO3MHA-12 | 2026-09-01 17:58:07 | 47.86640 | 12.57906 | 85° | 35km/h | 2623m | -3.4m/s | 4.2°C | 96.6% | 751.2hPa | 2.6V | 00:00:00 | 02:47:48 | 00:00:00 | |
| DO3MHA-11 | 2026-09-01 17:58:06 | 47.86639 | 12.57894 | 84° | 35km/h | 2627m | -3.4m/s | 4.1°C | 96.7% | 751.1hPa | 2.7V | 00:00:00 | 02:47:47 | 00:00:00 | |
| DO3MHA-12 | 2026-09-01 17:58:02 | 47.86635 | 12.57842 | 84° | 37km/h | 2640m | -3.4m/s | 4.1°C | 96.2% | 749.8hPa | 2.7V | 00:00:00 | 02:47:43 | 00:00:00 | |
| DO3MHA-11 | 2026-09-01 17:58:01 | 47.86634 | 12.57828 | 84° | 38km/h | 2644m | -3.5m/s | 4.1°C | 96.3% | 749.4hPa | 2.7V | 00:00:00 | 02:47:42 | 00:00:00 | |
| DO3MHA-12 | 2026-09-01 17:57:57 | 47.86630 | 12.57771 | 84° | 38km/h | 2658m | -3.2m/s | 4.1°C | 95.5% | 748.2hPa | 2.7V | 00:00:00 | 02:47:38 | 00:00:00 | |
| DO3MHA-11 | 2026-09-01 17:57:56 | 47.86629 | 12.57758 | 84° | 38km/h | 2661m | -3.2m/s | 4.1°C | 95.4% | 748.0hPa | 2.7V | 00:00:00 | 02:47:37 | 00:00:00 | |
| DG1MFX-10 | 2026-09-01 17:57:53 | 47.86626 | 12.57730 | 84° | 38km/h | 2668m | -3.5m/s | 4.1°C | 94.7% | 747.3hPa | 2.7V | 07:41:00 | 00:00:00 | 00:00:00 | |
| DO3MHA-12 | 2026-09-01 17:57:52 | 47.86624 | 12.57701 | 84° | 38km/h | 2675m | -3.3m/s | 4.1°C | 95.3% | 746.8hPa | 2.7V | 00:00:00 | 02:47:33 | 00:00:00 | |
| DO3MHA-11 | 2026-09-01 17:57:51 | 47.86623 | 12.57687 | 84° | 40km/h | 2678m | -2.9m/s | 4.2°C | 94.2% | 746.3hPa | 2.7V | 00:00:00 | 02:47:32 | 00:00:00 | |
| DO3MHA-12 | 2026-09-01 17:57:47 | 47.86618 | 12.57627 | 83° | 42km/h | 2690m | -3.3m/s | 4.4°C | 91.5% | 745.2hPa | 2.7V | 07:41:00 | 02:47:28 | 00:00:00 | |
| DO3MHA-11 | 2026-09-01 17:57:46 | 47.86617 | 12.57612 | 83° | 42km/h | 2693m | -3.1m/s | 4.5°C | 90.2% | 744.9hPa | 2.7V | 07:41:00 | 02:47:27 | 00:00:00 | |
| OE5DXL-15 | 2026-09-01 17:57:42 | 47.86611 | 12.57549 | 83° | 44km/h | 2706m | -3.3m/s | 4.8°C | 85.7% | 743.8hPa | 2.7V | 00:00:00 | 00:00:00 | 00:00:00 | |
| DO3MHA-11 | 2026-09-01 17:57:41 | 47.86609 | 12.57534 | 83° | 42km/h | 2709m | -3.4m/s | 4.9°C | 85.6% | 743.4hPa | 2.7V | 00:00:00 | 02:47:22 | 00:00:00 | |
| OE5DRO-10 | 2026-09-01 17:57:40 | 47.86608 | 12.57518 | 83° | 44km/h | 2713m | -3.2m/s | 4.8°C | 85.5% | 743.1hPa | 2.6V | 00:00:00 | 00:00:00 | 00:00:00 | |
| DO3MHA-12 | 2026-09-01 17:57:37 | 47.86604 | 12.57471 | 84° | 42km/h | 2723m | -3.5m/s | 4.9°C | 84.2% | 742.2hPa | 2.6V | 00:00:00 | 02:47:18 | 00:00:00 | |
| DO3MHA-11 | 2026-09-01 17:57:36 | 47.86603 | 12.57455 | 84° | 44km/h | 2727m | -3.6m/s | 4.9°C | 84.2% | 741.8hPa | 2.7V | 00:00:00 | 02:47:17 | 00:00:00 | |
| DG1MFX-10 | 2026-09-01 17:57:33 | 47.86600 | 12.57423 | 85° | 44km/h | 2734m | -3.6m/s | 4.9°C | 82.3% | 741.2hPa | 2.7V | 07:42:00 | 00:00:00 | 00:00:00 | |
| DO3MHA-12 | 2026-09-01 17:57:32 | 47.86598 | 12.57391 | 85° | 44km/h | 2741m | -3.5m/s | 5.0°C | 81.2% | 740.6hPa | 2.7V | 00:00:00 | 02:47:13 | 00:00:00 | |
| DO3MHA-11 | 2026-09-01 17:57:31 | 47.86597 | 12.57374 | 84° | 44km/h | 2745m | -3.5m/s | 5.1°C | 80.8% | 740.2hPa | 2.7V | 00:00:00 | 02:47:12 | 00:00:00 | |
| OE3JTB-15 | 2026-09-01 17:57:30 | 47.86596 | 12.57358 | 85° | 44km/h | 2748m | -3.5m/s | 5.1°C | 80.4% | 739.9hPa | 2.7V | 00:00:00 | 02:47:11 | 00:00:00 | |
| DO3MHA-12 | 2026-09-01 17:57:27 | 47.86593 | 12.57308 | 85° | 44km/h | 2759m | -3.6m/s | 5.0°C | 80.7% | 739.0hPa | 2.7V | 00:00:00 | 02:47:08 | 00:00:00 | |
| DO3MHA-11 | 2026-09-01 17:57:26 | 47.86592 | 12.57292 | 85° | 44km/h | 2763m | -3.6m/s | 5.0°C | 80.8% | 738.5hPa | 2.7V | 00:00:00 | 02:47:07 | 00:00:00 | |
| OE5DRO-10 | 2026-09-01 17:57:24 | 47.86590 | 12.57260 | 84° | 44km/h | 2770m | -3.7m/s | 4.9°C | 81.3% | 737.9hPa | 2.7V | 00:00:00 | 00:00:00 | 00:00:00 | |
| DO3MHA-12 | 2026-09-01 17:57:22 | 47.86587 | 12.57227 | 84° | 44km/h | 2778m | -3.8m/s | 4.8°C | 81.7% | 737.3hPa | 2.6V | 00:00:00 | 02:47:03 | 00:00:00 | |
| DO3MHA-11 | 2026-09-01 17:57:21 | 47.86586 | 12.57211 | 84° | 44km/h | 2781m | -3.8m/s | 4.8°C | 82.2% | 736.9hPa | 2.7V | 00:00:00 | 02:47:02 | 00:00:00 | |
| DO3MHA-12 | 2026-09-01 17:57:17 | 47.86581 | 12.57145 | 83° | 44km/h | 2797m | -3.8m/s | 4.7°C | 83.1% | 735.6hPa | 2.7V | 00:00:00 | 02:46:58 | 00:00:00 | |
| DO3MHA-11 | 2026-09-01 17:57:16 | 47.86579 | 12.57128 | 83° | 44km/h | 2801m | -3.9m/s | 4.7°C | 83.4% | 735.2hPa | 2.7V | 00:00:00 | 02:46:57 | 00:00:00 | |
| OE5DXL-15 | 2026-09-01 17:57:12 | 47.86573 | 12.57062 | 83° | 42km/h | 2816m | -3.9m/s | 4.6°C | 81.9% | 733.8hPa | 2.7V | 07:42:00 | 00:00:00 | 00:00:00 | |
| DO3MHA-11 | 2026-09-01 17:57:11 | 47.86572 | 12.57045 | 82° | 44km/h | 2820m | -3.8m/s | 4.5°C | 81.5% | 733.5hPa | 2.7V | 00:00:00 | 02:46:52 | 00:00:00 | |
| OE3JTB-15 | 2026-09-01 17:57:10 | 47.86570 | 12.57029 | 82° | 42km/h | 2824m | -3.8m/s | 4.5°C | 80.9% | 733.1hPa | 2.7V | 00:00:00 | 00:00:00 | 00:00:00 | |
| OE5DRO-10 | 2026-09-01 17:57:08 | 47.86567 | 12.56996 | 81° | 42km/h | 2832m | -3.9m/s | 4.5°C | 82.0% | 732.4hPa | 2.7V | 00:00:00 | 00:00:00 | 00:00:00 | |
| DO3MHA-12 | 2026-09-01 17:57:07 | 47.86565 | 12.56980 | 80° | 44km/h | 2836m | -3.9m/s | 4.4°C | 82.5% | 732.1hPa | 2.7V | 07:42:00 | 02:46:48 | 00:00:00 | |
| DO3MHA-11 | 2026-09-01 17:57:06 | 47.86563 | 12.56964 | 80° | 44km/h | 2840m | -3.8m/s | 4.4°C | 83.3% | 731.7hPa | 2.6V | 07:42:00 | 02:46:47 | 00:00:00 | |
| DO3MHA-12 | 2026-09-01 17:57:02 | 47.86555 | 12.56900 | 79° | 42km/h | 2855m | -3.9m/s | 4.3°C | 83.8% | 730.3hPa | 2.6V | 00:00:00 | 02:46:43 | 00:00:00 | |
| DO3MHA-11 | 2026-09-01 17:57:01 | 47.86553 | 12.56884 | 80° | 42km/h | 2859m | -3.9m/s | 4.3°C | 83.6% | 729.9hPa | 2.6V | 00:00:00 | 02:46:42 | 00:00:00 | |
| DO3MHA-12 | 2026-09-01 17:56:57 | 47.86544 | 12.56821 | 79° | 42km/h | 2875m | -4.0m/s | 4.2°C | 82.3% | 728.4hPa | 2.6V | 00:00:00 | 02:46:38 | 00:00:00 | |
| DO3MHA-11 | 2026-09-01 17:56:56 | 47.86542 | 12.56806 | 79° | 42km/h | 2879m | -3.9m/s | 4.2°C | 82.4% | 728.1hPa | 2.6V | 00:00:00 | 02:46:37 | 00:00:00 | |
| DO3MHA-12 | 2026-09-01 17:56:52 | 47.86533 | 12.56745 | 77° | 42km/h | 2895m | -3.9m/s | 4.1°C | 81.8% | 726.6hPa | 2.6V | 00:00:00 | 02:46:33 | 00:00:00 | |
| DO3MHA-11 | 2026-09-01 17:56:51 | 47.86530 | 12.56730 | 77° | 42km/h | 2899m | -3.9m/s | 4.1°C | 81.6% | 726.4hPa | 2.7V | 00:00:00 | 02:46:32 | 00:00:00 | |
| DO3MHA-12 | 2026-09-01 17:56:47 | 47.86521 | 12.56669 | 77° | 42km/h | 2915m | -4.1m/s | 4.0°C | 81.3% | 725.0hPa | 2.7V | 00:00:00 | 02:46:28 | 00:00:00 | |
| DO3MHA-11 | 2026-09-01 17:56:46 | 47.86518 | 12.56654 | 76° | 42km/h | 2919m | -3.9m/s | 4.0°C | 81.0% | 724.6hPa | 2.7V | 00:00:00 | 02:46:27 | 00:00:00 | |
| OE5DXL-15 | 2026-09-01 17:56:42 | 47.86507 | 12.56594 | 74° | 42km/h | 2935m | -4.0m/s | 3.9°C | 81.5% | 723.1hPa | 2.7V | 00:00:00 | 00:00:00 | 00:00:00 | |
| DO3MHA-11 | 2026-09-01 17:56:41 | 47.86504 | 12.56579 | 73° | 40km/h | 2939m | -3.9m/s | 3.9°C | 81.5% | 722.8hPa | 2.7V | 00:00:00 | 02:46:22 | 00:00:00 | |
| DO3MHA-12 | 2026-09-01 17:56:37 | 47.86492 | 12.56520 | 72° | 40km/h | 2955m | -4.1m/s | 3.8°C | 81.4% | 721.3hPa | 2.6V | 00:00:00 | 02:46:18 | 00:00:00 | |
| DO3MHA-11 | 2026-09-01 17:56:36 | 47.86488 | 12.56506 | 73° | 40km/h | 2959m | -3.9m/s | 3.8°C | 81.1% | 720.9hPa | 2.7V | 00:00:00 | 02:46:17 | 00:00:00 | |
| DO3MHA-12 | 2026-09-01 17:56:32 | 47.86476 | 12.56447 | 73° | 40km/h | 2976m | -4.1m/s | 3.8°C | 80.0% | 719.6hPa | 2.7V | 00:00:00 | 02:46:13 | 00:00:00 | |
| DO3MHA-11 | 2026-09-01 17:56:31 | 47.86473 | 12.56433 | 74° | 40km/h | 2980m | -3.9m/s | 3.8°C | 80.2% | 719.2hPa | 2.7V | 00:00:00 | 02:46:12 | 00:00:00 | |
| DO3MHA-12 | 2026-09-01 17:56:27 | 47.86461 | 12.56374 | 73° | 42km/h | 2996m | -4.2m/s | 3.7°C | 78.8% | 717.9hPa | 2.7V | 07:43:00 | 02:46:08 | 00:00:00 | |
| DO3MHA-11 | 2026-09-01 17:56:26 | 47.86458 | 12.56359 | 74° | 42km/h | 3000m | -4.2m/s | 3.7°C | 78.6% | 717.4hPa | 2.7V | 07:43:00 | 02:46:07 | 00:00:00 | |
| DO3MHA-12 | 2026-09-01 17:56:22 | 47.86445 | 12.56298 | 73° | 44km/h | 3017m | -4.2m/s | 3.6°C | 78.9% | 716.0hPa | 2.6V | 00:00:00 | 02:46:03 | 00:00:00 | |
| DO3MHA-11 | 2026-09-01 17:56:21 | 47.86442 | 12.56283 | 73° | 44km/h | 3021m | -4.0m/s | 3.6°C | 79.0% | 715.6hPa | 2.7V | 00:00:00 | 02:46:02 | 00:00:00 | |
| OE5DRO-10 | 2026-09-01 17:56:20 | 47.86438 | 12.56267 | 73° | 46km/h | 3025m | -4.0m/s | 3.6°C | 79.3% | 715.3hPa | 2.7V | 00:00:00 | 00:00:00 | 00:00:00 | |
| DO3MHA-12 | 2026-09-01 17:56:17 | 47.86429 | 12.56220 | 73° | 44km/h | 3038m | -4.1m/s | 3.5°C | 79.5% | 714.1hPa | 2.7V | 00:00:00 | 02:45:58 | 00:00:00 | |
| DO3MHA-11 | 2026-09-01 17:56:16 | 47.86425 | 12.56204 | 74° | 46km/h | 3042m | -4.4m/s | 3.4°C | 79.6% | 713.8hPa | 2.7V | 00:00:00 | 02:45:57 | 00:00:00 | |
| OE3JTB-15 | 2026-09-01 17:56:13 | 47.86416 | 12.56156 | 75° | 47km/h | 3055m | -4.1m/s | 3.5°C | 78.4% | 712.6hPa | 2.7V | 00:00:00 | 00:00:00 | 00:00:00 | |
| DO3MHA-12 | 2026-09-01 17:56:12 | 47.86413 | 12.56139 | 75° | 46km/h | 3060m | -4.2m/s | 3.5°C | 76.6% | 712.3hPa | 2.7V | 00:00:00 | 02:45:53 | 00:00:00 | |
| DO3MHA-11 | 2026-09-01 17:56:11 | 47.86410 | 12.56123 | 76° | 46km/h | 3064m | -4.2m/s | 3.5°C | 75.4% | 711.8hPa | 2.7V | 00:00:00 | 02:45:52 | 00:00:00 | |
| DG1MFX-10 | 2026-09-01 17:56:09 | 47.86407 | 12.56106 | 76° | 46km/h | 3068m | -4.1m/s | 3.6°C | 74.1% | 711.6hPa | 2.7V | 07:43:00 | 00:00:00 | 00:00:00 | |
| DO3MHA-11 | 2026-09-01 17:56:06 | 47.86395 | 12.56037 | 77° | 47km/h | 3084m | -3.8m/s | 3.4°C | 74.7% | 710.0hPa | 2.7V | 00:00:00 | 02:45:47 | 00:00:00 | |
| OE5DRO-10 | 2026-09-01 17:56:04 | 47.86390 | 12.56002 | 78° | 49km/h | 3093m | -4.3m/s | 3.3°C | 74.8% | 709.3hPa | 2.7V | 00:00:00 | 00:00:00 | 00:00:00 | |
| DO3MHA-12 | 2026-09-01 17:56:02 | 47.86384 | 12.55967 | 79° | 49km/h | 3101m | -4.2m/s | 3.3°C | 74.5% | 708.5hPa | 2.7V | 00:00:00 | 02:45:43 | 00:00:00 | |
| DO3MHA-11 | 2026-09-01 17:56:01 | 47.86382 | 12.55949 | 78° | 49km/h | 3106m | -3.9m/s | 3.3°C | 74.4% | 708.2hPa | 2.7V | 00:00:00 | 02:45:42 | 00:00:00 | |
| DO3MHA-12 | 2026-09-01 17:55:57 | 47.86373 | 12.55875 | 81° | 51km/h | 3122m | -4.1m/s | 3.3°C | 71.5% | 706.7hPa | 2.7V | 00:00:00 | 02:45:38 | 00:00:00 | |
| DO3MHA-11 | 2026-09-01 17:55:56 | 47.86370 | 12.55856 | 80° | 51km/h | 3126m | -4.4m/s | 3.3°C | 69.8% | 706.3hPa | 2.7V | 00:00:00 | 02:45:37 | 00:00:00 | |
| OE3JTB-15 | 2026-09-01 17:55:54 | 47.86366 | 12.55819 | 80° | 53km/h | 3135m | -4.3m/s | 3.2°C | 69.9% | 705.6hPa | 2.6V | 00:00:00 | 00:00:00 | 00:00:00 | |
| DO3MHA-12 | 2026-09-01 17:55:52 | 47.86361 | 12.55781 | 80° | 51km/h | 3144m | -4.4m/s | 3.1°C | 70.6% | 704.8hPa | 2.6V | 00:00:00 | 02:45:33 | 00:00:00 | |
| DO3MHA-11 | 2026-09-01 17:55:51 | 47.86359 | 12.55762 | 80° | 51km/h | 3148m | -4.2m/s | 3.0°C | 71.1% | 704.5hPa | 2.7V | 00:00:00 | 02:45:32 | 00:00:00 | |
| DG1MFX-10 | 2026-09-01 17:55:49 | 47.86357 | 12.55743 | 80° | 51km/h | 3152m | -4.2m/s | 3.0°C | 70.3% | 704.2hPa | 2.7V | 07:44:00 | 00:00:00 | 00:00:00 | |
| OE5DRO-10 | 2026-09-01 17:55:48 | 47.86352 | 12.55705 | 81° | 53km/h | 3161m | -4.5m/s | 2.9°C | 71.4% | 703.4hPa | 2.7V | 00:00:00 | 00:00:00 | 00:00:00 | |
| DO3MHA-12 | 2026-09-01 17:55:47 | 47.86350 | 12.55686 | 81° | 53km/h | 3166m | -4.1m/s | 2.9°C | 71.3% | 703.0hPa | 2.7V | 07:43:00 | 02:45:28 | 00:00:00 | |
| DO3MHA-11 | 2026-09-01 17:55:46 | 47.86348 | 12.55666 | 81° | 53km/h | 3170m | -4.1m/s | 2.8°C | 71.6% | 702.6hPa | 2.7V | 07:43:00 | 02:45:27 | 00:00:00 | |
| OE5DXL-15 | 2026-09-01 17:55:42 | 47.86339 | 12.55586 | 82° | 55km/h | 3187m | -4.4m/s | 2.8°C | 69.5% | 701.1hPa | 2.7V | 00:00:00 | 00:00:00 | 00:00:00 | |
| DO3MHA-11 | 2026-09-01 17:55:41 | 47.86337 | 12.55567 | 82° | 53km/h | 3192m | -4.4m/s | 2.8°C | 69.4% | 700.7hPa | 2.7V | 00:00:00 | 02:45:22 | 00:00:00 | |
| BAUMI2-15 | 2026-09-01 17:55:39 | 47.86334 | 12.55526 | 84° | 55km/h | 3200m | -4.3m/s | 2.7°C | 69.0% | 700.0hPa | 2.6V | 00:00:00 | 02:45:20 | 00:00:00 | |
| DO3MHA-12 | 2026-09-01 17:55:37 | 47.86331 | 12.55486 | 85° | 53km/h | 3209m | -4.3m/s | 2.7°C | 69.3% | 699.3hPa | 2.6V | 00:00:00 | 02:45:18 | 00:00:00 | |
| DO3MHA-11 | 2026-09-01 17:55:36 | 47.86330 | 12.55466 | 85° | 53km/h | 3214m | -4.4m/s | 2.6°C | 69.5% | 698.8hPa | 2.7V | 00:00:00 | 02:45:17 | 00:00:00 | |
| OE3JTB-15 | 2026-09-01 17:55:35 | 47.86328 | 12.55446 | 85° | 55km/h | 3218m | -4.2m/s | 2.6°C | 69.7% | 698.4hPa | 2.7V | 00:00:00 | 02:45:16 | 00:00:00 | |
| DO3MHA-12 | 2026-09-01 17:55:32 | 47.86325 | 12.55386 | 85° | 55km/h | 3231m | -4.3m/s | 2.5°C | 69.7% | 697.3hPa | 2.7V | 00:00:00 | 02:45:13 | 00:00:00 | |
| DO3MHA-11 | 2026-09-01 17:55:31 | 47.86323 | 12.55366 | 84° | 55km/h | 3235m | -4.3m/s | 2.5°C | 69.7% | 696.9hPa | 2.7V | 00:00:00 | 02:45:12 | 00:00:00 | |
| DG1MFX-10 | 2026-09-01 17:55:29 | 47.86321 | 12.55346 | 84° | 55km/h | 3239m | -4.5m/s | 2.6°C | 67.7% | 696.7hPa | 2.7V | 07:44:00 | 00:00:00 | 00:00:00 | |
| BAUMI2-15 | 2026-09-01 17:55:28 | 47.86319 | 12.55305 | 84° | 55km/h | 3249m | -4.3m/s | 2.5°C | 65.5% | 695.8hPa | 2.7V | 00:00:00 | 02:45:09 | 00:00:00 | |
| DO3MHA-12 | 2026-09-01 17:55:27 | 47.86317 | 12.55284 | 84° | 55km/h | 3253m | -4.3m/s | 2.4°C | 66.2% | 695.4hPa | 2.7V | 00:00:00 | 02:45:08 | 00:00:00 | |
| DO3MHA-11 | 2026-09-01 17:55:26 | 47.86316 | 12.55264 | 85° | 55km/h | 3257m | -4.5m/s | 2.3°C | 69.9% | 694.9hPa | 2.7V | 00:00:00 | 02:45:07 | 00:00:00 | |
| BAUMI2-15 | 2026-09-01 17:55:23 | 47.86311 | 12.55201 | 85° | 55km/h | 3271m | -4.5m/s | 2.4°C | 61.3% | 693.8hPa | 2.6V | 00:00:00 | 02:45:04 | 00:00:00 | |
| DO3MHA-12 | 2026-09-01 17:55:22 | 47.86310 | 12.55180 | 86° | 55km/h | 3275m | -4.3m/s | 2.4°C | 60.2% | 693.5hPa | 2.7V | 00:00:00 | 02:45:03 | 00:00:00 | |
| DO3MHA-11 | 2026-09-01 17:55:21 | 47.86309 | 12.55160 | 86° | 55km/h | 3280m | -4.4m/s | 2.3°C | 61.0% | 693.0hPa | 2.7V | 00:00:00 | 02:45:02 | 00:00:00 | |
| BAUMI2-15 | 2026-09-01 17:55:18 | 47.86306 | 12.55097 | 87° | 55km/h | 3293m | -4.5m/s | 2.2°C | 59.4% | 691.8hPa | 2.7V | 07:44:00 | 02:44:59 | 00:00:00 | |
| DO3MHA-12 | 2026-09-01 17:55:17 | 47.86305 | 12.55077 | 87° | 57km/h | 3298m | -4.5m/s | 2.2°C | 59.0% | 691.5hPa | 2.7V | 00:00:00 | 02:44:58 | 00:00:00 | |
| DO3MHA-11 | 2026-09-01 17:55:16 | 47.86304 | 12.55056 | 87° | 57km/h | 3302m | -4.5m/s | 2.2°C | 58.9% | 691.3hPa | 2.7V | 00:00:00 | 02:44:57 | 00:00:00 | |
| BAUMI2-15 | 2026-09-01 17:55:13 | 47.86301 | 12.54993 | 87° | 57km/h | 3316m | -4.3m/s | 2.0°C | 59.5% | 690.0hPa | 2.7V | 00:00:00 | 02:44:54 | 00:00:00 | |
| DO3MHA-12 | 2026-09-01 17:55:12 | 47.86301 | 12.54972 | 88° | 57km/h | 3320m | -4.2m/s | 2.0°C | 59.9% | 689.7hPa | 2.7V | 00:00:00 | 02:44:53 | 00:00:00 | |
| DO3MHA-11 | 2026-09-01 17:55:11 | 47.86300 | 12.54951 | 88° | 57km/h | 3324m | -4.4m/s | 1.9°C | 60.2% | 689.2hPa | 2.7V | 00:00:00 | 02:44:52 | 00:00:00 | |
| BAUMI2-15 | 2026-09-01 17:55:08 | 47.86298 | 12.54886 | 88° | 57km/h | 3338m | -4.2m/s | 1.8°C | 59.1% | 688.1hPa | 2.7V | 00:00:00 | 02:44:49 | 00:00:00 | |
| DO3MHA-12 | 2026-09-01 17:55:07 | 47.86298 | 12.54865 | 89° | 57km/h | 3342m | -4.4m/s | 1.8°C | 57.8% | 687.6hPa | 2.7V | 07:44:00 | 02:44:48 | 00:00:00 | |
| DO3MHA-11 | 2026-09-01 17:55:06 | 47.86297 | 12.54843 | 88° | 57km/h | 3346m | -4.1m/s | 1.8°C | 57.7% | 687.4hPa | 2.7V | 07:44:00 | 02:44:47 | 00:00:00 | |
| BAUMI2-15 | 2026-09-01 17:55:03 | 47.86295 | 12.54780 | 87° | 57km/h | 3359m | -4.4m/s | 1.6°C | 58.2% | 686.3hPa | 2.7V | 00:00:00 | 02:44:44 | 00:00:00 | |
| DO3MHA-12 | 2026-09-01 17:55:02 | 47.86295 | 12.54758 | 88° | 57km/h | 3363m | -4.3m/s | 1.6°C | 58.4% | 686.0hPa | 2.7V | 00:00:00 | 02:44:43 | 00:00:00 | |
| DO3MHA-11 | 2026-09-01 17:55:01 | 47.86294 | 12.54737 | 88° | 57km/h | 3368m | -4.5m/s | 1.6°C | 58.5% | 685.5hPa | 2.7V | 00:00:00 | 02:44:42 | 00:00:00 | |
| OE5DRO-10 | 2026-09-01 17:55:00 | 47.86293 | 12.54715 | 88° | 57km/h | 3372m | -4.5m/s | 1.5°C | 58.7% | 685.1hPa | 2.7V | 00:00:00 | 00:00:00 | 00:00:00 | |
| BAUMI2-15 | 2026-09-01 17:54:58 | 47.86292 | 12.54672 | 87° | 57km/h | 3381m | -4.3m/s | 1.5°C | 58.8% | 684.3hPa | 2.6V | 00:00:00 | 02:44:39 | 00:00:00 | |
| DO3MHA-12 | 2026-09-01 17:54:57 | 47.86291 | 12.54651 | 87° | 57km/h | 3386m | -4.6m/s | 1.4°C | 58.9% | 684.0hPa | 2.6V | 00:00:00 | 02:44:38 | 00:00:00 | |
| DO3MHA-11 | 2026-09-01 17:54:56 | 47.86290 | 12.54629 | 88° | 57km/h | 3390m | -4.2m/s | 1.4°C | 58.5% | 683.6hPa | 2.6V | 00:00:00 | 02:44:37 | 00:00:00 | |
| BAUMI2-15 | 2026-09-01 17:54:53 | 47.86288 | 12.54565 | 88° | 57km/h | 3403m | -4.4m/s | 1.3°C | 58.6% | 682.6hPa | 2.7V | 00:00:00 | 02:44:34 | 00:00:00 | |
| DO3MHA-12 | 2026-09-01 17:54:52 | 47.86288 | 12.54544 | 88° | 57km/h | 3408m | -4.4m/s | 1.3°C | 58.4% | 682.1hPa | 2.7V | 00:00:00 | 02:44:33 | 00:00:00 | |
| DO3MHA-11 | 2026-09-01 17:54:51 | 47.86287 | 12.54522 | 87° | 58km/h | 3412m | -4.0m/s | 1.2°C | 58.3% | 681.8hPa | 2.6V | 00:00:00 | 02:44:32 | 00:00:00 | |
| DG1MFX-10 | 2026-09-01 17:54:48 | 47.86285 | 12.54479 | 88° | 58km/h | 3420m | -4.4m/s | 1.2°C | 57.2% | 681.1hPa | 2.6V | 07:45:00 | 00:00:00 | 00:00:00 | |
| DO3MHA-12 | 2026-09-01 17:54:47 | 47.86285 | 12.54436 | 89° | 58km/h | 3429m | -4.2m/s | 1.1°C | 58.1% | 680.3hPa | 2.6V | 00:00:00 | 02:44:28 | 00:00:00 | |
| DO3MHA-11 | 2026-09-01 17:54:46 | 47.86284 | 12.54414 | 89° | 58km/h | 3434m | -4.2m/s | 1.0°C | 57.6% | 679.9hPa | 2.6V | 00:00:00 | 02:44:27 | 00:00:00 | |
| OE5DRO-10 | 2026-09-01 17:54:44 | 47.86284 | 12.54370 | 89° | 58km/h | 3442m | -4.2m/s | 1.0°C | 57.1% | 679.2hPa | 2.6V | 00:00:00 | 00:00:00 | 00:00:00 | |
| OE5DXL-15 | 2026-09-01 17:54:42 | 47.86282 | 12.54327 | 89° | 58km/h | 3451m | -4.4m/s | 0.9°C | 56.7% | 678.4hPa | 2.6V | 00:00:00 | 00:00:00 | 00:00:00 | |
| DO3MHA-11 | 2026-09-01 17:54:41 | 47.86282 | 12.54305 | 88° | 57km/h | 3456m | -4.2m/s | 0.9°C | 56.4% | 678.0hPa | 2.6V | 00:00:00 | 02:44:22 | 00:00:00 | |
| OE3JTB-15 | 2026-09-01 17:54:38 | 47.86280 | 12.54240 | 87° | 58km/h | 3469m | -4.4m/s | 0.8°C | 56.2% | 677.0hPa | 2.7V | 00:00:00 | 02:44:19 | 00:00:00 | |
| DO3MHA-12 | 2026-09-01 17:54:37 | 47.86279 | 12.54219 | 87° | 57km/h | 3473m | -4.2m/s | 0.7°C | 56.2% | 676.6hPa | 2.7V | 00:00:00 | 02:44:18 | 00:00:00 | |
| DO3MHA-11 | 2026-09-01 17:54:36 | 47.86278 | 12.54197 | 87° | 58km/h | 3477m | -4.4m/s | 0.7°C | 56.1% | 676.2hPa | 2.7V | 00:00:00 | 02:44:17 | 00:00:00 | |
| DO3MHA-12 | 2026-09-01 17:54:32 | 47.86273 | 12.54111 | 86° | 58km/h | 3495m | -4.2m/s | 0.5°C | 54.4% | 674.6hPa | 2.7V | 00:00:00 | 02:44:13 | 00:00:00 | |
| DO3MHA-11 | 2026-09-01 17:54:31 | 47.86272 | 12.54089 | 86° | 58km/h | 3500m | -4.2m/s | 0.5°C | 54.9% | 674.3hPa | 2.7V | 00:00:00 | 02:44:12 | 00:00:00 | |
| OE5DRO-10 | 2026-09-01 17:54:28 | 47.86269 | 12.54024 | 86° | 58km/h | 3513m | -4.3m/s | 0.4°C | 54.3% | 673.1hPa | 2.7V | 07:45:00 | 00:00:00 | 00:00:00 | |
| DO3MHA-12 | 2026-09-01 17:54:27 | 47.86268 | 12.54003 | 86° | 58km/h | 3517m | -4.5m/s | 0.4°C | 53.7% | 672.9hPa | 2.7V | 07:45:00 | 02:44:08 | 00:00:00 | |
| DO3MHA-11 | 2026-09-01 17:54:26 | 47.86267 | 12.53980 | 85° | 58km/h | 3522m | -4.5m/s | 0.3°C | 53.6% | 672.4hPa | 2.7V | 07:45:00 | 02:44:07 | 00:00:00 | |
| BAUMI2-15 | 2026-09-01 17:54:25 | 47.86265 | 12.53958 | 86° | 58km/h | 3526m | -4.5m/s | 0.3°C | 53.8% | 672.1hPa | 2.7V | 00:00:00 | 02:44:06 | 00:00:00 | |
| DO3MHA-12 | 2026-09-01 17:54:22 | 47.86262 | 12.53892 | 86° | 60km/h | 3539m | -4.2m/s | 0.2°C | 54.7% | 671.0hPa | 2.7V | 00:00:00 | 02:44:03 | 00:00:00 | |
| DO3MHA-11 | 2026-09-01 17:54:21 | 47.86260 | 12.53870 | 86° | 60km/h | 3544m | -4.3m/s | 0.1°C | 55.1% | 670.5hPa | 2.7V | 00:00:00 | 02:44:02 | 00:00:00 | |
| OE3JTB-15 | 2026-09-01 17:54:19 | 47.86258 | 12.53825 | 86° | 60km/h | 3552m | -4.3m/s | 0.0°C | 55.9% | 669.8hPa | 2.7V | 00:00:00 | 00:00:00 | 00:00:00 | |
| DO3MHA-12 | 2026-09-01 17:54:17 | 47.86256 | 12.53780 | 85° | 60km/h | 3562m | -4.5m/s | 0.0°C | 57.4% | 669.2hPa | 2.7V | 00:00:00 | 02:43:58 | 00:00:00 | |
| DO3MHA-11 | 2026-09-01 17:54:16 | 47.86254 | 12.53758 | 86° | 60km/h | 3566m | -4.5m/s | 0.0°C | 57.7% | 668.8hPa | 2.7V | 00:00:00 | 02:43:57 | 00:00:00 | |
| DO3MHA-12 | 2026-09-01 17:54:12 | 47.86249 | 12.53669 | 85° | 58km/h | 3584m | -4.3m/s | -0.1°C | 57.3% | 667.3hPa | 2.7V | 00:00:00 | 02:43:53 | 00:00:00 | |
| DO3MHA-11 | 2026-09-01 17:54:11 | 47.86247 | 12.53647 | 84° | 60km/h | 3588m | -4.3m/s | -0.1°C | 58.0% | 666.9hPa | 2.7V | 00:00:00 | 02:43:52 | 00:00:00 | |
| DG1MFX-10 | 2026-09-01 17:54:08 | 47.86244 | 12.53602 | 84° | 60km/h | 3597m | -4.6m/s | -0.2°C | 56.1% | 666.3hPa | 2.6V | 07:46:00 | 00:00:00 | 00:00:00 | |
| DO3MHA-12 | 2026-09-01 17:54:07 | 47.86240 | 12.53558 | 84° | 60km/h | 3606m | -4.4m/s | -0.2°C | 55.0% | 665.5hPa | 2.6V | 00:00:00 | 02:43:48 | 00:00:00 | |
| DO3MHA-11 | 2026-09-01 17:54:06 | 47.86239 | 12.53535 | 84° | 60km/h | 3610m | -4.4m/s | -0.2°C | 54.1% | 665.1hPa | 2.7V | 00:00:00 | 02:43:47 | 00:00:00 | |
| DO3MHA-12 | 2026-09-01 17:54:02 | 47.86232 | 12.53443 | 85° | 62km/h | 3628m | -4.3m/s | -0.4°C | 53.6% | 663.6hPa | 2.7V | 00:00:00 | 02:43:43 | 00:00:00 | |
| DO3MHA-11 | 2026-09-01 17:54:01 | 47.86231 | 12.53420 | 86° | 62km/h | 3633m | -4.6m/s | -0.4°C | 53.8% | 663.2hPa | 2.7V | 00:00:00 | 02:43:42 | 00:00:00 | |
| OE5WHR-10 | 2026-09-01 17:54:00 | 47.86230 | 12.53397 | 85° | 62km/h | 3637m | -4.4m/s | -0.4°C | 54.2% | 662.9hPa | 2.7V | 00:00:00 | 02:43:41 | 00:00:00 | |
| DO3MHA-12 | 2026-09-01 17:53:57 | 47.86226 | 12.53328 | 86° | 62km/h | 3651m | -4.4m/s | -0.5°C | 55.3% | 661.8hPa | 2.7V | 00:00:00 | 02:43:38 | 00:00:00 | |
| DO3MHA-11 | 2026-09-01 17:53:56 | 47.86225 | 12.53305 | 85° | 62km/h | 3655m | -4.2m/s | -0.6°C | 55.7% | 661.4hPa | 2.7V | 00:00:00 | 02:43:37 | 00:00:00 | |
| DO3MHA-12 | 2026-09-01 17:53:52 | 47.86219 | 12.53213 | 85° | 62km/h | 3673m | -4.1m/s | -0.7°C | 55.6% | 660.0hPa | 2.7V | 00:00:00 | 02:43:33 | 00:00:00 | |
| DO3MHA-11 | 2026-09-01 17:53:51 | 47.86217 | 12.53190 | 84° | 62km/h | 3677m | -4.5m/s | -0.8°C | 56.0% | 659.6hPa | 2.6V | 00:00:00 | 02:43:32 | 00:00:00 | |
| OE5MMP-10 | 2026-09-01 17:53:49 | 47.86214 | 12.53144 | 84° | 62km/h | 3686m | -4.5m/s | -0.8°C | 54.0% | 658.9hPa | 2.6V | 00:00:00 | 02:43:30 | 00:00:00 | |
| DO3MHA-12 | 2026-09-01 17:53:47 | 47.86210 | 12.53098 | 84° | 62km/h | 3695m | -4.6m/s | -0.9°C | 52.5% | 658.1hPa | 2.6V | 07:45:00 | 02:43:28 | 00:00:00 | |
| DO3MHA-11 | 2026-09-01 17:53:46 | 47.86208 | 12.53075 | 85° | 62km/h | 3700m | -4.5m/s | -0.9°C | 50.7% | 657.8hPa | 2.6V | 07:45:00 | 02:43:27 | 00:00:00 | |
| DO3MHA-12 | 2026-09-01 17:53:42 | 47.86201 | 12.52981 | 84° | 62km/h | 3718m | -4.5m/s | -1.0°C | 47.9% | 656.3hPa | 2.6V | 00:00:00 | 02:43:23 | 00:00:00 | |
| DO3MHA-11 | 2026-09-01 17:53:41 | 47.86199 | 12.52958 | 83° | 62km/h | 3722m | -4.4m/s | -1.1°C | 47.9% | 656.0hPa | 2.6V | 00:00:00 | 02:43:22 | 00:00:00 | |
| OE5DRO-10 | 2026-09-01 17:53:40 | 47.86197 | 12.52935 | 83° | 62km/h | 3726m | -4.3m/s | -1.1°C | 48.1% | 655.5hPa | 2.7V | 00:00:00 | 00:00:00 | 00:00:00 | |
| DO3MHA-12 | 2026-09-01 17:53:37 | 47.86191 | 12.52865 | 82° | 62km/h | 3740m | -4.2m/s | -1.2°C | 48.6% | 654.5hPa | 2.7V | 00:00:00 | 02:43:18 | 00:00:00 | |
| DO3MHA-11 | 2026-09-01 17:53:36 | 47.86188 | 12.52842 | 82° | 62km/h | 3744m | -4.2m/s | -1.3°C | 48.9% | 654.1hPa | 2.6V | 00:00:00 | 02:43:17 | 00:00:00 | |
| OE5MMP-10 | 2026-09-01 17:53:35 | 47.86186 | 12.52819 | 82° | 57km/h | 3748m | -4.3m/s | -1.3°C | 49.1% | 653.7hPa | 2.6V | 07:46:00 | 02:43:16 | 00:00:00 | |
| DO3MHA-12 | 2026-09-01 17:53:32 | 47.86179 | 12.52750 | 82° | 62km/h | 3762m | -4.3m/s | -1.4°C | 49.8% | 652.6hPa | 2.7V | 00:00:00 | 02:43:13 | 00:00:00 | |
| DO3MHA-11 | 2026-09-01 17:53:31 | 47.86177 | 12.52727 | 82° | 62km/h | 3766m | -4.2m/s | -1.5°C | 49.7% | 652.3hPa | 2.7V | 00:00:00 | 02:43:12 | 00:00:00 | |
| DO3MHA-12 | 2026-09-01 17:53:27 | 47.86167 | 12.52634 | 82° | 62km/h | 3784m | -4.5m/s | -1.6°C | 51.0% | 651.0hPa | 2.7V | 00:00:00 | 02:43:08 | 00:00:00 | |
| DO3MHA-11 | 2026-09-01 17:53:26 | 47.86164 | 12.52611 | 82° | 62km/h | 3788m | -4.3m/s | -1.7°C | 51.2% | 650.5hPa | 2.7V | 00:00:00 | 02:43:07 | 00:00:00 | |
| OE5DRO-10 | 2026-09-01 17:53:24 | 47.86160 | 12.52565 | 82° | 62km/h | 3797m | -4.5m/s | -1.7°C | 53.4% | 649.7hPa | 2.7V | 00:00:00 | 00:00:00 | 00:00:00 | |
| DO3MHA-12 | 2026-09-01 17:53:22 | 47.86155 | 12.52518 | 83° | 62km/h | 3806m | -4.5m/s | -1.8°C | 54.9% | 649.0hPa | 2.6V | 00:00:00 | 02:43:03 | 00:00:00 | |
| DO3MHA-11 | 2026-09-01 17:53:21 | 47.86153 | 12.52495 | 83° | 62km/h | 3811m | -4.5m/s | -1.9°C | 55.7% | 648.7hPa | 2.7V | 00:00:00 | 02:43:02 | 00:00:00 | |
| OE5WHR-10 | 2026-09-01 17:53:18 | 47.86147 | 12.52425 | 84° | 60km/h | 3824m | -4.3m/s | -2.0°C | 57.9% | 647.6hPa | 2.7V | 00:00:00 | 00:00:00 | 00:00:00 | |
| DO3MHA-12 | 2026-09-01 17:53:17 | 47.86145 | 12.52401 | 83° | 62km/h | 3828m | -4.4m/s | -2.0°C | 58.1% | 647.3hPa | 2.7V | 00:00:00 | 02:42:58 | 00:00:00 | |
| DO3MHA-11 | 2026-09-01 17:53:16 | 47.86143 | 12.52378 | 83° | 62km/h | 3833m | -4.4m/s | -2.0°C | 56.8% | 646.9hPa | 2.7V | 00:00:00 | 02:42:57 | 00:00:00 | |
| DO3MHA-12 | 2026-09-01 17:53:12 | 47.86136 | 12.52284 | 84° | 62km/h | 3850m | -4.2m/s | -2.2°C | 54.7% | 645.5hPa | 2.7V | 00:00:00 | 02:42:53 | 00:00:00 | |
| DO3MHA-11 | 2026-09-01 17:53:11 | 47.86134 | 12.52260 | 85° | 62km/h | 3854m | -4.3m/s | -2.2°C | 54.2% | 645.1hPa | 2.7V | 00:00:00 | 02:42:52 | 00:00:00 | |
| OE5DRO-10 | 2026-09-01 17:53:08 | 47.86130 | 12.52190 | 85° | 60km/h | 3868m | -4.5m/s | -2.3°C | 53.4% | 644.0hPa | 2.7V | 00:00:00 | 00:00:00 | 00:00:00 | |
| DO3MHA-12 | 2026-09-01 17:53:07 | 47.86128 | 12.52167 | 85° | 60km/h | 3872m | -4.4m/s | -2.4°C | 53.1% | 643.7hPa | 2.7V | 07:46:00 | 02:42:48 | 00:00:00 | |
| DO3MHA-11 | 2026-09-01 17:53:06 | 47.86127 | 12.52144 | 85° | 60km/h | 3876m | -4.3m/s | -2.4°C | 52.6% | 643.2hPa | 2.7V | 07:46:00 | 02:42:47 | 00:00:00 | |
| DG1MFX-10 | 2026-09-01 17:53:05 | 47.86126 | 12.52144 | 85° | 62km/h | 3876m | -4.3m/s | -2.4°C | 51.4% | 643.3hPa | 2.7V | 07:46:00 | 00:00:00 | 00:00:00 | |
| DL6DJ-15 | 2026-09-01 17:52:49 | 47.86095 | 12.51742 | 82° | 58km/h | 3956m | -4.4m/s | -2.8°C | 30.8% | 636.9hPa | 2.7V | 00:00:00 | 00:00:00 | 00:00:00 | |
| DO3MHA-12 | 2026-09-01 17:52:47 | 47.86093 | 12.51720 | 84° | 58km/h | 3960m | -4.1m/s | -2.8°C | 31.5% | 636.5hPa | 2.7V | 00:00:00 | 02:42:28 | 00:00:00 | |
| DO3MHA-11 | 2026-09-01 17:52:46 | 47.86092 | 12.51698 | 83° | 58km/h | 3964m | -4.4m/s | -2.8°C | 31.5% | 636.2hPa | 2.7V | 00:00:00 | 02:42:27 | 00:00:00 | |
| DG1MFX-10 | 2026-09-01 17:52:44 | 47.86090 | 12.51677 | 83° | 58km/h | 3969m | -4.5m/s | -2.9°C | 30.2% | 635.9hPa | 2.7V | 07:46:00 | 00:00:00 | 00:00:00 | |
| OE5DXL-15 | 2026-09-01 17:52:42 | 47.86083 | 12.51611 | 82° | 57km/h | 3982m | -4.3m/s | -2.9°C | 29.7% | 634.8hPa | 2.7V | 00:00:00 | 00:00:00 | 00:00:00 | |
| DO3MHA-11 | 2026-09-01 17:52:41 | 47.86081 | 12.51590 | 82° | 57km/h | 3986m | -4.2m/s | -3.0°C | 29.7% | 634.5hPa | 2.7V | 00:00:00 | 02:42:22 | 00:00:00 | |
| DO3MHA-12 | 2026-09-01 17:52:37 | 47.86073 | 12.51504 | 82° | 57km/h | 4004m | -4.3m/s | -3.1°C | 30.3% | 633.1hPa | 2.6V | 00:00:00 | 02:42:18 | 00:00:00 | |
| DO3MHA-11 | 2026-09-01 17:52:36 | 47.86070 | 12.51483 | 82° | 57km/h | 4008m | -4.0m/s | -3.1°C | 30.2% | 632.6hPa | 2.7V | 00:00:00 | 02:42:17 | 00:00:00 | |
| OE5WHR-10 | 2026-09-01 17:52:35 | 47.86068 | 12.51462 | 82° | 57km/h | 4012m | -4.2m/s | -3.1°C | 30.2% | 632.4hPa | 2.7V | 00:00:00 | 00:00:00 | 00:00:00 | |
| OE3JTB-15 | 2026-09-01 17:52:33 | 47.86064 | 12.51420 | 81° | 57km/h | 4021m | -4.3m/s | -3.2°C | 30.4% | 631.7hPa | 2.7V | 00:00:00 | 00:00:00 | 00:00:00 | |
| DO3MHA-12 | 2026-09-01 17:52:32 | 47.86062 | 12.51399 | 82° | 57km/h | 4025m | -4.1m/s | -3.2°C | 30.7% | 631.4hPa | 2.7V | 00:00:00 | 02:42:13 | 00:00:00 | |
| DO3MHA-11 | 2026-09-01 17:52:31 | 47.86059 | 12.51379 | 81° | 57km/h | 4029m | -4.2m/s | -3.3°C | 30.6% | 631.0hPa | 2.7V | 00:00:00 | 02:42:12 | 00:00:00 | |
| DO3MHA-12 | 2026-09-01 17:52:27 | 47.86049 | 12.51294 | 81° | 57km/h | 4047m | -4.3m/s | -3.4°C | 29.5% | 629.6hPa | 2.7V | 07:47:00 | 02:42:08 | 00:00:00 | |
| DO3MHA-11 | 2026-09-01 17:52:26 | 47.86047 | 12.51273 | 80° | 57km/h | 4051m | -4.3m/s | -3.4°C | 29.0% | 629.4hPa | 2.7V | 07:47:00 | 02:42:07 | 00:00:00 | |
| DG1MFX-10 | 2026-09-01 17:52:24 | 47.86044 | 12.51252 | 80° | 57km/h | 4056m | -4.3m/s | -3.5°C | 28.6% | 629.0hPa | 2.7V | 07:47:00 | 00:00:00 | 00:00:00 | |
| DO3MHA-12 | 2026-09-01 17:52:22 | 47.86036 | 12.51189 | 79° | 57km/h | 4068m | -4.2m/s | -3.5°C | 29.7% | 628.0hPa | 2.7V | 00:00:00 | 02:42:03 | 00:00:00 | |
| DO3MHA-11 | 2026-09-01 17:52:21 | 47.86033 | 12.51168 | 78° | 57km/h | 4073m | -4.0m/s | -3.5°C | 30.0% | 627.6hPa | 2.7V | 00:00:00 | 02:42:02 | 00:00:00 | |
| OE5DRO-10 | 2026-09-01 17:52:20 | 47.86030 | 12.51147 | 78° | 57km/h | 4077m | -4.0m/s | -3.5°C | 29.9% | 627.3hPa | 2.7V | 07:47:00 | 00:00:00 | 00:00:00 | |
| OE5WHR-10 | 2026-09-01 17:52:18 | 47.86024 | 12.51106 | 78° | 57km/h | 4085m | -4.0m/s | -3.6°C | 30.2% | 626.6hPa | 2.7V | 00:00:00 | 00:00:00 | 00:00:00 | |
| DO3MHA-12 | 2026-09-01 17:52:17 | 47.86021 | 12.51085 | 78° | 57km/h | 4089m | -4.1m/s | -3.6°C | 31.7% | 626.4hPa | 2.7V | 00:00:00 | 02:41:58 | 00:00:00 | |
| DO3MHA-11 | 2026-09-01 17:52:16 | 47.86017 | 12.51064 | 78° | 57km/h | 4093m | -4.0m/s | -3.6°C | 32.6% | 626.0hPa | 2.7V | 00:00:00 | 02:41:57 | 00:00:00 | |
| OE5DXL-15 | 2026-09-01 17:52:12 | 47.86005 | 12.50980 | 78° | 57km/h | 4110m | -4.1m/s | -3.7°C | 32.8% | 624.7hPa | 2.7V | 00:00:00 | 00:00:00 | 00:00:00 | |
| DO3MHA-11 | 2026-09-01 17:52:11 | 47.86002 | 12.50960 | 78° | 57km/h | 4114m | -4.0m/s | -3.8°C | 33.2% | 624.2hPa | 2.7V | 00:00:00 | 02:41:52 | 00:00:00 | |
| DO3MHA-12 | 2026-09-01 17:52:07 | 47.85990 | 12.50877 | 78° | 57km/h | 4131m | -4.3m/s | -3.9°C | 34.7% | 623.0hPa | 2.6V | 00:00:00 | 02:41:48 | 00:00:00 | |
| DO3MHA-11 | 2026-09-01 17:52:06 | 47.85986 | 12.50856 | 78° | 57km/h | 4135m | -4.1m/s | -3.9°C | 36.7% | 622.7hPa | 2.7V | 00:00:00 | 02:41:47 | 00:00:00 | |
| OE5DRO-10 | 2026-09-01 17:52:04 | 47.85980 | 12.50815 | 79° | 57km/h | 4143m | -4.1m/s | -4.0°C | 38.7% | 621.9hPa | 2.7V | 00:00:00 | 00:00:00 | 00:00:00 | |
| DG1MFX-10 | 2026-09-01 17:52:03 | 47.85980 | 12.50815 | 79° | 57km/h | 4143m | -4.2m/s | -4.1°C | 37.7% | 622.0hPa | 2.7V | 07:47:00 | 00:00:00 | 00:00:00 | |
| DO3MHA-12 | 2026-09-01 17:52:02 | 47.85975 | 12.50773 | 80° | 57km/h | 4151m | -4.1m/s | -4.1°C | 40.2% | 621.4hPa | 2.7V | 00:00:00 | 02:41:43 | 00:00:00 | |
| DO3MHA-11 | 2026-09-01 17:52:01 | 47.85972 | 12.50752 | 81° | 57km/h | 4155m | -4.1m/s | -4.1°C | 40.3% | 621.1hPa | 2.7V | 00:00:00 | 02:41:42 | 00:00:00 | |
| DO3MHA-12 | 2026-09-01 17:51:57 | 47.85962 | 12.50667 | 82° | 57km/h | 4171m | -4.3m/s | -4.3°C | 40.5% | 619.8hPa | 2.7V | 00:00:00 | 02:41:38 | 00:00:00 | |
| DO3MHA-11 | 2026-09-01 17:51:56 | 47.85960 | 12.50645 | 82° | 57km/h | 4176m | -4.3m/s | -4.3°C | 40.8% | 619.4hPa | 2.7V | 00:00:00 | 02:41:37 | 00:00:00 | |
| DO3MHA-12 | 2026-09-01 17:51:52 | 47.85952 | 12.50561 | 83° | 57km/h | 4193m | -4.1m/s | -4.4°C | 40.1% | 618.1hPa | 2.7V | 00:00:00 | 02:41:33 | 00:00:00 | |
| DO3MHA-11 | 2026-09-01 17:51:51 | 47.85950 | 12.50540 | 83° | 57km/h | 4197m | -4.1m/s | -4.5°C | 40.4% | 617.8hPa | 2.6V | 00:00:00 | 02:41:32 | 00:00:00 | |
| OE5DRO-10 | 2026-09-01 17:51:48 | 47.85944 | 12.50477 | 83° | 57km/h | 4210m | -4.2m/s | -4.6°C | 40.3% | 616.7hPa | 2.6V | 00:00:00 | 00:00:00 | 00:00:00 | |
| DO3MHA-12 | 2026-09-01 17:51:47 | 47.85942 | 12.50456 | 83° | 57km/h | 4214m | -4.2m/s | -4.6°C | 40.2% | 616.5hPa | 2.7V | 07:47:00 | 02:41:28 | 00:00:00 | |
| DO3MHA-11 | 2026-09-01 17:51:46 | 47.85940 | 12.50436 | 83° | 57km/h | 4218m | -4.0m/s | -4.6°C | 40.6% | 616.2hPa | 2.7V | 07:47:00 | 02:41:27 | 00:00:00 | |
| OE5WHR-10 | 2026-09-01 17:51:44 | 47.85937 | 12.50393 | 83° | 57km/h | 4226m | -4.1m/s | -4.6°C | 39.1% | 615.6hPa | 2.7V | 00:00:00 | 00:00:00 | 00:00:00 | |
| DO3MHA-12 | 2026-09-01 17:51:42 | 47.85933 | 12.50351 | 83° | 57km/h | 4235m | -3.9m/s | -4.6°C | 38.4% | 614.9hPa | 2.7V | 00:00:00 | 02:41:23 | 00:00:00 | |
| DO3MHA-11 | 2026-09-01 17:51:41 | 47.85932 | 12.50330 | 84° | 57km/h | 4239m | -4.1m/s | -4.6°C | 37.5% | 614.5hPa | 2.7V | 00:00:00 | 02:41:22 | 00:00:00 | |
| BAUMI2-15 | 2026-09-01 17:51:39 | 47.85928 | 12.50288 | 85° | 57km/h | 4247m | -4.0m/s | -4.6°C | 35.4% | 613.9hPa | 2.7V | 00:00:00 | 02:41:20 | 00:00:00 | |
| DO3MHA-12 | 2026-09-01 17:51:37 | 47.85926 | 12.50247 | 86° | 57km/h | 4255m | -4.0m/s | -4.7°C | 34.3% | 613.3hPa | 2.6V | 00:00:00 | 02:41:18 | 00:00:00 | |
| DO3MHA-11 | 2026-09-01 17:51:36 | 47.85925 | 12.50225 | 86° | 57km/h | 4259m | -4.0m/s | -4.7°C | 34.2% | 612.9hPa | 2.7V | 00:00:00 | 02:41:17 | 00:00:00 | |
| OE3JTB-15 | 2026-09-01 17:51:35 | 47.85923 | 12.50204 | 86° | 57km/h | 4263m | -4.1m/s | -4.8°C | 34.0% | 612.7hPa | 2.7V | 00:00:00 | 00:00:00 | 00:00:00 | |
| BAUMI2-15 | 2026-09-01 17:51:34 | 47.85923 | 12.50183 | 86° | 57km/h | 4267m | -3.9m/s | -4.8°C | 34.2% | 612.3hPa | 2.7V | 00:00:00 | 02:41:15 | 00:00:00 | |
| DO3MHA-12 | 2026-09-01 17:51:32 | 47.85920 | 12.50140 | 86° | 57km/h | 4275m | -4.1m/s | -4.8°C | 33.3% | 611.7hPa | 2.7V | 00:00:00 | 02:41:13 | 00:00:00 | |
| DO3MHA-11 | 2026-09-01 17:51:31 | 47.85919 | 12.50119 | 86° | 57km/h | 4279m | -4.0m/s | -4.9°C | 32.9% | 611.4hPa | 2.7V | 00:00:00 | 02:41:12 | 00:00:00 | |
| BAUMI2-15 | 2026-09-01 17:51:29 | 47.85917 | 12.50077 | 86° | 57km/h | 4287m | -3.9m/s | -4.9°C | 32.4% | 610.8hPa | 2.7V | 00:00:00 | 02:41:10 | 00:00:00 | |
| OE5WHR-10 | 2026-09-01 17:51:27 | 47.85915 | 12.50034 | 86° | 57km/h | 4296m | -4.0m/s | -5.0°C | 32.9% | 610.2hPa | 2.7V | 00:00:00 | 00:00:00 | 00:00:00 | |
| DO3MHA-11 | 2026-09-01 17:51:26 | 47.85914 | 12.50013 | 86° | 57km/h | 4300m | -3.8m/s | -5.0°C | 32.8% | 609.8hPa | 2.7V | 00:00:00 | 02:41:07 | 00:00:00 | |
| DO3MHA-12 | 2026-09-01 17:51:22 | 47.85910 | 12.49929 | 87° | 57km/h | 4315m | -3.8m/s | -5.2°C | 32.5% | 608.6hPa | 2.7V | 00:00:00 | 02:41:03 | 00:00:00 | |
| DO3MHA-11 | 2026-09-01 17:51:21 | 47.85910 | 12.49908 | 88° | 57km/h | 4319m | -3.8m/s | -5.2°C | 31.8% | 608.3hPa | 2.7V | 00:00:00 | 02:41:02 | 00:00:00 | |
| BAUMI2-15 | 2026-09-01 17:51:20 | 47.85909 | 12.49887 | 88° | 57km/h | 4323m | -3.8m/s | -5.2°C | 31.3% | 608.0hPa | 2.7V | 00:00:00 | 02:41:01 | 00:00:00 | |
| DO3MHA-12 | 2026-09-01 17:51:17 | 47.85908 | 12.49824 | 89° | 55km/h | 4335m | -3.9m/s | -5.3°C | 31.9% | 607.1hPa | 2.7V | 00:00:00 | 02:40:58 | 00:00:00 | |
| DO3MHA-11 | 2026-09-01 17:51:16 | 47.85907 | 12.49803 | 89° | 55km/h | 4339m | -3.8m/s | -5.4°C | 32.0% | 606.9hPa | 2.7V | 00:00:00 | 02:40:57 | 00:00:00 | |
| BAUMI2-15 | 2026-09-01 17:51:15 | 47.85907 | 12.49782 | 89° | 55km/h | 4342m | -3.7m/s | -5.4°C | 32.0% | 606.5hPa | 2.7V | 00:00:00 | 02:40:56 | 00:00:00 | |
| DO3MHA-12 | 2026-09-01 17:51:12 | 47.85906 | 12.49719 | 90° | 55km/h | 4354m | -3.7m/s | -5.5°C | 32.1% | 605.7hPa | 2.7V | 00:00:00 | 02:40:53 | 00:00:00 | |
| DO3MHA-11 | 2026-09-01 17:51:11 | 47.85906 | 12.49699 | 90° | 55km/h | 4358m | -4.0m/s | -5.6°C | 32.4% | 605.2hPa | 2.7V | 00:00:00 | 02:40:52 | 00:00:00 | |
| DO3MHA-12 | 2026-09-01 17:51:07 | 47.85906 | 12.49616 | 90° | 55km/h | 4374m | -3.8m/s | -5.7°C | 32.5% | 604.1hPa | 2.6V | 07:48:00 | 02:40:48 | 00:00:00 | |
| DO3MHA-11 | 2026-09-01 17:51:06 | 47.85906 | 12.49596 | 90° | 55km/h | 4378m | -3.9m/s | -5.7°C | 32.4% | 603.8hPa | 2.6V | 07:48:00 | 02:40:47 | 00:00:00 | |
| DO3MHA-12 | 2026-09-01 17:51:02 | 47.85906 | 12.49514 | 91° | 53km/h | 4393m | -3.6m/s | -5.9°C | 31.8% | 602.6hPa | 2.6V | 00:00:00 | 02:40:43 | 00:00:00 | |
| DO3MHA-11 | 2026-09-01 17:51:01 | 47.85906 | 12.49494 | 91° | 53km/h | 4397m | -3.9m/s | -5.9°C | 31.8% | 602.3hPa | 2.6V | 00:00:00 | 02:40:42 | 00:00:00 | |
| OE5DRO-10 | 2026-09-01 17:51:00 | 47.85906 | 12.49473 | 91° | 53km/h | 4401m | -3.9m/s | -5.9°C | 31.9% | 602.0hPa | 2.6V | 00:00:00 | 00:00:00 | 00:00:00 | |
| DO3MHA-12 | 2026-09-01 17:50:57 | 47.85906 | 12.49414 | 91° | 53km/h | 4412m | -3.7m/s | -6.0°C | 32.2% | 601.2hPa | 2.7V | 00:00:00 | 02:40:38 | 00:00:00 | |
| DO3MHA-11 | 2026-09-01 17:50:56 | 47.85907 | 12.49393 | 91° | 53km/h | 4416m | -3.7m/s | -6.1°C | 32.2% | 600.9hPa | 2.7V | 00:00:00 | 02:40:37 | 00:00:00 | |
| DO3MHA-12 | 2026-09-01 17:50:52 | 47.85908 | 12.49314 | 92° | 53km/h | 4431m | -3.5m/s | -6.2°C | 32.9% | 599.6hPa | 2.7V | 00:00:00 | 02:40:33 | 00:00:00 | |
| DO3MHA-11 | 2026-09-01 17:50:51 | 47.85908 | 12.49294 | 92° | 53km/h | 4435m | -3.5m/s | -6.2°C | 32.7% | 599.3hPa | 2.7V | 00:00:00 | 02:40:32 | 00:00:00 | |
| OE5WHR-10 | 2026-09-01 17:50:48 | 47.85909 | 12.49234 | 91° | 53km/h | 4446m | -3.4m/s | -6.2°C | 34.0% | 598.5hPa | 2.7V | 00:00:00 | 00:00:00 | 00:00:00 | |
| DO3MHA-12 | 2026-09-01 17:50:47 | 47.85909 | 12.49214 | 91° | 53km/h | 4449m | -3.8m/s | -6.2°C | 34.1% | 598.2hPa | 2.7V | 00:00:00 | 02:40:28 | 00:00:00 | |
| DO3MHA-11 | 2026-09-01 17:50:46 | 47.85909 | 12.49194 | 91° | 53km/h | 4453m | -4.0m/s | -6.3°C | 34.1% | 597.9hPa | 2.7V | 00:00:00 | 02:40:27 | 00:00:00 | |
| OE5DRO-10 | 2026-09-01 17:50:44 | 47.85909 | 12.49154 | 92° | 55km/h | 4461m | -3.4m/s | -6.3°C | 34.4% | 597.4hPa | 2.7V | 00:00:00 | 00:00:00 | 00:00:00 | |
| DO3MHA-12 | 2026-09-01 17:50:42 | 47.85910 | 12.49114 | 91° | 53km/h | 4468m | -3.5m/s | -6.4°C | 34.7% | 596.9hPa | 2.7V | 00:00:00 | 02:40:23 | 00:00:00 | |
| DO3MHA-11 | 2026-09-01 17:50:41 | 47.85910 | 12.49094 | 92° | 53km/h | 4472m | -3.7m/s | -6.4°C | 35.0% | 596.6hPa | 2.7V | 00:00:00 | 02:40:22 | 00:00:00 | |
| DO3MHA-12 | 2026-09-01 17:50:37 | 47.85911 | 12.49013 | 93° | 55km/h | 4486m | -3.7m/s | -6.4°C | 36.4% | 595.4hPa | 2.6V | 00:00:00 | 02:40:18 | 00:00:00 | |
| DO3MHA-11 | 2026-09-01 17:50:36 | 47.85912 | 12.48993 | 92° | 55km/h | 4490m | -3.8m/s | -6.4°C | 36.5% | 595.2hPa | 2.7V | 00:00:00 | 02:40:17 | 00:00:00 | |
| BAUMI2-15 | 2026-09-01 17:50:33 | 47.85913 | 12.48931 | 92° | 55km/h | 4501m | -3.5m/s | -6.5°C | 35.6% | 594.3hPa | 2.7V | 00:00:00 | 02:40:14 | 00:00:00 | |
| DO3MHA-12 | 2026-09-01 17:50:32 | 47.85913 | 12.48910 | 91° | 55km/h | 4505m | -3.5m/s | -6.5°C | 35.0% | 594.0hPa | 2.7V | 00:00:00 | 02:40:13 | 00:00:00 | |
| DO3MHA-11 | 2026-09-01 17:50:31 | 47.85914 | 12.48890 | 91° | 55km/h | 4509m | -3.6m/s | -6.5°C | 34.8% | 593.8hPa | 2.7V | 00:00:00 | 02:40:12 | 00:00:00 | |
| BAUMI2-15 | 2026-09-01 17:50:28 | 47.85914 | 12.48828 | 90° | 55km/h | 4519m | -3.6m/s | -6.6°C | 34.7% | 593.0hPa | 2.7V | 00:00:00 | 02:40:09 | 00:00:00 | |
| DO3MHA-12 | 2026-09-01 17:50:27 | 47.85914 | 12.48807 | 91° | 55km/h | 4523m | -3.7m/s | -6.6°C | 34.4% | 592.7hPa | 2.6V | 07:49:00 | 02:40:08 | 00:00:00 | |
| DO3MHA-11 | 2026-09-01 17:50:26 | 47.85914 | 12.48786 | 91° | 55km/h | 4526m | -3.5m/s | -6.6°C | 34.0% | 592.5hPa | 2.6V | 07:49:00 | 02:40:07 | 00:00:00 | |
| BAUMI2-15 | 2026-09-01 17:50:23 | 47.85915 | 12.48724 | 92° | 55km/h | 4537m | -3.5m/s | -6.7°C | 32.9% | 591.7hPa | 2.7V | 00:00:00 | 02:40:04 | 00:00:00 | |
| DO3MHA-12 | 2026-09-01 17:50:22 | 47.85915 | 12.48704 | 93° | 55km/h | 4541m | -3.5m/s | -6.7°C | 32.9% | 591.4hPa | 2.7V | 00:00:00 | 02:40:03 | 00:00:00 | |
| DO3MHA-11 | 2026-09-01 17:50:21 | 47.85916 | 12.48683 | 93° | 55km/h | 4544m | -3.3m/s | -6.7°C | 32.7% | 591.1hPa | 2.7V | 00:00:00 | 02:40:02 | 00:00:00 | |
| DG1MFX-10 | 2026-09-01 17:50:20 | 47.85916 | 12.48683 | 93° | 55km/h | 4544m | -3.4m/s | -6.8°C | 31.7% | 591.2hPa | 2.7V | 07:49:00 | 00:00:00 | 00:00:00 | |
| BAUMI2-15 | 2026-09-01 17:50:18 | 47.85917 | 12.48621 | 93° | 55km/h | 4555m | -3.5m/s | -6.7°C | 32.6% | 590.3hPa | 2.7V | 00:00:00 | 02:39:59 | 00:00:00 | |
| DO3MHA-12 | 2026-09-01 17:50:17 | 47.85918 | 12.48600 | 93° | 55km/h | 4559m | -3.4m/s | -6.7°C | 33.5% | 590.1hPa | 2.7V | 00:00:00 | 02:39:58 | 00:00:00 | |
| DO3MHA-11 | 2026-09-01 17:50:16 | 47.85919 | 12.48579 | 93° | 55km/h | 4562m | -3.4m/s | -6.8°C | 34.1% | 589.8hPa | 2.7V | 00:00:00 | 02:39:57 | 00:00:00 | |
| OE5WHR-10 | 2026-09-01 17:50:14 | 47.85920 | 12.48538 | 92° | 55km/h | 4569m | -3.5m/s | -6.8°C | 33.9% | 589.2hPa | 2.7V | 00:00:00 | 02:39:55 | 00:00:00 | |
| BAUMI2-15 | 2026-09-01 17:50:13 | 47.85920 | 12.48517 | 93° | 55km/h | 4572m | -3.5m/s | -6.8°C | 34.2% | 589.1hPa | 2.7V | 07:49:00 | 02:39:54 | 00:00:00 | |
| OE5DXL-15 | 2026-09-01 17:50:12 | 47.85921 | 12.48496 | 93° | 53km/h | 4576m | -3.3m/s | -6.8°C | 33.9% | 588.7hPa | 2.7V | 00:00:00 | 00:00:00 | 00:00:00 | |
| DO3MHA-11 | 2026-09-01 17:50:11 | 47.85921 | 12.48475 | 93° | 55km/h | 4579m | -3.6m/s | -6.8°C | 33.6% | 588.4hPa | 2.7V | 00:00:00 | 02:39:52 | 00:00:00 | |
| OE3JTB-15 | 2026-09-01 17:50:08 | 47.85923 | 12.48413 | 94° | 53km/h | 4590m | -3.5m/s | -6.8°C | 33.0% | 587.7hPa | 2.7V | 07:49:00 | 00:00:00 | 00:00:00 | |
| DO3MHA-12 | 2026-09-01 17:50:07 | 47.85924 | 12.48393 | 94° | 53km/h | 4593m | -3.6m/s | -6.9°C | 33.0% | 587.5hPa | 2.7V | 00:00:00 | 02:39:48 | 00:00:00 | |
| DO3MHA-11 | 2026-09-01 17:50:06 | 47.85925 | 12.48373 | 95° | 53km/h | 4597m | -3.3m/s | -6.9°C | 33.1% | 587.1hPa | 2.7V | 00:00:00 | 02:39:47 | 00:00:00 | |
| DO3MHA-12 | 2026-09-01 17:50:02 | 47.85930 | 12.48292 | 96° | 53km/h | 4611m | -3.4m/s | -7.0°C | 33.6% | 586.1hPa | 2.7V | 00:00:00 | 02:39:43 | 00:00:00 | |
| DO3MHA-11 | 2026-09-01 17:50:01 | 47.85932 | 12.48272 | 96° | 53km/h | 4614m | -3.2m/s | -7.0°C | 33.8% | 585.9hPa | 2.7V | 00:00:00 | 02:39:42 | 00:00:00 | |
| DG1MFX-10 | 2026-09-01 17:49:59 | 47.85933 | 12.48252 | 96° | 53km/h | 4617m | -3.4m/s | -7.1°C | 32.8% | 585.8hPa | 2.7V | 07:50:00 | 00:00:00 | 00:00:00 | |
| DO3MHA-12 | 2026-09-01 17:49:57 | 47.85936 | 12.48192 | 96° | 53km/h | 4627m | -3.3m/s | -7.2°C | 33.9% | 584.9hPa | 2.7V | 00:00:00 | 02:39:38 | 00:00:00 | |
| DO3MHA-11 | 2026-09-01 17:49:56 | 47.85938 | 12.48172 | 95° | 53km/h | 4631m | -3.3m/s | -7.2°C | 33.8% | 584.7hPa | 2.7V | 00:00:00 | 02:39:37 | 00:00:00 | |
| DO3MHA-12 | 2026-09-01 17:49:52 | 47.85942 | 12.48092 | 95° | 53km/h | 4644m | -3.7m/s | -7.3°C | 33.5% | 583.5hPa | 2.6V | 00:00:00 | 02:39:33 | 00:00:00 | |
| DO3MHA-11 | 2026-09-01 17:49:51 | 47.85943 | 12.48073 | 95° | 51km/h | 4648m | -3.6m/s | -7.3°C | 33.1% | 583.3hPa | 2.6V | 00:00:00 | 02:39:32 | 00:00:00 | |
| DO3MHA-12 | 2026-09-01 17:49:47 | 47.85947 | 12.47995 | 95° | 51km/h | 4662m | -3.3m/s | -7.3°C | 34.1% | 582.3hPa | 2.6V | 07:49:00 | 02:39:28 | 00:00:00 | |
| DO3MHA-11 | 2026-09-01 17:49:46 | 47.85949 | 12.47975 | 95° | 51km/h | 4665m | -3.4m/s | -7.4°C | 34.4% | 582.0hPa | 2.6V | 07:49:00 | 02:39:27 | 00:00:00 | |
| OE5DXL-15 | 2026-09-01 17:49:42 | 47.85953 | 12.47899 | 95° | 51km/h | 4678m | -3.4m/s | -7.5°C | 35.1% | 581.0hPa | 2.6V | 00:00:00 | 00:00:00 | 00:00:00 | |
| DO3MHA-11 | 2026-09-01 17:49:41 | 47.85953 | 12.47880 | 95° | 51km/h | 4682m | -3.5m/s | -7.5°C | 35.2% | 580.8hPa | 2.6V | 00:00:00 | 02:39:22 | 00:00:00 | |
| OE5WHR-10 | 2026-09-01 17:49:40 | 47.85955 | 12.47861 | 95° | 53km/h | 4685m | -3.5m/s | -7.5°C | 35.3% | 580.5hPa | 2.7V | 00:00:00 | 00:00:00 | 00:00:00 | |
| OE3JTB-15 | 2026-09-01 17:49:39 | 47.85956 | 12.47841 | 95° | 51km/h | 4689m | -3.2m/s | -7.6°C | 35.4% | 580.4hPa | 2.7V | 00:00:00 | 00:00:00 | 00:00:00 | |
| DB0NH | 2026-09-01 17:49:37 | 47.85958 | 12.47803 | 95° | 53km/h | 4695m | -3.4m/s | -7.6°C | 35.6% | 579.7hPa | 2.7V | 00:00:00 | 02:39:18 | 00:00:00 | |
| DO3MHA-11 | 2026-09-01 17:49:36 | 47.85959 | 12.47784 | 95° | 51km/h | 4698m | -3.4m/s | -7.6°C | 35.7% | 579.5hPa | 2.7V | 00:00:00 | 02:39:17 | 00:00:00 | |
| DO3MHA-12 | 2026-09-01 17:49:32 | 47.85963 | 12.47706 | 95° | 53km/h | 4712m | -3.2m/s | -7.7°C | 36.3% | 578.5hPa | 2.7V | 00:00:00 | 02:39:13 | 00:00:00 | |
| DO3MHA-11 | 2026-09-01 17:49:31 | 47.85964 | 12.47687 | 95° | 53km/h | 4715m | -3.3m/s | -7.8°C | 36.5% | 578.2hPa | 2.7V | 00:00:00 | 02:39:12 | 00:00:00 | |
| NBG1-10 | 2026-09-01 17:49:30 | 47.85965 | 12.47667 | 95° | 53km/h | 4719m | -3.4m/s | -7.8°C | 36.4% | 578.0hPa | 2.7V | 00:00:00 | 02:39:11 | 00:00:00 | |
| DO3MHA-12 | 2026-09-01 17:49:27 | 47.85968 | 12.47608 | 94° | 53km/h | 4729m | -3.4m/s | -7.8°C | 35.9% | 577.2hPa | 2.7V | 00:00:00 | 02:39:08 | 00:00:00 | |
| DO3MHA-11 | 2026-09-01 17:49:26 | 47.85969 | 12.47588 | 95° | 53km/h | 4732m | -3.3m/s | -7.9°C | 35.9% | 577.0hPa | 2.7V | 00:00:00 | 02:39:07 | 00:00:00 | |
| OE5DRO-10 | 2026-09-01 17:49:24 | 47.85971 | 12.47548 | 95° | 51km/h | 4739m | -3.4m/s | -7.9°C | 35.7% | 576.5hPa | 2.6V | 00:00:00 | 00:00:00 | 00:00:00 | |
| OE5WHR-10 | 2026-09-01 17:49:23 | 47.85972 | 12.47528 | 95° | 51km/h | 4743m | -3.4m/s | -7.9°C | 35.6% | 576.2hPa | 2.7V | 00:00:00 | 02:39:04 | 00:00:00 | |
| DO3MHA-12 | 2026-09-01 17:49:22 | 47.85973 | 12.47508 | 94° | 53km/h | 4746m | -3.5m/s | -8.0°C | 35.7% | 576.0hPa | 2.7V | 00:00:00 | 02:39:03 | 00:00:00 | |
| DO3MHA-11 | 2026-09-01 17:49:21 | 47.85974 | 12.47488 | 94° | 53km/h | 4750m | -3.4m/s | -8.0°C | 35.8% | 575.7hPa | 2.7V | 00:00:00 | 02:39:02 | 00:00:00 | |
| DG1MFX-10 | 2026-09-01 17:49:19 | 47.85975 | 12.47469 | 94° | 53km/h | 4753m | -3.2m/s | -8.1°C | 34.3% | 575.6hPa | 2.7V | 07:50:00 | 00:00:00 | 00:00:00 | |
| DO3MHA-12 | 2026-09-01 17:49:17 | 47.85977 | 12.47410 | 94° | 51km/h | 4763m | -3.3m/s | -8.1°C | 34.6% | 574.8hPa | 2.7V | 00:00:00 | 02:38:58 | 00:00:00 | |
| DO3MHA-11 | 2026-09-01 17:49:16 | 47.85977 | 12.47391 | 93° | 51km/h | 4766m | -3.5m/s | -8.1°C | 34.8% | 574.5hPa | 2.7V | 00:00:00 | 02:38:57 | 00:00:00 | |
| OE5DXL-15 | 2026-09-01 17:49:12 | 47.85980 | 12.47314 | 94° | 51km/h | 4780m | -3.4m/s | -8.1°C | 33.2% | 573.5hPa | 2.7V | 07:50:00 | 00:00:00 | 00:00:00 | |
| DO3MHA-11 | 2026-09-01 17:49:11 | 47.85981 | 12.47295 | 94° | 51km/h | 4784m | -3.5m/s | -8.1°C | 32.6% | 573.2hPa | 2.7V | 00:00:00 | 02:38:52 | 00:00:00 | |
| OE3JTB-15 | 2026-09-01 17:49:10 | 47.85982 | 12.47275 | 94° | 53km/h | 4787m | -3.1m/s | -8.1°C | 31.5% | 572.9hPa | 2.7V | 00:00:00 | 02:38:51 | 00:00:00 | |
| OE5DRO-10 | 2026-09-01 17:49:08 | 47.85983 | 12.47237 | 94° | 53km/h | 4794m | -3.3m/s | -8.1°C | 30.3% | 572.4hPa | 2.7V | 00:00:00 | 00:00:00 | 00:00:00 | |
| DO3MHA-12 | 2026-09-01 17:49:07 | 47.85984 | 12.47218 | 94° | 53km/h | 4797m | -3.1m/s | -8.1°C | 30.3% | 572.2hPa | 2.7V | 07:50:00 | 02:38:48 | 00:00:00 | |
| OE5WHR-10 | 2026-09-01 17:49:06 | 47.85985 | 12.47198 | 94° | 53km/h | 4800m | -3.3m/s | -8.1°C | 30.5% | 571.9hPa | 2.7V | 00:00:00 | 00:00:00 | 00:00:00 | |
| DO3MHA-12 | 2026-09-01 17:49:02 | 47.85988 | 12.47119 | 93° | 53km/h | 4814m | -3.1m/s | -8.2°C | 30.2% | 571.0hPa | 2.7V | 00:00:00 | 02:38:43 | 00:00:00 | |
| DO3MHA-11 | 2026-09-01 17:49:01 | 47.85988 | 12.47099 | 93° | 53km/h | 4817m | -3.5m/s | -8.2°C | 30.0% | 570.7hPa | 2.7V | 00:00:00 | 02:38:42 | 00:00:00 | |
| OE5MMP-10 | 2026-09-01 17:48:58 | 47.85991 | 12.47039 | 94° | 53km/h | 4827m | -3.4m/s | -8.3°C | 29.9% | 570.0hPa | 2.7V | 00:00:00 | 02:38:39 | 00:00:00 | |
| DO3MHA-12 | 2026-09-01 17:48:57 | 47.85992 | 12.47019 | 95° | 53km/h | 4830m | -3.3m/s | -8.3°C | 29.9% | 569.7hPa | 2.7V | 00:00:00 | 02:38:38 | 00:00:00 | |
| DO3MHA-11 | 2026-09-01 17:48:56 | 47.85993 | 12.47000 | 95° | 53km/h | 4834m | -3.2m/s | -8.3°C | 29.9% | 569.5hPa | 2.7V | 00:00:00 | 02:38:37 | 00:00:00 | |
| NBG1-10 | 2026-09-01 17:48:54 | 47.85995 | 12.46960 | 96° | 51km/h | 4841m | -3.4m/s | -8.3°C | 29.9% | 568.9hPa | 2.6V | 00:00:00 | 02:38:35 | 00:00:00 | |
| DO3MHA-12 | 2026-09-01 17:48:52 | 47.85997 | 12.46921 | 95° | 51km/h | 4848m | -3.1m/s | -8.3°C | 30.8% | 568.5hPa | 2.6V | 00:00:00 | 02:38:33 | 00:00:00 | |
| DO3MHA-11 | 2026-09-01 17:48:51 | 47.85998 | 12.46902 | 96° | 51km/h | 4851m | -3.4m/s | -8.3°C | 30.7% | 568.2hPa | 2.6V | 00:00:00 | 02:38:32 | 00:00:00 | |
| OE5MMP-10 | 2026-09-01 17:48:48 | 47.86002 | 12.46844 | 96° | 51km/h | 4861m | -3.5m/s | -8.4°C | 30.7% | 567.4hPa | 2.6V | 00:00:00 | 02:38:29 | 00:00:00 | |
| DO3MHA-12 | 2026-09-01 17:48:47 | 47.86003 | 12.46825 | 96° | 51km/h | 4865m | -3.3m/s | -8.4°C | 30.6% | 567.2hPa | 2.6V | 00:00:00 | 02:38:28 | 00:00:00 | |
| DO3MHA-11 | 2026-09-01 17:48:46 | 47.86005 | 12.46806 | 97° | 51km/h | 4868m | -3.4m/s | -8.4°C | 30.6% | 567.0hPa | 2.6V | 00:00:00 | 02:38:27 | 00:00:00 | |
| DO3MHA-12 | 2026-09-01 17:48:42 | 47.86010 | 12.46729 | 96° | 51km/h | 4882m | -3.6m/s | -8.5°C | 30.4% | 565.9hPa | 2.6V | 00:00:00 | 02:38:23 | 00:00:00 | |
| DO3MHA-11 | 2026-09-01 17:48:41 | 47.86011 | 12.46710 | 96° | 53km/h | 4886m | -3.4m/s | -8.5°C | 30.4% | 565.7hPa | 2.6V | 00:00:00 | 02:38:22 | 00:00:00 | |
| DO3MHA-12 | 2026-09-01 17:48:37 | 47.86016 | 12.46632 | 95° | 53km/h | 4900m | -3.5m/s | -8.5°C | 29.7% | 564.7hPa | 2.7V | 00:00:00 | 02:38:18 | 00:00:00 | |
| DO3MHA-11 | 2026-09-01 17:48:36 | 47.86017 | 12.46612 | 95° | 51km/h | 4904m | -3.6m/s | -8.6°C | 29.7% | 564.5hPa | 2.7V | 00:00:00 | 02:38:17 | 00:00:00 | |
| DO3MHA-12 | 2026-09-01 17:48:32 | 47.86022 | 12.46534 | 96° | 51km/h | 4918m | -3.4m/s | -8.7°C | 29.9% | 563.4hPa | 2.7V | 00:00:00 | 02:38:13 | 00:00:00 | |
| DO3MHA-11 | 2026-09-01 17:48:31 | 47.86023 | 12.46515 | 96° | 51km/h | 4921m | -3.6m/s | -8.7°C | 29.9% | 563.1hPa | 2.7V | 00:00:00 | 02:38:12 | 00:00:00 | |
| OE5WHR-10 | 2026-09-01 17:48:30 | 47.86024 | 12.46496 | 96° | 51km/h | 4925m | -3.7m/s | -8.7°C | 29.8% | 562.9hPa | 2.7V | 00:00:00 | 02:38:11 | 00:00:00 | |
| OE5MMP-10 | 2026-09-01 17:48:29 | 47.86025 | 12.46477 | 97° | 51km/h | 4929m | -3.5m/s | -8.7°C | 29.8% | 562.6hPa | 2.7V | 00:00:00 | 02:38:10 | 00:00:00 | |
| DO3MHA-12 | 2026-09-01 17:48:27 | 47.86029 | 12.46440 | 97° | 49km/h | 4936m | -3.5m/s | -8.8°C | 29.6% | 562.1hPa | 2.6V | 07:51:00 | 02:38:08 | 00:00:00 | |
| DO3MHA-11 | 2026-09-01 17:48:26 | 47.86030 | 12.46421 | 97° | 49km/h | 4940m | -3.5m/s | -8.8°C | 29.6% | 561.9hPa | 2.6V | 07:51:00 | 02:38:07 | 00:00:00 | |
| DO3MHA-12 | 2026-09-01 17:48:22 | 47.86036 | 12.46347 | 97° | 51km/h | 4954m | -3.5m/s | -8.9°C | 29.6% | 560.7hPa | 2.7V | 00:00:00 | 02:38:03 | 00:00:00 | |
| DO3MHA-11 | 2026-09-01 17:48:21 | 47.86037 | 12.46328 | 96° | 51km/h | 4958m | -3.5m/s | -8.9°C | 29.7% | 560.5hPa | 2.7V | 00:00:00 | 02:38:02 | 00:00:00 | |
| OE5DRO-10 | 2026-09-01 17:48:20 | 47.86038 | 12.46310 | 96° | 51km/h | 4961m | -3.7m/s | -8.9°C | 30.4% | 560.3hPa | 2.7V | 00:00:00 | 00:00:00 | 00:00:00 | |
| OE5MMP-10 | 2026-09-01 17:48:19 | 47.86040 | 12.46290 | 96° | 53km/h | 4965m | -3.4m/s | -8.9°C | 31.6% | 560.0hPa | 2.7V | 00:00:00 | 02:38:00 | 00:00:00 | |
| DO3MHA-12 | 2026-09-01 17:48:17 | 47.86042 | 12.46252 | 96° | 51km/h | 4972m | -3.6m/s | -8.9°C | 34.3% | 559.5hPa | 2.7V | 00:00:00 | 02:37:58 | 00:00:00 | |
| DO3MHA-11 | 2026-09-01 17:48:16 | 47.86043 | 12.46232 | 96° | 51km/h | 4976m | -3.7m/s | -9.0°C | 34.8% | 559.2hPa | 2.7V | 00:00:00 | 02:37:57 | 00:00:00 | |
| DO3MHA-11 | 2026-09-01 17:48:11 | 47.86050 | 12.46135 | 97° | 53km/h | 4994m | -3.6m/s | -9.0°C | 35.5% | 557.8hPa | 2.7V | 00:00:00 | 02:37:52 | 00:00:00 | |
| DL6DJ-15 | 2026-09-01 17:48:10 | 47.86054 | 12.46076 | 96° | 51km/h | 5005m | -3.8m/s | -9.1°C | 33.8% | 557.1hPa | 2.7V | 00:00:00 | 00:00:00 | 00:00:00 | |
| DB0NH | 2026-09-01 17:48:07 | 47.86056 | 12.46057 | 97° | 53km/h | 5009m | -3.5m/s | -9.1°C | 34.7% | 556.8hPa | 2.7V | 00:00:00 | 02:37:48 | 00:00:00 | |
| DO3MHA-11 | 2026-09-01 17:48:06 | 47.86057 | 12.46037 | 97° | 53km/h | 5013m | -3.7m/s | -9.1°C | 34.5% | 556.5hPa | 2.7V | 00:00:00 | 02:37:47 | 00:00:00 | |
| OE5DRO-10 | 2026-09-01 17:48:04 | 47.86060 | 12.45998 | 98° | 53km/h | 5020m | -3.6m/s | -9.1°C | 30.4% | 556.0hPa | 2.7V | 07:51:00 | 00:00:00 | 00:00:00 | |
| OE5MMP-10 | 2026-09-01 17:48:03 | 47.86062 | 12.45978 | 98° | 53km/h | 5024m | -3.6m/s | -9.1°C | 29.8% | 555.8hPa | 2.7V | 00:00:00 | 02:37:44 | 00:00:00 | |
| BAUMI2-15 | 2026-09-01 17:47:57 | 47.86073 | 12.45861 | 99° | 51km/h | 5046m | -3.5m/s | -9.3°C | 29.8% | 554.2hPa | 2.7V | 00:00:00 | 02:37:38 | 00:00:00 | |
| DO3MHA-11 | 2026-09-01 17:47:56 | 47.86075 | 12.45842 | 99° | 53km/h | 5050m | -3.7m/s | -9.3°C | 29.8% | 553.9hPa | 2.7V | 00:00:00 | 02:37:37 | 00:00:00 | |
| OE5WHR-10 | 2026-09-01 17:47:53 | 47.86081 | 12.45783 | 99° | 53km/h | 5061m | -3.6m/s | -9.4°C | 30.3% | 553.1hPa | 2.7V | 00:00:00 | 00:00:00 | 00:00:00 | |
| BAUMI2-15 | 2026-09-01 17:47:51 | 47.86086 | 12.45744 | 99° | 53km/h | 5069m | -3.7m/s | -9.4°C | 31.0% | 552.6hPa | 2.7V | 00:00:00 | 02:37:32 | 00:00:00 | |
| NBG1-10 | 2026-09-01 17:47:48 | 47.86092 | 12.45686 | 100° | 53km/h | 5080m | -3.8m/s | -9.5°C | 32.9% | 551.8hPa | 2.7V | 00:00:00 | 02:37:29 | 00:00:00 | |
| BAUMI2-15 | 2026-09-01 17:47:46 | 47.86096 | 12.45647 | 100° | 53km/h | 5088m | -3.8m/s | -9.5°C | 32.4% | 551.2hPa | 2.7V | 00:00:00 | 02:37:27 | 00:00:00 | |
| DO3MHA-11 | 2026-09-01 17:47:45 | 47.86099 | 12.45628 | 100° | 53km/h | 5092m | -3.9m/s | -9.5°C | 32.3% | 550.9hPa | 2.7V | 00:00:00 | 02:37:26 | 00:00:00 | |
| OE3JTB-15 | 2026-09-01 17:47:43 | 47.86103 | 12.45589 | 100° | 53km/h | 5099m | -3.8m/s | -9.6°C | 32.2% | 550.4hPa | 2.7V | 00:00:00 | 02:37:24 | 00:00:00 | |
| OE5DXL-15 | 2026-09-01 17:47:42 | 47.86105 | 12.45570 | 100° | 53km/h | 5103m | -3.9m/s | -9.6°C | 32.2% | 550.1hPa | 2.7V | 00:00:00 | 00:00:00 | 00:00:00 | |
| BAUMI2-15 | 2026-09-01 17:47:41 | 47.86108 | 12.45550 | 100° | 53km/h | 5107m | -3.7m/s | -9.6°C | 32.2% | 549.9hPa | 2.7V | 00:00:00 | 02:37:22 | 00:00:00 | |
| DB0NH | 2026-09-01 17:47:37 | 47.86117 | 12.45472 | 101° | 57km/h | 5122m | -4.0m/s | -9.7°C | 31.2% | 548.8hPa | 2.7V | 00:00:00 | 02:37:18 | 00:00:00 | |
| DG1MFX-10 | 2026-09-01 17:47:36 | 47.86117 | 12.45472 | 102° | 53km/h | 5122m | -4.0m/s | -9.8°C | 30.1% | 548.8hPa | 2.7V | 07:52:00 | 00:00:00 | 00:00:00 | |
| OE5DRO-10 | 2026-09-01 17:47:32 | 47.86130 | 12.45372 | 102° | 53km/h | 5142m | -4.0m/s | -9.8°C | 31.3% | 547.4hPa | 2.7V | 00:00:00 | 00:00:00 | 00:00:00 | |
| BAUMI2-15 | 2026-09-01 17:47:30 | 47.86136 | 12.45332 | 102° | 53km/h | 5150m | -3.8m/s | -9.9°C | 30.5% | 546.8hPa | 2.7V | 00:00:00 | 02:37:11 | 00:00:00 | |
| DO3MHA-11 | 2026-09-01 17:47:28 | 47.86141 | 12.45293 | 102° | 53km/h | 5158m | -3.8m/s | -9.9°C | 30.1% | 546.3hPa | 2.6V | 00:00:00 | 02:37:09 | 00:00:00 | |
| BAUMI2-15 | 2026-09-01 17:47:25 | 47.86149 | 12.45233 | 102° | 53km/h | 5169m | -3.9m/s | -10.0°C | 29.5% | 545.3hPa | 2.6V | 00:00:00 | 02:37:06 | 00:00:00 | |
| DO3MHA-11 | 2026-09-01 17:47:18 | 47.86168 | 12.45095 | 102° | 53km/h | 5197m | -4.0m/s | -10.2°C | 25.2% | 543.4hPa | 2.6V | 07:52:00 | 02:36:59 | 00:00:00 | |
| OE5DRO-10 | 2026-09-01 17:47:16 | 47.86173 | 12.45056 | 102° | 53km/h | 5205m | -3.9m/s | -10.2°C | 26.1% | 542.8hPa | 2.6V | 00:00:00 | 00:00:00 | 00:00:00 | |
| NBG1-10 | 2026-09-01 17:47:15 | 47.86176 | 12.45036 | 102° | 53km/h | 5209m | -4.0m/s | -10.2°C | 26.3% | 542.5hPa | 2.6V | 07:52:00 | 02:36:56 | 00:00:00 | |
| OE3JTB-15 | 2026-09-01 17:47:14 | 47.86179 | 12.45016 | 102° | 53km/h | 5213m | -4.1m/s | -10.2°C | 26.1% | 542.4hPa | 2.6V | 00:00:00 | 00:00:00 | 00:00:00 | |
| BAUMI2-15 | 2026-09-01 17:47:13 | 47.86182 | 12.44996 | 102° | 53km/h | 5217m | -4.1m/s | -10.3°C | 26.2% | 542.0hPa | 2.6V | 00:00:00 | 02:36:54 | 00:00:00 | |
| OE5DXL-15 | 2026-09-01 17:47:12 | 47.86184 | 12.44976 | 102° | 53km/h | 5222m | -4.0m/s | -10.3°C | 26.9% | 541.7hPa | 2.7V | 00:00:00 | 00:00:00 | 00:00:00 | |
| DL6DJ-15 | 2026-09-01 17:47:08 | 47.86199 | 12.44878 | 102° | 53km/h | 5242m | -4.0m/s | -10.5°C | 27.2% | 540.3hPa | 2.7V | 00:00:00 | 00:00:00 | 00:00:00 | |
| BAUMI2-15 | 2026-09-01 17:47:06 | 47.86202 | 12.44858 | 103° | 53km/h | 5246m | -4.0m/s | -10.5°C | 28.5% | 540.1hPa | 2.7V | 00:00:00 | 02:36:47 | 00:00:00 | |
| OE5MMP-10 | 2026-09-01 17:47:05 | 47.86205 | 12.44838 | 103° | 53km/h | 5250m | -4.1m/s | -10.5°C | 28.8% | 539.7hPa | 2.7V | 00:00:00 | 02:36:46 | 00:00:00 | |
| OE5WHR-10 | 2026-09-01 17:47:02 | 47.86214 | 12.44780 | 104° | 53km/h | 5262m | -4.0m/s | -10.6°C | 29.4% | 538.9hPa | 2.7V | 00:00:00 | 02:36:43 | 00:00:00 | |
| BAUMI2-15 | 2026-09-01 17:47:01 | 47.86217 | 12.44760 | 104° | 53km/h | 5266m | -4.2m/s | -10.6°C | 29.5% | 538.6hPa | 2.7V | 00:00:00 | 02:36:42 | 00:00:00 | |
| OE5DRO-10 | 2026-09-01 17:47:00 | 47.86220 | 12.44740 | 103° | 53km/h | 5271m | -4.2m/s | -10.7°C | 29.6% | 538.2hPa | 2.7V | 00:00:00 | 00:00:00 | 00:00:00 | |
| DO3MHA-12 | 2026-09-01 17:46:59 | 47.86223 | 12.44721 | 104° | 55km/h | 5275m | -4.0m/s | -10.7°C | 29.7% | 538.1hPa | 2.7V | 00:00:00 | 02:36:40 | 00:00:00 | |
| DO3MHA-11 | 2026-09-01 17:46:58 | 47.86226 | 12.44701 | 104° | 53km/h | 5279m | -4.0m/s | -10.7°C | 29.7% | 537.6hPa | 2.7V | 00:00:00 | 02:36:39 | 00:00:00 | |
| BAUMI2-15 | 2026-09-01 17:46:56 | 47.86232 | 12.44662 | 104° | 53km/h | 5287m | -4.3m/s | -10.8°C | 29.7% | 537.0hPa | 2.7V | 00:00:00 | 02:36:37 | 00:00:00 | |
| OE5MMP-10 | 2026-09-01 17:46:55 | 47.86235 | 12.44643 | 104° | 53km/h | 5291m | -4.1m/s | -10.8°C | 29.9% | 536.7hPa | 2.6V | 00:00:00 | 02:36:36 | 00:00:00 | |
| DG1MFX-10 | 2026-09-01 17:46:54 | 47.86235 | 12.44643 | 104° | 53km/h | 5291m | -4.1m/s | -10.9°C | 28.7% | 536.8hPa | 2.6V | 07:52:00 | 00:00:00 | 00:00:00 | |
| BAUMI2-15 | 2026-09-01 17:46:49 | 47.86253 | 12.44526 | 103° | 53km/h | 5317m | -4.3m/s | -11.0°C | 29.9% | 535.0hPa | 2.6V | 00:00:00 | 02:36:30 | 00:00:00 | |
| DO3MHA-11 | 2026-09-01 17:46:48 | 47.86256 | 12.44507 | 102° | 55km/h | 5321m | -4.2m/s | -11.1°C | 30.0% | 534.7hPa | 2.6V | 00:00:00 | 02:36:29 | 00:00:00 | |
| OE5MMP-10 | 2026-09-01 17:46:43 | 47.86270 | 12.44408 | 103° | 55km/h | 5343m | -4.3m/s | -11.3°C | 30.4% | 533.2hPa | 2.6V | 00:00:00 | 02:36:24 | 00:00:00 | |
| OE5DXL-15 | 2026-09-01 17:46:42 | 47.86273 | 12.44388 | 103° | 55km/h | 5347m | -4.2m/s | -11.3°C | 30.4% | 533.0hPa | 2.6V | 00:00:00 | 00:00:00 | 00:00:00 | |
| BAUMI2-15 | 2026-09-01 17:46:39 | 47.86282 | 12.44328 | 103° | 55km/h | 5360m | -4.5m/s | -11.4°C | 30.3% | 532.0hPa | 2.6V | 00:00:00 | 02:36:20 | 00:00:00 | |
| DL6DJ-15 | 2026-09-01 17:46:36 | 47.86291 | 12.44267 | 101° | 55km/h | 5373m | -4.3m/s | -11.5°C | 28.5% | 531.2hPa | 2.7V | 00:00:00 | 00:00:00 | 00:00:00 | |
| DO3MHA-11 | 2026-09-01 17:46:35 | 47.86294 | 12.44247 | 103° | 55km/h | 5378m | -4.4m/s | -11.5°C | 27.8% | 530.8hPa | 2.7V | 00:00:00 | 02:36:16 | 00:00:00 | |
| DG1MFX-10 | 2026-09-01 17:46:34 | 47.86294 | 12.44247 | 104° | 55km/h | 5378m | -4.5m/s | -11.5°C | 26.6% | 530.8hPa | 2.7V | 07:53:00 | 00:00:00 | 00:00:00 | |
| BAUMI2-15 | 2026-09-01 17:46:33 | 47.86300 | 12.44206 | 103° | 55km/h | 5386m | -4.3m/s | -11.5°C | 25.3% | 530.2hPa | 2.7V | 07:53:00 | 02:36:14 | 00:00:00 | |
| DO3MHA-12 | 2026-09-01 17:46:30 | 47.86309 | 12.44146 | 103° | 55km/h | 5400m | -4.4m/s | -11.5°C | 20.4% | 529.3hPa | 2.7V | 00:00:00 | 02:36:11 | 00:00:00 | |
| OE5WHR-10 | 2026-09-01 17:46:28 | 47.86315 | 12.44106 | 102° | 57km/h | 5409m | -4.3m/s | -11.6°C | 19.4% | 528.6hPa | 2.7V | 00:00:00 | 00:00:00 | 00:00:00 | |
| BAUMI2-15 | 2026-09-01 17:46:27 | 47.86318 | 12.44086 | 103° | 55km/h | 5413m | -4.4m/s | -11.6°C | 19.4% | 528.3hPa | 2.7V | 00:00:00 | 02:36:08 | 00:00:00 | |
| DO3MHA-11 | 2026-09-01 17:46:25 | 47.86323 | 12.44046 | 103° | 57km/h | 5422m | -4.3m/s | -11.6°C | 18.7% | 527.7hPa | 2.7V | 00:00:00 | 02:36:06 | 00:00:00 | |
| DO3MHA-12 | 2026-09-01 17:46:20 | 47.86338 | 12.43944 | 102° | 57km/h | 5445m | -4.5m/s | -11.7°C | 23.9% | 526.1hPa | 2.7V | 00:00:00 | 02:36:01 | 00:00:00 | |
| OE5MMP-10 | 2026-09-01 17:46:16 | 47.86350 | 12.43861 | 102° | 57km/h | 5463m | -4.5m/s | -11.9°C | 26.6% | 524.9hPa | 2.7V | 00:00:00 | 02:35:57 | 00:00:00 | |
| DO3MHA-11 | 2026-09-01 17:46:15 | 47.86353 | 12.43840 | 102° | 57km/h | 5468m | -4.8m/s | -11.9°C | 27.4% | 524.5hPa | 2.7V | 00:00:00 | 02:35:56 | 00:00:00 | |
| DG1MFX-10 | 2026-09-01 17:46:13 | 47.86356 | 12.43819 | 102° | 57km/h | 5473m | -4.6m/s | -12.0°C | 27.0% | 524.4hPa | 2.7V | 07:53:00 | 00:00:00 | 00:00:00 | |
| OE5DXL-15 | 2026-09-01 17:46:12 | 47.86361 | 12.43777 | 102° | 57km/h | 5482m | -4.5m/s | -12.0°C | 28.6% | 523.5hPa | 2.7V | 00:00:00 | 00:00:00 | 00:00:00 | |
| OE5WHR-10 | 2026-09-01 17:46:11 | 47.86364 | 12.43756 | 101° | 57km/h | 5487m | -4.5m/s | -12.0°C | 29.7% | 523.3hPa | 2.7V | 00:00:00 | 02:35:52 | 00:00:00 | |
| DO3MHA-12 | 2026-09-01 17:46:10 | 47.86367 | 12.43736 | 102° | 57km/h | 5491m | -4.4m/s | -12.1°C | 30.7% | 523.0hPa | 2.7V | 07:53:00 | 02:35:51 | 00:00:00 | |
| NBG1-10 | 2026-09-01 17:46:09 | 47.86370 | 12.43715 | 102° | 57km/h | 5496m | -4.5m/s | -12.1°C | 31.2% | 522.7hPa | 2.7V | 00:00:00 | 02:35:50 | 00:00:00 | |
| OE5MMP-10 | 2026-09-01 17:46:06 | 47.86379 | 12.43653 | 103° | 57km/h | 5510m | -4.6m/s | -12.2°C | 31.4% | 521.8hPa | 2.7V | 00:00:00 | 02:35:47 | 00:00:00 | |
| DO3MHA-11 | 2026-09-01 17:46:05 | 47.86382 | 12.43632 | 103° | 57km/h | 5514m | -4.6m/s | -12.2°C | 30.2% | 521.4hPa | 2.7V | 00:00:00 | 02:35:46 | 00:00:00 | |
| DO3MHA-12 | 2026-09-01 17:46:00 | 47.86397 | 12.43530 | 103° | 57km/h | 5538m | -4.6m/s | -12.3°C | 32.6% | 519.8hPa | 2.6V | 00:00:00 | 02:35:41 | 00:00:00 | |
| OE5MMP-10 | 2026-09-01 17:45:56 | 47.86409 | 12.43447 | 102° | 57km/h | 5557m | -4.6m/s | -12.4°C | 32.5% | 518.7hPa | 2.6V | 00:00:00 | 02:35:37 | 00:00:00 | |
| DO3MHA-11 | 2026-09-01 17:45:55 | 47.86412 | 12.43425 | 101° | 57km/h | 5561m | -4.4m/s | -12.5°C | 33.1% | 518.3hPa | 2.7V | 07:53:00 | 02:35:36 | 00:00:00 | |
| OE5WHR-10 | 2026-09-01 17:45:54 | 47.86414 | 12.43404 | 102° | 58km/h | 5566m | -4.7m/s | -12.5°C | 33.8% | 517.9hPa | 2.7V | 00:00:00 | 00:00:00 | 00:00:00 | |
| DG1MFX-10 | 2026-09-01 17:45:53 | 47.86414 | 12.43404 | 102° | 57km/h | 5566m | -4.8m/s | -12.6°C | 32.4% | 518.0hPa | 2.6V | 07:53:00 | 00:00:00 | 00:00:00 | |
| DO3MHA-12 | 2026-09-01 17:45:49 | 47.86429 | 12.43299 | 103° | 58km/h | 5589m | -4.6m/s | -12.7°C | 34.0% | 516.4hPa | 2.6V | 00:00:00 | 02:35:30 | 00:00:00 | |
| OE3JTB-15 | 2026-09-01 17:45:47 | 47.86436 | 12.43257 | 104° | 58km/h | 5599m | -4.8m/s | -12.7°C | 34.3% | 515.8hPa | 2.6V | 00:00:00 | 00:00:00 | 00:00:00 | |
| DO3MHA-11 | 2026-09-01 17:45:45 | 47.86442 | 12.43215 | 104° | 58km/h | 5608m | -4.9m/s | -12.8°C | 34.4% | 515.0hPa | 2.6V | 00:00:00 | 02:35:26 | 00:00:00 | |
| OE5DXL-15 | 2026-09-01 17:45:42 | 47.86453 | 12.43152 | 104° | 60km/h | 5622m | -4.3m/s | -12.9°C | 33.5% | 514.1hPa | 2.6V | 00:00:00 | 00:00:00 | 00:00:00 | |
| OE5DRO-10 | 2026-09-01 17:45:40 | 47.86460 | 12.43110 | 104° | 58km/h | 5631m | -4.5m/s | -12.9°C | 31.6% | 513.5hPa | 2.6V | 00:00:00 | 00:00:00 | 00:00:00 | |
| DO3MHA-12 | 2026-09-01 17:45:37 | 47.86470 | 12.43046 | 104° | 58km/h | 5645m | -4.6m/s | -13.0°C | 30.7% | 512.6hPa | 2.6V | 00:00:00 | 02:35:18 | 00:00:00 | |
| NBG1-10 | 2026-09-01 17:45:36 | 47.86474 | 12.43025 | 105° | 60km/h | 5650m | -4.7m/s | -13.0°C | 31.2% | 512.3hPa | 2.6V | 00:00:00 | 02:35:17 | 00:00:00 | |
| DO3MHA-11 | 2026-09-01 17:45:35 | 47.86477 | 12.43003 | 104° | 58km/h | 5654m | -4.5m/s | -13.0°C | 31.6% | 512.0hPa | 2.6V | 00:00:00 | 02:35:16 | 00:00:00 | |
| DL6DJ-15 | 2026-09-01 17:45:34 | 47.86481 | 12.42982 | 103° | 58km/h | 5659m | -4.6m/s | -13.1°C | 30.3% | 511.7hPa | 2.6V | 00:00:00 | 00:00:00 | 00:00:00 | |
| OE5WHR-10 | 2026-09-01 17:45:33 | 47.86484 | 12.42960 | 105° | 60km/h | 5664m | -4.6m/s | -13.1°C | 32.0% | 511.2hPa | 2.6V | 00:00:00 | 00:00:00 | 00:00:00 | |
| DG1MFX-10 | 2026-09-01 17:45:32 | 47.86484 | 12.42960 | 105° | 58km/h | 5664m | -4.7m/s | -13.1°C | 30.6% | 511.3hPa | 2.6V | 07:54:00 | 00:00:00 | 00:00:00 | |
| DO3MHA-12 | 2026-09-01 17:45:27 | 47.86505 | 12.42832 | 104° | 60km/h | 5692m | -4.7m/s | -13.3°C | 33.6% | 509.4hPa | 2.6V | 00:00:00 | 02:35:08 | 00:00:00 | |
| DO3MHA-11 | 2026-09-01 17:45:25 | 47.86512 | 12.42788 | 103° | 62km/h | 5702m | -4.8m/s | -13.4°C | 33.5% | 508.7hPa | 2.6V | 00:00:00 | 02:35:06 | 00:00:00 | |
| OE5DRO-10 | 2026-09-01 17:45:21 | 47.86526 | 12.42699 | 103° | 62km/h | 5721m | -4.8m/s | -13.5°C | 33.6% | 507.4hPa | 2.6V | 00:00:00 | 00:00:00 | 00:00:00 | |
| OE3JTB-15 | 2026-09-01 17:45:18 | 47.86535 | 12.42630 | 102° | 62km/h | 5736m | -4.6m/s | -13.6°C | 31.6% | 506.5hPa | 2.6V | 00:00:00 | 00:00:00 | 00:00:00 | |
| DO3MHA-12 | 2026-09-01 17:45:17 | 47.86538 | 12.42608 | 102° | 60km/h | 5740m | -4.8m/s | -13.6°C | 29.3% | 506.2hPa | 2.6V | 00:00:00 | 02:34:58 | 00:00:00 | |
| DO3MHA-11 | 2026-09-01 17:45:15 | 47.86544 | 12.42563 | 101° | 62km/h | 5750m | -4.7m/s | -13.6°C | 27.1% | 505.5hPa | 2.6V | 00:00:00 | 02:34:56 | 00:00:00 | |
| DG1MJG | 2026-09-01 17:45:13 | 47.86547 | 12.42540 | 101° | 60km/h | 5755m | -4.8m/s | -13.7°C | 25.7% | 505.3hPa | 2.6V | 07:54:00 | 00:00:00 | 00:00:00 | |
| OE5DXL-15 | 2026-09-01 17:45:12 | 47.86553 | 12.42495 | 101° | 64km/h | 5765m | -4.9m/s | -13.8°C | 26.7% | 504.5hPa | 2.6V | 07:54:00 | 00:00:00 | 00:00:00 | |
| DO3MHA-12 | 2026-09-01 17:45:07 | 47.86566 | 12.42382 | 101° | 62km/h | 5789m | -4.7m/s | -13.8°C | 25.8% | 502.9hPa | 2.6V | 00:00:00 | 02:34:48 | 00:00:00 | |
| DO3MHA-11 | 2026-09-01 17:45:05 | 47.86571 | 12.42335 | 100° | 64km/h | 5799m | -5.0m/s | -13.9°C | 27.9% | 502.3hPa | 2.6V | 00:00:00 | 02:34:46 | 00:00:00 | |
| OE5DRO-10 | 2026-09-01 17:45:02 | 47.86579 | 12.42265 | 100° | 64km/h | 5813m | -4.7m/s | -13.9°C | 28.1% | 501.4hPa | 2.6V | 00:00:00 | 00:00:00 | 00:00:00 | |
| DO3MHA-12 | 2026-09-01 17:44:57 | 47.86592 | 12.42148 | 100° | 64km/h | 5838m | -4.8m/s | -14.0°C | 26.0% | 499.8hPa | 2.6V | 00:00:00 | 02:34:38 | 00:00:00 | |
| DO3MHA-11 | 2026-09-01 17:44:55 | 47.86598 | 12.42101 | 100° | 64km/h | 5847m | -4.6m/s | -14.0°C | 25.4% | 499.1hPa | 2.6V | 00:00:00 | 02:34:36 | 00:00:00 | |
| OE5MMP-10 | 2026-09-01 17:44:53 | 47.86603 | 12.42054 | 101° | 64km/h | 5856m | -4.6m/s | -14.1°C | 24.5% | 498.6hPa | 2.6V | 00:00:00 | 02:34:34 | 00:00:00 | |
| OE5WHR-10 | 2026-09-01 17:44:51 | 47.86610 | 12.42007 | 102° | 66km/h | 5866m | -4.8m/s | -14.2°C | 23.7% | 497.9hPa | 2.6V | 00:00:00 | 00:00:00 | 00:00:00 | |
| OE3JTB-15 | 2026-09-01 17:44:48 | 47.86620 | 12.41937 | 103° | 68km/h | 5880m | -4.9m/s | -14.3°C | 23.0% | 496.9hPa | 2.6V | 00:00:00 | 02:34:29 | 00:00:00 | |
| DO3MHA-12 | 2026-09-01 17:44:47 | 47.86624 | 12.41913 | 103° | 66km/h | 5885m | -4.7m/s | -14.3°C | 23.0% | 496.7hPa | 2.6V | 07:54:00 | 02:34:28 | 00:00:00 | |
| DO3MHA-11 | 2026-09-01 17:44:45 | 47.86631 | 12.41865 | 102° | 66km/h | 5895m | -4.6m/s | -14.4°C | 24.1% | 496.0hPa | 2.6V | 00:00:00 | 02:34:26 | 00:00:00 | |
| OE5MMP-10 | 2026-09-01 17:44:43 | 47.86637 | 12.41816 | 101° | 68km/h | 5904m | -4.7m/s | -14.5°C | 25.4% | 495.4hPa | 2.6V | 00:00:00 | 02:34:24 | 00:00:00 | |
| OE5DXL-15 | 2026-09-01 17:44:42 | 47.86640 | 12.41792 | 100° | 68km/h | 5909m | -4.8m/s | -14.5°C | 25.8% | 495.1hPa | 2.6V | 00:00:00 | 00:00:00 | 00:00:00 | |
| DO3MHA-12 | 2026-09-01 17:44:37 | 47.86654 | 12.41668 | 100° | 68km/h | 5933m | -4.7m/s | -14.7°C | 31.4% | 493.6hPa | 2.6V | 00:00:00 | 02:34:18 | 00:00:00 | |
| DO3MHA-11 | 2026-09-01 17:44:35 | 47.86660 | 12.41618 | 101° | 68km/h | 5942m | -4.5m/s | -14.7°C | 34.9% | 492.9hPa | 2.6V | 07:55:00 | 02:34:16 | 00:00:00 | |
| OE5MMP-10 | 2026-09-01 17:44:33 | 47.86666 | 12.41568 | 100° | 68km/h | 5951m | -4.5m/s | -14.8°C | 43.3% | 492.2hPa | 2.6V | 00:00:00 | 02:34:14 | 00:00:00 | |
| DG1MFX-10 | 2026-09-01 17:44:31 | 47.86669 | 12.41543 | 101° | 68km/h | 5956m | -4.6m/s | -14.9°C | 47.7% | 492.0hPa | 2.6V | 07:55:00 | 00:00:00 | 00:00:00 | |
| NBG1-10 | 2026-09-01 17:44:30 | 47.86675 | 12.41493 | 100° | 69km/h | 5965m | -4.7m/s | -14.9°C | 63.7% | 491.4hPa | 2.6V | 00:00:00 | 02:34:11 | 00:00:00 | |
| OE5WHR-10 | 2026-09-01 17:44:28 | 47.86680 | 12.41443 | 100° | 69km/h | 5975m | -4.7m/s | -14.9°C | 70.8% | 490.8hPa | 2.6V | 00:00:00 | 00:00:00 | 00:00:00 | |
| DO3MHA-12 | 2026-09-01 17:44:27 | 47.86683 | 12.41418 | 99° | 68km/h | 5980m | -4.7m/s | -14.9°C | 68.8% | 490.5hPa | 2.6V | 00:00:00 | 02:34:08 | 00:00:00 | |
| DO3MHA-11 | 2026-09-01 17:44:25 | 47.86688 | 12.41368 | 99° | 69km/h | 5989m | -4.7m/s | -15.0°C | 65.4% | 489.9hPa | 2.6V | 00:00:00 | 02:34:06 | 00:00:00 | |
| OE5DRO-10 | 2026-09-01 17:44:24 | 47.86690 | 12.41342 | 99° | 69km/h | 5994m | -4.8m/s | -15.0°C | 62.9% | 489.6hPa | 2.6V | 00:00:00 | 00:00:00 | 00:00:00 | |
| OE5MMP-10 | 2026-09-01 17:44:23 | 47.86693 | 12.41317 | 99° | 69km/h | 5998m | -4.5m/s | -15.0°C | 58.2% | 489.2hPa | 2.6V | 07:55:00 | 02:34:04 | 00:00:00 | |
| OE3JTB-15 | 2026-09-01 17:44:19 | 47.86703 | 12.41214 | 98° | 69km/h | 6017m | -4.7m/s | -15.0°C | 44.4% | 488.1hPa | 2.6V | 00:00:00 | 00:00:00 | 00:00:00 | |
| DO3MHA-12 | 2026-09-01 17:44:17 | 47.86708 | 12.41163 | 98° | 69km/h | 6026m | -4.8m/s | -15.1°C | 49.4% | 487.4hPa | 2.6V | 00:00:00 | 02:33:58 | 00:00:00 | |
| DO3MHA-11 | 2026-09-01 17:44:15 | 47.86712 | 12.41112 | 98° | 69km/h | 6036m | -4.7m/s | -15.3°C | 56.1% | 486.9hPa | 2.6V | 00:00:00 | 02:33:56 | 00:00:00 | |
| OE5MMP-10 | 2026-09-01 17:44:13 | 47.86717 | 12.41061 | 98° | 69km/h | 6045m | -4.6m/s | -15.4°C | 61.7% | 486.2hPa | 2.6V | 00:00:00 | 02:33:54 | 00:00:00 | |
| OE5DXL-15 | 2026-09-01 17:44:12 | 47.86719 | 12.41035 | 98° | 69km/h | 6050m | -4.7m/s | -15.4°C | 61.9% | 486.0hPa | 2.6V | 00:00:00 | 00:00:00 | 00:00:00 | |
| DG1MFX-10 | 2026-09-01 17:44:10 | 47.86721 | 12.41009 | 99° | 69km/h | 6055m | -4.6m/s | -15.5°C | 59.6% | 485.6hPa | 2.6V | 07:55:00 | 00:00:00 | 00:00:00 | |
| DO3MHA-12 | 2026-09-01 17:44:07 | 47.86730 | 12.40906 | 98° | 69km/h | 6073m | -4.6m/s | -15.6°C | 61.1% | 484.4hPa | 2.6V | 00:00:00 | 02:33:48 | 00:00:00 | |
| OE5DRO-10 | 2026-09-01 17:44:05 | 47.86735 | 12.40855 | 98° | 69km/h | 6083m | -4.6m/s | -15.7°C | 57.0% | 483.8hPa | 2.6V | 00:00:00 | 00:00:00 | 00:00:00 | |
| DO3MHA-11 | 2026-09-01 17:44:04 | 47.86737 | 12.40829 | 98° | 69km/h | 6087m | -4.5m/s | -15.7°C | 51.3% | 483.5hPa | 2.6V | 00:00:00 | 02:33:45 | 00:00:00 | |
| OE5MMP-10 | 2026-09-01 17:44:03 | 47.86740 | 12.40803 | 98° | 69km/h | 6092m | -4.6m/s | -15.7°C | 47.0% | 483.3hPa | 2.6V | 00:00:00 | 02:33:44 | 00:00:00 | |
| BAUMI2-15 | 2026-09-01 17:44:01 | 47.86744 | 12.40752 | 98° | 69km/h | 6101m | -4.6m/s | -15.8°C | 43.2% | 482.6hPa | 2.6V | 00:00:00 | 02:33:42 | 00:00:00 | |
| DO3MHA-12 | 2026-09-01 17:43:57 | 47.86754 | 12.40648 | 99° | 69km/h | 6120m | -4.6m/s | -15.9°C | 36.9% | 481.5hPa | 2.6V | 00:00:00 | 02:33:38 | 00:00:00 | |
| BAUMI2-15 | 2026-09-01 17:43:56 | 47.86756 | 12.40622 | 99° | 69km/h | 6124m | -4.4m/s | -15.9°C | 30.7% | 481.2hPa | 2.6V | 00:00:00 | 02:33:37 | 00:00:00 | |
| DO3MHA-11 | 2026-09-01 17:43:54 | 47.86761 | 12.40571 | 99° | 69km/h | 6133m | -4.4m/s | -16.0°C | 25.4% | 480.6hPa | 2.6V | 00:00:00 | 02:33:35 | 00:00:00 | |
| OE5MMP-10 | 2026-09-01 17:43:53 | 47.86764 | 12.40545 | 99° | 69km/h | 6138m | -4.7m/s | -16.0°C | 23.2% | 480.2hPa | 2.6V | 00:00:00 | 02:33:34 | 00:00:00 | |
| BAUMI2-15 | 2026-09-01 17:43:51 | 47.86769 | 12.40494 | 100° | 69km/h | 6148m | -4.6m/s | -16.1°C | 22.2% | 479.7hPa | 2.6V | 07:55:00 | 02:33:32 | 00:00:00 | |
| OE3JTB-15 | 2026-09-01 17:43:50 | 47.86772 | 12.40468 | 99° | 69km/h | 6152m | -4.5m/s | -16.1°C | 21.9% | 479.4hPa | 2.6V | 00:00:00 | 00:00:00 | 00:00:00 | |
| DG1MFX-10 | 2026-09-01 17:43:49 | 47.86772 | 12.40468 | 100° | 69km/h | 6152m | -4.5m/s | -16.1°C | 20.7% | 479.5hPa | 2.6V | 07:56:00 | 00:00:00 | 00:00:00 | |
| DO3MHA-12 | 2026-09-01 17:43:47 | 47.86780 | 12.40391 | 99° | 69km/h | 6166m | -4.3m/s | -16.2°C | 22.2% | 478.5hPa | 2.6V | 00:00:00 | 02:33:28 | 00:00:00 | |
| BAUMI2-15 | 2026-09-01 17:43:46 | 47.86782 | 12.40366 | 98° | 69km/h | 6170m | -4.5m/s | -16.2°C | 22.1% | 478.4hPa | 2.6V | 00:00:00 | 02:33:27 | 00:00:00 | |
| OE5WHR-10 | 2026-09-01 17:43:45 | 47.86785 | 12.40340 | 98° | 69km/h | 6175m | -4.4m/s | -16.3°C | 22.1% | 478.0hPa | 2.6V | 00:00:00 | 00:00:00 | 00:00:00 | |
| DO3MHA-11 | 2026-09-01 17:43:44 | 47.86787 | 12.40314 | 98° | 69km/h | 6179m | -4.6m/s | -16.3°C | 21.9% | 477.7hPa | 2.6V | 00:00:00 | 02:33:25 | 00:00:00 | |
| OE5MMP-10 | 2026-09-01 17:43:43 | 47.86789 | 12.40288 | 98° | 69km/h | 6184m | -4.4m/s | -16.3°C | 21.4% | 477.4hPa | 2.6V | 00:00:00 | 02:33:24 | 00:00:00 | |
| OE5DXL-15 | 2026-09-01 17:43:42 | 47.86792 | 12.40262 | 98° | 69km/h | 6188m | -4.5m/s | -16.4°C | 21.2% | 477.1hPa | 2.6V | 00:00:00 | 02:33:23 | 00:00:00 | |
| BAUMI2-15 | 2026-09-01 17:43:41 | 47.86794 | 12.40236 | 98° | 69km/h | 6193m | -4.5m/s | -16.4°C | 20.7% | 476.8hPa | 2.6V | 00:00:00 | 02:33:22 | 00:00:00 | |
| DO3MHA-12 | 2026-09-01 17:43:37 | 47.86804 | 12.40132 | 99° | 69km/h | 6211m | -4.5m/s | -16.5°C | 21.2% | 475.6hPa | 2.6V | 00:00:00 | 02:33:18 | 00:00:00 | |
| BAUMI2-15 | 2026-09-01 17:43:36 | 47.86807 | 12.40105 | 99° | 69km/h | 6216m | -4.4m/s | -16.6°C | 21.6% | 475.4hPa | 2.6V | 00:00:00 | 02:33:17 | 00:00:00 | |
| DO3MHA-11 | 2026-09-01 17:43:34 | 47.86812 | 12.40053 | 99° | 69km/h | 6225m | -4.4m/s | -16.6°C | 22.0% | 474.8hPa | 2.6V | 00:00:00 | 02:33:15 | 00:00:00 | |
| OE5MMP-10 | 2026-09-01 17:43:33 | 47.86815 | 12.40027 | 99° | 69km/h | 6229m | -4.4m/s | -16.7°C | 22.1% | 474.4hPa | 2.6V | 00:00:00 | 02:33:14 | 00:00:00 | |
| BAUMI2-15 | 2026-09-01 17:43:31 | 47.86820 | 12.39976 | 99° | 69km/h | 6238m | -4.5m/s | -16.7°C | 21.4% | 473.9hPa | 2.6V | 00:00:00 | 02:33:12 | 00:00:00 | |
| DL6DJ-15 | 2026-09-01 17:43:30 | 47.86823 | 12.39950 | 98° | 69km/h | 6242m | -4.5m/s | -16.8°C | 19.9% | 473.7hPa | 2.6V | 00:00:00 | 00:00:00 | 00:00:00 | |
| DG1MFX-10 | 2026-09-01 17:43:29 | 47.86823 | 12.39950 | 100° | 69km/h | 6243m | -4.5m/s | -16.8°C | 19.9% | 473.7hPa | 2.6V | 07:56:00 | 00:00:00 | 00:00:00 | |
| DO3MHA-12 | 2026-09-01 17:43:27 | 47.86830 | 12.39872 | 99° | 69km/h | 6256m | -4.7m/s | -16.8°C | 21.8% | 472.8hPa | 2.6V | 07:56:00 | 02:33:08 | 00:00:00 | |
| BAUMI2-15 | 2026-09-01 17:43:26 | 47.86833 | 12.39846 | 99° | 69km/h | 6261m | -4.6m/s | -16.8°C | 23.0% | 472.5hPa | 2.6V | 00:00:00 | 02:33:07 | 00:00:00 | |
| OE5WHR-10 | 2026-09-01 17:43:24 | 47.86838 | 12.39795 | 99° | 69km/h | 6270m | -4.4m/s | -16.9°C | 26.6% | 471.9hPa | 2.6V | 00:00:00 | 00:00:00 | 00:00:00 | |
| OE5MMP-10 | 2026-09-01 17:43:23 | 47.86841 | 12.39769 | 99° | 69km/h | 6274m | -4.6m/s | -17.0°C | 28.8% | 471.6hPa | 2.6V | 00:00:00 | 02:33:04 | 00:00:00 | |
| BAUMI2-15 | 2026-09-01 17:43:21 | 47.86847 | 12.39718 | 99° | 69km/h | 6283m | -4.5m/s | -17.1°C | 38.3% | 471.1hPa | 2.6V | 00:00:00 | 02:33:02 | 00:00:00 | |
| DO3MHA-12 | 2026-09-01 17:43:17 | 47.86857 | 12.39616 | 99° | 69km/h | 6302m | -4.7m/s | -17.2°C | 51.4% | 469.9hPa | 2.6V | 00:00:00 | 02:32:58 | 00:00:00 | |
| BAUMI2-15 | 2026-09-01 17:43:16 | 47.86859 | 12.39590 | 99° | 69km/h | 6306m | -4.5m/s | -17.3°C | 50.9% | 469.6hPa | 2.6V | 00:00:00 | 02:32:57 | 00:00:00 | |
| DO3MHA-11 | 2026-09-01 17:43:14 | 47.86864 | 12.39538 | 99° | 69km/h | 6315m | -4.6m/s | -17.3°C | 49.8% | 469.0hPa | 2.6V | 07:56:00 | 02:32:55 | 00:00:00 | |
| OE5MMP-10 | 2026-09-01 17:43:13 | 47.86867 | 12.39513 | 99° | 69km/h | 6320m | -4.5m/s | -17.4°C | 49.1% | 468.8hPa | 2.6V | 00:00:00 | 02:32:54 | 00:00:00 | |
| OE5DXL-15 | 2026-09-01 17:43:12 | 47.86869 | 12.39487 | 98° | 68km/h | 6325m | -4.4m/s | -17.4°C | 48.0% | 468.4hPa | 2.6V | 00:00:00 | 00:00:00 | 00:00:00 | |
| DB0NH | 2026-09-01 17:43:11 | 47.86872 | 12.39461 | 98° | 69km/h | 6329m | -4.6m/s | -17.4°C | 46.5% | 468.2hPa | 2.6V | 07:56:00 | 02:32:52 | 00:00:00 | |
| OE5DRO-10 | 2026-09-01 17:43:08 | 47.86879 | 12.39384 | 98° | 69km/h | 6343m | -4.5m/s | -17.5°C | 43.3% | 467.3hPa | 2.6V | 00:00:00 | 00:00:00 | 00:00:00 | |
| DO3MHA-12 | 2026-09-01 17:43:07 | 47.86881 | 12.39358 | 98° | 69km/h | 6347m | -4.4m/s | -17.5°C | 42.7% | 467.0hPa | 2.6V | 00:00:00 | 02:32:48 | 00:00:00 | |
| BAUMI2-15 | 2026-09-01 17:43:06 | 47.86884 | 12.39332 | 99° | 69km/h | 6352m | -4.5m/s | -17.6°C | 42.1% | 466.8hPa | 2.6V | 00:00:00 | 02:32:47 | 00:00:00 | |
| DO3MHA-11 | 2026-09-01 17:43:04 | 47.86889 | 12.39280 | 99° | 69km/h | 6361m | -4.4m/s | -17.6°C | 40.4% | 466.2hPa | 2.6V | 00:00:00 | 02:32:45 | 00:00:00 | |
| DL6DJ-15 | 2026-09-01 17:42:59 | 47.86901 | 12.39152 | 97° | 68km/h | 6383m | -4.5m/s | -17.8°C | 32.8% | 464.9hPa | 2.6V | 00:00:00 | 00:00:00 | 00:00:00 | |
| DO3MHA-12 | 2026-09-01 17:42:57 | 47.86905 | 12.39101 | 98° | 68km/h | 6393m | -4.6m/s | -17.9°C | 33.4% | 464.2hPa | 2.6V | 00:00:00 | 02:32:38 | 00:00:00 | |
| BAUMI2-15 | 2026-09-01 17:42:56 | 47.86907 | 12.39075 | 98° | 68km/h | 6397m | -4.4m/s | -17.9°C | 32.4% | 463.9hPa | 2.6V | 00:00:00 | 02:32:37 | 00:00:00 | |
| DO3MHA-11 | 2026-09-01 17:42:54 | 47.86912 | 12.39024 | 99° | 68km/h | 6406m | -4.5m/s | -18.0°C | 31.8% | 463.4hPa | 2.6V | 00:00:00 | 02:32:35 | 00:00:00 | |
| OE3JTB-15 | 2026-09-01 17:42:52 | 47.86917 | 12.38974 | 99° | 68km/h | 6415m | -4.5m/s | -18.1°C | 33.0% | 462.8hPa | 2.6V | 00:00:00 | 00:00:00 | 00:00:00 | |
| OE5MMP-10 | 2026-09-01 17:42:51 | 47.86919 | 12.38948 | 99° | 66km/h | 6420m | -4.5m/s | -18.1°C | 29.1% | 462.6hPa | 2.6V | 00:00:00 | 02:32:32 | 00:00:00 | |
| OE5DRO-10 | 2026-09-01 17:42:49 | 47.86925 | 12.38898 | 100° | 66km/h | 6429m | -4.6m/s | -18.1°C | 28.1% | 462.0hPa | 2.6V | 00:00:00 | 00:00:00 | 00:00:00 | |
| DG1MFX-10 | 2026-09-01 17:42:48 | 47.86925 | 12.38898 | 100° | 68km/h | 6429m | -4.6m/s | -18.2°C | 26.5% | 462.1hPa | 2.6V | 07:57:00 | 00:00:00 | 00:00:00 | |
| DO3MHA-12 | 2026-09-01 17:42:47 | 47.86930 | 12.38849 | 100° | 66km/h | 6438m | -4.5m/s | -18.2°C | 28.2% | 461.4hPa | 2.6V | 00:00:00 | 02:32:28 | 00:00:00 | |
| BAUMI2-15 | 2026-09-01 17:42:46 | 47.86933 | 12.38824 | 100° | 66km/h | 6443m | -4.6m/s | -18.2°C | 29.1% | 461.1hPa | 2.6V | 00:00:00 | 02:32:27 | 00:00:00 | |
| DO3MHA-11 | 2026-09-01 17:42:44 | 47.86938 | 12.38776 | 99° | 66km/h | 6452m | -4.5m/s | -18.3°C | 32.0% | 460.5hPa | 2.6V | 00:00:00 | 02:32:25 | 00:00:00 | |
| OE5DXL-15 | 2026-09-01 17:42:42 | 47.86943 | 12.38727 | 98° | 68km/h | 6461m | -4.6m/s | -18.4°C | 39.2% | 460.0hPa | 2.6V | 00:00:00 | 00:00:00 | 00:00:00 | |
| BAUMI2-15 | 2026-09-01 17:42:41 | 47.86945 | 12.38703 | 98° | 66km/h | 6466m | -4.6m/s | -18.4°C | 38.7% | 459.7hPa | 2.6V | 00:00:00 | 02:32:22 | 00:00:00 | |
| DO3MHA-12 | 2026-09-01 17:42:37 | 47.86953 | 12.38606 | 97° | 68km/h | 6484m | -4.5m/s | -18.5°C | 40.5% | 458.6hPa | 2.6V | 00:00:00 | 02:32:18 | 00:00:00 | |
| BAUMI2-15 | 2026-09-01 17:42:36 | 47.86955 | 12.38582 | 97° | 68km/h | 6489m | -4.7m/s | -18.6°C | 40.9% | 458.3hPa | 2.6V | 00:00:00 | 02:32:17 | 00:00:00 | |
| DO3MHA-11 | 2026-09-01 17:42:34 | 47.86959 | 12.38532 | 97° | 68km/h | 6498m | -4.6m/s | -18.6°C | 45.8% | 457.7hPa | 2.6V | 00:00:00 | 02:32:15 | 00:00:00 | |
| BAUMI2-15 | 2026-09-01 17:42:31 | 47.86965 | 12.38456 | 97° | 68km/h | 6512m | -4.7m/s | -18.7°C | 63.0% | 456.8hPa | 2.6V | 07:57:00 | 02:32:12 | 00:00:00 | |
| OE5DRO-10 | 2026-09-01 17:42:30 | 47.86967 | 12.38431 | 97° | 68km/h | 6517m | -4.6m/s | -18.8°C | 70.5% | 456.7hPa | 2.6V | 00:00:00 | 00:00:00 | 00:00:00 | |
| DL6DJ-15 | 2026-09-01 17:42:28 | 47.86974 | 12.38355 | 97° | 68km/h | 6531m | -4.6m/s | -18.9°C | 77.2% | 455.8hPa | 2.6V | 00:00:00 | 00:00:00 | 00:00:00 | |
| DO3MHA-12 | 2026-09-01 17:42:27 | 47.86973 | 12.38355 | 98° | 68km/h | 6531m | -4.5m/s | -18.8°C | 80.9% | 455.7hPa | 2.6V | 00:00:00 | 02:32:08 | 00:00:00 | |
| BAUMI2-15 | 2026-09-01 17:42:26 | 47.86976 | 12.38330 | 98° | 68km/h | 6535m | -4.5m/s | -18.9°C | 82.1% | 455.5hPa | 2.6V | 00:00:00 | 02:32:07 | 00:00:00 | |
| DO3MHA-11 | 2026-09-01 17:42:24 | 47.86980 | 12.38279 | 98° | 68km/h | 6544m | -4.6m/s | -18.9°C | 83.8% | 454.9hPa | 2.6V | 00:00:00 | 02:32:05 | 00:00:00 | |
| DG1MJG | 2026-09-01 17:42:20 | 47.86987 | 12.38204 | 99° | 68km/h | 6558m | -4.6m/s | -19.0°C | 84.4% | 454.1hPa | 2.6V | 07:57:00 | 00:00:00 | 00:00:00 | |
| NBG1-10 | 2026-09-01 17:42:18 | 47.86994 | 12.38130 | 99° | 64km/h | 6572m | -4.6m/s | -18.9°C | 86.8% | 453.2hPa | 2.6V | 00:00:00 | 02:31:59 | 00:00:00 | |
| BAUMI2-15 | 2026-09-01 17:42:16 | 47.86999 | 12.38080 | 99° | 66km/h | 6582m | -4.7m/s | -19.0°C | 85.5% | 452.6hPa | 2.6V | 00:00:00 | 02:31:57 | 00:00:00 | |
| DO3MHA-11 | 2026-09-01 17:42:14 | 47.87004 | 12.38030 | 99° | 66km/h | 6591m | -4.7m/s | -19.0°C | 84.0% | 452.0hPa | 2.6V | 00:00:00 | 02:31:55 | 00:00:00 | |
| OE5DXL-15 | 2026-09-01 17:42:12 | 47.87010 | 12.37981 | 100° | 64km/h | 6600m | -4.5m/s | -19.0°C | 82.8% | 451.5hPa | 2.6V | 00:00:00 | 00:00:00 | 00:00:00 | |
| OE5MMP-10 | 2026-09-01 17:42:11 | 47.87012 | 12.37957 | 100° | 66km/h | 6605m | -4.5m/s | -19.1°C | 82.8% | 451.2hPa | 2.6V | 00:00:00 | 02:31:52 | 00:00:00 | |
| DO3MHA-12 | 2026-09-01 17:42:07 | 47.87023 | 12.37860 | 100° | 64km/h | 6624m | -4.7m/s | -19.2°C | 83.2% | 450.1hPa | 2.6V | 07:57:00 | 02:31:48 | 00:00:00 | |
| BAUMI2-15 | 2026-09-01 17:42:06 | 47.87026 | 12.37835 | 100° | 64km/h | 6628m | -4.7m/s | -19.2°C | 83.2% | 449.8hPa | 2.6V | 00:00:00 | 02:31:47 | 00:00:00 | |
| DO3MHA-11 | 2026-09-01 17:42:04 | 47.87032 | 12.37787 | 101° | 64km/h | 6638m | -4.7m/s | -19.3°C | 83.2% | 449.2hPa | 2.6V | 00:00:00 | 02:31:45 | 00:00:00 | |
| OE5MMP-10 | 2026-09-01 17:42:01 | 47.87041 | 12.37716 | 101° | 62km/h | 6652m | -4.5m/s | -19.4°C | 82.5% | 448.4hPa | 2.6V | 00:00:00 | 02:31:42 | 00:00:00 | |
| OE5WHR-10 | 2026-09-01 17:41:58 | 47.87050 | 12.37646 | 101° | 64km/h | 6666m | -4.7m/s | -19.4°C | 80.1% | 447.6hPa | 2.6V | 00:00:00 | 02:31:39 | 00:00:00 | |
| DO3MHA-12 | 2026-09-01 17:41:57 | 47.87053 | 12.37623 | 101° | 64km/h | 6670m | -4.7m/s | -19.4°C | 78.8% | 447.3hPa | 2.6V | 00:00:00 | 02:31:38 | 00:00:00 | |
| DO3MHA-11 | 2026-09-01 17:41:54 | 47.87061 | 12.37553 | 100° | 64km/h | 6685m | -4.8m/s | -19.5°C | 77.6% | 446.4hPa | 2.6V | 07:57:00 | 02:31:35 | 00:00:00 | |
| OE5DRO-10 | 2026-09-01 17:41:52 | 47.87067 | 12.37506 | 100° | 64km/h | 6694m | -4.7m/s | -19.6°C | 77.1% | 445.8hPa | 2.6V | 00:00:00 | 00:00:00 | 00:00:00 | |
| OE5MMP-10 | 2026-09-01 17:41:51 | 47.87069 | 12.37483 | 100° | 64km/h | 6699m | -4.8m/s | -19.6°C | 76.7% | 445.5hPa | 2.6V | 00:00:00 | 02:31:32 | 00:00:00 | |
| DG1MJG | 2026-09-01 17:41:49 | 47.87072 | 12.37460 | 101° | 64km/h | 6704m | -4.9m/s | -19.7°C | 72.1% | 445.3hPa | 2.6V | 07:57:00 | 00:00:00 | 00:00:00 | |
| DO3MHA-12 | 2026-09-01 17:41:47 | 47.87080 | 12.37389 | 99° | 64km/h | 6718m | -4.7m/s | -19.8°C | 74.3% | 444.4hPa | 2.6V | 00:00:00 | 02:31:28 | 00:00:00 | |
| NBG1-10 | 2026-09-01 17:41:45 | 47.87085 | 12.37342 | 100° | 66km/h | 6728m | -4.8m/s | -19.8°C | 72.8% | 443.8hPa | 2.6V | 00:00:00 | 02:31:26 | 00:00:00 | |
| DO3MHA-11 | 2026-09-01 17:41:44 | 47.87087 | 12.37318 | 100° | 64km/h | 6733m | -4.7m/s | -19.8°C | 71.9% | 443.5hPa | 2.6V | 00:00:00 | 02:31:25 | 00:00:00 | |
| OE5DXL-15 | 2026-09-01 17:41:42 | 47.87092 | 12.37270 | 100° | 66km/h | 6742m | -4.8m/s | -19.9°C | 72.0% | 442.9hPa | 2.6V | 00:00:00 | 00:00:00 | 00:00:00 | |
| OE5MMP-10 | 2026-09-01 17:41:41 | 47.87095 | 12.37246 | 100° | 66km/h | 6747m | -4.8m/s | -19.9°C | 72.0% | 442.6hPa | 2.6V | 07:57:00 | 02:31:22 | 00:00:00 | |
| OE5WHR-10 | 2026-09-01 17:41:37 | 47.87105 | 12.37150 | 99° | 66km/h | 6767m | -4.8m/s | -20.0°C | 73.1% | 441.6hPa | 2.6V | 00:00:00 | 00:00:00 | 00:00:00 | |
| DO3MHA-11 | 2026-09-01 17:41:34 | 47.87112 | 12.37077 | 99° | 66km/h | 6781m | -4.6m/s | -20.1°C | 72.9% | 440.7hPa | 2.6V | 00:00:00 | 02:31:15 | 00:00:00 | |
| OE5DRO-10 | 2026-09-01 17:41:33 | 47.87115 | 12.37052 | 99° | 66km/h | 6786m | -4.8m/s | -20.2°C | 72.9% | 440.4hPa | 2.6V | 00:00:00 | 00:00:00 | 00:00:00 | |
| OE5MMP-10 | 2026-09-01 17:41:31 | 47.87120 | 12.37003 | 98° | 66km/h | 6795m | -4.7m/s | -20.3°C | 73.3% | 439.8hPa | 2.6V | 00:00:00 | 02:31:12 | 00:00:00 | |
| DL6DJ-15 | 2026-09-01 17:41:26 | 47.87133 | 12.36856 | 97° | 64km/h | 6824m | -4.8m/s | -20.6°C | 70.6% | 438.2hPa | 2.6V | 00:00:00 | 00:00:00 | 00:00:00 | |
| DO3MHA-11 | 2026-09-01 17:41:24 | 47.87135 | 12.36831 | 98° | 66km/h | 6829m | -4.8m/s | -20.6°C | 74.6% | 437.8hPa | 2.6V | 00:00:00 | 02:31:05 | 00:00:00 | |
| OE5MMP-10 | 2026-09-01 17:41:21 | 47.87142 | 12.36758 | 98° | 66km/h | 6843m | -4.7m/s | -20.7°C | 75.2% | 437.0hPa | 2.6V | 00:00:00 | 02:31:02 | 00:00:00 | |
| DG1MJG | 2026-09-01 17:41:19 | 47.87145 | 12.36734 | 99° | 66km/h | 6848m | -4.9m/s | -20.8°C | 71.6% | 436.7hPa | 2.6V | 07:58:00 | 00:00:00 | 00:00:00 | |
| OE3JTB-15 | 2026-09-01 17:41:18 | 47.87149 | 12.36685 | 98° | 66km/h | 6858m | -4.9m/s | -20.8°C | 75.9% | 436.1hPa | 2.6V | 00:00:00 | 00:00:00 | 00:00:00 | |
| DO3MHA-12 | 2026-09-01 17:41:17 | 47.87151 | 12.36661 | 98° | 66km/h | 6863m | -4.8m/s | -20.9°C | 76.1% | 435.8hPa | 2.5V | 00:00:00 | 02:30:58 | 00:00:00 | |
| OE5WHR-10 | 2026-09-01 17:41:16 | 47.87154 | 12.36636 | 98° | 66km/h | 6867m | -4.8m/s | -20.9°C | 76.4% | 435.6hPa | 2.6V | 00:00:00 | 00:00:00 | 00:00:00 | |
| DO3MHA-11 | 2026-09-01 17:41:14 | 47.87158 | 12.36588 | 98° | 66km/h | 6877m | -4.9m/s | -21.0°C | 77.0% | 435.0hPa | 2.6V | 00:00:00 | 02:30:55 | 00:00:00 | |
| OE5DXL-15 | 2026-09-01 17:41:12 | 47.87162 | 12.36540 | 97° | 68km/h | 6887m | -4.8m/s | -21.1°C | 77.5% | 434.4hPa | 2.6V | 07:58:00 | 00:00:00 | 00:00:00 | |
| OE5MMP-10 | 2026-09-01 17:41:11 | 47.87164 | 12.36515 | 97° | 66km/h | 6892m | -4.8m/s | -21.2°C | 77.7% | 434.1hPa | 2.6V | 00:00:00 | 02:30:52 | 00:00:00 | |
| DO3MHA-12 | 2026-09-01 17:41:07 | 47.87171 | 12.36416 | 97° | 68km/h | 6912m | -4.9m/s | -21.3°C | 78.4% | 432.9hPa | 2.6V | 00:00:00 | 02:30:48 | 00:00:00 | |
| DG1MFX-10 | 2026-09-01 17:41:06 | 47.87171 | 12.36416 | 97° | 66km/h | 6912m | -5.0m/s | -21.4°C | 74.4% | 432.9hPa | 2.6V | 07:58:00 | 00:00:00 | 00:00:00 | |
| DO3MHA-11 | 2026-09-01 17:41:04 | 47.87177 | 12.36341 | 97° | 68km/h | 6926m | -4.9m/s | -21.5°C | 79.3% | 432.1hPa | 2.6V | 00:00:00 | 02:30:45 | 00:00:00 | |
| DL6DJ-15 | 2026-09-01 17:40:55 | 47.87198 | 12.36090 | 98° | 68km/h | 6975m | -5.0m/s | -21.8°C | 68.5% | 429.3hPa | 2.6V | 00:00:00 | 00:00:00 | 00:00:00 | |
| DO3MHA-11 | 2026-09-01 17:40:54 | 47.87198 | 12.36090 | 99° | 68km/h | 6975m | -4.9m/s | -21.8°C | 72.3% | 429.3hPa | 2.6V | 00:00:00 | 02:30:35 | 00:00:00 | |
| OE5MMP-10 | 2026-09-01 17:40:51 | 47.87206 | 12.36014 | 98° | 68km/h | 6990m | -4.8m/s | -21.9°C | 67.1% | 428.4hPa | 2.6V | 00:00:00 | 02:30:32 | 00:00:00 | |
| OE3JTB-15 | 2026-09-01 17:40:49 | 47.87210 | 12.35964 | 98° | 66km/h | 7000m | -4.8m/s | -21.9°C | 61.3% | 427.8hPa | 2.5V | 00:00:00 | 00:00:00 | 00:00:00 | |
| DG1MJG | 2026-09-01 17:40:48 | 47.87210 | 12.35964 | 98° | 68km/h | 7000m | -4.8m/s | -22.0°C | 57.9% | 427.8hPa | 2.5V | 07:58:00 | 00:00:00 | 00:00:00 | |
| DO3MHA-12 | 2026-09-01 17:40:47 | 47.87214 | 12.35913 | 97° | 68km/h | 7009m | -4.8m/s | -22.0°C | 59.9% | 427.2hPa | 2.5V | 07:58:00 | 02:30:28 | 00:00:00 | |
| DO3MHA-11 | 2026-09-01 17:40:44 | 47.87221 | 12.35838 | 98° | 66km/h | 7024m | -4.8m/s | -22.1°C | 58.2% | 426.4hPa | 2.6V | 00:00:00 | 02:30:25 | 00:00:00 | |
| OE5DXL-15 | 2026-09-01 17:40:42 | 47.87225 | 12.35787 | 99° | 66km/h | 7034m | -4.8m/s | -22.2°C | 56.1% | 425.8hPa | 2.6V | 00:00:00 | 00:00:00 | 00:00:00 | |
| OE5MMP-10 | 2026-09-01 17:40:41 | 47.87228 | 12.35762 | 99° | 66km/h | 7039m | -4.8m/s | -22.2°C | 54.6% | 425.5hPa | 2.6V | 00:00:00 | 02:30:22 | 00:00:00 | |
| NBG1-10 | 2026-09-01 17:40:39 | 47.87233 | 12.35713 | 100° | 66km/h | 7049m | -4.8m/s | -22.2°C | 48.1% | 424.9hPa | 2.6V | 00:00:00 | 02:30:20 | 00:00:00 | |
| DO3MHA-12 | 2026-09-01 17:40:37 | 47.87238 | 12.35664 | 100° | 64km/h | 7058m | -4.9m/s | -22.2°C | 42.1% | 424.4hPa | 2.6V | 00:00:00 | 02:30:18 | 00:00:00 | |
| OE5DRO-10 | 2026-09-01 17:40:36 | 47.87241 | 12.35640 | 100° | 66km/h | 7063m | -4.8m/s | -22.2°C | 39.2% | 424.1hPa | 2.6V | 00:00:00 | 00:00:00 | 00:00:00 | |
| DO3MHA-11 | 2026-09-01 17:40:34 | 47.87247 | 12.35593 | 100° | 66km/h | 7073m | -4.8m/s | -22.1°C | 31.1% | 423.6hPa | 2.5V | 07:59:00 | 02:30:15 | 00:00:00 | |
| OE5MMP-10 | 2026-09-01 17:40:31 | 47.87254 | 12.35521 | 100° | 66km/h | 7087m | -4.8m/s | -21.9°C | 22.0% | 422.8hPa | 2.6V | 00:00:00 | 02:30:12 | 00:00:00 | |
| DO3MHA-12 | 2026-09-01 17:40:27 | 47.87265 | 12.35425 | 101° | 66km/h | 7106m | -4.8m/s | -21.6°C | 16.4% | 421.7hPa | 2.6V | 00:00:00 | 02:30:08 | 00:00:00 | |
| DG1MFX-10 | 2026-09-01 17:40:25 | 47.87268 | 12.35400 | 101° | 66km/h | 7111m | -4.8m/s | -21.6°C | 13.8% | 421.4hPa | 2.6V | 07:59:00 | 00:00:00 | 00:00:00 | |
| DL6DJ-15 | 2026-09-01 17:40:24 | 47.87278 | 12.35326 | 100° | 66km/h | 7126m | -4.9m/s | -21.5°C | 10.4% | 420.6hPa | 2.6V | 00:00:00 | 00:00:00 | 00:00:00 | |
| OE5MMP-10 | 2026-09-01 17:40:21 | 47.87284 | 12.35277 | 101° | 68km/h | 7136m | -4.8m/s | -21.3°C | 8.2% | 419.9hPa | 2.6V | 07:59:00 | 02:30:02 | 00:00:00 | |
| OE3JTB-15 | 2026-09-01 17:40:20 | 47.87287 | 12.35253 | 101° | 69km/h | 7141m | -4.9m/s | -21.2°C | 7.5% | 419.7hPa | 2.5V | 00:00:00 | 02:30:01 | 00:00:00 | |
| DO3MHA-12 | 2026-09-01 17:40:17 | 47.87297 | 12.35179 | 102° | 68km/h | 7155m | -4.8m/s | -21.3°C | 8.5% | 418.9hPa | 2.5V | 00:00:00 | 02:29:58 | 00:00:00 | |
| DO3MHA-11 | 2026-09-01 17:40:14 | 47.87306 | 12.35105 | 102° | 68km/h | 7170m | -5.1m/s | -21.3°C | 9.4% | 418.0hPa | 2.6V | 00:00:00 | 02:29:55 | 00:00:00 | |
| OE5WHR-10 | 2026-09-01 17:40:13 | 47.87310 | 12.35080 | 101° | 69km/h | 7176m | -5.1m/s | -21.4°C | 9.5% | 417.7hPa | 2.6V | 00:00:00 | 00:00:00 | 00:00:00 | |
| OE5DXL-15 | 2026-09-01 17:40:12 | 47.87313 | 12.35055 | 101° | 69km/h | 7180m | -5.0m/s | -21.4°C | 0% | 417.5hPa | 2.6V | 00:00:00 | 00:00:00 | 00:00:00 | |
| OE5MMP-10 | 2026-09-01 17:40:11 | 47.87316 | 12.35030 | 101° | 69km/h | 7186m | -4.9m/s | -21.5°C | 9.6% | 417.2hPa | 2.6V | 00:00:00 | 02:29:52 | 00:00:00 | |
| DO3MHA-12 | 2026-09-01 17:40:07 | 47.87329 | 12.34928 | 102° | 69km/h | 7205m | -5.0m/s | -21.6°C | 9.9% | 416.0hPa | 2.6V | 00:00:00 | 02:29:48 | 00:00:00 | |
| NBG1-10 | 2026-09-01 17:40:06 | 47.87333 | 12.34903 | 101° | 71km/h | 7210m | -5.0m/s | -21.6°C | 9.7% | 415.8hPa | 2.6V | 00:00:00 | 02:29:47 | 00:00:00 | |
| DG1MFX-10 | 2026-09-01 17:40:05 | 47.87333 | 12.34903 | 102° | 69km/h | 7210m | -5.0m/s | -21.7°C | 8.8% | 415.8hPa | 2.5V | 07:59:00 | 00:00:00 | 00:00:00 | |
| DO3MHA-11 | 2026-09-01 17:40:04 | 47.87339 | 12.34852 | 102° | 69km/h | 7220m | -5.0m/s | -21.7°C | 9.6% | 415.1hPa | 2.5V | 00:00:00 | 02:29:45 | 00:00:00 | |
| OE5MMP-10 | 2026-09-01 17:40:01 | 47.87350 | 12.34775 | 101° | 71km/h | 7236m | -5.1m/s | -21.8°C | 9.0% | 414.3hPa | 2.6V | 00:00:00 | 02:29:42 | 00:00:00 | |
| OE5DRO-10 | 2026-09-01 17:39:58 | 47.87360 | 12.34698 | 101° | 71km/h | 7251m | -4.9m/s | -21.9°C | 9.3% | 413.5hPa | 2.6V | 00:00:00 | 00:00:00 | 00:00:00 | |
| DO3MHA-12 | 2026-09-01 17:39:57 | 47.87363 | 12.34672 | 101° | 71km/h | 7256m | -5.1m/s | -21.9°C | 9.4% | 413.2hPa | 2.6V | 00:00:00 | 02:29:38 | 00:00:00 | |
| BAUMI2-15 | 2026-09-01 17:39:56 | 47.87366 | 12.34646 | 101° | 71km/h | 7261m | -5.0m/s | -22.0°C | 9.5% | 412.9hPa | 2.6V | 00:00:00 | 02:29:37 | 00:00:00 | |
| DO3MHA-11 | 2026-09-01 17:39:54 | 47.87373 | 12.34593 | 101° | 71km/h | 7271m | -5.0m/s | -22.1°C | 9.6% | 412.4hPa | 2.6V | 00:00:00 | 02:29:35 | 00:00:00 | |
| OE5WHR-10 | 2026-09-01 17:39:52 | 47.87379 | 12.34541 | 101° | 71km/h | 7281m | -5.0m/s | -22.2°C | 10.2% | 411.8hPa | 2.6V | 00:00:00 | 02:29:33 | 00:00:00 | |
| OE5MMP-10 | 2026-09-01 17:39:51 | 47.87382 | 12.34515 | 101° | 71km/h | 7286m | -5.2m/s | -22.2°C | 10.3% | 411.5hPa | 2.6V | 00:00:00 | 02:29:32 | 00:00:00 | |
| DO3MHA-12 | 2026-09-01 17:39:47 | 47.87395 | 12.34410 | 101° | 71km/h | 7307m | -5.0m/s | -22.3°C | 10.3% | 410.4hPa | 2.6V | 00:00:00 | 02:29:28 | 00:00:00 | |
| BAUMI2-15 | 2026-09-01 17:39:46 | 47.87398 | 12.34384 | 101° | 71km/h | 7312m | -5.1m/s | -22.4°C | 10.4% | 410.1hPa | 2.5V | 00:00:00 | 02:29:27 | 00:00:00 | |
| DG1MFX-10 | 2026-09-01 17:39:45 | 47.87398 | 12.34383 | 101° | 71km/h | 7312m | -5.1m/s | -22.4°C | 9.4% | 410.2hPa | 2.5V | 08:00:00 | 00:00:00 | 00:00:00 | |
| DO3MHA-11 | 2026-09-01 17:39:44 | 47.87405 | 12.34330 | 101° | 71km/h | 7322m | -5.0m/s | -22.4°C | 10.5% | 409.5hPa | 2.5V | 00:00:00 | 02:29:25 | 00:00:00 | |
| OE5DXL-15 | 2026-09-01 17:39:42 | 47.87411 | 12.34278 | 101° | 73km/h | 7332m | -5.2m/s | -22.5°C | 10.5% | 408.9hPa | 2.5V | 00:00:00 | 00:00:00 | 00:00:00 | |
| OE5MMP-10 | 2026-09-01 17:39:41 | 47.87414 | 12.34251 | 100° | 71km/h | 7337m | -5.1m/s | -22.5°C | 10.5% | 408.7hPa | 2.6V | 00:00:00 | 02:29:22 | 00:00:00 | |
| DB0NH | 2026-09-01 17:39:40 | 47.87417 | 12.34225 | 100° | 73km/h | 7342m | -5.2m/s | -22.6°C | 10.5% | 408.4hPa | 2.6V | 00:00:00 | 02:29:21 | 00:00:00 | |
| OE5DRO-10 | 2026-09-01 17:39:39 | 47.87420 | 12.34199 | 100° | 73km/h | 7348m | -5.3m/s | -22.6°C | 10.5% | 408.1hPa | 2.6V | 00:00:00 | 00:00:00 | 00:00:00 | |
| DO3MHA-12 | 2026-09-01 17:39:37 | 47.87426 | 12.34146 | 99° | 73km/h | 7358m | -5.1m/s | -22.7°C | 10.6% | 407.6hPa | 2.5V | 00:00:00 | 02:29:18 | 00:00:00 | |
| BAUMI2-15 | 2026-09-01 17:39:36 | 47.87429 | 12.34119 | 99° | 73km/h | 7363m | -5.0m/s | -22.7°C | 10.6% | 407.3hPa | 2.5V | 00:00:00 | 02:29:17 | 00:00:00 | |
| DO3MHA-11 | 2026-09-01 17:39:34 | 47.87434 | 12.34066 | 99° | 73km/h | 7373m | -5.1m/s | -22.8°C | 10.5% | 406.7hPa | 2.6V | 08:00:00 | 02:29:15 | 00:00:00 | |
| NBG1-10 | 2026-09-01 17:39:33 | 47.87437 | 12.34039 | 99° | 75km/h | 7379m | -5.1m/s | -22.9°C | 10.5% | 406.4hPa | 2.5V | 00:00:00 | 02:29:14 | 00:00:00 | |
| OE5MMP-10 | 2026-09-01 17:39:31 | 47.87442 | 12.33984 | 99° | 73km/h | 7389m | -5.2m/s | -22.9°C | 10.5% | 405.8hPa | 2.5V | 00:00:00 | 02:29:12 | 00:00:00 | |
| OE5WHR-10 | 2026-09-01 17:39:29 | 47.87448 | 12.33930 | 100° | 75km/h | 7399m | -5.1m/s | -23.0°C | 10.5% | 405.2hPa | 2.5V | 00:00:00 | 00:00:00 | 00:00:00 | |
| DO3MHA-12 | 2026-09-01 17:39:27 | 47.87454 | 12.33876 | 99° | 73km/h | 7410m | -5.2m/s | -23.1°C | 10.5% | 404.6hPa | 2.6V | 00:00:00 | 02:29:08 | 00:00:00 | |
| BAUMI2-15 | 2026-09-01 17:39:26 | 47.87457 | 12.33849 | 99° | 73km/h | 7415m | -5.2m/s | -23.1°C | 10.5% | 404.4hPa | 2.6V | 00:00:00 | 02:29:07 | 00:00:00 | |
| DO3MHA-11 | 2026-09-01 17:39:24 | 47.87462 | 12.33795 | 99° | 75km/h | 7425m | -5.2m/s | -23.2°C | 10.5% | 403.8hPa | 2.6V | 00:00:00 | 02:29:05 | 00:00:00 | |
| BAUMI2-15 | 2026-09-01 17:39:21 | 47.87471 | 12.33713 | 99° | 75km/h | 7441m | -5.2m/s | -23.3°C | 10.1% | 403.0hPa | 2.6V | 00:00:00 | 02:29:02 | 00:00:00 | |
| OE5DRO-10 | 2026-09-01 17:39:20 | 47.87473 | 12.33685 | 99° | 77km/h | 7446m | -5.3m/s | -23.3°C | 10.1% | 402.7hPa | 2.6V | 00:00:00 | 00:00:00 | 00:00:00 | |
| DO3MHA-12 | 2026-09-01 17:39:17 | 47.87482 | 12.33602 | 99° | 77km/h | 7462m | -5.2m/s | -23.5°C | 10.2% | 401.8hPa | 2.6V | 00:00:00 | 02:28:58 | 00:00:00 | |
| BAUMI2-15 | 2026-09-01 17:39:16 | 47.87485 | 12.33574 | 99° | 75km/h | 7467m | -5.2m/s | -23.5°C | 10.3% | 401.5hPa | 2.6V | 00:00:00 | 02:28:57 | 00:00:00 | |
| DO3MHA-11 | 2026-09-01 17:39:14 | 47.87490 | 12.33518 | 99° | 77km/h | 7478m | -5.3m/s | -23.6°C | 10.4% | 400.9hPa | 2.6V | 00:00:00 | 02:28:55 | 00:00:00 | |
| OE5DXL-15 | 2026-09-01 17:39:12 | 47.87495 | 12.33462 | 98° | 78km/h | 7489m | -5.2m/s | -23.7°C | 10.5% | 400.4hPa | 2.6V | 00:00:00 | 00:00:00 | 00:00:00 | |
| BAUMI2-15 | 2026-09-01 17:39:11 | 47.87498 | 12.33433 | 99° | 77km/h | 7494m | -5.2m/s | -23.7°C | 10.5% | 400.0hPa | 2.6V | 00:00:00 | 02:28:52 | 00:00:00 | |
| OE5WHR-10 | 2026-09-01 17:39:08 | 47.87506 | 12.33347 | 99° | 78km/h | 7510m | -5.3m/s | -23.9°C | 10.5% | 399.2hPa | 2.6V | 00:00:00 | 00:00:00 | 00:00:00 | |
| DO3MHA-12 | 2026-09-01 17:39:07 | 47.87509 | 12.33319 | 99° | 78km/h | 7515m | -5.4m/s | -23.9°C | 10.5% | 398.9hPa | 2.6V | 00:00:00 | 02:28:48 | 00:00:00 | |
| BAUMI2-15 | 2026-09-01 17:39:06 | 47.87512 | 12.33290 | 99° | 77km/h | 7520m | -5.4m/s | -23.9°C | 10.5% | 398.6hPa | 2.6V | 00:00:00 | 02:28:47 | 00:00:00 | |
| DO3MHA-11 | 2026-09-01 17:39:04 | 47.87517 | 12.33233 | 98° | 78km/h | 7531m | -5.3m/s | -24.0°C | 10.5% | 398.0hPa | 2.5V | 00:00:00 | 02:28:45 | 00:00:00 | |
| DG1MFX-10 | 2026-09-01 17:39:03 | 47.87518 | 12.33233 | 98° | 77km/h | 7531m | -5.4m/s | -24.1°C | 9.4% | 398.1hPa | 2.5V | 08:00:00 | 00:00:00 | 00:00:00 | |
| DL6DJ-15 | 2026-09-01 17:38:50 | 47.87551 | 12.32823 | 95° | 78km/h | 7607m | -5.4m/s | -24.6°C | 8.7% | 394.0hPa | 2.5V | 00:00:00 | 00:00:00 | 00:00:00 | |
| DO3MHA-12 | 2026-09-01 17:38:47 | 47.87557 | 12.32733 | 96° | 80km/h | 7623m | -5.5m/s | -24.7°C | 9.3% | 393.0hPa | 2.5V | 00:00:00 | 02:28:28 | 00:00:00 | |
| BAUMI2-15 | 2026-09-01 17:38:46 | 47.87559 | 12.32703 | 96° | 80km/h | 7629m | -5.3m/s | -24.7°C | 9.2% | 392.8hPa | 2.6V | 00:00:00 | 02:28:27 | 00:00:00 | |
| DO3MHA-11 | 2026-09-01 17:38:44 | 47.87563 | 12.32643 | 96° | 80km/h | 7640m | -5.4m/s | -24.8°C | 9.3% | 392.2hPa | 2.6V | 00:00:00 | 02:28:25 | 00:00:00 | |
| OE3JTB-15 | 2026-09-01 17:38:43 | 47.87565 | 12.32613 | 96° | 80km/h | 7645m | -5.4m/s | -24.8°C | 9.3% | 391.9hPa | 2.6V | 00:00:00 | 02:28:24 | 00:00:00 | |
| OE5DXL-15 | 2026-09-01 17:38:42 | 47.87567 | 12.32583 | 96° | 80km/h | 7650m | -5.4m/s | -24.9°C | 9.2% | 391.6hPa | 2.6V | 00:00:00 | 00:00:00 | 00:00:00 | |
| OE5MMP-10 | 2026-09-01 17:38:41 | 47.87569 | 12.32553 | 96° | 80km/h | 7656m | -5.5m/s | -24.9°C | 9.1% | 391.3hPa | 2.6V | 00:00:00 | 02:28:22 | 00:00:00 | |
| DB0NH | 2026-09-01 17:38:40 | 47.87571 | 12.32523 | 96° | 80km/h | 7661m | -5.3m/s | -25.0°C | 9.1% | 391.0hPa | 2.6V | 00:00:00 | 02:28:21 | 00:00:00 | |
| DO3MHA-12 | 2026-09-01 17:38:37 | 47.87576 | 12.32432 | 96° | 80km/h | 7678m | -5.4m/s | -25.1°C | 9.3% | 390.1hPa | 2.6V | 00:00:00 | 02:28:18 | 00:00:00 | |
| BAUMI2-15 | 2026-09-01 17:38:36 | 47.87578 | 12.32401 | 96° | 80km/h | 7683m | -5.4m/s | -25.1°C | 9.4% | 389.8hPa | 2.6V | 00:00:00 | 02:28:17 | 00:00:00 | |
| DO3MHA-11 | 2026-09-01 17:38:34 | 47.87582 | 12.32341 | 96° | 80km/h | 7694m | -5.4m/s | -25.2°C | 9.7% | 389.2hPa | 2.5V | 00:00:00 | 02:28:15 | 00:00:00 | |
| BAUMI2-15 | 2026-09-01 17:38:31 | 47.87588 | 12.32250 | 96° | 80km/h | 7710m | -5.4m/s | -25.4°C | 11.4% | 388.4hPa | 2.5V | 00:00:00 | 02:28:12 | 00:00:00 | |
| DO3MHA-12 | 2026-09-01 17:38:27 | 47.87595 | 12.32129 | 95° | 80km/h | 7732m | -5.4m/s | -25.6°C | 13.7% | 387.1hPa | 2.5V | 00:00:00 | 02:28:08 | 00:00:00 | |
| OE5WHR-10 | 2026-09-01 17:38:26 | 47.87597 | 12.32099 | 95° | 78km/h | 7738m | -5.5m/s | -25.7°C | 14.0% | 386.8hPa | 2.5V | 08:01:00 | 00:00:00 | 00:00:00 | |
| DO3MHA-11 | 2026-09-01 17:38:24 | 47.87599 | 12.32039 | 95° | 78km/h | 7749m | -5.5m/s | -25.8°C | 14.6% | 386.4hPa | 2.6V | 00:00:00 | 02:28:05 | 00:00:00 | |
| OE5DRO-10 | 2026-09-01 17:38:23 | 47.87601 | 12.32009 | 94° | 78km/h | 7755m | -5.4m/s | -25.8°C | 14.8% | 386.1hPa | 2.6V | 00:00:00 | 00:00:00 | 00:00:00 | |
| DG1MFX-10 | 2026-09-01 17:38:22 | 47.87601 | 12.32009 | 95° | 80km/h | 7755m | -5.5m/s | -25.9°C | 13.3% | 386.1hPa | 2.6V | 08:01:00 | 00:00:00 | 00:00:00 | |
| OE5MMP-10 | 2026-09-01 17:38:21 | 47.87604 | 12.31949 | 94° | 78km/h | 7766m | -5.5m/s | -25.9°C | 12.3% | 385.4hPa | 2.6V | 00:00:00 | 02:28:02 | 00:00:00 | |
| DL6DJ-15 | 2026-09-01 17:38:19 | 47.87606 | 12.31890 | 93° | 78km/h | 7777m | -5.5m/s | -26.1°C | 8.9% | 384.9hPa | 2.5V | 00:00:00 | 00:00:00 | 00:00:00 | |
| DO3MHA-12 | 2026-09-01 17:38:17 | 47.87608 | 12.31831 | 93° | 78km/h | 7788m | -5.6m/s | -26.1°C | 10.3% | 384.2hPa | 2.5V | 08:01:00 | 02:27:58 | 00:00:00 | |
| BAUMI2-15 | 2026-09-01 17:38:16 | 47.87609 | 12.31801 | 93° | 78km/h | 7794m | -5.6m/s | -26.2°C | 10.5% | 383.9hPa | 2.5V | 00:00:00 | 02:27:57 | 00:00:00 | |
| DG1MJG | 2026-09-01 17:38:15 | 47.87609 | 12.31801 | 94° | 78km/h | 7794m | -5.6m/s | -26.2°C | 9.3% | 384.0hPa | 2.5V | 08:01:00 | 00:00:00 | 00:00:00 | |
| DO3MHA-11 | 2026-09-01 17:38:14 | 47.87611 | 12.31742 | 93° | 78km/h | 7805m | -5.5m/s | -26.2°C | 11.6% | 383.3hPa | 2.5V | 00:00:00 | 02:27:55 | 00:00:00 | |
| OE5DXL-15 | 2026-09-01 17:38:12 | 47.87612 | 12.31682 | 92° | 78km/h | 7816m | -5.5m/s | -26.3°C | 13.1% | 382.7hPa | 2.5V | 00:00:00 | 00:00:00 | 00:00:00 | |
| OE5MMP-10 | 2026-09-01 17:38:11 | 47.87613 | 12.31652 | 92° | 78km/h | 7821m | -5.6m/s | -26.3°C | 13.9% | 382.4hPa | 2.6V | 00:00:00 | 02:27:52 | 00:00:00 | |
| DB0NH | 2026-09-01 17:38:10 | 47.87614 | 12.31623 | 92° | 77km/h | 7827m | -5.7m/s | -26.3°C | 14.8% | 382.1hPa | 2.6V | 00:00:00 | 02:27:51 | 00:00:00 | |
| DO3MHA-12 | 2026-09-01 17:38:07 | 47.87615 | 12.31533 | 92° | 78km/h | 7844m | -5.6m/s | -26.4°C | 17.0% | 381.3hPa | 2.5V | 00:00:00 | 02:27:48 | 00:00:00 | |
| BAUMI2-15 | 2026-09-01 17:38:06 | 47.87616 | 12.31504 | 92° | 78km/h | 7850m | -5.6m/s | -26.5°C | 17.6% | 381.0hPa | 2.5V | 08:01:00 | 02:27:47 | 00:00:00 | |
| OE5WHR-10 | 2026-09-01 17:38:05 | 47.87616 | 12.31474 | 92° | 77km/h | 7855m | -5.5m/s | -26.5°C | 18.2% | 380.7hPa | 2.6V | 00:00:00 | 00:00:00 | 00:00:00 | |
| DO3MHA-11 | 2026-09-01 17:38:04 | 47.87617 | 12.31445 | 92° | 78km/h | 7861m | -5.7m/s | -26.6°C | 18.6% | 380.4hPa | 2.6V | 08:01:00 | 02:27:45 | 00:00:00 | |
| OE5MMP-10 | 2026-09-01 17:38:01 | 47.87618 | 12.31357 | 91° | 77km/h | 7878m | -5.6m/s | -26.7°C | 20.9% | 379.5hPa | 2.5V | 00:00:00 | 02:27:42 | 00:00:00 | |
| DO3MHA-12 | 2026-09-01 17:37:57 | 47.87619 | 12.31240 | 92° | 77km/h | 7901m | -5.5m/s | -26.9°C | 23.0% | 378.3hPa | 2.5V | 00:00:00 | 02:27:38 | 00:00:00 | |
| DO3MHA-11 | 2026-09-01 17:37:54 | 47.87621 | 12.31153 | 93° | 77km/h | 7917m | -5.6m/s | -27.0°C | 21.9% | 377.4hPa | 2.5V | 00:00:00 | 02:27:35 | 00:00:00 | |
| OE5MMP-10 | 2026-09-01 17:37:51 | 47.87623 | 12.31066 | 92° | 77km/h | 7935m | -5.6m/s | -27.1°C | 17.4% | 376.5hPa | 2.5V | 08:01:00 | 02:27:32 | 00:00:00 | |
| NBG1-10 | 2026-09-01 17:37:48 | 47.87625 | 12.30979 | 93° | 77km/h | 7952m | -5.8m/s | -27.2°C | 16.7% | 375.5hPa | 2.6V | 00:00:00 | 02:27:29 | 00:00:00 | |
| DO3MHA-12 | 2026-09-01 17:37:47 | 47.87626 | 12.30950 | 93° | 77km/h | 7957m | -5.6m/s | -27.3°C | 16.6% | 375.3hPa | 2.6V | 00:00:00 | 02:27:28 | 00:00:00 | |
| OE5DRO-10 | 2026-09-01 17:37:45 | 47.87627 | 12.30892 | 94° | 77km/h | 7969m | -5.7m/s | -27.4°C | 16.5% | 374.7hPa | 2.5V | 00:00:00 | 00:00:00 | 00:00:00 | |
| DO3MHA-11 | 2026-09-01 17:37:44 | 47.87629 | 12.30863 | 94° | 77km/h | 7974m | -5.6m/s | -27.4°C | 16.3% | 374.4hPa | 2.6V | 00:00:00 | 02:27:25 | 00:00:00 | |
| OE5DXL-15 | 2026-09-01 17:37:42 | 47.87631 | 12.30805 | 94° | 77km/h | 7986m | -5.7m/s | -27.5°C | 16.3% | 373.8hPa | 2.6V | 00:00:00 | 00:00:00 | 00:00:00 | |
| OE5MMP-10 | 2026-09-01 17:37:41 | 47.87632 | 12.30776 | 94° | 77km/h | 7992m | -5.8m/s | -27.6°C | 16.3% | 373.6hPa | 2.6V | 00:00:00 | 02:27:22 | 00:00:00 | |
| DG1MFX-10 | 2026-09-01 17:37:40 | 47.87632 | 12.30776 | 95° | 78km/h | 7992m | -5.8m/s | -27.6°C | 14.6% | 373.6hPa | 2.6V | 08:02:00 | 00:00:00 | 00:00:00 | |
| DB0NH | 2026-09-01 17:37:38 | 47.87636 | 12.30688 | 95° | 77km/h | 8008m | -5.6m/s | -27.7°C | 16.1% | 372.6hPa | 2.6V | 00:00:00 | 02:27:19 | 00:00:00 | |
| DO3MHA-12 | 2026-09-01 17:37:37 | 47.87638 | 12.30659 | 95° | 77km/h | 8014m | -5.5m/s | -27.7°C | 16.1% | 372.3hPa | 2.6V | 00:00:00 | 02:27:18 | 00:00:00 | |
| DO3MHA-11 | 2026-09-01 17:37:34 | 47.87643 | 12.30572 | 96° | 77km/h | 8031m | -5.6m/s | -27.9°C | 16.1% | 371.4hPa | 2.6V | 00:00:00 | 02:27:15 | 00:00:00 | |
| OE5MMP-10 | 2026-09-01 17:37:31 | 47.87648 | 12.30486 | 96° | 77km/h | 8048m | -5.7m/s | -28.0°C | 15.9% | 370.5hPa | 2.5V | 00:00:00 | 02:27:12 | 00:00:00 | |
| DO3MHA-12 | 2026-09-01 17:37:27 | 47.87656 | 12.30371 | 96° | 77km/h | 8071m | -5.6m/s | -28.2°C | 14.6% | 369.4hPa | 2.5V | 00:00:00 | 02:27:08 | 00:00:00 | |
| OE5DRO-10 | 2026-09-01 17:37:26 | 47.87658 | 12.30342 | 96° | 77km/h | 8077m | -5.7m/s | -28.3°C | 14.3% | 369.1hPa | 2.5V | 00:00:00 | 00:00:00 | 00:00:00 | |
| DO3MHA-11 | 2026-09-01 17:37:24 | 47.87662 | 12.30285 | 96° | 77km/h | 8088m | -5.5m/s | -28.4°C | 13.2% | 368.4hPa | 2.5V | 00:00:00 | 02:27:05 | 00:00:00 | |
| OE5WHR-10 | 2026-09-01 17:37:23 | 47.87664 | 12.30256 | 96° | 77km/h | 8094m | -5.8m/s | -28.4°C | 12.6% | 368.2hPa | 2.5V | 00:00:00 | 00:00:00 | 00:00:00 | |
| OE5HKT-10 | 2026-09-01 17:37:22 | 47.87666 | 12.30227 | 96° | 77km/h | 8100m | -5.7m/s | -28.5°C | 11.6% | 367.9hPa | 2.6V | 00:00:00 | 00:00:00 | 00:00:00 | |
| OE5MMP-10 | 2026-09-01 17:37:21 | 47.87668 | 12.30199 | 96° | 77km/h | 8106m | -5.7m/s | -28.5°C | 10.7% | 367.6hPa | 2.6V | 00:00:00 | 02:27:02 | 00:00:00 | |
| DG1MFX-10 | 2026-09-01 17:37:20 | 47.87667 | 12.30199 | 97° | 77km/h | 8106m | -5.8m/s | -28.5°C | 9.3% | 367.7hPa | 2.6V | 08:03:00 | 00:00:00 | 00:00:00 | |
| DL6DJ-15 | 2026-09-01 17:37:17 | 47.87675 | 12.30085 | 95° | 75km/h | 8129m | -5.8m/s | -28.7°C | 9.4% | 366.4hPa | 2.6V | 00:00:00 | 00:00:00 | 00:00:00 | |
| DO3MHA-12 | 2026-09-01 17:37:16 | 47.87677 | 12.30056 | 96° | 77km/h | 8135m | -5.8m/s | -28.7°C | 11.0% | 366.1hPa | 2.6V | 00:00:00 | 02:26:57 | 00:00:00 | |
| DO3MHA-11 | 2026-09-01 17:37:14 | 47.87681 | 12.29999 | 96° | 77km/h | 8146m | -5.9m/s | -28.8°C | 11.8% | 365.6hPa | 2.5V | 00:00:00 | 02:26:55 | 00:00:00 | |
| OE3JTB-15 | 2026-09-01 17:37:13 | 47.87683 | 12.29971 | 96° | 77km/h | 8152m | -5.8m/s | -28.8°C | 12.0% | 365.2hPa | 2.5V | 00:00:00 | 02:26:54 | 00:00:00 | |
| OE5DXL-15 | 2026-09-01 17:37:12 | 47.87685 | 12.29942 | 96° | 77km/h | 8158m | -5.8m/s | -28.9°C | 12.0% | 365.0hPa | 2.5V | 00:00:00 | 00:00:00 | 00:00:00 | |
| OE5MMP-10 | 2026-09-01 17:37:11 | 47.87687 | 12.29914 | 95° | 77km/h | 8164m | -5.7m/s | -28.9°C | 12.3% | 364.6hPa | 2.5V | 00:00:00 | 02:26:52 | 00:00:00 | |
| DB0NH | 2026-09-01 17:37:08 | 47.87692 | 12.29828 | 95° | 77km/h | 8181m | -5.8m/s | -29.1°C | 13.5% | 363.8hPa | 2.5V | 00:00:00 | 02:26:49 | 00:00:00 | |
| OE5DRO-10 | 2026-09-01 17:37:07 | 47.87693 | 12.29799 | 95° | 77km/h | 8187m | -5.6m/s | -29.1°C | 13.7% | 363.5hPa | 2.5V | 00:00:00 | 00:00:00 | 00:00:00 | |
| DO3MHA-12 | 2026-09-01 17:37:05 | 47.87696 | 12.29742 | 95° | 77km/h | 8198m | -5.7m/s | -29.2°C | 14.3% | 362.9hPa | 2.5V | 00:00:00 | 02:26:46 | 00:00:00 | |
| DO3MHA-11 | 2026-09-01 17:37:04 | 47.87698 | 12.29713 | 95° | 77km/h | 8204m | -5.8m/s | -29.3°C | 14.5% | 362.6hPa | 2.5V | 00:00:00 | 02:26:45 | 00:00:00 | |
| DL6DJ-15 | 2026-09-01 17:36:46 | 47.87732 | 12.29196 | 95° | 77km/h | 8308m | -5.8m/s | -30.2°C | 18.4% | 357.4hPa | 2.6V | 00:00:00 | 00:00:00 | 00:00:00 | |
| OE5DXL-15 | 2026-09-01 17:36:42 | 47.87739 | 12.29080 | 96° | 77km/h | 8332m | -5.9m/s | -30.4°C | 21.2% | 356.2hPa | 2.6V | 08:02:00 | 00:00:00 | 00:00:00 | |
| OE5WHR-10 | 2026-09-01 17:36:41 | 47.87741 | 12.29052 | 96° | 77km/h | 8337m | -5.9m/s | -30.5°C | 21.5% | 355.9hPa | 2.6V | 00:00:00 | 02:26:22 | 00:00:00 | |
| OE5HKT-10 | 2026-09-01 17:36:40 | 47.87743 | 12.29023 | 96° | 77km/h | 8343m | -5.8m/s | -30.5°C | 22.0% | 355.6hPa | 2.6V | 08:02:00 | 00:00:00 | 00:00:00 | |
| DO3MHA-12 | 2026-09-01 17:36:39 | 47.87744 | 12.28994 | 96° | 77km/h | 8349m | -5.8m/s | -30.6°C | 22.2% | 355.2hPa | 2.5V | 08:02:00 | 02:26:20 | 00:00:00 | |
| DB0NH | 2026-09-01 17:36:38 | 47.87746 | 12.28966 | 96° | 106km/h | 8355m | -5.6m/s | -30.6°C | 22.4% | 355.0hPa | 2.5V | 08:02:00 | 02:26:19 | 00:00:00 | |
| DO3MHA-11 | 2026-09-01 17:36:34 | 47.87752 | 12.28850 | 94° | 77km/h | 8378m | -5.7m/s | -30.8°C | 22.6% | 353.8hPa | 2.6V | 08:03:00 | 02:26:15 | 00:00:00 | |
| IN3HCDX | 2026-09-01 17:36:32 | 47.87754 | 12.28821 | 95° | 77km/h | 8384m | -5.8m/s | -30.9°C | 20.3% | 353.6hPa | 2.5V | 00:00:00 | 00:00:00 | 00:00:00 | |
| OE3JTB-15 | 2026-09-01 17:36:31 | 47.87756 | 12.28764 | 94° | 80km/h | 8395m | -5.7m/s | -30.9°C | 22.8% | 352.9hPa | 2.5V | 00:00:00 | 00:00:00 | 00:00:00 | |
| OE5DRO-10 | 2026-09-01 17:36:29 | 47.87758 | 12.28706 | 94° | 78km/h | 8407m | -5.9m/s | -31.0°C | 23.1% | 352.4hPa | 2.6V | 00:00:00 | 00:00:00 | 00:00:00 | |
| DO3MHA-12 | 2026-09-01 17:36:25 | 47.87762 | 12.28589 | 93° | 78km/h | 8430m | -5.9m/s | -31.2°C | 24.4% | 351.3hPa | 2.6V | 00:00:00 | 02:26:06 | 00:00:00 | |
| DO3MHA-11 | 2026-09-01 17:36:24 | 47.87763 | 12.28560 | 93° | 78km/h | 8436m | -5.8m/s | -31.2°C | 25.2% | 351.0hPa | 2.6V | 00:00:00 | 02:26:05 | 00:00:00 | |
| OE5MMP-10 | 2026-09-01 17:36:21 | 47.87766 | 12.28473 | 92° | 78km/h | 8454m | -5.9m/s | -31.4°C | 26.8% | 350.0hPa | 2.6V | 08:03:00 | 02:26:02 | 00:00:00 | |
| OE5WHR-10 | 2026-09-01 17:36:20 | 47.87766 | 12.28444 | 92° | 78km/h | 8460m | -5.9m/s | -31.4°C | 27.5% | 349.8hPa | 2.5V | 00:00:00 | 00:00:00 | 00:00:00 | |
| OE5HKT-10 | 2026-09-01 17:36:19 | 47.87767 | 12.28415 | 92° | 78km/h | 8466m | -5.9m/s | -31.5°C | 28.2% | 349.5hPa | 2.5V | 00:00:00 | 00:00:00 | 00:00:00 | |
| DG1MFX-10 | 2026-09-01 17:36:18 | 47.87767 | 12.28415 | 92° | 78km/h | 8466m | -5.9m/s | -31.5°C | 25.4% | 349.5hPa | 2.5V | 08:03:00 | 00:00:00 | 00:00:00 | |
| DL6DJ-15 | 2026-09-01 17:36:15 | 47.87768 | 12.28297 | 91° | 77km/h | 8489m | -5.9m/s | -31.7°C | 27.0% | 348.3hPa | 2.5V | 00:00:00 | 00:00:00 | 00:00:00 | |
| OE5DXL-15 | 2026-09-01 17:36:12 | 47.87770 | 12.28209 | 92° | 80km/h | 8506m | -5.9m/s | -31.8°C | 30.7% | 347.4hPa | 2.5V | 00:00:00 | 00:00:00 | 00:00:00 | |
| DO3MHA-11 | 2026-09-01 17:36:11 | 47.87770 | 12.28180 | 92° | 78km/h | 8512m | -5.8m/s | -31.9°C | 31.1% | 347.2hPa | 2.5V | 00:00:00 | 02:25:52 | 00:00:00 | |
| OE5DRO-10 | 2026-09-01 17:36:10 | 47.87771 | 12.28150 | 92° | 78km/h | 8518m | -5.8m/s | -32.0°C | 31.5% | 346.9hPa | 2.5V | 00:00:00 | 00:00:00 | 00:00:00 | |
| IN3HCDX | 2026-09-01 17:36:09 | 47.87770 | 12.28150 | 92° | 78km/h | 8518m | -5.9m/s | -32.0°C | 28.4% | 346.9hPa | 2.5V | 08:03:00 | 00:00:00 | 00:00:00 | |
| NBG1-10 | 2026-09-01 17:36:06 | 47.87772 | 12.28033 | 91° | 82km/h | 8541m | -5.7m/s | -32.2°C | 35.2% | 345.8hPa | 2.5V | 00:00:00 | 02:25:47 | 00:00:00 | |
| DO3MHA-12 | 2026-09-01 17:36:05 | 47.87772 | 12.28003 | 91° | 78km/h | 8547m | -5.9m/s | -32.2°C | 36.9% | 345.5hPa | 2.5V | 00:00:00 | 02:25:46 | 00:00:00 | |
| PG1ADW-2 | 2026-09-01 17:36:04 | 47.87772 | 12.27974 | 91° | 80km/h | 8553m | -5.8m/s | -32.3°C | 37.6% | 345.2hPa | 2.5V | 00:00:00 | 00:00:00 | 00:00:00 | |
| DO3MHA-11 | 2026-09-01 17:36:01 | 47.87773 | 12.27885 | 91° | 78km/h | 8571m | -5.7m/s | -32.5°C | 39.7% | 344.3hPa | 2.5V | 00:00:00 | 02:25:42 | 00:00:00 | |
| OE5WHR-10 | 2026-09-01 17:35:59 | 47.87773 | 12.27826 | 92° | 82km/h | 8583m | -5.9m/s | -32.6°C | 40.3% | 343.8hPa | 2.5V | 00:00:00 | 00:00:00 | 00:00:00 | |
| OE5HKT-10 | 2026-09-01 17:35:58 | 47.87773 | 12.27796 | 91° | 82km/h | 8588m | -5.9m/s | -32.6°C | 40.7% | 343.5hPa | 2.5V | 00:00:00 | 02:25:39 | 00:00:00 | |
| DG1MFX-10 | 2026-09-01 17:35:57 | 47.87773 | 12.27796 | 92° | 78km/h | 8588m | -6.0m/s | -32.7°C | 37.0% | 343.6hPa | 2.5V | 08:03:00 | 00:00:00 | 00:00:00 | |
| BAUMI2-15 | 2026-09-01 17:35:56 | 47.87774 | 12.27737 | 91° | 80km/h | 8600m | -5.9m/s | -32.7°C | 41.3% | 342.9hPa | 2.5V | 00:00:00 | 02:25:37 | 00:00:00 | |
| DO3MHA-12 | 2026-09-01 17:35:55 | 47.87775 | 12.27707 | 91° | 80km/h | 8606m | -5.8m/s | -32.8°C | 41.8% | 342.6hPa | 2.5V | 00:00:00 | 02:25:36 | 00:00:00 | |
| DO3MHA-11 | 2026-09-01 17:35:51 | 47.87776 | 12.27587 | 91° | 82km/h | 8629m | -5.9m/s | -33.0°C | 44.3% | 341.5hPa | 2.6V | 00:00:00 | 02:25:32 | 00:00:00 | |
| IN3HCDX | 2026-09-01 17:35:48 | 47.87776 | 12.27526 | 91° | 82km/h | 8641m | -5.9m/s | -33.2°C | 42.4% | 340.9hPa | 2.6V | 08:03:00 | 00:00:00 | 00:00:00 | |
| BAUMI2-15 | 2026-09-01 17:35:46 | 47.87776 | 12.27433 | 90° | 84km/h | 8659m | -5.8m/s | -33.3°C | 51.6% | 340.1hPa | 2.6V | 00:00:00 | 02:25:27 | 00:00:00 | |
| DO3MHA-12 | 2026-09-01 17:35:45 | 47.87776 | 12.27402 | 91° | 84km/h | 8665m | -5.8m/s | -33.3°C | 53.0% | 339.8hPa | 2.6V | 00:00:00 | 02:25:26 | 00:00:00 | |
| DL6DJ-15 | 2026-09-01 17:35:44 | 47.87776 | 12.27371 | 89° | 82km/h | 8670m | -5.9m/s | -33.4°C | 49.2% | 339.6hPa | 2.6V | 00:00:00 | 00:00:00 | 00:00:00 | |
| OE5DXL-15 | 2026-09-01 17:35:42 | 47.87776 | 12.27308 | 90° | 88km/h | 8682m | -5.8m/s | -33.5°C | 56.4% | 338.9hPa | 2.6V | 00:00:00 | 00:00:00 | 00:00:00 | |
| DO3MHA-11 | 2026-09-01 17:35:41 | 47.87776 | 12.27276 | 90° | 84km/h | 8688m | -5.7m/s | -33.6°C | 57.6% | 338.6hPa | 2.6V | 00:00:00 | 02:25:22 | 00:00:00 | |
| OE5WHR-10 | 2026-09-01 17:35:38 | 47.87775 | 12.27182 | 90° | 88km/h | 8705m | -5.8m/s | -33.7°C | 62.1% | 337.8hPa | 2.6V | 00:00:00 | 02:25:19 | 00:00:00 | |
| OE5HKT-10 | 2026-09-01 17:35:37 | 47.87775 | 12.27167 | 90° | 88km/h | 8711m | -5.8m/s | -33.7°C | 64.1% | 337.5hPa | 2.6V | 00:00:00 | 00:00:00 | 00:00:00 | |
| BAUMI2-15 | 2026-09-01 17:35:36 | 47.87775 | 12.27118 | 89° | 86km/h | 8717m | -5.8m/s | -33.7°C | 65.2% | 337.3hPa | 2.6V | 00:00:00 | 02:25:17 | 00:00:00 | |
| DO3MHA-12 | 2026-09-01 17:35:35 | 47.87774 | 12.27086 | 89° | 86km/h | 8723m | -5.8m/s | -33.8°C | 65.8% | 336.9hPa | 2.5V | 00:00:00 | 02:25:16 | 00:00:00 | |
| OE3JTB-15 | 2026-09-01 17:35:34 | 47.87773 | 12.27054 | 89° | 93km/h | 8729m | -5.8m/s | -33.8°C | 66.0% | 336.7hPa | 2.5V | 00:00:00 | 00:00:00 | 00:00:00 | |
| NBG1-10 | 2026-09-01 17:35:33 | 47.87773 | 12.27022 | 89° | 91km/h | 8735m | -5.8m/s | -33.8°C | 65.8% | 336.4hPa | 2.5V | 00:00:00 | 02:25:14 | 00:00:00 | |
| OE5DRO-10 | 2026-09-01 17:35:32 | 47.87773 | 12.26990 | 89° | 89km/h | 8740m | -5.7m/s | -33.9°C | 65.6% | 336.1hPa | 2.5V | 00:00:00 | 00:00:00 | 00:00:00 | |
| DO3MHA-11 | 2026-09-01 17:35:31 | 47.87772 | 12.26958 | 89° | 88km/h | 8746m | -5.6m/s | -33.9°C | 65.4% | 335.8hPa | 2.5V | 00:00:00 | 02:25:12 | 00:00:00 | |
| IN3HCDX | 2026-09-01 17:35:27 | 47.87770 | 12.26859 | 90° | 88km/h | 8763m | -5.9m/s | -34.1°C | 59.1% | 335.1hPa | 2.6V | 08:04:00 | 00:00:00 | 00:00:00 | |
| BAUMI2-15 | 2026-09-01 17:35:26 | 47.87769 | 12.26793 | 89° | 89km/h | 8775m | -5.7m/s | -34.1°C | 65.0% | 334.5hPa | 2.6V | 00:00:00 | 02:25:07 | 00:00:00 | |
| DO3MHA-12 | 2026-09-01 17:35:25 | 47.87769 | 12.26760 | 89° | 89km/h | 8781m | -5.8m/s | -34.1°C | 65.1% | 334.2hPa | 2.6V | 00:00:00 | 02:25:06 | 00:00:00 | |
| DO3MHA-11 | 2026-09-01 17:35:21 | 47.87766 | 12.26626 | 88° | 91km/h | 8804m | -5.8m/s | -34.3°C | 63.5% | 333.1hPa | 2.6V | 00:00:00 | 02:25:02 | 00:00:00 | |
| PG1ADW-2 | 2026-09-01 17:35:20 | 47.87765 | 12.26592 | 88° | 95km/h | 8810m | -5.8m/s | -34.3°C | 63.4% | 332.8hPa | 2.6V | 00:00:00 | 02:25:01 | 00:00:00 | |
| OE5WHR-10 | 2026-09-01 17:35:17 | 47.87761 | 12.26489 | 88° | 95km/h | 8828m | -5.9m/s | -34.4°C | 61.3% | 332.0hPa | 2.5V | 08:04:00 | 00:00:00 | 00:00:00 | |
| BAUMI2-15 | 2026-09-01 17:35:16 | 47.87760 | 12.26454 | 87° | 93km/h | 8833m | -5.9m/s | -34.4°C | 60.4% | 331.7hPa | 2.5V | 00:00:00 | 02:24:57 | 00:00:00 | |
| DO3MHA-12 | 2026-09-01 17:35:15 | 47.87759 | 12.26420 | 87° | 93km/h | 8840m | -5.9m/s | -34.4°C | 60.2% | 331.4hPa | 2.5V | 00:00:00 | 02:24:56 | 00:00:00 | |
| OE5DRO-10 | 2026-09-01 17:35:13 | 47.87756 | 12.26350 | 87° | 95km/h | 8851m | -5.8m/s | -34.5°C | 60.1% | 330.8hPa | 2.5V | 00:00:00 | 00:00:00 | 00:00:00 | |
| OE5DXL-15 | 2026-09-01 17:35:12 | 47.87755 | 12.26315 | 88° | 97km/h | 8857m | -5.9m/s | -34.5°C | 59.9% | 330.6hPa | 2.5V | 00:00:00 | 00:00:00 | 00:00:00 | |
| DO3MHA-11 | 2026-09-01 17:35:11 | 47.87754 | 12.26280 | 87° | 95km/h | 8863m | -5.8m/s | -34.6°C | 59.7% | 330.3hPa | 2.5V | 00:00:00 | 02:24:52 | 00:00:00 | |
| DG1MJG | 2026-09-01 17:35:10 | 47.87754 | 12.26280 | 88° | 93km/h | 8863m | -5.8m/s | -34.6°C | 54.6% | 330.4hPa | 2.5V | 08:04:00 | 00:00:00 | 00:00:00 | |
| BAUMI2-15 | 2026-09-01 17:35:06 | 47.87747 | 12.26103 | 87° | 95km/h | 8893m | -5.9m/s | -34.7°C | 57.8% | 329.0hPa | 2.5V | 00:00:00 | 02:24:47 | 00:00:00 | |
| DO3MHA-12 | 2026-09-01 17:35:05 | 47.87746 | 12.26068 | 87° | 97km/h | 8898m | -5.7m/s | -34.7°C | 57.2% | 328.7hPa | 2.5V | 00:00:00 | 02:24:46 | 00:00:00 | |
| DO3MHA-11 | 2026-09-01 17:35:01 | 47.87739 | 12.25924 | 87° | 97km/h | 8922m | -5.8m/s | -34.9°C | 59.0% | 327.5hPa | 2.5V | 08:04:00 | 02:24:42 | 00:00:00 | |
| NBG1-10 | 2026-09-01 17:35:00 | 47.87737 | 12.25888 | 86° | 97km/h | 8928m | -5.8m/s | -34.9°C | 59.6% | 327.3hPa | 2.5V | 00:00:00 | 02:24:41 | 00:00:00 | |
| PG1ADW-2 | 2026-09-01 17:34:57 | 47.87732 | 12.25780 | 86° | 97km/h | 8945m | -5.9m/s | -35.1°C | 61.6% | 326.5hPa | 2.5V | 00:00:00 | 00:00:00 | 00:00:00 | |
| BAUMI2-15 | 2026-09-01 17:34:56 | 47.87730 | 12.25744 | 86° | 97km/h | 8951m | -5.7m/s | -35.1°C | 62.5% | 326.1hPa | 2.5V | 00:00:00 | 02:24:37 | 00:00:00 | |
| DO3MHA-12 | 2026-09-01 17:34:55 | 47.87729 | 12.25707 | 86° | 99km/h | 8957m | -5.8m/s | -35.2°C | 63.3% | 325.9hPa | 2.5V | 08:04:00 | 02:24:36 | 00:00:00 | |
| OE5DRO-10 | 2026-09-01 17:34:54 | 47.87727 | 12.25671 | 86° | 97km/h | 8963m | -6.0m/s | -35.2°C | 63.3% | 325.6hPa | 2.5V | 00:00:00 | 00:00:00 | 00:00:00 | |
| DO3MHA-11 | 2026-09-01 17:34:51 | 47.87722 | 12.25561 | 87° | 99km/h | 8980m | -5.9m/s | -35.3°C | 62.4% | 324.8hPa | 2.5V | 00:00:00 | 02:24:32 | 00:00:00 | |
| DB0UT-7 | 2026-09-01 17:34:49 | 47.87719 | 12.25488 | 86° | 97km/h | 8992m | -6.0m/s | -35.4°C | 61.4% | 324.3hPa | 2.5V | 00:00:00 | 00:00:00 | 00:00:00 | |
| BAUMI2-15 | 2026-09-01 17:34:46 | 47.87713 | 12.25377 | 86° | 99km/h | 9010m | -5.9m/s | -35.5°C | 59.9% | 323.5hPa | 2.6V | 00:00:00 | 02:24:27 | 00:00:00 | |
| DO3MHA-12 | 2026-09-01 17:34:45 | 47.87711 | 12.25340 | 86° | 97km/h | 9016m | -5.9m/s | -35.5°C | 60.1% | 323.2hPa | 2.6V | 00:00:00 | 02:24:26 | 00:00:00 | |
| IN3HCDX | 2026-09-01 17:34:44 | 47.87711 | 12.25340 | 87° | 99km/h | 9016m | -6.0m/s | -35.6°C | 54.8% | 323.3hPa | 2.6V | 00:00:00 | 00:00:00 | 00:00:00 | |
| OE5DXL-15 | 2026-09-01 17:34:42 | 47.87706 | 12.25230 | 86° | 95km/h | 9034m | -5.8m/s | -35.7°C | 61.0% | 322.4hPa | 2.6V | 00:00:00 | 00:00:00 | 00:00:00 | |
| DO3MHA-11 | 2026-09-01 17:34:41 | 47.87704 | 12.25194 | 87° | 97km/h | 9039m | -6.0m/s | -35.7°C | 61.3% | 322.1hPa | 2.6V | 00:00:00 | 02:24:22 | 00:00:00 | |
| DG1MJG | 2026-09-01 17:34:40 | 47.87704 | 12.25194 | 87° | 99km/h | 9039m | -6.0m/s | -35.8°C | 55.9% | 322.2hPa | 2.6V | 08:05:00 | 00:00:00 | 00:00:00 | |
| PG1ADW-2 | 2026-09-01 17:34:37 | 47.87697 | 12.25047 | 87° | 95km/h | 9063m | -6.0m/s | -35.9°C | 61.4% | 321.0hPa | 2.6V | 00:00:00 | 00:00:00 | 00:00:00 | |
| BAUMI2-15 | 2026-09-01 17:34:36 | 47.87696 | 12.25011 | 87° | 95km/h | 9069m | -5.8m/s | -35.9°C | 61.6% | 320.7hPa | 2.6V | 08:04:00 | 02:24:17 | 00:00:00 | |
| DO3MHA-12 | 2026-09-01 17:34:35 | 47.87695 | 12.24975 | 87° | 95km/h | 9075m | -5.9m/s | -36.0°C | 61.7% | 320.5hPa | 2.5V | 00:00:00 | 02:24:16 | 00:00:00 | |
| OE5HKT-10 | 2026-09-01 17:34:34 | 47.87693 | 12.24939 | 87° | 93km/h | 9081m | -5.9m/s | -36.0°C | 62.0% | 320.2hPa | 2.5V | 00:00:00 | 00:00:00 | 00:00:00 | |
| DO3MHA-11 | 2026-09-01 17:34:31 | 47.87688 | 12.24832 | 86° | 95km/h | 9098m | -5.8m/s | -36.2°C | 63.3% | 319.3hPa | 2.6V | 00:00:00 | 02:24:12 | 00:00:00 | |
| NBG1-10 | 2026-09-01 17:34:27 | 47.87681 | 12.24689 | 86° | 91km/h | 9122m | -6.0m/s | -36.4°C | 64.9% | 318.3hPa | 2.5V | 00:00:00 | 02:24:08 | 00:00:00 | |
| BAUMI2-15 | 2026-09-01 17:34:26 | 47.87680 | 12.24654 | 86° | 93km/h | 9128m | -5.9m/s | -36.4°C | 65.1% | 318.0hPa | 2.5V | 00:00:00 | 02:24:07 | 00:00:00 | |
| DO3MHA-12 | 2026-09-01 17:34:25 | 47.87678 | 12.24619 | 87° | 93km/h | 9134m | -5.9m/s | -36.4°C | 65.2% | 317.7hPa | 2.5V | 00:00:00 | 02:24:06 | 00:00:00 | |
| IN3HCDX | 2026-09-01 17:34:23 | 47.87676 | 12.24584 | 87° | 93km/h | 9140m | -5.8m/s | -36.5°C | 59.2% | 317.5hPa | 2.6V | 00:00:00 | 00:00:00 | 00:00:00 | |
| DO3MHA-11 | 2026-09-01 17:34:21 | 47.87672 | 12.24479 | 87° | 91km/h | 9157m | -5.9m/s | -36.6°C | 63.0% | 316.6hPa | 2.6V | 00:00:00 | 02:24:02 | 00:00:00 | |
| DB0UT-7 | 2026-09-01 17:34:19 | 47.87669 | 12.24410 | 87° | 91km/h | 9169m | -5.9m/s | -36.7°C | 62.4% | 316.1hPa | 2.6V | 00:00:00 | 02:24:00 | 00:00:00 | |
| PG1ADW-2 | 2026-09-01 17:34:17 | 47.87666 | 12.24340 | 87° | 91km/h | 9181m | -5.9m/s | -36.8°C | 61.6% | 315.6hPa | 2.6V | 08:05:00 | 00:00:00 | 00:00:00 | |
| BAUMI2-15 | 2026-09-01 17:34:16 | 47.87665 | 12.24306 | 87° | 91km/h | 9187m | -5.8m/s | -36.8°C | 61.4% | 315.3hPa | 2.5V | 00:00:00 | 02:23:57 | 00:00:00 | |
| DO3MHA-12 | 2026-09-01 17:34:15 | 47.87663 | 12.24272 | 87° | 91km/h | 9193m | -5.8m/s | -36.9°C | 61.1% | 315.1hPa | 2.5V | 00:00:00 | 02:23:56 | 00:00:00 | |
| OE5WHR-10 | 2026-09-01 17:34:14 | 47.87662 | 12.24237 | 87° | 91km/h | 9199m | -5.8m/s | -36.9°C | 60.5% | 314.7hPa | 2.5V | 00:00:00 | 00:00:00 | 00:00:00 | |
| OE5HKT-10 | 2026-09-01 17:34:13 | 47.87661 | 12.24203 | 87° | 91km/h | 9205m | -5.8m/s | -37.0°C | 59.8% | 314.5hPa | 2.6V | 00:00:00 | 00:00:00 | 00:00:00 | |
| OE5DXL-15 | 2026-09-01 17:34:12 | 47.87659 | 12.24169 | 87° | 93km/h | 9210m | -5.9m/s | -37.0°C | 58.7% | 314.2hPa | 2.6V | 00:00:00 | 00:00:00 | 00:00:00 | |
| DO3MHA-11 | 2026-09-01 17:34:11 | 47.87658 | 12.24134 | 88° | 91km/h | 9217m | -5.9m/s | -37.0°C | 57.5% | 314.0hPa | 2.6V | 00:00:00 | 02:23:52 | 00:00:00 | |
| DG1MJG | 2026-09-01 17:34:10 | 47.87658 | 12.24134 | 88° | 91km/h | 9217m | -6.0m/s | -37.1°C | 52.1% | 314.0hPa | 2.6V | 08:05:00 | 00:00:00 | 00:00:00 | |
| BAUMI2-15 | 2026-09-01 17:34:06 | 47.87653 | 12.23963 | 88° | 93km/h | 9246m | -5.9m/s | -37.3°C | 54.4% | 312.6hPa | 2.6V | 00:00:00 | 02:23:47 | 00:00:00 | |
| DO3MHA-12 | 2026-09-01 17:34:05 | 47.87652 | 12.23930 | 88° | 91km/h | 9252m | -5.8m/s | -37.4°C | 53.7% | 312.3hPa | 2.6V | 00:00:00 | 02:23:46 | 00:00:00 | |
| IN3HCDX | 2026-09-01 17:34:02 | 47.87650 | 12.23862 | 89° | 89km/h | 9264m | -6.0m/s | -37.5°C | 46.9% | 311.9hPa | 2.6V | 00:00:00 | 00:00:00 | 00:00:00 | |
| DO3MHA-11 | 2026-09-01 17:34:01 | 47.87648 | 12.23794 | 88° | 91km/h | 9276m | -6.0m/s | -37.5°C | 52.6% | 311.3hPa | 2.6V | 00:00:00 | 02:23:42 | 00:00:00 | |
| OE5DRO-10 | 2026-09-01 17:33:57 | 47.87645 | 12.23656 | 89° | 95km/h | 9300m | -6.1m/s | -37.7°C | 52.7% | 310.2hPa | 2.6V | 00:00:00 | 00:00:00 | 00:00:00 | |
| DO3MHA-12 | 2026-09-01 17:33:55 | 47.87643 | 12.23587 | 89° | 93km/h | 9312m | -5.9m/s | -37.8°C | 52.2% | 309.7hPa | 2.5V | 00:00:00 | 02:23:36 | 00:00:00 | |
| NBG1-10 | 2026-09-01 17:33:54 | 47.87642 | 12.23552 | 89° | 97km/h | 9318m | -5.9m/s | -37.8°C | 51.8% | 309.4hPa | 2.6V | 00:00:00 | 02:23:35 | 00:00:00 | |
| OE5WHR-10 | 2026-09-01 17:33:53 | 47.87642 | 12.23518 | 89° | 97km/h | 9324m | -5.9m/s | -37.9°C | 51.3% | 309.1hPa | 2.6V | 00:00:00 | 00:00:00 | 00:00:00 | |
| OE5HKT-10 | 2026-09-01 17:33:52 | 47.87641 | 12.23482 | 89° | 97km/h | 9330m | -6.0m/s | -37.9°C | 51.1% | 308.8hPa | 2.6V | 00:00:00 | 02:23:33 | 00:00:00 | |
| DO3MHA-11 | 2026-09-01 17:33:51 | 47.87640 | 12.23447 | 89° | 95km/h | 9336m | -6.0m/s | -37.9°C | 51.1% | 308.6hPa | 2.6V | 00:00:00 | 02:23:32 | 00:00:00 | |
| DB0UT-7 | 2026-09-01 17:33:49 | 47.87638 | 12.23377 | 89° | 99km/h | 9348m | -6.0m/s | -38.0°C | 52.2% | 308.1hPa | 2.6V | 00:00:00 | 00:00:00 | 00:00:00 | |
| DO3MHA-12 | 2026-09-01 17:33:45 | 47.87636 | 12.23234 | 89° | 97km/h | 9372m | -6.1m/s | -38.2°C | 54.4% | 307.0hPa | 2.6V | 00:00:00 | 02:23:26 | 00:00:00 | |
| DF3TZ-5 | 2026-09-01 17:33:44 | 47.87634 | 12.23162 | 88° | 95km/h | 9383m | -6.0m/s | 0°C | -1.0% | -1.0hPa | 2.6V | 00:00:00 | 00:00:00 | 00:00:00 | |
| OE5DXL-15 | 2026-09-01 17:33:42 | 47.87634 | 12.23125 | 89° | 99km/h | 9389m | -5.9m/s | -38.3°C | 54.8% | 306.2hPa | 2.6V | 00:00:00 | 00:00:00 | 00:00:00 | |
| DO3MHA-11 | 2026-09-01 17:33:41 | 47.87633 | 12.23089 | 89° | 99km/h | 9395m | -5.9m/s | -38.4°C | 55.3% | 305.9hPa | 2.5V | 00:00:00 | 02:23:22 | 00:00:00 | |
| DG1MJG | 2026-09-01 17:33:40 | 47.87632 | 12.23053 | 90° | 97km/h | 9401m | -6.0m/s | -38.5°C | 50.0% | 305.7hPa | 2.5V | 08:06:00 | 00:00:00 | 00:00:00 | |
| OE5DRO-10 | 2026-09-01 17:33:38 | 47.87632 | 12.22979 | 89° | 99km/h | 9413m | -5.9m/s | -38.5°C | 55.6% | 305.2hPa | 2.5V | 00:00:00 | 00:00:00 | 00:00:00 | |
| PG1ADW-2 | 2026-09-01 17:33:37 | 47.87631 | 12.22942 | 89° | 99km/h | 9419m | -5.9m/s | -38.5°C | 55.7% | 304.9hPa | 2.5V | 00:00:00 | 00:00:00 | 00:00:00 | |
| DO3MHA-12 | 2026-09-01 17:33:35 | 47.87630 | 12.22869 | 90° | 99km/h | 9431m | -5.9m/s | -38.6°C | 55.9% | 304.4hPa | 2.5V | 00:00:00 | 02:23:16 | 00:00:00 | |
| DG1MFX-10 | 2026-09-01 17:33:33 | 47.87630 | 12.22832 | 91° | 99km/h | 9437m | -6.0m/s | -38.7°C | 50.4% | 304.1hPa | 2.5V | 08:06:00 | 00:00:00 | 00:00:00 | |
| OE5WHR-10 | 2026-09-01 17:33:32 | 47.87630 | 12.22758 | 90° | 99km/h | 9449m | -6.0m/s | -38.8°C | 55.8% | 303.6hPa | 2.5V | 00:00:00 | 02:23:13 | 00:00:00 | |
| DO3MHA-12 | 2026-09-01 17:33:25 | 47.87630 | 12.22499 | 91° | 100km/h | 9491m | -6.1m/s | -39.1°C | 55.3% | 301.7hPa | 2.5V | 08:06:00 | 02:23:06 | 00:00:00 | |
| DO3MHA-11 | 2026-09-01 17:33:21 | 47.87633 | 12.22349 | 92° | 100km/h | 9516m | -6.1m/s | -39.3°C | 56.5% | 300.6hPa | 2.6V | 00:00:00 | 02:23:02 | 00:00:00 | |
| OE5DRO-10 | 2026-09-01 17:33:19 | 47.87635 | 12.22273 | 93° | 100km/h | 9528m | -6.0m/s | -39.3°C | 55.4% | 300.1hPa | 2.6V | 00:00:00 | 00:00:00 | 00:00:00 | |
| PG1ADW-2 | 2026-09-01 17:33:17 | 47.87637 | 12.22198 | 93° | 100km/h | 9540m | -6.1m/s | -39.4°C | 54.2% | 299.6hPa | 2.6V | 00:00:00 | 00:00:00 | 00:00:00 | |
| DO3MHA-12 | 2026-09-01 17:33:15 | 47.87638 | 12.22123 | 92° | 100km/h | 9552m | -6.2m/s | -39.5°C | 54.4% | 299.0hPa | 2.6V | 00:00:00 | 02:22:56 | 00:00:00 | |
| DG1MFX-10 | 2026-09-01 17:33:13 | 47.87639 | 12.22086 | 92° | 100km/h | 9559m | -6.2m/s | -39.6°C | 48.9% | 298.8hPa | 2.6V | 08:06:00 | 00:00:00 | 00:00:00 | |
| OE5DXL-15 | 2026-09-01 17:33:12 | 47.87640 | 12.22010 | 92° | 100km/h | 9571m | -6.2m/s | -39.6°C | 54.7% | 298.3hPa | 2.6V | 00:00:00 | 00:00:00 | 00:00:00 | |
| OE5WHR-10 | 2026-09-01 17:33:11 | 47.87640 | 12.21972 | 92° | 100km/h | 9577m | -6.0m/s | -39.7°C | 54.8% | 298.0hPa | 2.6V | 00:00:00 | 00:00:00 | 00:00:00 | |
| OE5HKT-10 | 2026-09-01 17:33:10 | 47.87641 | 12.21934 | 92° | 100km/h | 9583m | -6.1m/s | -39.7°C | 54.8% | 297.7hPa | 2.5V | 00:00:00 | 00:00:00 | 00:00:00 | |
| DL6DJ-15 | 2026-09-01 17:33:09 | 47.87642 | 12.21859 | 91° | 100km/h | 9595m | -6.1m/s | -39.9°C | 49.0% | 297.3hPa | 2.5V | 00:00:00 | 00:00:00 | 00:00:00 | |
| DO3MHA-12 | 2026-09-01 17:33:05 | 47.87644 | 12.21745 | 92° | 100km/h | 9613m | -6.1m/s | -40.0°C | 54.8% | 296.4hPa | 2.5V | 00:00:00 | 02:22:46 | 00:00:00 | |
| DO3MHA-11 | 2026-09-01 17:33:01 | 47.87645 | 12.21594 | 91° | 99km/h | 9638m | -6.0m/s | -40.0°C | 55.8% | 295.3hPa | 2.5V | 00:00:00 | 02:22:42 | 00:00:00 | |
| OE5DRO-10 | 2026-09-01 17:33:00 | 47.87645 | 12.21557 | 90° | 99km/h | 9644m | -6.1m/s | -40.1°C | 56.8% | 295.1hPa | 2.5V | 08:06:00 | 00:00:00 | 00:00:00 | |
| PG1ADW-2 | 2026-09-01 17:32:57 | 47.87644 | 12.21445 | 89° | 99km/h | 9662m | -6.0m/s | -40.2°C | 57.7% | 294.3hPa | 2.5V | 00:00:00 | 00:00:00 | 00:00:00 | |
| DO3MHA-12 | 2026-09-01 17:32:55 | 47.87643 | 12.21370 | 89° | 99km/h | 9674m | -6.2m/s | -40.3°C | 58.3% | 293.7hPa | 2.5V | 00:00:00 | 02:22:36 | 00:00:00 | |
| DG1MFX-10 | 2026-09-01 17:32:52 | 47.87642 | 12.21295 | 89° | 99km/h | 9687m | -6.0m/s | -40.5°C | 53.1% | 293.3hPa | 2.6V | 08:07:00 | 00:00:00 | 00:00:00 | |
| DO3MHA-11 | 2026-09-01 17:32:51 | 47.87640 | 12.21221 | 88° | 99km/h | 9699m | -5.9m/s | -40.6°C | 60.1% | 292.7hPa | 2.6V | 00:00:00 | 02:22:32 | 00:00:00 | |
| OE5WHR-10 | 2026-09-01 17:32:50 | 47.87639 | 12.21184 | 88° | 99km/h | 9705m | -6.2m/s | -40.6°C | 60.6% | 292.5hPa | 2.6V | 00:00:00 | 00:00:00 | 00:00:00 | |
| OE5HKT-10 | 2026-09-01 17:32:49 | 47.87638 | 12.21146 | 88° | 99km/h | 9711m | -6.1m/s | -40.7°C | 61.3% | 292.2hPa | 2.6V | 00:00:00 | 02:22:30 | 00:00:00 | |
| NBG1-10 | 2026-09-01 17:32:48 | 47.87637 | 12.21109 | 88° | 100km/h | 9717m | -6.1m/s | -40.7°C | 62.0% | 291.9hPa | 2.6V | 00:00:00 | 02:22:29 | 00:00:00 | |
| DO3MHA-12 | 2026-09-01 17:32:45 | 47.87633 | 12.20997 | 87° | 100km/h | 9735m | -6.0m/s | -40.9°C | 64.1% | 291.1hPa | 2.6V | 00:00:00 | 02:22:26 | 00:00:00 | |
| OE5DXL-15 | 2026-09-01 17:32:42 | 47.87628 | 12.20886 | 87° | 100km/h | 9753m | -6.0m/s | -41.0°C | 65.4% | 290.4hPa | 2.6V | 00:00:00 | 00:00:00 | 00:00:00 | |
| DO3MHA-11 | 2026-09-01 17:32:41 | 47.87627 | 12.20848 | 87° | 100km/h | 9759m | -6.0m/s | -41.1°C | 65.9% | 290.1hPa | 2.6V | 00:00:00 | 02:22:22 | 00:00:00 | |
| DL6DJ-15 | 2026-09-01 17:32:38 | 47.87620 | 12.20698 | 85° | 99km/h | 9783m | -6.0m/s | -41.3°C | 59.9% | 289.1hPa | 2.6V | 00:00:00 | 00:00:00 | 00:00:00 | |
| PG1ADW-2 | 2026-09-01 17:32:37 | 47.87620 | 12.20698 | 86° | 100km/h | 9784m | -6.0m/s | -41.3°C | 66.7% | 289.1hPa | 2.6V | 00:00:00 | 02:22:18 | 00:00:00 | |
| DO3MHA-12 | 2026-09-01 17:32:35 | 47.87616 | 12.20624 | 86° | 99km/h | 9796m | -6.0m/s | -41.4°C | 67.2% | 288.6hPa | 2.6V | 00:00:00 | 02:22:16 | 00:00:00 | |
| DG1MFX-10 | 2026-09-01 17:32:32 | 47.87612 | 12.20549 | 87° | 99km/h | 9808m | -6.1m/s | -41.5°C | 60.5% | 288.1hPa | 2.6V | 08:07:00 | 00:00:00 | 00:00:00 | |
| DO3MHA-11 | 2026-09-01 17:32:31 | 47.87608 | 12.20475 | 86° | 100km/h | 9820m | -6.0m/s | -41.6°C | 67.5% | 287.5hPa | 2.6V | 00:00:00 | 02:22:12 | 00:00:00 | |
| OE5WHR-10 | 2026-09-01 17:32:29 | 47.87605 | 12.20400 | 87° | 100km/h | 9832m | -6.0m/s | -41.7°C | 67.6% | 287.0hPa | 2.5V | 00:00:00 | 02:22:10 | 00:00:00 | |
| OE5HKT-10 | 2026-09-01 17:32:28 | 47.87603 | 12.20363 | 87° | 100km/h | 9838m | -6.0m/s | -41.7°C | 67.6% | 286.8hPa | 2.5V | 00:00:00 | 00:00:00 | 00:00:00 | |
| DO3MHA-12 | 2026-09-01 17:32:25 | 47.87598 | 12.20250 | 87° | 100km/h | 9856m | -6.0m/s | -41.9°C | 67.5% | 286.0hPa | 2.6V | 00:00:00 | 02:22:06 | 00:00:00 | |
| OE5DRO-10 | 2026-09-01 17:32:22 | 47.87593 | 12.20137 | 87° | 100km/h | 9875m | -6.0m/s | -42.0°C | 67.4% | 285.3hPa | 2.5V | 00:00:00 | 00:00:00 | 00:00:00 | |
| DO3MHA-11 | 2026-09-01 17:32:21 | 47.87591 | 12.20100 | 87° | 100km/h | 9881m | -6.1m/s | -42.1°C | 67.2% | 285.0hPa | 2.5V | 00:00:00 | 02:22:02 | 00:00:00 | |
| DB0UT-7 | 2026-09-01 17:32:19 | 47.87588 | 12.20024 | 87° | 100km/h | 9893m | -5.9m/s | -42.2°C | 66.9% | 284.5hPa | 2.5V | 00:00:00 | 02:22:00 | 00:00:00 | |
| PG1ADW-2 | 2026-09-01 17:32:17 | 47.87585 | 12.19949 | 87° | 100km/h | 9905m | -6.1m/s | -42.3°C | 66.6% | 284.0hPa | 2.5V | 00:00:00 | 00:00:00 | 00:00:00 | |
| DO3MHA-12 | 2026-09-01 17:32:15 | 47.87582 | 12.19875 | 87° | 100km/h | 9917m | -5.9m/s | -42.4°C | 66.4% | 283.5hPa | 2.5V | 00:00:00 | 02:21:56 | 00:00:00 | |
| OE5DXL-15 | 2026-09-01 17:32:12 | 47.87579 | 12.19762 | 88° | 102km/h | 9935m | -6.2m/s | -42.5°C | 65.7% | 282.7hPa | 2.5V | 08:07:00 | 00:00:00 | 00:00:00 | |
| DO3MHA-11 | 2026-09-01 17:32:11 | 47.87578 | 12.19724 | 88° | 100km/h | 9942m | -6.1m/s | -42.5°C | 65.5% | 282.5hPa | 2.5V | 00:00:00 | 02:21:52 | 00:00:00 | |
| OE5WHR-10 | 2026-09-01 17:32:08 | 47.87575 | 12.19610 | 88° | 102km/h | 9960m | -6.1m/s | -42.7°C | 64.6% | 281.7hPa | 2.5V | 08:07:00 | 00:00:00 | 00:00:00 | |
| OE5HKT-10 | 2026-09-01 17:32:07 | 47.87573 | 12.19572 | 88° | 102km/h | 9966m | -6.1m/s | -42.7°C | 64.4% | 281.4hPa | 2.5V | 00:00:00 | 00:00:00 | 00:00:00 | |
| DL6DJ-15 | 2026-09-01 17:32:06 | 47.87572 | 12.19534 | 87° | 100km/h | 9972m | -6.2m/s | -42.8°C | 57.5% | 281.2hPa | 2.5V | 00:00:00 | 00:00:00 | 00:00:00 | |
| DO3MHA-12 | 2026-09-01 17:32:05 | 47.87571 | 12.19496 | 88° | 102km/h | 9979m | -6.2m/s | -42.8°C | 64.3% | 280.9hPa | 2.5V | 00:00:00 | 02:21:46 | 00:00:00 | |
| OE5DRO-10 | 2026-09-01 17:32:03 | 47.87569 | 12.19421 | 88° | 102km/h | 9991m | -6.1m/s | -42.9°C | 64.0% | 280.4hPa | 2.5V | 00:00:00 | 00:00:00 | 00:00:00 | |
| DO3MHA-11 | 2026-09-01 17:32:01 | 47.87568 | 12.19345 | 89° | 102km/h | 10003m | -6.2m/s | -43.1°C | 63.9% | 279.9hPa | 2.5V | 08:07:00 | 02:21:42 | 00:00:00 | |
| BAUMI2-15 | 2026-09-01 17:31:59 | 47.87567 | 12.19268 | 90° | 102km/h | 10016m | -6.1m/s | -43.1°C | 63.8% | 279.4hPa | 2.6V | 00:00:00 | 02:21:40 | 00:00:00 | |
| PG1ADW-2 | 2026-09-01 17:31:57 | 47.87566 | 12.19191 | 90° | 102km/h | 10028m | -6.2m/s | -43.3°C | 64.0% | 278.9hPa | 2.6V | 00:00:00 | 00:00:00 | 00:00:00 | |
| DO3MHA-12 | 2026-09-01 17:31:55 | 47.87565 | 12.19114 | 90° | 102km/h | 10040m | -6.1m/s | -43.3°C | 63.3% | 278.3hPa | 2.6V | 08:07:00 | 02:21:36 | 00:00:00 | |
| BAUMI2-15 | 2026-09-01 17:31:54 | 47.87565 | 12.19076 | 90° | 102km/h | 10046m | -6.0m/s | -43.4°C | 63.2% | 278.1hPa | 2.6V | 00:00:00 | 02:21:35 | 00:00:00 | |
| DO3MHA-11 | 2026-09-01 17:31:51 | 47.87564 | 12.18960 | 90° | 102km/h | 10065m | -6.2m/s | -43.6°C | 62.5% | 277.4hPa | 2.6V | 00:00:00 | 02:21:32 | 00:00:00 | |
| DB0UT-7 | 2026-09-01 17:31:49 | 47.87564 | 12.18882 | 90° | 104km/h | 10077m | -6.0m/s | -43.7°C | 61.8% | 276.8hPa | 2.6V | 00:00:00 | 00:00:00 | 00:00:00 | |
| OE5WHR-10 | 2026-09-01 17:31:47 | 47.87563 | 12.18805 | 90° | 104km/h | 10090m | -6.1m/s | -43.7°C | 60.2% | 276.2hPa | 2.5V | 00:00:00 | 00:00:00 | 00:00:00 | |
| OE5HKT-10 | 2026-09-01 17:31:46 | 47.87563 | 12.18767 | 90° | 104km/h | 10096m | -6.1m/s | -43.8°C | 59.4% | 276.1hPa | 2.5V | 00:00:00 | 02:21:27 | 00:00:00 | |
| DO3MHA-12 | 2026-09-01 17:31:45 | 47.87563 | 12.18728 | 90° | 102km/h | 10102m | -6.0m/s | -43.8°C | 59.7% | 275.8hPa | 2.5V | 00:00:00 | 02:21:26 | 00:00:00 | |
| OE5DRO-10 | 2026-09-01 17:31:44 | 47.87563 | 12.18690 | 91° | 104km/h | 10108m | -6.2m/s | -43.9°C | 60.1% | 275.5hPa | 2.5V | 00:00:00 | 00:00:00 | 00:00:00 | |
| OE5DXL-15 | 2026-09-01 17:31:42 | 47.87563 | 12.18612 | 91° | 104km/h | 10121m | -6.2m/s | -44.0°C | 59.9% | 275.1hPa | 2.5V | 00:00:00 | 00:00:00 | 00:00:00 | |
| DO3MHA-11 | 2026-09-01 17:31:41 | 47.87564 | 12.18574 | 91° | 104km/h | 10127m | -6.3m/s | -44.1°C | 60.2% | 274.8hPa | 2.5V | 00:00:00 | 02:21:22 | 00:00:00 | |
| BAUMI2-15 | 2026-09-01 17:31:40 | 47.87564 | 12.18535 | 91° | 104km/h | 10133m | -6.2m/s | -44.1°C | 60.7% | 274.5hPa | 2.5V | 00:00:00 | 02:21:21 | 00:00:00 | |
| PG1ADW-2 | 2026-09-01 17:31:37 | 47.87564 | 12.18418 | 91° | 104km/h | 10152m | -6.4m/s | -44.3°C | 61.7% | 273.7hPa | 2.5V | 00:00:00 | 00:00:00 | 00:00:00 | |
| DO3MHA-12 | 2026-09-01 17:31:35 | 47.87564 | 12.18340 | 90° | 104km/h | 10165m | -6.4m/s | -44.4°C | 61.8% | 273.2hPa | 2.5V | 00:00:00 | 02:21:16 | 00:00:00 | |
| DO3MHA-11 | 2026-09-01 17:31:31 | 47.87564 | 12.18185 | 90° | 104km/h | 10190m | -6.4m/s | -44.7°C | 62.9% | 272.2hPa | 2.5V | 00:00:00 | 02:21:12 | 00:00:00 | |
| BAUMI2-15 | 2026-09-01 17:31:30 | 47.87564 | 12.18146 | 90° | 104km/h | 10197m | -6.4m/s | -44.7°C | 63.1% | 271.9hPa | 2.5V | 00:00:00 | 02:21:11 | 00:00:00 | |
| OE5WHR-10 | 2026-09-01 17:31:26 | 47.87563 | 12.17990 | 90° | 104km/h | 10222m | -6.2m/s | -45.0°C | 63.5% | 270.9hPa | 2.6V | 00:00:00 | 02:21:07 | 00:00:00 | |
| BAUMI2-15 | 2026-09-01 17:31:25 | 47.87562 | 12.17950 | 90° | 104km/h | 10228m | -6.3m/s | -45.0°C | 63.3% | 270.6hPa | 2.6V | 00:00:00 | 02:21:06 | 00:00:00 | |
| DO3MHA-11 | 2026-09-01 17:31:21 | 47.87562 | 12.17793 | 90° | 104km/h | 10254m | -6.4m/s | -45.2°C | 63.3% | 269.6hPa | 2.6V | 00:00:00 | 02:21:02 | 00:00:00 | |
| BAUMI2-15 | 2026-09-01 17:31:20 | 47.87562 | 12.17754 | 90° | 104km/h | 10260m | -6.2m/s | -45.2°C | 63.3% | 269.4hPa | 2.6V | 00:00:00 | 02:21:01 | 00:00:00 | |
| DB0UT-7 | 2026-09-01 17:31:19 | 47.87561 | 12.17714 | 90° | 106km/h | 10266m | -6.2m/s | -45.3°C | 63.5% | 269.1hPa | 2.6V | 00:00:00 | 02:21:00 | 00:00:00 | |
| PG1ADW-2 | 2026-09-01 17:31:17 | 47.87561 | 12.17636 | 90° | 106km/h | 10279m | -6.3m/s | -45.4°C | 64.0% | 268.6hPa | 2.6V | 08:08:00 | 02:20:58 | 00:00:00 | |
| DO3MHA-12 | 2026-09-01 17:31:15 | 47.87560 | 12.17557 | 89° | 104km/h | 10292m | -6.4m/s | -45.5°C | 64.1% | 268.1hPa | 2.5V | 00:00:00 | 02:20:56 | 00:00:00 | |
| OE5DXL-15 | 2026-09-01 17:31:12 | 47.87558 | 12.17439 | 89° | 108km/h | 10311m | -6.3m/s | -45.7°C | 64.2% | 267.3hPa | 2.5V | 00:00:00 | 00:00:00 | 00:00:00 | |
| DO3MHA-11 | 2026-09-01 17:31:11 | 47.87558 | 12.17399 | 89° | 106km/h | 10317m | -6.5m/s | -45.7°C | 64.0% | 267.1hPa | 2.5V | 00:00:00 | 02:20:52 | 00:00:00 | |
| BAUMI2-15 | 2026-09-01 17:31:10 | 47.87557 | 12.17360 | 89° | 106km/h | 10324m | -6.5m/s | -45.8°C | 64.0% | 266.8hPa | 2.5V | 00:00:00 | 02:20:51 | 00:00:00 | |
| NBG1-10 | 2026-09-01 17:31:09 | 47.87557 | 12.17321 | 89° | 108km/h | 10331m | -6.4m/s | -45.8°C | 64.3% | 266.5hPa | 2.5V | 00:00:00 | 02:20:50 | 00:00:00 | |
| DG1MJG | 2026-09-01 17:31:07 | 47.87556 | 12.17282 | 90° | 106km/h | 10337m | -6.5m/s | -45.9°C | 56.5% | 266.3hPa | 2.5V | 08:09:00 | 00:00:00 | 00:00:00 | |
| OE5DRO-10 | 2026-09-01 17:31:06 | 47.87555 | 12.17202 | 89° | 108km/h | 10350m | -6.4m/s | -46.0°C | 64.3% | 265.7hPa | 2.5V | 00:00:00 | 00:00:00 | 00:00:00 | |
| OE5WHR-10 | 2026-09-01 17:31:05 | 47.87554 | 12.17162 | 89° | 108km/h | 10356m | -6.4m/s | -46.0°C | 63.9% | 265.5hPa | 2.5V | 00:00:00 | 00:00:00 | 00:00:00 | |
| OE5HKT-10 | 2026-09-01 17:31:04 | 47.87553 | 12.17121 | 89° | 108km/h | 10363m | -6.4m/s | -46.1°C | 63.9% | 265.2hPa | 2.5V | 00:00:00 | 00:00:00 | 00:00:00 | |
| DO3MHA-11 | 2026-09-01 17:31:01 | 47.87551 | 12.17001 | 89° | 106km/h | 10382m | -6.5m/s | -46.3°C | 63.4% | 264.4hPa | 2.5V | 00:00:00 | 02:20:42 | 00:00:00 | |
| BAUMI2-15 | 2026-09-01 17:31:00 | 47.87551 | 12.16960 | 89° | 106km/h | 10388m | -6.5m/s | -46.3°C | 63.4% | 264.2hPa | 2.5V | 08:08:00 | 02:20:41 | 00:00:00 | |
| PG1ADW-2 | 2026-09-01 17:30:57 | 47.87548 | 12.16841 | 88° | 108km/h | 10408m | -6.6m/s | -46.4°C | 62.6% | 263.5hPa | 2.5V | 00:00:00 | 00:00:00 | 00:00:00 | |
| DO3MHA-12 | 2026-09-01 17:30:55 | 47.87546 | 12.16761 | 88° | 108km/h | 10421m | -6.4m/s | -46.5°C | 61.9% | 262.9hPa | 2.5V | 00:00:00 | 02:20:36 | 00:00:00 | |
| DO3MHA-11 | 2026-09-01 17:30:51 | 47.87542 | 12.16600 | 89° | 110km/h | 10446m | -6.2m/s | -46.7°C | 60.6% | 261.9hPa | 2.5V | 00:00:00 | 02:20:32 | 00:00:00 | |
| BAUMI2-15 | 2026-09-01 17:30:50 | 47.87542 | 12.16559 | 89° | 110km/h | 10453m | -6.5m/s | -46.7°C | 60.4% | 261.6hPa | 2.5V | 00:00:00 | 02:20:31 | 00:00:00 | |
| DB0UT-7 | 2026-09-01 17:30:49 | 47.87541 | 12.16518 | 89° | 111km/h | 10460m | -6.5m/s | -46.8°C | 60.5% | 261.5hPa | 2.5V | 00:00:00 | 00:00:00 | 00:00:00 | |
| DG1MFX-10 | 2026-09-01 17:30:48 | 47.87541 | 12.16518 | 90° | 110km/h | 10460m | -6.6m/s | -46.8°C | 53.0% | 261.5hPa | 2.5V | 08:09:00 | 00:00:00 | 00:00:00 | |
| OE5DRO-10 | 2026-09-01 17:30:47 | 47.87540 | 12.16436 | 89° | 110km/h | 10472m | -6.2m/s | -46.9°C | 60.4% | 260.9hPa | 2.5V | 00:00:00 | 00:00:00 | 00:00:00 | |
| DO3MHA-12 | 2026-09-01 17:30:45 | 47.87538 | 12.16354 | 89° | 110km/h | 10485m | -6.5m/s | -47.0°C | 60.5% | 260.4hPa | 2.5V | 00:00:00 | 02:20:26 | 00:00:00 | |
| OE5WHR-10 | 2026-09-01 17:30:44 | 47.87537 | 12.16313 | 89° | 111km/h | 10492m | -6.8m/s | -47.0°C | 60.1% | 260.1hPa | 2.5V | 00:00:00 | 00:00:00 | 00:00:00 | |
| OE5HKT-10 | 2026-09-01 17:30:43 | 47.87537 | 12.16271 | 89° | 55km/h | 10499m | -6.6m/s | -47.0°C | 59.3% | 259.9hPa | 2.5V | 00:00:00 | 02:20:24 | 00:00:00 | |
| OE5DXL-15 | 2026-09-01 17:30:42 | 47.87536 | 12.16230 | 89° | 111km/h | 10505m | -6.6m/s | -47.0°C | 58.5% | 259.6hPa | 2.5V | 00:00:00 | 00:00:00 | 00:00:00 | |
| DO3MHA-11 | 2026-09-01 17:30:41 | 47.87535 | 12.16189 | 89° | 110km/h | 10512m | -6.5m/s | -47.0°C | 58.1% | 259.3hPa | 2.6V | 00:00:00 | 02:20:22 | 00:00:00 | |
| BAUMI2-15 | 2026-09-01 17:30:40 | 47.87534 | 12.16148 | 89° | 110km/h | 10518m | -6.6m/s | -47.1°C | 57.9% | 259.1hPa | 2.6V | 00:00:00 | 02:20:21 | 00:00:00 | |
| PG1ADW-2 | 2026-09-01 17:30:37 | 47.87533 | 12.16024 | 89° | 111km/h | 10538m | -6.5m/s | -47.3°C | 57.9% | 258.3hPa | 2.6V | 00:00:00 | 00:00:00 | 00:00:00 | |
| NBG1-10 | 2026-09-01 17:30:36 | 47.87532 | 12.15982 | 89° | 113km/h | 10545m | -6.3m/s | -47.3°C | 58.1% | 258.0hPa | 2.6V | 00:00:00 | 02:20:17 | 00:00:00 | |
| DO3MHA-12 | 2026-09-01 17:30:35 | 47.87532 | 12.15941 | 89° | 111km/h | 10551m | -6.5m/s | -47.4°C | 58.4% | 257.7hPa | 2.6V | 00:00:00 | 02:20:16 | 00:00:00 | |
| DL6DJ-15 | 2026-09-01 17:30:33 | 47.87531 | 12.15858 | 88° | 110km/h | 10564m | -6.9m/s | -47.6°C | 51.1% | 257.3hPa | 2.6V | 00:00:00 | 00:00:00 | 00:00:00 | |
| DO3MHA-11 | 2026-09-01 17:30:31 | 47.87530 | 12.15775 | 90° | 113km/h | 10578m | -6.4m/s | -47.6°C | 59.2% | 256.7hPa | 2.6V | 08:09:00 | 02:20:12 | 00:00:00 | |
| BAUMI2-15 | 2026-09-01 17:30:30 | 47.87529 | 12.15733 | 90° | 111km/h | 10584m | -6.5m/s | -47.7°C | 59.2% | 256.5hPa | 2.6V | 00:00:00 | 02:20:11 | 00:00:00 | |
| OE5DRO-10 | 2026-09-01 17:30:28 | 47.87528 | 12.15649 | 89° | 113km/h | 10598m | -6.8m/s | -47.8°C | 59.5% | 255.9hPa | 2.6V | 00:00:00 | 00:00:00 | 00:00:00 | |
| DG1MFX-10 | 2026-09-01 17:30:27 | 47.87528 | 12.15649 | 90° | 113km/h | 10598m | -6.8m/s | -47.9°C | 51.8% | 256.0hPa | 2.6V | 08:09:00 | 00:00:00 | 00:00:00 | |
| DO3MHA-12 | 2026-09-01 17:30:25 | 47.87527 | 12.15522 | 90° | 113km/h | 10617m | -6.5m/s | -48.0°C | 59.7% | 255.2hPa | 2.6V | 08:09:00 | 02:20:06 | 00:00:00 | |
| OE5WHR-10 | 2026-09-01 17:30:23 | 47.87526 | 12.15436 | 90° | 115km/h | 10631m | -6.9m/s | -48.1°C | 59.7% | 254.7hPa | 2.6V | 00:00:00 | 02:20:04 | 00:00:00 | |
| DO3MHA-11 | 2026-09-01 17:30:21 | 47.87525 | 12.15351 | 90° | 115km/h | 10645m | -6.9m/s | -48.3°C | 59.7% | 254.2hPa | 2.6V | 00:00:00 | 02:20:02 | 00:00:00 | |
| BAUMI2-15 | 2026-09-01 17:30:20 | 47.87525 | 12.15308 | 90° | 113km/h | 10652m | -6.9m/s | -48.3°C | 59.8% | 253.9hPa | 2.6V | 00:00:00 | 02:20:01 | 00:00:00 | |
| DB0UT-7 | 2026-09-01 17:30:19 | 47.87525 | 12.15265 | 90° | 115km/h | 10658m | -6.7m/s | -48.4°C | 59.9% | 253.6hPa | 2.6V | 00:00:00 | 02:20:00 | 00:00:00 | |
| PG1ADW-2 | 2026-09-01 17:30:17 | 47.87524 | 12.15179 | 90° | 115km/h | 10672m | -6.7m/s | -48.5°C | 60.1% | 253.1hPa | 2.5V | 00:00:00 | 00:00:00 | 00:00:00 | |
| DO3MHA-12 | 2026-09-01 17:30:15 | 47.87524 | 12.15093 | 90° | 115km/h | 10686m | -7.0m/s | -48.6°C | 60.1% | 252.5hPa | 2.6V | 00:00:00 | 02:19:56 | 00:00:00 | |
| OE5DXL-15 | 2026-09-01 17:30:12 | 47.87523 | 12.14964 | 90° | 115km/h | 10706m | -6.5m/s | -48.8°C | 60.0% | 251.8hPa | 2.6V | 00:00:00 | 00:00:00 | 00:00:00 | |
| DO3MHA-11 | 2026-09-01 17:30:11 | 47.87523 | 12.14921 | 90° | 115km/h | 10713m | -6.5m/s | -48.8°C | 60.0% | 251.6hPa | 2.6V | 00:00:00 | 02:19:52 | 00:00:00 | |
| BAUMI2-15 | 2026-09-01 17:30:10 | 47.87523 | 12.14878 | 90° | 115km/h | 10719m | -6.7m/s | -48.9°C | 60.1% | 251.3hPa | 2.6V | 00:00:00 | 02:19:51 | 00:00:00 | |
| OE5DRO-10 | 2026-09-01 17:30:09 | 47.87523 | 12.14835 | 90° | 115km/h | 10726m | -6.9m/s | -48.9°C | 60.2% | 251.1hPa | 2.6V | 08:09:00 | 00:00:00 | 00:00:00 | |
| DG1MFX-10 | 2026-09-01 17:30:06 | 47.87522 | 12.14748 | 91° | 115km/h | 10739m | -6.6m/s | -49.1°C | 52.4% | 250.6hPa | 2.5V | 08:09:00 | 00:00:00 | 00:00:00 | |
| DO3MHA-12 | 2026-09-01 17:30:05 | 47.87521 | 12.14662 | 90° | 115km/h | 10753m | -6.6m/s | -49.2°C | 60.9% | 250.0hPa | 2.5V | 00:00:00 | 02:19:46 | 00:00:00 | |
| OE5WHR-10 | 2026-09-01 17:30:02 | 47.87521 | 12.14533 | 90° | 115km/h | 10773m | -6.9m/s | -49.4°C | 61.8% | 249.2hPa | 2.5V | 00:00:00 | 00:00:00 | 00:00:00 | |
| DO3MHA-11 | 2026-09-01 17:30:01 | 47.87520 | 12.14490 | 90° | 115km/h | 10780m | -7.0m/s | -49.4°C | 62.1% | 249.0hPa | 2.5V | 00:00:00 | 02:19:42 | 00:00:00 | |
| OE3JTB-15 | 2026-09-01 17:29:57 | 47.87519 | 12.14318 | 89° | 110km/h | 10808m | -7.0m/s | -49.7°C | 62.0% | 247.9hPa | 2.5V | 00:00:00 | 02:19:38 | 00:00:00 | |
| DO3MHA-12 | 2026-09-01 17:29:55 | 47.87518 | 12.14232 | 89° | 115km/h | 10822m | -6.9m/s | -49.8°C | 61.9% | 247.4hPa | 2.5V | 00:00:00 | 02:19:36 | 00:00:00 | |
| DB0NH | 2026-09-01 17:29:52 | 47.87516 | 12.14104 | 89° | 115km/h | 10842m | -6.8m/s | -50.0°C | 61.1% | 246.6hPa | 2.6V | 00:00:00 | 02:19:33 | 00:00:00 | |
| DO3MHA-11 | 2026-09-01 17:29:51 | 47.87515 | 12.14061 | 89° | 115km/h | 10849m | -7.0m/s | -50.1°C | 60.7% | 246.4hPa | 2.6V | 00:00:00 | 02:19:32 | 00:00:00 | |
| OE5DRO-10 | 2026-09-01 17:29:50 | 47.87514 | 12.14018 | 89° | 115km/h | 10856m | -6.9m/s | -50.1°C | 60.3% | 246.1hPa | 2.6V | 00:00:00 | 00:00:00 | 00:00:00 | |
| DB0UT-7 | 2026-09-01 17:29:49 | 47.87513 | 12.13974 | 89° | 115km/h | 10862m | -6.7m/s | -50.2°C | 59.8% | 245.8hPa | 2.6V | 00:00:00 | 00:00:00 | 00:00:00 | |
| DG1MFX-10 | 2026-09-01 17:29:46 | 47.87511 | 12.13888 | 89° | 115km/h | 10876m | -6.9m/s | -50.4°C | 50.5% | 245.4hPa | 2.6V | 08:09:00 | 00:00:00 | 00:00:00 | |
| DO3MHA-12 | 2026-09-01 17:29:45 | 47.87510 | 12.13802 | 89° | 115km/h | 10890m | -7.0m/s | -50.4°C | 57.2% | 244.8hPa | 2.6V | 00:00:00 | 02:19:26 | 00:00:00 | |
| OE5DXL-15 | 2026-09-01 17:29:42 | 47.87506 | 12.13672 | 88° | 115km/h | 10911m | -6.9m/s | -50.5°C | 55.9% | 244.0hPa | 2.6V | 00:00:00 | 00:00:00 | 00:00:00 | |
| DO3MHA-11 | 2026-09-01 17:29:41 | 47.87506 | 12.13629 | 89° | 115km/h | 10918m | -6.9m/s | -50.6°C | 55.6% | 243.7hPa | 2.6V | 00:00:00 | 02:19:22 | 00:00:00 | |
| PG1ADW-2 | 2026-09-01 17:29:37 | 47.87501 | 12.13458 | 88° | 115km/h | 10946m | -7.0m/s | -50.8°C | 54.6% | 242.7hPa | 2.6V | 00:00:00 | 00:00:00 | 00:00:00 | |
| DO3MHA-12 | 2026-09-01 17:29:35 | 47.87498 | 12.13372 | 88° | 115km/h | 10960m | -7.0m/s | -50.9°C | 53.6% | 242.2hPa | 2.6V | 00:00:00 | 02:19:16 | 00:00:00 | |
| DG1MJG | 2026-09-01 17:29:34 | 47.87498 | 12.13372 | 88° | 115km/h | 10960m | -7.0m/s | -50.9°C | 45.7% | 242.3hPa | 2.6V | 08:10:00 | 00:00:00 | 00:00:00 | |
| DO3MHA-11 | 2026-09-01 17:29:31 | 47.87492 | 12.13198 | 87° | 115km/h | 10989m | -6.9m/s | -51.1°C | 52.2% | 241.2hPa | 2.6V | 00:00:00 | 02:19:12 | 00:00:00 | |
| DG1MFX-10 | 2026-09-01 17:29:26 | 47.87485 | 12.13024 | 87° | 115km/h | 11016m | -7.2m/s | -51.4°C | 44.8% | 240.2hPa | 2.5V | 08:10:00 | 00:00:00 | 00:00:00 | |
| DO3MHA-12 | 2026-09-01 17:29:25 | 47.87481 | 12.12938 | 87° | 115km/h | 11031m | -7.1m/s | -51.4°C | 52.8% | 239.6hPa | 2.5V | 00:00:00 | 02:19:06 | 00:00:00 | |
| DB0NH | 2026-09-01 17:29:22 | 47.87475 | 12.12808 | 86° | 117km/h | 11052m | -7.4m/s | -51.6°C | 53.1% | 238.8hPa | 2.6V | 00:00:00 | 02:19:03 | 00:00:00 | |
| DO3MHA-11 | 2026-09-01 17:29:21 | 47.87473 | 12.12765 | 86° | 117km/h | 11060m | -7.3m/s | -51.7°C | 53.2% | 238.5hPa | 2.6V | 00:00:00 | 02:19:02 | 00:00:00 | |
| DB0UT-7 | 2026-09-01 17:29:19 | 47.87469 | 12.12678 | 86° | 117km/h | 11074m | -7.0m/s | -51.8°C | 53.4% | 238.0hPa | 2.6V | 00:00:00 | 02:19:00 | 00:00:00 | |
| PG1ADW-2 | 2026-09-01 17:29:17 | 47.87464 | 12.12591 | 86° | 117km/h | 11088m | -7.1m/s | -51.9°C | 53.7% | 237.5hPa | 2.6V | 00:00:00 | 00:00:00 | 00:00:00 | |
| DO3MHA-12 | 2026-09-01 17:29:15 | 47.87459 | 12.12503 | 86° | 117km/h | 11103m | -7.4m/s | -52.0°C | 53.7% | 236.9hPa | 2.6V | 00:00:00 | 02:18:56 | 00:00:00 | |
| DO3MHA-11 | 2026-09-01 17:29:11 | 47.87450 | 12.12327 | 86° | 117km/h | 11132m | -7.0m/s | -52.3°C | 53.6% | 235.9hPa | 2.6V | 00:00:00 | 02:18:52 | 00:00:00 | |
| DO3MHA-12 | 2026-09-01 17:29:05 | 47.87437 | 12.12064 | 86° | 117km/h | 11175m | -7.1m/s | -52.7°C | 54.5% | 234.3hPa | 2.6V | 00:00:00 | 02:18:46 | 00:00:00 | |
| DG1MJG | 2026-09-01 17:29:03 | 47.87435 | 12.12020 | 87° | 117km/h | 11183m | -7.5m/s | -52.8°C | 46.2% | 234.1hPa | 2.6V | 08:10:00 | 00:00:00 | 00:00:00 | |
| DL6DJ-15 | 2026-09-01 17:29:00 | 47.87427 | 12.11844 | 86° | 115km/h | 11212m | -7.1m/s | -53.0°C | 46.5% | 233.0hPa | 2.6V | 00:00:00 | 00:00:00 | 00:00:00 | |
| OE5WHR-10 | 2026-09-01 17:28:59 | 47.87425 | 12.11801 | 87° | 117km/h | 11219m | -7.1m/s | -53.1°C | 55.2% | 232.8hPa | 2.6V | 08:10:00 | 00:00:00 | 00:00:00 | |
| NBG1-10 | 2026-09-01 17:28:57 | 47.87421 | 12.11713 | 86° | 117km/h | 11234m | -7.4m/s | -53.2°C | 55.6% | 232.2hPa | 2.6V | 00:00:00 | 02:18:38 | 00:00:00 | |
| DO3MHA-12 | 2026-09-01 17:28:55 | 47.87417 | 12.11625 | 87° | 117km/h | 11249m | -7.0m/s | -53.3°C | 55.8% | 231.7hPa | 2.6V | 08:10:00 | 02:18:36 | 00:00:00 | |
| OE5DRO-10 | 2026-09-01 17:28:53 | 47.87413 | 12.11538 | 87° | 117km/h | 11263m | -7.0m/s | -53.5°C | 55.9% | 231.1hPa | 2.6V | 00:00:00 | 00:00:00 | 00:00:00 | |
| DO3MHA-11 | 2026-09-01 17:28:51 | 47.87410 | 12.11449 | 87° | 117km/h | 11278m | -7.5m/s | -53.6°C | 56.2% | 230.6hPa | 2.6V | 00:00:00 | 02:18:32 | 00:00:00 | |
| DB0UT-7 | 2026-09-01 17:28:49 | 47.87406 | 12.11361 | 87° | 119km/h | 11293m | -7.3m/s | -53.7°C | 56.5% | 230.1hPa | 2.6V | 08:10:00 | 00:00:00 | 00:00:00 | |
| DO3MHA-12 | 2026-09-01 17:28:45 | 47.87401 | 12.11186 | 88° | 117km/h | 11322m | -7.5m/s | -54.0°C | 56.9% | 229.0hPa | 2.5V | 00:00:00 | 02:18:26 | 00:00:00 | |
| OE5DXL-15 | 2026-09-01 17:28:42 | 47.87397 | 12.11054 | 88° | 119km/h | 11344m | -6.9m/s | -54.2°C | 57.1% | 228.3hPa | 2.5V | 00:00:00 | 00:00:00 | 00:00:00 | |
| DO3MHA-11 | 2026-09-01 17:28:41 | 47.87396 | 12.11010 | 88° | 117km/h | 11351m | -7.1m/s | -54.3°C | 57.1% | 228.0hPa | 2.5V | 00:00:00 | 02:18:22 | 00:00:00 | |
| OE5WHR-10 | 2026-09-01 17:28:38 | 47.87392 | 12.10878 | 88° | 119km/h | 11373m | -7.2m/s | -54.4°C | 57.0% | 227.2hPa | 2.5V | 00:00:00 | 00:00:00 | 00:00:00 | |
| PG1ADW-2 | 2026-09-01 17:28:37 | 47.87391 | 12.10834 | 88° | 119km/h | 11380m | -7.0m/s | -54.5°C | 56.9% | 227.0hPa | 2.5V | 00:00:00 | 02:18:18 | 00:00:00 | |
| DO3MHA-12 | 2026-09-01 17:28:35 | 47.87389 | 12.10745 | 88° | 119km/h | 11394m | -7.1m/s | -54.6°C | 56.8% | 226.5hPa | 2.5V | 00:00:00 | 02:18:16 | 00:00:00 | |
| OE5DRO-10 | 2026-09-01 17:28:34 | 47.87388 | 12.10701 | 88° | 119km/h | 11401m | -7.4m/s | -54.7°C | 56.7% | 226.2hPa | 2.5V | 00:00:00 | 00:00:00 | 00:00:00 | |
| DG1MJG | 2026-09-01 17:28:32 | 47.87386 | 12.10656 | 89° | 119km/h | 11409m | -7.5m/s | -54.8°C | 47.7% | 226.0hPa | 2.5V | 08:11:00 | 00:00:00 | 00:00:00 | |
| DO3MHA-11 | 2026-09-01 17:28:31 | 47.87384 | 12.10568 | 88° | 119km/h | 11424m | -7.3m/s | -54.9°C | 56.9% | 225.4hPa | 2.5V | 00:00:00 | 02:18:12 | 00:00:00 | |
| DB0NH | 2026-09-01 17:28:30 | 47.87383 | 12.10524 | 88° | 120km/h | 11431m | -7.3m/s | -55.0°C | 56.9% | 225.2hPa | 2.5V | 00:00:00 | 02:18:11 | 00:00:00 | |
| DL6DJ-15 | 2026-09-01 17:28:29 | 47.87382 | 12.10479 | 87° | 117km/h | 11438m | -7.2m/s | -55.1°C | 47.9% | 224.9hPa | 2.5V | 00:00:00 | 00:00:00 | 00:00:00 | |
| DO3MHA-12 | 2026-09-01 17:28:25 | 47.87377 | 12.10301 | 88° | 119km/h | 11468m | -7.3m/s | -55.3°C | 57.4% | 223.9hPa | 2.5V | 00:00:00 | 02:18:06 | 00:00:00 | |
| NBG1-10 | 2026-09-01 17:28:24 | 47.87375 | 12.10257 | 88° | 120km/h | 11475m | -7.2m/s | -55.4°C | 57.6% | 223.6hPa | 2.6V | 00:00:00 | 02:18:05 | 00:00:00 | |
| DO3MHA-11 | 2026-09-01 17:28:21 | 47.87371 | 12.10123 | 88° | 120km/h | 11497m | -7.3m/s | -55.5°C | 57.7% | 222.9hPa | 2.5V | 00:00:00 | 02:18:02 | 00:00:00 | |
| DB0UT-7 | 2026-09-01 17:28:19 | 47.87369 | 12.10034 | 88° | 120km/h | 11512m | -7.1m/s | -55.7°C | 57.8% | 222.4hPa | 2.5V | 00:00:00 | 02:18:00 | 00:00:00 | |
| OE5WHR-10 | 2026-09-01 17:28:17 | 47.87365 | 12.09944 | 88° | 120km/h | 11526m | -7.0m/s | -55.8°C | 57.9% | 221.9hPa | 2.5V | 00:00:00 | 02:17:58 | 00:00:00 | |
| OE5DRO-10 | 2026-09-01 17:28:15 | 47.87362 | 12.09853 | 88° | 120km/h | 11541m | -7.5m/s | -55.9°C | 57.8% | 221.4hPa | 2.5V | 00:00:00 | 00:00:00 | 00:00:00 | |
| DO3MHA-12 | 2026-09-01 17:28:14 | 47.87361 | 12.09808 | 88° | 120km/h | 11548m | -7.4m/s | -56.0°C | 57.7% | 221.1hPa | 2.6V | 00:00:00 | 02:17:55 | 00:00:00 | |
| OE5DXL-15 | 2026-09-01 17:28:12 | 47.87358 | 12.09717 | 88° | 120km/h | 11563m | -7.2m/s | -56.1°C | 57.9% | 220.6hPa | 2.6V | 00:00:00 | 00:00:00 | 00:00:00 | |
| DO3MHA-11 | 2026-09-01 17:28:11 | 47.87357 | 12.09672 | 88° | 120km/h | 11570m | -7.1m/s | -56.1°C | 58.2% | 220.3hPa | 2.6V | 00:00:00 | 02:17:52 | 00:00:00 | |
| DG1MJG | 2026-09-01 17:28:02 | 47.87349 | 12.09309 | 89° | 120km/h | 11629m | -7.5m/s | -56.6°C | 49.8% | 218.4hPa | 2.6V | 08:11:00 | 00:00:00 | 00:00:00 | |
| DL6DJ-15 | 2026-09-01 17:27:58 | 47.87345 | 12.09082 | 88° | 120km/h | 11664m | -7.3m/s | -57.0°C | 51.4% | 217.1hPa | 2.6V | 00:00:00 | 00:00:00 | 00:00:00 | |
| PG1ADW-2 | 2026-09-01 17:27:57 | 47.87344 | 12.09037 | 89° | 120km/h | 11672m | -7.3m/s | -57.0°C | 61.8% | 216.8hPa | 2.6V | 00:00:00 | 00:00:00 | 00:00:00 | |
| OE5WHR-10 | 2026-09-01 17:27:56 | 47.87343 | 12.08992 | 89° | 120km/h | 11679m | -7.3m/s | -57.1°C | 62.1% | 216.6hPa | 2.6V | 00:00:00 | 00:00:00 | 00:00:00 | |
| DO3MHA-12 | 2026-09-01 17:27:54 | 47.87342 | 12.08901 | 89° | 120km/h | 11694m | -7.1m/s | -57.2°C | 62.2% | 216.1hPa | 2.5V | 00:00:00 | 02:17:35 | 00:00:00 | |
| NBG1-10 | 2026-09-01 17:27:51 | 47.87340 | 12.08765 | 89° | 122km/h | 11716m | -7.6m/s | -57.4°C | 62.0% | 215.3hPa | 2.6V | 00:00:00 | 02:17:32 | 00:00:00 | |
| DB0UT-7 | 2026-09-01 17:27:49 | 47.87338 | 12.08675 | 89° | 122km/h | 11731m | -7.4m/s | -57.5°C | 62.0% | 214.8hPa | 2.6V | 00:00:00 | 00:00:00 | 00:00:00 | |
| BAUMI2-15 | 2026-09-01 17:27:46 | 47.87335 | 12.08540 | 88° | 120km/h | 11753m | -7.3m/s | -57.7°C | 62.0% | 214.0hPa | 2.6V | 00:00:00 | 02:17:27 | 00:00:00 | |
| DO3MHA-12 | 2026-09-01 17:27:44 | 47.87332 | 12.08449 | 88° | 120km/h | 11768m | -7.2m/s | -57.8°C | 61.9% | 213.5hPa | 2.6V | 00:00:00 | 02:17:25 | 00:00:00 | |
| OE5DXL-15 | 2026-09-01 17:27:42 | 47.87330 | 12.08359 | 88° | 122km/h | 11782m | -7.4m/s | -58.0°C | 62.0% | 213.1hPa | 2.6V | 08:11:00 | 00:00:00 | 00:00:00 | |
| DO3MHA-11 | 2026-09-01 17:27:41 | 47.87329 | 12.08314 | 88° | 120km/h | 11790m | -7.3m/s | -58.0°C | 62.0% | 212.7hPa | 2.6V | 00:00:00 | 02:17:22 | 00:00:00 | |
| PG1ADW-2 | 2026-09-01 17:27:37 | 47.87323 | 12.08132 | 88° | 124km/h | 11820m | -7.2m/s | -58.3°C | 62.0% | 211.8hPa | 2.6V | 00:00:00 | 00:00:00 | 00:00:00 | |
| BAUMI2-15 | 2026-09-01 17:27:36 | 47.87322 | 12.08087 | 88° | 120km/h | 11827m | -7.4m/s | -58.4°C | 62.0% | 211.5hPa | 2.6V | 00:00:00 | 02:17:17 | 00:00:00 | |
| OE5WHR-10 | 2026-09-01 17:27:35 | 47.87320 | 12.08042 | 87° | 124km/h | 11834m | -7.3m/s | -58.4°C | 61.9% | 211.3hPa | 2.6V | 00:00:00 | 00:00:00 | 00:00:00 | |
| DO3MHA-12 | 2026-09-01 17:27:34 | 47.87319 | 12.07996 | 87° | 122km/h | 11842m | -7.5m/s | -58.5°C | 61.7% | 211.0hPa | 2.6V | 00:00:00 | 02:17:15 | 00:00:00 | |
| DO3MHA-11 | 2026-09-01 17:27:31 | 47.87314 | 12.07860 | 88° | 124km/h | 11864m | -7.2m/s | -58.7°C | 61.6% | 210.2hPa | 2.6V | 08:12:00 | 02:17:12 | 00:00:00 | |
| DL6DJ-15 | 2026-09-01 17:27:27 | 47.87307 | 12.07628 | 87° | 124km/h | 11902m | -7.4m/s | -59.0°C | 49.7% | 209.0hPa | 2.6V | 00:00:00 | 00:00:00 | 00:00:00 | |
| BAUMI2-15 | 2026-09-01 17:27:26 | 47.87307 | 12.07627 | 88° | 124km/h | 11902m | -7.4m/s | -59.0°C | 60.4% | 209.0hPa | 2.6V | 00:00:00 | 02:17:07 | 00:00:00 | |
| DO3MHA-12 | 2026-09-01 17:27:24 | 47.87305 | 12.07534 | 89° | 124km/h | 11916m | -7.4m/s | -59.1°C | 60.1% | 208.6hPa | 2.6V | 08:12:00 | 02:17:05 | 00:00:00 | |
| DG1MFX-10 | 2026-09-01 17:27:22 | 47.87304 | 12.07487 | 89° | 126km/h | 11924m | -7.7m/s | -59.2°C | 49.4% | 208.3hPa | 2.6V | 08:12:00 | 00:00:00 | 00:00:00 | |
| DO3MHA-11 | 2026-09-01 17:27:21 | 47.87302 | 12.07393 | 89° | 124km/h | 11939m | -7.5m/s | -59.3°C | 59.9% | 207.8hPa | 2.6V | 00:00:00 | 02:17:02 | 00:00:00 | |
| DB0UT-7 | 2026-09-01 17:27:19 | 47.87300 | 12.07299 | 89° | 122km/h | 11954m | -7.4m/s | -59.4°C | 59.8% | 207.3hPa | 2.6V | 00:00:00 | 02:17:00 | 00:00:00 | |
| NBG1-10 | 2026-09-01 17:27:18 | 47.87299 | 12.07252 | 89° | 122km/h | 11962m | -7.4m/s | -59.4°C | 59.6% | 207.0hPa | 2.6V | 00:00:00 | 02:16:59 | 00:00:00 | |
| PG1ADW-2 | 2026-09-01 17:27:17 | 47.87298 | 12.07205 | 89° | 124km/h | 11969m | -7.6m/s | -59.5°C | 59.4% | 206.8hPa | 2.6V | 00:00:00 | 02:16:58 | 00:00:00 | |
| BAUMI2-15 | 2026-09-01 17:27:16 | 47.87297 | 12.07158 | 89° | 124km/h | 11977m | -7.6m/s | -59.6°C | 59.3% | 206.6hPa | 2.6V | 00:00:00 | 02:16:57 | 00:00:00 | |
| DO3MHA-12 | 2026-09-01 17:27:14 | 47.87296 | 12.07065 | 89° | 124km/h | 11992m | -7.5m/s | -59.6°C | 58.6% | 206.1hPa | 2.5V | 00:00:00 | 02:16:55 | 00:00:00 | |
| OE5DXL-15 | 2026-09-01 17:27:12 | 47.87294 | 12.06971 | 89° | 120km/h | 12007m | -7.4m/s | -59.7°C | 57.4% | 205.5hPa | 2.5V | 00:00:00 | 00:00:00 | 00:00:00 | |
| DO3MHA-11 | 2026-09-01 17:27:11 | 47.87294 | 12.06924 | 89° | 124km/h | 12015m | -7.4m/s | -59.8°C | 57.0% | 205.3hPa | 2.5V | 00:00:00 | 02:16:52 | 00:00:00 | |
| BAUMI2-15 | 2026-09-01 17:27:06 | 47.87289 | 12.06690 | 89° | 124km/h | 12052m | -7.2m/s | -60.1°C | 55.1% | 204.1hPa | 2.5V | 00:00:00 | 02:16:47 | 00:00:00 | |
| DO3MHA-12 | 2026-09-01 17:27:04 | 47.87288 | 12.06597 | 89° | 120km/h | 12067m | -7.5m/s | -60.2°C | 53.9% | 203.7hPa | 2.5V | 00:00:00 | 02:16:45 | 00:00:00 | |
| DL6DJ-15 | 2026-09-01 17:26:56 | 47.87279 | 12.06187 | 87° | 117km/h | 12134m | -7.5m/s | -60.6°C | 38.4% | 201.5hPa | 2.5V | 00:00:00 | 00:00:00 | 00:00:00 | |
| BAUMI2-15 | 2026-09-01 17:26:55 | 47.87279 | 12.06187 | 88° | 119km/h | 12135m | -7.4m/s | -60.5°C | 48.3% | 201.4hPa | 2.5V | 00:00:00 | 02:16:36 | 00:00:00 | |
| DO3MHA-12 | 2026-09-01 17:26:54 | 47.87278 | 12.06142 | 88° | 117km/h | 12142m | -7.4m/s | -60.6°C | 48.0% | 201.2hPa | 2.5V | 00:00:00 | 02:16:35 | 00:00:00 | |
| OE5WHR-10 | 2026-09-01 17:26:53 | 47.87276 | 12.06098 | 88° | 113km/h | 12150m | -7.1m/s | -60.7°C | 47.7% | 201.0hPa | 2.6V | 00:00:00 | 00:00:00 | 00:00:00 | |
| DO3MHA-11 | 2026-09-01 17:26:51 | 47.87273 | 12.06009 | 87° | 113km/h | 12164m | -7.1m/s | -60.8°C | 47.3% | 200.5hPa | 2.6V | 00:00:00 | 02:16:32 | 00:00:00 | |
| BAUMI2-15 | 2026-09-01 17:26:50 | 47.87271 | 12.05964 | 87° | 117km/h | 12172m | -7.6m/s | -60.9°C | 46.8% | 200.2hPa | 2.6V | 00:00:00 | 02:16:31 | 00:00:00 | |
| DB0UT-7 | 2026-09-01 17:26:49 | 47.87269 | 12.05920 | 87° | 110km/h | 12179m | -7.3m/s | -60.9°C | 46.4% | 200.0hPa | 2.6V | 00:00:00 | 00:00:00 | 00:00:00 | |
| BAUMI2-15 | 2026-09-01 17:26:45 | 47.87262 | 12.05746 | 87° | 110km/h | 12208m | -7.3m/s | -61.2°C | 43.7% | 199.1hPa | 2.6V | 08:12:00 | 02:16:26 | 00:00:00 | |
| DO3MHA-12 | 2026-09-01 17:26:44 | 47.87260 | 12.05705 | 87° | 110km/h | 12216m | -7.1m/s | -61.2°C | 42.6% | 198.8hPa | 2.6V | 00:00:00 | 02:16:25 | 00:00:00 | |
| OE5DXL-15 | 2026-09-01 17:26:42 | 47.87256 | 12.05624 | 86° | 106km/h | 12231m | -7.3m/s | -61.3°C | 40.7% | 198.3hPa | 2.6V | 00:00:00 | 00:00:00 | 00:00:00 | |
| DO3MHA-11 | 2026-09-01 17:26:41 | 47.87253 | 12.05583 | 85° | 110km/h | 12238m | -7.3m/s | -61.3°C | 39.8% | 198.1hPa | 2.6V | 00:00:00 | 02:16:22 | 00:00:00 | |
| BAUMI2-15 | 2026-09-01 17:26:40 | 47.87251 | 12.05543 | 85° | 108km/h | 12246m | -7.4m/s | -61.4°C | 38.7% | 197.9hPa | 2.6V | 00:00:00 | 02:16:21 | 00:00:00 | |
| PG1ADW-2 | 2026-09-01 17:26:37 | 47.87242 | 12.05422 | 84° | 108km/h | 12268m | -7.3m/s | -61.4°C | 36.2% | 197.2hPa | 2.6V | 00:00:00 | 00:00:00 | 00:00:00 | |
| BAUMI2-15 | 2026-09-01 17:26:35 | 47.87235 | 12.05340 | 83° | 111km/h | 12283m | -7.0m/s | -61.2°C | 34.2% | 196.7hPa | 2.6V | 00:00:00 | 02:16:16 | 00:00:00 | |
| DO3MHA-12 | 2026-09-01 17:26:34 | 47.87231 | 12.05299 | 83° | 110km/h | 12290m | -7.1m/s | -60.9°C | 32.0% | 196.5hPa | 2.6V | 00:00:00 | 02:16:15 | 00:00:00 | |
| OE5WHR-10 | 2026-09-01 17:26:32 | 47.87224 | 12.05215 | 84° | 104km/h | 12304m | -7.3m/s | -60.5°C | 29.4% | 196.0hPa | 2.6V | 00:00:00 | 00:00:00 | 00:00:00 | |
| DO3MHA-11 | 2026-09-01 17:26:31 | 47.87221 | 12.05174 | 84° | 108km/h | 12312m | -7.1m/s | -60.4°C | 28.4% | 195.8hPa | 2.6V | 00:00:00 | 02:16:12 | 00:00:00 | |
| BAUMI2-15 | 2026-09-01 17:26:30 | 47.87218 | 12.05132 | 84° | 108km/h | 12319m | -7.4m/s | -60.3°C | 27.5% | 195.6hPa | 2.6V | 00:00:00 | 02:16:11 | 00:00:00 | |
| BAUMI2-15 | 2026-09-01 17:26:25 | 47.87204 | 12.04931 | 84° | 104km/h | 12356m | -7.1m/s | -60.1°C | 24.3% | 194.4hPa | 2.6V | 00:00:00 | 02:16:06 | 00:00:00 | |
| DO3MHA-12 | 2026-09-01 17:26:24 | 47.87201 | 12.04892 | 84° | 102km/h | 12363m | -7.1m/s | -59.9°C | 23.5% | 194.2hPa | 2.6V | 00:00:00 | 02:16:05 | 00:00:00 | |
| DO3MHA-11 | 2026-09-01 17:26:21 | 47.87193 | 12.04775 | 84° | 100km/h | 12385m | -7.3m/s | -59.6°C | 21.4% | 193.5hPa | 2.5V | 00:00:00 | 02:16:02 | 00:00:00 | |
| BAUMI2-15 | 2026-09-01 17:26:20 | 47.87190 | 12.04736 | 84° | 102km/h | 12392m | -7.1m/s | -59.5°C | 20.9% | 193.3hPa | 2.5V | 00:00:00 | 02:16:01 | 00:00:00 | |
| DB0UT-7 | 2026-09-01 17:26:19 | 47.87186 | 12.04697 | 84° | 97km/h | 12399m | -7.1m/s | -59.3°C | 20.2% | 193.0hPa | 2.5V | 00:00:00 | 02:16:00 | 00:00:00 | |
| PG1ADW-2 | 2026-09-01 17:26:17 | 47.87180 | 12.04621 | 83° | 95km/h | 12414m | -7.3m/s | -58.9°C | 19.1% | 192.6hPa | 2.5V | 00:00:00 | 00:00:00 | 00:00:00 | |
| BAUMI2-15 | 2026-09-01 17:26:15 | 47.87174 | 12.04547 | 83° | 97km/h | 12429m | -7.6m/s | -58.7°C | 18.7% | 192.1hPa | 2.6V | 00:00:00 | 02:15:56 | 00:00:00 | |
| DO3MHA-12 | 2026-09-01 17:26:14 | 47.87171 | 12.04511 | 83° | 93km/h | 12436m | -7.5m/s | -58.7°C | 18.4% | 192.0hPa | 2.6V | 00:00:00 | 02:15:55 | 00:00:00 | |
| OE5DXL-15 | 2026-09-01 17:26:12 | 47.87165 | 12.04440 | 83° | 97km/h | 12452m | -7.4m/s | -58.7°C | 18.2% | 191.5hPa | 2.6V | 00:00:00 | 00:00:00 | 00:00:00 | |
| BAUMI2-15 | 2026-09-01 17:26:10 | 47.87158 | 12.04369 | 82° | 93km/h | 12467m | -7.4m/s | -58.8°C | 17.9% | 191.0hPa | 2.6V | 00:00:00 | 02:15:51 | 00:00:00 | |
| BAUMI2-15 | 2026-09-01 17:26:05 | 47.87138 | 12.04198 | 80° | 93km/h | 12504m | -7.4m/s | -58.7°C | 17.5% | 189.9hPa | 2.6V | 00:00:00 | 02:15:46 | 00:00:00 | |
| DO3MHA-12 | 2026-09-01 17:26:04 | 47.87133 | 12.04164 | 80° | 95km/h | 12511m | -7.4m/s | -58.5°C | 17.0% | 189.6hPa | 2.6V | 00:00:00 | 02:15:45 | 00:00:00 | |
| DL6DJ-15 | 2026-09-01 17:25:53 | 47.87085 | 12.03778 | 79° | 97km/h | 12593m | -7.6m/s | -58.5°C | 10.5% | 187.3hPa | 2.6V | 00:00:00 | 00:00:00 | 00:00:00 | |
| OE5WHR-10 | 2026-09-01 17:25:50 | 47.87071 | 12.03668 | 80° | 102km/h | 12615m | -7.6m/s | -58.5°C | 15.6% | 186.6hPa | 2.6V | 08:13:00 | 00:00:00 | 00:00:00 | |
| DB0UT-7 | 2026-09-01 17:25:49 | 47.87067 | 12.03632 | 80° | 102km/h | 12623m | -7.1m/s | -58.4°C | 15.5% | 186.3hPa | 2.6V | 00:00:00 | 00:00:00 | 00:00:00 | |
| DO3MHA-12 | 2026-09-01 17:25:44 | 47.87042 | 12.03447 | 79° | 104km/h | 12660m | -7.3m/s | -58.0°C | 14.4% | 185.2hPa | 2.6V | 00:00:00 | 02:15:25 | 00:00:00 | |
| OE5DRO-10 | 2026-09-01 17:25:43 | 47.87036 | 12.03409 | 79° | 102km/h | 12668m | -7.4m/s | -57.9°C | 14.3% | 185.0hPa | 2.6V | 00:00:00 | 00:00:00 | 00:00:00 | |
| DO3MHA-11 | 2026-09-01 17:25:41 | 47.87026 | 12.03333 | 79° | 102km/h | 12683m | -7.4m/s | -57.9°C | 14.0% | 184.6hPa | 2.6V | 00:00:00 | 02:15:22 | 00:00:00 | |
| NBG1-10 | 2026-09-01 17:25:39 | 47.87016 | 12.03257 | 80° | 100km/h | 12698m | -7.4m/s | -58.0°C | 13.9% | 184.1hPa | 2.6V | 00:00:00 | 02:15:20 | 00:00:00 | |
| PG1ADW-2 | 2026-09-01 17:25:37 | 47.87006 | 12.03180 | 80° | 102km/h | 12713m | -7.4m/s | -58.0°C | 13.7% | 183.7hPa | 2.6V | 00:00:00 | 00:00:00 | 00:00:00 | |
| DO3MHA-12 | 2026-09-01 17:25:34 | 47.86992 | 12.03066 | 80° | 100km/h | 12735m | -7.6m/s | -57.8°C | 13.2% | 183.0hPa | 2.6V | 00:00:00 | 02:15:15 | 00:00:00 | |
| DO3MHA-11 | 2026-09-01 17:25:31 | 47.86979 | 12.02954 | 81° | 100km/h | 12758m | -7.5m/s | -57.5°C | 12.6% | 182.3hPa | 2.6V | 00:00:00 | 02:15:12 | 00:00:00 | |
| DG1MJG | 2026-09-01 17:25:30 | 47.86979 | 12.02954 | 81° | 100km/h | 12758m | -7.6m/s | -57.5°C | 8.0% | 182.4hPa | 2.6V | 08:14:00 | 00:00:00 | 00:00:00 | |
| OE5WHR-10 | 2026-09-01 17:25:29 | 47.86971 | 12.02880 | 81° | 100km/h | 12773m | -7.3m/s | -57.5°C | 12.3% | 181.9hPa | 2.6V | 00:00:00 | 00:00:00 | 00:00:00 | |
| OE3JTB-15 | 2026-09-01 17:25:26 | 47.86959 | 12.02767 | 82° | 99km/h | 12796m | -7.7m/s | -57.6°C | 12.1% | 181.3hPa | 2.6V | 08:14:00 | 00:00:00 | 00:00:00 | |
| DO3MHA-12 | 2026-09-01 17:25:24 | 47.86952 | 12.02692 | 83° | 102km/h | 12811m | -7.6m/s | -57.5°C | 11.7% | 180.8hPa | 2.6V | 00:00:00 | 02:15:05 | 00:00:00 | |
| DL6DJ-15 | 2026-09-01 17:25:22 | 47.86945 | 12.02617 | 83° | 100km/h | 12826m | -7.6m/s | -57.5°C | 7.1% | 180.4hPa | 2.6V | 00:00:00 | 00:00:00 | 00:00:00 | |
| DO3MHA-11 | 2026-09-01 17:25:21 | 47.86942 | 12.02579 | 84° | 102km/h | 12834m | -7.6m/s | -57.4°C | 11.3% | 180.2hPa | 2.6V | 00:00:00 | 02:15:02 | 00:00:00 | |
| DB0UT-7 | 2026-09-01 17:25:19 | 47.86937 | 12.02503 | 85° | 95km/h | 12850m | -7.7m/s | -57.2°C | 10.9% | 179.7hPa | 2.6V | 00:00:00 | 02:15:00 | 00:00:00 | |
| PG1ADW-2 | 2026-09-01 17:25:17 | 47.86932 | 12.02427 | 85° | 97km/h | 12865m | -7.7m/s | -57.2°C | 10.7% | 179.3hPa | 2.6V | 08:14:00 | 00:00:00 | 00:00:00 | |
| DH7VM-15 | 2026-09-01 17:25:15 | 47.86930 | 12.02388 | 86° | 102km/h | 12873m | -7.8m/s | 0°C | 0% | 179.1hPa | 2.6V | 00:00:00 | 00:00:00 | 00:00:00 | |
| DO3MHA-12 | 2026-09-01 17:25:14 | 47.86925 | 12.02312 | 86° | 100km/h | 12888m | -7.5m/s | -57.0°C | 10.3% | 178.7hPa | 2.6V | 00:00:00 | 02:14:55 | 00:00:00 | |
| OE5DXL-15 | 2026-09-01 17:25:12 | 47.86922 | 12.02236 | 88° | 91km/h | 12904m | -7.7m/s | -56.7°C | 10.0% | 178.2hPa | 2.6V | 00:00:00 | 00:00:00 | 00:00:00 | |
| DO3MHA-11 | 2026-09-01 17:25:11 | 47.86921 | 12.02198 | 88° | 97km/h | 12912m | -7.9m/s | -56.6°C | 9.7% | 178.0hPa | 2.6V | 00:00:00 | 02:14:52 | 00:00:00 | |
| OE5WHR-10 | 2026-09-01 17:25:08 | 47.86919 | 12.02086 | 90° | 91km/h | 12935m | -7.8m/s | -56.4°C | 9.2% | 177.3hPa | 2.6V | 00:00:00 | 02:14:49 | 00:00:00 | |
| NBG1-10 | 2026-09-01 17:25:06 | 47.86920 | 12.02012 | 92° | 86km/h | 12951m | -7.9m/s | -56.2°C | 8.8% | 176.9hPa | 2.6V | 00:00:00 | 02:14:47 | 00:00:00 | |
| OE5DRO-10 | 2026-09-01 17:25:05 | 47.86920 | 12.01975 | 92° | 89km/h | 12959m | -8.0m/s | -56.1°C | 8.9% | 176.7hPa | 2.6V | 00:00:00 | 00:00:00 | 00:00:00 | |
| DO3MHA-12 | 2026-09-01 17:25:04 | 47.86921 | 12.01939 | 92° | 91km/h | 12967m | -7.8m/s | -56.1°C | 8.8% | 176.4hPa | 2.6V | 00:00:00 | 02:14:45 | 00:00:00 | |
| DO3MHA-11 | 2026-09-01 17:25:01 | 47.86922 | 12.01833 | 91° | 89km/h | 12991m | -7.9m/s | -55.7°C | 8.3% | 175.8hPa | 2.6V | 00:00:00 | 02:14:42 | 00:00:00 | |
| DG1MJG | 2026-09-01 17:25:00 | 47.86922 | 12.01833 | 92° | 93km/h | 12991m | -7.9m/s | -55.8°C | 4.7% | 175.9hPa | 2.6V | 08:14:00 | 00:00:00 | 00:00:00 | |
| DG1MFX-10 | 2026-09-01 17:24:58 | 47.86923 | 12.01764 | 91° | 91km/h | 13007m | -7.9m/s | -55.8°C | 4.7% | 175.4hPa | 2.6V | 08:14:00 | 00:00:00 | 00:00:00 | |
| OE3JTB-15 | 2026-09-01 17:24:57 | 47.86923 | 12.01696 | 90° | 82km/h | 13022m | -7.7m/s | -55.8°C | 8.2% | 174.9hPa | 2.6V | 00:00:00 | 00:00:00 | 00:00:00 | |
| DO3MHA-12 | 2026-09-01 17:24:54 | 47.86922 | 12.01595 | 90° | 86km/h | 13046m | -7.8m/s | -55.7°C | 8.0% | 174.3hPa | 2.6V | 00:00:00 | 02:14:35 | 00:00:00 | |
| DO3MHA-11 | 2026-09-01 17:24:51 | 47.86922 | 12.01495 | 91° | 84km/h | 13070m | -7.9m/s | -55.7°C | 7.8% | 173.6hPa | 2.6V | 00:00:00 | 02:14:32 | 00:00:00 | |
| DB0UT-7 | 2026-09-01 17:24:49 | 47.86923 | 12.01430 | 92° | 80km/h | 13086m | -8.1m/s | -55.7°C | 7.7% | 173.2hPa | 2.6V | 00:00:00 | 00:00:00 | 00:00:00 | |
| IN3HCDX | 2026-09-01 17:24:48 | 47.86923 | 12.01430 | 92° | 86km/h | 13086m | -8.1m/s | -55.7°C | 4.2% | 173.2hPa | 2.6V | 00:00:00 | 00:00:00 | 00:00:00 | |
| OE5WHR-10 | 2026-09-01 17:24:47 | 47.86923 | 12.01366 | 91° | 78km/h | 13102m | -8.1m/s | -55.6°C | 7.6% | 172.7hPa | 2.6V | 00:00:00 | 00:00:00 | 00:00:00 | |
| OE5DRO-10 | 2026-09-01 17:24:46 | 47.86923 | 12.01334 | 91° | 78km/h | 13111m | -8.1m/s | -55.5°C | 7.5% | 172.5hPa | 2.6V | 00:00:00 | 00:00:00 | 00:00:00 | |
| DO3MHA-12 | 2026-09-01 17:24:44 | 47.86924 | 12.01273 | 91° | 78km/h | 13127m | -8.1m/s | -55.5°C | 7.3% | 172.1hPa | 2.6V | 00:00:00 | 02:14:25 | 00:00:00 | |
| OE5DXL-15 | 2026-09-01 17:24:42 | 47.86923 | 12.01212 | 90° | 82km/h | 13143m | -8.0m/s | -55.4°C | 7.1% | 171.6hPa | 2.6V | 00:00:00 | 00:00:00 | 00:00:00 | |
| DO3MHA-11 | 2026-09-01 17:24:41 | 47.86923 | 12.01182 | 89° | 77km/h | 13151m | -8.2m/s | -55.4°C | 7.1% | 171.4hPa | 2.6V | 00:00:00 | 02:14:22 | 00:00:00 | |
| PG1ADW-2 | 2026-09-01 17:24:37 | 47.86920 | 12.01066 | 87° | 80km/h | 13184m | -8.2m/s | -55.3°C | 6.9% | 170.6hPa | 2.6V | 00:00:00 | 02:14:18 | 00:00:00 | |
| DO3MHA-12 | 2026-09-01 17:24:34 | 47.86915 | 12.00980 | 84° | 78km/h | 13209m | -8.1m/s | -55.4°C | 6.8% | 169.9hPa | 2.6V | 00:00:00 | 02:14:15 | 00:00:00 | |
| NBG1-10 | 2026-09-01 17:24:33 | 47.86913 | 12.00952 | 84° | 86km/h | 13217m | -8.3m/s | -55.4°C | 6.8% | 169.7hPa | 2.6V | 00:00:00 | 02:14:14 | 00:00:00 | |
| DO3MHA-11 | 2026-09-01 17:24:31 | 47.86908 | 12.00895 | 82° | 80km/h | 13234m | -8.1m/s | -55.4°C | 6.7% | 169.2hPa | 2.6V | 08:15:00 | 02:14:12 | 00:00:00 | |
| DG1MJG | 2026-09-01 17:24:30 | 47.86908 | 12.00895 | 83° | 78km/h | 13234m | -8.2m/s | -55.5°C | 3.5% | 169.3hPa | 2.6V | 08:15:00 | 00:00:00 | 00:00:00 | |
| OE5DRO-10 | 2026-09-01 17:24:27 | 47.86895 | 12.00779 | 80° | 86km/h | 13266m | -8.2m/s | -55.5°C | 6.7% | 168.4hPa | 2.6V | 08:15:00 | 00:00:00 | 00:00:00 | |
| OE5WHR-10 | 2026-09-01 17:24:26 | 47.86892 | 12.00750 | 80° | 88km/h | 13275m | -8.0m/s | -55.4°C | 6.6% | 168.2hPa | 2.6V | 00:00:00 | 00:00:00 | 00:00:00 | |
| DF3TZ-5 | 2026-09-01 17:24:25 | 47.86884 | 12.00691 | 78° | 80km/h | 13291m | -8.3m/s | -55.5°C | 3.2% | 167.8hPa | 2.6V | 00:00:00 | 00:00:00 | 00:00:00 | |
| DO3MHA-12 | 2026-09-01 17:24:24 | 47.86884 | 12.00691 | 79° | 86km/h | 13291m | -8.2m/s | -55.4°C | 6.5% | 167.7hPa | 2.6V | 08:15:00 | 02:14:05 | 00:00:00 | |
| OE3JTB-15 | 2026-09-01 17:24:23 | 47.86880 | 12.00661 | 79° | 88km/h | 13299m | -8.0m/s | -55.4°C | 6.5% | 167.5hPa | 2.6V | 00:00:00 | 02:14:04 | 00:00:00 | |
| DO3MHA-11 | 2026-09-01 17:24:21 | 47.86871 | 12.00599 | 79° | 89km/h | 13316m | -8.2m/s | -55.5°C | 6.4% | 167.1hPa | 2.6V | 00:00:00 | 02:14:02 | 00:00:00 | |
| DL6DJ-15 | 2026-09-01 17:24:20 | 47.86867 | 12.00568 | 78° | 86km/h | 13324m | -8.2m/s | -55.6°C | 3.1% | 166.9hPa | 2.6V | 00:00:00 | 00:00:00 | 00:00:00 | |
| DB0UT-7 | 2026-09-01 17:24:19 | 47.86862 | 12.00536 | 80° | 88km/h | 13332m | -8.3m/s | -55.6°C | 6.3% | 166.6hPa | 2.6V | 08:15:00 | 02:14:00 | 00:00:00 | |
| PG1ADW-2 | 2026-09-01 17:24:17 | 47.86854 | 12.00470 | 80° | 89km/h | 13349m | -8.2m/s | -55.7°C | 6.2% | 166.2hPa | 2.6V | 00:00:00 | 00:00:00 | 00:00:00 | |
| DO3MHA-12 | 2026-09-01 17:24:14 | 47.86843 | 12.00370 | 82° | 89km/h | 13374m | -8.3m/s | -55.8°C | 6.1% | 165.6hPa | 2.6V | 00:00:00 | 02:13:55 | 00:00:00 | |
| OE5DXL-15 | 2026-09-01 17:24:12 | 47.86837 | 12.00303 | 82° | 84km/h | 13390m | -8.3m/s | -55.9°C | 6.2% | 165.1hPa | 2.6V | 00:00:00 | 00:00:00 | 00:00:00 | |
| DO3MHA-11 | 2026-09-01 17:24:11 | 47.86833 | 12.00269 | 82° | 89km/h | 13399m | -8.2m/s | -55.8°C | 6.1% | 164.9hPa | 2.6V | 00:00:00 | 02:13:52 | 00:00:00 | |
| OE5DRO-10 | 2026-09-01 17:24:08 | 47.86823 | 12.00169 | 82° | 86km/h | 13424m | -8.4m/s | -55.5°C | 5.8% | 164.2hPa | 2.6V | 00:00:00 | 00:00:00 | 00:00:00 | |
| OE5WHR-10 | 2026-09-01 17:24:05 | 47.86813 | 12.00069 | 83° | 84km/h | 13449m | -8.3m/s | -55.4°C | 5.8% | 163.6hPa | 2.6V | 00:00:00 | 02:13:46 | 00:00:00 | |
| DO3MHA-12 | 2026-09-01 17:24:04 | 47.86810 | 12.00036 | 82° | 88km/h | 13458m | -8.4m/s | -55.4°C | 5.8% | 163.4hPa | 2.6V | 00:00:00 | 02:13:45 | 00:00:00 | |
| OE5MMP-10 | 2026-09-01 17:24:01 | 47.86801 | 11.99936 | 83° | 86km/h | 13483m | -8.4m/s | -55.2°C | 5.8% | 162.7hPa | 2.6V | 00:00:00 | 02:13:42 | 00:00:00 | |
| BAUMI2-15 | 2026-09-01 17:24:00 | 47.86798 | 11.99903 | 84° | 88km/h | 13492m | -8.5m/s | -55.2°C | 5.7% | 162.5hPa | 2.6V | 08:15:00 | 02:13:41 | 00:00:00 | |
| DG1MJG | 2026-09-01 17:23:59 | 47.86798 | 11.99903 | 84° | 88km/h | 13492m | -8.6m/s | -55.2°C | 2.6% | 162.6hPa | 2.6V | 08:15:00 | 00:00:00 | 00:00:00 | |
| PG1ADW-2 | 2026-09-01 17:23:57 | 47.86791 | 11.99805 | 85° | 69km/h | 13518m | -8.4m/s | -55.2°C | 5.7% | 161.9hPa | 2.6V | 00:00:00 | 00:00:00 | 00:00:00 | |
| DG1MFX-10 | 2026-09-01 17:23:56 | 47.86791 | 11.99805 | 86° | 86km/h | 13518m | -8.5m/s | -55.2°C | 2.6% | 161.9hPa | 2.6V | 08:15:00 | 00:00:00 | 00:00:00 | |
| BAUMI2-15 | 2026-09-01 17:23:55 | 47.86787 | 11.99742 | 86° | 82km/h | 13534m | -8.6m/s | -55.2°C | 5.6% | 161.4hPa | 2.6V | 00:00:00 | 02:13:36 | 00:00:00 | |
| DO3MHA-12 | 2026-09-01 17:23:54 | 47.86786 | 11.99710 | 87° | 78km/h | 13543m | -8.5m/s | -55.2°C | 5.6% | 161.2hPa | 2.6V | 00:00:00 | 02:13:35 | 00:00:00 | |
| DO3MHA-11 | 2026-09-01 17:23:51 | 47.86782 | 11.99618 | 88° | 78km/h | 13569m | -8.5m/s | -55.2°C | 5.6% | 160.6hPa | 2.6V | 00:00:00 | 02:13:32 | 00:00:00 | |
| BAUMI2-15 | 2026-09-01 17:23:50 | 47.86781 | 11.99588 | 88° | 78km/h | 13578m | -8.6m/s | -55.2°C | 5.5% | 160.4hPa | 2.6V | 00:00:00 | 02:13:31 | 00:00:00 | |
| DB0UT-7 | 2026-09-01 17:23:49 | 47.86780 | 11.99559 | 87° | 78km/h | 13586m | -8.4m/s | -55.2°C | 5.6% | 160.2hPa | 2.6V | 00:00:00 | 00:00:00 | 00:00:00 | |
| BAUMI2-15 | 2026-09-01 17:23:45 | 47.86774 | 11.99442 | 84° | 78km/h | 13621m | -8.6m/s | -54.8°C | 5.5% | 159.3hPa | 2.6V | 00:00:00 | 02:13:26 | 00:00:00 | |
| DO3MHA-12 | 2026-09-01 17:23:44 | 47.86772 | 11.99414 | 83° | 77km/h | 13629m | -8.8m/s | -54.7°C | 5.4% | 159.1hPa | 2.6V | 00:00:00 | 02:13:25 | 00:00:00 | |
| OE5DXL-15 | 2026-09-01 17:23:42 | 47.86766 | 11.99356 | 82° | 80km/h | 13647m | -8.6m/s | -54.4°C | 5.4% | 158.6hPa | 2.6V | 00:00:00 | 00:00:00 | 00:00:00 | |
| DO3MHA-11 | 2026-09-01 17:23:41 | 47.86763 | 11.99326 | 82° | 77km/h | 13655m | -8.6m/s | -54.4°C | 5.3% | 158.4hPa | 2.6V | 00:00:00 | 02:13:22 | 00:00:00 | |
| BAUMI2-15 | 2026-09-01 17:23:40 | 47.86760 | 11.99297 | 82° | 77km/h | 13664m | -8.5m/s | -54.5°C | 5.3% | 158.2hPa | 2.6V | 00:00:00 | 02:13:21 | 00:00:00 | |
| DG1MFX-10 | 2026-09-01 17:23:36 | 47.86752 | 11.99211 | 84° | 75km/h | 13690m | -8.6m/s | -54.6°C | 2.4% | 157.6hPa | 2.6V | 08:16:00 | 00:00:00 | 00:00:00 | |
| BAUMI2-15 | 2026-09-01 17:23:35 | 47.86747 | 11.99155 | 83° | 75km/h | 13707m | -8.7m/s | -54.6°C | 5.3% | 157.1hPa | 2.6V | 00:00:00 | 02:13:16 | 00:00:00 | |
| DO3MHA-12 | 2026-09-01 17:23:34 | 47.86745 | 11.99127 | 84° | 77km/h | 13715m | -8.7m/s | -54.6°C | 5.4% | 157.0hPa | 2.6V | 00:00:00 | 02:13:15 | 00:00:00 | |
| DF7PN | 2026-09-01 17:23:33 | 47.86740 | 11.99072 | 81° | 73km/h | 13733m | -8.9m/s | -54.8°C | 2.4% | 156.5hPa | 2.6V | 00:00:00 | 00:00:00 | 00:00:00 | |
| DO3MHA-11 | 2026-09-01 17:23:31 | 47.86738 | 11.99044 | 82° | 80km/h | 13742m | -8.7m/s | -54.7°C | 5.4% | 156.3hPa | 2.6V | 00:00:00 | 02:13:12 | 00:00:00 | |
| BAUMI2-15 | 2026-09-01 17:23:30 | 47.86734 | 11.99016 | 81° | 78km/h | 13751m | -8.6m/s | -54.8°C | 5.4% | 156.1hPa | 2.6V | 00:00:00 | 02:13:11 | 00:00:00 | |
| DN1GJH-1 | 2026-09-01 17:23:29 | 47.86734 | 11.99016 | 82° | 77km/h | 13751m | -8.7m/s | -54.8°C | 2.4% | 156.1hPa | 2.6V | 08:16:00 | 00:00:00 | 00:00:00 | |
| DB0NH | 2026-09-01 17:23:27 | 47.86724 | 11.98929 | 80° | 91km/h | 13777m | -8.9m/s | -54.7°C | 5.4% | 155.5hPa | 2.6V | 00:00:00 | 02:13:08 | 00:00:00 | |
| BAUMI2-15 | 2026-09-01 17:23:25 | 47.86716 | 11.98869 | 80° | 82km/h | 13795m | -8.4m/s | -54.7°C | 5.3% | 155.0hPa | 2.6V | 00:00:00 | 02:13:06 | 00:00:00 | |
| DO3MHA-12 | 2026-09-01 17:23:24 | 47.86713 | 11.98839 | 80° | 82km/h | 13803m | -8.7m/s | -54.5°C | 5.2% | 154.8hPa | 2.6V | 00:00:00 | 02:13:05 | 00:00:00 | |
| OE5WHR-10 | 2026-09-01 17:23:23 | 47.86709 | 11.98808 | 81° | 84km/h | 13812m | -8.6m/s | -54.5°C | 5.2% | 154.6hPa | 2.6V | 00:00:00 | 00:00:00 | 00:00:00 | |
| DO3MHA-11 | 2026-09-01 17:23:21 | 47.86703 | 11.98747 | 82° | 82km/h | 13829m | -8.8m/s | -54.6°C | 5.3% | 154.2hPa | 2.6V | 00:00:00 | 02:13:02 | 00:00:00 | |
| BAUMI2-15 | 2026-09-01 17:23:20 | 47.86699 | 11.98716 | 82° | 82km/h | 13839m | -8.9m/s | -54.6°C | 5.3% | 153.9hPa | 2.6V | 00:00:00 | 02:13:01 | 00:00:00 | |
| DB0UT-7 | 2026-09-01 17:23:19 | 47.86696 | 11.98685 | 82° | 88km/h | 13847m | -8.8m/s | -54.6°C | 5.3% | 153.7hPa | 2.6V | 00:00:00 | 02:13:00 | 00:00:00 | |
| DL6DJ-15 | 2026-09-01 17:23:18 | 47.86693 | 11.98654 | 82° | 82km/h | 13856m | -8.8m/s | -54.6°C | 2.3% | 153.6hPa | 2.6V | 00:00:00 | 00:00:00 | 00:00:00 | |
| BAUMI2-15 | 2026-09-01 17:23:15 | 47.86685 | 11.98562 | 83° | 84km/h | 13883m | -8.9m/s | -54.6°C | 5.2% | 152.9hPa | 2.6V | 08:16:00 | 02:12:56 | 00:00:00 | |
| DO3MHA-12 | 2026-09-01 17:23:14 | 47.86682 | 11.98531 | 83° | 86km/h | 13892m | -8.7m/s | -54.6°C | 5.3% | 152.7hPa | 2.6V | 00:00:00 | 02:12:55 | 00:00:00 | |
| OE5DXL-15 | 2026-09-01 17:23:12 | 47.86676 | 11.98469 | 83° | 91km/h | 13909m | -8.5m/s | -54.7°C | 5.2% | 152.3hPa | 2.6V | 08:16:00 | 00:00:00 | 00:00:00 | |
| BAUMI2-15 | 2026-09-01 17:23:10 | 47.86670 | 11.98406 | 82° | 86km/h | 13927m | -8.8m/s | -54.7°C | 5.2% | 151.8hPa | 2.6V | 00:00:00 | 02:12:51 | 00:00:00 | |
| DN1GJH-1 | 2026-09-01 17:23:06 | 47.86660 | 11.98311 | 82° | 86km/h | 13953m | -8.7m/s | -54.5°C | 2.2% | 151.3hPa | 2.6V | 08:16:00 | 00:00:00 | 00:00:00 | |
| DO3MHA-12 | 2026-09-01 17:23:04 | 47.86649 | 11.98214 | 81° | 88km/h | 13979m | -8.8m/s | -54.3°C | 5.0% | 150.6hPa | 2.6V | 00:00:00 | 02:12:45 | 00:00:00 | |
| BAUMI2-15 | 2026-09-01 17:23:03 | 47.86645 | 11.98182 | 81° | 88km/h | 13988m | -8.7m/s | -54.3°C | 5.0% | 150.4hPa | 2.6V | 00:00:00 | 02:12:44 | 00:00:00 | |
| DF7PN | 2026-09-01 17:23:02 | 47.86638 | 11.98118 | 79° | 86km/h | 14006m | -8.7m/s | -54.4°C | 2.2% | 150.0hPa | 2.6V | 00:00:00 | 00:00:00 | 00:00:00 | |
| DF3TZ-5 | 2026-09-01 17:22:52 | 47.86577 | 11.97752 | 77° | 95km/h | 14104m | -9.0m/s | -55.1°C | 2.2% | 147.7hPa | 2.6V | 00:00:00 | 00:00:00 | 00:00:00 | |
| DL6DJ-15 | 2026-09-01 17:22:47 | 47.86562 | 11.97647 | 78° | 95km/h | 14131m | -9.1m/s | -55.3°C | 2.2% | 147.1hPa | 2.6V | 00:00:00 | 00:00:00 | 00:00:00 | |
| DK5PH-5 | 2026-09-01 17:22:46 | 47.86558 | 11.97611 | 79° | 88km/h | 14140m | -9.0m/s | -55.3°C | 5.3% | 146.9hPa | 2.6V | 08:16:00 | 02:12:27 | 00:00:00 | |
| DN1GJH-1 | 2026-09-01 17:22:45 | 47.86558 | 11.97611 | 80° | 97km/h | 14140m | -9.1m/s | -55.4°C | 2.2% | 146.9hPa | 2.6V | 00:00:00 | 00:00:00 | 00:00:00 | |
| DO3MHA-12 | 2026-09-01 17:22:44 | 47.86549 | 11.97540 | 81° | 93km/h | 14158m | -8.8m/s | -55.4°C | 5.3% | 146.5hPa | 2.6V | 00:00:00 | 02:12:25 | 00:00:00 | |
| BAUMI2-15 | 2026-09-01 17:22:43 | 47.86545 | 11.97504 | 81° | 95km/h | 14167m | -9.0m/s | -55.2°C | 5.2% | 146.3hPa | 2.6V | 00:00:00 | 02:12:24 | 00:00:00 | |
| OE5DXL-15 | 2026-09-01 17:22:42 | 47.86541 | 11.97468 | 82° | 86km/h | 14176m | -8.7m/s | -55.0°C | 5.1% | 146.1hPa | 2.6V | 00:00:00 | 00:00:00 | 00:00:00 | |
| OE5WHR-10 | 2026-09-01 17:22:41 | 47.86538 | 11.97432 | 83° | 88km/h | 14185m | -8.5m/s | -54.8°C | 5.0% | 145.9hPa | 2.6V | 08:16:00 | 00:00:00 | 00:00:00 | |
| DO8TBO-1 | 2026-09-01 17:22:40 | 47.86535 | 11.97397 | 84° | 86km/h | 14193m | -8.7m/s | -54.7°C | 4.9% | 145.7hPa | 2.6V | 00:00:00 | 02:12:21 | 00:00:00 | |
| BAUMI2-15 | 2026-09-01 17:22:38 | 47.86530 | 11.97327 | 85° | 89km/h | 14211m | -8.8m/s | -54.6°C | 4.9% | 145.3hPa | 2.6V | 00:00:00 | 02:12:19 | 00:00:00 | |
| DO3MHA-12 | 2026-09-01 17:22:34 | 47.86523 | 11.97191 | 87° | 88km/h | 14247m | -9.0m/s | -54.7°C | 4.9% | 144.5hPa | 2.6V | 00:00:00 | 02:12:15 | 00:00:00 | |
| OE5DRO-10 | 2026-09-01 17:22:33 | 47.86521 | 11.97158 | 87° | 84km/h | 14256m | -9.0m/s | -54.7°C | 4.9% | 144.3hPa | 2.6V | 00:00:00 | 00:00:00 | 00:00:00 | |
| OE5MMP-10 | 2026-09-01 17:22:31 | 47.86519 | 11.97092 | 87° | 86km/h | 14274m | -8.7m/s | -54.7°C | 4.9% | 143.8hPa | 2.6V | 00:00:00 | 02:12:12 | 00:00:00 | |
| BAUMI2-15 | 2026-09-01 17:22:30 | 47.86518 | 11.97060 | 88° | 88km/h | 14283m | -8.8m/s | -54.7°C | 4.9% | 143.6hPa | 2.6V | 00:00:00 | 02:12:11 | 00:00:00 | |
| DG1MJG | 2026-09-01 17:22:28 | 47.86517 | 11.97027 | 88° | 86km/h | 14291m | -8.8m/s | -54.8°C | 2.0% | 143.5hPa | 2.6V | 08:17:00 | 00:00:00 | 00:00:00 | |
| BAUMI2-15 | 2026-09-01 17:22:25 | 47.86514 | 11.96897 | 91° | 86km/h | 14327m | -8.7m/s | -54.9°C | 5.0% | 142.7hPa | 2.6V | 08:17:00 | 02:12:06 | 00:00:00 | |
| DO3MHA-12 | 2026-09-01 17:22:24 | 47.86514 | 11.96864 | 92° | 82km/h | 14335m | -8.9m/s | -54.9°C | 5.0% | 142.4hPa | 2.6V | 00:00:00 | 02:12:05 | 00:00:00 | |
| DO3MHA-11 | 2026-09-01 17:22:21 | 47.86517 | 11.96769 | 94° | 80km/h | 14363m | -9.0m/s | -55.0°C | 5.1% | 141.9hPa | 2.6V | 00:00:00 | 02:12:02 | 00:00:00 | |
| DB0UT-7 | 2026-09-01 17:22:19 | 47.86519 | 11.96707 | 94° | 69km/h | 14381m | -9.0m/s | -55.1°C | 5.0% | 141.4hPa | 2.6V | 00:00:00 | 02:12:00 | 00:00:00 | |
| DL6DJ-15 | 2026-09-01 17:22:16 | 47.86524 | 11.96617 | 95° | 78km/h | 14408m | -9.0m/s | -55.2°C | 2.0% | 140.8hPa | 2.6V | 00:00:00 | 00:00:00 | 00:00:00 | |
| BAUMI2-15 | 2026-09-01 17:22:15 | 47.86526 | 11.96588 | 96° | 77km/h | 14417m | -8.9m/s | -55.0°C | 5.0% | 140.6hPa | 2.6V | 00:00:00 | 02:11:56 | 00:00:00 | |
| DO3MHA-12 | 2026-09-01 17:22:14 | 47.86528 | 11.96558 | 96° | 73km/h | 14426m | -9.0m/s | -54.8°C | 5.0% | 140.5hPa | 2.6V | 00:00:00 | 02:11:55 | 00:00:00 | |
| OE5DXL-15 | 2026-09-01 17:22:12 | 47.86532 | 11.96501 | 97° | 68km/h | 14443m | -8.7m/s | -54.6°C | 4.9% | 140.1hPa | 2.6V | 00:00:00 | 00:00:00 | 00:00:00 | |
| DO3MHA-11 | 2026-09-01 17:22:11 | 47.86535 | 11.96473 | 97° | 69km/h | 14452m | -8.8m/s | -54.5°C | 4.9% | 139.9hPa | 2.6V | 00:00:00 | 02:11:52 | 00:00:00 | |
| BAUMI2-15 | 2026-09-01 17:22:10 | 47.86537 | 11.96445 | 97° | 71km/h | 14461m | -9.1m/s | -54.4°C | 4.8% | 139.6hPa | 2.6V | 00:00:00 | 02:11:51 | 00:00:00 | |
| BAUMI2-15 | 2026-09-01 17:22:05 | 47.86546 | 11.96312 | 96° | 64km/h | 14507m | -9.1m/s | -54.3°C | 4.8% | 138.7hPa | 2.7V | 00:00:00 | 02:11:46 | 00:00:00 | |
| DO3MHA-12 | 2026-09-01 17:22:04 | 47.86548 | 11.96286 | 96° | 64km/h | 14516m | -9.2m/s | -54.4°C | 4.9% | 138.5hPa | 2.7V | 00:00:00 | 02:11:45 | 00:00:00 | |
| DF7PN | 2026-09-01 17:22:00 | 47.86541 | 11.95997 | 83° | 64km/h | 14625m | -9.3m/s | -54.7°C | 1.9% | 136.2hPa | 2.7V | 00:00:00 | 00:00:00 | 00:00:00 | |
| DL6DJ-15 | 2026-09-01 17:21:45 | 47.86528 | 11.95820 | 84° | 71km/h | 14688m | -9.3m/s | -54.1°C | 1.9% | 134.8hPa | 2.7V | 00:00:00 | 00:00:00 | 00:00:00 | |
| DO3MHA-12 | 2026-09-01 17:21:44 | 47.86526 | 11.95793 | 85° | 71km/h | 14698m | -9.2m/s | -54.1°C | 4.9% | 134.6hPa | 2.7V | 00:00:00 | 02:11:25 | 00:00:00 | |
| OE5DXL-15 | 2026-09-01 17:21:42 | 47.86522 | 11.95739 | 86° | 69km/h | 14717m | -9.1m/s | -54.0°C | 4.8% | 134.2hPa | 2.7V | 00:00:00 | 02:11:23 | 00:00:00 | |
| DO3MHA-11 | 2026-09-01 17:21:41 | 47.86521 | 11.95712 | 86° | 71km/h | 14726m | -9.4m/s | -53.9°C | 4.8% | 134.0hPa | 2.6V | 00:00:00 | 02:11:22 | 00:00:00 | |
| DO8TBO-1 | 2026-09-01 17:21:40 | 47.86519 | 11.95686 | 86° | 69km/h | 14735m | -9.3m/s | -53.9°C | 4.8% | 133.8hPa | 2.6V | 00:00:00 | 02:11:21 | 00:00:00 | |
| OE5WHR-10 | 2026-09-01 17:21:38 | 47.86517 | 11.95633 | 87° | 69km/h | 14754m | -9.2m/s | -53.6°C | 4.6% | 133.4hPa | 2.6V | 00:00:00 | 00:00:00 | 00:00:00 | |
| DK5PH-5 | 2026-09-01 17:21:36 | 47.86514 | 11.95580 | 86° | 71km/h | 14772m | -9.2m/s | -53.1°C | 4.5% | 133.1hPa | 2.6V | 00:00:00 | 02:11:17 | 00:00:00 | |
| DO3MHA-12 | 2026-09-01 17:21:34 | 47.86512 | 11.95527 | 87° | 69km/h | 14790m | -8.9m/s | -53.0°C | 4.4% | 132.7hPa | 2.6V | 00:00:00 | 02:11:15 | 00:00:00 | |
| DO3MHA-11 | 2026-09-01 17:21:31 | 47.86508 | 11.95449 | 87° | 69km/h | 14818m | -9.4m/s | -52.8°C | 4.3% | 132.1hPa | 2.6V | 08:18:00 | 02:11:12 | 00:00:00 | |
| DG1MFX-10 | 2026-09-01 17:21:30 | 47.86508 | 11.95449 | 87° | 69km/h | 14818m | -9.5m/s | -52.9°C | 1.7% | 132.2hPa | 2.6V | 08:18:00 | 00:00:00 | 00:00:00 | |
| OM5KV | 2026-09-01 17:21:28 | 47.86506 | 11.95396 | 88° | 69km/h | 14837m | -9.4m/s | -52.8°C | 1.7% | 131.8hPa | 2.6V | 08:18:00 | 00:00:00 | 00:00:00 | |
| DO3MHA-12 | 2026-09-01 17:21:24 | 47.86501 | 11.95265 | 87° | 69km/h | 14883m | -9.2m/s | -53.0°C | 4.4% | 130.8hPa | 2.6V | 08:18:00 | 02:11:05 | 00:00:00 | |
| OM5KV | 2026-09-01 17:21:21 | 47.86498 | 11.95214 | 84° | 69km/h | 14902m | -9.1m/s | -53.2°C | 1.7% | 130.5hPa | 2.7V | 08:18:00 | 00:00:00 | 00:00:00 | |
| DF3TZ-5 | 2026-09-01 17:21:19 | 47.86488 | 11.95111 | 79° | 69km/h | 14939m | -9.5m/s | -53.5°C | 1.7% | 129.7hPa | 2.7V | 00:00:00 | 00:00:00 | 00:00:00 | |
| OE5WHR-10 | 2026-09-01 17:21:17 | 47.86484 | 11.95085 | 80° | 73km/h | 14948m | -9.4m/s | -53.5°C | 4.5% | 129.5hPa | 2.7V | 00:00:00 | 00:00:00 | 00:00:00 | |
| OM5KV | 2026-09-01 17:21:16 | 47.86484 | 11.95085 | 81° | 69km/h | 14948m | -9.4m/s | -53.6°C | 1.7% | 129.5hPa | 2.7V | 08:18:00 | 00:00:00 | 00:00:00 | |
| NBG1-10 | 2026-09-01 17:21:15 | 47.86478 | 11.95033 | 80° | 77km/h | 14967m | -9.2m/s | -53.7°C | 4.6% | 129.1hPa | 2.7V | 00:00:00 | 02:10:56 | 00:00:00 | |
| DO3MHA-12 | 2026-09-01 17:21:14 | 47.86475 | 11.95007 | 80° | 71km/h | 14977m | -9.2m/s | -53.8°C | 4.6% | 129.0hPa | 2.7V | 00:00:00 | 02:10:55 | 00:00:00 | |
| OE5DXL-15 | 2026-09-01 17:21:12 | 47.86468 | 11.94955 | 80° | 77km/h | 14995m | -9.1m/s | -53.9°C | 4.7% | 128.6hPa | 2.7V | 00:00:00 | 00:00:00 | 00:00:00 | |
| DO3MHA-11 | 2026-09-01 17:21:11 | 47.86465 | 11.94929 | 80° | 73km/h | 15004m | -9.1m/s | -53.8°C | 4.7% | 128.4hPa | 2.7V | 00:00:00 | 02:10:52 | 00:00:00 | |
| DG1MFX-10 | 2026-09-01 17:21:10 | 47.86465 | 11.94929 | 81° | 71km/h | 15004m | -9.1m/s | -53.9°C | 1.8% | 128.4hPa | 2.7V | 08:19:00 | 00:00:00 | 00:00:00 | |
| OM5KV | 2026-09-01 17:21:09 | 47.86462 | 11.94902 | 81° | 71km/h | 15013m | -9.2m/s | -53.9°C | 1.7% | 128.2hPa | 2.7V | 08:19:00 | 00:00:00 | 00:00:00 | |
| DK5PH-5 | 2026-09-01 17:21:05 | 47.86447 | 11.94767 | 82° | 78km/h | 15059m | -9.5m/s | -53.5°C | 4.5% | 127.2hPa | 2.7V | 00:00:00 | 02:10:46 | 00:00:00 | |
| DO3MHA-12 | 2026-09-01 17:21:04 | 47.86444 | 11.94740 | 82° | 77km/h | 15069m | -9.4m/s | -53.6°C | 4.5% | 127.1hPa | 2.7V | 00:00:00 | 02:10:45 | 00:00:00 | |
| DF7PN | 2026-09-01 17:20:57 | 47.86426 | 11.94539 | 82° | 77km/h | 15134m | -9.2m/s | -54.1°C | 1.8% | 125.8hPa | 2.7V | 00:00:00 | 00:00:00 | 00:00:00 | |
| OE5WHR-10 | 2026-09-01 17:20:56 | 47.86424 | 11.94510 | 83° | 80km/h | 15143m | -9.1m/s | -54.1°C | 4.7% | 125.6hPa | 2.7V | 00:00:00 | 02:10:37 | 00:00:00 | |
| DO3MHA-12 | 2026-09-01 17:20:54 | 47.86419 | 11.94452 | 83° | 78km/h | 15162m | -9.1m/s | -54.0°C | 4.6% | 125.3hPa | 2.7V | 00:00:00 | 02:10:35 | 00:00:00 | |
| OM5KV | 2026-09-01 17:20:52 | 47.86417 | 11.94423 | 84° | 78km/h | 15171m | -9.4m/s | -54.0°C | 1.7% | 125.1hPa | 2.7V | 08:19:00 | 00:00:00 | 00:00:00 | |
| DO3MHA-11 | 2026-09-01 17:20:51 | 47.86412 | 11.94365 | 84° | 80km/h | 15190m | -9.2m/s | -53.9°C | 4.5% | 124.7hPa | 2.7V | 00:00:00 | 02:10:32 | 00:00:00 | |
| DB0UT-7 | 2026-09-01 17:20:49 | 47.86408 | 11.94306 | 84° | 82km/h | 15208m | -9.4m/s | -53.8°C | 4.5% | 124.3hPa | 2.7V | 00:00:00 | 00:00:00 | 00:00:00 | |
| OM5KV | 2026-09-01 17:20:47 | 47.86405 | 11.94276 | 84° | 80km/h | 15218m | -9.3m/s | -53.9°C | 1.7% | 124.2hPa | 2.7V | 08:19:00 | 00:00:00 | 00:00:00 | |
| DO3MHA-12 | 2026-09-01 17:20:44 | 47.86397 | 11.94155 | 85° | 82km/h | 15255m | -9.3m/s | -54.1°C | 4.6% | 123.5hPa | 2.7V | 00:00:00 | 02:10:25 | 00:00:00 | |
| DL6DJ-15 | 2026-09-01 17:20:43 | 47.86393 | 11.94093 | 85° | 82km/h | 15273m | -9.3m/s | -54.2°C | 1.7% | 123.1hPa | 2.7V | 00:00:00 | 00:00:00 | 00:00:00 | |
| OE5DXL-15 | 2026-09-01 17:20:42 | 47.86393 | 11.94093 | 86° | 80km/h | 15274m | -9.2m/s | -54.1°C | 4.6% | 123.1hPa | 2.7V | 00:00:00 | 00:00:00 | 00:00:00 | |
| DO3MHA-11 | 2026-09-01 17:20:41 | 47.86391 | 11.94062 | 85° | 82km/h | 15283m | -9.7m/s | -54.1°C | 4.6% | 122.9hPa | 2.7V | 00:00:00 | 02:10:22 | 00:00:00 | |
| DO8TBO-1 | 2026-09-01 17:20:40 | 47.86389 | 11.94032 | 86° | 78km/h | 15293m | -9.5m/s | -54.2°C | 4.6% | 122.7hPa | 2.7V | 00:00:00 | 02:10:21 | 00:00:00 | |
| OE3JTB-15 | 2026-09-01 17:20:39 | 47.86388 | 11.94001 | 86° | 78km/h | 15302m | -9.4m/s | 0°C | 0% | 0hPa | 2.7V | 00:00:00 | 00:00:00 | 00:00:00 | |
| OM5KV | 2026-09-01 17:20:37 | 47.86386 | 11.93970 | 86° | 82km/h | 15312m | -9.4m/s | -54.3°C | 1.7% | 122.4hPa | 2.7V | 08:19:00 | 00:00:00 | 00:00:00 | |
| DK5PH-5 | 2026-09-01 17:20:35 | 47.86381 | 11.93879 | 87° | 77km/h | 15339m | -9.2m/s | -54.4°C | 4.7% | 121.8hPa | 2.7V | 00:00:00 | 02:10:16 | 00:00:00 | |
| DO3MHA-12 | 2026-09-01 17:20:34 | 47.86380 | 11.93848 | 87° | 80km/h | 15349m | -9.4m/s | -54.4°C | 4.7% | 121.7hPa | 2.7V | 00:00:00 | 02:10:15 | 00:00:00 | |
| IN3HCDX | 2026-09-01 17:20:32 | 47.86379 | 11.93818 | 88° | 80km/h | 15358m | -9.4m/s | -54.5°C | 1.7% | 121.5hPa | 2.7V | 00:00:00 | 00:00:00 | 00:00:00 | |
| DO3MHA-11 | 2026-09-01 17:20:31 | 47.86377 | 11.93758 | 88° | 82km/h | 15377m | -9.6m/s | -54.5°C | 4.7% | 121.1hPa | 2.7V | 00:00:00 | 02:10:12 | 00:00:00 | |
| DG1MFX-10 | 2026-09-01 17:20:28 | 47.86376 | 11.93698 | 89° | 80km/h | 15396m | -9.7m/s | -54.7°C | 1.8% | 120.8hPa | 2.6V | 08:19:00 | 00:00:00 | 00:00:00 | |
| OM5KV | 2026-09-01 17:20:27 | 47.86374 | 11.93637 | 89° | 82km/h | 15415m | -9.8m/s | -54.8°C | 1.8% | 120.4hPa | 2.6V | 08:19:00 | 00:00:00 | 00:00:00 | |
| OM5KV | 2026-09-01 17:20:26 | 47.86374 | 11.93637 | 89° | 82km/h | 15415m | -9.8m/s | -54.8°C | 1.8% | 120.4hPa | 2.6V | 08:19:00 | 00:00:00 | 00:00:00 | |
| DO3MHA-12 | 2026-09-01 17:20:24 | 47.86373 | 11.93544 | 90° | 78km/h | 15444m | -9.7m/s | -54.8°C | 4.8% | 119.9hPa | 2.6V | 00:00:00 | 02:10:05 | 00:00:00 | |
| DO3MHA-11 | 2026-09-01 17:20:21 | 47.86374 | 11.93452 | 92° | 75km/h | 15473m | -9.5m/s | -54.8°C | 4.7% | 119.3hPa | 2.6V | 00:00:00 | 02:10:02 | 00:00:00 | |
| OE5DRO-10 | 2026-09-01 17:20:20 | 47.86374 | 11.93422 | 92° | 68km/h | 15482m | -9.7m/s | -54.7°C | 4.7% | 119.1hPa | 2.6V | 00:00:00 | 00:00:00 | 00:00:00 | |
| DB0UT-7 | 2026-09-01 17:20:19 | 47.86375 | 11.93392 | 92° | 62km/h | 15492m | -9.6m/s | -54.7°C | 4.7% | 119.0hPa | 2.6V | 00:00:00 | 02:10:00 | 00:00:00 | |
| DF3TZ-5 | 2026-09-01 17:20:17 | 47.86376 | 11.93306 | 91° | 75km/h | 15521m | -9.6m/s | -54.8°C | 1.7% | 118.5hPa | 2.6V | 00:00:00 | 00:00:00 | 00:00:00 | |
| DO3MHA-12 | 2026-09-01 17:20:14 | 47.86377 | 11.93250 | 91° | 68km/h | 15540m | -9.9m/s | -54.6°C | 4.7% | 118.1hPa | 2.6V | 00:00:00 | 02:09:55 | 00:00:00 | |
| OE5DXL-15 | 2026-09-01 17:20:12 | 47.86377 | 11.93196 | 91° | 58km/h | 15559m | -9.9m/s | -54.6°C | 4.8% | 117.7hPa | 2.6V | 00:00:00 | 00:00:00 | 00:00:00 | |
| DO3MHA-11 | 2026-09-01 17:20:11 | 47.86377 | 11.93169 | 92° | 62km/h | 15569m | -9.7m/s | -54.6°C | 4.8% | 117.5hPa | 2.6V | 00:00:00 | 02:09:52 | 00:00:00 | |
| OE3JTB-15 | 2026-09-01 17:20:10 | 47.86378 | 11.93143 | 93° | 57km/h | 15579m | -9.7m/s | 0°C | 0% | 0hPa | 2.6V | 00:00:00 | 02:09:51 | 00:00:00 | |
| NBG1-10 | 2026-09-01 17:20:09 | 47.86379 | 11.93117 | 93° | 58km/h | 15589m | -9.8m/s | -54.6°C | 4.8% | 117.2hPa | 2.6V | 00:00:00 | 02:09:50 | 00:00:00 | |
| OM5KV | 2026-09-01 17:20:08 | 47.86379 | 11.93117 | 94° | 68km/h | 15589m | -9.9m/s | -54.6°C | 1.7% | 117.2hPa | 2.6V | 08:20:00 | 00:00:00 | 00:00:00 | |
| DG1MFX-10 | 2026-09-01 17:20:07 | 47.86380 | 11.93092 | 95° | 66km/h | 15599m | -9.8m/s | -54.6°C | 1.8% | 117.1hPa | 2.6V | 08:20:00 | 00:00:00 | 00:00:00 | |
| DG1MJG | 2026-09-01 17:20:06 | 47.86381 | 11.93069 | 95° | 62km/h | 15609m | -9.7m/s | -54.7°C | 1.7% | 116.9hPa | 2.6V | 08:20:00 | 00:00:00 | 00:00:00 | |
| DK5PH-5 | 2026-09-01 17:20:05 | 47.86383 | 11.93023 | 95° | 58km/h | 15628m | -9.9m/s | -54.6°C | 4.8% | 116.4hPa | 2.6V | 00:00:00 | 02:09:46 | 00:00:00 | |
| DO3MHA-12 | 2026-09-01 17:20:04 | 47.86384 | 11.93002 | 94° | 53km/h | 15638m | -9.8m/s | -54.6°C | 4.7% | 116.3hPa | 2.6V | 00:00:00 | 02:09:45 | 00:00:00 | |
| OM5KV | 2026-09-01 17:20:02 | 47.86385 | 11.92982 | 94° | 55km/h | 15648m | -9.8m/s | -54.7°C | 1.7% | 116.1hPa | 2.6V | 08:20:00 | 00:00:00 | 00:00:00 | |
| DF7PN | 2026-09-01 17:19:55 | 47.86389 | 11.92823 | 91° | 53km/h | 15727m | -10.0m/s | -54.3°C | 1.7% | 114.7hPa | 2.6V | 00:00:00 | 00:00:00 | 00:00:00 | |
| DF3TZ-5 | 2026-09-01 17:19:46 | 47.86389 | 11.92600 | 89° | 62km/h | 15827m | -10.0m/s | -54.3°C | 1.6% | 112.9hPa | 2.6V | 00:00:00 | 00:00:00 | 00:00:00 | |
| OM5KV | 2026-09-01 17:19:45 | 47.86389 | 11.92623 | 91° | 62km/h | 15817m | -10.1m/s | -54.2°C | 1.6% | 113.1hPa | 2.6V | 08:20:00 | 00:00:00 | 00:00:00 | |
| DO3MHA-12 | 2026-09-01 17:19:44 | 47.86389 | 11.92576 | 90° | 60km/h | 15837m | -9.9m/s | -54.2°C | 4.5% | 112.7hPa | 2.6V | 00:00:00 | 02:09:25 | 00:00:00 | |
| OE5DXL-15 | 2026-09-01 17:19:42 | 47.86388 | 11.92529 | 91° | 55km/h | 15857m | -10.2m/s | -54.2°C | 4.5% | 112.3hPa | 2.6V | 00:00:00 | 00:00:00 | 00:00:00 | |
| DO3MHA-11 | 2026-09-01 17:19:41 | 47.86388 | 11.92506 | 91° | 57km/h | 15868m | -9.9m/s | -54.3°C | 4.5% | 112.2hPa | 2.6V | 00:00:00 | 02:09:22 | 00:00:00 | |
| DO8TBO-1 | 2026-09-01 17:19:40 | 47.86389 | 11.92483 | 92° | 22km/h | 15878m | -10.1m/s | -54.3°C | 4.6% | 112.0hPa | 2.6V | 00:00:00 | 02:09:21 | 00:00:00 | |
| NBG1-10 | 2026-09-01 17:19:36 | 47.86391 | 11.92394 | 94° | 55km/h | 15918m | -9.9m/s | -54.3°C | 4.6% | 111.3hPa | 2.6V | 00:00:00 | 02:09:17 | 00:00:00 | |
| DK5PH-5 | 2026-09-01 17:19:35 | 47.86392 | 11.92373 | 94° | 55km/h | 15928m | -10.0m/s | -54.3°C | 4.5% | 111.2hPa | 2.6V | 00:00:00 | 02:09:16 | 00:00:00 | |
| DO3MHA-12 | 2026-09-01 17:19:34 | 47.86393 | 11.92353 | 94° | 51km/h | 15938m | -10.0m/s | -54.2°C | 4.5% | 110.9hPa | 2.7V | 00:00:00 | 02:09:15 | 00:00:00 | |
| BAUMI2-15 | 2026-09-01 17:19:33 | 47.86393 | 11.92332 | 94° | 51km/h | 15948m | -10.0m/s | -54.3°C | 4.5% | 110.8hPa | 2.7V | 08:20:00 | 02:09:14 | 00:00:00 | |
| OE5WHR-10 | 2026-09-01 17:19:32 | 47.86394 | 11.92313 | 93° | 53km/h | 15958m | -10.1m/s | -54.3°C | 4.5% | 110.6hPa | 2.7V | 08:20:00 | 00:00:00 | 00:00:00 | |
| DO3MHA-11 | 2026-09-01 17:19:31 | 47.86395 | 11.92294 | 93° | 51km/h | 15968m | -9.9m/s | -54.3°C | 4.5% | 110.4hPa | 2.6V | 00:00:00 | 02:09:12 | 00:00:00 | |
| BAUMI2-15 | 2026-09-01 17:19:27 | 47.86396 | 11.92218 | 91° | 53km/h | 16009m | -10.0m/s | -54.4°C | 4.5% | 109.7hPa | 2.6V | 00:00:00 | 02:09:08 | 00:00:00 | |
| DG1MFX-10 | 2026-09-01 17:19:26 | 47.86395 | 11.92218 | 91° | 51km/h | 16009m | -10.0m/s | -54.5°C | 1.6% | 109.8hPa | 2.6V | 08:20:00 | 00:00:00 | 00:00:00 | |
| IN3HCDX | 2026-09-01 17:19:25 | 47.86396 | 11.92199 | 91° | 51km/h | 16019m | -10.1m/s | -54.4°C | 1.6% | 109.6hPa | 2.6V | 00:00:00 | 00:00:00 | 00:00:00 | |
| DO3MHA-12 | 2026-09-01 17:19:24 | 47.86396 | 11.92160 | 90° | 55km/h | 16039m | -10.1m/s | -54.4°C | 4.5% | 109.2hPa | 2.6V | 00:00:00 | 02:09:05 | 00:00:00 | |
| OE5DRO-10 | 2026-09-01 17:19:23 | 47.86395 | 11.92139 | 90° | 55km/h | 16049m | -9.9m/s | -54.5°C | 4.5% | 109.1hPa | 2.6V | 00:00:00 | 00:00:00 | 00:00:00 | |
| OM5KV | 2026-09-01 17:19:22 | 47.86395 | 11.92139 | 90° | 53km/h | 16049m | -9.9m/s | -54.5°C | 1.6% | 109.1hPa | 2.6V | 08:20:00 | 00:00:00 | 00:00:00 | |
| PG1ADW-2 | 2026-09-01 17:19:21 | 47.86395 | 11.92099 | 89° | 57km/h | 16070m | -10.2m/s | -54.5°C | 4.5% | 108.7hPa | 2.6V | 00:00:00 | 00:00:00 | 00:00:00 | |
| BAUMI2-15 | 2026-09-01 17:19:20 | 47.86395 | 11.92078 | 89° | 55km/h | 16080m | -10.0m/s | -54.5°C | 4.5% | 108.5hPa | 2.6V | 00:00:00 | 02:09:01 | 00:00:00 | |
| OM5KV | 2026-09-01 17:19:19 | 47.86395 | 11.92058 | 89° | 55km/h | 16090m | -10.1m/s | -54.6°C | 1.6% | 108.4hPa | 2.6V | 08:20:00 | 00:00:00 | 00:00:00 | |
| DL2OL | 2026-09-01 17:19:18 | 47.86395 | 11.92058 | 89° | 55km/h | 16090m | -10.1m/s | -54.6°C | 1.6% | 108.4hPa | 2.6V | 00:00:00 | 00:00:00 | 00:00:00 | |
| BAUMI2-15 | 2026-09-01 17:19:15 | 47.86392 | 11.91976 | 89° | 57km/h | 16131m | -10.5m/s | -54.8°C | 4.6% | 107.7hPa | 2.6V | 00:00:00 | 02:08:56 | 00:00:00 | |
| DO3MHA-12 | 2026-09-01 17:19:14 | 47.86392 | 11.91955 | 89° | 57km/h | 16141m | -10.1m/s | -54.8°C | 4.6% | 107.5hPa | 2.6V | 00:00:00 | 02:08:55 | 00:00:00 | |
| OE3JTB-15 | 2026-09-01 17:19:13 | 47.86392 | 11.91934 | 90° | 57km/h | 16151m | -10.0m/s | 0°C | 0% | 0hPa | 2.6V | 00:00:00 | 00:00:00 | 08:30:00 | |
| OE5DXL-15 | 2026-09-01 17:19:12 | 47.86392 | 11.91913 | 91° | 57km/h | 16161m | -10.3m/s | -54.9°C | 4.6% | 107.2hPa | 2.6V | 00:00:00 | 00:00:00 | 00:00:00 | |
| DO3MHA-11 | 2026-09-01 17:19:11 | 47.86392 | 11.91892 | 91° | 57km/h | 16171m | -10.1m/s | -54.9°C | 4.6% | 107.0hPa | 2.6V | 00:00:00 | 02:08:52 | 00:00:00 | |
| DL6DJ-15 | 2026-09-01 17:19:10 | 47.86392 | 11.91850 | 91° | 55km/h | 16192m | -10.3m/s | -55.1°C | 1.6% | 106.7hPa | 2.6V | 00:00:00 | 00:00:00 | 00:00:00 | |
| OM5KV | 2026-09-01 17:19:07 | 47.86393 | 11.91807 | 93° | 57km/h | 16213m | -10.4m/s | -55.1°C | 1.6% | 106.4hPa | 2.6V | 08:20:00 | 00:00:00 | 00:00:00 | |
| DG1MFX-10 | 2026-09-01 17:19:06 | 47.86393 | 11.91807 | 93° | 57km/h | 16213m | -10.4m/s | -55.1°C | 1.6% | 106.4hPa | 2.6V | 08:20:00 | 00:00:00 | 00:00:00 | |
| DK5PH-5 | 2026-09-01 17:19:05 | 47.86394 | 11.91764 | 92° | 55km/h | 16234m | -10.1m/s | -55.2°C | 4.6% | 106.0hPa | 2.6V | 00:00:00 | 02:08:46 | 00:00:00 | |
| DO3MHA-12 | 2026-09-01 17:19:04 | 47.86394 | 11.91742 | 93° | 58km/h | 16244m | -10.1m/s | -55.3°C | 4.6% | 105.8hPa | 2.6V | 00:00:00 | 02:08:45 | 00:00:00 | |
| NBG1-10 | 2026-09-01 17:19:03 | 47.86395 | 11.91720 | 93° | 53km/h | 16254m | -9.9m/s | -55.3°C | 4.7% | 105.7hPa | 2.6V | 00:00:00 | 02:08:44 | 00:00:00 | |
| DO3MHA-11 | 2026-09-01 17:19:01 | 47.86396 | 11.91676 | 94° | 58km/h | 16274m | -9.9m/s | -55.4°C | 4.7% | 105.3hPa | 2.6V | 00:00:00 | 02:08:42 | 00:00:00 | |
| BAUMI2-15 | 2026-09-01 17:19:00 | 47.86397 | 11.91653 | 94° | 58km/h | 16285m | -10.3m/s | -55.5°C | 4.7% | 105.1hPa | 2.7V | 00:00:00 | 02:08:41 | 00:00:00 | |
| OM5KV | 2026-09-01 17:18:56 | 47.86402 | 11.91565 | 97° | 58km/h | 16325m | -10.3m/s | -55.7°C | 1.6% | 104.5hPa | 2.7V | 08:20:00 | 00:00:00 | 00:00:00 | |
| BAUMI2-15 | 2026-09-01 17:18:55 | 47.86404 | 11.91543 | 97° | 58km/h | 16336m | -10.1m/s | -55.7°C | 4.8% | 104.3hPa | 2.7V | 00:00:00 | 02:08:36 | 00:00:00 | |
| DO3MHA-12 | 2026-09-01 17:18:54 | 47.86406 | 11.91521 | 98° | 57km/h | 16346m | -10.1m/s | -55.7°C | 4.8% | 104.1hPa | 2.7V | 00:00:00 | 02:08:35 | 00:00:00 | |
| DO3MHA-11 | 2026-09-01 17:18:51 | 47.86412 | 11.91456 | 99° | 53km/h | 16377m | -10.1m/s | -55.6°C | 4.8% | 103.6hPa | 2.7V | 00:00:00 | 02:08:32 | 00:00:00 | |
| OE5WHR-10 | 2026-09-01 17:18:50 | 47.86414 | 11.91435 | 99° | 49km/h | 16387m | -10.2m/s | -55.5°C | 4.7% | 103.4hPa | 2.7V | 00:00:00 | 02:08:31 | 00:00:00 | |
| DB0UT-7 | 2026-09-01 17:18:49 | 47.86416 | 11.91414 | 99° | 47km/h | 16397m | -10.0m/s | -55.5°C | 4.7% | 103.3hPa | 2.7V | 00:00:00 | 00:00:00 | 00:00:00 | |
| BAUMI2-15 | 2026-09-01 17:18:45 | 47.86425 | 11.91333 | 99° | 51km/h | 16439m | -10.7m/s | -55.7°C | 4.8% | 102.6hPa | 2.7V | 08:20:00 | 02:08:26 | 00:00:00 | |
| DO3MHA-12 | 2026-09-01 17:18:44 | 47.86427 | 11.91314 | 99° | 47km/h | 16449m | -10.0m/s | -55.6°C | 4.8% | 102.5hPa | 2.6V | 00:00:00 | 02:08:25 | 00:00:00 | |
| IN3HCDX | 2026-09-01 17:18:43 | 47.86427 | 11.91314 | 100° | 51km/h | 16449m | -10.0m/s | -55.6°C | 1.7% | 102.5hPa | 2.6V | 00:00:00 | 00:00:00 | 00:00:00 | |
| OE5DXL-15 | 2026-09-01 17:18:42 | 47.86430 | 11.91277 | 99° | 46km/h | 16470m | -10.3m/s | -55.6°C | 4.8% | 102.1hPa | 2.6V | 08:20:00 | 00:00:00 | 00:00:00 | |
| DO3MHA-11 | 2026-09-01 17:18:41 | 47.86432 | 11.91258 | 99° | 46km/h | 16480m | -10.3m/s | -55.6°C | 4.7% | 101.9hPa | 2.7V | 00:00:00 | 02:08:22 | 00:00:00 | |
| BAUMI2-15 | 2026-09-01 17:18:40 | 47.86434 | 11.91241 | 98° | 46km/h | 16491m | -10.5m/s | -55.6°C | 4.8% | 101.8hPa | 2.7V | 00:00:00 | 02:08:21 | 00:00:00 | |
| DL6DJ-15 | 2026-09-01 17:18:39 | 47.86437 | 11.91206 | 95° | 46km/h | 16511m | -10.4m/s | -55.8°C | 1.6% | 101.5hPa | 2.7V | 00:00:00 | 00:00:00 | 00:00:00 | |
| OM5KV | 2026-09-01 17:18:37 | 47.86436 | 11.91206 | 97° | 46km/h | 16511m | -10.4m/s | -55.8°C | 1.6% | 101.5hPa | 2.7V | 08:21:00 | 00:00:00 | 00:00:00 | |
| DG1MJG | 2026-09-01 17:18:35 | 47.86439 | 11.91172 | 96° | 46km/h | 16532m | -10.4m/s | -56.0°C | 1.7% | 101.2hPa | 2.7V | 00:00:00 | 00:00:00 | 00:00:00 | |
| DO3MHA-12 | 2026-09-01 17:18:34 | 47.86441 | 11.91138 | 94° | 44km/h | 16554m | -10.6m/s | -55.9°C | 4.8% | 100.8hPa | 2.7V | 00:00:00 | 02:08:15 | 00:00:00 | |
| DO3MHA-11 | 2026-09-01 17:18:31 | 47.86441 | 11.91087 | 89° | 44km/h | 16586m | -10.5m/s | -55.9°C | 4.8% | 100.3hPa | 2.7V | 08:21:00 | 02:08:12 | 00:00:00 | |
| BAUMI2-15 | 2026-09-01 17:18:30 | 47.86441 | 11.91070 | 87° | 44km/h | 16596m | -10.5m/s | -55.9°C | 4.8% | 100.1hPa | 2.6V | 00:00:00 | 02:08:11 | 00:00:00 | |
| OE5WHR-10 | 2026-09-01 17:18:29 | 47.86440 | 11.91054 | 85° | 46km/h | 16607m | -10.7m/s | -56.0°C | 4.9% | 99.9hPa | 2.6V | 00:00:00 | 00:00:00 | 00:00:00 | |
| OE5DRO-10 | 2026-09-01 17:18:26 | 47.86436 | 11.91005 | 81° | 46km/h | 16639m | -10.8m/s | -55.8°C | 4.8% | 99.4hPa | 2.7V | 00:00:00 | 00:00:00 | 00:00:00 | |
| BAUMI2-15 | 2026-09-01 17:18:25 | 47.86434 | 11.90989 | 81° | 44km/h | 16650m | -10.8m/s | -55.7°C | 4.8% | 99.2hPa | 2.7V | 00:00:00 | 02:08:06 | 00:00:00 | |
| DO3MHA-12 | 2026-09-01 17:18:24 | 47.86432 | 11.90973 | 81° | 46km/h | 16661m | -10.8m/s | -55.5°C | 4.7% | 99.1hPa | 2.7V | 08:21:00 | 02:08:05 | 00:00:00 | |
| OM5KV | 2026-09-01 17:18:23 | 47.86432 | 11.90973 | 81° | 44km/h | 16661m | -10.8m/s | -55.6°C | 1.6% | 99.1hPa | 2.6V | 08:21:00 | 00:00:00 | 00:00:00 | |
| DF7PN | 2026-09-01 17:18:22 | 47.86429 | 11.90940 | 80° | 44km/h | 16683m | -10.7m/s | -55.6°C | 1.6% | 98.8hPa | 2.6V | 00:00:00 | 00:00:00 | 00:00:00 | |
| DB0NH | 2026-09-01 17:18:21 | 47.86427 | 11.90924 | 82° | 46km/h | 16694m | -10.8m/s | -55.6°C | 4.8% | 98.6hPa | 2.6V | 08:21:00 | 02:08:02 | 00:00:00 | |
| BAUMI2-15 | 2026-09-01 17:18:20 | 47.86425 | 11.90907 | 83° | 46km/h | 16705m | -10.9m/s | -55.7°C | 4.8% | 98.4hPa | 2.7V | 00:00:00 | 02:08:01 | 00:00:00 | |
| DB0UT-7 | 2026-09-01 17:18:19 | 47.86424 | 11.90890 | 85° | 44km/h | 16716m | -10.8m/s | -55.7°C | 4.8% | 98.3hPa | 2.7V | 00:00:00 | 02:08:00 | 00:00:00 | |
| OM5KV | 2026-09-01 17:18:17 | 47.86423 | 11.90873 | 87° | 46km/h | 16726m | -10.8m/s | -55.7°C | 1.6% | 98.1hPa | 2.6V | 08:21:00 | 00:00:00 | 00:00:00 | |
| BAUMI2-15 | 2026-09-01 17:18:15 | 47.86422 | 11.90820 | 91° | 47km/h | 16759m | -10.9m/s | -55.5°C | 4.7% | 97.6hPa | 2.6V | 00:00:00 | 02:07:56 | 00:00:00 | |
| DO3MHA-12 | 2026-09-01 17:18:14 | 47.86422 | 11.90802 | 92° | 46km/h | 16770m | -10.8m/s | -55.6°C | 4.7% | 97.4hPa | 2.6V | 00:00:00 | 02:07:55 | 00:00:00 | |
| OM5KV | 2026-09-01 17:18:13 | 47.86422 | 11.90802 | 93° | 47km/h | 16770m | -10.8m/s | -55.6°C | 1.5% | 97.4hPa | 2.6V | 08:21:00 | 00:00:00 | 00:00:00 | |
| OE5DXL-15 | 2026-09-01 17:18:12 | 47.86423 | 11.90767 | 93° | 44km/h | 16791m | -11.0m/s | -55.6°C | 4.8% | 97.1hPa | 2.6V | 00:00:00 | 00:00:00 | 00:00:00 | |
| DO3MHA-11 | 2026-09-01 17:18:11 | 47.86424 | 11.90749 | 94° | 44km/h | 16802m | -10.6m/s | -55.6°C | 4.8% | 96.9hPa | 2.6V | 00:00:00 | 02:07:52 | 00:00:00 | |
| BAUMI2-15 | 2026-09-01 17:18:10 | 47.86425 | 11.90731 | 94° | 46km/h | 16813m | -10.7m/s | -55.6°C | 4.8% | 96.7hPa | 2.6V | 00:00:00 | 02:07:51 | 00:00:00 | |
| OE5WHR-10 | 2026-09-01 17:18:08 | 47.86426 | 11.90697 | 95° | 44km/h | 16835m | -10.8m/s | -55.7°C | 4.8% | 96.4hPa | 2.6V | 00:00:00 | 00:00:00 | 00:00:00 | |
| OE5DRO-10 | 2026-09-01 17:18:07 | 47.86427 | 11.90680 | 95° | 44km/h | 16846m | -11.0m/s | -55.8°C | 4.9% | 96.3hPa | 2.6V | 00:00:00 | 00:00:00 | 00:00:00 | |
| OM5KV | 2026-09-01 17:18:06 | 47.86427 | 11.90680 | 96° | 44km/h | 16846m | -11.1m/s | -55.8°C | 1.6% | 96.3hPa | 2.6V | 08:21:00 | 00:00:00 | 00:00:00 | |
| BAUMI2-15 | 2026-09-01 17:18:05 | 47.86428 | 11.90647 | 91° | 40km/h | 16868m | -11.1m/s | -55.6°C | 4.8% | 95.9hPa | 2.6V | 00:00:00 | 02:07:46 | 00:00:00 | |
| DO3MHA-12 | 2026-09-01 17:18:04 | 47.86428 | 11.90632 | 88° | 44km/h | 16879m | -11.0m/s | -55.5°C | 4.8% | 95.8hPa | 2.6V | 00:00:00 | 02:07:45 | 00:00:00 | |
| DF7PN | 2026-09-01 17:17:51 | 47.86409 | 11.90421 | 90° | 42km/h | 17025m | -11.5m/s | -55.5°C | 1.5% | 93.6hPa | 2.6V | 00:00:00 | 00:00:00 | 00:00:00 | |
| DB0UT-7 | 2026-09-01 17:17:49 | 47.86410 | 11.90390 | 94° | 42km/h | 17048m | -11.4m/s | -55.3°C | 4.8% | 93.3hPa | 2.6V | 00:00:00 | 00:00:00 | 00:00:00 | |
| OE5DRO-10 | 2026-09-01 17:17:48 | 47.86410 | 11.90375 | 95° | 42km/h | 17060m | -11.5m/s | -55.3°C | 4.8% | 93.1hPa | 2.6V | 00:00:00 | 00:00:00 | 00:00:00 | |
| IN3HCDX | 2026-09-01 17:17:45 | 47.86412 | 11.90344 | 93° | 40km/h | 17082m | -11.3m/s | -55.3°C | 1.5% | 92.8hPa | 2.6V | 00:00:00 | 00:00:00 | 00:00:00 | |
| DG1MFX-10 | 2026-09-01 17:17:44 | 47.86411 | 11.90314 | 89° | 42km/h | 17105m | -11.6m/s | -55.3°C | 1.6% | 92.5hPa | 2.6V | 08:22:00 | 00:00:00 | 00:00:00 | |
| OE5DXL-15 | 2026-09-01 17:17:42 | 47.86410 | 11.90281 | 88° | 40km/h | 17129m | -11.8m/s | -55.2°C | 4.9% | 92.1hPa | 2.6V | 00:00:00 | 00:00:00 | 00:00:00 | |
| DO3MHA-11 | 2026-09-01 17:17:41 | 47.86410 | 11.90264 | 88° | 44km/h | 17140m | -11.7m/s | -55.1°C | 4.8% | 91.9hPa | 2.6V | 00:00:00 | 02:07:22 | 00:00:00 | |
| OE5WHR-10 | 2026-09-01 17:17:40 | 47.86410 | 11.90247 | 89° | 42km/h | 17152m | -11.4m/s | -55.1°C | 4.8% | 91.7hPa | 2.6V | 00:00:00 | 02:07:21 | 00:00:00 | |
| OM5KV | 2026-09-01 17:17:38 | 47.86409 | 11.90230 | 90° | 46km/h | 17164m | -11.6m/s | -55.0°C | 1.5% | 91.6hPa | 2.6V | 08:22:00 | 00:00:00 | 00:00:00 | |
| DL6DJ-15 | 2026-09-01 17:17:36 | 47.86409 | 11.90180 | 90° | 42km/h | 17198m | -11.5m/s | -55.0°C | 1.5% | 91.1hPa | 2.6V | 00:00:00 | 00:00:00 | 00:00:00 | |
| DK5PH-5 | 2026-09-01 17:17:35 | 47.86410 | 11.90163 | 92° | 35km/h | 17210m | -11.6m/s | -54.8°C | 4.8% | 90.9hPa | 2.6V | 00:00:00 | 02:07:16 | 00:00:00 | |
| DO3MHA-12 | 2026-09-01 17:17:34 | 47.86410 | 11.90147 | 92° | 42km/h | 17222m | -11.7m/s | -54.7°C | 4.7% | 90.8hPa | 2.6V | 00:00:00 | 02:07:15 | 00:00:00 | |
| OM5KV | 2026-09-01 17:17:33 | 47.86410 | 11.90147 | 92° | 42km/h | 17222m | -11.8m/s | -54.8°C | 1.5% | 90.8hPa | 2.6V | 08:22:00 | 00:00:00 | 00:00:00 | |
| OE5MMP-10 | 2026-09-01 17:17:31 | 47.86410 | 11.90101 | 91° | 42km/h | 17258m | -11.7m/s | -54.0°C | 4.5% | 90.2hPa | 2.6V | 00:00:00 | 02:07:12 | 00:00:00 | |
| OE5DRO-10 | 2026-09-01 17:17:29 | 47.86410 | 11.90069 | 89° | 37km/h | 17282m | -11.8m/s | -53.7°C | 4.4% | 89.9hPa | 2.6V | 00:00:00 | 00:00:00 | 00:00:00 | |
| OM5KV | 2026-09-01 17:17:28 | 47.86410 | 11.90069 | 90° | 42km/h | 17282m | -11.8m/s | -53.8°C | 1.4% | 90.0hPa | 2.6V | 08:22:00 | 00:00:00 | 00:00:00 | |
| OM5KV | 2026-09-01 17:17:27 | 47.86410 | 11.90053 | 90° | 44km/h | 17293m | -11.9m/s | -53.7°C | 1.5% | 89.8hPa | 2.6V | 08:22:00 | 00:00:00 | 00:00:00 | |
| DO3MHA-12 | 2026-09-01 17:17:24 | 47.86409 | 11.89988 | 89° | 37km/h | 17341m | -12.0m/s | -53.3°C | 4.2% | 89.1hPa | 2.6V | 00:00:00 | 02:07:05 | 00:00:00 | |
| DG1MFX-10 | 2026-09-01 17:17:23 | 47.86409 | 11.89988 | 89° | 42km/h | 17341m | -12.1m/s | -53.3°C | 1.4% | 89.1hPa | 2.6V | 08:22:00 | 00:00:00 | 00:00:00 | |
| DO3MHA-11 | 2026-09-01 17:17:21 | 47.86407 | 11.89943 | 86° | 33km/h | 17377m | -12.0m/s | -53.5°C | 4.3% | 88.6hPa | 2.6V | 00:00:00 | 02:07:02 | 00:00:00 | |
| DF7PN | 2026-09-01 17:17:20 | 47.86406 | 11.89929 | 84° | 37km/h | 17389m | -12.0m/s | -53.6°C | 1.4% | 88.5hPa | 2.6V | 00:00:00 | 00:00:00 | 00:00:00 | |
| OE5WHR-10 | 2026-09-01 17:17:19 | 47.86406 | 11.89915 | 84° | 29km/h | 17401m | -12.0m/s | -53.6°C | 4.2% | 88.3hPa | 2.6V | 00:00:00 | 00:00:00 | 00:00:00 | |
| OM5KV | 2026-09-01 17:17:15 | 47.86402 | 11.89878 | 81° | 31km/h | 17438m | -12.2m/s | -53.7°C | 1.4% | 87.8hPa | 2.6V | 08:22:00 | 00:00:00 | 00:00:00 | |
| DO3MHA-12 | 2026-09-01 17:17:14 | 47.86399 | 11.89856 | 78° | 26km/h | 17462m | -12.1m/s | -53.4°C | 4.2% | 87.5hPa | 2.6V | 00:00:00 | 02:06:55 | 00:00:00 | |
| OE5DXL-15 | 2026-09-01 17:17:12 | 47.86396 | 11.89836 | 73° | 31km/h | 17486m | -12.0m/s | -53.4°C | 4.2% | 87.1hPa | 2.6V | 00:00:00 | 00:00:00 | 00:00:00 | |
| DO3MHA-11 | 2026-09-01 17:17:11 | 47.86394 | 11.89827 | 72° | 27km/h | 17498m | -12.0m/s | -53.3°C | 4.1% | 87.0hPa | 2.6V | 00:00:00 | 02:06:52 | 00:00:00 | |
| OE5DRO-10 | 2026-09-01 17:17:10 | 47.86392 | 11.89818 | 69° | 29km/h | 17510m | -11.8m/s | -53.3°C | 4.1% | 86.8hPa | 2.6V | 00:00:00 | 00:00:00 | 00:00:00 | |
| DK5PH-5 | 2026-09-01 17:17:05 | 47.86377 | 11.89775 | 58° | 35km/h | 17571m | -12.2m/s | -53.5°C | 4.0% | 86.0hPa | 2.6V | 00:00:00 | 02:06:46 | 00:00:00 | |
| DO3MHA-12 | 2026-09-01 17:17:04 | 47.86373 | 11.89767 | 56° | 29km/h | 17584m | -12.3m/s | -53.5°C | 4.0% | 85.8hPa | 2.6V | 00:00:00 | 02:06:45 | 00:00:00 | |
| DG1MFX-10 | 2026-09-01 17:17:03 | 47.86373 | 11.89767 | 56° | 27km/h | 17584m | -12.3m/s | -53.6°C | 1.3% | 85.9hPa | 2.6V | 08:22:00 | 00:00:00 | 00:00:00 | |
| DO3MHA-11 | 2026-09-01 17:17:01 | 47.86359 | 11.89741 | 50° | 31km/h | 17620m | -12.1m/s | -53.9°C | 4.3% | 85.3hPa | 2.6V | 08:22:00 | 02:06:42 | 00:00:00 | |
| OM5KV | 2026-09-01 17:16:58 | 47.86349 | 11.89724 | 48° | 31km/h | 17645m | -12.5m/s | -54.1°C | 1.3% | 85.0hPa | 2.6V | 08:22:00 | 00:00:00 | 00:00:00 | |
| DO3MHA-12 | 2026-09-01 17:16:54 | 47.86322 | 11.89682 | 48° | 35km/h | 17706m | -12.1m/s | -54.5°C | 4.5% | 84.2hPa | 2.6V | 08:22:00 | 02:06:35 | 00:00:00 | |
| OM5KV | 2026-09-01 17:16:53 | 47.86322 | 11.89682 | 48° | 33km/h | 17706m | -12.2m/s | -54.5°C | 1.4% | 84.2hPa | 2.7V | 08:23:00 | 00:00:00 | 00:00:00 | |
| OE5MMP-10 | 2026-09-01 17:16:51 | 47.86306 | 11.89654 | 54° | 38km/h | 17743m | -12.0m/s | -54.5°C | 4.5% | 83.7hPa | 2.7V | 08:22:00 | 02:06:32 | 00:00:00 | |
| DB0UT-7 | 2026-09-01 17:16:49 | 47.86297 | 11.89632 | 60° | 38km/h | 17768m | -12.3m/s | -54.7°C | 4.5% | 83.4hPa | 2.6V | 00:00:00 | 00:00:00 | 00:00:00 | |
| OM5KV | 2026-09-01 17:16:47 | 47.86292 | 11.89621 | 64° | 35km/h | 17780m | -12.4m/s | -54.7°C | 1.4% | 83.3hPa | 2.6V | 08:23:00 | 00:00:00 | 00:00:00 | |
| OM5KV | 2026-09-01 17:16:46 | 47.86288 | 11.89608 | 66° | 37km/h | 17793m | -12.3m/s | -54.8°C | 1.4% | 83.1hPa | 2.6V | 08:23:00 | 00:00:00 | 00:00:00 | |
| DO3MHA-11 | 2026-09-01 17:16:41 | 47.86272 | 11.89522 | 82° | 38km/h | 17866m | -12.1m/s | -54.7°C | 4.5% | 82.1hPa | 2.6V | 00:00:00 | 02:06:22 | 00:00:00 | |
| IN3HCDX | 2026-09-01 17:16:40 | 47.86272 | 11.89522 | 82° | 42km/h | 17866m | -12.1m/s | -54.7°C | 1.4% | 82.2hPa | 2.6V | 08:23:00 | 00:00:00 | 00:00:00 | |
| DF3TZ-5 | 2026-09-01 17:16:39 | 47.86269 | 11.89492 | 79° | 40km/h | 17890m | -12.2m/s | -54.8°C | 1.4% | 81.8hPa | 2.6V | 00:00:00 | 00:00:00 | 00:00:00 | |
| OM5KV | 2026-09-01 17:16:36 | 47.86265 | 11.89462 | 78° | 40km/h | 17915m | -11.9m/s | -54.8°C | 1.4% | 81.5hPa | 2.6V | 08:23:00 | 00:00:00 | 00:00:00 | |
| DK5PH-5 | 2026-09-01 17:16:35 | 47.86260 | 11.89434 | 75° | 38km/h | 17939m | -12.2m/s | -54.7°C | 4.5% | 81.2hPa | 2.6V | 00:00:00 | 02:06:16 | 00:00:00 | |
| DO3MHA-12 | 2026-09-01 17:16:34 | 47.86257 | 11.89421 | 73° | 38km/h | 17951m | -12.5m/s | -54.7°C | 4.6% | 81.0hPa | 2.6V | 00:00:00 | 02:06:15 | 00:00:00 | |
| OE5WHR-10 | 2026-09-01 17:16:33 | 47.86254 | 11.89408 | 71° | 38km/h | 17964m | -12.3m/s | -54.3°C | 4.4% | 80.9hPa | 2.6V | 00:00:00 | 02:06:14 | 00:00:00 | |
| OE5DRO-10 | 2026-09-01 17:16:32 | 47.86251 | 11.89395 | 69° | 38km/h | 17976m | -12.2m/s | -53.9°C | 4.3% | 80.7hPa | 2.6V | 00:00:00 | 00:00:00 | 00:00:00 | |
| DO3MHA-11 | 2026-09-01 17:16:31 | 47.86248 | 11.89382 | 68° | 40km/h | 17988m | -12.3m/s | -54.0°C | 4.3% | 80.5hPa | 2.6V | 00:00:00 | 02:06:12 | 00:00:00 | |
| OM5KV | 2026-09-01 17:16:30 | 47.86248 | 11.89382 | 68° | 37km/h | 17988m | -12.3m/s | -54.1°C | 1.3% | 80.6hPa | 2.7V | 08:23:00 | 00:00:00 | 00:00:00 | |
| OM5KV | 2026-09-01 17:16:28 | 47.86241 | 11.89357 | 69° | 37km/h | 18014m | -12.8m/s | -54.2°C | 1.4% | 80.3hPa | 2.7V | 08:23:00 | 00:00:00 | 00:00:00 | |
| OM5KV | 2026-09-01 17:16:24 | 47.86222 | 11.89289 | 69° | 42km/h | 18077m | -12.8m/s | -54.8°C | 1.4% | 79.5hPa | 2.7V | 08:23:00 | 00:00:00 | 00:00:00 | |
| DO3MHA-11 | 2026-09-01 17:16:21 | 47.86210 | 11.89244 | 70° | 38km/h | 18115m | -12.7m/s | -54.8°C | 4.6% | 79.0hPa | 2.7V | 00:00:00 | 02:06:02 | 00:00:00 | |
| DB0UT-7 | 2026-09-01 17:16:19 | 47.86203 | 11.89214 | 71° | 38km/h | 18140m | -12.5m/s | -54.5°C | 4.6% | 78.7hPa | 2.7V | 00:00:00 | 02:06:00 | 00:00:00 | |
| NBG1-10 | 2026-09-01 17:16:18 | 47.86200 | 11.89200 | 71° | 40km/h | 18152m | -12.6m/s | -54.5°C | 4.6% | 78.5hPa | 2.7V | 00:00:00 | 02:05:59 | 00:00:00 | |
| OM5KV | 2026-09-01 17:16:17 | 47.86200 | 11.89200 | 72° | 40km/h | 18152m | -12.7m/s | -54.6°C | 1.4% | 78.6hPa | 2.7V | 08:23:00 | 00:00:00 | 00:00:00 | |
| DO3MHA-12 | 2026-09-01 17:16:14 | 47.86188 | 11.89146 | 72° | 35km/h | 18203m | -12.8m/s | -54.3°C | 4.4% | 77.9hPa | 2.7V | 00:00:00 | 02:05:55 | 00:00:00 | |
| PG1ADW-2 | 2026-09-01 17:16:13 | 47.86185 | 11.89133 | 73° | 37km/h | 18216m | -12.7m/s | -54.3°C | 4.5% | 77.7hPa | 2.7V | 00:00:00 | 00:00:00 | 00:00:00 | |
| OE5WHR-10 | 2026-09-01 17:16:12 | 47.86183 | 11.89121 | 75° | 38km/h | 18229m | -12.8m/s | -54.4°C | 4.5% | 77.6hPa | 2.7V | 08:23:00 | 00:00:00 | 00:00:00 | |
| DO3MHA-11 | 2026-09-01 17:16:11 | 47.86180 | 11.89108 | 77° | 37km/h | 18242m | -12.8m/s | -54.4°C | 4.5% | 77.5hPa | 2.7V | 00:00:00 | 02:05:52 | 00:00:00 | |
| DF3TZ-5 | 2026-09-01 17:16:08 | 47.86176 | 11.89069 | 82° | 35km/h | 18280m | -12.8m/s | -54.4°C | 1.4% | 77.0hPa | 2.7V | 00:00:00 | 00:00:00 | 00:00:00 | |
| OM5KV | 2026-09-01 17:16:06 | 47.86175 | 11.89056 | 85° | 37km/h | 18293m | -12.6m/s | -54.4°C | 1.4% | 76.8hPa | 2.7V | 08:23:00 | 00:00:00 | 00:00:00 | |
| DK5PH-5 | 2026-09-01 17:16:05 | 47.86173 | 11.89029 | 85° | 40km/h | 18318m | -12.7m/s | -54.4°C | 4.6% | 76.5hPa | 2.7V | 00:00:00 | 02:05:46 | 00:00:00 | |
| DO3MHA-12 | 2026-09-01 17:16:04 | 47.86172 | 11.89015 | 84° | 38km/h | 18331m | -12.9m/s | -54.4°C | 4.6% | 76.3hPa | 2.7V | 00:00:00 | 02:05:45 | 00:00:00 | |
| DL6DJ-15 | 2026-09-01 17:16:03 | 47.86171 | 11.89002 | 83° | 35km/h | 18344m | -12.9m/s | -54.4°C | 1.4% | 76.2hPa | 2.7V | 00:00:00 | 00:00:00 | 00:00:00 | |
| DO3MHA-11 | 2026-09-01 17:16:01 | 47.86169 | 11.88975 | 81° | 40km/h | 18370m | -12.8m/s | -54.3°C | 4.6% | 75.9hPa | 2.7V | 00:00:00 | 02:05:42 | 00:00:00 | |
| DG1MFX-10 | 2026-09-01 17:16:00 | 47.86169 | 11.88975 | 81° | 37km/h | 18370m | -12.8m/s | -54.4°C | 1.5% | 75.9hPa | 2.6V | 08:24:00 | 00:00:00 | 00:00:00 | |
| OM5KV | 2026-09-01 17:15:58 | 47.86165 | 11.88947 | 80° | 38km/h | 18396m | -12.7m/s | -54.0°C | 1.4% | 75.7hPa | 2.6V | 08:24:00 | 00:00:00 | 00:00:00 | |
| BAUMI2-15 | 2026-09-01 17:15:57 | 47.86161 | 11.88919 | 78° | 42km/h | 18421m | -12.9m/s | -53.5°C | 4.2% | 75.3hPa | 2.6V | 08:23:00 | 02:05:38 | 00:00:00 | |
| PETON7-10 | 2026-09-01 17:15:55 | 47.86156 | 11.88888 | 77° | 42km/h | 18447m | -13.0m/s | -53.4°C | 4.2% | 75.0hPa | 2.7V | 08:23:00 | 00:00:00 | 00:00:00 | |
| DO3MHA-12 | 2026-09-01 17:15:54 | 47.86154 | 11.88873 | 77° | 46km/h | 18460m | -12.8m/s | -53.5°C | 4.2% | 74.8hPa | 2.6V | 00:00:00 | 02:05:35 | 00:00:00 | |
| PG1ADW-2 | 2026-09-01 17:15:53 | 47.86151 | 11.88857 | 77° | 40km/h | 18473m | -12.8m/s | -53.5°C | 4.2% | 74.7hPa | 2.6V | 00:00:00 | 02:05:34 | 00:00:00 | |
| BAUMI2-15 | 2026-09-01 17:15:52 | 47.86149 | 11.88840 | 77° | 47km/h | 18486m | -12.9m/s | -53.6°C | 4.2% | 74.5hPa | 2.6V | 00:00:00 | 02:05:33 | 00:00:00 | |
| DO3MHA-11 | 2026-09-01 17:15:51 | 47.86146 | 11.88823 | 78° | 44km/h | 18499m | -12.9m/s | -53.6°C | 4.3% | 74.4hPa | 2.6V | 00:00:00 | 02:05:32 | 00:00:00 | |
| DB0UT-7 | 2026-09-01 17:15:49 | 47.86142 | 11.88788 | 82° | 35km/h | 18525m | -12.8m/s | -53.8°C | 4.3% | 74.1hPa | 2.6V | 00:00:00 | 00:00:00 | 00:00:00 | |
| OE8JPQ-2 | 2026-09-01 17:15:48 | 47.86140 | 11.88770 | 84° | 37km/h | 18537m | -12.6m/s | -53.8°C | 4.3% | 74.0hPa | 2.6V | 00:00:00 | 00:00:00 | 00:00:00 | |
| BAUMI2-15 | 2026-09-01 17:15:47 | 47.86139 | 11.88753 | 86° | 44km/h | 18550m | -12.8m/s | -53.7°C | 4.3% | 73.8hPa | 2.6V | 00:00:00 | 02:05:28 | 00:00:00 | |
| DM0DOS-11 | 2026-09-01 17:15:46 | 47.86137 | 11.88704 | 89° | 42km/h | 18588m | -12.9m/s | -53.6°C | 4.2% | 73.4hPa | 2.6V | 08:23:51 | 02:05:25 | 00:00:00 | |
| NBG1-10 | 2026-09-01 17:15:45 | 47.86138 | 11.88719 | 89° | 31km/h | 18575m | -12.9m/s | -53.6°C | 4.2% | 73.5hPa | 2.7V | 00:00:00 | 02:05:26 | 00:00:00 | |
| DO3MHA-12 | 2026-09-01 17:15:44 | 47.86138 | 11.88704 | 90° | 37km/h | 18589m | -12.9m/s | -53.6°C | 4.2% | 73.3hPa | 2.7V | 00:00:00 | 02:05:25 | 00:00:00 | |
| OE5DXL-15 | 2026-09-01 17:15:42 | 47.86138 | 11.88673 | 93° | 29km/h | 18614m | -12.9m/s | -53.3°C | 4.1% | 73.0hPa | 2.7V | 00:00:00 | 00:00:00 | 00:00:00 | |
| DO3MHA-11 | 2026-09-01 17:15:41 | 47.86138 | 11.88658 | 93° | 35km/h | 18627m | -12.9m/s | -53.2°C | 4.1% | 72.9hPa | 2.7V | 00:00:00 | 02:05:22 | 00:00:00 | |
| DG1MFX-10 | 2026-09-01 17:15:40 | 47.86138 | 11.88658 | 93° | 38km/h | 18627m | -12.9m/s | -53.2°C | 1.3% | 73.0hPa | 2.7V | 08:24:00 | 00:00:00 | 00:00:00 | |
| PETON7-10 | 2026-09-01 17:15:39 | 47.86139 | 11.88630 | 94° | 33km/h | 18653m | -13.1m/s | -52.9°C | 3.9% | 72.6hPa | 2.7V | 00:00:00 | 00:00:00 | 00:00:00 | |
| OM5KV | 2026-09-01 17:15:38 | 47.86139 | 11.88630 | 94° | 37km/h | 18653m | -13.1m/s | -53.0°C | 1.2% | 72.6hPa | 2.7V | 08:24:00 | 00:00:00 | 00:00:00 | |
| BAUMI2-15 | 2026-09-01 17:15:37 | 47.86140 | 11.88603 | 94° | 33km/h | 18680m | -12.9m/s | -53.0°C | 3.9% | 72.3hPa | 2.7V | 00:00:00 | 02:05:18 | 00:00:00 | |
| DM0DOS-11 | 2026-09-01 17:15:36 | 47.86142 | 11.88553 | 92° | 31km/h | 18732m | -13.2m/s | -53.5°C | 4% | 71.8hPa | 2.7V | 08:24:02 | 02:05:14 | 00:00:00 | |
| DK5PH-5 | 2026-09-01 17:15:35 | 47.86141 | 11.88577 | 93° | 26km/h | 18706m | -13.0m/s | -53.2°C | 3.9% | 72.0hPa | 2.7V | 00:00:00 | 02:05:16 | 00:00:00 | |
| DO3MHA-12 | 2026-09-01 17:15:34 | 47.86142 | 11.88565 | 94° | 29km/h | 18719m | -13.0m/s | -53.3°C | 4.0% | 71.9hPa | 2.7V | 00:00:00 | 02:05:15 | 00:00:00 | |
| PG1ADW-2 | 2026-09-01 17:15:33 | 47.86142 | 11.88553 | 93° | 27km/h | 18732m | -13.2m/s | -53.4°C | 4.0% | 71.8hPa | 2.7V | 00:00:00 | 00:00:00 | 00:00:00 | |
| BAUMI2-15 | 2026-09-01 17:15:32 | 47.86142 | 11.88542 | 94° | 29km/h | 18746m | -13.2m/s | -53.5°C | 4.0% | 71.6hPa | 2.6V | 00:00:00 | 02:05:13 | 00:00:00 | |
| DO3MHA-11 | 2026-09-01 17:15:31 | 47.86143 | 11.88530 | 93° | 29km/h | 18759m | -12.9m/s | -53.6°C | 4.1% | 71.4hPa | 2.6V | 08:24:00 | 02:05:12 | 00:00:00 | |
| OE5WHR-10 | 2026-09-01 17:15:30 | 47.86143 | 11.88519 | 93° | 26km/h | 18772m | -13.1m/s | -53.7°C | 4.1% | 71.3hPa | 2.6V | 00:00:00 | 02:05:11 | 00:00:00 | |
| OM5KV | 2026-09-01 17:15:28 | 47.86144 | 11.88497 | 93° | 29km/h | 18798m | -13.2m/s | -54.0°C | 1.3% | 71.1hPa | 2.6V | 08:24:00 | 00:00:00 | 00:00:00 | |
| BAUMI2-15 | 2026-09-01 17:15:27 | 47.86144 | 11.88486 | 94° | 27km/h | 18811m | -13.2m/s | -54.1°C | 4.2% | 70.9hPa | 2.6V | 00:00:00 | 02:05:08 | 00:00:00 | |
| DM0DOS-11 | 2026-09-01 17:15:26 | 47.86148 | 11.88445 | 104° | 27km/h | 18864m | -13.3m/s | -54.6°C | 4.3% | 70.3hPa | 2.7V | 08:24:12 | 02:05:04 | 00:00:00 | |
| DF2AP-13 | 2026-09-01 17:15:26 | 47.86145 | 11.88475 | 96° | 22km/h | 18825m | -13.1m/s | -54.2°C | 4.2% | 70.7hPa | 2.7V | 00:00:00 | 02:05:07 | 00:00:00 | |
| DO3MHA-12 | 2026-09-01 17:15:24 | 47.86147 | 11.88454 | 102° | 26km/h | 18851m | -13.0m/s | -54.4°C | 4.2% | 70.4hPa | 2.7V | 08:24:00 | 02:05:05 | 00:00:00 | |
| BAUMI2-15 | 2026-09-01 17:15:22 | 47.86150 | 11.88435 | 111° | 26km/h | 18878m | -13.5m/s | -54.6°C | 4.4% | 70.1hPa | 2.6V | 00:00:00 | 02:05:03 | 00:00:00 | |
| DO3MHA-11 | 2026-09-01 17:15:21 | 47.86153 | 11.88426 | 114° | 24km/h | 18891m | -13.1m/s | -54.7°C | 4.4% | 70.0hPa | 2.6V | 00:00:00 | 02:05:02 | 00:00:00 | |
| DB0UT-7 | 2026-09-01 17:15:19 | 47.86158 | 11.88409 | 120° | 27km/h | 18918m | -13.4m/s | -54.9°C | 4.5% | 69.7hPa | 2.6V | 08:24:00 | 02:05:00 | 00:00:00 | |
| BAUMI2-15 | 2026-09-01 17:15:17 | 47.86164 | 11.88394 | 122° | 22km/h | 18946m | -13.6m/s | -55.2°C | 4.6% | 69.4hPa | 2.6V | 00:00:00 | 02:04:58 | 00:00:00 | |
| DM0DOS-11 | 2026-09-01 17:15:16 | 47.86176 | 11.88365 | 113° | 22km/h | 18999m | -13.8m/s | -55.4°C | 4.7% | 68.8hPa | 2.6V | 08:24:22 | 02:04:54 | 00:00:00 | |
| OM5KV | 2026-09-01 17:15:16 | 47.86168 | 11.88386 | 123° | 24km/h | 18959m | -13.2m/s | -55.3°C | 1.4% | 69.3hPa | 2.6V | 08:24:00 | 00:00:00 | 00:00:00 | |
| OM5KV | 2026-09-01 17:15:15 | 47.86171 | 11.88379 | 121° | 22km/h | 18972m | -13.2m/s | -55.3°C | 1.4% | 69.2hPa | 2.6V | 08:25:00 | 00:00:00 | 00:00:00 | |
| DO3MHA-12 | 2026-09-01 17:15:14 | 47.86173 | 11.88372 | 118° | 24km/h | 18986m | -13.5m/s | -55.3°C | 4.7% | 69.0hPa | 2.6V | 00:00:00 | 02:04:55 | 00:00:00 | |
| PG1ADW-2 | 2026-09-01 17:15:13 | 47.86175 | 11.88365 | 114° | 29km/h | 18999m | -13.7m/s | -55.3°C | 4.7% | 68.8hPa | 2.6V | 00:00:00 | 00:00:00 | 00:00:00 | |
| BAUMI2-15 | 2026-09-01 17:15:12 | 47.86178 | 11.88357 | 111° | 24km/h | 19013m | -13.7m/s | -55.4°C | 4.8% | 68.7hPa | 2.6V | 08:24:00 | 02:04:53 | 00:00:00 | |
| OM5KV | 2026-09-01 17:15:11 | 47.86180 | 11.88349 | 110° | 22km/h | 19027m | -13.5m/s | -55.5°C | 1.5% | 68.6hPa | 2.6V | 08:25:00 | 00:00:00 | 00:00:00 | |
| OE5WHR-10 | 2026-09-01 17:15:09 | 47.86183 | 11.88333 | 105° | 29km/h | 19054m | -13.3m/s | -55.5°C | 4.9% | 68.2hPa | 2.6V | 00:00:00 | 00:00:00 | 00:00:00 | |
| OE8JPQ-2 | 2026-09-01 17:15:08 | 47.86184 | 11.88324 | 104° | 27km/h | 19067m | -13.4m/s | -55.5°C | 4.9% | 68.1hPa | 2.6V | 08:24:00 | 00:00:00 | 00:00:00 | |
| BAUMI2-15 | 2026-09-01 17:15:07 | 47.86186 | 11.88316 | 102° | 29km/h | 19081m | -13.4m/s | -55.4°C | 4.9% | 68.0hPa | 2.6V | 00:00:00 | 02:04:48 | 00:00:00 | |
| DM0DOS-11 | 2026-09-01 17:15:06 | 47.86191 | 11.88274 | 102° | 31km/h | 19135m | -13.6m/s | -55.1°C | 4.8% | 67.4hPa | 2.6V | 08:24:32 | 02:04:44 | 00:00:00 | |
| DK5PH-5 | 2026-09-01 17:15:05 | 47.86188 | 11.88296 | 101° | 24km/h | 19108m | -13.6m/s | -55.2°C | 4.9% | 67.7hPa | 2.7V | 00:00:00 | 02:04:46 | 00:00:00 | |
| DO3MHA-12 | 2026-09-01 17:15:04 | 47.86189 | 11.88286 | 101° | 33km/h | 19122m | -13.6m/s | -55.1°C | 4.8% | 67.5hPa | 2.6V | 00:00:00 | 02:04:45 | 00:00:00 | |
| OM5KV | 2026-09-01 17:15:03 | 47.86189 | 11.88286 | 101° | 29km/h | 19122m | -13.6m/s | -55.1°C | 1.5% | 67.5hPa | 2.6V | 08:25:00 | 00:00:00 | 00:00:00 | |
| DO3MHA-11 | 2026-09-01 17:15:01 | 47.86195 | 11.88250 | 106° | 33km/h | 19163m | -13.9m/s | -54.9°C | 4.7% | 67.0hPa | 2.6V | 00:00:00 | 02:04:42 | 00:00:00 | |
| IN3HCDX | 2026-09-01 17:15:00 | 47.86195 | 11.88250 | 106° | 35km/h | 19163m | -13.9m/s | -54.9°C | 1.4% | 67.1hPa | 2.7V | 00:00:00 | 00:00:00 | 00:00:00 | |
| OM5KV | 2026-09-01 17:14:59 | 47.86200 | 11.88225 | 111° | 35km/h | 19191m | -13.7m/s | -54.8°C | 1.4% | 66.8hPa | 2.7V | 08:25:00 | 00:00:00 | 00:00:00 | |
| DG1MFX-10 | 2026-09-01 17:14:58 | 47.86200 | 11.88225 | 111° | 35km/h | 19191m | -13.7m/s | -54.8°C | 1.4% | 66.8hPa | 2.7V | 08:25:00 | 00:00:00 | 00:00:00 | |
| OE5DRO-10 | 2026-09-01 17:14:57 | 47.86207 | 11.88201 | 113° | 22km/h | 19218m | -13.6m/s | -54.8°C | 4.8% | 66.5hPa | 2.7V | 00:00:00 | 00:00:00 | 00:00:00 | |
| DM0DOS-11 | 2026-09-01 17:14:56 | 47.86220 | 11.88157 | 113° | 29km/h | 19273m | -13.9m/s | -54.9°C | 4.9% | 65.9hPa | 2.7V | 08:24:42 | 02:04:34 | 00:00:00 | |
| BAUMI2-15 | 2026-09-01 17:14:56 | 47.86210 | 11.88189 | 115° | 31km/h | 19232m | -13.6m/s | -54.8°C | 4.8% | 66.3hPa | 2.6V | 00:00:00 | 02:04:37 | 00:00:00 | |
| DO3MHA-12 | 2026-09-01 17:14:54 | 47.86217 | 11.88167 | 115° | 22km/h | 19259m | -13.7m/s | -54.9°C | 4.9% | 66.1hPa | 2.6V | 00:00:00 | 02:04:35 | 00:00:00 | |
| PG1ADW-2 | 2026-09-01 17:14:53 | 47.86220 | 11.88157 | 114° | 18km/h | 19273m | -13.8m/s | -54.8°C | 4.9% | 65.9hPa | 2.6V | 00:00:00 | 00:00:00 | 00:00:00 | |
| DO3MHA-11 | 2026-09-01 17:14:51 | 47.86225 | 11.88139 | 109° | 18km/h | 19301m | -14.2m/s | -54.2°C | 4.6% | 65.6hPa | 2.6V | 00:00:00 | 02:04:32 | 00:00:00 | |
| DB0UT-7 | 2026-09-01 17:14:49 | 47.86227 | 11.88123 | 101° | 13km/h | 19330m | -14.0m/s | -53.9°C | 4.4% | 65.3hPa | 2.6V | 00:00:00 | 00:00:00 | 00:00:00 | |
| OE5WHR-10 | 2026-09-01 17:14:48 | 47.86228 | 11.88116 | 95° | 15km/h | 19344m | -13.7m/s | -53.8°C | 4.4% | 65.2hPa | 2.6V | 00:00:00 | 00:00:00 | 00:00:00 | |
| OE8JPQ-2 | 2026-09-01 17:14:47 | 47.86228 | 11.88109 | 89° | 13km/h | 19358m | -13.9m/s | -53.7°C | 4.3% | 65.1hPa | 2.6V | 00:00:00 | 00:00:00 | 00:00:00 | |
| DM0DOS-11 | 2026-09-01 17:14:46 | 47.86224 | 11.88078 | 74° | 16km/h | 19428m | -14.3m/s | -53.2°C | 4.1% | 64.4hPa | 2.6V | 08:24:53 | 02:04:23 | 00:00:00 | |
| DF7PN | 2026-09-01 17:14:45 | 47.86227 | 11.88096 | 77° | 16km/h | 19386m | -13.9m/s | -53.5°C | 1.3% | 64.8hPa | 2.6V | 00:00:00 | 00:00:00 | 00:00:00 | |
| DO3MHA-12 | 2026-09-01 17:14:44 | 47.86226 | 11.88090 | 76° | 15km/h | 19400m | -14.0m/s | -53.4°C | 4.2% | 64.6hPa | 2.6V | 00:00:00 | 02:04:25 | 00:00:00 | |
| OE5DXL-15 | 2026-09-01 17:14:42 | 47.86224 | 11.88078 | 75° | 13km/h | 19428m | -14.3m/s | -53.1°C | 4.1% | 64.3hPa | 2.6V | 00:00:00 | 00:00:00 | 00:00:00 | |
| OE5MMP-10 | 2026-09-01 17:14:41 | 47.86223 | 11.88072 | 78° | 13km/h | 19442m | -14.2m/s | -53.0°C | 4.1% | 64.2hPa | 2.6V | 00:00:00 | 02:04:22 | 00:00:00 | |
| OM5KV | 2026-09-01 17:14:40 | 47.86223 | 11.88072 | 78° | 16km/h | 19442m | -14.2m/s | -53.1°C | 1.2% | 64.3hPa | 2.6V | 08:25:00 | 00:00:00 | 00:00:00 | |
| NBG1-10 | 2026-09-01 17:14:39 | 47.86221 | 11.88060 | 79° | 15km/h | 19471m | -14.2m/s | -53.1°C | 4.1% | 63.9hPa | 2.6V | 00:00:00 | 02:04:20 | 00:00:00 | |
| OE5DRO-10 | 2026-09-01 17:14:38 | 47.86221 | 11.88055 | 78° | 11km/h | 19485m | -14.0m/s | -53.0°C | 4.1% | 63.8hPa | 2.6V | 00:00:00 | 00:00:00 | 00:00:00 | |
| DF2AP-13 | 2026-09-01 17:14:37 | 47.86220 | 11.88050 | 76° | 15km/h | 19499m | -13.9m/s | -53.0°C | 4.0% | 63.6hPa | 2.6V | 00:00:00 | 02:04:18 | 00:00:00 | |
| DM0DOS-11 | 2026-09-01 17:14:36 | 47.86217 | 11.88027 | 83° | 11km/h | 19570m | -14.2m/s | -53.3°C | 4.1% | 63hPa | 2.6V | 08:25:03 | 02:04:13 | 00:00:00 | |
| BAUMI2-15 | 2026-09-01 17:14:36 | 47.86219 | 11.88045 | 78° | 13km/h | 19513m | -14.1m/s | -53.0°C | 4.0% | 63.5hPa | 2.6V | 00:00:00 | 02:04:17 | 00:00:00 | |
| DK5PH-5 | 2026-09-01 17:14:35 | 47.86218 | 11.88040 | 79° | 15km/h | 19527m | -14.3m/s | -53.1°C | 4.1% | 63.4hPa | 2.6V | 00:00:00 | 02:04:16 | 00:00:00 | |
| DO3MHA-12 | 2026-09-01 17:14:34 | 47.86218 | 11.88035 | 77° | 9km/h | 19542m | -14.4m/s | -53.1°C | 4.0% | 63.2hPa | 2.6V | 00:00:00 | 02:04:15 | 00:00:00 | |
| PG1ADW-2 | 2026-09-01 17:14:33 | 47.86217 | 11.88031 | 78° | 13km/h | 19556m | -14.3m/s | -53.2°C | 4.0% | 63.1hPa | 2.6V | 08:25:00 | 02:04:14 | 00:00:00 | |
| AM1SDL-15 | 2026-09-01 17:14:32 | 47.86217 | 11.88027 | 84° | 9km/h | 19570m | -14.2m/s | 0°C | 0% | 62.9hPa | 2.6V | 00:00:00 | 02:04:13 | 00:00:00 | |
| DO3MHA-11 | 2026-09-01 17:14:31 | 47.86216 | 11.88023 | 82° | 9km/h | 19585m | -14.4m/s | -53.3°C | 4.1% | 62.8hPa | 2.6V | 00:00:00 | 02:04:12 | 00:00:00 | |
| DL6DJ-15 | 2026-09-01 17:14:30 | 47.86216 | 11.88020 | 80° | 7km/h | 19599m | -14.5m/s | -53.3°C | 1.2% | 62.7hPa | 2.6V | 00:00:00 | 00:00:00 | 00:00:00 | |
| OM5KV | 2026-09-01 17:14:29 | 47.86216 | 11.88020 | 82° | 9km/h | 19599m | -14.5m/s | -53.3°C | 1.2% | 62.7hPa | 2.6V | 08:25:00 | 00:00:00 | 00:00:00 | |
| OM5KV | 2026-09-01 17:14:28 | 47.86216 | 11.88017 | 71° | 7km/h | 19614m | -14.3m/s | -53.4°C | 1.2% | 62.6hPa | 2.6V | 08:25:00 | 00:00:00 | 00:00:00 | |
| OE5WHR-10 | 2026-09-01 17:14:27 | 47.86214 | 11.88012 | 74° | 16km/h | 19642m | -14.3m/s | -53.5°C | 4.2% | 62.2hPa | 2.6V | 00:00:00 | 02:04:08 | 00:00:00 | |
| DM0DOS-11 | 2026-09-01 17:14:26 | 47.86209 | 11.87994 | 72° | 13km/h | 19729m | -14.4m/s | -53.8°C | 4.2% | 61.5hPa | 2.6V | 08:25:14 | 02:04:02 | 00:00:00 | |
| DO3MHA-12 | 2026-09-01 17:14:24 | 47.86212 | 11.88005 | 64° | 16km/h | 19685m | -14.8m/s | -53.8°C | 4.2% | 61.9hPa | 2.7V | 00:00:00 | 02:04:05 | 00:00:00 | |
| OM5KV | 2026-09-01 17:14:23 | 47.86212 | 11.88005 | 65° | 9km/h | 19685m | -14.8m/s | -53.8°C | 1.3% | 61.9hPa | 2.7V | 08:26:00 | 00:00:00 | 00:00:00 | |
| OM5KV | 2026-09-01 17:14:22 | 47.86211 | 11.88001 | 67° | 11km/h | 19700m | -14.5m/s | -53.9°C | 1.3% | 61.7hPa | 2.7V | 08:26:00 | 00:00:00 | 00:00:00 | |
| DO3MHA-11 | 2026-09-01 17:14:21 | 47.86208 | 11.87993 | 73° | 20km/h | 19729m | -14.3m/s | -53.8°C | 4.2% | 61.4hPa | 2.7V | 00:00:00 | 02:04:02 | 00:00:00 | |
| AM1SDL-15 | 2026-09-01 17:14:20 | 47.86207 | 11.87988 | 69° | 18km/h | 19743m | -14.6m/s | 0°C | 0% | 0hPa | 2.7V | 00:00:00 | 02:04:01 | 00:00:00 | |
| OE5DRO-10 | 2026-09-01 17:14:19 | 47.86206 | 11.87983 | 73° | 18km/h | 19758m | -14.7m/s | -53.8°C | 4.2% | 61.1hPa | 2.7V | 00:00:00 | 00:00:00 | 00:00:00 | |
| OM5KV | 2026-09-01 17:14:18 | 47.86205 | 11.87976 | 73° | 20km/h | 19773m | -14.9m/s | -53.9°C | 1.3% | 61.1hPa | 2.7V | 08:26:00 | 00:00:00 | 00:00:00 | |
| DG1MFX-10 | 2026-09-01 17:14:17 | 47.86205 | 11.87976 | 73° | 20km/h | 19773m | -14.9m/s | -53.9°C | 1.3% | 61.1hPa | 2.7V | 08:26:00 | 00:00:00 | 00:00:00 | |
| DM0DOS-11 | 2026-09-01 17:14:16 | 47.86193 | 11.87923 | 69° | 18km/h | 19877m | -14.9m/s | -54.3°C | 4.4% | 60.1hPa | 2.7V | 08:25:24 | 02:03:52 | 00:00:00 | |
| DO3MHA-12 | 2026-09-01 17:14:14 | 47.86198 | 11.87945 | 75° | 18km/h | 19832m | -14.8m/s | -54.0°C | 4.3% | 60.4hPa | 2.7V | 00:00:00 | 02:03:55 | 00:00:00 | |
| PG1ADW-2 | 2026-09-01 17:14:13 | 47.86197 | 11.87938 | 72° | 20km/h | 19847m | -14.9m/s | -54.1°C | 4.3% | 60.3hPa | 2.7V | 00:00:00 | 00:00:00 | 00:00:00 | |
| OE5DXL-15 | 2026-09-01 17:14:12 | 47.86195 | 11.87930 | 74° | 18km/h | 19862m | -14.6m/s | -54.2°C | 4.3% | 60.1hPa | 2.7V | 08:25:00 | 00:00:00 | 00:00:00 | |
| DO3MHA-11 | 2026-09-01 17:14:11 | 47.86193 | 11.87923 | 70° | 15km/h | 19877m | -14.9m/s | -54.3°C | 4.4% | 60.0hPa | 2.6V | 00:00:00 | 02:03:52 | 00:00:00 | |
| BAUMI2-15 | 2026-09-01 17:14:09 | 47.86190 | 11.87910 | 77° | 15km/h | 19907m | -14.8m/s | -54.5°C | 4.6% | 59.8hPa | 2.6V | 00:00:00 | 02:03:50 | 00:00:00 | |
| OE8JPQ-2 | 2026-09-01 17:14:07 | 47.86189 | 11.87899 | 80° | 20km/h | 19936m | -15.2m/s | -54.6°C | 4.6% | 59.5hPa | 2.6V | 00:00:00 | 00:00:00 | 00:00:00 | |
| DM0DOS-11 | 2026-09-01 17:14:06 | 47.86187 | 11.87866 | 86° | 20km/h | 20025m | -14.6m/s | -54.5°C | 4.6% | 58.7hPa | 2.7V | 08:25:34 | 02:03:42 | 00:00:00 | |
| OE5WHR-10 | 2026-09-01 17:14:06 | 47.86188 | 11.87894 | 84° | 20km/h | 19951m | -14.5m/s | -54.5°C | 4.6% | 59.3hPa | 2.7V | 00:00:00 | 00:00:00 | 00:00:00 | |
| PETON7-10 | 2026-09-01 17:14:05 | 47.86188 | 11.87889 | 85° | 9km/h | 19966m | -14.5m/s | -54.5°C | 4.6% | 59.2hPa | 2.7V | 00:00:00 | 00:00:00 | 00:00:00 | |
| BAUMI2-15 | 2026-09-01 17:14:04 | 47.86188 | 11.87884 | 89° | 15km/h | 19981m | -15.0m/s | -54.5°C | 4.6% | 59.0hPa | 2.6V | 00:00:00 | 02:03:45 | 00:00:00 | |
| DL6DJ-15 | 2026-09-01 17:13:59 | 47.86187 | 11.87850 | 92° | 22km/h | 20055m | -14.5m/s | -54.1°C | 1.3% | 58.4hPa | 2.6V | 00:00:00 | 00:00:00 | 00:00:00 | |
| DM0DOS-11 | 2026-09-01 17:13:56 | 47.86190 | 11.87777 | 103° | 20km/h | 20175m | -15.1m/s | -54.3°C | 4.5% | 57.3hPa | 2.6V | 08:25:44 | 02:03:32 | 00:00:00 | |
| DB0ND-19 | 2026-09-01 17:13:55 | 47.86192 | 11.87764 | 109° | 16km/h | 20205m | -15.2m/s | 0°C | -1.0% | -1.0hPa | 2.7V | 00:00:00 | 00:00:00 | 00:00:00 | |
| DO3MHA-12 | 2026-09-01 17:13:54 | 47.86187 | 11.87803 | 95° | 18km/h | 20129m | -15.4m/s | -54.0°C | 4.4% | 57.7hPa | 2.7V | 08:25:00 | 02:03:35 | 00:00:00 | |
| PG1ADW-2 | 2026-09-01 17:13:53 | 47.86188 | 11.87793 | 97° | 11km/h | 20145m | -15.3m/s | -54.1°C | 4.4% | 57.5hPa | 2.7V | 00:00:00 | 00:00:00 | 00:00:00 | |
| DO3MHA-11 | 2026-09-01 17:13:51 | 47.86190 | 11.87777 | 104° | 13km/h | 20175m | -15.0m/s | -54.2°C | 4.5% | 57.3hPa | 2.7V | 00:00:00 | 02:03:32 | 00:00:00 | |
| DB0UT-7 | 2026-09-01 17:13:49 | 47.86192 | 11.87764 | 110° | 9km/h | 20205m | -15.2m/s | -54.1°C | 4.5% | 57.0hPa | 2.7V | 00:00:00 | 00:00:00 | 00:00:00 | |
| OE8JPQ-2 | 2026-09-01 17:13:47 | 47.86195 | 11.87753 | 116° | 7km/h | 20236m | -15.4m/s | -53.7°C | 4.4% | 56.7hPa | 2.6V | 00:00:00 | 00:00:00 | 00:00:00 | |
| DM0DOS-11 | 2026-09-01 17:13:46 | 47.86201 | 11.87738 | 157° | 5km/h | 20327m | -15.3m/s | -53.6°C | 4.3% | 56hPa | 2.6V | 08:25:54 | 02:03:22 | 00:00:00 | |
| OE5WHR-10 | 2026-09-01 17:13:45 | 47.86198 | 11.87745 | 120° | 7km/h | 20266m | -15.1m/s | -53.6°C | 4.3% | 56.5hPa | 2.6V | 00:00:00 | 00:00:00 | 00:00:00 | |
| DO3MHA-12 | 2026-09-01 17:13:44 | 47.86199 | 11.87743 | 121° | 7km/h | 20281m | -14.6m/s | -53.6°C | 4.3% | 56.3hPa | 2.6V | 00:00:00 | 02:03:25 | 00:00:00 | |
| OM5KV | 2026-09-01 17:13:43 | 47.86200 | 11.87741 | 127° | 5km/h | 20296m | -14.9m/s | -53.7°C | 1.3% | 56.3hPa | 2.6V | 08:26:00 | 00:00:00 | 00:00:00 | |
| OE5DXL-15 | 2026-09-01 17:13:42 | 47.86201 | 11.87739 | 132° | 11km/h | 20311m | -15.6m/s | -53.6°C | 4.3% | 56.1hPa | 2.6V | 00:00:00 | 00:00:00 | 00:00:00 | |
| DO3MHA-11 | 2026-09-01 17:13:41 | 47.86201 | 11.87738 | 158° | 7km/h | 20327m | -15.3m/s | -53.6°C | 4.3% | 56.0hPa | 2.6V | 00:00:00 | 02:03:22 | 00:00:00 | |
| DG1MFX-10 | 2026-09-01 17:13:37 | 47.86207 | 11.87736 | 184° | 7km/h | 20388m | -15.2m/s | -53.4°C | 1.3% | 55.5hPa | 2.6V | 08:26:00 | 00:00:00 | 00:00:00 | |
| DM0DOS-11 | 2026-09-01 17:13:37 | 47.86221 | 11.87739 | 199° | 9km/h | 20480m | -15.6m/s | -54°C | 4.5% | 54.7hPa | 2.6V | 08:26:04 | 02:03:12 | 00:00:00 | |
| OM5KV | 2026-09-01 17:13:36 | 47.86207 | 11.87736 | 184° | 7km/h | 20388m | -15.2m/s | -53.4°C | 1.2% | 55.5hPa | 2.6V | 08:26:00 | 00:00:00 | 00:00:00 | |
| DK5PH-5 | 2026-09-01 17:13:35 | 47.86212 | 11.87736 | 183° | 15km/h | 20419m | -15.6m/s | -53.6°C | 4.2% | 55.2hPa | 2.6V | 08:26:00 | 02:03:16 | 00:00:00 | |
| DO3MHA-12 | 2026-09-01 17:13:34 | 47.86214 | 11.87736 | 199° | 7km/h | 20434m | -15.1m/s | -53.7°C | 4.3% | 55.0hPa | 2.7V | 00:00:00 | 02:03:15 | 00:00:00 | |
| NBG1-10 | 2026-09-01 17:13:33 | 47.86217 | 11.87737 | 194° | 16km/h | 20450m | -15.9m/s | -53.8°C | 4.4% | 54.9hPa | 2.7V | 00:00:00 | 02:03:14 | 00:00:00 | |
| DO3MHA-11 | 2026-09-01 17:13:31 | 47.86221 | 11.87739 | 200° | 7km/h | 20481m | -15.5m/s | -54.0°C | 4.5% | 54.6hPa | 2.6V | 00:00:00 | 02:03:12 | 00:00:00 | |
| OM5KV | 2026-09-01 17:13:30 | 47.86221 | 11.87739 | 200° | 9km/h | 20481m | -15.6m/s | -54.0°C | 1.3% | 54.7hPa | 2.7V | 08:26:00 | 00:00:00 | 00:00:00 | |
| PETON7-10 | 2026-09-01 17:13:28 | 47.86225 | 11.87740 | 147° | 13km/h | 20526m | -15.1m/s | -53.8°C | 4.4% | 54.2hPa | 2.7V | 00:00:00 | 00:00:00 | 00:00:00 | |
| OE8JPQ-2 | 2026-09-01 17:13:27 | 47.86226 | 11.87739 | 144° | 16km/h | 20542m | -15.7m/s | -53.7°C | 4.4% | 54.1hPa | 2.7V | 00:00:00 | 02:03:08 | 00:00:00 | |
| DM0DOS-11 | 2026-09-01 17:13:26 | 47.86225 | 11.87723 | 63° | 13km/h | 20634m | -15.7m/s | -53.4°C | 4.2% | 53.4hPa | 2.7V | 08:26:14 | 02:03:02 | 00:00:00 | |
| OM5KV | 2026-09-01 17:13:25 | 47.86227 | 11.87737 | 99° | 4km/h | 20558m | -15.0m/s | -53.6°C | 1.3% | 54.0hPa | 2.6V | 08:26:00 | 00:00:00 | 00:00:00 | |
| DO3MHA-12 | 2026-09-01 17:13:24 | 47.86227 | 11.87733 | 97° | 15km/h | 20588m | -15.8m/s | -53.3°C | 4.2% | 53.7hPa | 2.6V | 00:00:00 | 02:03:05 | 00:00:00 | |
| DL2OL | 2026-09-01 17:13:23 | 47.86227 | 11.87733 | 97° | 7km/h | 20588m | -15.9m/s | -53.4°C | 1.2% | 53.8hPa | 2.7V | 00:00:00 | 00:00:00 | 00:00:00 | |
| OE5DRO-10 | 2026-09-01 17:13:22 | 47.86226 | 11.87727 | 61° | 22km/h | 20619m | -15.1m/s | -53.4°C | 4.2% | 53.5hPa | 2.7V | 00:00:00 | 00:00:00 | 00:00:00 | |
| DO3MHA-11 | 2026-09-01 17:13:21 | 47.86225 | 11.87723 | 64° | 18km/h | 20635m | -15.7m/s | -53.4°C | 4.2% | 53.3hPa | 2.7V | 00:00:00 | 02:03:02 | 00:00:00 | |
| OM5KV | 2026-09-01 17:13:20 | 47.86225 | 11.87723 | 65° | 13km/h | 20635m | -15.7m/s | -53.4°C | 1.2% | 53.4hPa | 2.7V | 08:26:00 | 00:00:00 | 00:00:00 | |
| DB0UT-7 | 2026-09-01 17:13:19 | 47.86222 | 11.87714 | 61° | 24km/h | 20667m | -15.7m/s | -53.5°C | 4.3% | 53.1hPa | 2.7V | 00:00:00 | 02:03:00 | 00:00:00 | |
| DB0NH | 2026-09-01 17:13:18 | 47.86220 | 11.87709 | 50° | 16km/h | 20682m | -15.1m/s | -53.6°C | 4.3% | 53.0hPa | 2.7V | 00:00:00 | 02:02:59 | 00:00:00 | |
| DF1GD-15 | 2026-09-01 17:13:17 | 47.86220 | 11.87709 | 51° | 15km/h | 20682m | -15.1m/s | 0°C | 0% | 53.0hPa | 2.7V | 00:00:00 | 00:00:00 | 00:00:00 | |
| DM0DOS-11 | 2026-09-01 17:13:16 | 47.86198 | 11.87662 | 63° | 26km/h | 20789m | -14.9m/s | -53.8°C | 4.4% | 52.1hPa | 2.7V | 08:26:24 | 02:02:52 | 00:00:00 | |
| DG1MFX-10 | 2026-09-01 17:13:15 | 47.86215 | 11.87699 | 50° | 20km/h | 20713m | -15.2m/s | -53.7°C | 1.3% | 52.8hPa | 2.6V | 08:26:00 | 00:00:00 | 00:00:00 | |
| DO3MHA-12 | 2026-09-01 17:13:14 | 47.86208 | 11.87686 | 55° | 27km/h | 20743m | -15.3m/s | -53.8°C | 4.4% | 52.4hPa | 2.6V | 00:00:00 | 02:02:55 | 00:00:00 | |
| PETON7-10 | 2026-09-01 17:13:13 | 47.86205 | 11.87679 | 58° | 26km/h | 20759m | -15.2m/s | -53.8°C | 4.4% | 52.3hPa | 2.6V | 00:00:00 | 02:02:54 | 00:00:00 | |
| DF7PN | 2026-09-01 17:13:12 | 47.86198 | 11.87662 | 63° | 26km/h | 20789m | -14.9m/s | -53.8°C | 1.3% | 52.1hPa | 2.6V | 00:00:00 | 00:00:00 | 00:00:00 | |
| DO3MHA-11 | 2026-09-01 17:13:11 | 47.86198 | 11.87662 | 64° | 27km/h | 20789m | -14.9m/s | -53.7°C | 4.4% | 52.0hPa | 2.6V | 00:00:00 | 02:02:52 | 00:00:00 | |
| IN3HCDX | 2026-09-01 17:13:09 | 47.86196 | 11.87653 | 70° | 26km/h | 20804m | -15.5m/s | -53.8°C | 1.3% | 52.0hPa | 2.6V | 08:26:00 | 00:00:00 | 00:00:00 | |
| OM5KV | 2026-09-01 17:13:08 | 47.86194 | 11.87644 | 75° | 26km/h | 20820m | -16.1m/s | -53.9°C | 1.3% | 51.8hPa | 2.6V | 08:26:00 | 00:00:00 | 00:00:00 | |
| DF2AP-13 | 2026-09-01 17:13:07 | 47.86192 | 11.87624 | 87° | 20km/h | 20852m | -15.8m/s | -53.8°C | 4.4% | 51.6hPa | 2.6V | 00:00:00 | 02:02:48 | 00:00:00 | |
| DM0DOS-11 | 2026-09-01 17:13:06 | 47.86197 | 11.87566 | 114° | 24km/h | 20947m | -16.1m/s | -53.5°C | 4.3% | 50.8hPa | 2.6V | 08:26:34 | 02:02:42 | 00:00:00 | |
| DK5PH-5 | 2026-09-01 17:13:05 | 47.86191 | 11.87602 | 91° | 18km/h | 20884m | -15.7m/s | -53.7°C | 4.4% | 51.3hPa | 2.6V | 00:00:00 | 02:02:46 | 00:00:00 | |
| DO3MHA-12 | 2026-09-01 17:13:04 | 47.86192 | 11.87592 | 95° | 24km/h | 20899m | -15.2m/s | -53.7°C | 4.4% | 51.2hPa | 2.6V | 00:00:00 | 02:02:45 | 00:00:00 | |
| OE5WHR-10 | 2026-09-01 17:13:03 | 47.86192 | 11.87582 | 104° | 20km/h | 20915m | -15.9m/s | 0°C | 0% | 0hPa | 2.6V | 08:26:00 | 00:00:00 | 00:00:00 | |
| DF3TZ-5 | 2026-09-01 17:13:02 | 47.86195 | 11.87574 | 114° | 24km/h | 20931m | -16.2m/s | -53.6°C | 1.3% | 50.9hPa | 2.7V | 00:00:00 | 00:00:00 | 00:00:00 | |
| DL6DJ-15 | 2026-09-01 17:12:57 | 47.86210 | 11.87539 | 136° | 24km/h | 21011m | -16.4m/s | -53.4°C | 1.2% | 50.3hPa | 2.7V | 00:00:00 | 00:00:00 | 00:00:00 | |
| DO3MHA-12 | 2026-09-01 17:12:54 | 47.86222 | 11.87520 | 140° | 18km/h | 21059m | -15.5m/s | -53.4°C | 4.3% | 49.9hPa | 2.7V | 00:00:00 | 02:02:35 | 00:00:00 | |
| PG1ADW-2 | 2026-09-01 17:12:53 | 47.86226 | 11.87515 | 144° | 13km/h | 21075m | -16.3m/s | -53.4°C | 4.3% | 49.8hPa | 2.6V | 00:00:00 | 00:00:00 | 00:00:00 | |
| DM0DOS-11 | 2026-09-01 17:12:52 | 47.86248 | 11.87486 | 141° | 13km/h | 21172m | -15.6m/s | -53.2°C | 4.2% | 49.1hPa | 2.6V | 08:26:48 | 02:02:28 | 00:00:00 | |
| DG1MJG | 2026-09-01 17:12:51 | 47.86234 | 11.87504 | 135° | 20km/h | 21106m | -15.6m/s | -53.3°C | 1.2% | 49.6hPa | 2.7V | 00:00:00 | 00:00:00 | 00:00:00 | |
| DM7RM-13 | 2026-09-01 17:12:50 | 47.86234 | 11.87504 | 135° | 20km/h | 21106m | -15.6m/s | -53.3°C | 1.3% | 49.6hPa | 2.7V | 08:26:00 | 00:00:00 | 00:00:00 | |
| DB0UT-7 | 2026-09-01 17:12:49 | 47.86242 | 11.87495 | 145° | 9km/h | 21138m | -16.3m/s | -53.2°C | 4.2% | 49.3hPa | 2.7V | 00:00:00 | 00:00:00 | 00:00:00 | |
| OE8JPQ-2 | 2026-09-01 17:12:47 | 47.86248 | 11.87486 | 142° | 9km/h | 21172m | -15.5m/s | -53.2°C | 4.2% | 49.0hPa | 2.7V | 00:00:00 | 00:00:00 | 00:00:00 | |
| DO3MHA-12 | 2026-09-01 17:12:44 | 47.86256 | 11.87480 | 157° | 9km/h | 21220m | -15.8m/s | -53.2°C | 4.2% | 48.7hPa | 2.7V | 00:00:00 | 02:02:25 | 00:00:00 | |
| PETON7-10 | 2026-09-01 17:12:43 | 47.86258 | 11.87479 | 174° | 9km/h | 21237m | -16.4m/s | -53.3°C | 4.2% | 48.6hPa | 2.7V | 00:00:00 | 00:00:00 | 00:00:00 | |
| DM0DOS-11 | 2026-09-01 17:12:42 | 47.86274 | 11.87479 | 189° | 11km/h | 21335m | -16.9m/s | -53.7°C | 4.3% | 47.9hPa | 2.7V | 08:26:58 | 02:02:18 | 00:00:00 | |
| OE5DXL-15 | 2026-09-01 17:12:42 | 47.86261 | 11.87478 | 165° | 7km/h | 21253m | -16.5m/s | -53.3°C | 4.2% | 48.5hPa | 2.7V | 00:00:00 | 00:00:00 | 00:00:00 | |
| DF7PN | 2026-09-01 17:12:41 | 47.86269 | 11.87478 | 176° | 9km/h | 21302m | -16.8m/s | -53.5°C | 1.2% | 48.1hPa | 2.7V | 00:00:00 | 00:00:00 | 00:00:00 | |
| OM5KV | 2026-09-01 17:12:38 | 47.86269 | 11.87478 | 178° | 11km/h | 21302m | -16.8m/s | -53.5°C | 1.2% | 48.1hPa | 2.7V | 08:27:00 | 00:00:00 | 00:00:00 | |
| DF2AP-13 | 2026-09-01 17:12:37 | 47.86274 | 11.87479 | 190° | 9km/h | 21335m | -16.8m/s | -53.6°C | 4.3% | 47.8hPa | 2.7V | 00:00:00 | 02:02:18 | 08:30:00 | |
| OM5KV | 2026-09-01 17:12:36 | 47.86274 | 11.87479 | 191° | 11km/h | 21335m | -16.9m/s | -53.7°C | 1.3% | 47.9hPa | 2.6V | 08:27:00 | 00:00:00 | 00:00:00 | |
| DB0NH | 2026-09-01 17:12:35 | 47.86278 | 11.87479 | 196° | 11km/h | 21369m | -16.4m/s | -53.8°C | 4.4% | 47.6hPa | 2.6V | 00:00:00 | 02:02:16 | 00:00:00 | |
| DO3MHA-12 | 2026-09-01 17:12:34 | 47.86281 | 11.87480 | 186° | 7km/h | 21386m | -16.9m/s | -53.7°C | 4.4% | 47.5hPa | 2.7V | 00:00:00 | 02:02:15 | 00:00:00 | |
| PG1ADW-2 | 2026-09-01 17:12:33 | 47.86283 | 11.87480 | 192° | 7km/h | 21403m | -16.3m/s | -53.6°C | 4.3% | 47.3hPa | 2.7V | 00:00:00 | 00:00:00 | 00:00:00 | |
| DM0DOS-11 | 2026-09-01 17:12:32 | 47.86288 | 11.87488 | 278° | 7km/h | 21503m | -16.4m/s | -53.5°C | 4.2% | 46.7hPa | 2.7V | 08:27:08 | 02:02:08 | 00:00:00 | |
| DO3MHA-11 | 2026-09-01 17:12:31 | 47.86286 | 11.87482 | 200° | 7km/h | 21437m | -16.3m/s | -53.4°C | 4.3% | 47.1hPa | 2.7V | 08:27:00 | 02:02:12 | 00:00:00 | |
| DM7RM-13 | 2026-09-01 17:12:30 | 47.86286 | 11.87482 | 201° | 4km/h | 21437m | -16.4m/s | -53.4°C | 1.3% | 47.1hPa | 2.6V | 00:00:00 | 00:00:00 | 00:00:00 | |
| OM5KV | 2026-09-01 17:12:29 | 47.86287 | 11.87482 | 218° | 7km/h | 21453m | -17.2m/s | -53.4°C | 1.2% | 47.0hPa | 2.6V | 08:27:00 | 00:00:00 | 00:00:00 | |
| PETON7-10 | 2026-09-01 17:12:28 | 47.86288 | 11.87486 | 255° | 7km/h | 21486m | -17.3m/s | -53.4°C | 4.2% | 46.7hPa | 2.6V | 00:00:00 | 02:02:09 | 00:00:00 | |
| NBG1-10 | 2026-09-01 17:12:27 | 47.86288 | 11.87488 | 279° | 7km/h | 21503m | -16.4m/s | -53.5°C | 4.2% | 46.6hPa | 2.6V | 00:00:00 | 02:02:08 | 00:00:00 | |
| DL6DJ-15 | 2026-09-01 17:12:26 | 47.86287 | 11.87491 | 305° | 7km/h | 21519m | -16.0m/s | -53.6°C | 1.2% | 46.5hPa | 2.6V | 00:00:00 | 00:00:00 | 00:00:00 | |
| OE5DRO-10 | 2026-09-01 17:12:25 | 47.86286 | 11.87494 | 287° | 7km/h | 21537m | -17.0m/s | -53.6°C | 4.3% | 46.4hPa | 2.6V | 00:00:00 | 00:00:00 | 00:00:00 | |
| DO3MHA-12 | 2026-09-01 17:12:24 | 47.86285 | 11.87497 | 300° | 7km/h | 21553m | -16.6m/s | -53.7°C | 4.4% | 46.2hPa | 2.6V | 08:27:00 | 02:02:05 | 00:00:00 | |
| DM0DOS-11 | 2026-09-01 17:12:22 | 47.86272 | 11.87506 | 14° | 5km/h | 21689m | -16.9m/s | -53.4°C | 4.2% | 45.3hPa | 2.7V | 08:27:19 | 02:01:57 | 00:00:00 | |
| DO3MHA-11 | 2026-09-01 17:12:21 | 47.86280 | 11.87503 | 317° | 7km/h | 21604m | -17.1m/s | -53.5°C | 4.3% | 45.9hPa | 2.6V | 00:00:00 | 02:02:02 | 00:00:00 | |
| DL2OL | 2026-09-01 17:12:20 | 47.86280 | 11.87503 | 317° | 7km/h | 21604m | -17.2m/s | -53.5°C | 1.2% | 46.0hPa | 2.6V | 08:27:00 | 00:00:00 | 00:00:00 | |
| DB0UT-7 | 2026-09-01 17:12:19 | 47.86276 | 11.87506 | 356° | 9km/h | 21637m | -16.6m/s | -53.2°C | 4.1% | 45.6hPa | 2.6V | 00:00:00 | 02:02:00 | 00:00:00 | |
| OM5KV | 2026-09-01 17:12:18 | 47.86277 | 11.87506 | 356° | 9km/h | 21637m | -16.7m/s | -53.2°C | 1.2% | 45.7hPa | 2.6V | 08:27:00 | 00:00:00 | 00:00:00 | |
| OM5KV | 2026-09-01 17:12:17 | 47.86273 | 11.87506 | 8° | 4km/h | 21672m | -17.5m/s | -53.3°C | 1.2% | 45.5hPa | 2.6V | 08:27:00 | 00:00:00 | 00:00:00 | |
| DO3MHA-12 | 2026-09-01 17:12:14 | 47.86269 | 11.87503 | 67° | 7km/h | 21723m | -17.2m/s | -53.5°C | 4.3% | 45.0hPa | 2.6V | 00:00:00 | 02:01:55 | 00:00:00 | |
| PETON7-10 | 2026-09-01 17:12:13 | 47.86269 | 11.87500 | 101° | 7km/h | 21740m | -17.3m/s | -53.6°C | 4.3% | 44.9hPa | 2.6V | 08:27:00 | 00:00:00 | 00:00:00 | |
| OE5DXL-15 | 2026-09-01 17:12:12 | 47.86269 | 11.87498 | 100° | 13km/h | 21758m | -17.2m/s | -53.6°C | 4.3% | 44.8hPa | 2.7V | 00:00:00 | 00:00:00 | 00:00:00 | |
| DO3MHA-11 | 2026-09-01 17:12:11 | 47.86269 | 11.87496 | 86° | 7km/h | 21776m | -16.7m/s | -53.5°C | 4.3% | 44.7hPa | 2.7V | 00:00:00 | 02:01:52 | 00:00:00 | |
| OM5KV | 2026-09-01 17:12:10 | 47.86269 | 11.87496 | 86° | 5km/h | 21776m | -16.8m/s | -53.5°C | 1.2% | 44.7hPa | 2.7V | 08:27:00 | 00:00:00 | 00:00:00 | |
| OE8JPQ-2 | 2026-09-01 17:12:07 | 47.86269 | 11.87486 | 88° | 11km/h | 21845m | -17.3m/s | -53.5°C | 4.3% | 44.2hPa | 2.7V | 08:27:00 | 00:00:00 | 00:00:00 | |
| DM0DOS-11 | 2026-09-01 17:12:06 | 47.86265 | 11.87474 | 78° | 9km/h | 21913m | -17.7m/s | -53.3°C | 4.2% | 43.8hPa | 2.6V | 08:27:32 | 02:01:44 | 00:00:00 | |
| OE5DRO-10 | 2026-09-01 17:12:06 | 47.86268 | 11.87483 | 61° | 11km/h | 21862m | -16.7m/s | -53.5°C | 4.3% | 44.1hPa | 2.7V | 00:00:00 | 00:00:00 | 00:00:00 | |
| DK5PH-5 | 2026-09-01 17:12:05 | 47.86267 | 11.87481 | 55° | 15km/h | 21879m | -17.1m/s | -53.5°C | 4.3% | 44.0hPa | 2.7V | 00:00:00 | 02:01:46 | 00:00:00 | |
| DO3MHA-12 | 2026-09-01 17:12:04 | 47.86266 | 11.87477 | 65° | 9km/h | 21897m | -17.5m/s | -53.3°C | 4.2% | 43.8hPa | 2.6V | 00:00:00 | 02:01:45 | 00:00:00 | |
| DF3TZ-5 | 2026-09-01 17:12:00 | 47.86259 | 11.87465 | 34° | 9km/h | 21983m | -18.0m/s | -53.5°C | 1.2% | 43.3hPa | 2.6V | 00:00:00 | 00:00:00 | 00:00:00 | |
| DL6DJ-15 | 2026-09-01 17:11:55 | 47.86252 | 11.87461 | 2° | 9km/h | 22054m | -17.7m/s | -53.4°C | 1.3% | 42.8hPa | 2.6V | 00:00:00 | 00:00:00 | 00:00:00 | |
| DB0ND-19 | 2026-09-01 17:11:51 | 47.86230 | 11.87441 | 47° | 18km/h | 22178m | -17.3m/s | 0°C | -1.0% | -1.0hPa | 2.6V | 00:00:00 | 00:00:00 | 00:00:00 | |
| EDDB2-11 | 2026-09-01 17:11:48 | 47.86227 | 11.87436 | 51° | 20km/h | 22195m | -17.1m/s | -53.5°C | 1.3% | 41.9hPa | 2.6V | 00:00:00 | 00:00:00 | 00:00:00 | |
| OE8JPQ-2 | 2026-09-01 17:11:47 | 47.86227 | 11.87436 | 52° | 18km/h | 22195m | -17.0m/s | -53.5°C | 4.5% | 41.9hPa | 2.6V | 00:00:00 | 00:00:00 | 00:00:00 | |
| DM0DOS-11 | 2026-09-01 17:11:46 | 47.86217 | 11.87403 | 83° | 22km/h | 22266m | -18.7m/s | -53.4°C | 4.5% | 41.4hPa | 2.6V | 08:27:52 | 02:01:24 | 00:00:00 | |
| DO3MHA-12 | 2026-09-01 17:11:44 | 47.86218 | 11.87412 | 77° | 18km/h | 22248m | -18.4m/s | -53.3°C | 4.4% | 41.5hPa | 2.6V | 00:00:00 | 02:01:25 | 00:00:00 | |
| PETON7-10 | 2026-09-01 17:11:43 | 47.86217 | 11.87403 | 84° | 18km/h | 22267m | -18.6m/s | -53.4°C | 4.5% | 41.4hPa | 2.6V | 00:00:00 | 02:01:24 | 00:00:00 | |
| OE5DXL-15 | 2026-09-01 17:11:42 | 47.86217 | 11.87395 | 90° | 16km/h | 22286m | -18.8m/s | -53.4°C | 4.5% | 41.3hPa | 2.6V | 00:00:00 | 00:00:00 | 00:00:00 | |
| DO3MHA-11 | 2026-09-01 17:11:41 | 47.86217 | 11.87387 | 91° | 16km/h | 22305m | -18.0m/s | -53.4°C | 4.5% | 41.1hPa | 2.6V | 00:00:00 | 02:01:22 | 00:00:00 | |
| OE5WHR-10 | 2026-09-01 17:11:39 | 47.86217 | 11.87373 | 88° | 16km/h | 22342m | -17.2m/s | -52.8°C | 4.3% | 40.9hPa | 2.6V | 00:00:00 | 00:00:00 | 00:00:00 | |
| OM5KV | 2026-09-01 17:11:38 | 47.86217 | 11.87373 | 89° | 16km/h | 22342m | -17.3m/s | -52.9°C | 1.2% | 41.0hPa | 2.6V | 08:28:00 | 00:00:00 | 00:00:00 | |
| DM0DOS-11 | 2026-09-01 17:11:36 | 47.86219 | 11.87331 | 104° | 16km/h | 22471m | -18.1m/s | -52.3°C | 4.1% | 40.2hPa | 2.6V | 08:28:03 | 02:01:13 | 00:00:00 | |
| DK5PH-5 | 2026-09-01 17:11:35 | 47.86216 | 11.87349 | 98° | 15km/h | 22414m | -18.5m/s | -52.5°C | 4.2% | 40.5hPa | 2.6V | 00:00:00 | 02:01:16 | 00:00:00 | |
| DO3MHA-12 | 2026-09-01 17:11:34 | 47.86217 | 11.87342 | 104° | 18km/h | 22433m | -18.7m/s | -52.3°C | 4.2% | 40.3hPa | 2.6V | 00:00:00 | 02:01:15 | 00:00:00 | |
| OE5HKT-10 | 2026-09-01 17:11:33 | 47.86218 | 11.87336 | 105° | 15km/h | 22452m | -18.4m/s | -52.3°C | 4.1% | 40.2hPa | 2.6V | 00:00:00 | 00:00:00 | 00:00:00 | |
| DG1MFX-10 | 2026-09-01 17:11:32 | 47.86218 | 11.87336 | 106° | 16km/h | 22452m | -18.5m/s | -52.3°C | 1.2% | 40.3hPa | 2.6V | 08:28:00 | 00:00:00 | 00:00:00 | |
| DO3MHA-11 | 2026-09-01 17:11:31 | 47.86220 | 11.87325 | 102° | 16km/h | 22489m | -17.7m/s | -52.3°C | 4.1% | 40.0hPa | 2.6V | 00:00:00 | 02:01:12 | 00:00:00 | |
| OM5KV | 2026-09-01 17:11:30 | 47.86220 | 11.87325 | 102° | 16km/h | 22489m | -17.8m/s | -52.3°C | 1.2% | 40.1hPa | 2.7V | 08:28:00 | 00:00:00 | 00:00:00 | |
| DF3TZ-5 | 2026-09-01 17:11:29 | 47.86222 | 11.87305 | 99° | 18km/h | 22544m | -18.0m/s | -52.2°C | 1.2% | 39.7hPa | 2.7V | 00:00:00 | 00:00:00 | 00:00:00 | |
| PETON7-10 | 2026-09-01 17:11:28 | 47.86222 | 11.87305 | 100° | 15km/h | 22545m | -17.9m/s | -52.2°C | 4.1% | 39.7hPa | 2.7V | 00:00:00 | 00:00:00 | 00:00:00 | |
| OE8JPQ-2 | 2026-09-01 17:11:27 | 47.86223 | 11.87297 | 100° | 15km/h | 22563m | -18.8m/s | -52.2°C | 4.1% | 39.6hPa | 2.6V | 00:00:00 | 02:01:08 | 00:00:00 | |
| DM0DOS-11 | 2026-09-01 17:11:26 | 47.86225 | 11.87269 | 68° | 13km/h | 22654m | -17.2m/s | -52.4°C | 4.2% | 39hPa | 2.6V | 08:28:13 | 02:01:03 | 00:00:00 | |
| OM5KV | 2026-09-01 17:11:25 | 47.86224 | 11.87291 | 105° | 18km/h | 22581m | -18.3m/s | -52.4°C | 1.2% | 39.5hPa | 2.7V | 08:28:00 | 00:00:00 | 00:00:00 | |
| DO3MHA-12 | 2026-09-01 17:11:24 | 47.86225 | 11.87279 | 94° | 13km/h | 22619m | -17.6m/s | -52.5°C | 4.2% | 39.2hPa | 2.7V | 00:00:00 | 02:01:05 | 00:00:00 | |
| DM7RM-13 | 2026-09-01 17:11:23 | 47.86225 | 11.87279 | 94° | 15km/h | 22619m | -17.7m/s | -52.5°C | 1.2% | 39.3hPa | 2.6V | 00:00:00 | 00:00:00 | 00:00:00 | |
| DO3MHA-11 | 2026-09-01 17:11:21 | 47.86223 | 11.87265 | 59° | 13km/h | 22671m | -17.2m/s | -52.3°C | 4.2% | 38.9hPa | 2.6V | 00:00:00 | 02:01:02 | 00:00:00 | |
| OM5KV | 2026-09-01 17:11:20 | 47.86223 | 11.87265 | 60° | 13km/h | 22671m | -17.2m/s | -52.3°C | 1.2% | 38.9hPa | 2.6V | 08:28:00 | 00:00:00 | 00:00:00 | |
| BAUMI2-15 | 2026-09-01 17:11:19 | 47.86220 | 11.87256 | 63° | 15km/h | 22706m | -17.8m/s | -52.2°C | 4.1% | 38.7hPa | 2.6V | 00:00:00 | 02:01:00 | 00:00:00 | |
| EDDB2-11 | 2026-09-01 17:11:17 | 47.86217 | 11.87247 | 72° | 13km/h | 22742m | -18.4m/s | -52.2°C | 1.2% | 38.5hPa | 2.6V | 00:00:00 | 00:00:00 | 00:00:00 | |
| DM0DOS-11 | 2026-09-01 17:11:14 | 47.86215 | 11.87224 | 87° | 11km/h | 22833m | -17.5m/s | -51.8°C | 4% | 38hPa | 2.6V | 08:28:23 | 02:00:53 | 00:00:00 | |
| DO3MHA-12 | 2026-09-01 17:11:14 | 47.86216 | 11.87232 | 84° | 13km/h | 22797m | -18.0m/s | -51.6°C | 3.9% | 38.1hPa | 2.6V | 00:00:00 | 02:00:55 | 00:00:00 | |
| PETON7-10 | 2026-09-01 17:11:13 | 47.86215 | 11.87228 | 86° | 15km/h | 22815m | -17.6m/s | -51.7°C | 3.9% | 38.0hPa | 2.6V | 00:00:00 | 00:00:00 | 00:00:00 | |
| OE5DXL-15 | 2026-09-01 17:11:12 | 47.86215 | 11.87223 | 88° | 15km/h | 22833m | -17.5m/s | -51.8°C | 4.0% | 37.9hPa | 2.6V | 00:00:00 | 00:00:00 | 00:00:00 | |
| OM5KV | 2026-09-01 17:11:11 | 47.86215 | 11.87219 | 88° | 13km/h | 22851m | -17.6m/s | -51.8°C | 1.1% | 37.8hPa | 2.7V | 08:28:00 | 00:00:00 | 00:00:00 | |
| OE5REO-15 | 2026-09-01 17:11:10 | 47.86215 | 11.87219 | 88° | 13km/h | 22851m | -17.6m/s | -51.8°C | 1.1% | 37.8hPa | 2.7V | 00:00:00 | 00:00:00 | 00:00:00 | |
| BAUMI2-15 | 2026-09-01 17:11:09 | 47.86215 | 11.87210 | 94° | 15km/h | 22887m | -18.1m/s | -51.5°C | 3.8% | 37.6hPa | 2.7V | 00:00:00 | 02:00:50 | 00:00:00 | |
| OM5KV | 2026-09-01 17:11:08 | 47.86215 | 11.87210 | 95° | 13km/h | 22887m | -18.2m/s | -51.5°C | 1.1% | 37.7hPa | 2.6V | 08:28:00 | 00:00:00 | 00:00:00 | |
| OE8JPQ-2 | 2026-09-01 17:11:07 | 47.86217 | 11.87199 | 112° | 16km/h | 22922m | -18.9m/s | -51.5°C | 3.8% | 37.4hPa | 2.6V | 00:00:00 | 00:00:00 | 00:00:00 | |
| DK5PH-5 | 2026-09-01 17:11:05 | 47.86221 | 11.87189 | 134° | 15km/h | 22960m | -19.5m/s | -51.6°C | 3.8% | 37.2hPa | 2.7V | 00:00:00 | 02:00:46 | 00:00:00 | |
| DM0DOS-11 | 2026-09-01 17:11:04 | 47.86232 | 11.87178 | 158° | 18km/h | 23017m | -18.9m/s | -51.9°C | 4% | 36.9hPa | 2.7V | 08:28:33 | 02:00:43 | 00:00:00 | |
| DO3MHA-12 | 2026-09-01 17:11:04 | 47.86224 | 11.87185 | 144° | 18km/h | 22979m | -19.0m/s | -51.7°C | 3.9% | 37.1hPa | 2.6V | 00:00:00 | 02:00:45 | 00:00:00 | |
| DM7RM-13 | 2026-09-01 17:11:02 | 47.86228 | 11.87181 | 153° | 18km/h | 22998m | -19.1m/s | -51.8°C | 1.1% | 37.0hPa | 2.6V | 00:00:00 | 00:00:00 | 00:00:00 | |
| DF3TZ-5 | 2026-09-01 17:10:58 | 47.86254 | 11.87173 | 180° | 16km/h | 23112m | -18.7m/s | -51.9°C | 1.1% | 36.4hPa | 2.6V | 00:00:00 | 00:00:00 | 00:00:00 | |
| DM0DOS-11 | 2026-09-01 17:10:57 | 47.86274 | 11.87177 | 195° | 16km/h | 23206m | -19.6m/s | -52.2°C | 4.2% | 35.8hPa | 2.6V | 08:28:43 | 02:00:33 | 00:00:00 | |
| DL6DJ-15 | 2026-09-01 17:10:53 | 47.86274 | 11.87177 | 195° | 15km/h | 23206m | -19.6m/s | -52.2°C | 1.2% | 35.8hPa | 2.7V | 00:00:00 | 00:00:00 | 00:00:00 | |
| DO3MHA-11 | 2026-09-01 17:10:51 | 47.86277 | 11.87179 | 200° | 13km/h | 23226m | -19.8m/s | -52.2°C | 4.2% | 35.7hPa | 2.7V | 00:00:00 | 02:00:32 | 00:00:00 | |
| OE5DRO-10 | 2026-09-01 17:10:50 | 47.86281 | 11.87181 | 205° | 13km/h | 23245m | -19.3m/s | -52.3°C | 4.2% | 35.6hPa | 2.7V | 00:00:00 | 00:00:00 | 00:00:00 | |
| BAUMI2-15 | 2026-09-01 17:10:49 | 47.86284 | 11.87184 | 211° | 11km/h | 23265m | -19.4m/s | -52.3°C | 4.2% | 35.5hPa | 2.7V | 00:00:00 | 02:00:30 | 00:00:00 | |
| NBG1-10 | 2026-09-01 17:10:48 | 47.86287 | 11.87186 | 217° | 11km/h | 23285m | -19.2m/s | -52.3°C | 4.3% | 35.4hPa | 2.7V | 00:00:00 | 02:00:29 | 00:00:00 | |
| DM0DOS-11 | 2026-09-01 17:10:47 | 47.86286 | 11.87202 | 352° | 13km/h | 23401m | -19.1m/s | -51.9°C | 4.1% | 34.8hPa | 2.7V | 08:28:53 | 02:00:23 | 00:00:00 | |
| EDDB2-11 | 2026-09-01 17:10:46 | 47.86291 | 11.87196 | 276° | 9km/h | 23342m | -19.5m/s | -52.3°C | 1.2% | 35.1hPa | 2.7V | 00:00:00 | 00:00:00 | 00:00:00 | |
| DO3MHA-12 | 2026-09-01 17:10:44 | 47.86291 | 11.87199 | 308° | 15km/h | 23362m | -19.3m/s | -52.1°C | 4.2% | 34.9hPa | 2.7V | 00:00:00 | 02:00:25 | 00:00:00 | |
| PETON7-10 | 2026-09-01 17:10:43 | 47.86289 | 11.87201 | 338° | 13km/h | 23381m | -19.5m/s | -52.0°C | 4.2% | 34.8hPa | 2.7V | 00:00:00 | 00:00:00 | 00:00:00 | |
| OE5DXL-15 | 2026-09-01 17:10:42 | 47.86286 | 11.87202 | 353° | 11km/h | 23401m | -19.1m/s | -51.9°C | 4.1% | 34.7hPa | 2.7V | 00:00:00 | 00:00:00 | 00:00:00 | |
| OE5MMP-10 | 2026-09-01 17:10:41 | 47.86282 | 11.87203 | 5° | 13km/h | 23420m | -18.9m/s | -51.8°C | 4.1% | 34.6hPa | 2.7V | 00:00:00 | 02:00:22 | 00:00:00 | |
| OM5KV | 2026-09-01 17:10:40 | 47.86282 | 11.87203 | 6° | 16km/h | 23420m | -18.9m/s | -51.9°C | 1.2% | 34.7hPa | 2.7V | 08:29:00 | 00:00:00 | 00:00:00 | |
| BAUMI2-15 | 2026-09-01 17:10:39 | 47.86274 | 11.87200 | 20° | 15km/h | 23458m | -19.9m/s | -51.5°C | 4.0% | 34.4hPa | 2.7V | 00:00:00 | 02:00:20 | 00:00:00 | |
| DM0DOS-11 | 2026-09-01 17:10:37 | 47.86252 | 11.87188 | 354° | 7km/h | 23597m | -19.7m/s | -51.1°C | 3.8% | 33.7hPa | 2.7V | 08:29:03 | 02:00:13 | 00:00:00 | |
| DF7PN | 2026-09-01 17:10:36 | 47.86262 | 11.87192 | 25° | 13km/h | 23518m | -19.7m/s | -51.5°C | 1.1% | 34.1hPa | 2.6V | 00:00:00 | 00:00:00 | 00:00:00 | |
| DK5PH-5 | 2026-09-01 17:10:35 | 47.86259 | 11.87190 | 24° | 11km/h | 23538m | -19.7m/s | -51.4°C | 3.9% | 34.0hPa | 2.6V | 00:00:00 | 02:00:16 | 00:00:00 | |
| DO3MHA-12 | 2026-09-01 17:10:34 | 47.86256 | 11.87189 | 19° | 7km/h | 23557m | -19.7m/s | -51.3°C | 3.8% | 33.9hPa | 2.6V | 00:00:00 | 02:00:15 | 00:00:00 | |
| DO3MHA-11 | 2026-09-01 17:10:31 | 47.86251 | 11.87188 | 332° | 9km/h | 23617m | -19.4m/s | -51.0°C | 3.8% | 33.6hPa | 2.6V | 00:00:00 | 02:00:12 | 00:00:00 | |
| DO8TBO-1 | 2026-09-01 17:10:30 | 47.86250 | 11.87190 | 303° | 16km/h | 23637m | -19.8m/s | -51.0°C | 3.8% | 33.5hPa | 2.7V | 00:00:00 | 02:00:11 | 00:00:00 | |
| BAUMI2-15 | 2026-09-01 17:10:29 | 47.86249 | 11.87192 | 291° | 7km/h | 23656m | -19.3m/s | -50.9°C | 3.7% | 33.4hPa | 2.7V | 00:00:00 | 02:00:10 | 00:00:00 | |
| PETON7-10 | 2026-09-01 17:10:28 | 47.86249 | 11.87194 | 287° | 11km/h | 23676m | -19.0m/s | -51.0°C | 3.7% | 33.3hPa | 2.7V | 00:00:00 | 00:00:00 | 00:00:00 | |
| DF3TZ-5 | 2026-09-01 17:10:27 | 47.86249 | 11.87200 | 252° | 7km/h | 23716m | -20.3m/s | -51.1°C | 1.0% | 33.1hPa | 2.7V | 00:00:00 | 00:00:00 | 00:00:00 | |
| DM0DOS-11 | 2026-09-01 17:10:26 | 47.86255 | 11.87217 | 250° | 16km/h | 23796m | -19.6m/s | -51.4°C | 3.9% | 32.7hPa | 2.7V | 08:29:13 | 02:00:03 | 00:00:00 | |
| DO3MHA-12 | 2026-09-01 17:10:24 | 47.86251 | 11.87207 | 234° | 13km/h | 23756m | -20.3m/s | -51.2°C | 3.9% | 32.8hPa | 2.6V | 00:00:00 | 02:00:05 | 00:00:00 | |
| IN3HCDX | 2026-09-01 17:10:23 | 47.86251 | 11.87207 | 234° | 15km/h | 23756m | -20.4m/s | -51.3°C | 1.1% | 32.9hPa | 2.7V | 08:29:00 | 00:00:00 | 00:00:00 | |
| DL6DJ-15 | 2026-09-01 17:10:22 | 47.86256 | 11.87222 | 266° | 13km/h | 23816m | -19.5m/s | -51.5°C | 1.1% | 32.6hPa | 2.7V | 00:00:00 | 00:00:00 | 00:00:00 | |
| DO3MHA-11 | 2026-09-01 17:10:21 | 47.86256 | 11.87222 | 267° | 11km/h | 23816m | -19.5m/s | -51.4°C | 3.9% | 32.6hPa | 2.7V | 00:00:00 | 02:00:02 | 00:00:00 | |
| BAUMI2-15 | 2026-09-01 17:10:19 | 47.86256 | 11.87230 | 286° | 11km/h | 23856m | -20.8m/s | -51.7°C | 4.0% | 32.4hPa | 2.7V | 00:00:00 | 02:00:00 | 00:00:00 | |
| OM5KV | 2026-09-01 17:10:17 | 47.86255 | 11.87232 | 314° | 9km/h | 23877m | -21.3m/s | -51.9°C | 1.1% | 32.3hPa | 2.7V | 08:29:00 | 00:00:00 | 00:00:00 | |
| DM0DOS-11 | 2026-09-01 17:10:16 | 47.86239 | 11.87248 | 319° | 11km/h | 24002m | -21.3m/s | -51.8°C | 4.2% | 31.7hPa | 2.7V | 08:29:23 | 01:59:53 | 00:00:00 | |
| NBG1-10 | 2026-09-01 17:10:15 | 47.86247 | 11.87239 | 324° | 13km/h | 23941m | -23.1m/s | -51.9°C | 4.2% | 31.9hPa | 2.6V | 00:00:00 | 01:59:56 | 00:00:00 | |
| DO3MHA-12 | 2026-09-01 17:10:14 | 47.86245 | 11.87242 | 331° | 11km/h | 23962m | -19.0m/s | -51.8°C | 4.1% | 31.8hPa | 2.6V | 00:00:00 | 01:59:55 | 00:00:00 | |
| PETON7-10 | 2026-09-01 17:10:13 | 47.86242 | 11.87245 | 327° | 11km/h | 23982m | -20.7m/s | -51.7°C | 4.1% | 31.8hPa | 2.6V | 00:00:00 | 01:59:54 | 00:00:00 | |
| OE5DXL-15 | 2026-09-01 17:10:12 | 47.86239 | 11.87248 | 320° | 13km/h | 24003m | -21.3m/s | -51.7°C | 4.2% | 31.6hPa | 2.6V | 00:00:00 | 00:00:00 | 00:00:00 | |
| DO3MHA-11 | 2026-09-01 17:10:11 | 47.86237 | 11.87251 | 315° | 11km/h | 24024m | -20.9m/s | -51.7°C | 4.2% | 31.5hPa | 2.6V | 00:00:00 | 01:59:52 | 00:00:00 | |
| BAUMI2-15 | 2026-09-01 17:10:09 | 47.86232 | 11.87256 | 330° | 9km/h | 24065m | -20.9m/s | -51.7°C | 4.2% | 31.3hPa | 2.6V | 00:00:00 | 01:59:50 | 08:30:00 | |
| OE8JPQ-2 | 2026-09-01 17:10:07 | 47.86227 | 11.87259 | 339° | 11km/h | 24105m | -21.5m/s | -51.6°C | 4.2% | 31.1hPa | 2.7V | 00:00:00 | 00:00:00 | 00:00:00 | |
| DM0DOS-11 | 2026-09-01 17:10:06 | 47.86216 | 11.87267 | 334° | 13km/h | 24212m | -21.8m/s | -51.1°C | 4% | 30.7hPa | 2.7V | 08:30:00 | 01:59:43 | 00:00:00 | |
| DK5PH-5 | 2026-09-01 17:10:05 | 47.86223 | 11.87262 | 338° | 13km/h | 24148m | -21.8m/s | -51.2°C | 4.0% | 30.9hPa | 2.7V | 00:00:00 | 01:59:46 | 00:00:00 | |
| DO3MHA-12 | 2026-09-01 17:10:04 | 47.86221 | 11.87263 | 330° | 13km/h | 24169m | -21.2m/s | -51.2°C | 4.1% | 30.8hPa | 2.7V | 00:00:00 | 01:59:45 | 00:00:00 | |
| IN3HCDX | 2026-09-01 17:10:02 | 47.86219 | 11.87265 | 330° | 11km/h | 24191m | -21.3m/s | -51.2°C | 1.1% | 30.8hPa | 2.7V | 00:00:00 | 00:00:00 | 00:00:00 | |
| DO3MHA-11 | 2026-09-01 17:10:01 | 47.86214 | 11.87269 | 338° | 13km/h | 24234m | -21.3m/s | -51.0°C | 4.0% | 30.5hPa | 2.7V | 00:00:00 | 01:59:42 | 00:00:00 | |
| PETON7-10 | 2026-09-01 17:09:58 | 47.86204 | 11.87272 | 4° | 13km/h | 24297m | -21.7m/s | -50.4°C | 3.8% | 30.2hPa | 2.7V | 00:00:00 | 00:00:00 | 08:30:00 | |
| DM0DOS-11 | 2026-09-01 17:09:56 | 47.86187 | 11.87270 | 358° | 13km/h | 24425m | -21.2m/s | -50.4°C | 3.8% | 29.7hPa | 2.7V | 08:30:00 | 01:59:33 | 00:00:00 | |
| DF3TZ-5 | 2026-09-01 17:09:55 | 47.86195 | 11.87270 | 12° | 9km/h | 24361m | -22.3m/s | -50.4°C | 1.0% | 30.0hPa | 2.7V | 00:00:00 | 00:00:00 | 00:00:00 | |
| SONDE2-11 | 2026-09-01 17:09:51 | 47.86184 | 11.87269 | 12° | 13km/h | 24446m | -20.6m/s | -50.4°C | 1.0% | 29.6hPa | 2.7V | 00:00:00 | 00:00:00 | 00:00:00 | |
| DL6DJ-15 | 2026-09-01 17:09:50 | 47.86181 | 11.87268 | 18° | 13km/h | 24468m | -22.0m/s | -50.5°C | 1.1% | 29.5hPa | 2.7V | 00:00:00 | 00:00:00 | 00:00:00 | |
| DB0UT-7 | 2026-09-01 17:09:49 | 47.86177 | 11.87266 | 24° | 13km/h | 24489m | -21.9m/s | -50.4°C | 3.7% | 29.4hPa | 2.7V | 00:00:00 | 00:00:00 | 00:00:00 | |
| DG1MFX-10 | 2026-09-01 17:09:48 | 47.86177 | 11.87266 | 24° | 15km/h | 24489m | -21.9m/s | -50.5°C | 1.0% | 29.4hPa | 2.7V | 00:00:00 | 00:00:00 | 00:00:00 | |
| OE8JPQ-2 | 2026-09-01 17:09:47 | 47.86172 | 11.87261 | 36° | 11km/h | 24534m | -21.2m/s | -50.4°C | 3.8% | 29.2hPa | 2.7V | 00:00:00 | 00:00:00 | 00:00:00 | |
| OM5KV | 2026-09-01 17:09:46 | 47.86172 | 11.87261 | 37° | 13km/h | 24534m | -21.3m/s | -50.5°C | 1.1% | 29.2hPa | 2.7V | 00:00:00 | 00:00:00 | 00:00:00 | |
| DM0DOS-11 | 2026-09-01 17:09:46 | 47.86161 | 11.87240 | 73° | 15km/h | 24640m | -20.3m/s | -50.3°C | 3.8% | 28.7hPa | 2.7V | 08:30:00 | 01:59:23 | 00:00:00 | |
| DF1GD-15 | 2026-09-01 17:09:45 | 47.86169 | 11.87258 | 42° | 13km/h | 24556m | -22.2m/s | 0°C | 0% | 0hPa | 2.7V | 00:00:00 | 00:00:00 | 00:00:00 | |
| EDDB2-11 | 2026-09-01 17:09:44 | 47.86163 | 11.87246 | 65° | 15km/h | 24619m | -20.9m/s | -50.3°C | 1.0% | 28.8hPa | 2.7V | 00:00:00 | 00:00:00 | 00:00:00 | |
| PETON7-10 | 2026-09-01 17:09:43 | 47.86163 | 11.87245 | 66° | 11km/h | 24620m | -20.9m/s | -50.2°C | 3.7% | 28.8hPa | 2.7V | 00:00:00 | 00:00:00 | 00:00:00 | |
| OE5DXL-15 | 2026-09-01 17:09:42 | 47.86162 | 11.87240 | 74° | 11km/h | 24640m | -20.2m/s | -50.2°C | 3.8% | 28.7hPa | 2.7V | 00:00:00 | 00:00:00 | 08:30:00 | |
| DO3MHA-11 | 2026-09-01 17:09:41 | 47.86161 | 11.87235 | 78° | 13km/h | 24661m | -20.5m/s | -50.2°C | 3.7% | 28.6hPa | 2.7V | 00:00:00 | 01:59:22 | 00:00:00 | |
| OM5KV | 2026-09-01 17:09:40 | 47.86160 | 11.87235 | 79° | 15km/h | 24661m | -20.6m/s | -50.3°C | 1.0% | 28.6hPa | 2.7V | 00:00:00 | 00:00:00 | 00:00:00 | |
| DM0DOS-11 | 2026-09-01 17:09:36 | 47.86148 | 11.87200 | 79° | 9km/h | 24863m | -23.7m/s | -50.3°C | 3.7% | 27.8hPa | 2.7V | 08:30:00 | 01:59:13 | 00:00:00 | |
| DK5PH-5 | 2026-09-01 17:09:35 | 47.86153 | 11.87212 | 46° | 13km/h | 24792m | -22.1m/s | -50.2°C | 3.6% | 28.0hPa | 2.7V | 00:00:00 | 01:59:16 | 00:00:00 | |
| DO3MHA-12 | 2026-09-01 17:09:34 | 47.86151 | 11.87208 | 50° | 9km/h | 24815m | -23.3m/s | -50.2°C | 3.7% | 27.9hPa | 2.7V | 00:00:00 | 01:59:15 | 00:00:00 | |
| OM5KV | 2026-09-01 17:09:33 | 47.86151 | 11.87208 | 50° | 13km/h | 24815m | -23.4m/s | -50.3°C | 1.0% | 28.0hPa | 2.7V | 00:00:00 | 00:00:00 | 00:00:00 | |
| DO3MHA-11 | 2026-09-01 17:09:31 | 47.86147 | 11.87198 | 90° | 9km/h | 24887m | -23.3m/s | -50.4°C | 3.7% | 27.6hPa | 2.7V | 00:00:00 | 01:59:12 | 08:30:00 | |
| OM5KV | 2026-09-01 17:09:29 | 47.86147 | 11.87196 | 83° | 5km/h | 24911m | -23.7m/s | -50.6°C | 1.1% | 27.5hPa | 2.6V | 00:00:00 | 00:00:00 | 00:00:00 | |
| PETON7-10 | 2026-09-01 17:09:28 | 47.86148 | 11.87196 | 247° | 13km/h | 24963m | -28.5m/s | -50.6°C | 3.8% | 27.3hPa | 2.6V | 00:00:00 | 01:59:09 | 00:00:00 | |
| SONCRA | 2026-09-01 17:09:27 | 47.86149 | 11.87203 | 252° | 11km/h | 25015m | -25.1m/s | -50.5°C | 1.0% | 27.1hPa | 2.6V | 00:00:00 | 00:00:00 | 00:00:00 | |
| DM0DOS-11 | 2026-09-01 17:09:26 | 47.86148 | 11.87223 | 308° | 15km/h | 25114m | -23.9m/s | -50.3°C | 3.8% | 26.7hPa | 2.6V | 08:30:00 | 01:59:03 | 00:00:00 | |
| DJTTGO | 2026-09-01 17:09:25 | 47.86149 | 11.87203 | 254° | 11km/h | 25015m | -25.1m/s | 0°C | 0% | 0hPa | 2.6V | 00:00:00 | 00:00:00 | 00:00:00 | |
| DO3MHA-12 | 2026-09-01 17:09:24 | 47.86150 | 11.87213 | 275° | 13km/h | 25066m | -24.8m/s | -50.5°C | 3.9% | 26.9hPa | 2.6V | 00:00:00 | 01:59:05 | 08:30:00 | |
| DO3MHA-11 | 2026-09-01 17:09:21 | 47.86145 | 11.87227 | 332° | 13km/h | 25140m | -28.1m/s | -50.1°C | 3.7% | 26.6hPa | 2.6V | 00:00:00 | 01:59:02 | 00:00:00 | |
| SONDE2-11 | 2026-09-01 17:09:20 | 47.86142 | 11.87228 | 349° | 11km/h | 25168m | -28.2m/s | -50.1°C | 1.0% | 26.5hPa | 2.6V | 00:00:00 | 00:00:00 | 00:00:00 | |
| DB0UT-7 | 2026-09-01 17:09:19 | 47.86139 | 11.87228 | 5° | 18km/h | 25195m | -25.3m/s | -50.2°C | 3.7% | 26.4hPa | 2.6V | 00:00:00 | 01:59:00 | 00:00:00 | |
| OM5KV | 2026-09-01 17:09:18 | 47.86139 | 11.87228 | 5° | 13km/h | 25195m | -25.3m/s | -50.3°C | 1.0% | 26.4hPa | 2.7V | 00:00:00 | 00:00:00 | 00:00:00 | |
| DM0DOS-11 | 2026-09-01 17:09:16 | 47.86135 | 11.87205 | 121° | 15km/h | 25409m | -30.3m/s | -50.1°C | 3.5% | 25.6hPa | 2.7V | 08:30:00 | 01:58:53 | 00:00:00 | |
| OM5KV | 2026-09-01 17:09:15 | 47.86131 | 11.87217 | 89° | 9km/h | 25312m | -30.2m/s | -50.5°C | 1.0% | 26.0hPa | 2.6V | 00:00:00 | 00:00:00 | 00:00:00 | |
| DO3MHA-12 | 2026-09-01 17:09:14 | 47.86132 | 11.87213 | 122° | 18km/h | 25344m | -34.3m/s | -50.4°C | 3.6% | 25.9hPa | 2.6V | 00:00:00 | 01:58:55 | 00:00:00 | |
| PETON7-10 | 2026-09-01 17:09:13 | 47.86134 | 11.87209 | 113° | 20km/h | 25378m | -32.8m/s | -50.3°C | 3.6% | 25.7hPa | 2.6V | 00:00:00 | 00:00:00 | 00:00:00 | |
| OM5KV | 2026-09-01 17:09:12 | 47.86134 | 11.87209 | 113° | 13km/h | 25378m | -32.8m/s | -50.3°C | 1.0% | 25.8hPa | 2.6V | 00:00:00 | 00:00:00 | 00:00:00 | |
| DO3MHA-11 | 2026-09-01 17:09:11 | 47.86137 | 11.87200 | 130° | 22km/h | 25439m | -28.4m/s | -50.1°C | 3.5% | 25.4hPa | 2.6V | 00:00:00 | 01:58:52 | 00:00:00 | |
| NBG1-10 | 2026-09-01 17:09:09 | 47.86141 | 11.87188 | 102° | 16km/h | 25498m | -30.9m/s | -50.0°C | 3.6% | 25.2hPa | 2.6V | 00:00:00 | 01:58:50 | 00:00:00 | |
| DB0NH | 2026-09-01 17:09:08 | 47.86142 | 11.87180 | 100° | 18km/h | 25527m | -26.6m/s | -50.1°C | 3.6% | 25.0hPa | 2.6V | 00:00:00 | 01:58:49 | 00:00:00 | |
| OE8JPQ-2 | 2026-09-01 17:09:07 | 47.86143 | 11.87171 | 100° | 20km/h | 25550m | -18.8m/s | -50.1°C | 3.7% | 24.9hPa | 2.6V | 00:00:00 | 00:00:00 | 08:30:00 | |
| DM0DOS-11 | 2026-09-01 17:09:06 | 47.86149 | 11.87128 | 105° | 22km/h | 25555m | 5.2m/s | -50.1°C | 3.7% | 24.9hPa | 2.6V | 08:30:00 | 01:58:43 | 00:00:00 | |
| DK5PH-5 | 2026-09-01 17:09:05 | 47.86145 | 11.87154 | 99° | 16km/h | 25569m | -0.3m/s | -50.1°C | 3.7% | 24.8hPa | 2.7V | 00:00:00 | 01:58:46 | 08:30:00 | |
| DO3MHA-12 | 2026-09-01 17:09:04 | 47.86146 | 11.87145 | 100° | 18km/h | 25567m | 5.7m/s | -50.1°C | 3.7% | 24.8hPa | 2.7V | 00:00:00 | 01:58:45 | 00:00:00 | |
| DF7PN | 2026-09-01 17:09:03 | 47.86147 | 11.87136 | 102° | 22km/h | 25561m | 6.0m/s | -50.2°C | 1.0% | 24.8hPa | 2.7V | 00:00:00 | 00:00:00 | 00:00:00 | |
| DO3MHA-11 | 2026-09-01 17:09:01 | 47.86150 | 11.87121 | 103° | 18km/h | 25550m | 5.4m/s | -50.1°C | 3.6% | 24.9hPa | 2.7V | 00:00:00 | 01:58:42 | 00:00:00 | |
| OM5KV | 2026-09-01 17:09:00 | 47.86150 | 11.87121 | 104° | 18km/h | 25550m | 5.4m/s | -50.1°C | 1.0% | 24.9hPa | 2.6V | 00:00:00 | 00:00:00 | 00:00:00 | |
| IN3HCDX | 2026-09-01 17:08:59 | 47.86150 | 11.87114 | 93° | 16km/h | 25544m | 6.9m/s | -50.2°C | 1.0% | 24.9hPa | 2.6V | 00:00:00 | 00:00:00 | 00:00:00 | |
| PETON7-10 | 2026-09-01 17:08:58 | 47.86149 | 11.87102 | 79° | 15km/h | 25532m | 4.5m/s | -50.1°C | 3.7% | 24.9hPa | 2.6V | 00:00:00 | 00:00:00 | 00:00:00 | |
| DM0DOS-11 | 2026-09-01 17:08:57 | 47.86154 | 11.87059 | 109° | 22km/h | 25499m | 4.8m/s | -50.3°C | 3.7% | 25.1hPa | 2.6V | 08:30:00 | 01:58:33 | 00:00:00 | |
| DF3TZ-5 | 2026-09-01 17:08:53 | 47.86152 | 11.87067 | 103° | 20km/h | 25504m | 5.5m/s | -50.3°C | 1.0% | 25.1hPa | 2.6V | 00:00:00 | 00:00:00 | 00:00:00 | |
| SONDE2-11 | 2026-09-01 17:08:49 | 47.86162 | 11.87041 | 128° | 15km/h | 25482m | 4.9m/s | -50.3°C | 1.0% | 25.2hPa | 2.6V | 00:00:00 | 00:00:00 | 00:00:00 | |
| DL6DJ-15 | 2026-09-01 17:08:48 | 47.86163 | 11.87037 | 118° | 9km/h | 25477m | 6.5m/s | -50.3°C | 1.0% | 25.2hPa | 2.6V | 00:00:00 | 00:00:00 | 00:00:00 | |
| OE8JPQ-2 | 2026-09-01 17:08:47 | 47.86164 | 11.87034 | 92° | 11km/h | 25471m | 5.3m/s | -50.3°C | 3.7% | 25.2hPa | 2.6V | 00:00:00 | 00:00:00 | 00:00:00 | |
| DM0DOS-11 | 2026-09-01 17:08:46 | 47.86159 | 11.87017 | 54° | 13km/h | 25437m | 5.6m/s | -50.3°C | 3.7% | 25.3hPa | 2.6V | 08:30:00 | 01:58:22 | 00:00:00 | |
| DG1MJG | 2026-09-01 17:08:45 | 47.86164 | 11.87031 | 70° | 5km/h | 25465m | 5.2m/s | -50.3°C | 1.0% | 25.2hPa | 2.6V | 00:00:00 | 00:00:00 | 00:00:00 | |
| DO3MHA-12 | 2026-09-01 17:08:44 | 47.86163 | 11.87027 | 73° | 15km/h | 25454m | 4.9m/s | -50.2°C | 3.7% | 25.2hPa | 2.6V | 00:00:00 | 01:58:25 | 00:00:00 | |
| PETON7-10 | 2026-09-01 17:08:43 | 47.86162 | 11.87024 | 68° | 13km/h | 25449m | 5.0m/s | -50.3°C | 3.8% | 25.2hPa | 2.6V | 00:00:00 | 01:58:24 | 00:00:00 | |
| EDDB2-11 | 2026-09-01 17:08:42 | 47.86159 | 11.87017 | 54° | 13km/h | 25437m | 5.6m/s | -50.3°C | 1.0% | 25.3hPa | 2.6V | 00:00:00 | 00:00:00 | 00:00:00 | |
| OE5MMP-10 | 2026-09-01 17:08:41 | 47.86159 | 11.87017 | 55° | 16km/h | 25437m | 5.5m/s | -50.3°C | 3.7% | 25.3hPa | 2.6V | 00:00:00 | 01:58:22 | 00:00:00 | |
| OM5KV | 2026-09-01 17:08:39 | 47.86157 | 11.87013 | 63° | 15km/h | 25432m | 4.6m/s | -50.3°C | 1.0% | 25.3hPa | 2.6V | 00:00:00 | 00:00:00 | 00:00:00 | |
| DB0NH | 2026-09-01 17:08:38 | 47.86156 | 11.87001 | 94° | 11km/h | 25421m | 6.1m/s | -50.2°C | 3.7% | 25.3hPa | 2.6V | 00:00:00 | 01:58:19 | 00:00:00 | |
| OE5DRO-10 | 2026-09-01 17:08:37 | 47.86156 | 11.86994 | 101° | 13km/h | 25415m | 4.9m/s | -50.3°C | 3.7% | 25.4hPa | 2.6V | 00:00:00 | 00:00:00 | 00:00:00 | |
| DM0DOS-11 | 2026-09-01 17:08:36 | 47.86152 | 11.86964 | 30° | 7km/h | 25382m | 6m/s | -50.7°C | 3.8% | 25.5hPa | 2.6V | 08:30:00 | 01:58:12 | 00:00:00 | |
| NBG1-10 | 2026-09-01 17:08:36 | 47.86157 | 11.86987 | 99° | 11km/h | 25410m | 4.9m/s | -50.3°C | 3.7% | 25.4hPa | 2.6V | 00:00:00 | 01:58:17 | 00:00:00 | |
| DK5PH-5 | 2026-09-01 17:08:35 | 47.86157 | 11.86980 | 90° | 11km/h | 25404m | 6.3m/s | -50.4°C | 3.7% | 25.4hPa | 2.6V | 00:00:00 | 01:58:16 | 00:00:00 | |
| DO3MHA-12 | 2026-09-01 17:08:34 | 47.86157 | 11.86973 | 74° | 9km/h | 25399m | 4.7m/s | -50.4°C | 3.7% | 25.4hPa | 2.6V | 00:00:00 | 01:58:15 | 00:00:00 | |
| DF7PN | 2026-09-01 17:08:32 | 47.86154 | 11.86966 | 45° | 9km/h | 25388m | 6.5m/s | -50.6°C | 1.0% | 25.5hPa | 2.6V | 00:00:00 | 00:00:00 | 00:00:00 | |
| DO3MHA-11 | 2026-09-01 17:08:31 | 47.86152 | 11.86964 | 31° | 9km/h | 25382m | 6.0m/s | -50.6°C | 3.8% | 25.5hPa | 2.6V | 00:00:00 | 01:58:12 | 00:00:00 | |
| PETON7-10 | 2026-09-01 17:08:28 | 47.86147 | 11.86964 | 348° | 13km/h | 25365m | 6.7m/s | -50.5°C | 3.8% | 25.6hPa | 2.7V | 00:00:00 | 00:00:00 | 00:00:00 | |
| OE8JPQ-2 | 2026-09-01 17:08:27 | 47.86145 | 11.86964 | 357° | 11km/h | 25359m | 4.6m/s | -50.5°C | 3.8% | 25.6hPa | 2.7V | 00:00:00 | 01:58:08 | 00:00:00 | |
| DG1MFX-10 | 2026-09-01 17:08:26 | 47.86145 | 11.86964 | 357° | 11km/h | 25359m | 4.6m/s | -50.5°C | 1.1% | 25.6hPa | 2.7V | 00:00:00 | 00:00:00 | 00:00:00 | |
| SONCRA | 2026-09-01 17:08:25 | 47.86139 | 11.86961 | 71° | 9km/h | 25343m | 5.5m/s | -50.5°C | 1.0% | 25.7hPa | 2.7V | 00:00:00 | 00:00:00 | 00:00:00 | |
| DO3MHA-12 | 2026-09-01 17:08:24 | 47.86139 | 11.86961 | 72° | 13km/h | 25343m | 5.4m/s | -50.5°C | 3.8% | 25.7hPa | 2.7V | 00:00:00 | 01:58:05 | 00:00:00 | |
| OM5KV | 2026-09-01 17:08:23 | 47.86138 | 11.86957 | 81° | 13km/h | 25337m | 5.6m/s | -50.5°C | 1.0% | 25.7hPa | 2.6V | 00:00:00 | 00:00:00 | 00:00:00 | |
| DF3TZ-5 | 2026-09-01 17:08:22 | 47.86138 | 11.86952 | 72° | 15km/h | 25331m | 6.9m/s | -50.6°C | 1.0% | 25.8hPa | 2.6V | 00:00:00 | 00:00:00 | 00:00:00 | |
| DO3MHA-11 | 2026-09-01 17:08:21 | 47.86136 | 11.86946 | 62° | 13km/h | 25325m | 5.3m/s | -50.6°C | 3.8% | 25.7hPa | 2.6V | 00:00:00 | 01:58:02 | 00:00:00 | |
| OE5REO-15 | 2026-09-01 17:08:20 | 47.86136 | 11.86946 | 63° | 18km/h | 25325m | 5.4m/s | -50.7°C | 1.0% | 25.8hPa | 2.6V | 00:00:00 | 00:00:00 | 00:00:00 | |
| DB0UT-7 | 2026-09-01 17:08:19 | 47.86131 | 11.86935 | 51° | 9km/h | 25316m | 5.3m/s | -50.6°C | 3.8% | 25.8hPa | 2.6V | 00:00:00 | 01:58:00 | 00:00:00 | |
| DL2OL | 2026-09-01 17:08:18 | 47.86128 | 11.86931 | 43° | 11km/h | 25310m | 6.1m/s | -50.6°C | 1.0% | 25.8hPa | 2.6V | 00:00:00 | 00:00:00 | 00:00:00 | |
| DL6DJ-15 | 2026-09-01 17:08:17 | 47.86126 | 11.86929 | 18° | 7km/h | 25304m | 5.2m/s | -50.6°C | 1.1% | 25.9hPa | 2.6V | 00:00:00 | 00:00:00 | 00:00:00 | |
| OM5KV | 2026-09-01 17:08:16 | 47.86126 | 11.86929 | 20° | 9km/h | 25304m | 5.2m/s | -50.6°C | 1.1% | 25.9hPa | 2.6V | 00:00:00 | 00:00:00 | 00:00:00 | |
| DM0DOS-11 | 2026-09-01 17:08:15 | 47.86114 | 11.86940 | 323° | 5km/h | 25264m | 6m/s | -50.5°C | 3.8% | 26hPa | 2.6V | 08:30:00 | 01:57:51 | 00:00:00 | |
| DO3MHA-12 | 2026-09-01 17:08:14 | 47.86118 | 11.86931 | 329° | 7km/h | 25287m | 4.8m/s | -50.5°C | 3.8% | 25.9hPa | 2.6V | 00:00:00 | 01:57:55 | 00:00:00 | |
| PETON7-10 | 2026-09-01 17:08:13 | 47.86116 | 11.86933 | 312° | 7km/h | 25281m | 6.9m/s | -50.5°C | 3.8% | 25.9hPa | 2.6V | 00:00:00 | 00:00:00 | 00:00:00 | |
| OE5DXL-15 | 2026-09-01 17:08:12 | 47.86115 | 11.86936 | 291° | 9km/h | 25275m | 5.1m/s | -50.5°C | 3.8% | 25.9hPa | 2.6V | 00:00:00 | 00:00:00 | 00:00:00 | |
| DO3MHA-11 | 2026-09-01 17:08:11 | 47.86114 | 11.86938 | 291° | 7km/h | 25270m | 5.1m/s | -50.4°C | 3.8% | 0hPa | 2.7V | 00:00:00 | 01:57:52 | 00:00:00 | |
| OM5KV | 2026-09-01 17:08:10 | 47.86114 | 11.86938 | 291° | 5km/h | 25270m | 5.1m/s | -50.5°C | 1.0% | 0hPa | 2.7V | 00:00:00 | 00:00:00 | 00:00:00 | |
| DB0NH | 2026-09-01 17:08:08 | 47.86111 | 11.86940 | 15° | 9km/h | 25253m | 4.7m/s | -50.5°C | 3.8% | 26.0hPa | 2.7V | 00:00:00 | 01:57:49 | 00:00:00 | |
| OE8JPQ-2 | 2026-09-01 17:08:07 | 47.86108 | 11.86939 | 20° | 7km/h | 25248m | 5.6m/s | -50.4°C | 3.7% | 26.1hPa | 2.7V | 00:00:00 | 00:00:00 | 00:00:00 | |
| DM0DOS-11 | 2026-09-01 17:08:06 | 47.86098 | 11.86938 | 313° | 7km/h | 25207m | 6.3m/s | -50.3°C | 3.7% | 26.2hPa | 2.6V | 08:30:00 | 01:57:41 | 00:00:00 | |
| DK5PH-5 | 2026-09-01 17:08:05 | 47.86105 | 11.86937 | 34° | 9km/h | 25236m | 5.5m/s | -50.4°C | 3.8% | 26.1hPa | 2.6V | 00:00:00 | 01:57:46 | 00:00:00 | |
| DO3MHA-12 | 2026-09-01 17:08:04 | 47.86104 | 11.86936 | 25° | 9km/h | 25231m | 4.5m/s | -50.4°C | 3.8% | 26.1hPa | 2.6V | 00:00:00 | 01:57:45 | 00:00:00 | |
| NBG1-10 | 2026-09-01 17:08:03 | 47.86103 | 11.86936 | 12° | 9km/h | 25226m | 6.5m/s | -50.3°C | 3.7% | 26.1hPa | 2.6V | 00:00:00 | 01:57:44 | 00:00:00 | |
| OE5MMP-10 | 2026-09-01 17:08:01 | 47.86099 | 11.86936 | 340° | 9km/h | 25214m | 5.7m/s | -50.3°C | 3.7% | 26.2hPa | 2.6V | 00:00:00 | 01:57:42 | 00:00:00 | |
| DF2AP-13 | 2026-09-01 17:07:59 | 47.86096 | 11.86940 | 304° | 9km/h | 25202m | 4.7m/s | -50.2°C | 3.7% | 26.2hPa | 2.6V | 00:00:00 | 01:57:40 | 00:00:00 | |
| PETON7-10 | 2026-09-01 17:07:58 | 47.86095 | 11.86943 | 310° | 9km/h | 25197m | 5.4m/s | -50.2°C | 3.7% | 26.2hPa | 2.6V | 00:00:00 | 01:57:39 | 00:00:00 | |
| IN3HCDX | 2026-09-01 17:07:56 | 47.86093 | 11.86946 | 323° | 13km/h | 25191m | 6.3m/s | -50.2°C | 1.0% | 26.3hPa | 2.6V | 00:00:00 | 00:00:00 | 00:00:00 | |
| DM0DOS-11 | 2026-09-01 17:07:55 | 47.86081 | 11.86954 | 336° | 7km/h | 25150m | 5m/s | -50.3°C | 3.7% | 26.5hPa | 2.6V | 08:30:00 | 01:57:31 | 00:00:00 | |
| SONCRA | 2026-09-01 17:07:54 | 47.86085 | 11.86952 | 346° | 4km/h | 25168m | 5.9m/s | -50.2°C | 1.0% | -1.0hPa | 2.6V | 00:00:00 | 00:00:00 | 00:00:00 | |
| DF3TZ-5 | 2026-09-01 17:07:51 | 47.86082 | 11.86953 | 346° | 5km/h | 25155m | 5.5m/s | -50.2°C | 1.0% | 26.5hPa | 2.6V | 00:00:00 | 00:00:00 | 00:00:00 | |
| SONDE2-11 | 2026-09-01 17:07:47 | 47.86078 | 11.86960 | 275° | 7km/h | 25133m | 5.1m/s | -50.4°C | 1.0% | 26.5hPa | 2.6V | 00:00:00 | 00:00:00 | 00:00:00 | |
| DL6DJ-15 | 2026-09-01 17:07:46 | 47.86078 | 11.86964 | 286° | 9km/h | 25127m | 6.4m/s | -50.5°C | 1.0% | 26.6hPa | 2.6V | 00:00:00 | 00:00:00 | 00:00:00 | |
| DM0DOS-11 | 2026-09-01 17:07:45 | 47.86069 | 11.86987 | 324° | 9km/h | 25093m | 6.1m/s | -50.7°C | 3.8% | 26.7hPa | 2.6V | 08:30:00 | 01:57:21 | 00:00:00 | |
| BAUMI2-15 | 2026-09-01 17:07:45 | 47.86077 | 11.86968 | 297° | 13km/h | 25121m | 5.8m/s | -50.5°C | 3.8% | 26.5hPa | 2.7V | 00:00:00 | 01:57:26 | 00:00:00 | |
| DO3MHA-12 | 2026-09-01 17:07:44 | 47.86075 | 11.86973 | 300° | 11km/h | 25116m | 5.0m/s | -50.5°C | 3.8% | 26.6hPa | 2.7V | 00:00:00 | 01:57:25 | 00:00:00 | |
| PETON7-10 | 2026-09-01 17:07:43 | 47.86073 | 11.86977 | 300° | 13km/h | 25110m | 6.4m/s | -50.5°C | 3.8% | 26.6hPa | 2.7V | 00:00:00 | 00:00:00 | 08:30:00 | |
| OE5DXL-15 | 2026-09-01 17:07:42 | 47.86071 | 11.86982 | 299° | 11km/h | 25104m | 5.5m/s | -50.5°C | 3.8% | 26.6hPa | 2.6V | 00:00:00 | 00:00:00 | 00:00:00 | |
| DO3MHA-11 | 2026-09-01 17:07:41 | 47.86070 | 11.86985 | 306° | 11km/h | 25099m | 4.6m/s | -50.5°C | 3.8% | 26.6hPa | 2.6V | 00:00:00 | 01:57:22 | 00:00:00 | |
| EDDB2-11 | 2026-09-01 17:07:40 | 47.86066 | 11.86989 | 339° | 11km/h | 25087m | 6.5m/s | -50.6°C | 1.0% | 26.7hPa | 2.6V | 00:00:00 | 00:00:00 | 00:00:00 | |
| DF1GD-15 | 2026-09-01 17:07:38 | 47.86066 | 11.86989 | 341° | 11km/h | 25087m | 6.5m/s | 0°C | 0% | 0hPa | 2.6V | 00:00:00 | 00:00:00 | 00:00:00 | |
| IN3HCDX | 2026-09-01 17:07:36 | 47.86061 | 11.86992 | 343° | 9km/h | 25076m | 5.4m/s | -50.6°C | 1.0% | 26.8hPa | 2.6V | 00:00:00 | 00:00:00 | 00:00:00 | |
| DM0DOS-11 | 2026-09-01 17:07:35 | 47.86052 | 11.87017 | 273° | 16km/h | 25034m | 5.3m/s | -50.5°C | 3.8% | 27hPa | 2.6V | 08:30:00 | 01:57:11 | 00:00:00 | |
| DK5PH-5 | 2026-09-01 17:07:35 | 47.86058 | 11.86995 | 308° | 11km/h | 25064m | 5.1m/s | -50.5°C | 3.8% | 26.8hPa | 2.6V | 00:00:00 | 01:57:16 | 00:00:00 | |
| DO3MHA-12 | 2026-09-01 17:07:34 | 47.86056 | 11.86997 | 305° | 13km/h | 25058m | 6.7m/s | -50.6°C | 3.8% | 26.8hPa | 2.6V | 00:00:00 | 01:57:15 | 00:00:00 | |
| DB0NH | 2026-09-01 17:07:33 | 47.86055 | 11.87001 | 300° | 9km/h | 25052m | 5.8m/s | -50.5°C | 3.8% | 26.9hPa | 2.6V | 00:00:00 | 01:57:14 | 00:00:00 | |
| DO3MHA-11 | 2026-09-01 17:07:31 | 47.86053 | 11.87011 | 279° | 11km/h | 25040m | 6.8m/s | -50.5°C | 3.8% | 26.9hPa | 2.6V | 00:00:00 | 01:57:12 | 00:00:00 | |
| NBG1-10 | 2026-09-01 17:07:30 | 47.86052 | 11.87017 | 274° | 9km/h | 25034m | 5.3m/s | -50.5°C | 3.8% | 26.9hPa | 2.6V | 00:00:00 | 01:57:11 | 00:00:00 | |
| PETON7-10 | 2026-09-01 17:07:28 | 47.86051 | 11.87028 | 289° | 9km/h | 25024m | 6.5m/s | -50.5°C | 3.8% | 27.0hPa | 2.6V | 00:00:00 | 00:00:00 | 00:00:00 | |
| OE8JPQ-2 | 2026-09-01 17:07:27 | 47.86049 | 11.87032 | 312° | 9km/h | 25018m | 5.4m/s | -50.6°C | 3.8% | 27.0hPa | 2.6V | 00:00:00 | 01:57:08 | 00:00:00 | |
| DM0DOS-11 | 2026-09-01 17:07:25 | 47.86035 | 11.87044 | 334° | 11km/h | 24978m | 4.6m/s | -50.7°C | 3.9% | 27.2hPa | 2.6V | 08:30:00 | 01:57:01 | 00:00:00 | |
| BAUMI2-15 | 2026-09-01 17:07:25 | 47.86045 | 11.87037 | 330° | 9km/h | 25007m | 6.4m/s | -50.6°C | 3.8% | 27.0hPa | 2.6V | 00:00:00 | 01:57:06 | 00:00:00 | |
| DO3MHA-12 | 2026-09-01 17:07:24 | 47.86043 | 11.87039 | 337° | 9km/h | 25001m | 5.5m/s | -50.6°C | 3.8% | 27.0hPa | 2.6V | 00:00:00 | 01:57:05 | 00:00:00 | |
| OM5KV | 2026-09-01 17:07:22 | 47.86042 | 11.87040 | 338° | 7km/h | 24995m | 5.3m/s | -50.6°C | 1.0% | 27.1hPa | 2.7V | 00:00:00 | 00:00:00 | 00:00:00 | |
| OE5DRO-10 | 2026-09-01 17:07:21 | 47.86037 | 11.87042 | 340° | 9km/h | 24983m | 5.3m/s | -50.7°C | 3.8% | 27.1hPa | 2.7V | 00:00:00 | 00:00:00 | 08:30:00 | |
| BAUMI2-15 | 2026-09-01 17:07:20 | 47.86035 | 11.87044 | 335° | 7km/h | 24978m | 4.5m/s | -50.6°C | 3.9% | 27.1hPa | 2.6V | 00:00:00 | 01:57:01 | 08:30:00 | |
| DB0UT-7 | 2026-09-01 17:07:19 | 47.86032 | 11.87045 | 326° | 7km/h | 24972m | 6.9m/s | -50.6°C | 3.9% | 27.2hPa | 2.6V | 00:00:00 | 01:57:00 | 00:00:00 | |
| SONDE2-11 | 2026-09-01 17:07:16 | 47.86029 | 11.87051 | 312° | 7km/h | 24955m | 6.6m/s | -50.7°C | 1.1% | 27.3hPa | 2.6V | 00:00:00 | 00:00:00 | 00:00:00 | |
| BAUMI2-15 | 2026-09-01 17:07:15 | 47.86027 | 11.87054 | 321° | 9km/h | 24949m | 5.8m/s | -50.6°C | 3.9% | 27.2hPa | 2.6V | 00:00:00 | 01:56:56 | 00:00:00 | |
| DM0DOS-11 | 2026-09-01 17:07:14 | 47.86016 | 11.87063 | 18° | 9km/h | 24914m | 6.2m/s | -50.5°C | 3.9% | 27.5hPa | 2.6V | 08:30:00 | 01:56:50 | 00:00:00 | |
| DO3MHA-12 | 2026-09-01 17:07:14 | 47.86025 | 11.87057 | 322° | 9km/h | 24944m | 4.6m/s | -50.6°C | 3.9% | 27.3hPa | 2.6V | 00:00:00 | 01:56:55 | 00:00:00 | |
| PETON7-10 | 2026-09-01 17:07:13 | 47.86023 | 11.87059 | 317° | 7km/h | 24938m | 6.8m/s | -50.6°C | 3.9% | 27.3hPa | 2.6V | 00:00:00 | 01:56:54 | 00:00:00 | |
| OE5DXL-15 | 2026-09-01 17:07:12 | 47.86021 | 11.87062 | 317° | 9km/h | 24931m | 5.7m/s | -50.6°C | 3.9% | 27.3hPa | 2.6V | 00:00:00 | 00:00:00 | 00:00:00 | |
| DO3MHA-11 | 2026-09-01 17:07:11 | 47.86020 | 11.87063 | 338° | 9km/h | 24926m | 4.8m/s | -50.5°C | 3.8% | 27.4hPa | 2.6V | 00:00:00 | 01:56:52 | 00:00:00 | |
| BAUMI2-15 | 2026-09-01 17:07:10 | 47.86018 | 11.87063 | 2° | 7km/h | 24920m | 6.5m/s | -50.4°C | 3.8% | 27.4hPa | 2.6V | 00:00:00 | 01:56:51 | 00:00:00 | |
| EDDB2-11 | 2026-09-01 17:07:09 | 47.86015 | 11.87061 | 30° | 7km/h | 24908m | 5.6m/s | -50.4°C | 1.0% | 27.5hPa | 2.6V | 00:00:00 | 00:00:00 | 00:00:00 | |
| OE8JPQ-2 | 2026-09-01 17:07:07 | 47.86013 | 11.87060 | 53° | 9km/h | 24902m | 6.4m/s | -50.3°C | 3.8% | 27.5hPa | 2.6V | 00:00:00 | 00:00:00 | 00:00:00 | |
| OM5KV | 2026-09-01 17:07:06 | 47.86013 | 11.87060 | 53° | 7km/h | 24902m | 6.5m/s | -50.4°C | 1.0% | 27.5hPa | 2.7V | 00:00:00 | 00:00:00 | 00:00:00 | |
| DK5PH-5 | 2026-09-01 17:07:05 | 47.86011 | 11.87054 | 63° | 11km/h | 24891m | 5.5m/s | -50.3°C | 3.8% | 27.5hPa | 2.7V | 00:00:00 | 01:56:46 | 00:00:00 | |
| DM0DOS-11 | 2026-09-01 17:07:04 | 47.86003 | 11.87045 | 317° | 4km/h | 24856m | 5.1m/s | -50.2°C | 3.7% | 27.7hPa | 2.7V | 08:30:00 | 01:56:40 | 00:00:00 | |
| DO3MHA-12 | 2026-09-01 17:07:04 | 47.86010 | 11.87051 | 54° | 7km/h | 24885m | 6.6m/s | -50.3°C | 3.8% | 27.5hPa | 2.6V | 00:00:00 | 01:56:45 | 00:00:00 | |
| DB0NH | 2026-09-01 17:07:03 | 47.86008 | 11.87048 | 45° | 11km/h | 24879m | 5.1m/s | -50.3°C | 3.8% | 27.6hPa | 2.6V | 00:00:00 | 01:56:44 | 08:30:00 | |
| DF7PN | 2026-09-01 17:06:59 | 47.86003 | 11.87045 | 317° | 4km/h | 24856m | 5.1m/s | -50.3°C | 1.0% | 27.7hPa | 2.6V | 00:00:00 | 00:00:00 | 00:00:00 | |
| PETON7-10 | 2026-09-01 17:06:58 | 47.86002 | 11.87046 | 341° | 9km/h | 24851m | 6.5m/s | -50.2°C | 3.8% | 27.7hPa | 2.6V | 00:00:00 | 00:00:00 | 00:00:00 | |
| NBG1-10 | 2026-09-01 17:06:57 | 47.86001 | 11.87046 | 8° | 13km/h | 24845m | 5.6m/s | -50.2°C | 3.7% | 27.7hPa | 2.6V | 00:00:00 | 01:56:38 | 08:30:00 | |
| DL2OL | 2026-09-01 17:06:56 | 47.86001 | 11.87046 | 9° | 7km/h | 24845m | 5.7m/s | -50.2°C | 1.0% | 27.8hPa | 2.7V | 00:00:00 | 00:00:00 | 00:00:00 | |
| BAUMI2-15 | 2026-09-01 17:06:55 | 47.85997 | 11.87043 | 53° | 9km/h | 24834m | 5.3m/s | -50.3°C | 3.8% | 27.8hPa | 2.7V | 00:00:00 | 01:56:36 | 00:00:00 | |
| DM0DOS-11 | 2026-09-01 17:06:54 | 47.85995 | 11.87021 | 80° | 11km/h | 24800m | 6m/s | -50.1°C | 3.7% | 27.9hPa | 2.7V | 08:30:00 | 01:56:30 | 00:00:00 | |
| SONCRA | 2026-09-01 17:06:52 | 47.85996 | 11.87029 | 81° | 9km/h | 24811m | 6.2m/s | -50.2°C | -1.0% | -1.0hPa | 2.7V | 00:00:00 | 00:00:00 | 00:00:00 | |
| DO3MHA-11 | 2026-09-01 17:06:51 | 47.85996 | 11.87029 | 82° | 11km/h | 24811m | 6.2m/s | -50.2°C | 3.7% | 27.9hPa | 2.7V | 00:00:00 | 01:56:32 | 00:00:00 | |
| BAUMI2-15 | 2026-09-01 17:06:50 | 47.85995 | 11.87025 | 74° | 11km/h | 24806m | 4.5m/s | -50.1°C | 3.8% | 27.9hPa | 2.7V | 00:00:00 | 01:56:31 | 00:00:00 | |
| DB0UT-7 | 2026-09-01 17:06:49 | 47.85995 | 11.87021 | 81° | 15km/h | 24800m | 5.9m/s | -50.1°C | 3.7% | 27.9hPa | 2.7V | 00:00:00 | 00:00:00 | 00:00:00 | |
| OE8JPQ-2 | 2026-09-01 17:06:47 | 47.85995 | 11.87012 | 94° | 13km/h | 24788m | 5.2m/s | -50.0°C | 3.7% | 27.9hPa | 2.7V | 00:00:00 | 00:00:00 | 00:00:00 | |
| BAUMI2-15 | 2026-09-01 17:06:45 | 47.85994 | 11.87004 | 68° | 11km/h | 24777m | 6.4m/s | -50.0°C | 3.7% | 28.0hPa | 2.7V | 00:00:00 | 01:56:26 | 00:00:00 | |
| DM0DOS-11 | 2026-09-01 17:06:44 | 47.85992 | 11.86981 | 97° | 11km/h | 24743m | 6.1m/s | -50°C | 3.7% | 28.2hPa | 2.7V | 08:30:00 | 01:56:20 | 00:00:00 | |
| DO3MHA-12 | 2026-09-01 17:06:44 | 47.85993 | 11.87001 | 58° | 13km/h | 24771m | 4.5m/s | -50.0°C | 3.7% | 28.0hPa | 2.6V | 00:00:00 | 01:56:25 | 00:00:00 | |
| PETON7-10 | 2026-09-01 17:06:43 | 47.85992 | 11.86997 | 63° | 15km/h | 24767m | 4.6m/s | -50.0°C | 3.7% | 28.1hPa | 2.6V | 00:00:00 | 00:00:00 | 00:00:00 | |
| OE5DXL-15 | 2026-09-01 17:06:42 | 47.85990 | 11.86993 | 76° | 15km/h | 24761m | 6.5m/s | -50.0°C | 3.7% | 28.1hPa | 2.6V | 00:00:00 | 00:00:00 | 00:00:00 | |
| DO3MHA-11 | 2026-09-01 17:06:41 | 47.85990 | 11.86990 | 98° | 16km/h | 24755m | 5.7m/s | -50.0°C | 3.7% | 28.1hPa | 2.6V | 00:00:00 | 01:56:22 | 00:00:00 | |
| BAUMI2-15 | 2026-09-01 17:06:40 | 47.85991 | 11.86985 | 104° | 15km/h | 24749m | 5.5m/s | -50.0°C | 3.7% | 28.1hPa | 2.6V | 00:00:00 | 01:56:21 | 00:00:00 | |
| EDDB2-11 | 2026-09-01 17:06:37 | 47.85991 | 11.86971 | 71° | 15km/h | 24732m | 5.2m/s | -50.0°C | 1.0% | 28.2hPa | 2.6V | 00:00:00 | 00:00:00 | 00:00:00 | |
| BAUMI2-15 | 2026-09-01 17:06:35 | 47.85988 | 11.86958 | 77° | 18km/h | 24720m | 6.0m/s | -50.0°C | 3.6% | 28.3hPa | 2.6V | 00:00:00 | 01:56:16 | 08:30:00 | |
| DM0DOS-11 | 2026-09-01 17:06:34 | 47.85977 | 11.86927 | 65° | 11km/h | 24685m | 5.9m/s | -50.1°C | 3.7% | 28.4hPa | 2.7V | 08:30:00 | 01:56:10 | 00:00:00 | |
| DK5PH-5 | 2026-09-01 17:06:34 | 47.85987 | 11.86951 | 74° | 15km/h | 24715m | 5.1m/s | -50.0°C | 3.6% | 28.3hPa | 2.6V | 00:00:00 | 01:56:15 | 00:00:00 | |
| DB0NH | 2026-09-01 17:06:33 | 47.85985 | 11.86944 | 65° | 15km/h | 24709m | 6.9m/s | -50.0°C | 3.7% | 28.3hPa | 2.6V | 00:00:00 | 01:56:14 | 00:00:00 | |
| DO3MHA-11 | 2026-09-01 17:06:31 | 47.85980 | 11.86934 | 47° | 15km/h | 24697m | 4.9m/s | -50.0°C | 3.6% | 28.3hPa | 2.6V | 00:00:00 | 01:56:12 | 08:30:00 | |
| BAUMI2-15 | 2026-09-01 17:06:30 | 47.85978 | 11.86930 | 52° | 11km/h | 24692m | 6.2m/s | -50.0°C | 3.7% | 28.4hPa | 2.6V | 00:00:00 | 01:56:11 | 00:00:00 | |
| PETON7-10 | 2026-09-01 17:06:28 | 47.85975 | 11.86923 | 75° | 15km/h | 24680m | 4.9m/s | -50.1°C | 3.7% | 28.4hPa | 2.6V | 00:00:00 | 01:56:09 | 00:00:00 | |
| OE8JPQ-2 | 2026-09-01 17:06:27 | 47.85975 | 11.86919 | 72° | 13km/h | 24675m | 5.4m/s | -50.1°C | 3.7% | 28.4hPa | 2.6V | 00:00:00 | 01:56:08 | 00:00:00 | |
| BAUMI2-15 | 2026-09-01 17:06:25 | 47.85972 | 11.86910 | 54° | 16km/h | 24663m | 5.3m/s | -50.1°C | 3.7% | 28.5hPa | 2.6V | 00:00:00 | 01:56:06 | 00:00:00 | |
| DM0DOS-11 | 2026-09-01 17:06:24 | 47.85960 | 11.86878 | 54° | 15km/h | 24629m | 5m/s | -50.1°C | 3.7% | 28.7hPa | 2.6V | 08:30:00 | 01:56:00 | 00:00:00 | |
| DO3MHA-12 | 2026-09-01 17:06:24 | 47.85969 | 11.86906 | 57° | 15km/h | 24658m | 4.8m/s | -50.2°C | 3.7% | 28.5hPa | 2.6V | 00:00:00 | 01:56:05 | 08:30:00 | |
| DM7RM-13 | 2026-09-01 17:06:22 | 47.85968 | 11.86900 | 66° | 16km/h | 24653m | 6.7m/s | -50.2°C | 1.1% | 28.6hPa | 2.6V | 00:00:00 | 00:00:00 | 00:00:00 | |
| DO3MHA-11 | 2026-09-01 17:06:21 | 47.85964 | 11.86888 | 65° | 13km/h | 24641m | 5.6m/s | -50.2°C | 3.8% | 28.6hPa | 2.6V | 00:00:00 | 01:56:02 | 00:00:00 | |
| OE5HKT-10 | 2026-09-01 17:06:20 | 47.85962 | 11.86883 | 57° | 15km/h | 24635m | 6.3m/s | -50.1°C | 3.7% | 28.6hPa | 2.6V | 00:00:00 | 01:56:01 | 00:00:00 | |
| DB0UT-7 | 2026-09-01 17:06:19 | 47.85960 | 11.86878 | 55° | 15km/h | 24629m | 5.0m/s | -50.1°C | 3.7% | 28.6hPa | 2.6V | 00:00:00 | 01:56:00 | 08:30:00 | |
| DF3TZ-5 | 2026-09-01 17:06:18 | 47.85958 | 11.86873 | 59° | 15km/h | 24624m | 6.5m/s | -50.1°C | 1.0% | 28.7hPa | 2.6V | 00:00:00 | 00:00:00 | 00:00:00 | |
| OM5KV | 2026-09-01 17:06:17 | 47.85958 | 11.86873 | 60° | 15km/h | 24624m | 6.5m/s | -50.1°C | 1.0% | 28.7hPa | 2.6V | 00:00:00 | 00:00:00 | 00:00:00 | |
| BAUMI2-15 | 2026-09-01 17:06:15 | 47.85953 | 11.86860 | 56° | 9km/h | 24607m | 6.7m/s | -50.1°C | 3.7% | 28.7hPa | 2.6V | 00:00:00 | 01:55:56 | 00:00:00 | |
| DM0DOS-11 | 2026-09-01 17:06:14 | 47.85942 | 11.86843 | 39° | 13km/h | 24574m | 5.8m/s | -50.2°C | 3.7% | 28.9hPa | 2.6V | 08:30:00 | 01:55:50 | 00:00:00 | |
| DO3MHA-12 | 2026-09-01 17:06:14 | 47.85951 | 11.86857 | 41° | 16km/h | 24601m | 5.4m/s | -50.1°C | 3.7% | 28.8hPa | 2.6V | 00:00:00 | 01:55:55 | 00:00:00 | |
| PETON7-10 | 2026-09-01 17:06:13 | 47.85949 | 11.86854 | 37° | 16km/h | 24596m | 4.6m/s | -50.2°C | 3.7% | 28.8hPa | 2.6V | 00:00:00 | 00:00:00 | 00:00:00 | |
| OE5DXL-15 | 2026-09-01 17:06:12 | 47.85947 | 11.86852 | 44° | 15km/h | 24590m | 6.2m/s | -50.1°C | 3.7% | 28.8hPa | 2.6V | 00:00:00 | 00:00:00 | 00:00:00 | |
| PG1ADW-2 | 2026-09-01 17:06:11 | 47.85946 | 11.86849 | 55° | 16km/h | 24584m | 5.3m/s | -50.2°C | 3.7% | 28.8hPa | 2.6V | 00:00:00 | 00:00:00 | 00:00:00 | |
| BAUMI2-15 | 2026-09-01 17:06:10 | 47.85944 | 11.86846 | 51° | 18km/h | 24579m | 4.7m/s | -50.1°C | 3.7% | 28.9hPa | 2.6V | 00:00:00 | 01:55:51 | 00:00:00 | |
| EDDB2-11 | 2026-09-01 17:06:07 | 47.85930 | 11.86831 | 36° | 24km/h | 24557m | 6.8m/s | -50.2°C | 1.0% | 29.0hPa | 2.6V | 00:00:00 | 00:00:00 | 00:00:00 | |
| BAUMI2-15 | 2026-09-01 17:06:05 | 47.85925 | 11.86825 | 41° | 20km/h | 24551m | 4.9m/s | -50.1°C | 3.7% | 29.0hPa | 2.6V | 00:00:00 | 01:55:46 | 00:00:00 | |
| DM0DOS-11 | 2026-09-01 17:06:04 | 47.85900 | 11.86801 | 20° | 7km/h | 24518m | 5.2m/s | -50.4°C | 3.8% | 29.2hPa | 2.6V | 08:30:00 | 01:55:40 | 00:00:00 | |
| DO3MHA-12 | 2026-09-01 17:06:04 | 47.85919 | 11.86818 | 41° | 15km/h | 24546m | 4.0m/s | -50.2°C | 3.7% | 29.0hPa | 2.6V | 00:00:00 | 01:55:45 | 00:00:00 | |
| DF7PN | 2026-09-01 17:05:57 | 47.85894 | 11.86800 | 4° | 11km/h | 24503m | 5.0m/s | -50.4°C | 1.0% | 29.2hPa | 2.6V | 00:00:00 | 00:00:00 | 00:00:00 | |
| DM0DOS-11 | 2026-09-01 17:05:55 | 47.85869 | 11.86788 | 2° | 16km/h | 24464m | 4.6m/s | -50.3°C | 3.8% | 29.4hPa | 2.6V | 08:30:00 | 01:55:30 | 00:00:00 | |
| DO3MHA-12 | 2026-09-01 17:05:54 | 47.85888 | 11.86798 | 25° | 15km/h | 24492m | 6.4m/s | -50.3°C | 3.8% | 29.2hPa | 2.6V | 00:00:00 | 01:55:35 | 00:00:00 | |
| DO3MHA-11 | 2026-09-01 17:05:51 | 47.85878 | 11.86790 | 19° | 13km/h | 24475m | 6.3m/s | -50.2°C | 3.8% | 29.3hPa | 2.7V | 00:00:00 | 01:55:32 | 00:00:00 | |
| DB0UT-7 | 2026-09-01 17:05:49 | 47.85869 | 11.86788 | 3° | 13km/h | 24464m | 4.6m/s | -50.2°C | 3.8% | 29.4hPa | 2.7V | 00:00:00 | 00:00:00 | 00:00:00 | |
| OE8JPQ-2 | 2026-09-01 17:05:47 | 47.85862 | 11.86789 | 346° | 13km/h | 24453m | 5.4m/s | -50.2°C | 3.8% | 29.4hPa | 2.7V | 00:00:00 | 00:00:00 | 00:00:00 | |
| OE5DRO-10 | 2026-09-01 17:05:46 | 47.85860 | 11.86790 | 331° | 13km/h | 24448m | 4.7m/s | -50.2°C | 3.8% | 29.4hPa | 2.7V | 00:00:00 | 00:00:00 | 00:00:00 | |
| DM0DOS-11 | 2026-09-01 17:05:44 | 47.85842 | 11.86788 | 35° | 18km/h | 24410m | 6.5m/s | -50.2°C | 3.7% | 29.7hPa | 2.7V | 08:30:00 | 01:55:20 | 00:00:00 | |
| DO3MHA-12 | 2026-09-01 17:05:44 | 47.85855 | 11.86795 | 329° | 15km/h | 24437m | 4.8m/s | -50.2°C | 3.7% | 29.5hPa | 2.7V | 00:00:00 | 01:55:25 | 00:00:00 | |
| PETON7-10 | 2026-09-01 17:05:43 | 47.85853 | 11.86796 | 343° | 15km/h | 24432m | 4.4m/s | -50.1°C | 3.7% | 29.5hPa | 2.7V | 00:00:00 | 01:55:24 | 00:00:00 | |
| OE5DXL-15 | 2026-09-01 17:05:42 | 47.85850 | 11.86797 | 7° | 13km/h | 24427m | 6.3m/s | -50.1°C | 3.7% | 29.5hPa | 2.7V | 00:00:00 | 00:00:00 | 00:00:00 | |
| DO3MHA-11 | 2026-09-01 17:05:41 | 47.85848 | 11.86795 | 34° | 15km/h | 24421m | 5.2m/s | -50.2°C | 3.7% | 29.6hPa | 2.7V | 00:00:00 | 01:55:22 | 00:00:00 | |
| DM7RM-13 | 2026-09-01 17:05:40 | 47.85848 | 11.86795 | 35° | 13km/h | 24421m | 5.3m/s | -50.2°C | 1.1% | 29.6hPa | 2.7V | 00:00:00 | 00:00:00 | 00:00:00 | |
| DJTTGO | 2026-09-01 17:05:38 | 47.85842 | 11.86788 | 36° | 18km/h | 24411m | 6.5m/s | 0°C | 0% | 0hPa | 2.7V | 00:00:00 | 00:00:00 | 00:00:00 | |
| EDDB2-11 | 2026-09-01 17:05:36 | 47.85827 | 11.86772 | 39° | 13km/h | 24388m | 4.7m/s | -50.3°C | 1.1% | 29.8hPa | 2.7V | 00:00:00 | 00:00:00 | 00:00:00 | |
| DM0DOS-11 | 2026-09-01 17:05:34 | 47.85809 | 11.86774 | 341° | 13km/h | 24357m | 6.2m/s | -50.4°C | 3.7% | 29.9hPa | 2.7V | 08:30:00 | 01:55:10 | 00:00:00 | |
| DO3MHA-12 | 2026-09-01 17:05:34 | 47.85824 | 11.86769 | 28° | 13km/h | 24384m | 4.0m/s | -50.2°C | 3.7% | 29.8hPa | 2.6V | 00:00:00 | 01:55:15 | 00:00:00 | |
| DO3MHA-11 | 2026-09-01 17:05:31 | 47.85816 | 11.86770 | 341° | 13km/h | 24368m | 5.0m/s | -50.3°C | 3.7% | 29.8hPa | 2.6V | 00:00:00 | 01:55:12 | 00:00:00 | |
| IN3HCDX | 2026-09-01 17:05:30 | 47.85816 | 11.86770 | 341° | 15km/h | 24368m | 5.0m/s | -50.3°C | 1.0% | 29.9hPa | 2.7V | 00:00:00 | 00:00:00 | 00:00:00 | |
| PETON7-10 | 2026-09-01 17:05:28 | 47.85806 | 11.86775 | 354° | 13km/h | 24352m | 5.0m/s | -50.3°C | 3.7% | 29.9hPa | 2.7V | 00:00:00 | 00:00:00 | 08:30:00 | |
| OE8JPQ-2 | 2026-09-01 17:05:27 | 47.85804 | 11.86775 | 5° | 13km/h | 24347m | 5.1m/s | -50.3°C | 3.7% | 29.9hPa | 2.7V | 00:00:00 | 01:55:08 | 00:00:00 | |
| DF7PN | 2026-09-01 17:05:26 | 47.85797 | 11.86774 | 13° | 13km/h | 24335m | 5.0m/s | -50.4°C | 1.0% | 30.0hPa | 2.7V | 00:00:00 | 00:00:00 | 00:00:00 | |
| DM0DOS-11 | 2026-09-01 17:05:24 | 47.85780 | 11.86773 | 338° | 16km/h | 24303m | 4.4m/s | -50.5°C | 3.6% | 30.2hPa | 2.7V | 08:30:00 | 01:55:00 | 00:00:00 | |
| DO3MHA-12 | 2026-09-01 17:05:24 | 47.85794 | 11.86772 | 18° | 13km/h | 24329m | 5.9m/s | -50.3°C | 3.7% | 30.0hPa | 2.7V | 00:00:00 | 01:55:05 | 00:00:00 | |
| DG1MFX-10 | 2026-09-01 17:05:23 | 47.85794 | 11.86772 | 19° | 13km/h | 24329m | 5.9m/s | -50.4°C | 1.1% | 30.0hPa | 2.7V | 00:00:00 | 00:00:00 | 00:00:00 | |
| DO3MHA-11 | 2026-09-01 17:05:21 | 47.85786 | 11.86770 | 355° | 15km/h | 24314m | 5.2m/s | -50.4°C | 3.6% | 30.1hPa | 2.7V | 00:00:00 | 01:55:02 | 00:00:00 | |
| OM5KV | 2026-09-01 17:05:20 | 47.85786 | 11.86770 | 355° | 11km/h | 24314m | 5.3m/s | -50.4°C | 0% | 0hPa | 2.7V | 00:00:00 | 00:00:00 | 00:00:00 | |
| DB0UT-7 | 2026-09-01 17:05:19 | 47.85780 | 11.86773 | 339° | 13km/h | 24303m | 4.4m/s | -50.5°C | 3.6% | 30.1hPa | 2.7V | 00:00:00 | 01:55:00 | 00:00:00 | |
| NBG1-10 | 2026-09-01 17:05:18 | 47.85776 | 11.86775 | 337° | 11km/h | 24299m | 4.5m/s | -50.5°C | 3.6% | 30.1hPa | 2.7V | 00:00:00 | 01:54:59 | 00:00:00 | |
| DF3TZ-5 | 2026-09-01 17:05:16 | 47.85769 | 11.86779 | 343° | 11km/h | 24288m | 5.0m/s | -50.7°C | 1.0% | 30.2hPa | 2.6V | 00:00:00 | 00:00:00 | 00:00:00 | |
| DM0DOS-11 | 2026-09-01 17:05:14 | 47.85746 | 11.86783 | 351° | 9km/h | 24251m | 4.1m/s | -51.2°C | 3.8% | 30.4hPa | 2.6V | 08:30:00 | 01:54:50 | 00:00:00 | |
| DO3MHA-12 | 2026-09-01 17:05:14 | 47.85763 | 11.86780 | 351° | 13km/h | 24278m | 5.6m/s | -50.9°C | 3.7% | 30.2hPa | 2.7V | 00:00:00 | 01:54:55 | 00:00:00 | |
| PETON7-10 | 2026-09-01 17:05:13 | 47.85760 | 11.86781 | 351° | 11km/h | 24272m | 5.6m/s | -50.9°C | 3.7% | 30.2hPa | 2.7V | 00:00:00 | 00:00:00 | 00:00:00 | |
| OE5DXL-15 | 2026-09-01 17:05:12 | 47.85756 | 11.86782 | 353° | 11km/h | 24267m | 4.9m/s | -51.1°C | 3.8% | 30.3hPa | 2.7V | 00:00:00 | 00:00:00 | 08:30:00 | |
| DO3MHA-11 | 2026-09-01 17:05:11 | 47.85752 | 11.86782 | 358° | 11km/h | 24261m | 5.2m/s | -51.1°C | 3.8% | 30.3hPa | 2.7V | 00:00:00 | 01:54:52 | 00:00:00 | |
| IN3HCDX | 2026-09-01 17:05:10 | 47.85752 | 11.86782 | 359° | 15km/h | 24261m | 5.2m/s | -51.1°C | 1.1% | 30.4hPa | 2.7V | 00:00:00 | 00:00:00 | 00:00:00 | |
| DF2AP-13 | 2026-09-01 17:05:09 | 47.85746 | 11.86783 | 352° | 11km/h | 24251m | 4.0m/s | -51.2°C | 3.8% | 30.4hPa | 2.7V | 00:00:00 | 01:54:50 | 00:00:00 | |
| OE5DRO-10 | 2026-09-01 17:05:08 | 47.85743 | 11.86784 | 338° | 11km/h | 24246m | 6.3m/s | -51.2°C | 3.8% | 30.4hPa | 2.7V | 00:00:00 | 00:00:00 | 00:00:00 | |
| OE8JPQ-2 | 2026-09-01 17:05:07 | 47.85741 | 11.86786 | 330° | 11km/h | 24240m | 5.2m/s | -51.2°C | 3.8% | 30.4hPa | 2.7V | 00:00:00 | 00:00:00 | 00:00:00 | |
| DM0DOS-11 | 2026-09-01 17:05:04 | 47.85720 | 11.86793 | 2° | 13km/h | 24197m | 6m/s | -51.3°C | 3.8% | 30.6hPa | 2.6V | 08:30:00 | 01:54:40 | 00:00:00 | |
| DO3MHA-12 | 2026-09-01 17:05:04 | 47.85735 | 11.86790 | 350° | 13km/h | 24224m | 4.7m/s | -51.2°C | 3.8% | 30.5hPa | 2.6V | 00:00:00 | 01:54:45 | 00:00:00 | |
| OM5KV | 2026-09-01 17:05:03 | 47.85735 | 11.86790 | 351° | 7km/h | 24224m | 4.7m/s | 0°C | 0% | 30.5hPa | 2.6V | 00:00:00 | 00:00:00 | 00:00:00 | |
| DG1MFX-10 | 2026-09-01 17:05:02 | 47.85733 | 11.86790 | 352° | 9km/h | 24219m | 5.6m/s | -51.3°C | 1.1% | 30.6hPa | 2.6V | 00:00:00 | 00:00:00 | 00:00:00 | |
| DF7PN | 2026-09-01 17:04:55 | 47.85701 | 11.86794 | 356° | 15km/h | 24172m | 3.8m/s | -51.5°C | 1.1% | 30.8hPa | 2.6V | 00:00:00 | 00:00:00 | 00:00:00 | |
| DM0DOS-11 | 2026-09-01 17:04:54 | 47.85695 | 11.86800 | 254° | 9km/h | 24147m | 5.1m/s | -51.7°C | 3.9% | 30.9hPa | 2.6V | 08:30:00 | 01:54:30 | 00:00:00 | |
| DO3MHA-12 | 2026-09-01 17:04:54 | 47.85701 | 11.86794 | 357° | 9km/h | 24172m | 3.7m/s | -51.4°C | 3.8% | 30.7hPa | 2.6V | 00:00:00 | 01:54:35 | 08:30:00 | |
| OE5REO-15 | 2026-09-01 17:04:53 | 47.85701 | 11.86794 | 357° | 16km/h | 24172m | 3.8m/s | -51.5°C | 0% | 30.8hPa | 2.6V | 00:00:00 | 00:00:00 | 00:00:00 | |
| OE5HKT-10 | 2026-09-01 17:04:52 | 47.85695 | 11.86794 | 352° | 11km/h | 24162m | 5.4m/s | -51.5°C | 3.8% | 30.8hPa | 2.6V | 00:00:00 | 00:00:00 | 00:00:00 | |
| DO3MHA-11 | 2026-09-01 17:04:51 | 47.85695 | 11.86795 | 281° | 7km/h | 24157m | 5.1m/s | -51.5°C | 3.8% | 30.8hPa | 2.7V | 00:00:00 | 01:54:32 | 00:00:00 | |
| OE5DRO-10 | 2026-09-01 17:04:49 | 47.85695 | 11.86800 | 255° | 13km/h | 24147m | 5.0m/s | -51.6°C | 3.9% | 30.9hPa | 2.7V | 00:00:00 | 00:00:00 | 00:00:00 | |
| OE8JPQ-2 | 2026-09-01 17:04:47 | 47.85695 | 11.86808 | 291° | 15km/h | 24137m | 4.5m/s | -51.7°C | 3.9% | 30.9hPa | 2.7V | 00:00:00 | 00:00:00 | 00:00:00 | |
| OM5KV | 2026-09-01 17:04:46 | 47.85695 | 11.86808 | 291° | 11km/h | 24137m | 4.5m/s | 0°C | 0% | 0hPa | 2.7V | 00:00:00 | 00:00:00 | 00:00:00 | |
| NBG1-10 | 2026-09-01 17:04:45 | 47.85692 | 11.86812 | 336° | 15km/h | 24127m | 5.5m/s | -51.9°C | 4.0% | 30.9hPa | 2.7V | 00:00:00 | 01:54:26 | 00:00:00 | |
| DM0DOS-11 | 2026-09-01 17:04:44 | 47.85679 | 11.86823 | 324° | 13km/h | 24094m | 6.2m/s | -51.8°C | 4.1% | 31.1hPa | 2.7V | 08:30:00 | 01:54:20 | 00:00:00 | |
| DO3MHA-12 | 2026-09-01 17:04:44 | 47.85691 | 11.86813 | 354° | 13km/h | 24122m | 4.9m/s | -51.9°C | 4.0% | 31.0hPa | 2.6V | 00:00:00 | 01:54:25 | 00:00:00 | |
| PETON7-10 | 2026-09-01 17:04:43 | 47.85689 | 11.86814 | 347° | 16km/h | 24116m | 5.5m/s | -51.9°C | 4.1% | 31.0hPa | 2.6V | 00:00:00 | 00:00:00 | 00:00:00 | |
| OE5DXL-15 | 2026-09-01 17:04:42 | 47.85687 | 11.86815 | 334° | 15km/h | 24111m | 5.9m/s | -51.9°C | 4.1% | 31.0hPa | 2.7V | 00:00:00 | 00:00:00 | 00:00:00 | |
| DO3MHA-11 | 2026-09-01 17:04:41 | 47.85685 | 11.86817 | 325° | 16km/h | 24105m | 4.6m/s | -51.8°C | 4.1% | 31.0hPa | 2.7V | 00:00:00 | 01:54:22 | 00:00:00 | |
| DL6DJ-15 | 2026-09-01 17:04:40 | 47.85682 | 11.86820 | 322° | 13km/h | 24100m | 5.1m/s | -51.9°C | 1.1% | 31.1hPa | 2.7V | 00:00:00 | 00:00:00 | 00:00:00 | |
| DF2AP-13 | 2026-09-01 17:04:39 | 47.85679 | 11.86823 | 325° | 15km/h | 24095m | 6.2m/s | -51.8°C | 4.1% | 31.1hPa | 2.7V | 00:00:00 | 01:54:20 | 00:00:00 | |
| OE5REO-15 | 2026-09-01 17:04:37 | 47.85677 | 11.86825 | 325° | 13km/h | 24089m | 4.8m/s | -51.9°C | 0% | 0hPa | 2.7V | 00:00:00 | 00:00:00 | 00:00:00 | |
| DM7RM-13 | 2026-09-01 17:04:35 | 47.85671 | 11.86833 | 316° | 18km/h | 24079m | 6.4m/s | -51.9°C | 1.2% | 31.2hPa | 2.7V | 00:00:00 | 00:00:00 | 00:00:00 | |
| DM0DOS-11 | 2026-09-01 17:04:34 | 47.85644 | 11.86865 | 325° | 18km/h | 24042m | 4.8m/s | -51.9°C | 4% | 31.4hPa | 2.7V | 08:30:00 | 01:54:10 | 00:00:00 | |
| DO3MHA-12 | 2026-09-01 17:04:34 | 47.85663 | 11.86845 | 317° | 16km/h | 24069m | 4.2m/s | -51.8°C | 4.0% | 31.2hPa | 2.6V | 00:00:00 | 01:54:15 | 00:00:00 | |
| EDDB2-11 | 2026-09-01 17:04:33 | 47.85659 | 11.86850 | 322° | 18km/h | 24063m | 5.9m/s | 0°C | -1.0% | -1.0hPa | 2.6V | 00:00:00 | 00:00:00 | 00:00:00 | |
| OE5WHR-10 | 2026-09-01 17:04:32 | 47.85656 | 11.86854 | 329° | 15km/h | 24058m | 4.8m/s | -51.7°C | 3.9% | 31.3hPa | 2.6V | 00:00:00 | 00:00:00 | 00:00:00 | |
| DO3MHA-11 | 2026-09-01 17:04:31 | 47.85651 | 11.86857 | 330° | 15km/h | 24053m | 4.9m/s | -51.7°C | 3.9% | 31.3hPa | 2.6V | 00:00:00 | 01:54:12 | 00:00:00 | |
| OE5DRO-10 | 2026-09-01 17:04:30 | 47.85648 | 11.86861 | 327° | 15km/h | 24048m | 6.0m/s | -51.8°C | 3.9% | 31.3hPa | 2.6V | 00:00:00 | 00:00:00 | 08:30:00 | |
| PETON7-10 | 2026-09-01 17:04:28 | 47.85640 | 11.86868 | 327° | 15km/h | 24037m | 5.7m/s | -51.9°C | 4.0% | 31.4hPa | 2.6V | 00:00:00 | 00:00:00 | 00:00:00 | |
| OE8JPQ-2 | 2026-09-01 17:04:27 | 47.85638 | 11.86871 | 331° | 15km/h | 24031m | 5.4m/s | -51.9°C | 4.0% | 31.4hPa | 2.6V | 00:00:00 | 01:54:08 | 00:00:00 | |
| DM0DOS-11 | 2026-09-01 17:04:24 | 47.85629 | 11.86908 | 289° | 16km/h | 23989m | 5.5m/s | -51.9°C | 4% | 31.6hPa | 2.6V | 08:30:00 | 01:54:00 | 00:00:00 | |
| DO3MHA-12 | 2026-09-01 17:04:24 | 47.85633 | 11.86879 | 287° | 15km/h | 24015m | 5.8m/s | -51.9°C | 4.1% | 31.5hPa | 2.7V | 00:00:00 | 01:54:05 | 00:00:00 | |
| DF7PN | 2026-09-01 17:04:23 | 47.85632 | 11.86885 | 279° | 16km/h | 24010m | 4.5m/s | -51.9°C | 1.2% | 31.5hPa | 2.6V | 00:00:00 | 00:00:00 | 00:00:00 | |
| DO3MHA-11 | 2026-09-01 17:04:21 | 47.85631 | 11.86897 | 280° | 15km/h | 24000m | 5.6m/s | -51.8°C | 4.0% | 31.6hPa | 2.6V | 00:00:00 | 01:54:02 | 00:00:00 | |
| DB0UT-7 | 2026-09-01 17:04:19 | 47.85629 | 11.86908 | 290° | 15km/h | 23989m | 5.4m/s | -51.8°C | 4.0% | 31.6hPa | 2.6V | 00:00:00 | 01:54:00 | 00:00:00 | |
| DL2OL | 2026-09-01 17:04:18 | 47.85629 | 11.86908 | 290° | 16km/h | 23989m | 5.5m/s | -51.9°C | 1.1% | 31.6hPa | 2.6V | 00:00:00 | 00:00:00 | 00:00:00 | |
| DB0NH | 2026-09-01 17:04:17 | 47.85625 | 11.86919 | 299° | 15km/h | 23979m | 4.3m/s | -51.9°C | 4.0% | 31.6hPa | 2.6V | 00:00:00 | 01:53:58 | 00:00:00 | |
| SONCRA | 2026-09-01 17:04:16 | 47.85623 | 11.86925 | 305° | 15km/h | 23973m | 5.2m/s | 0°C | -1.0% | -1.0hPa | 2.6V | 00:00:00 | 00:00:00 | 00:00:00 | |
| DM7RM-13 | 2026-09-01 17:04:15 | 47.85623 | 11.86925 | 306° | 16km/h | 23974m | 5.2m/s | -52.0°C | 1.2% | 31.7hPa | 2.6V | 00:00:00 | 00:00:00 | 00:00:00 | |
| DM0DOS-11 | 2026-09-01 17:04:14 | 47.85616 | 11.86957 | 271° | 16km/h | 23935m | 6.3m/s | -52.1°C | 4.1% | 31.9hPa | 2.6V | 08:30:00 | 01:53:50 | 00:00:00 | |
| DO3MHA-12 | 2026-09-01 17:04:14 | 47.85619 | 11.86932 | 309° | 16km/h | 23962m | 5.0m/s | -51.9°C | 3.9% | 31.7hPa | 2.7V | 00:00:00 | 01:53:55 | 00:00:00 | |
| PETON7-10 | 2026-09-01 17:04:13 | 47.85618 | 11.86935 | 297° | 16km/h | 23958m | 4.8m/s | -51.9°C | 4.0% | 31.8hPa | 2.7V | 00:00:00 | 01:53:54 | 00:00:00 | |
| OE5DXL-15 | 2026-09-01 17:04:12 | 47.85617 | 11.86939 | 287° | 15km/h | 23952m | 6.3m/s | -52.0°C | 4.0% | 31.8hPa | 2.7V | 00:00:00 | 00:00:00 | 00:00:00 | |
| OE5WHR-10 | 2026-09-01 17:04:11 | 47.85616 | 11.86944 | 278° | 16km/h | 23946m | 4.8m/s | -52.0°C | 4.1% | 31.8hPa | 2.7V | 00:00:00 | 01:53:52 | 00:00:00 | |
| SONDE2-11 | 2026-09-01 17:04:10 | 47.85616 | 11.86950 | 272° | 16km/h | 23941m | 5.6m/s | -52.1°C | 1.1% | 31.9hPa | 2.7V | 00:00:00 | 00:00:00 | 00:00:00 | |
| DL6DJ-15 | 2026-09-01 17:04:09 | 47.85616 | 11.86963 | 272° | 16km/h | 23929m | 4.8m/s | -52.1°C | 1.1% | 31.9hPa | 2.7V | 00:00:00 | 00:00:00 | 00:00:00 | |
| OE8JPQ-2 | 2026-09-01 17:04:07 | 47.85615 | 11.86970 | 277° | 16km/h | 23924m | 6.8m/s | -52.1°C | 4.1% | 31.9hPa | 2.7V | 00:00:00 | 00:00:00 | 00:00:00 | |
| DF2AP-13 | 2026-09-01 17:04:06 | 47.85614 | 11.86978 | 283° | 15km/h | 23918m | 4.6m/s | -52.1°C | 4.2% | 32.0hPa | 2.6V | 00:00:00 | 01:53:47 | 00:00:00 | |
| DM0DOS-11 | 2026-09-01 17:04:04 | 47.85609 | 11.87021 | 261° | 16km/h | 23881m | 5.2m/s | -51.9°C | 4.1% | 32.2hPa | 2.6V | 08:30:00 | 01:53:40 | 00:00:00 | |
| DO3MHA-12 | 2026-09-01 17:04:04 | 47.85611 | 11.86993 | 288° | 15km/h | 23908m | 6.4m/s | -52.0°C | 4.2% | 32.0hPa | 2.7V | 00:00:00 | 01:53:45 | 00:00:00 | |
| DO3MHA-11 | 2026-09-01 17:04:01 | 47.85609 | 11.87009 | 273° | 15km/h | 23892m | 5.5m/s | -51.9°C | 4.1% | 32.1hPa | 2.7V | 00:00:00 | 01:53:42 | 00:00:00 | |
| PETON7-10 | 2026-09-01 17:03:58 | 47.85610 | 11.87026 | 252° | 15km/h | 23877m | 5.0m/s | -51.7°C | 4.0% | 32.2hPa | 2.6V | 00:00:00 | 00:00:00 | 00:00:00 | |
| BAUMI2-15 | 2026-09-01 17:03:55 | 47.85615 | 11.87040 | 239° | 15km/h | 23861m | 5.9m/s | -51.7°C | 4.0% | 32.2hPa | 2.6V | 00:00:00 | 01:53:36 | 00:00:00 | |
| DO3MHA-12 | 2026-09-01 17:03:54 | 47.85617 | 11.87045 | 248° | 15km/h | 23855m | 5.1m/s | -51.7°C | 4.0% | 32.3hPa | 2.6V | 00:00:00 | 01:53:35 | 00:00:00 | |
| OE5DRO-10 | 2026-09-01 17:03:52 | 47.85619 | 11.87056 | 258° | 13km/h | 23844m | 6.6m/s | -51.6°C | 4.0% | 32.3hPa | 2.7V | 00:00:00 | 00:00:00 | 00:00:00 | |
| DO3MHA-11 | 2026-09-01 17:03:51 | 47.85620 | 11.87061 | 262° | 13km/h | 23838m | 4.8m/s | -51.6°C | 4.0% | 32.4hPa | 2.7V | 00:00:00 | 01:53:32 | 00:00:00 | |
| OE5WHR-10 | 2026-09-01 17:03:50 | 47.85621 | 11.87066 | 264° | 11km/h | 23833m | 4.9m/s | -51.5°C | 4.0% | 32.4hPa | 2.7V | 00:00:00 | 00:00:00 | 00:00:00 | |
| DB0UT-7 | 2026-09-01 17:03:49 | 47.85621 | 11.87072 | 262° | 9km/h | 23827m | 6.1m/s | -51.4°C | 4.0% | 32.4hPa | 2.6V | 00:00:00 | 00:00:00 | 00:00:00 | |
| OE8JPQ-2 | 2026-09-01 17:03:47 | 47.85623 | 11.87084 | 255° | 9km/h | 23817m | 5.0m/s | -51.4°C | 4.0% | 32.5hPa | 2.6V | 00:00:00 | 00:00:00 | 00:00:00 | |
| DB0NH | 2026-09-01 17:03:46 | 47.85624 | 11.87089 | 248° | 7km/h | 23812m | 5.9m/s | -51.5°C | 4.0% | 32.5hPa | 2.6V | 00:00:00 | 01:53:27 | 00:00:00 | |
| DM0DOS-11 | 2026-09-01 17:03:45 | 47.85631 | 11.87103 | 229° | 15km/h | 23791m | 5m/s | -51.5°C | 4% | 32.6hPa | 2.6V | 08:30:00 | 01:53:23 | 00:00:00 | |
| BAUMI2-15 | 2026-09-01 17:03:45 | 47.85625 | 11.87093 | 239° | 13km/h | 23806m | 4.6m/s | -51.5°C | 4.0% | 32.5hPa | 2.7V | 00:00:00 | 01:53:26 | 08:30:00 | |
| DO3MHA-12 | 2026-09-01 17:03:44 | 47.85627 | 11.87096 | 232° | 11km/h | 23802m | 4.5m/s | -51.5°C | 4.0% | 32.5hPa | 2.6V | 00:00:00 | 01:53:25 | 00:00:00 | |
| PETON7-10 | 2026-09-01 17:03:43 | 47.85628 | 11.87099 | 231° | 9km/h | 23796m | 6.2m/s | -51.6°C | 4.1% | 32.6hPa | 2.6V | 00:00:00 | 00:00:00 | 00:00:00 | |
| OE5DXL-15 | 2026-09-01 17:03:42 | 47.85630 | 11.87103 | 230° | 7km/h | 23791m | 4.9m/s | -51.5°C | 4.0% | 32.6hPa | 2.6V | 00:00:00 | 00:00:00 | 00:00:00 | |
| DO3MHA-11 | 2026-09-01 17:03:41 | 47.85633 | 11.87107 | 227° | 9km/h | 23785m | 5.5m/s | -51.4°C | 3.9% | 32.6hPa | 2.6V | 00:00:00 | 01:53:22 | 00:00:00 | |
| BAUMI2-15 | 2026-09-01 17:03:40 | 47.85635 | 11.87110 | 220° | 9km/h | 23780m | 6.5m/s | -51.4°C | 4.0% | 32.6hPa | 2.6V | 00:00:00 | 01:53:21 | 00:00:00 | |
| SONDE2-11 | 2026-09-01 17:03:39 | 47.85638 | 11.87114 | 231° | 5km/h | 23769m | 3.8m/s | -51.4°C | 1.1% | 32.8hPa | 2.6V | 00:00:00 | 00:00:00 | 00:00:00 | |
| DL6DJ-15 | 2026-09-01 17:03:38 | 47.85639 | 11.87117 | 251° | 7km/h | 23764m | 6.2m/s | -51.4°C | 1.1% | 32.8hPa | 2.6V | 00:00:00 | 00:00:00 | 00:00:00 | |
| DM0DOS-11 | 2026-09-01 17:03:35 | 47.85637 | 11.87134 | 299° | 7km/h | 23736m | 5m/s | -51.4°C | 3.9% | 32.9hPa | 2.6V | 08:30:00 | 01:53:13 | 00:00:00 | |
| BAUMI2-15 | 2026-09-01 17:03:35 | 47.85639 | 11.87124 | 280° | 9km/h | 23752m | 4.9m/s | -51.4°C | 3.9% | 32.8hPa | 2.7V | 00:00:00 | 01:53:16 | 00:00:00 | |
| DK5PH-5 | 2026-09-01 17:03:34 | 47.85639 | 11.87128 | 288° | 7km/h | 23747m | 6.4m/s | -51.4°C | 4.0% | 32.8hPa | 2.7V | 00:00:00 | 01:53:15 | 00:00:00 | |
| OE5DRO-10 | 2026-09-01 17:03:33 | 47.85638 | 11.87132 | 299° | 7km/h | 23741m | 5.0m/s | -51.4°C | 4.0% | 32.8hPa | 2.7V | 00:00:00 | 00:00:00 | 00:00:00 | |
| OE5REO-15 | 2026-09-01 17:03:32 | 47.85638 | 11.87132 | 299° | 9km/h | 23741m | 5.0m/s | -51.5°C | 0% | 0hPa | 2.6V | 00:00:00 | 00:00:00 | 00:00:00 | |
| DO3MHA-11 | 2026-09-01 17:03:31 | 47.85636 | 11.87137 | 288° | 5km/h | 23731m | 6.1m/s | -51.4°C | 4.0% | 32.9hPa | 2.6V | 00:00:00 | 01:53:12 | 08:30:00 | |
| BAUMI2-15 | 2026-09-01 17:03:30 | 47.85636 | 11.87139 | 277° | 4km/h | 23725m | 4.4m/s | -51.4°C | 3.9% | 32.9hPa | 2.6V | 00:00:00 | 01:53:11 | 00:00:00 | |
| OE5WHR-10 | 2026-09-01 17:03:29 | 47.85636 | 11.87141 | 277° | 7km/h | 23720m | 4.9m/s | -51.4°C | 4.0% | 32.9hPa | 2.7V | 00:00:00 | 00:00:00 | 00:00:00 | |
| PETON7-10 | 2026-09-01 17:03:28 | 47.85636 | 11.87141 | 72° | 7km/h | 23715m | 6.2m/s | -51.2°C | 4.0% | 33.0hPa | 2.7V | 00:00:00 | 01:53:09 | 00:00:00 | |
| DM0DOS-11 | 2026-09-01 17:03:27 | 47.85633 | 11.87140 | 307° | 9km/h | 23684m | 5.6m/s | -51.3°C | 3.8% | 33.2hPa | 2.7V | 08:30:00 | 01:53:03 | 00:00:00 | |
| OE8JPQ-2 | 2026-09-01 17:03:27 | 47.85635 | 11.87140 | 81° | 9km/h | 23709m | 4.6m/s | -51.2°C | 3.9% | 33.0hPa | 2.6V | 00:00:00 | 01:53:08 | 00:00:00 | |
| DL2OL | 2026-09-01 17:03:26 | 47.85635 | 11.87140 | 81° | 5km/h | 23709m | 4.6m/s | -51.2°C | 1.1% | 33.1hPa | 2.6V | 00:00:00 | 00:00:00 | 00:00:00 | |
| BAUMI2-15 | 2026-09-01 17:03:25 | 47.85635 | 11.87136 | 64° | 5km/h | 23700m | 6.0m/s | -51.2°C | 3.9% | 33.1hPa | 2.6V | 00:00:00 | 01:53:06 | 00:00:00 | |
| DO3MHA-12 | 2026-09-01 17:03:24 | 47.85634 | 11.87136 | 308° | 7km/h | 23694m | 5.3m/s | -51.2°C | 3.9% | 33.1hPa | 2.6V | 00:00:00 | 01:53:05 | 08:30:00 | |
| DO8TBO-1 | 2026-09-01 17:03:22 | 47.85632 | 11.87140 | 308° | 15km/h | 23684m | 5.5m/s | -51.3°C | 3.8% | 33.1hPa | 2.6V | 00:00:00 | 01:53:03 | 00:00:00 | |
| DO3MHA-11 | 2026-09-01 17:03:21 | 47.85631 | 11.87142 | 328° | 9km/h | 23678m | 5.6m/s | -51.3°C | 3.9% | 33.2hPa | 2.6V | 00:00:00 | 01:53:02 | 00:00:00 | |
| BAUMI2-15 | 2026-09-01 17:03:20 | 47.85629 | 11.87144 | 347° | 7km/h | 23673m | 5.0m/s | -51.4°C | 3.9% | 33.2hPa | 2.6V | 00:00:00 | 01:53:01 | 00:00:00 | |
| DB0UT-7 | 2026-09-01 17:03:19 | 47.85627 | 11.87144 | 4° | 15km/h | 23668m | 5.2m/s | -51.3°C | 3.8% | 33.2hPa | 2.6V | 00:00:00 | 01:53:00 | 00:00:00 | |
| DB0NH | 2026-09-01 17:03:16 | 47.85623 | 11.87140 | 56° | 11km/h | 23651m | 5.6m/s | -51.4°C | 3.8% | 33.3hPa | 2.7V | 00:00:00 | 01:52:57 | 00:00:00 | |
| BAUMI2-15 | 2026-09-01 17:03:15 | 47.85621 | 11.87138 | 46° | 13km/h | 23645m | 5.7m/s | -51.4°C | 3.9% | 33.4hPa | 2.6V | 00:00:00 | 01:52:56 | 00:00:00 | |
| DM0DOS-11 | 2026-09-01 17:03:14 | 47.85604 | 11.87132 | 351° | 13km/h | 23614m | 5.6m/s | -51.6°C | 3.9% | 33.5hPa | 2.6V | 08:30:00 | 01:52:50 | 00:00:00 | |
| DO3MHA-12 | 2026-09-01 17:03:14 | 47.85619 | 11.87134 | 34° | 15km/h | 23640m | 4.1m/s | -51.5°C | 3.9% | 33.4hPa | 2.6V | 00:00:00 | 01:52:55 | 00:00:00 | |
| PETON7-10 | 2026-09-01 17:03:13 | 47.85616 | 11.87132 | 22° | 16km/h | 23635m | 4.4m/s | -51.5°C | 3.9% | 33.4hPa | 2.6V | 00:00:00 | 00:00:00 | 08:30:00 | |
| OE5DXL-15 | 2026-09-01 17:03:12 | 47.85613 | 11.87131 | 13° | 16km/h | 23630m | 6.2m/s | -51.6°C | 3.9% | 33.4hPa | 2.6V | 00:00:00 | 00:00:00 | 00:00:00 | |
| DO3MHA-11 | 2026-09-01 17:03:11 | 47.85610 | 11.87130 | 354° | 15km/h | 23624m | 5.1m/s | -51.6°C | 4.0% | 33.5hPa | 2.6V | 00:00:00 | 01:52:52 | 00:00:00 | |
| BAUMI2-15 | 2026-09-01 17:03:10 | 47.85607 | 11.87131 | 346° | 15km/h | 23619m | 4.7m/s | -51.6°C | 3.9% | 33.5hPa | 2.6V | 00:00:00 | 01:52:51 | 00:00:00 | |
| DG1MJG | 2026-09-01 17:03:09 | 47.85608 | 11.87131 | 347° | 11km/h | 23619m | 4.8m/s | -51.6°C | 1.1% | 33.5hPa | 2.6V | 00:00:00 | 00:00:00 | 00:00:00 | |
| SONDE2-11 | 2026-09-01 17:03:08 | 47.85597 | 11.87131 | 16° | 16km/h | 23603m | 4.2m/s | -51.6°C | 1.1% | 33.6hPa | 2.6V | 00:00:00 | 00:00:00 | 00:00:00 | |
| DL6DJ-15 | 2026-09-01 17:03:07 | 47.85593 | 11.87129 | 20° | 16km/h | 23599m | 5.3m/s | -51.7°C | 1.1% | 33.6hPa | 2.6V | 00:00:00 | 00:00:00 | 00:00:00 | |
| NBG1-10 | 2026-09-01 17:03:06 | 47.85593 | 11.87129 | 21° | 15km/h | 23599m | 5.2m/s | -51.7°C | 4.0% | 33.6hPa | 2.6V | 00:00:00 | 01:52:47 | 00:00:00 | |
| BAUMI2-15 | 2026-09-01 17:03:05 | 47.85589 | 11.87127 | 25° | 16km/h | 23593m | 5.6m/s | -51.7°C | 4.1% | 33.6hPa | 2.6V | 00:00:00 | 01:52:46 | 00:00:00 | |
| DM0DOS-11 | 2026-09-01 17:03:04 | 47.85563 | 11.87113 | 10° | 18km/h | 23560m | 6.4m/s | -51.7°C | 4% | 33.8hPa | 2.6V | 08:30:00 | 01:52:40 | 00:00:00 | |
| DK5PH-5 | 2026-09-01 17:03:04 | 47.85586 | 11.87124 | 27° | 15km/h | 23588m | 5.0m/s | -51.6°C | 4.1% | 33.7hPa | 2.6V | 00:00:00 | 01:52:45 | 00:00:00 | |
| DO3MHA-11 | 2026-09-01 17:03:01 | 47.85573 | 11.87117 | 18° | 18km/h | 23571m | 5.2m/s | -51.7°C | 4.0% | 33.7hPa | 2.7V | 00:00:00 | 01:52:42 | 00:00:00 | |
| BAUMI2-15 | 2026-09-01 17:03:00 | 47.85568 | 11.87115 | 15° | 18km/h | 23566m | 5.0m/s | -51.7°C | 4.0% | 33.7hPa | 2.7V | 00:00:00 | 01:52:41 | 08:30:00 | |
| DL2OL | 2026-09-01 17:02:59 | 47.85568 | 11.87115 | 15° | 20km/h | 23566m | 5.1m/s | -51.7°C | 1.1% | 33.8hPa | 2.7V | 00:00:00 | 00:00:00 | 00:00:00 | |
| PETON7-10 | 2026-09-01 17:02:58 | 47.85559 | 11.87112 | 6° | 16km/h | 23555m | 4.5m/s | -51.7°C | 4.0% | 33.8hPa | 2.7V | 00:00:00 | 00:00:00 | 00:00:00 | |
| BAUMI2-15 | 2026-09-01 17:02:55 | 47.85545 | 11.87111 | 4° | 18km/h | 23539m | 4.8m/s | -51.8°C | 3.9% | 33.9hPa | 2.7V | 00:00:00 | 01:52:36 | 00:00:00 | |
| DO3MHA-12 | 2026-09-01 17:02:54 | 47.85540 | 11.87110 | 6° | 16km/h | 23534m | 5.9m/s | -51.8°C | 3.9% | 33.9hPa | 2.7V | 00:00:00 | 01:52:35 | 00:00:00 | |
| DM7RM-13 | 2026-09-01 17:02:52 | 47.85531 | 11.87109 | 7° | 15km/h | 23523m | 4.8m/s | -51.8°C | 1.1% | 34.0hPa | 2.6V | 00:00:00 | 00:00:00 | 00:00:00 | |
| DO3MHA-11 | 2026-09-01 17:02:51 | 47.85527 | 11.87108 | 5° | 15km/h | 23517m | 6.6m/s | -51.8°C | 3.9% | 34.0hPa | 2.6V | 00:00:00 | 01:52:32 | 00:00:00 | |
| BAUMI2-15 | 2026-09-01 17:02:50 | 47.85523 | 11.87108 | 3° | 15km/h | 23511m | 5.2m/s | -51.7°C | 3.9% | 34.1hPa | 2.6V | 00:00:00 | 01:52:31 | 00:00:00 | |
| DB0UT-7 | 2026-09-01 17:02:49 | 47.85518 | 11.87108 | 360° | 9km/h | 23506m | 5.1m/s | -51.7°C | 3.9% | 34.1hPa | 2.6V | 00:00:00 | 00:00:00 | 00:00:00 | |
| DM0DOS-11 | 2026-09-01 17:02:47 | 47.85493 | 11.87117 | 344° | 13km/h | 23467m | 6.5m/s | -51.9°C | 4% | 34.3hPa | 2.6V | 08:30:00 | 01:52:23 | 00:00:00 | |
| OE5WHR-10 | 2026-09-01 17:02:47 | 47.85511 | 11.87109 | 349° | 9km/h | 23495m | 4.7m/s | -51.8°C | 4.0% | 34.1hPa | 2.6V | 00:00:00 | 00:00:00 | 00:00:00 | |
| BAUMI2-15 | 2026-09-01 17:02:45 | 47.85504 | 11.87112 | 343° | 15km/h | 23484m | 6.3m/s | -51.9°C | 4.0% | 34.2hPa | 2.7V | 00:00:00 | 01:52:26 | 00:00:00 | |
| DO3MHA-12 | 2026-09-01 17:02:44 | 47.85500 | 11.87114 | 344° | 11km/h | 23478m | 4.5m/s | -51.8°C | 4.0% | 34.2hPa | 2.7V | 00:00:00 | 01:52:25 | 00:00:00 | |
| PETON7-10 | 2026-09-01 17:02:43 | 47.85496 | 11.87115 | 344° | 9km/h | 23474m | 4.9m/s | -51.8°C | 4.0% | 34.3hPa | 2.7V | 00:00:00 | 01:52:24 | 00:00:00 | |
| OE5DXL-15 | 2026-09-01 17:02:42 | 47.85492 | 11.87117 | 345° | 9km/h | 23468m | 6.4m/s | -51.9°C | 4.0% | 34.3hPa | 2.7V | 00:00:00 | 00:00:00 | 00:00:00 | |
| DO3MHA-11 | 2026-09-01 17:02:41 | 47.85490 | 11.87118 | 341° | 7km/h | 23462m | 5.4m/s | -51.9°C | 4.0% | 34.3hPa | 2.7V | 00:00:00 | 01:52:22 | 00:00:00 | |
| BAUMI2-15 | 2026-09-01 17:02:40 | 47.85488 | 11.87119 | 338° | 9km/h | 23457m | 4.2m/s | -52.1°C | 4.0% | 34.3hPa | 2.7V | 00:00:00 | 01:52:21 | 00:00:00 | |
| DG1MFX-10 | 2026-09-01 17:02:39 | 47.85488 | 11.87119 | 339° | 5km/h | 23457m | 4.3m/s | -52.1°C | 1.2% | 34.4hPa | 2.7V | 00:00:00 | 00:00:00 | 00:00:00 | |
| DG1MJG | 2026-09-01 17:02:38 | 47.85487 | 11.87120 | 340° | 7km/h | 23452m | 6.1m/s | -52.2°C | 1.2% | 34.4hPa | 2.7V | 00:00:00 | 00:00:00 | 00:00:00 | |
| DM0DOS-11 | 2026-09-01 17:02:37 | 47.85477 | 11.87130 | 278° | 7km/h | 23412m | 5.8m/s | -52.2°C | 4% | 34.6hPa | 2.7V | 08:30:00 | 01:52:13 | 00:00:00 | |
| SONDE2-11 | 2026-09-01 17:02:37 | 47.85480 | 11.87124 | 334° | 9km/h | 23435m | 5.1m/s | -52.2°C | 1.1% | 34.5hPa | 2.6V | 00:00:00 | 00:00:00 | 00:00:00 | |
| DL6DJ-15 | 2026-09-01 17:02:36 | 47.85478 | 11.87125 | 330° | 5km/h | 23429m | 6.7m/s | -52.2°C | 1.2% | 34.5hPa | 2.6V | 00:00:00 | 00:00:00 | 00:00:00 | |
| BAUMI2-15 | 2026-09-01 17:02:35 | 47.85478 | 11.87125 | 331° | 5km/h | 23429m | 6.7m/s | -52.2°C | 4.1% | 34.5hPa | 2.6V | 00:00:00 | 01:52:16 | 00:00:00 | |
| DO3MHA-12 | 2026-09-01 17:02:34 | 47.85477 | 11.87127 | 303° | 7km/h | 23424m | 4.9m/s | -52.2°C | 4.1% | 34.5hPa | 2.6V | 00:00:00 | 01:52:15 | 00:00:00 | |
| NBG1-10 | 2026-09-01 17:02:33 | 47.85477 | 11.87128 | 285° | 11km/h | 23418m | 5.8m/s | -52.1°C | 4.1% | 34.5hPa | 2.6V | 00:00:00 | 01:52:14 | 00:00:00 | |
| OE5MMP-10 | 2026-09-01 17:02:31 | 47.85477 | 11.87133 | 266° | 7km/h | 23407m | 4.6m/s | -52.2°C | 4.1% | 34.6hPa | 2.6V | 00:00:00 | 01:52:12 | 00:00:00 | |
| BAUMI2-15 | 2026-09-01 17:02:30 | 47.85477 | 11.87136 | 250° | 7km/h | 23402m | 6.0m/s | -52.3°C | 4.1% | 34.6hPa | 2.6V | 00:00:00 | 01:52:11 | 00:00:00 | |
| PETON7-10 | 2026-09-01 17:02:28 | 47.85479 | 11.87140 | 230° | 11km/h | 23391m | 4.5m/s | -52.3°C | 4.1% | 34.7hPa | 2.7V | 00:00:00 | 00:00:00 | 00:00:00 | |
| DM0DOS-11 | 2026-09-01 17:02:27 | 47.85479 | 11.87156 | 266° | 5km/h | 23359m | 5m/s | -52.4°C | 4.1% | 34.9hPa | 2.7V | 08:30:00 | 01:52:03 | 00:00:00 | |
| OE8JPQ-2 | 2026-09-01 17:02:27 | 47.85480 | 11.87142 | 246° | 11km/h | 23385m | 5.9m/s | -52.3°C | 4.1% | 34.7hPa | 2.6V | 00:00:00 | 01:52:08 | 00:00:00 | |
| OE5WHR-10 | 2026-09-01 17:02:26 | 47.85480 | 11.87145 | 271° | 11km/h | 23380m | 5.6m/s | -52.3°C | 4.1% | 34.7hPa | 2.6V | 00:00:00 | 00:00:00 | 00:00:00 | |
| BAUMI2-15 | 2026-09-01 17:02:25 | 47.85480 | 11.87148 | 284° | 7km/h | 23375m | 4.4m/s | -52.4°C | 4.1% | 34.7hPa | 2.6V | 00:00:00 | 01:52:06 | 00:00:00 | |
| DO3MHA-12 | 2026-09-01 17:02:24 | 47.85479 | 11.87151 | 287° | 11km/h | 23370m | 4.9m/s | -52.4°C | 4.1% | 34.8hPa | 2.6V | 00:00:00 | 01:52:05 | 00:00:00 | |
| DO8TBO-1 | 2026-09-01 17:02:22 | 47.85479 | 11.87156 | 267° | 15km/h | 23359m | 5.0m/s | -52.4°C | 4.1% | 34.8hPa | 2.7V | 00:00:00 | 01:52:03 | 00:00:00 | |
| DO3MHA-11 | 2026-09-01 17:02:21 | 47.85479 | 11.87158 | 271° | 15km/h | 23353m | 5.7m/s | -52.4°C | 4.0% | 34.9hPa | 2.7V | 00:00:00 | 01:52:02 | 00:00:00 | |
| BAUMI2-15 | 2026-09-01 17:02:20 | 47.85479 | 11.87161 | 272° | 15km/h | 23348m | 5.9m/s | -52.4°C | 4.1% | 34.9hPa | 2.7V | 00:00:00 | 01:52:01 | 00:00:00 | |
| DB0UT-7 | 2026-09-01 17:02:19 | 47.85479 | 11.87165 | 256° | 15km/h | 23342m | 4.5m/s | -52.4°C | 4.1% | 34.9hPa | 2.7V | 00:00:00 | 01:52:00 | 00:00:00 | |
| DG1MFX-10 | 2026-09-01 17:02:18 | 47.85479 | 11.87165 | 257° | 11km/h | 23342m | 4.5m/s | -52.5°C | 1.2% | 35.0hPa | 2.7V | 00:00:00 | 00:00:00 | 00:00:00 | |
| DM0DOS-11 | 2026-09-01 17:02:17 | 47.85499 | 11.87194 | 204° | 15km/h | 23301m | 5.4m/s | -52.3°C | 4.1% | 35.2hPa | 2.7V | 08:30:00 | 01:51:53 | 00:00:00 | |
| OE5DRO-10 | 2026-09-01 17:02:17 | 47.85483 | 11.87173 | 225° | 16km/h | 23330m | 5.6m/s | -52.4°C | 4.1% | 35.0hPa | 2.6V | 00:00:00 | 00:00:00 | 00:00:00 | |
| BAUMI2-15 | 2026-09-01 17:02:15 | 47.85489 | 11.87182 | 226° | 16km/h | 23319m | 6.1m/s | -52.4°C | 4.1% | 35.1hPa | 2.6V | 00:00:00 | 01:51:56 | 08:30:00 | |
| DO3MHA-12 | 2026-09-01 17:02:14 | 47.85492 | 11.87187 | 224° | 13km/h | 23313m | 5.4m/s | -52.4°C | 4.1% | 35.1hPa | 2.7V | 00:00:00 | 01:51:55 | 00:00:00 | |
| PETON7-10 | 2026-09-01 17:02:13 | 47.85496 | 11.87191 | 216° | 16km/h | 23307m | 6.5m/s | -52.3°C | 4.1% | 35.1hPa | 2.7V | 00:00:00 | 00:00:00 | 00:00:00 | |
| OE5DXL-15 | 2026-09-01 17:02:12 | 47.85499 | 11.87194 | 205° | 18km/h | 23301m | 5.4m/s | -52.3°C | 4.1% | 35.2hPa | 2.7V | 00:00:00 | 00:00:00 | 00:00:00 | |
| DO3MHA-11 | 2026-09-01 17:02:11 | 47.85502 | 11.87196 | 198° | 13km/h | 23296m | 4.2m/s | -52.3°C | 4.1% | 35.2hPa | 2.6V | 00:00:00 | 01:51:52 | 00:00:00 | |
| DF3TZ-5 | 2026-09-01 17:02:10 | 47.85507 | 11.87199 | 215° | 7km/h | 23286m | 6.1m/s | -52.5°C | 1.2% | 35.3hPa | 2.6V | 00:00:00 | 00:00:00 | 00:00:00 | |
| OE8JPQ-2 | 2026-09-01 17:02:07 | 47.85510 | 11.87203 | 224° | 16km/h | 23275m | 4.6m/s | -52.4°C | 4.1% | 35.3hPa | 2.6V | 00:00:00 | 00:00:00 | 00:00:00 | |
| DM0DOS-11 | 2026-09-01 17:02:06 | 47.85533 | 11.87218 | 199° | 24km/h | 23241m | 5.4m/s | -52.4°C | 4.2% | 35.5hPa | 2.7V | 08:30:00 | 01:51:42 | 00:00:00 | |
| SONDE2-11 | 2026-09-01 17:02:06 | 47.85515 | 11.87207 | 200° | 15km/h | 23264m | 5.8m/s | -52.5°C | 1.2% | 35.4hPa | 2.7V | 00:00:00 | 00:00:00 | 00:00:00 | |
| DL6DJ-15 | 2026-09-01 17:02:05 | 47.85519 | 11.87209 | 201° | 16km/h | 23258m | 5.8m/s | -52.5°C | 1.2% | 35.4hPa | 2.7V | 00:00:00 | 00:00:00 | 00:00:00 | |
| DK5PH-5 | 2026-09-01 17:02:04 | 47.85519 | 11.87209 | 202° | 18km/h | 23258m | 5.7m/s | -52.4°C | 4.2% | 35.4hPa | 2.7V | 00:00:00 | 01:51:45 | 00:00:00 | |
| DO3MHA-11 | 2026-09-01 17:02:01 | 47.85533 | 11.87218 | 200° | 18km/h | 23241m | 5.4m/s | -52.4°C | 4.2% | 35.5hPa | 2.7V | 00:00:00 | 01:51:42 | 08:30:00 | |
| NBG1-10 | 2026-09-01 17:02:00 | 47.85539 | 11.87221 | 194° | 18km/h | 23236m | 6.4m/s | -52.4°C | 4.2% | 35.5hPa | 2.7V | 00:00:00 | 01:51:41 | 08:30:00 | |
| PETON7-10 | 2026-09-01 17:01:58 | 47.85551 | 11.87224 | 188° | 18km/h | 23224m | 6.4m/s | -52.3°C | 4.2% | 35.6hPa | 2.6V | 00:00:00 | 01:51:39 | 00:00:00 | |
| DG1MFX-10 | 2026-09-01 17:01:57 | 47.85551 | 11.87224 | 189° | 22km/h | 23224m | 6.4m/s | -52.4°C | 1.3% | 35.6hPa | 2.6V | 00:00:00 | 00:00:00 | 00:00:00 | |
| DM0DOS-11 | 2026-09-01 17:01:56 | 47.85576 | 11.87217 | 172° | 11km/h | 23184m | 4.9m/s | -52.2°C | 4.1% | 35.9hPa | 2.6V | 08:30:00 | 01:51:32 | 00:00:00 | |
| DF7PN | 2026-09-01 17:01:48 | 47.85589 | 11.87217 | 180° | 24km/h | 23167m | 5.3m/s | -52.1°C | 1.2% | 35.9hPa | 2.6V | 00:00:00 | 00:00:00 | 00:00:00 | |
| OE8JPQ-2 | 2026-09-01 17:01:47 | 47.85596 | 11.87217 | 183° | 20km/h | 23162m | 4.7m/s | -52.0°C | 4.1% | 35.9hPa | 2.6V | 00:00:00 | 00:00:00 | 00:00:00 | |
| DM0DOS-11 | 2026-09-01 17:01:46 | 47.85632 | 11.87214 | 170° | 20km/h | 23131m | 5m/s | -51.9°C | 4% | 36.1hPa | 2.6V | 08:30:00 | 01:51:22 | 00:00:00 | |
| DO3MHA-12 | 2026-09-01 17:01:44 | 47.85614 | 11.87218 | 176° | 18km/h | 23147m | 5.1m/s | -51.9°C | 4.1% | 36.0hPa | 2.7V | 00:00:00 | 01:51:25 | 00:00:00 | |
| PETON7-10 | 2026-09-01 17:01:43 | 47.85620 | 11.87217 | 173° | 18km/h | 23141m | 6.0m/s | -51.9°C | 4.1% | 36.0hPa | 2.7V | 00:00:00 | 00:00:00 | 00:00:00 | |
| OE5DXL-15 | 2026-09-01 17:01:42 | 47.85626 | 11.87215 | 170° | 18km/h | 23136m | 4.6m/s | -51.9°C | 4.0% | 36.1hPa | 2.6V | 00:00:00 | 00:00:00 | 00:00:00 | |
| DO3MHA-11 | 2026-09-01 17:01:41 | 47.85632 | 11.87214 | 171° | 16km/h | 23131m | 4.9m/s | -51.9°C | 4.0% | 36.1hPa | 2.6V | 00:00:00 | 01:51:22 | 00:00:00 | |
| DF3TZ-5 | 2026-09-01 17:01:39 | 47.85642 | 11.87210 | 153° | 9km/h | 23114m | 4.9m/s | 0°C | -1.0% | 36.2hPa | 2.6V | 00:00:00 | 00:00:00 | 00:00:00 | |
| DM0DOS-11 | 2026-09-01 17:01:36 | 47.85671 | 11.87189 | 161° | 22km/h | 23077m | 5.4m/s | -52.1°C | 4.1% | 36.4hPa | 2.6V | 08:30:00 | 01:51:12 | 00:00:00 | |
| DO3MHA-12 | 2026-09-01 17:01:34 | 47.85655 | 11.87197 | 153° | 20km/h | 23093m | 4.9m/s | -52.0°C | 4.1% | 36.3hPa | 2.7V | 00:00:00 | 01:51:15 | 00:00:00 | |
| DK5PH-5 | 2026-09-01 17:01:33 | 47.85660 | 11.87194 | 160° | 16km/h | 23088m | 5.9m/s | -52.0°C | 4.1% | 36.3hPa | 2.7V | 00:00:00 | 01:51:14 | 00:00:00 | |
| DO3MHA-11 | 2026-09-01 17:01:31 | 47.85671 | 11.87188 | 162° | 18km/h | 23078m | 5.4m/s | -52.0°C | 4.1% | 36.4hPa | 2.6V | 00:00:00 | 01:51:12 | 00:00:00 | |
| OE5REO-15 | 2026-09-01 17:01:30 | 47.85671 | 11.87188 | 162° | 22km/h | 23078m | 5.4m/s | 0°C | 0% | 0hPa | 2.6V | 00:00:00 | 00:00:00 | 00:00:00 | |
| PETON7-10 | 2026-09-01 17:01:28 | 47.85686 | 11.87180 | 167° | 16km/h | 23061m | 6.5m/s | -52.0°C | 4.1% | 36.5hPa | 2.6V | 00:00:00 | 00:00:00 | 00:00:00 | |
| NBG1-10 | 2026-09-01 17:01:27 | 47.85690 | 11.87179 | 169° | 15km/h | 23055m | 4.7m/s | -52.0°C | 4.2% | 36.5hPa | 2.6V | 00:00:00 | 01:51:08 | 00:00:00 | |
| DM7RM-13 | 2026-09-01 17:01:25 | 47.85694 | 11.87178 | 162° | 13km/h | 23051m | 3.8m/s | -52.0°C | 1.2% | 36.6hPa | 2.6V | 00:00:00 | 00:00:00 | 00:00:00 | |
| DO3MHA-12 | 2026-09-01 17:01:24 | 47.85700 | 11.87172 | 133° | 18km/h | 23040m | 5.7m/s | -51.9°C | 4.1% | 36.6hPa | 2.6V | 00:00:00 | 01:51:05 | 00:00:00 | |
| OE5WHR-10 | 2026-09-01 17:01:23 | 47.85702 | 11.87167 | 125° | 15km/h | 23035m | 4.7m/s | -51.9°C | 4.1% | 36.7hPa | 2.6V | 00:00:00 | 00:00:00 | 00:00:00 | |
| DO8TBO-1 | 2026-09-01 17:01:22 | 47.85705 | 11.87162 | 123° | 33km/h | 23029m | 5.3m/s | -51.8°C | 4.1% | 36.7hPa | 2.6V | 00:00:00 | 01:51:03 | 00:00:00 | |
| DO3MHA-11 | 2026-09-01 17:01:21 | 47.85707 | 11.87156 | 129° | 16km/h | 23024m | 5.0m/s | -51.8°C | 4.1% | 36.7hPa | 2.6V | 00:00:00 | 01:51:02 | 00:00:00 | |
| OE5DRO-10 | 2026-09-01 17:01:20 | 47.85710 | 11.87152 | 140° | 15km/h | 23020m | 4.4m/s | -51.8°C | 4.1% | 36.7hPa | 2.6V | 00:00:00 | 00:00:00 | 00:00:00 | |
| DB0UT-7 | 2026-09-01 17:01:19 | 47.85714 | 11.87148 | 145° | 13km/h | 23015m | 5.3m/s | -51.8°C | 4.0% | 36.7hPa | 2.6V | 00:00:00 | 01:51:00 | 00:00:00 | |
| OE5HKT-10 | 2026-09-01 17:01:15 | 47.85730 | 11.87127 | 129° | 11km/h | 22994m | 5.4m/s | -51.7°C | 4.1% | 36.9hPa | 2.6V | 00:00:00 | 00:00:00 | 00:00:00 | |
| DO3MHA-12 | 2026-09-01 17:01:14 | 47.85732 | 11.87123 | 125° | 11km/h | 22988m | 5.6m/s | -51.7°C | 4.1% | 36.9hPa | 2.6V | 00:00:00 | 01:50:55 | 00:00:00 | |
| PETON7-10 | 2026-09-01 17:01:13 | 47.85733 | 11.87119 | 117° | 11km/h | 22982m | 5.5m/s | -51.7°C | 4.0% | 36.9hPa | 2.6V | 00:00:00 | 01:50:54 | 00:00:00 | |
| OE5DXL-15 | 2026-09-01 17:01:12 | 47.85734 | 11.87117 | 104° | 13km/h | 22977m | 4.9m/s | -51.6°C | 4.0% | 37.0hPa | 2.6V | 00:00:00 | 00:00:00 | 00:00:00 | |
| PG1ADW-2 | 2026-09-01 17:01:11 | 47.85734 | 11.87113 | 96° | 11km/h | 22972m | 6.3m/s | -51.6°C | 4.0% | 37.0hPa | 2.6V | 00:00:00 | 01:50:52 | 00:00:00 | |
| OE8JPQ-2 | 2026-09-01 17:01:07 | 47.85736 | 11.87097 | 105° | 13km/h | 22949m | 5.5m/s | -51.5°C | 3.9% | 37.1hPa | 2.6V | 00:00:00 | 00:00:00 | 00:00:00 | |
| DG1MJG | 2026-09-01 17:01:05 | 47.85737 | 11.87093 | 112° | 13km/h | 22943m | 6.6m/s | -51.5°C | 1.1% | 37.2hPa | 2.7V | 00:00:00 | 00:00:00 | 00:00:00 | |
| SONDE2-11 | 2026-09-01 17:01:04 | 47.85742 | 11.87078 | 121° | 13km/h | 22927m | 6.5m/s | -51.5°C | 1.1% | 37.3hPa | 2.7V | 00:00:00 | 00:00:00 | 00:00:00 | |
| DK5PH-5 | 2026-09-01 17:01:03 | 47.85742 | 11.87078 | 122° | 13km/h | 22928m | 6.5m/s | -51.4°C | 3.9% | 37.2hPa | 2.7V | 00:00:00 | 01:50:44 | 00:00:00 | |
| DL6DJ-15 | 2026-09-01 17:01:02 | 47.85743 | 11.87074 | 117° | 11km/h | 22922m | 4.2m/s | -51.4°C | 1.1% | 37.3hPa | 2.7V | 00:00:00 | 00:00:00 | 00:00:00 | |
| DF7PN | 2026-09-01 17:00:46 | 47.85742 | 11.86999 | 71° | 11km/h | 22834m | 5.6m/s | -51.8°C | 1.1% | 37.9hPa | 2.7V | 00:00:00 | 00:00:00 | 00:00:00 | |
| DO3MHA-12 | 2026-09-01 17:00:44 | 47.85739 | 11.86990 | 63° | 11km/h | 22822m | 5.9m/s | -51.7°C | 4.0% | 37.9hPa | 2.7V | 00:00:00 | 01:50:25 | 00:00:00 | |
| PETON7-10 | 2026-09-01 17:00:43 | 47.85738 | 11.86986 | 64° | 13km/h | 22817m | 3.5m/s | -51.6°C | 3.9% | 37.9hPa | 2.7V | 00:00:00 | 00:00:00 | 00:00:00 | |
| OE5DXL-15 | 2026-09-01 17:00:42 | 47.85736 | 11.86981 | 67° | 13km/h | 22812m | 5.9m/s | -51.6°C | 3.9% | 37.9hPa | 2.7V | 00:00:00 | 00:00:00 | 08:30:00 | |
| OE5WHR-10 | 2026-09-01 17:00:41 | 47.85735 | 11.86977 | 74° | 13km/h | 22807m | 5.9m/s | -51.6°C | 3.9% | 37.9hPa | 2.6V | 00:00:00 | 00:00:00 | 00:00:00 | |
| DM7RM-13 | 2026-09-01 17:00:38 | 47.85735 | 11.86971 | 95° | 11km/h | 22796m | 6.6m/s | -51.6°C | 1.2% | 38.1hPa | 2.7V | 00:00:00 | 00:00:00 | 00:00:00 | |
| DJTTGO | 2026-09-01 17:00:36 | 47.85737 | 11.86959 | 110° | 9km/h | 22778m | 4.9m/s | 0°C | 0% | 0hPa | 2.7V | 00:00:00 | 00:00:00 | 00:00:00 | |
| DG1MJG | 2026-09-01 17:00:35 | 47.85737 | 11.86959 | 110° | 9km/h | 22778m | 4.9m/s | -51.8°C | 1.1% | 38.2hPa | 2.7V | 00:00:00 | 00:00:00 | 00:00:00 | |
| DO3MHA-12 | 2026-09-01 17:00:34 | 47.85737 | 11.86951 | 81° | 16km/h | 22768m | 6.3m/s | -51.9°C | 4.0% | 38.2hPa | 2.7V | 00:00:00 | 01:50:15 | 00:00:00 | |
| DK5PH-5 | 2026-09-01 17:00:33 | 47.85736 | 11.86946 | 66° | 13km/h | 22762m | 5.4m/s | -52.0°C | 4.0% | 38.2hPa | 2.7V | 00:00:00 | 01:50:14 | 00:00:00 | |
| SONDE2-11 | 2026-09-01 17:00:32 | 47.85734 | 11.86941 | 50° | 15km/h | 22756m | 6.2m/s | -52.1°C | 1.2% | 38.3hPa | 2.7V | 00:00:00 | 00:00:00 | 00:00:00 | |
| PG1ADW-2 | 2026-09-01 17:00:31 | 47.85731 | 11.86937 | 36° | 13km/h | 22750m | 5.6m/s | -52.1°C | 4.1% | 38.3hPa | 2.7V | 00:00:00 | 00:00:00 | 00:00:00 | |
| PETON7-10 | 2026-09-01 17:00:28 | 47.85719 | 11.86928 | 34° | 13km/h | 22735m | 4.3m/s | -52.1°C | 4.1% | 38.4hPa | 2.6V | 00:00:00 | 01:50:09 | 00:00:00 | |
| OE8JPQ-2 | 2026-09-01 17:00:27 | 47.85715 | 11.86924 | 34° | 13km/h | 22730m | 4.4m/s | -52.2°C | 4.1% | 38.4hPa | 2.6V | 00:00:00 | 01:50:08 | 00:00:00 | |
| OE5REO-15 | 2026-09-01 17:00:25 | 47.85712 | 11.86920 | 31° | 16km/h | 22725m | 5.3m/s | 0°C | 0% | 0hPa | 2.6V | 00:00:00 | 00:00:00 | 00:00:00 | |
| DO3MHA-12 | 2026-09-01 17:00:24 | 47.85706 | 11.86917 | 12° | 9km/h | 22714m | 4.4m/s | -52.1°C | 4.0% | 38.5hPa | 2.6V | 00:00:00 | 01:50:05 | 08:30:00 | |
| OE5DRO-10 | 2026-09-01 17:00:23 | 47.85705 | 11.86916 | 18° | 11km/h | 22709m | 5.2m/s | -52.1°C | 4.0% | 38.5hPa | 2.6V | 00:00:00 | 00:00:00 | 00:00:00 | |
| DL2OL | 2026-09-01 17:00:22 | 47.85704 | 11.86916 | 19° | 5km/h | 22709m | 5.3m/s | -52.1°C | 1.1% | 38.6hPa | 2.6V | 00:00:00 | 00:00:00 | 00:00:00 | |
| DO3MHA-11 | 2026-09-01 17:00:21 | 47.85703 | 11.86913 | 69° | 13km/h | 22698m | 4.6m/s | -52.1°C | 4.0% | 38.6hPa | 2.6V | 00:00:00 | 01:50:02 | 00:00:00 | |
| OE5WHR-10 | 2026-09-01 17:00:20 | 47.85702 | 11.86910 | 73° | 15km/h | 22693m | 4.9m/s | -52.1°C | 4.0% | 38.6hPa | 2.6V | 00:00:00 | 00:00:00 | 00:00:00 | |
| DB0UT-7 | 2026-09-01 17:00:19 | 47.85701 | 11.86908 | 67° | 15km/h | 22688m | 6.1m/s | -52.1°C | 4.0% | 38.7hPa | 2.6V | 00:00:00 | 01:50:00 | 00:00:00 | |
| IN3HCDX | 2026-09-01 17:00:18 | 47.85701 | 11.86905 | 64° | 9km/h | 22682m | 5.3m/s | -52.2°C | 1.2% | 38.7hPa | 2.7V | 00:00:00 | 00:00:00 | 00:00:00 | |
| DM7RM-13 | 2026-09-01 17:00:17 | 47.85701 | 11.86905 | 64° | 9km/h | 22682m | 5.3m/s | -52.2°C | 1.2% | 38.7hPa | 2.7V | 00:00:00 | 00:00:00 | 00:00:00 | |
| DF7PN | 2026-09-01 17:00:15 | 47.85696 | 11.86891 | 61° | 18km/h | 22665m | 4.4m/s | -52.3°C | 1.2% | 38.9hPa | 2.7V | 00:00:00 | 00:00:00 | 00:00:00 | |
| DO3MHA-12 | 2026-09-01 17:00:14 | 47.85693 | 11.86884 | 59° | 13km/h | 22660m | 5.9m/s | -52.2°C | 4.1% | 38.8hPa | 2.7V | 00:00:00 | 01:49:55 | 00:00:00 | |
| PETON7-10 | 2026-09-01 17:00:13 | 47.85691 | 11.86879 | 59° | 15km/h | 22655m | 5.0m/s | -52.2°C | 4.1% | 38.9hPa | 2.7V | 00:00:00 | 00:00:00 | 00:00:00 | |
| OE5DXL-15 | 2026-09-01 17:00:12 | 47.85690 | 11.86874 | 68° | 15km/h | 22650m | 3.7m/s | -52.2°C | 4.1% | 38.9hPa | 2.6V | 00:00:00 | 00:00:00 | 00:00:00 | |
| DO3MHA-11 | 2026-09-01 17:00:11 | 47.85689 | 11.86869 | 81° | 15km/h | 22645m | 5.7m/s | -52.2°C | 4.1% | 38.9hPa | 2.6V | 00:00:00 | 01:49:52 | 00:00:00 | |
| OE8JPQ-2 | 2026-09-01 17:00:07 | 47.85691 | 11.86851 | 110° | 15km/h | 22623m | 4.7m/s | -52.3°C | 4.2% | 39.0hPa | 2.6V | 00:00:00 | 00:00:00 | 08:30:00 | |
| DO3MHA-12 | 2026-09-01 17:00:04 | 47.85693 | 11.86837 | 106° | 18km/h | 22607m | 5.9m/s | -52.3°C | 4.2% | 39.1hPa | 2.7V | 00:00:00 | 01:49:45 | 00:00:00 | |
| DK5PH-5 | 2026-09-01 17:00:03 | 47.85695 | 11.86830 | 104° | 15km/h | 22602m | 4.6m/s | -52.3°C | 4.2% | 39.2hPa | 2.7V | 00:00:00 | 01:49:44 | 08:30:00 | |
| SONDE2-11 | 2026-09-01 17:00:01 | 47.85697 | 11.86817 | 101° | 16km/h | 22591m | 5.4m/s | -52.4°C | 1.2% | 39.3hPa | 2.6V | 00:00:00 | 00:00:00 | 00:00:00 | |
| DL6DJ-15 | 2026-09-01 17:00:00 | 47.85698 | 11.86811 | 100° | 16km/h | 22585m | 5.2m/s | -52.2°C | 1.2% | 39.3hPa | 2.6V | 00:00:00 | 00:00:00 | 00:00:00 | |
| OE5WHR-10 | 2026-09-01 16:59:59 | 47.85698 | 11.86803 | 101° | 15km/h | 22580m | 6.4m/s | -52.2°C | 4.1% | 39.3hPa | 2.6V | 00:00:00 | 01:49:40 | 00:00:00 | |
| PETON7-10 | 2026-09-01 16:59:58 | 47.85699 | 11.86796 | 100° | 15km/h | 22574m | 4.3m/s | -52.1°C | 4.1% | 39.3hPa | 2.6V | 00:00:00 | 00:00:00 | 00:00:00 | |
| DM7RM-13 | 2026-09-01 16:59:56 | 47.85700 | 11.86788 | 98° | 20km/h | 22570m | 4.8m/s | -52.1°C | 1.2% | 39.4hPa | 2.6V | 00:00:00 | 00:00:00 | 00:00:00 | |
| DO3MHA-12 | 2026-09-01 16:59:54 | 47.85700 | 11.86770 | 83° | 15km/h | 22554m | 4.1m/s | -52.1°C | 4.1% | 39.5hPa | 2.6V | 00:00:00 | 01:49:35 | 00:00:00 | |
| DG1MFX-10 | 2026-09-01 16:59:53 | 47.85700 | 11.86770 | 83° | 13km/h | 22554m | 4.2m/s | -52.2°C | 1.2% | 39.5hPa | 2.6V | 00:00:00 | 00:00:00 | 00:00:00 | |
| DO3MHA-11 | 2026-09-01 16:59:51 | 47.85699 | 11.86755 | 88° | 15km/h | 22536m | 5.8m/s | -51.9°C | 4.0% | 39.6hPa | 2.6V | 00:00:00 | 01:49:32 | 00:00:00 | |
| BAUMI2-15 | 2026-09-01 16:59:49 | 47.85699 | 11.86747 | 94° | 15km/h | 22524m | 4.4m/s | -51.8°C | 4.0% | 39.6hPa | 2.6V | 00:00:00 | 01:49:30 | 00:00:00 | |
| NBG1-10 | 2026-09-01 16:59:48 | 47.85699 | 11.86742 | 101° | 13km/h | 22520m | 5.6m/s | -51.9°C | 4.0% | 39.7hPa | 2.6V | 00:00:00 | 01:49:29 | 00:00:00 | |
| OE8JPQ-2 | 2026-09-01 16:59:47 | 47.85700 | 11.86737 | 107° | 13km/h | 22514m | 5.7m/s | -51.9°C | 4.0% | 39.7hPa | 2.6V | 00:00:00 | 00:00:00 | 00:00:00 | |
| OE5DRO-10 | 2026-09-01 16:59:45 | 47.85704 | 11.86725 | 116° | 13km/h | 22504m | 4.8m/s | -51.9°C | 4.1% | 39.8hPa | 2.6V | 00:00:00 | 00:00:00 | 00:00:00 | |
| DO3MHA-12 | 2026-09-01 16:59:44 | 47.85706 | 11.86719 | 121° | 11km/h | 22499m | 6.1m/s | -52.0°C | 4.2% | 39.8hPa | 2.6V | 00:00:00 | 01:49:25 | 00:00:00 | |
| PETON7-10 | 2026-09-01 16:59:43 | 47.85708 | 11.86714 | 126° | 11km/h | 22493m | 4.8m/s | -52.0°C | 4.1% | 39.8hPa | 2.6V | 00:00:00 | 01:49:24 | 00:00:00 | |
| OE5DXL-15 | 2026-09-01 16:59:42 | 47.85710 | 11.86710 | 124° | 15km/h | 22488m | 4.7m/s | -52.0°C | 4.1% | 39.9hPa | 2.6V | 00:00:00 | 01:49:23 | 00:00:00 | |
| DO3MHA-11 | 2026-09-01 16:59:41 | 47.85711 | 11.86706 | 117° | 11km/h | 22483m | 6.0m/s | -51.9°C | 4.0% | 39.9hPa | 2.6V | 00:00:00 | 01:49:22 | 00:00:00 | |
| BAUMI2-15 | 2026-09-01 16:59:39 | 47.85712 | 11.86697 | 90° | 9km/h | 22472m | 4.8m/s | -52.0°C | 4.0% | 40.0hPa | 2.6V | 00:00:00 | 01:49:20 | 00:00:00 | |
| OE5WHR-10 | 2026-09-01 16:59:38 | 47.85712 | 11.86693 | 75° | 13km/h | 22467m | 6.5m/s | -52.0°C | 3.9% | 40.0hPa | 2.6V | 00:00:00 | 00:00:00 | 00:00:00 | |
| DM7RM-13 | 2026-09-01 16:59:36 | 47.85711 | 11.86690 | 55° | 9km/h | 22461m | 5.2m/s | -52.1°C | 1.2% | 40.1hPa | 2.7V | 00:00:00 | 00:00:00 | 00:00:00 | |
| IN3HCDX | 2026-09-01 16:59:35 | 47.85710 | 11.86688 | 55° | 9km/h | 22455m | 5.9m/s | -52.0°C | 1.2% | 40.1hPa | 2.7V | 00:00:00 | 00:00:00 | 00:00:00 | |
| DO3MHA-12 | 2026-09-01 16:59:34 | 47.85708 | 11.86680 | 73° | 13km/h | 22445m | 4.0m/s | -51.9°C | 4.0% | 40.2hPa | 2.7V | 00:00:00 | 01:49:15 | 00:00:00 | |
| DK5PH-5 | 2026-09-01 16:59:33 | 47.85707 | 11.86677 | 77° | 16km/h | 22439m | 6.4m/s | -51.9°C | 3.9% | 40.2hPa | 2.7V | 00:00:00 | 01:49:14 | 00:00:00 | |
| DG1MFX-10 | 2026-09-01 16:59:32 | 47.85707 | 11.86677 | 78° | 9km/h | 22439m | 6.5m/s | -51.9°C | 1.2% | 40.2hPa | 2.7V | 00:00:00 | 00:00:00 | 00:00:00 | |
| DO3MHA-11 | 2026-09-01 16:59:31 | 47.85707 | 11.86669 | 97° | 13km/h | 22429m | 5.4m/s | -51.9°C | 3.9% | 40.2hPa | 2.7V | 00:00:00 | 01:49:12 | 00:00:00 | |
| OE5HKT-10 | 2026-09-01 16:59:30 | 47.85707 | 11.86664 | 98° | 16km/h | 22423m | 6.4m/s | -52.0°C | 3.9% | 40.3hPa | 2.7V | 00:00:00 | 00:00:00 | 08:30:00 | |
| BAUMI2-15 | 2026-09-01 16:59:29 | 47.85708 | 11.86659 | 95° | 13km/h | 22417m | 4.8m/s | -52.0°C | 3.8% | 40.3hPa | 2.7V | 00:00:00 | 01:49:10 | 08:30:00 | |
| PETON7-10 | 2026-09-01 16:59:28 | 47.85708 | 11.86653 | 92° | 15km/h | 22412m | 6.5m/s | -52.1°C | 3.9% | 40.3hPa | 2.6V | 00:00:00 | 00:00:00 | 00:00:00 | |
| OE8JPQ-2 | 2026-09-01 16:59:27 | 47.85708 | 11.86649 | 91° | 16km/h | 22406m | 5.0m/s | -52.1°C | 3.9% | 40.4hPa | 2.7V | 00:00:00 | 01:49:08 | 00:00:00 | |
| OE5DRO-10 | 2026-09-01 16:59:26 | 47.85708 | 11.86645 | 91° | 16km/h | 22401m | 5.2m/s | -52.2°C | 3.9% | 40.4hPa | 2.7V | 00:00:00 | 00:00:00 | 00:00:00 | |
| DO3MHA-12 | 2026-09-01 16:59:24 | 47.85708 | 11.86635 | 90° | 16km/h | 22390m | 4.6m/s | -52.3°C | 4.0% | 40.5hPa | 2.7V | 00:00:00 | 01:49:05 | 00:00:00 | |
| DL2OL | 2026-09-01 16:59:23 | 47.85708 | 11.86635 | 90° | 13km/h | 22390m | 4.6m/s | -52.4°C | 1.1% | 40.5hPa | 2.7V | 00:00:00 | 00:00:00 | 00:00:00 | |
| DO3MHA-11 | 2026-09-01 16:59:21 | 47.85708 | 11.86623 | 95° | 20km/h | 22373m | 4.2m/s | -52.5°C | 4.1% | 40.6hPa | 2.7V | 00:00:00 | 01:49:02 | 00:00:00 | |
| DB0UT-7 | 2026-09-01 16:59:19 | 47.85708 | 11.86611 | 97° | 18km/h | 22362m | 5.7m/s | -52.6°C | 4.1% | 40.7hPa | 2.7V | 00:00:00 | 01:49:00 | 00:00:00 | |
| OE5WHR-10 | 2026-09-01 16:59:17 | 47.85710 | 11.86597 | 98° | 20km/h | 22351m | 6.0m/s | -52.6°C | 4.1% | 40.8hPa | 2.7V | 00:00:00 | 00:00:00 | 00:00:00 | |
| DM7RM-13 | 2026-09-01 16:59:16 | 47.85710 | 11.86597 | 98° | 20km/h | 22351m | 6.1m/s | -52.6°C | 1.2% | 40.8hPa | 2.7V | 00:00:00 | 00:00:00 | 00:00:00 | |
| NBG1-10 | 2026-09-01 16:59:15 | 47.85710 | 11.86582 | 89° | 18km/h | 22340m | 6.1m/s | -52.6°C | 4.1% | 40.8hPa | 2.7V | 00:00:00 | 01:48:56 | 00:00:00 | |
| DO3MHA-12 | 2026-09-01 16:59:14 | 47.85710 | 11.86573 | 85° | 18km/h | 22334m | 5.2m/s | -52.6°C | 4.1% | 40.8hPa | 2.7V | 00:00:00 | 01:48:55 | 00:00:00 | |
| PETON7-10 | 2026-09-01 16:59:13 | 47.85709 | 11.86564 | 83° | 18km/h | 22329m | 5.4m/s | -52.6°C | 4.0% | 40.9hPa | 2.7V | 00:00:00 | 00:00:00 | 00:00:00 | |
| OE5DXL-15 | 2026-09-01 16:59:12 | 47.85708 | 11.86556 | 82° | 18km/h | 22323m | 6.3m/s | -52.7°C | 4.0% | 40.9hPa | 2.7V | 00:00:00 | 00:00:00 | 00:00:00 | |
| DO3MHA-11 | 2026-09-01 16:59:11 | 47.85708 | 11.86567 | 78° | 16km/h | 22317m | 5.7m/s | -52.8°C | 4.1% | 41.0hPa | 2.7V | 00:00:00 | 01:48:52 | 00:00:00 | |
| OE5HKT-10 | 2026-09-01 16:59:09 | 47.85706 | 11.86539 | 76° | 18km/h | 22306m | 6.1m/s | -53.3°C | 4.3% | 41.0hPa | 2.7V | 00:00:00 | 00:00:00 | 00:00:00 | |
| BAUMI2-15 | 2026-09-01 16:59:08 | 47.85705 | 11.86534 | 78° | 16km/h | 22300m | 5.9m/s | -53.3°C | 4.3% | 41.1hPa | 2.7V | 00:00:00 | 01:48:49 | 00:00:00 | |
| OE5DRO-10 | 2026-09-01 16:59:07 | 47.85704 | 11.86528 | 82° | 18km/h | 22295m | 4.8m/s | -53.3°C | 4.4% | 41.1hPa | 2.7V | 00:00:00 | 00:00:00 | 00:00:00 | |
| DG1MJG | 2026-09-01 16:59:04 | 47.85703 | 11.86510 | 84° | 18km/h | 22277m | 6.6m/s | -53.2°C | 1.2% | 41.3hPa | 2.7V | 00:00:00 | 00:00:00 | 00:00:00 | |
| SONDE2-11 | 2026-09-01 16:58:59 | 47.85693 | 11.86471 | 61° | 24km/h | 22249m | 6.6m/s | -53.2°C | 1.3% | 41.4hPa | 2.7V | 00:00:00 | 00:00:00 | 00:00:00 | |
| PETON7-10 | 2026-09-01 16:58:58 | 47.85690 | 11.86462 | 60° | 18km/h | 22244m | 5.0m/s | -53.1°C | 4.3% | 41.4hPa | 2.7V | 00:00:00 | 01:48:39 | 00:00:00 | |
| BAUMI2-15 | 2026-09-01 16:58:56 | 47.85682 | 11.86447 | 52° | 16km/h | 22234m | 6.2m/s | -53.0°C | 4.3% | 41.5hPa | 2.7V | 00:00:00 | 01:48:37 | 00:00:00 | |
| DO3MHA-12 | 2026-09-01 16:58:54 | 47.85676 | 11.86437 | 46° | 15km/h | 22223m | 4.6m/s | -53.0°C | 4.3% | 41.6hPa | 2.6V | 00:00:00 | 01:48:35 | 08:30:00 | |
| DO3MHA-11 | 2026-09-01 16:58:51 | 47.85671 | 11.86423 | 71° | 16km/h | 22207m | 4.6m/s | -53.0°C | 4.3% | 41.7hPa | 2.7V | 00:00:00 | 01:48:32 | 00:00:00 | |
| BAUMI2-15 | 2026-09-01 16:58:50 | 47.85669 | 11.86418 | 66° | 16km/h | 22201m | 6.5m/s | -53.0°C | 4.2% | 41.7hPa | 2.7V | 00:00:00 | 01:48:31 | 00:00:00 | |
| DB0UT-7 | 2026-09-01 16:58:49 | 47.85668 | 11.86414 | 58° | 15km/h | 22195m | 5.6m/s | -52.9°C | 4.3% | 41.8hPa | 2.7V | 00:00:00 | 00:00:00 | 00:00:00 | |
| OE5HKT-10 | 2026-09-01 16:58:48 | 47.85666 | 11.86410 | 56° | 15km/h | 22189m | 5.4m/s | -53.0°C | 4.2% | 41.8hPa | 2.7V | 00:00:00 | 01:48:29 | 00:00:00 | |
| OE8JPQ-2 | 2026-09-01 16:58:47 | 47.85664 | 11.86405 | 59° | 15km/h | 22183m | 6.8m/s | -53.0°C | 4.2% | 41.8hPa | 2.7V | 00:00:00 | 00:00:00 | 00:00:00 | |
| DK5PH-5 | 2026-09-01 16:58:44 | 47.85655 | 11.86388 | 39° | 13km/h | 22166m | 6.0m/s | -53.1°C | 4.3% | 41.9hPa | 2.7V | 00:00:00 | 01:48:25 | 00:00:00 | |
| PETON7-10 | 2026-09-01 16:58:43 | 47.85651 | 11.86384 | 32° | 15km/h | 22160m | 4.6m/s | -53.1°C | 4.3% | 42.0hPa | 2.7V | 00:00:00 | 00:00:00 | 08:30:00 | |
| OE5DXL-15 | 2026-09-01 16:58:42 | 47.85647 | 11.86380 | 34° | 13km/h | 22155m | 6.5m/s | -53.1°C | 4.3% | 42.0hPa | 2.6V | 00:00:00 | 00:00:00 | 00:00:00 | |
| DO3MHA-11 | 2026-09-01 16:58:41 | 47.85643 | 11.86377 | 34° | 15km/h | 22149m | 5.2m/s | -53.0°C | 4.3% | 42.0hPa | 2.6V | 00:00:00 | 01:48:22 | 00:00:00 | |
| BAUMI2-15 | 2026-09-01 16:58:39 | 47.85635 | 11.86371 | 17° | 16km/h | 22138m | 6.5m/s | -52.9°C | 4.2% | 42.1hPa | 2.6V | 00:00:00 | 01:48:20 | 08:30:00 | |
| OE5WHR-10 | 2026-09-01 16:58:35 | 47.85619 | 11.86367 | 21° | 11km/h | 22116m | 5.3m/s | -52.9°C | 4.2% | 42.3hPa | 2.6V | 00:00:00 | 00:00:00 | 08:30:00 | |
| DO3MHA-12 | 2026-09-01 16:58:34 | 47.85616 | 11.86365 | 22° | 11km/h | 22111m | 4.6m/s | -53.0°C | 4.2% | 42.3hPa | 2.7V | 00:00:00 | 01:48:15 | 00:00:00 | |
| IN3HCDX | 2026-09-01 16:58:33 | 47.85616 | 11.86365 | 23° | 13km/h | 22111m | 4.7m/s | -53.0°C | 1.2% | 42.3hPa | 2.7V | 00:00:00 | 00:00:00 | 00:00:00 | |
| DG1MJG | 2026-09-01 16:58:32 | 47.85613 | 11.86363 | 14° | 11km/h | 22105m | 6.6m/s | -53.0°C | 1.2% | 42.4hPa | 2.7V | 00:00:00 | 00:00:00 | 00:00:00 | |
| DO3MHA-11 | 2026-09-01 16:58:31 | 47.85608 | 11.86362 | 15° | 11km/h | 22093m | 6.5m/s | -53.0°C | 4.3% | 42.4hPa | 2.7V | 00:00:00 | 01:48:12 | 00:00:00 | |
| DG1MFX-10 | 2026-09-01 16:58:30 | 47.85608 | 11.86362 | 15° | 11km/h | 22093m | 6.5m/s | -53.0°C | 1.3% | 42.4hPa | 2.7V | 00:00:00 | 00:00:00 | 00:00:00 | |
| BAUMI2-15 | 2026-09-01 16:58:29 | 47.85602 | 11.86359 | 13° | 11km/h | 22083m | 4.5m/s | -52.9°C | 4.2% | 42.5hPa | 2.7V | 00:00:00 | 01:48:10 | 00:00:00 | |
| PETON7-10 | 2026-09-01 16:58:28 | 47.85599 | 11.86359 | 360° | 11km/h | 22077m | 6.2m/s | -52.9°C | 4.3% | 42.5hPa | 2.7V | 00:00:00 | 00:00:00 | 00:00:00 | |
| OE5HKT-10 | 2026-09-01 16:58:27 | 47.85597 | 11.86359 | 348° | 9km/h | 22071m | 5.1m/s | -52.8°C | 4.2% | 42.6hPa | 2.7V | 00:00:00 | 00:00:00 | 00:00:00 | |
| BAUMI2-15 | 2026-09-01 16:58:24 | 47.85589 | 11.86361 | 3° | 11km/h | 22055m | 4.4m/s | -52.9°C | 4.3% | 42.7hPa | 2.6V | 00:00:00 | 01:48:05 | 00:00:00 | |
| DL2OL | 2026-09-01 16:58:23 | 47.85589 | 11.86361 | 4° | 11km/h | 22055m | 4.5m/s | -52.9°C | 1.3% | 42.7hPa | 2.7V | 00:00:00 | 00:00:00 | 00:00:00 | |
| DO3MHA-11 | 2026-09-01 16:58:21 | 47.85580 | 11.86362 | 349° | 9km/h | 22039m | 4.4m/s | -52.7°C | 4.1% | 42.8hPa | 2.7V | 00:00:00 | 01:48:02 | 00:00:00 | |
| BAUMI2-15 | 2026-09-01 16:58:19 | 47.85574 | 11.86362 | 10° | 9km/h | 22028m | 5.7m/s | -52.7°C | 4.0% | 42.8hPa | 2.7V | 00:00:00 | 01:48:00 | 00:00:00 | |
| DM7RM-13 | 2026-09-01 16:58:15 | 47.85567 | 11.86359 | 13° | 7km/h | 22011m | 4.3m/s | -52.9°C | 1.2% | 43.0hPa | 2.7V | 00:00:00 | 00:00:00 | 00:00:00 | |
| DO3MHA-12 | 2026-09-01 16:58:14 | 47.85563 | 11.86357 | 29° | 7km/h | 22002m | 6.2m/s | -52.9°C | 4.3% | 43.0hPa | 2.7V | 00:00:00 | 01:47:55 | 00:00:00 | |
| DK5PH-5 | 2026-09-01 16:58:13 | 47.85561 | 11.86356 | 32° | 7km/h | 21996m | 5.2m/s | -52.9°C | 4.3% | 43.1hPa | 2.7V | 00:00:00 | 01:47:54 | 00:00:00 | |
| OE5DXL-15 | 2026-09-01 16:58:12 | 47.85559 | 11.86354 | 28° | 7km/h | 21991m | 5.1m/s | -53.0°C | 4.3% | 43.1hPa | 2.6V | 00:00:00 | 00:00:00 | 00:00:00 | |
| DO3MHA-11 | 2026-09-01 16:58:11 | 47.85557 | 11.86353 | 13° | 7km/h | 21985m | 6.4m/s | -53.1°C | 4.3% | 43.1hPa | 2.6V | 00:00:00 | 01:47:52 | 00:00:00 | |
| OE5DRO-10 | 2026-09-01 16:58:10 | 47.85555 | 11.86353 | 356° | 9km/h | 21979m | 5.0m/s | -53.2°C | 4.4% | 43.2hPa | 2.6V | 00:00:00 | 00:00:00 | 00:00:00 | |
| NBG1-10 | 2026-09-01 16:58:09 | 47.85554 | 11.86353 | 357° | 9km/h | 21974m | 4.9m/s | -53.2°C | 4.3% | 43.2hPa | 2.6V | 00:00:00 | 01:47:50 | 00:00:00 | |
| OE8JPQ-2 | 2026-09-01 16:58:07 | 47.85551 | 11.86351 | 54° | 9km/h | 21963m | 5.2m/s | -53.1°C | 4.3% | 43.3hPa | 2.6V | 00:00:00 | 00:00:00 | 00:00:00 | |
| OE5HKT-10 | 2026-09-01 16:58:06 | 47.85550 | 11.86348 | 70° | 7km/h | 21958m | 4.9m/s | -53.0°C | 4.3% | 43.3hPa | 2.6V | 00:00:00 | 00:00:00 | 00:00:00 | |
| DF1GD-15 | 2026-09-01 16:58:05 | 47.85550 | 11.86348 | 70° | 7km/h | 21958m | 5.0m/s | 0°C | 0% | 0hPa | 2.6V | 00:00:00 | 00:00:00 | 00:00:00 | |
| DO3MHA-12 | 2026-09-01 16:58:04 | 47.85549 | 11.86343 | 72° | 13km/h | 21947m | 5.0m/s | -53.0°C | 4.3% | 43.4hPa | 2.6V | 00:00:00 | 01:47:45 | 00:00:00 | |
| DG1MJG | 2026-09-01 16:58:02 | 47.85548 | 11.86341 | 66° | 9km/h | 21942m | 4.8m/s | -53.1°C | 1.3% | 43.5hPa | 2.6V | 00:00:00 | 00:00:00 | 00:00:00 | |
| DL6DJ-15 | 2026-09-01 16:57:56 | 47.85534 | 11.86313 | 52° | 15km/h | 21902m | 4.8m/s | -53.0°C | 1.2% | 43.7hPa | 2.6V | 00:00:00 | 00:00:00 | 00:00:00 | |
| DM0DOS-11 | 2026-09-01 16:57:55 | 47.85532 | 11.86309 | 48° | 11km/h | 21897m | 5.7m/s | -52.9°C | 4.2% | 43.8hPa | 2.6V | 08:30:00 | 01:47:36 | 00:00:00 | |
| DO3MHA-12 | 2026-09-01 16:57:54 | 47.85530 | 11.86306 | 40° | 4km/h | 21891m | 5.3m/s | -52.9°C | 4.2% | 43.8hPa | 2.6V | 00:00:00 | 01:47:35 | 00:00:00 | |
| OE5WHR-10 | 2026-09-01 16:57:53 | 47.85529 | 11.86306 | 22° | 9km/h | 21887m | 3.9m/s | -52.9°C | 4.2% | 43.8hPa | 2.7V | 00:00:00 | 01:47:34 | 00:00:00 | |
| IN3HCDX | 2026-09-01 16:57:51 | 47.85529 | 11.86305 | 0° | 0km/h | 21882m | 6.2m/s | -52.9°C | 1.2% | 43.9hPa | 2.7V | 00:00:00 | 00:00:00 | 00:00:00 | |
| DB0UT-7 | 2026-09-01 16:57:49 | 47.85529 | 11.86303 | 73° | 9km/h | 21865m | 5.4m/s | -53.0°C | 4.2% | 43.9hPa | 2.7V | 00:00:00 | 00:00:00 | 00:00:00 | |
| OE8JPQ-2 | 2026-09-01 16:57:47 | 47.85528 | 11.86303 | 343° | 9km/h | 21854m | 4.1m/s | -53.1°C | 4.3% | 44.0hPa | 2.7V | 00:00:00 | 00:00:00 | 00:00:00 | |
| DM0DOS-11 | 2026-09-01 16:57:45 | 47.85526 | 11.86298 | 83° | 11km/h | 21838m | 5.2m/s | -53.2°C | 4.3% | 44.2hPa | 2.7V | 08:30:00 | 01:47:25 | 00:00:00 | |
| DO3MHA-12 | 2026-09-01 16:57:44 | 47.85526 | 11.86297 | 84° | 13km/h | 21838m | 5.2m/s | -53.2°C | 4.3% | 44.1hPa | 2.6V | 00:00:00 | 01:47:25 | 00:00:00 | |
| PETON7-10 | 2026-09-01 16:57:43 | 47.85526 | 11.86294 | 90° | 11km/h | 21833m | 5.6m/s | -53.1°C | 4.3% | 44.2hPa | 2.6V | 00:00:00 | 00:00:00 | 00:00:00 | |
| OE5DXL-15 | 2026-09-01 16:57:42 | 47.85526 | 11.86290 | 99° | 9km/h | 21827m | 5.1m/s | -53.0°C | 4.2% | 44.2hPa | 2.6V | 00:00:00 | 00:00:00 | 00:00:00 | |
| DO3MHA-11 | 2026-09-01 16:57:41 | 47.85527 | 11.86285 | 108° | 13km/h | 21822m | 5.4m/s | -53.1°C | 4.2% | 44.3hPa | 2.7V | 00:00:00 | 01:47:22 | 00:00:00 | |
| DF7PN | 2026-09-01 16:57:40 | 47.85530 | 11.86275 | 115° | 16km/h | 21810m | 4.8m/s | -53.1°C | 1.2% | 44.4hPa | 2.7V | 00:00:00 | 00:00:00 | 00:00:00 | |
| DM0DOS-11 | 2026-09-01 16:57:39 | 47.85538 | 11.86253 | 108° | 7km/h | 21785m | 5.5m/s | -53.1°C | 4.2% | 44.5hPa | 2.7V | 08:30:00 | 01:47:15 | 00:00:00 | |
| DF1GD-15 | 2026-09-01 16:57:38 | 47.85530 | 11.86275 | 117° | 18km/h | 21810m | 4.8m/s | 0°C | 0% | 0hPa | 2.6V | 00:00:00 | 00:00:00 | 00:00:00 | |
| NBG1-10 | 2026-09-01 16:57:36 | 47.85536 | 11.86259 | 122° | 7km/h | 21795m | 5.3m/s | -53.1°C | 4.2% | 44.4hPa | 2.6V | 00:00:00 | 01:47:17 | 00:00:00 | |
| DO3MHA-12 | 2026-09-01 16:57:34 | 47.85538 | 11.86253 | 109° | 7km/h | 21785m | 5.4m/s | -53.1°C | 4.2% | 44.5hPa | 2.6V | 00:00:00 | 01:47:15 | 00:00:00 | |
| OE5WHR-10 | 2026-09-01 16:57:32 | 47.85539 | 11.86246 | 101° | 7km/h | 21774m | 4.7m/s | -53.1°C | 4.3% | 44.6hPa | 2.6V | 00:00:00 | 00:00:00 | 00:00:00 | |
| PG1ADW-2 | 2026-09-01 16:57:31 | 47.85539 | 11.86243 | 101° | 7km/h | 21769m | 6.3m/s | -53.2°C | 4.2% | 44.6hPa | 2.6V | 00:00:00 | 00:00:00 | 00:00:00 | |
| IN3HCDX | 2026-09-01 16:57:30 | 47.85539 | 11.86243 | 101° | 7km/h | 21769m | 6.4m/s | -53.2°C | 1.2% | 44.7hPa | 2.7V | 00:00:00 | 00:00:00 | 00:00:00 | |
| OE5REO-15 | 2026-09-01 16:57:29 | 47.85540 | 11.86241 | 106° | 4km/h | 21763m | 5.3m/s | 0°C | 0% | 0hPa | 2.7V | 00:00:00 | 00:00:00 | 00:00:00 | |
| DM0DOS-11 | 2026-09-01 16:57:28 | 47.85538 | 11.86226 | 71° | 7km/h | 21725m | 6.4m/s | -53.3°C | 4.2% | 45hPa | 2.7V | 08:30:00 | 01:47:04 | 00:00:00 | |
| PETON7-10 | 2026-09-01 16:57:28 | 47.85540 | 11.86238 | 88° | 9km/h | 21752m | 6.3m/s | -53.2°C | 4.3% | 44.7hPa | 2.7V | 00:00:00 | 01:47:09 | 00:00:00 | |
| OE8JPQ-2 | 2026-09-01 16:57:27 | 47.85540 | 11.86235 | 84° | 7km/h | 21747m | 4.2m/s | -53.2°C | 4.3% | 44.8hPa | 2.7V | 00:00:00 | 01:47:08 | 00:00:00 | |
| DL6DJ-15 | 2026-09-01 16:57:25 | 47.85539 | 11.86228 | 81° | 4km/h | 21730m | 5.2m/s | -53.3°C | 1.3% | 44.9hPa | 2.7V | 00:00:00 | 00:00:00 | 00:00:00 | |
| DO3MHA-12 | 2026-09-01 16:57:24 | 47.85539 | 11.86228 | 82° | 9km/h | 21731m | 5.1m/s | -53.2°C | 4.3% | 44.9hPa | 2.7V | 00:00:00 | 01:47:05 | 08:30:00 | |
| OE5HKT-10 | 2026-09-01 16:57:23 | 47.85538 | 11.86226 | 72° | 7km/h | 21725m | 6.3m/s | -53.2°C | 4.2% | 44.9hPa | 2.7V | 00:00:00 | 00:00:00 | 00:00:00 | |
| OE5MMP-10 | 2026-09-01 16:57:21 | 47.85536 | 11.86219 | 52° | 9km/h | 21714m | 4.8m/s | -53.3°C | 4.3% | 45.0hPa | 2.6V | 00:00:00 | 01:47:02 | 08:30:00 | |
| DM0DOS-11 | 2026-09-01 16:57:18 | 47.85519 | 11.86206 | 4° | 5km/h | 21670m | 4.6m/s | -53.3°C | 4.2% | 45.3hPa | 2.6V | 08:30:00 | 01:46:54 | 00:00:00 | |
| DB0UT-7 | 2026-09-01 16:57:18 | 47.85530 | 11.86213 | 27° | 7km/h | 21698m | 5.5m/s | -53.2°C | 4.2% | 45.1hPa | 2.6V | 00:00:00 | 01:46:59 | 08:30:00 | |
| DF1GD-15 | 2026-09-01 16:57:17 | 47.85530 | 11.86213 | 28° | 11km/h | 21698m | 5.5m/s | 0°C | 0% | 0hPa | 2.6V | 00:00:00 | 00:00:00 | 00:00:00 | |
| DO3MHA-12 | 2026-09-01 16:57:14 | 47.85520 | 11.86206 | 5° | 5km/h | 21676m | 5.3m/s | -53.2°C | 4.2% | 45.3hPa | 2.6V | 00:00:00 | 01:46:55 | 00:00:00 | |
| DK5PH-5 | 2026-09-01 16:57:13 | 47.85518 | 11.86206 | 5° | 7km/h | 21670m | 4.5m/s | -53.3°C | 4.2% | 45.3hPa | 2.6V | 00:00:00 | 01:46:54 | 00:00:00 | |
| OE5DXL-15 | 2026-09-01 16:57:12 | 47.85517 | 11.86206 | 22° | 7km/h | 21665m | 6.3m/s | -53.3°C | 4.3% | 45.3hPa | 2.6V | 00:00:00 | 00:00:00 | 00:00:00 | |
| IN3HCDX | 2026-09-01 16:57:08 | 47.85512 | 11.86203 | 4° | 5km/h | 21648m | 5.4m/s | -53.3°C | 1.3% | 45.5hPa | 2.6V | 00:00:00 | 00:00:00 | 00:00:00 | |
| OE8JPQ-2 | 2026-09-01 16:57:07 | 47.85510 | 11.86203 | 19° | 7km/h | 21638m | 6.2m/s | -53.2°C | 4.2% | 45.5hPa | 2.6V | 00:00:00 | 00:00:00 | 08:30:00 | |
| DM0DOS-11 | 2026-09-01 16:57:05 | 47.85507 | 11.86207 | 307° | 4km/h | 21601m | 5.5m/s | -53.5°C | 4.4% | 45.8hPa | 2.7V | 08:30:00 | 01:46:41 | 00:00:00 | |
| DO3MHA-12 | 2026-09-01 16:57:04 | 47.85507 | 11.86201 | 297° | 7km/h | 21622m | 6.4m/s | -53.5°C | 4.4% | 45.6hPa | 2.6V | 00:00:00 | 01:46:45 | 00:00:00 | |
| NBG1-10 | 2026-09-01 16:57:03 | 47.85507 | 11.86203 | 262° | 7km/h | 21616m | 4.8m/s | -53.5°C | 4.4% | 45.7hPa | 2.6V | 00:00:00 | 01:46:44 | 08:30:00 | |
| SONDE2-11 | 2026-09-01 16:56:56 | 47.85486 | 11.86221 | 1° | 7km/h | 21554m | 5.9m/s | -53.6°C | 1.3% | 46.2hPa | 2.6V | 00:00:00 | 00:00:00 | 00:00:00 | |
| DM0DOS-11 | 2026-09-01 16:56:55 | 47.85484 | 11.86220 | 13° | 7km/h | 21548m | 5.4m/s | -53.5°C | 4.4% | 46.2hPa | 2.6V | 08:30:00 | 01:46:31 | 00:00:00 | |
| DO3MHA-12 | 2026-09-01 16:56:54 | 47.85494 | 11.86219 | 352° | 7km/h | 21569m | 4.7m/s | -53.6°C | 4.4% | 46.0hPa | 2.7V | 00:00:00 | 01:46:35 | 00:00:00 | |
| DO3MHA-11 | 2026-09-01 16:56:51 | 47.85486 | 11.86221 | 2° | 7km/h | 21554m | 5.9m/s | -53.5°C | 4.4% | 46.1hPa | 2.6V | 00:00:00 | 01:46:32 | 00:00:00 | |
| OE5WHR-10 | 2026-09-01 16:56:50 | 47.85484 | 11.86220 | 14° | 5km/h | 21548m | 5.3m/s | -53.4°C | 4.4% | 46.2hPa | 2.6V | 00:00:00 | 01:46:31 | 00:00:00 | |
| DB0UT-7 | 2026-09-01 16:56:48 | 47.85482 | 11.86219 | 266° | 5km/h | 21538m | 6.5m/s | -53.4°C | 4.4% | 46.3hPa | 2.6V | 00:00:00 | 00:00:00 | 00:00:00 | |
| OE8JPQ-2 | 2026-09-01 16:56:47 | 47.85482 | 11.86220 | 229° | 5km/h | 21532m | 5.3m/s | -53.3°C | 4.3% | 46.3hPa | 2.6V | 00:00:00 | 00:00:00 | 00:00:00 | |
| DG1MFX-10 | 2026-09-01 16:56:46 | 47.85483 | 11.86220 | 229° | 4km/h | 21532m | 5.4m/s | -53.4°C | 1.3% | 46.3hPa | 2.6V | 00:00:00 | 00:00:00 | 00:00:00 | |
| DM0DOS-11 | 2026-09-01 16:56:45 | 47.85483 | 11.86242 | 301° | 9km/h | 21495m | 6.4m/s | -53.1°C | 4.3% | 46.6hPa | 2.6V | 08:30:00 | 01:46:21 | 00:00:00 | |
| DO3MHA-12 | 2026-09-01 16:56:44 | 47.85484 | 11.86226 | 270° | 7km/h | 21517m | 3.1m/s | -53.2°C | 4.3% | 46.4hPa | 2.7V | 00:00:00 | 01:46:25 | 00:00:00 | |
| PETON7-10 | 2026-09-01 16:56:43 | 47.85484 | 11.86230 | 268° | 5km/h | 21512m | 6.0m/s | -53.2°C | 4.3% | 46.4hPa | 2.7V | 00:00:00 | 01:46:24 | 00:00:00 | |
| OE5DXL-15 | 2026-09-01 16:56:42 | 47.85484 | 11.86234 | 268° | 7km/h | 21506m | 5.1m/s | -53.1°C | 4.3% | 46.5hPa | 2.7V | 00:00:00 | 00:00:00 | 00:00:00 | |
| DO3MHA-11 | 2026-09-01 16:56:41 | 47.85484 | 11.86238 | 280° | 5km/h | 21502m | 4.8m/s | -53.1°C | 4.3% | 46.5hPa | 2.7V | 00:00:00 | 01:46:22 | 00:00:00 | |
| DF1GD-15 | 2026-09-01 16:56:37 | 47.85480 | 11.86244 | 346° | 5km/h | 21485m | 4.8m/s | 0°C | 0% | 0hPa | 2.7V | 00:00:00 | 00:00:00 | 00:00:00 | |
| DM0DOS-11 | 2026-09-01 16:56:35 | 47.85481 | 11.86250 | 229° | 9km/h | 21442m | 6m/s | -53.1°C | 4.1% | 47hPa | 2.7V | 08:30:00 | 01:46:11 | 00:00:00 | |
| OE5DRO-10 | 2026-09-01 16:56:35 | 47.85478 | 11.86245 | 17° | 5km/h | 21470m | 5.8m/s | -53.1°C | 4.2% | 46.7hPa | 2.7V | 00:00:00 | 00:00:00 | 00:00:00 | |
| DO3MHA-12 | 2026-09-01 16:56:34 | 47.85478 | 11.86245 | 50° | 5km/h | 21465m | 5.7m/s | -53.1°C | 4.2% | 46.8hPa | 2.7V | 00:00:00 | 01:46:15 | 00:00:00 | |
| DO3MHA-11 | 2026-09-01 16:56:31 | 47.85480 | 11.86247 | 226° | 5km/h | 21448m | 5.0m/s | -53.0°C | 4.1% | 46.9hPa | 2.7V | 00:00:00 | 01:46:12 | 00:00:00 | |
| NBG1-10 | 2026-09-01 16:56:30 | 47.85481 | 11.86250 | 230° | 9km/h | 21442m | 6.0m/s | -53.0°C | 4.1% | 46.9hPa | 2.6V | 00:00:00 | 01:46:11 | 00:00:00 | |
| IN3HCDX | 2026-09-01 16:56:29 | 47.85483 | 11.86252 | 239° | 7km/h | 21437m | 5.8m/s | -53.2°C | 1.2% | 47.0hPa | 2.6V | 00:00:00 | 00:00:00 | 00:00:00 | |
| PETON7-10 | 2026-09-01 16:56:28 | 47.85484 | 11.86254 | 240° | 7km/h | 21431m | 4.1m/s | -53.1°C | 4.2% | 47.0hPa | 2.6V | 00:00:00 | 00:00:00 | 08:30:00 | |
| OE8JPQ-2 | 2026-09-01 16:56:27 | 47.85484 | 11.86256 | 230° | 9km/h | 21427m | 5.5m/s | -53.2°C | 4.2% | 47.0hPa | 2.7V | 00:00:00 | 01:46:08 | 00:00:00 | |
| DG1MFX-10 | 2026-09-01 16:56:25 | 47.85486 | 11.86258 | 221° | 7km/h | 21421m | 5.3m/s | -53.3°C | 1.3% | 47.1hPa | 2.7V | 00:00:00 | 00:00:00 | 00:00:00 | |
| DO3MHA-12 | 2026-09-01 16:56:24 | 47.85488 | 11.86261 | 229° | 7km/h | 21411m | 6.1m/s | -53.5°C | 4.3% | 47.2hPa | 2.7V | 00:00:00 | 01:46:05 | 00:00:00 | |
| DL6DJ-15 | 2026-09-01 16:56:23 | 47.85488 | 11.86261 | 140° | 0km/h | 21401m | 4.6m/s | -53.5°C | 1.3% | 47.3hPa | 2.7V | 00:00:00 | 00:00:00 | 00:00:00 | |
| DO3MHA-11 | 2026-09-01 16:56:21 | 47.85489 | 11.86260 | 161° | 11km/h | 21396m | 5.8m/s | -53.4°C | 4.3% | 47.3hPa | 2.7V | 00:00:00 | 01:46:02 | 00:00:00 | |
| OE5HKT-10 | 2026-09-01 16:56:20 | 47.85491 | 11.86260 | 168° | 11km/h | 21390m | 4.9m/s | -53.4°C | 4.3% | 47.3hPa | 2.7V | 00:00:00 | 00:00:00 | 08:30:00 | |
| DB0UT-7 | 2026-09-01 16:56:18 | 47.85496 | 11.86259 | 172° | 13km/h | 21381m | 5.9m/s | -53.4°C | 4.4% | 47.4hPa | 2.6V | 00:00:00 | 01:45:59 | 00:00:00 | |
| OE5DRO-10 | 2026-09-01 16:56:16 | 47.85502 | 11.86257 | 167° | 13km/h | 21370m | 4.9m/s | -53.4°C | 4.4% | 47.5hPa | 2.6V | 00:00:00 | 00:00:00 | 00:00:00 | |
| DO3MHA-12 | 2026-09-01 16:56:14 | 47.85509 | 11.86255 | 174° | 13km/h | 21359m | 4.8m/s | -53.5°C | 4.4% | 47.5hPa | 2.6V | 00:00:00 | 01:45:55 | 00:00:00 | |
| OE5DXL-15 | 2026-09-01 16:56:12 | 47.85516 | 11.86254 | 179° | 13km/h | 21349m | 5.4m/s | -53.5°C | 4.4% | 47.6hPa | 2.6V | 00:00:00 | 00:00:00 | 08:30:00 | |
| OE5WHR-10 | 2026-09-01 16:56:08 | 47.85527 | 11.86260 | 213° | 13km/h | 21329m | 4.8m/s | -53.5°C | 4.4% | 47.8hPa | 2.7V | 00:00:00 | 00:00:00 | 00:00:00 | |
| OE8JPQ-2 | 2026-09-01 16:56:07 | 47.85530 | 11.86262 | 218° | 13km/h | 21324m | 6.2m/s | -53.4°C | 4.3% | 47.8hPa | 2.7V | 00:00:00 | 00:00:00 | 00:00:00 | |
| DF7PN | 2026-09-01 16:56:06 | 47.85532 | 11.86265 | 215° | 7km/h | 21318m | 4.7m/s | -53.5°C | 1.3% | 47.9hPa | 2.6V | 00:00:00 | 00:00:00 | 00:00:00 | |
| DG1MFX-10 | 2026-09-01 16:56:05 | 47.85532 | 11.86265 | 217° | 9km/h | 21318m | 4.7m/s | -53.5°C | 1.4% | 47.9hPa | 2.6V | 00:00:00 | 00:00:00 | 00:00:00 | |
| DO3MHA-12 | 2026-09-01 16:56:04 | 47.85536 | 11.86267 | 180° | 13km/h | 21309m | 5.6m/s | -53.4°C | 4.4% | 47.9hPa | 2.6V | 00:00:00 | 01:45:45 | 00:00:00 | |
| SONDE2-11 | 2026-09-01 16:55:53 | 47.85565 | 11.86235 | 167° | 15km/h | 21252m | 5.5m/s | -53.3°C | -1.0% | 48.4hPa | 2.6V | 00:00:00 | 00:00:00 | 00:00:00 | |
| DL6DJ-15 | 2026-09-01 16:55:52 | 47.85573 | 11.86233 | 175° | 13km/h | 21242m | 4.6m/s | -53.3°C | 1.3% | 48.4hPa | 2.6V | 00:00:00 | 00:00:00 | 00:00:00 | |
| DO3MHA-11 | 2026-09-01 16:55:51 | 47.85573 | 11.86233 | 176° | 13km/h | 21242m | 4.5m/s | -53.3°C | 4.3% | 48.4hPa | 2.6V | 00:00:00 | 01:45:32 | 00:00:00 | |
| OE5REO-15 | 2026-09-01 16:55:50 | 47.85572 | 11.86233 | 176° | 13km/h | 21242m | 4.6m/s | 0°C | 0% | 0hPa | 2.6V | 00:00:00 | 00:00:00 | 00:00:00 | |
| DB0UT-7 | 2026-09-01 16:55:48 | 47.85579 | 11.86232 | 154° | 20km/h | 21227m | 4.7m/s | -53.3°C | 4.3% | 48.5hPa | 2.6V | 00:00:00 | 00:00:00 | 00:00:00 | |
| OE5WHR-10 | 2026-09-01 16:55:47 | 47.85580 | 11.86230 | 144° | 20km/h | 21222m | 5.4m/s | -53.3°C | 4.2% | 48.6hPa | 2.6V | 00:00:00 | 01:45:28 | 00:00:00 | |
| BAUMI2-15 | 2026-09-01 16:55:46 | 47.85582 | 11.86227 | 138° | 16km/h | 21217m | 4.5m/s | -53.2°C | 4.3% | 48.6hPa | 2.6V | 00:00:00 | 01:45:27 | 00:00:00 | |
| DG1MFX-10 | 2026-09-01 16:55:45 | 47.85582 | 11.86227 | 138° | 13km/h | 21217m | 4.6m/s | -53.3°C | 1.3% | 48.6hPa | 2.6V | 00:00:00 | 00:00:00 | 00:00:00 | |
| DO3MHA-12 | 2026-09-01 16:55:44 | 47.85587 | 11.86220 | 129° | 20km/h | 21207m | 5.1m/s | -53.3°C | 4.3% | 48.7hPa | 2.6V | 00:00:00 | 01:45:25 | 00:00:00 | |
| DK5PH-5 | 2026-09-01 16:55:43 | 47.85590 | 11.86215 | 134° | 20km/h | 21202m | 3.8m/s | -53.2°C | 4.3% | 48.7hPa | 2.6V | 00:00:00 | 01:45:24 | 00:00:00 | |
| OE5DXL-15 | 2026-09-01 16:55:42 | 47.85593 | 11.86210 | 140° | 20km/h | 21197m | 6.3m/s | -53.3°C | 4.2% | 48.7hPa | 2.6V | 00:00:00 | 00:00:00 | 00:00:00 | |
| DO3MHA-11 | 2026-09-01 16:55:41 | 47.85597 | 11.86205 | 143° | 20km/h | 21192m | 4.6m/s | -53.2°C | 4.2% | 48.8hPa | 2.6V | 00:00:00 | 01:45:22 | 00:00:00 | |
| OE5HKT-10 | 2026-09-01 16:55:38 | 47.85610 | 11.86190 | 135° | 20km/h | 21176m | 4.6m/s | -53.3°C | 4.3% | 48.9hPa | 2.6V | 00:00:00 | 01:45:19 | 00:00:00 | |
| BAUMI2-15 | 2026-09-01 16:55:36 | 47.85617 | 11.86179 | 131° | 18km/h | 21165m | 4.4m/s | -53.3°C | 4.3% | 49.0hPa | 2.6V | 00:00:00 | 01:45:17 | 00:00:00 | |
| DF7PN | 2026-09-01 16:55:35 | 47.85619 | 11.86173 | 122° | 16km/h | 21160m | 5.0m/s | -53.3°C | 1.3% | 49.1hPa | 2.6V | 00:00:00 | 00:00:00 | 00:00:00 | |
| DO3MHA-12 | 2026-09-01 16:55:34 | 47.85621 | 11.86167 | 111° | 24km/h | 21155m | 5.5m/s | -53.3°C | 4.3% | 49.1hPa | 2.6V | 00:00:00 | 01:45:15 | 00:00:00 | |
| DO3MHA-11 | 2026-09-01 16:55:31 | 47.85626 | 11.86147 | 117° | 24km/h | 21140m | 6.4m/s | -53.4°C | 4.3% | 49.2hPa | 2.6V | 00:00:00 | 01:45:12 | 00:00:00 | |
| DL2OL | 2026-09-01 16:55:30 | 47.85626 | 11.86147 | 117° | 22km/h | 21140m | 6.4m/s | -53.5°C | 1.3% | 49.2hPa | 2.6V | 00:00:00 | 00:00:00 | 00:00:00 | |
| DB0NH | 2026-09-01 16:55:29 | 47.85632 | 11.86131 | 124° | 24km/h | 21129m | 6.0m/s | -53.5°C | 4.4% | 49.3hPa | 2.6V | 00:00:00 | 01:45:10 | 00:00:00 | |
| PETON7-10 | 2026-09-01 16:55:28 | 47.85636 | 11.86123 | 129° | 20km/h | 21124m | 5.0m/s | -53.5°C | 4.4% | 49.3hPa | 2.6V | 00:00:00 | 00:00:00 | 00:00:00 | |
| OE8JPQ-2 | 2026-09-01 16:55:27 | 47.85640 | 11.86116 | 137° | 22km/h | 21118m | 5.7m/s | -53.5°C | 4.3% | 49.4hPa | 2.6V | 00:00:00 | 01:45:08 | 00:00:00 | |
| IN3HCDX | 2026-09-01 16:55:26 | 47.85646 | 11.86110 | 146° | 26km/h | 21113m | 5.4m/s | -53.5°C | 1.3% | 49.4hPa | 2.6V | 00:00:00 | 00:00:00 | 00:00:00 | |
| DG1MFX-10 | 2026-09-01 16:55:25 | 47.85646 | 11.86110 | 146° | 26km/h | 21113m | 5.4m/s | -53.5°C | 1.3% | 49.4hPa | 2.6V | 00:00:00 | 00:00:00 | 00:00:00 | |
| NBG1-10 | 2026-09-01 16:55:24 | 47.85656 | 11.86101 | 149° | 24km/h | 21103m | 5.9m/s | -53.5°C | 4.3% | 49.5hPa | 2.6V | 00:00:00 | 01:45:05 | 00:00:00 | |
| SONDE2-11 | 2026-09-01 16:55:22 | 47.85664 | 11.86092 | 133° | 18km/h | 21092m | 4.5m/s | 0°C | -1.0% | -1.0hPa | 2.7V | 00:00:00 | 00:00:00 | 00:00:00 | |
| DL6DJ-15 | 2026-09-01 16:55:21 | 47.85670 | 11.86081 | 135° | 18km/h | 21082m | 5.2m/s | -53.5°C | 1.3% | 49.7hPa | 2.7V | 00:00:00 | 00:00:00 | 00:00:00 | |
| OE5DRO-10 | 2026-09-01 16:55:19 | 47.85673 | 11.86077 | 136° | 24km/h | 21077m | 4.6m/s | -53.5°C | 4.3% | 49.7hPa | 2.7V | 00:00:00 | 00:00:00 | 00:00:00 | |
| DB0UT-7 | 2026-09-01 16:55:18 | 47.85677 | 11.86072 | 130° | 26km/h | 21072m | 5.3m/s | -53.5°C | 4.3% | 49.7hPa | 2.7V | 00:00:00 | 01:44:59 | 00:00:00 | |
| OE5HKT-10 | 2026-09-01 16:55:17 | 47.85679 | 11.86067 | 123° | 24km/h | 21066m | 5.7m/s | -53.5°C | 4.3% | 49.7hPa | 2.7V | 00:00:00 | 00:00:00 | 00:00:00 | |
| BAUMI2-15 | 2026-09-01 16:55:16 | 47.85681 | 11.86061 | 121° | 22km/h | 21062m | 3.8m/s | -53.5°C | 4.3% | 49.8hPa | 2.6V | 00:00:00 | 01:44:57 | 00:00:00 | |
| DO3MHA-12 | 2026-09-01 16:55:14 | 47.85687 | 11.86049 | 132° | 26km/h | 21051m | 5.3m/s | -53.5°C | 4.2% | 49.9hPa | 2.6V | 00:00:00 | 01:44:55 | 00:00:00 | |
| DK5PH-5 | 2026-09-01 16:55:13 | 47.85691 | 11.86042 | 132° | 27km/h | 21046m | 4.5m/s | -53.5°C | 4.3% | 49.9hPa | 2.6V | 00:00:00 | 01:44:54 | 08:30:00 | |
| OE5DXL-15 | 2026-09-01 16:55:12 | 47.85695 | 11.86035 | 129° | 27km/h | 21041m | 5.1m/s | -53.6°C | 4.3% | 49.9hPa | 2.6V | 00:00:00 | 00:00:00 | 00:00:00 | |
| DO3MHA-11 | 2026-09-01 16:55:11 | 47.85699 | 11.86027 | 122° | 26km/h | 21035m | 5.8m/s | -53.5°C | 4.2% | 50.0hPa | 2.6V | 00:00:00 | 01:44:52 | 00:00:00 | |
| OE8JPQ-2 | 2026-09-01 16:55:07 | 47.85710 | 11.85992 | 112° | 27km/h | 21014m | 4.5m/s | -53.7°C | 4.2% | 50.1hPa | 2.6V | 00:00:00 | 00:00:00 | 00:00:00 | |
| BAUMI2-15 | 2026-09-01 16:55:06 | 47.85712 | 11.85984 | 106° | 26km/h | 21009m | 5.3m/s | -53.8°C | 4.2% | 50.2hPa | 2.7V | 00:00:00 | 01:44:47 | 08:30:00 | |
| IN3HCDX | 2026-09-01 16:55:05 | 47.85713 | 11.85975 | 99° | 24km/h | 21003m | 5.6m/s | -53.9°C | 1.3% | 50.3hPa | 2.6V | 00:00:00 | 00:00:00 | 00:00:00 | |
| DO3MHA-12 | 2026-09-01 16:55:04 | 47.85714 | 11.85966 | 97° | 27km/h | 20998m | 4.9m/s | -53.8°C | 4.3% | 50.3hPa | 2.6V | 00:00:00 | 01:44:45 | 00:00:00 | |
| DO3MHA-11 | 2026-09-01 16:55:01 | 47.85718 | 11.85938 | 110° | 29km/h | 20982m | 4.3m/s | -53.9°C | 4.4% | 50.4hPa | 2.6V | 00:00:00 | 01:44:42 | 00:00:00 | |
| OE5DRO-10 | 2026-09-01 16:55:00 | 47.85720 | 11.85928 | 108° | 29km/h | 20977m | 5.4m/s | -53.9°C | 4.3% | 50.4hPa | 2.6V | 00:00:00 | 00:00:00 | 00:00:00 | |
| DB0NH | 2026-09-01 16:54:59 | 47.85722 | 11.85919 | 101° | 26km/h | 20971m | 6.0m/s | -54.0°C | 4.4% | 50.5hPa | 2.7V | 00:00:00 | 01:44:40 | 08:30:00 | |
| PETON7-10 | 2026-09-01 16:54:58 | 47.85723 | 11.85908 | 97° | 29km/h | 20966m | 4.6m/s | -54.0°C | 4.5% | 50.6hPa | 2.7V | 00:00:00 | 00:00:00 | 00:00:00 | |
| DM0DOS-11 | 2026-09-01 16:54:57 | 47.85725 | 11.85843 | 89° | 33km/h | 20933m | 6.1m/s | -54.3°C | 4.5% | 50.8hPa | 2.7V | 08:30:00 | 01:44:33 | 00:00:00 | |
| DF3TZ-5 | 2026-09-01 16:54:55 | 47.85725 | 11.85878 | 92° | 27km/h | 20950m | 5.1m/s | -54.1°C | 1.3% | 50.7hPa | 2.7V | 00:00:00 | 00:00:00 | 00:00:00 | |
| DL6DJ-15 | 2026-09-01 16:54:49 | 47.85723 | 11.85807 | 78° | 31km/h | 20919m | 5.1m/s | -54.2°C | 1.3% | 51.0hPa | 2.7V | 00:00:00 | 00:00:00 | 00:00:00 | |
| DB0UT-7 | 2026-09-01 16:54:48 | 47.85721 | 11.85796 | 77° | 24km/h | 20914m | 4.8m/s | -54.2°C | 4.4% | 51.0hPa | 2.7V | 00:00:00 | 00:00:00 | 00:00:00 | |
| OE8JPQ-2 | 2026-09-01 16:54:47 | 47.85720 | 11.85786 | 79° | 24km/h | 20909m | 5.5m/s | -54.3°C | 4.4% | 51.0hPa | 2.7V | 00:00:00 | 00:00:00 | 00:00:00 | |
| BAUMI2-15 | 2026-09-01 16:54:46 | 47.85719 | 11.85776 | 82° | 27km/h | 20904m | 4.8m/s | -54.4°C | 4.5% | 51.0hPa | 2.7V | 00:00:00 | 01:44:27 | 00:00:00 | |
| DO3MHA-12 | 2026-09-01 16:54:44 | 47.85716 | 11.85756 | 76° | 26km/h | 20894m | 5.6m/s | -54.4°C | 4.5% | 51.1hPa | 2.7V | 00:00:00 | 01:44:25 | 00:00:00 | |
| PETON7-10 | 2026-09-01 16:54:43 | 47.85714 | 11.85747 | 73° | 24km/h | 20889m | 5.3m/s | -54.3°C | 4.4% | 51.1hPa | 2.7V | 00:00:00 | 00:00:00 | 00:00:00 | |
| OE5DXL-15 | 2026-09-01 16:54:42 | 47.85712 | 11.85737 | 72° | 22km/h | 20883m | 5.5m/s | -54.3°C | 4.4% | 51.2hPa | 2.7V | 00:00:00 | 00:00:00 | 00:00:00 | |
| DO3MHA-11 | 2026-09-01 16:54:41 | 47.85710 | 11.85728 | 73° | 26km/h | 20878m | 5.6m/s | -54.4°C | 4.6% | 51.2hPa | 2.7V | 00:00:00 | 01:44:22 | 00:00:00 | |
| BAUMI2-15 | 2026-09-01 16:54:35 | 47.85692 | 11.85677 | 54° | 22km/h | 20846m | 4.4m/s | -54.2°C | 4.6% | 51.5hPa | 2.7V | 00:00:00 | 01:44:16 | 00:00:00 | |
| DO3MHA-12 | 2026-09-01 16:54:34 | 47.85688 | 11.85671 | 50° | 22km/h | 20840m | 6.5m/s | -54.2°C | 4.5% | 51.6hPa | 2.7V | 00:00:00 | 01:44:15 | 00:00:00 | |
| DF7PN | 2026-09-01 16:54:33 | 47.85684 | 11.85664 | 45° | 24km/h | 20835m | 4.6m/s | -54.2°C | 1.3% | 51.6hPa | 2.7V | 00:00:00 | 00:00:00 | 00:00:00 | |
| PG1ADW-2 | 2026-09-01 16:54:32 | 47.85677 | 11.85652 | 49° | 18km/h | 20824m | 6.0m/s | -54.2°C | 4.5% | 51.7hPa | 2.7V | 00:00:00 | 01:44:12 | 00:00:00 | |
| DO3MHA-11 | 2026-09-01 16:54:31 | 47.85677 | 11.85652 | 49° | 22km/h | 20824m | 6.0m/s | -54.2°C | 4.5% | 51.7hPa | 2.7V | 00:00:00 | 01:44:12 | 08:30:00 | |
| DB0NH | 2026-09-01 16:54:29 | 47.85672 | 11.85642 | 58° | 16km/h | 20814m | 4.7m/s | -54.2°C | 4.5% | 51.8hPa | 2.7V | 00:00:00 | 01:44:10 | 00:00:00 | |
| PETON7-10 | 2026-09-01 16:54:28 | 47.85670 | 11.85637 | 57° | 15km/h | 20809m | 5.8m/s | -54.3°C | 4.5% | 51.8hPa | 2.7V | 00:00:00 | 01:44:09 | 00:00:00 | |
| OE8JPQ-2 | 2026-09-01 16:54:27 | 47.85667 | 11.85630 | 59° | 18km/h | 20804m | 4.3m/s | -54.3°C | 4.5% | 51.9hPa | 2.7V | 00:00:00 | 01:44:08 | 00:00:00 | |
| BAUMI2-15 | 2026-09-01 16:54:25 | 47.85661 | 11.85614 | 68° | 24km/h | 20794m | 5.7m/s | -54.3°C | 4.5% | 51.9hPa | 2.7V | 00:00:00 | 01:44:06 | 00:00:00 | |
| DO3MHA-12 | 2026-09-01 16:54:24 | 47.85659 | 11.85605 | 68° | 20km/h | 20788m | 5.1m/s | -54.2°C | 4.5% | 52.0hPa | 2.7V | 00:00:00 | 01:44:05 | 08:30:00 | |
| DM0DOS-11 | 2026-09-01 16:54:23 | 47.85641 | 11.85565 | 54° | 15km/h | 20757m | 4m/s | -54.1°C | 4.6% | 52.3hPa | 2.7V | 08:30:00 | 01:43:59 | 00:00:00 | |
| OE5WHR-10 | 2026-09-01 16:54:23 | 47.85656 | 11.85597 | 63° | 15km/h | 20782m | 6.4m/s | -54.2°C | 4.5% | 52.0hPa | 2.6V | 00:00:00 | 00:00:00 | 00:00:00 | |
| OE5DRO-10 | 2026-09-01 16:54:22 | 47.85653 | 11.85589 | 55° | 15km/h | 20777m | 5.1m/s | -54.2°C | 4.6% | 52.1hPa | 2.7V | 00:00:00 | 00:00:00 | 00:00:00 | |
| DO3MHA-11 | 2026-09-01 16:54:21 | 47.85649 | 11.85582 | 51° | 16km/h | 20772m | 4.5m/s | -54.1°C | 4.5% | 52.1hPa | 2.7V | 00:00:00 | 01:44:02 | 00:00:00 | |
| BAUMI2-15 | 2026-09-01 16:54:20 | 47.85646 | 11.85575 | 51° | 16km/h | 20767m | 6.0m/s | -54.1°C | 4.5% | 52.1hPa | 2.7V | 00:00:00 | 01:44:01 | 00:00:00 | |
| AM1SDL-15 | 2026-09-01 16:54:19 | 47.85643 | 11.85570 | 54° | 15km/h | 20761m | 4.5m/s | 0°C | 0% | 0hPa | 2.7V | 00:00:00 | 01:44:00 | 00:00:00 | |
| DB0UT-7 | 2026-09-01 16:54:18 | 47.85641 | 11.85566 | 55° | 11km/h | 20757m | 3.9m/s | -54.1°C | 4.6% | 52.2hPa | 2.7V | 00:00:00 | 01:43:59 | 00:00:00 | |
| DO3MHA-12 | 2026-09-01 16:54:14 | 47.85632 | 11.85546 | 64° | 13km/h | 20736m | 6.3m/s | -54.0°C | 4.4% | 52.4hPa | 2.7V | 00:00:00 | 01:43:55 | 00:00:00 | |
| DM0DOS-11 | 2026-09-01 16:54:13 | 47.85622 | 11.85519 | 45° | 13km/h | 20703m | 6.4m/s | -53.8°C | 4.4% | 52.7hPa | 2.7V | 08:30:00 | 01:43:49 | 00:00:00 | |
| DK5PH-5 | 2026-09-01 16:54:13 | 47.85630 | 11.85541 | 75° | 9km/h | 20730m | 4.9m/s | -53.9°C | 4.4% | 52.4hPa | 2.6V | 00:00:00 | 01:43:54 | 00:00:00 | |
| OE5DXL-15 | 2026-09-01 16:54:12 | 47.85630 | 11.85537 | 75° | 9km/h | 20725m | 4.7m/s | -53.9°C | 4.3% | 52.5hPa | 2.6V | 00:00:00 | 00:00:00 | 00:00:00 | |
| OE5MMP-10 | 2026-09-01 16:54:11 | 47.85628 | 11.85532 | 68° | 13km/h | 20720m | 6.2m/s | -53.9°C | 4.4% | 52.5hPa | 2.6V | 00:00:00 | 01:43:52 | 00:00:00 | |
| DH7VM-15 | 2026-09-01 16:54:09 | 47.85627 | 11.85527 | 57° | 15km/h | 20714m | 4.6m/s | 0°C | 0% | 52.6hPa | 2.6V | 00:00:00 | 00:00:00 | 00:00:00 | |
| BAUMI2-15 | 2026-09-01 16:54:07 | 47.85620 | 11.85516 | 41° | 9km/h | 20698m | 4.5m/s | -53.7°C | 4.3% | 52.7hPa | 2.6V | 00:00:00 | 01:43:48 | 00:00:00 | |
| PETON7-10 | 2026-09-01 16:54:05 | 47.85615 | 11.85511 | 34° | 7km/h | 20688m | 6.1m/s | -53.8°C | 4.4% | 52.7hPa | 2.6V | 00:00:00 | 00:00:00 | 08:30:00 | |
| DO3MHA-12 | 2026-09-01 16:54:04 | 47.85613 | 11.85508 | 33° | 7km/h | 20683m | 4.7m/s | -53.7°C | 4.3% | 52.8hPa | 2.6V | 00:00:00 | 01:43:45 | 00:00:00 | |
| DM0DOS-11 | 2026-09-01 16:54:03 | 47.85605 | 11.85498 | 67° | 5km/h | 20650m | 5.5m/s | -53.7°C | 4.2% | 53.1hPa | 2.6V | 08:30:00 | 01:43:39 | 00:00:00 | |
| OE5DRO-10 | 2026-09-01 16:54:03 | 47.85610 | 11.85506 | 32° | 7km/h | 20678m | 4.8m/s | -53.7°C | 4.2% | 52.9hPa | 2.6V | 00:00:00 | 00:00:00 | 00:00:00 | |
| OE5MMP-10 | 2026-09-01 16:54:01 | 47.85607 | 11.85503 | 46° | 5km/h | 20667m | 4.9m/s | -53.6°C | 4.2% | 53.0hPa | 2.6V | 00:00:00 | 01:43:42 | 00:00:00 | |
| DB0NH | 2026-09-01 16:53:59 | 47.85606 | 11.85500 | 58° | 29km/h | 20655m | 5.1m/s | -53.6°C | 4.2% | 53.1hPa | 2.6V | 00:00:00 | 01:43:40 | 00:00:00 | |
| AM1SDL-15 | 2026-09-01 16:53:55 | 47.85605 | 11.85493 | 76° | 7km/h | 20634m | 5.8m/s | 0°C | 0% | 0hPa | 2.6V | 00:00:00 | 01:43:36 | 00:00:00 | |
| DO3MHA-12 | 2026-09-01 16:53:54 | 47.85604 | 11.85490 | 67° | 7km/h | 20628m | 5.3m/s | -54.0°C | 4.3% | 53.3hPa | 2.6V | 00:00:00 | 01:43:35 | 00:00:00 | |
| DM0DOS-11 | 2026-09-01 16:53:53 | 47.85602 | 11.85472 | 88° | 7km/h | 20597m | 3.9m/s | -54.8°C | 4.7% | 53.6hPa | 2.6V | 08:30:00 | 01:43:29 | 00:00:00 | |
| OE5HKT-10 | 2026-09-01 16:53:53 | 47.85603 | 11.85487 | 69° | 9km/h | 20623m | 4.7m/s | 0°C | 0% | 0hPa | 2.7V | 00:00:00 | 00:00:00 | 00:00:00 | |
| DO3MHA-11 | 2026-09-01 16:53:51 | 47.85602 | 11.85482 | 86° | 7km/h | 20612m | 4.8m/s | -54.3°C | 4.4% | 53.4hPa | 2.7V | 00:00:00 | 01:43:32 | 00:00:00 | |
| PETON7-10 | 2026-09-01 16:53:50 | 47.85602 | 11.85479 | 91° | 7km/h | 20607m | 4.5m/s | -54.5°C | 4.5% | 53.4hPa | 2.7V | 00:00:00 | 00:00:00 | 00:00:00 | |
| DB0UT-7 | 2026-09-01 16:53:48 | 47.85602 | 11.85473 | 89° | 9km/h | 20597m | 3.9m/s | -54.7°C | 4.7% | 53.5hPa | 2.7V | 00:00:00 | 00:00:00 | 00:00:00 | |
| OE8JPQ-2 | 2026-09-01 16:53:47 | 47.85602 | 11.85470 | 113° | 9km/h | 20593m | 3.9m/s | -54.7°C | 4.7% | 53.6hPa | 2.7V | 00:00:00 | 00:00:00 | 00:00:00 | |
| NBG1-10 | 2026-09-01 16:53:45 | 47.85604 | 11.85468 | 183° | 9km/h | 20583m | 5.5m/s | -54.7°C | 4.8% | 53.7hPa | 2.7V | 00:00:00 | 01:43:26 | 00:00:00 | |
| DO3MHA-12 | 2026-09-01 16:53:44 | 47.85606 | 11.85468 | 195° | 9km/h | 20576m | 6.8m/s | -54.6°C | 4.8% | 53.7hPa | 2.6V | 00:00:00 | 01:43:25 | 00:00:00 | |
| DM0DOS-11 | 2026-09-01 16:53:43 | 47.85617 | 11.85474 | 210° | 9km/h | 20542m | 6.7m/s | -54.3°C | 4.6% | 54.1hPa | 2.6V | 08:30:00 | 01:43:19 | 00:00:00 | |
| DK5PH-5 | 2026-09-01 16:53:43 | 47.85607 | 11.85469 | 196° | 9km/h | 20571m | 5.4m/s | -54.5°C | 4.7% | 53.8hPa | 2.6V | 00:00:00 | 01:43:24 | 00:00:00 | |
| DM7RM-13 | 2026-09-01 16:53:42 | 47.85608 | 11.85469 | 192° | 5km/h | 20566m | 4.6m/s | -54.6°C | 0% | 0hPa | 2.7V | 00:00:00 | 00:00:00 | 00:00:00 | |
| DO3MHA-11 | 2026-09-01 16:53:41 | 47.85610 | 11.85469 | 195° | 11km/h | 20560m | 6.1m/s | -54.6°C | 4.8% | 53.8hPa | 2.7V | 00:00:00 | 01:43:22 | 00:00:00 | |
| DG1MJG | 2026-09-01 16:53:35 | 47.85621 | 11.85477 | 208° | 11km/h | 20531m | 6.0m/s | -54.2°C | 1.4% | 54.1hPa | 2.7V | 00:00:00 | 00:00:00 | 00:00:00 | |
| PETON7-10 | 2026-09-01 16:53:34 | 47.85627 | 11.85480 | 192° | 9km/h | 20520m | 5.0m/s | -54.1°C | 4.5% | 54.2hPa | 2.7V | 00:00:00 | 01:43:15 | 00:00:00 | |
| DM0DOS-11 | 2026-09-01 16:53:33 | 47.85641 | 11.85476 | 151° | 7km/h | 20485m | 6.5m/s | -53.8°C | 4.4% | 54.5hPa | 2.7V | 08:30:00 | 01:43:09 | 00:00:00 | |
| DO3MHA-11 | 2026-09-01 16:53:31 | 47.85634 | 11.85480 | 165° | 9km/h | 20503m | 6.7m/s | -54.0°C | 4.4% | 54.3hPa | 2.6V | 00:00:00 | 01:43:12 | 00:00:00 | |
| OE8JPQ-2 | 2026-09-01 16:53:27 | 47.85643 | 11.85475 | 164° | 7km/h | 20480m | 4.5m/s | 0°C | 0% | 0hPa | 2.6V | 00:00:00 | 01:43:08 | 00:00:00 | |
| OE5DRO-10 | 2026-09-01 16:53:25 | 47.85646 | 11.85475 | 199° | 7km/h | 20468m | 5.1m/s | -53.7°C | 4.4% | 54.6hPa | 2.6V | 00:00:00 | 00:00:00 | 00:00:00 | |
| DM0DOS-11 | 2026-09-01 16:53:24 | 47.85664 | 11.85480 | 165° | 9km/h | 20430m | 6.8m/s | -53.4°C | 4.3% | 55hPa | 2.6V | 08:30:00 | 01:42:59 | 00:00:00 | |
| DO3MHA-12 | 2026-09-01 16:53:24 | 47.85649 | 11.85476 | 203° | 9km/h | 20463m | 5.5m/s | -53.7°C | 4.4% | 54.7hPa | 2.6V | 00:00:00 | 01:43:05 | 00:00:00 | |
| DF3TZ-5 | 2026-09-01 16:53:22 | 47.85653 | 11.85478 | 196° | 7km/h | 20452m | 4.4m/s | -53.6°C | 1.3% | 54.8hPa | 2.6V | 00:00:00 | 00:00:00 | 00:00:00 | |
| DO3MHA-11 | 2026-09-01 16:53:21 | 47.85655 | 11.85479 | 194° | 9km/h | 20447m | 6.3m/s | -53.5°C | 4.4% | 54.8hPa | 2.6V | 00:00:00 | 01:43:02 | 00:00:00 | |
| OE5WHR-10 | 2026-09-01 16:53:20 | 47.85658 | 11.85480 | 189° | 7km/h | 20441m | 4.9m/s | -53.4°C | 4.4% | 54.9hPa | 2.6V | 00:00:00 | 00:00:00 | 00:00:00 | |
| PETON7-10 | 2026-09-01 16:53:19 | 47.85661 | 11.85480 | 180° | 5km/h | 20436m | 5.2m/s | -53.4°C | 4.3% | 54.9hPa | 2.6V | 00:00:00 | 00:00:00 | 00:00:00 | |
| DB0UT-7 | 2026-09-01 16:53:18 | 47.85664 | 11.85480 | 166° | 9km/h | 20430m | 6.8m/s | -53.4°C | 4.3% | 55.0hPa | 2.6V | 00:00:00 | 01:42:59 | 00:00:00 | |
| DL6DJ-15 | 2026-09-01 16:53:16 | 47.85667 | 11.85477 | 128° | 7km/h | 20419m | 4.6m/s | -53.4°C | 1.3% | 55.1hPa | 2.6V | 00:00:00 | 00:00:00 | 00:00:00 | |
| DO3MHA-12 | 2026-09-01 16:53:14 | 47.85670 | 11.85473 | 149° | 5km/h | 20408m | 5.1m/s | -53.3°C | 4.2% | 55.1hPa | 2.6V | 00:00:00 | 01:42:55 | 00:00:00 | |
| DM0DOS-11 | 2026-09-01 16:53:13 | 47.85677 | 11.85472 | 216° | 7km/h | 20375m | 4.6m/s | -53.5°C | 4.1% | 55.5hPa | 2.6V | 08:30:00 | 01:42:49 | 00:00:00 | |
| OE5DXL-15 | 2026-09-01 16:53:12 | 47.85673 | 11.85470 | 152° | 11km/h | 20398m | 6.0m/s | -53.4°C | 4.2% | 55.2hPa | 2.6V | 00:00:00 | 00:00:00 | 00:00:00 | |
| DO3MHA-11 | 2026-09-01 16:53:11 | 47.85674 | 11.85469 | 151° | 5km/h | 20392m | 5.6m/s | -53.4°C | 4.2% | 55.3hPa | 2.7V | 00:00:00 | 01:42:52 | 00:00:00 | |
| OE5HKT-10 | 2026-09-01 16:53:08 | 47.85677 | 11.85471 | 217° | 11km/h | 20376m | 4.5m/s | 0°C | 0% | 0hPa | 2.7V | 00:00:00 | 00:00:00 | 00:00:00 | |
| AM1SDL-15 | 2026-09-01 16:53:07 | 47.85678 | 11.85473 | 217° | 7km/h | 20371m | 5.2m/s | 0°C | 0% | 0hPa | 2.7V | 00:00:00 | 01:42:48 | 00:00:00 | |
| OE5DRO-10 | 2026-09-01 16:53:06 | 47.85680 | 11.85474 | 208° | 11km/h | 20365m | 5.7m/s | -53.5°C | 4.2% | 55.5hPa | 2.7V | 00:00:00 | 00:00:00 | 08:30:00 | |
| OE8JPQ-2 | 2026-09-01 16:53:05 | 47.85680 | 11.85475 | 186° | 11km/h | 20360m | 5.2m/s | 0°C | 0% | 0hPa | 2.6V | 00:00:00 | 00:00:00 | 00:00:00 | |
| DO3MHA-12 | 2026-09-01 16:53:04 | 47.85682 | 11.85475 | 178° | 9km/h | 20354m | 6.7m/s | -53.6°C | 4.3% | 55.6hPa | 2.6V | 00:00:00 | 01:42:45 | 00:00:00 | |
| DM0DOS-11 | 2026-09-01 16:53:03 | 47.85690 | 11.85458 | 117° | 11km/h | 20321m | 6.3m/s | -53.8°C | 4.2% | 55.9hPa | 2.6V | 08:30:00 | 01:42:39 | 00:00:00 | |
| DF7PN | 2026-09-01 16:53:00 | 47.85688 | 11.85466 | 108° | 11km/h | 20332m | 5.0m/s | -53.8°C | 1.3% | 55.8hPa | 2.7V | 00:00:00 | 00:00:00 | 00:00:00 | |
| OE5WHR-10 | 2026-09-01 16:52:59 | 47.85689 | 11.85462 | 111° | 15km/h | 20327m | 5.2m/s | -53.7°C | 4.2% | 55.8hPa | 2.7V | 00:00:00 | 00:00:00 | 00:00:00 | |
| AM1SDL-15 | 2026-09-01 16:52:55 | 47.85693 | 11.85448 | 105° | 20km/h | 20304m | 4.4m/s | 0°C | 0% | 0hPa | 2.7V | 00:00:00 | 01:42:36 | 00:00:00 | |
| DO3MHA-12 | 2026-09-01 16:52:54 | 47.85694 | 11.85445 | 112° | 15km/h | 20300m | 4.6m/s | -53.8°C | 4.3% | 56.1hPa | 2.7V | 00:00:00 | 01:42:35 | 08:30:00 | |
| PG1ADW-2 | 2026-09-01 16:52:52 | 47.85697 | 11.85435 | 113° | 20km/h | 20285m | 5.2m/s | -54.0°C | 4.4% | 56.2hPa | 2.7V | 00:00:00 | 00:00:00 | 00:00:00 | |
| DO3MHA-11 | 2026-09-01 16:52:51 | 47.85697 | 11.85435 | 113° | 16km/h | 20285m | 5.2m/s | -54.0°C | 4.4% | 56.2hPa | 2.7V | 00:00:00 | 01:42:32 | 00:00:00 | |
| DB0UT-7 | 2026-09-01 16:52:48 | 47.85699 | 11.85419 | 99° | 22km/h | 20270m | 5.7m/s | -54.2°C | 4.4% | 56.3hPa | 2.7V | 00:00:00 | 00:00:00 | 08:30:00 | |
| PETON7-10 | 2026-09-01 16:52:47 | 47.85700 | 11.85412 | 103° | 20km/h | 20264m | 5.0m/s | -54.3°C | 4.4% | 56.4hPa | 2.7V | 00:00:00 | 01:42:28 | 00:00:00 | |
| OE8JPQ-2 | 2026-09-01 16:52:45 | 47.85702 | 11.85399 | 99° | 22km/h | 20253m | 6.3m/s | 0°C | 0% | 0hPa | 2.7V | 00:00:00 | 00:00:00 | 00:00:00 | |
| DO3MHA-12 | 2026-09-01 16:52:44 | 47.85703 | 11.85392 | 96° | 18km/h | 20248m | 4.4m/s | -54.6°C | 4.6% | 56.5hPa | 2.7V | 00:00:00 | 01:42:25 | 00:00:00 | |
| DK5PH-5 | 2026-09-01 16:52:43 | 47.85703 | 11.85385 | 98° | 24km/h | 20243m | 4.2m/s | -54.6°C | 4.6% | 56.6hPa | 2.7V | 00:00:00 | 01:42:24 | 00:00:00 | |
| OE5DXL-15 | 2026-09-01 16:52:42 | 47.85704 | 11.85378 | 102° | 24km/h | 20238m | 5.6m/s | -54.6°C | 4.6% | 56.6hPa | 2.7V | 00:00:00 | 00:00:00 | 00:00:00 | |
| OE5MMP-10 | 2026-09-01 16:52:41 | 47.85705 | 11.85373 | 101° | 22km/h | 20233m | 4.0m/s | -54.6°C | 4.6% | 56.6hPa | 2.7V | 00:00:00 | 01:42:22 | 00:00:00 | |
| DM7RM-13 | 2026-09-01 16:52:40 | 47.85704 | 11.85373 | 102° | 13km/h | 20233m | 4.0m/s | 0°C | 0% | 0hPa | 2.7V | 00:00:00 | 00:00:00 | 00:00:00 | |
| NBG1-10 | 2026-09-01 16:52:39 | 47.85704 | 11.85363 | 81° | 24km/h | 20224m | 5.4m/s | -54.5°C | 4.5% | 56.8hPa | 2.7V | 00:00:00 | 01:42:20 | 00:00:00 | |
| OE5WHR-10 | 2026-09-01 16:52:38 | 47.85704 | 11.85356 | 80° | 26km/h | 20219m | 4.5m/s | -54.6°C | 4.6% | 56.8hPa | 2.7V | 00:00:00 | 01:42:19 | 00:00:00 | |
| DO3MHA-12 | 2026-09-01 16:52:34 | 47.85703 | 11.85319 | 95° | 27km/h | 20199m | 4.7m/s | -54.5°C | 4.4% | 57.0hPa | 2.7V | 00:00:00 | 01:42:15 | 00:00:00 | |
| DL2OL | 2026-09-01 16:52:33 | 47.85703 | 11.85319 | 95° | 27km/h | 20199m | 4.7m/s | -54.5°C | 1.3% | 57.0hPa | 2.7V | 00:00:00 | 00:00:00 | 00:00:00 | |
| PETON7-10 | 2026-09-01 16:52:32 | 47.85704 | 11.85298 | 92° | 26km/h | 20189m | 4.2m/s | -54.4°C | 4.4% | 57.0hPa | 2.7V | 00:00:00 | 00:00:00 | 00:00:00 | |
| DO3MHA-11 | 2026-09-01 16:52:31 | 47.85704 | 11.85287 | 96° | 27km/h | 20184m | 6.0m/s | -54.4°C | 4.4% | 57.1hPa | 2.7V | 00:00:00 | 01:42:12 | 00:00:00 | |
| DF7PN | 2026-09-01 16:52:29 | 47.85706 | 11.85266 | 93° | 26km/h | 20173m | 4.3m/s | -54.4°C | 1.3% | 57.2hPa | 2.7V | 00:00:00 | 00:00:00 | 00:00:00 | |
| OE5DRO-10 | 2026-09-01 16:52:28 | 47.85706 | 11.85257 | 87° | 24km/h | 20168m | 5.7m/s | -54.4°C | 4.4% | 57.2hPa | 2.7V | 00:00:00 | 00:00:00 | 00:00:00 | |
| OE8JPQ-2 | 2026-09-01 16:52:25 | 47.85703 | 11.85229 | 81° | 22km/h | 20154m | 4.9m/s | 0°C | 0% | 0hPa | 2.7V | 00:00:00 | 01:42:06 | 00:00:00 | |
| DO3MHA-12 | 2026-09-01 16:52:24 | 47.85702 | 11.85219 | 81° | 24km/h | 20149m | 4.5m/s | -54.4°C | 4.4% | 57.4hPa | 2.7V | 00:00:00 | 01:42:05 | 00:00:00 | |
| OE5MMP-10 | 2026-09-01 16:52:22 | 47.85697 | 11.85190 | 76° | 22km/h | 20135m | 4.2m/s | -54.4°C | 4.4% | 57.5hPa | 2.6V | 00:00:00 | 01:42:02 | 00:00:00 | |
| DO3MHA-11 | 2026-09-01 16:52:21 | 47.85697 | 11.85190 | 76° | 22km/h | 20135m | 4.2m/s | -54.4°C | 4.4% | 57.5hPa | 2.7V | 00:00:00 | 01:42:02 | 00:00:00 | |
| DF3TZ-5 | 2026-09-01 16:52:20 | 47.85696 | 11.85182 | 83° | 20km/h | 20130m | 5.4m/s | -54.4°C | 1.3% | 57.6hPa | 2.7V | 00:00:00 | 00:00:00 | 00:00:00 | |
| DB0UT-7 | 2026-09-01 16:52:18 | 47.85696 | 11.85167 | 100° | 16km/h | 20121m | 4.5m/s | -54.5°C | 4.4% | 57.7hPa | 2.7V | 00:00:00 | 01:41:59 | 00:00:00 | |
| PETON7-10 | 2026-09-01 16:52:17 | 47.85697 | 11.85159 | 100° | 18km/h | 20115m | 5.8m/s | -54.7°C | 4.5% | 57.7hPa | 2.7V | 00:00:00 | 00:00:00 | 00:00:00 | |
| DO3MHA-12 | 2026-09-01 16:52:14 | 47.85699 | 11.85134 | 98° | 20km/h | 20099m | 5.4m/s | -54.9°C | 4.6% | 57.8hPa | 2.7V | 00:00:00 | 01:41:55 | 00:00:00 | |
| DK5PH-5 | 2026-09-01 16:52:13 | 47.85700 | 11.85125 | 99° | 15km/h | 20094m | 5.2m/s | -54.9°C | 4.6% | 57.9hPa | 2.7V | 00:00:00 | 01:41:54 | 00:00:00 | |
| OE5DXL-15 | 2026-09-01 16:52:12 | 47.85700 | 11.85116 | 94° | 15km/h | 20089m | 4.3m/s | -55.0°C | 4.6% | 58.0hPa | 2.7V | 00:00:00 | 00:00:00 | 00:00:00 | |
| DO3MHA-11 | 2026-09-01 16:52:11 | 47.85700 | 11.85107 | 86° | 16km/h | 20084m | 6.0m/s | -54.9°C | 4.6% | 58.0hPa | 2.7V | 00:00:00 | 01:41:52 | 00:00:00 | |
| OE5DRO-10 | 2026-09-01 16:52:09 | 47.85698 | 11.85091 | 76° | 13km/h | 20073m | 6.0m/s | -54.9°C | 4.6% | 58.1hPa | 2.7V | 00:00:00 | 00:00:00 | 00:00:00 | |
| DL2OL | 2026-09-01 16:52:07 | 47.85697 | 11.85084 | 77° | 16km/h | 20067m | 5.2m/s | -54.9°C | 1.4% | 58.2hPa | 2.6V | 00:00:00 | 00:00:00 | 00:00:00 | |
| NBG1-10 | 2026-09-01 16:52:06 | 47.85695 | 11.85074 | 65° | 15km/h | 20057m | 5.8m/s | -54.9°C | 4.6% | 58.2hPa | 2.6V | 00:00:00 | 01:41:47 | 08:30:00 | |
| DO3MHA-12 | 2026-09-01 16:52:04 | 47.85692 | 11.85065 | 68° | 11km/h | 20046m | 4.4m/s | -54.9°C | 4.6% | 58.3hPa | 2.6V | 00:00:00 | 01:41:45 | 00:00:00 | |
| DF7PN | 2026-09-01 16:51:58 | 47.85689 | 11.85040 | 69° | 11km/h | 20017m | 5.2m/s | -54.9°C | 1.3% | 58.6hPa | 2.6V | 00:00:00 | 00:00:00 | 00:00:00 | |
| OE5WHR-10 | 2026-09-01 16:51:56 | 47.85687 | 11.85032 | 70° | 16km/h | 20006m | 3.8m/s | -54.8°C | 4.5% | 58.7hPa | 2.6V | 00:00:00 | 00:00:00 | 00:00:00 | |
| DO3MHA-12 | 2026-09-01 16:51:54 | 47.85684 | 11.85025 | 51° | 15km/h | 19996m | 5.8m/s | -54.7°C | 4.6% | 58.8hPa | 2.6V | 00:00:00 | 01:41:35 | 00:00:00 | |
| DO3MHA-11 | 2026-09-01 16:51:51 | 47.85679 | 11.85012 | 79° | 16km/h | 19979m | 4.5m/s | -54.6°C | 4.6% | 59.0hPa | 2.7V | 00:00:00 | 01:41:32 | 00:00:00 | |
| OE5DRO-10 | 2026-09-01 16:51:50 | 47.85679 | 11.85006 | 81° | 18km/h | 19974m | 4.2m/s | -54.7°C | 4.6% | 59.0hPa | 2.7V | 00:00:00 | 00:00:00 | 00:00:00 | |
| BAUMI2-15 | 2026-09-01 16:51:49 | 47.85678 | 11.85000 | 78° | 16km/h | 19969m | 6.0m/s | -54.7°C | 4.6% | 59.0hPa | 2.7V | 00:00:00 | 01:41:30 | 00:00:00 | |
| DL2OL | 2026-09-01 16:51:48 | 47.85676 | 11.84987 | 83° | 16km/h | 19959m | 5.8m/s | -54.8°C | 1.4% | 59.2hPa | 2.7V | 00:00:00 | 00:00:00 | 00:00:00 | |
| PETON7-10 | 2026-09-01 16:51:46 | 47.85675 | 11.84982 | 85° | 18km/h | 19953m | 4.8m/s | -54.7°C | 4.6% | 59.2hPa | 2.7V | 00:00:00 | 00:00:00 | 08:30:00 | |
| DO3MHA-12 | 2026-09-01 16:51:44 | 47.85674 | 11.84970 | 71° | 18km/h | 19943m | 6.3m/s | -54.7°C | 4.7% | 59.3hPa | 2.7V | 00:00:00 | 01:41:25 | 00:00:00 | |
| DK5PH-5 | 2026-09-01 16:51:43 | 47.85672 | 11.84964 | 69° | 18km/h | 19937m | 4.9m/s | -54.7°C | 4.6% | 59.3hPa | 2.7V | 00:00:00 | 01:41:24 | 00:00:00 | |
| OE5DXL-15 | 2026-09-01 16:51:42 | 47.85671 | 11.84958 | 70° | 18km/h | 19931m | 6.5m/s | 0°C | 0% | 0hPa | 2.7V | 00:00:00 | 00:00:00 | 08:30:00 | |
| DO3MHA-11 | 2026-09-01 16:51:41 | 47.85669 | 11.84953 | 68° | 18km/h | 19926m | 4.2m/s | -54.6°C | 4.6% | 59.4hPa | 2.6V | 00:00:00 | 01:41:22 | 00:00:00 | |
| BAUMI2-15 | 2026-09-01 16:51:39 | 47.85665 | 11.84940 | 62° | 18km/h | 19915m | 5.2m/s | -54.5°C | 4.6% | 59.5hPa | 2.6V | 00:00:00 | 01:41:20 | 00:00:00 | |
| OE5WHR-10 | 2026-09-01 16:51:35 | 47.85658 | 11.84915 | 73° | 18km/h | 19895m | 4.7m/s | -54.4°C | 4.6% | 59.7hPa | 2.7V | 00:00:00 | 01:41:16 | 00:00:00 | |
| DO3MHA-12 | 2026-09-01 16:51:34 | 47.85656 | 11.84908 | 70° | 20km/h | 19889m | 6.2m/s | -54.4°C | 4.7% | 59.7hPa | 2.7V | 00:00:00 | 01:41:15 | 00:00:00 | |
| NBG1-10 | 2026-09-01 16:51:33 | 47.85655 | 11.84901 | 73° | 16km/h | 19884m | 4.5m/s | -54.3°C | 4.6% | 59.8hPa | 2.7V | 00:00:00 | 01:41:14 | 00:00:00 | |
| PETON7-10 | 2026-09-01 16:51:31 | 47.85653 | 11.84886 | 87° | 18km/h | 19873m | 5.8m/s | -54.2°C | 4.6% | 59.9hPa | 2.7V | 00:00:00 | 00:00:00 | 00:00:00 | |
| BAUMI2-15 | 2026-09-01 16:51:29 | 47.85653 | 11.84870 | 86° | 20km/h | 19862m | 6.0m/s | -54.1°C | 4.5% | 60.0hPa | 2.7V | 00:00:00 | 01:41:10 | 00:00:00 | |
| DF7PN | 2026-09-01 16:51:27 | 47.85651 | 11.84854 | 80° | 20km/h | 19852m | 4.3m/s | -54.1°C | 1.3% | 60.2hPa | 2.7V | 00:00:00 | 00:00:00 | 00:00:00 | |
| DO3MHA-12 | 2026-09-01 16:51:24 | 47.85649 | 11.84832 | 81° | 16km/h | 19836m | 5.0m/s | -53.9°C | 4.4% | 60.3hPa | 2.7V | 00:00:00 | 01:41:05 | 08:30:00 | |
| OE8JPQ-2 | 2026-09-01 16:51:22 | 47.85647 | 11.84821 | 64° | 16km/h | 19824m | 4.2m/s | 0°C | 0% | 0hPa | 2.7V | 00:00:00 | 01:41:03 | 00:00:00 | |
| DO3MHA-11 | 2026-09-01 16:51:21 | 47.85645 | 11.84814 | 66° | 15km/h | 19820m | 4.4m/s | -53.9°C | 4.5% | 60.4hPa | 2.7V | 00:00:00 | 01:41:02 | 00:00:00 | |
| BAUMI2-15 | 2026-09-01 16:51:19 | 47.85642 | 11.84803 | 83° | 15km/h | 19810m | 1.1m/s | -53.8°C | 4.4% | 60.5hPa | 2.7V | 00:00:00 | 01:41:00 | 00:00:00 | |
| DB0UT-7 | 2026-09-01 16:51:18 | 47.85642 | 11.84797 | 74° | 11km/h | 19807m | -1.1m/s | -53.8°C | 4.4% | 60.6hPa | 2.7V | 00:00:00 | 01:40:59 | 00:00:00 | |
| DL2OL | 2026-09-01 16:51:17 | 47.85642 | 11.84797 | 75° | 9km/h | 19807m | -1.1m/s | -53.9°C | 1.3% | 60.6hPa | 2.7V | 00:00:00 | 00:00:00 | 00:00:00 | |
| PETON7-10 | 2026-09-01 16:51:16 | 47.85640 | 11.84787 | 80° | 13km/h | 19799m | 5.1m/s | -53.9°C | 4.4% | 60.7hPa | 2.7V | 00:00:00 | 01:40:57 | 00:00:00 | |
| IN3HCDX | 2026-09-01 16:51:15 | 47.85640 | 11.84787 | 81° | 15km/h | 19799m | 5.2m/s | -53.9°C | 1.3% | 60.7hPa | 2.7V | 00:00:00 | 00:00:00 | 00:00:00 | |
| DO3MHA-12 | 2026-09-01 16:51:14 | 47.85640 | 11.84776 | 96° | 13km/h | 19788m | 4.8m/s | -53.7°C | 4.4% | 60.8hPa | 2.7V | 00:00:00 | 01:40:55 | 00:00:00 | |
| DM0DOS-11 | 2026-09-01 16:51:13 | 47.85635 | 11.84745 | 71° | 11km/h | 19756m | 5.3m/s | -53.5°C | 4.4% | 61.1hPa | 2.7V | 08:30:00 | 01:40:49 | 00:00:00 | |
| DK5PH-5 | 2026-09-01 16:51:13 | 47.85640 | 11.84770 | 96° | 9km/h | 19783m | 3.8m/s | -53.6°C | 4.4% | 60.8hPa | 2.7V | 00:00:00 | 01:40:54 | 00:00:00 | |
| OE5DXL-15 | 2026-09-01 16:51:12 | 47.85640 | 11.84764 | 87° | 9km/h | 19778m | 5.9m/s | -53.6°C | 4.4% | 60.9hPa | 2.7V | 00:00:00 | 00:00:00 | 00:00:00 | |
| DO3MHA-11 | 2026-09-01 16:51:11 | 47.85640 | 11.84759 | 70° | 13km/h | 19773m | 5.5m/s | -53.5°C | 4.4% | 60.9hPa | 2.7V | 00:00:00 | 01:40:52 | 00:00:00 | |
| BAUMI2-15 | 2026-09-01 16:51:09 | 47.85636 | 11.84749 | 65° | 11km/h | 19762m | 6.1m/s | -53.5°C | 4.4% | 61.0hPa | 2.7V | 00:00:00 | 01:40:50 | 00:00:00 | |
| DO3MHA-12 | 2026-09-01 16:51:04 | 47.85632 | 11.84728 | 92° | 9km/h | 19735m | 6.2m/s | -53.4°C | 4.3% | 61.3hPa | 2.6V | 00:00:00 | 01:40:45 | 00:00:00 | |
| DF7PN | 2026-09-01 16:50:56 | 47.85637 | 11.84698 | 65° | 5km/h | 19691m | 6.3m/s | -53.4°C | 1.3% | 61.7hPa | 2.6V | 00:00:00 | 00:00:00 | 00:00:00 | |
| IN3HCDX | 2026-09-01 16:50:55 | 47.85636 | 11.84695 | 49° | 7km/h | 19686m | 5.3m/s | -53.3°C | 1.3% | 61.8hPa | 2.6V | 00:00:00 | 00:00:00 | 00:00:00 | |
| DO3MHA-12 | 2026-09-01 16:50:54 | 47.85635 | 11.84694 | 42° | 7km/h | 19681m | 4.0m/s | -53.3°C | 4.4% | 61.8hPa | 2.6V | 00:00:00 | 01:40:35 | 00:00:00 | |
| OE5WHR-10 | 2026-09-01 16:50:53 | 47.85634 | 11.84692 | 52° | 5km/h | 19676m | 5.6m/s | -53.2°C | 4.4% | 61.8hPa | 2.6V | 00:00:00 | 00:00:00 | 00:00:00 | |
| DO3MHA-11 | 2026-09-01 16:50:52 | 47.85635 | 11.84690 | 150° | 5km/h | 19665m | 4.9m/s | -53.1°C | 4.4% | 61.9hPa | 2.6V | 00:00:00 | 01:40:32 | 00:00:00 | |
| PG1ADW-2 | 2026-09-01 16:50:51 | 47.85635 | 11.84690 | 150° | 5km/h | 19665m | 4.9m/s | -53.1°C | 4.4% | 61.9hPa | 2.6V | 00:00:00 | 00:00:00 | 00:00:00 | |
| BAUMI2-15 | 2026-09-01 16:50:49 | 47.85638 | 11.84687 | 137° | 7km/h | 19654m | 5.8m/s | -53.1°C | 4.3% | 62.0hPa | 2.6V | 00:00:00 | 01:40:30 | 00:00:00 | |
| DB0UT-7 | 2026-09-01 16:50:48 | 47.85640 | 11.84685 | 134° | 5km/h | 19648m | 5.0m/s | -53.1°C | 4.4% | 62.1hPa | 2.6V | 00:00:00 | 00:00:00 | 00:00:00 | |
| DO3MHA-12 | 2026-09-01 16:50:44 | 47.85646 | 11.84678 | 147° | 4km/h | 19628m | 5.6m/s | -52.9°C | 4.2% | 62.3hPa | 2.6V | 00:00:00 | 01:40:25 | 00:00:00 | |
| DK5PH-5 | 2026-09-01 16:50:43 | 47.85646 | 11.84678 | 50° | 7km/h | 19622m | 5.7m/s | -52.9°C | 4.2% | 62.3hPa | 2.6V | 00:00:00 | 01:40:24 | 08:30:00 | |
| OE5DXL-15 | 2026-09-01 16:50:42 | 47.85645 | 11.84677 | 26° | 7km/h | 19617m | 4.9m/s | -52.8°C | 4.2% | 62.4hPa | 2.6V | 00:00:00 | 00:00:00 | 00:00:00 | |
| DO3MHA-11 | 2026-09-01 16:50:41 | 47.85645 | 11.84677 | 56° | 4km/h | 19611m | 6.0m/s | -52.8°C | 4.1% | 62.4hPa | 2.6V | 00:00:00 | 01:40:22 | 00:00:00 | |
| BAUMI2-15 | 2026-09-01 16:50:39 | 47.85645 | 11.84674 | 108° | 4km/h | 19601m | 3.8m/s | -52.8°C | 4.2% | 62.5hPa | 2.6V | 00:00:00 | 01:40:20 | 08:30:00 | |
| DG1MFX-10 | 2026-09-01 16:50:36 | 47.85646 | 11.84672 | 0° | 0km/h | 19591m | 5.3m/s | -52.8°C | 1.3% | 62.7hPa | 2.7V | 00:00:00 | 00:00:00 | 00:00:00 | |
| DM0DOS-11 | 2026-09-01 16:50:34 | 47.85654 | 11.84668 | 105° | 7km/h | 19549m | 5.7m/s | -52.8°C | 4.2% | 63.1hPa | 2.7V | 08:30:00 | 01:40:10 | 00:00:00 | |
| DO3MHA-12 | 2026-09-01 16:50:34 | 47.85649 | 11.84673 | 183° | 7km/h | 19575m | 4.2m/s | -52.7°C | 4.2% | 62.8hPa | 2.6V | 00:00:00 | 01:40:15 | 00:00:00 | |
| OE5WHR-10 | 2026-09-01 16:50:32 | 47.85652 | 11.84673 | 168° | 9km/h | 19565m | 6.3m/s | -52.7°C | 4.1% | 62.9hPa | 2.6V | 00:00:00 | 01:40:13 | 00:00:00 | |
| DO3MHA-11 | 2026-09-01 16:50:31 | 47.85653 | 11.84672 | 131° | 7km/h | 19560m | 5.2m/s | -52.6°C | 4.1% | 62.9hPa | 2.6V | 00:00:00 | 01:40:12 | 00:00:00 | |
| BAUMI2-15 | 2026-09-01 16:50:29 | 47.85654 | 11.84668 | 106° | 7km/h | 19550m | 5.7m/s | -52.7°C | 4.2% | 63.1hPa | 2.6V | 00:00:00 | 01:40:10 | 00:00:00 | |
| NBG1-10 | 2026-09-01 16:50:27 | 47.85656 | 11.84662 | 125° | 13km/h | 19538m | 5.4m/s | -52.9°C | 4.3% | 63.2hPa | 2.6V | 00:00:00 | 01:40:08 | 00:00:00 | |
| DF7PN | 2026-09-01 16:50:25 | 47.85659 | 11.84655 | 124° | 7km/h | 19523m | 6.1m/s | -52.8°C | 1.3% | 63.4hPa | 2.7V | 00:00:00 | 00:00:00 | 00:00:00 | |
| DO3MHA-12 | 2026-09-01 16:50:24 | 47.85659 | 11.84655 | 125° | 9km/h | 19523m | 6.1m/s | -52.8°C | 4.2% | 63.3hPa | 2.7V | 00:00:00 | 01:40:05 | 00:00:00 | |
| DM0DOS-11 | 2026-09-01 16:50:23 | 47.85661 | 11.84637 | 89° | 9km/h | 19490m | 5.8m/s | -52.8°C | 4.2% | 63.7hPa | 2.7V | 08:30:00 | 01:39:59 | 00:00:00 | |
| OE5MMP-10 | 2026-09-01 16:50:21 | 47.85662 | 11.84645 | 90° | 11km/h | 19507m | 5.7m/s | -52.7°C | 4.2% | 63.5hPa | 2.6V | 00:00:00 | 01:40:02 | 00:00:00 | |
| BAUMI2-15 | 2026-09-01 16:50:19 | 47.85661 | 11.84640 | 81° | 9km/h | 19497m | 5.6m/s | -52.7°C | 4.2% | 63.6hPa | 2.6V | 00:00:00 | 01:40:00 | 00:00:00 | |
| DB0UT-7 | 2026-09-01 16:50:18 | 47.85661 | 11.84637 | 90° | 15km/h | 19491m | 5.8m/s | -52.7°C | 4.2% | 63.6hPa | 2.6V | 00:00:00 | 01:39:59 | 00:00:00 | |
| DG1MFX-10 | 2026-09-01 16:50:16 | 47.85661 | 11.84633 | 92° | 11km/h | 19485m | 5.2m/s | -52.8°C | 1.3% | 63.7hPa | 2.6V | 00:00:00 | 00:00:00 | 00:00:00 | |
| OE5DRO-10 | 2026-09-01 16:50:15 | 47.85661 | 11.84625 | 87° | 15km/h | 19474m | 4.4m/s | -52.7°C | 4.2% | 63.8hPa | 2.6V | 00:00:00 | 00:00:00 | 08:30:00 | |
| DM0DOS-11 | 2026-09-01 16:50:14 | 47.85660 | 11.84586 | 82° | 16km/h | 19437m | 4.3m/s | -52.7°C | 4% | 64.2hPa | 2.7V | 08:30:00 | 01:39:49 | 00:00:00 | |
| DO3MHA-12 | 2026-09-01 16:50:14 | 47.85661 | 11.84620 | 93° | 15km/h | 19469m | 5.9m/s | -52.6°C | 4.1% | 63.9hPa | 2.7V | 00:00:00 | 01:39:55 | 00:00:00 | |
| DK5PH-5 | 2026-09-01 16:50:13 | 47.85661 | 11.84615 | 96° | 16km/h | 19463m | 5.3m/s | -52.6°C | 4.1% | 63.9hPa | 2.7V | 00:00:00 | 01:39:54 | 00:00:00 | |
| OE5DXL-15 | 2026-09-01 16:50:12 | 47.85661 | 11.84609 | 93° | 16km/h | 19458m | 4.8m/s | -52.7°C | 4.1% | 64.0hPa | 2.7V | 00:00:00 | 00:00:00 | 00:00:00 | |
| OE5WHR-10 | 2026-09-01 16:50:11 | 47.85661 | 11.84603 | 87° | 15km/h | 19453m | 5.7m/s | -52.7°C | 4.0% | 64.0hPa | 2.6V | 00:00:00 | 00:00:00 | 00:00:00 | |
| DL6DJ-15 | 2026-09-01 16:50:10 | 47.85661 | 11.84598 | 81° | 13km/h | 19448m | 4.3m/s | -52.8°C | 1.2% | 64.1hPa | 2.6V | 00:00:00 | 00:00:00 | 00:00:00 | |
| BAUMI2-15 | 2026-09-01 16:50:09 | 47.85660 | 11.84592 | 84° | 15km/h | 19443m | 6.3m/s | -52.7°C | 4.0% | 64.1hPa | 2.6V | 00:00:00 | 01:39:50 | 00:00:00 | |
| DO3MHA-12 | 2026-09-01 16:50:04 | 47.85656 | 11.84568 | 75° | 15km/h | 19416m | 5.5m/s | -52.8°C | 4.0% | 64.4hPa | 2.6V | 00:00:00 | 01:39:45 | 00:00:00 | |
| DM0DOS-11 | 2026-09-01 16:50:03 | 47.85653 | 11.84540 | 91° | 18km/h | 19385m | 3.6m/s | -53.2°C | 4.2% | 64.7hPa | 2.6V | 08:30:00 | 01:39:39 | 00:00:00 | |
| DO3MHA-11 | 2026-09-01 16:50:01 | 47.85653 | 11.84555 | 72° | 15km/h | 19401m | 4.9m/s | -53.0°C | 4.1% | 64.5hPa | 2.7V | 00:00:00 | 01:39:42 | 08:30:00 | |
| PETON7-10 | 2026-09-01 16:49:59 | 47.85653 | 11.84546 | 91° | 18km/h | 19390m | 4.9m/s | 0°C | 0% | 0hPa | 2.6V | 00:00:00 | 00:00:00 | 00:00:00 | |
| DL2OL | 2026-09-01 16:49:57 | 47.85653 | 11.84540 | 92° | 18km/h | 19385m | 3.6m/s | -53.2°C | 1.3% | 64.7hPa | 2.6V | 00:00:00 | 00:00:00 | 00:00:00 | |
| OE5DRO-10 | 2026-09-01 16:49:56 | 47.85652 | 11.84527 | 87° | 20km/h | 19376m | 4.0m/s | -53.1°C | 4.1% | 64.8hPa | 2.6V | 00:00:00 | 00:00:00 | 00:00:00 | |
| DG1MFX-10 | 2026-09-01 16:49:55 | 47.85652 | 11.84527 | 87° | 16km/h | 19376m | 4.0m/s | -53.1°C | 1.3% | 64.8hPa | 2.6V | 00:00:00 | 00:00:00 | 00:00:00 | |
| NBG1-10 | 2026-09-01 16:49:54 | 47.85653 | 11.84515 | 98° | 29km/h | 19366m | 5.5m/s | -53.3°C | 4.1% | 64.9hPa | 2.6V | 00:00:00 | 01:39:35 | 00:00:00 | |
| DM7RM-13 | 2026-09-01 16:49:53 | 47.85653 | 11.84515 | 98° | 16km/h | 19366m | 5.6m/s | 0°C | 0% | 0hPa | 2.6V | 00:00:00 | 00:00:00 | 00:00:00 | |
| DM0DOS-11 | 2026-09-01 16:49:52 | 47.85654 | 11.84470 | 105° | 20km/h | 19330m | 5.2m/s | -53.9°C | 4.2% | 65.3hPa | 2.6V | 08:30:00 | 01:39:28 | 00:00:00 | |
| DO3MHA-11 | 2026-09-01 16:49:51 | 47.85652 | 11.84497 | 81° | 22km/h | 19350m | 4.7m/s | -53.6°C | 4.2% | 65.0hPa | 2.6V | 00:00:00 | 01:39:32 | 00:00:00 | |
| OE5WHR-10 | 2026-09-01 16:49:50 | 47.85652 | 11.84491 | 86° | 27km/h | 19345m | 5.4m/s | -53.7°C | 4.2% | 65.1hPa | 2.6V | 00:00:00 | 00:00:00 | 00:00:00 | |
| IN3HCDX | 2026-09-01 16:49:49 | 47.85652 | 11.84491 | 86° | 16km/h | 19345m | 5.4m/s | -53.8°C | 1.3% | 65.1hPa | 2.6V | 00:00:00 | 00:00:00 | 00:00:00 | |
| DB0UT-7 | 2026-09-01 16:49:48 | 47.85653 | 11.84477 | 105° | 31km/h | 19334m | 4.2m/s | -53.8°C | 4.3% | 65.2hPa | 2.6V | 00:00:00 | 00:00:00 | 00:00:00 | |
| DO3MHA-12 | 2026-09-01 16:49:44 | 47.85660 | 11.84447 | 115° | 27km/h | 19314m | 6.0m/s | -53.8°C | 4.2% | 65.4hPa | 2.6V | 00:00:00 | 01:39:25 | 00:00:00 | |
| DK5PH-5 | 2026-09-01 16:49:43 | 47.85662 | 11.84438 | 120° | 33km/h | 19308m | 5.2m/s | -53.8°C | 4.2% | 65.5hPa | 2.6V | 00:00:00 | 01:39:24 | 00:00:00 | |
| OE5DXL-15 | 2026-09-01 16:49:42 | 47.85666 | 11.84429 | 121° | 33km/h | 19304m | 4.5m/s | -53.8°C | 4.2% | 65.5hPa | 2.6V | 00:00:00 | 00:00:00 | 00:00:00 | |
| DO3MHA-11 | 2026-09-01 16:49:41 | 47.85669 | 11.84420 | 120° | 31km/h | 19298m | 5.9m/s | -53.9°C | 4.2% | 65.6hPa | 2.6V | 00:00:00 | 01:39:22 | 00:00:00 | |
| DM0DOS-11 | 2026-09-01 16:49:40 | 47.85687 | 11.84363 | 107° | 31km/h | 19268m | 5.8m/s | -54.8°C | 4.6% | 65.9hPa | 2.7V | 08:30:00 | 01:39:16 | 00:00:00 | |
| DL6DJ-15 | 2026-09-01 16:49:39 | 47.85675 | 11.84403 | 113° | 24km/h | 19288m | 3.8m/s | -54.3°C | 1.3% | 65.7hPa | 2.6V | 00:00:00 | 00:00:00 | 00:00:00 | |
| OE5DRO-10 | 2026-09-01 16:49:37 | 47.85681 | 11.84384 | 114° | 37km/h | 19278m | 4.8m/s | -54.6°C | 4.5% | 65.8hPa | 2.6V | 00:00:00 | 00:00:00 | 00:00:00 | |
| DO3MHA-12 | 2026-09-01 16:49:34 | 47.85689 | 11.84351 | 105° | 37km/h | 19263m | 4.8m/s | -54.7°C | 4.5% | 65.9hPa | 2.6V | 00:00:00 | 01:39:15 | 00:00:00 | |
| DO3MHA-11 | 2026-09-01 16:49:31 | 47.85697 | 11.84309 | 108° | 37km/h | 19247m | 3.6m/s | -54.7°C | 4.5% | 66.1hPa | 2.6V | 00:00:00 | 01:39:12 | 00:00:00 | |
| DM0DOS-11 | 2026-09-01 16:49:30 | 47.85714 | 11.84231 | 109° | 38km/h | 19218m | 4m/s | -54.6°C | 4.5% | 66.4hPa | 2.6V | 08:30:00 | 01:39:06 | 00:00:00 | |
| OE5WHR-10 | 2026-09-01 16:49:29 | 47.85702 | 11.84282 | 106° | 35km/h | 19237m | 5.1m/s | -54.6°C | 4.5% | 66.2hPa | 2.7V | 00:00:00 | 01:39:10 | 00:00:00 | |
| IN3HCDX | 2026-09-01 16:49:28 | 47.85703 | 11.84282 | 107° | 37km/h | 19237m | 5.1m/s | -54.6°C | 1.4% | 66.2hPa | 2.7V | 00:00:00 | 00:00:00 | 00:00:00 | |
| DO3MHA-12 | 2026-09-01 16:49:24 | 47.85717 | 11.84218 | 108° | 35km/h | 19214m | 5.3m/s | -54.6°C | 4.5% | 66.4hPa | 2.7V | 00:00:00 | 01:39:05 | 00:00:00 | |
| DF7PN | 2026-09-01 16:49:23 | 47.85721 | 11.84191 | 100° | 35km/h | 19204m | 4.3m/s | -54.7°C | 1.4% | 66.6hPa | 2.6V | 00:00:00 | 00:00:00 | 00:00:00 | |
| OE5MMP-10 | 2026-09-01 16:49:21 | 47.85723 | 11.84177 | 100° | 33km/h | 19199m | 5.3m/s | -54.5°C | 4.5% | 66.6hPa | 2.6V | 00:00:00 | 01:39:02 | 00:00:00 | |
| DM0DOS-11 | 2026-09-01 16:49:20 | 47.85734 | 11.84100 | 107° | 31km/h | 19169m | 5.6m/s | -54.8°C | 4.5% | 67hPa | 2.6V | 08:30:00 | 01:38:56 | 00:00:00 | |
| DL2OL | 2026-09-01 16:49:19 | 47.85725 | 11.84163 | 102° | 38km/h | 19194m | 4.9m/s | -54.6°C | 1.4% | 66.7hPa | 2.7V | 00:00:00 | 00:00:00 | 00:00:00 | |
| OE5DRO-10 | 2026-09-01 16:49:18 | 47.85729 | 11.84135 | 101° | 31km/h | 19184m | 6.0m/s | -54.7°C | 4.5% | 66.7hPa | 2.7V | 00:00:00 | 00:00:00 | 00:00:00 | |
| DO3MHA-12 | 2026-09-01 16:49:14 | 47.85736 | 11.84089 | 109° | 31km/h | 19164m | 4.6m/s | -54.7°C | 4.5% | 66.9hPa | 2.7V | 00:00:00 | 01:38:55 | 00:00:00 | |
| DK5PH-5 | 2026-09-01 16:49:13 | 47.85739 | 11.84078 | 108° | 26km/h | 19159m | 6.0m/s | -54.8°C | 4.5% | 67.0hPa | 2.7V | 00:00:00 | 01:38:54 | 00:00:00 | |
| OE5DXL-15 | 2026-09-01 16:49:12 | 47.85740 | 11.84068 | 102° | 26km/h | 19153m | 4.6m/s | -54.8°C | 4.5% | 67.0hPa | 2.6V | 00:00:00 | 00:00:00 | 00:00:00 | |
| DO3MHA-11 | 2026-09-01 16:49:11 | 47.85742 | 11.84057 | 99° | 31km/h | 19148m | 4.9m/s | -54.9°C | 4.5% | 67.1hPa | 2.6V | 00:00:00 | 01:38:52 | 00:00:00 | |
| DM0DOS-11 | 2026-09-01 16:49:10 | 47.85744 | 11.83986 | 94° | 31km/h | 19116m | 5m/s | -55°C | 4.6% | 67.5hPa | 2.6V | 08:30:00 | 01:38:46 | 00:00:00 | |
| OE5WHR-10 | 2026-09-01 16:49:08 | 47.85744 | 11.84021 | 91° | 27km/h | 19133m | 5.9m/s | -55.0°C | 4.6% | 67.3hPa | 2.7V | 00:00:00 | 00:00:00 | 08:30:00 | |
| IN3HCDX | 2026-09-01 16:49:07 | 47.85744 | 11.84021 | 92° | 31km/h | 19133m | 6.0m/s | -55.1°C | 1.4% | 67.3hPa | 2.7V | 00:00:00 | 00:00:00 | 00:00:00 | |
| DO3MHA-12 | 2026-09-01 16:49:04 | 47.85745 | 11.83974 | 98° | 26km/h | 19112m | 4.1m/s | -55.0°C | 4.5% | 67.5hPa | 2.7V | 00:00:00 | 01:38:45 | 00:00:00 | |
| DO3MHA-11 | 2026-09-01 16:49:01 | 47.85747 | 11.83943 | 94° | 24km/h | 19097m | 4.4m/s | -55.0°C | 4.6% | 67.7hPa | 2.7V | 00:00:00 | 01:38:42 | 00:00:00 | |
| DM0DOS-11 | 2026-09-01 16:49:00 | 47.85751 | 11.83889 | 95° | 22km/h | 19066m | 4.4m/s | -55.3°C | 4.8% | 68hPa | 2.7V | 08:30:00 | 01:38:36 | 00:00:00 | |
| DF7PN | 2026-09-01 16:48:52 | 47.85753 | 11.83851 | 91° | 24km/h | 19047m | 4.2m/s | -55.2°C | 1.5% | 68.2hPa | 2.7V | 00:00:00 | 00:00:00 | 00:00:00 | |
| DO3MHA-11 | 2026-09-01 16:48:51 | 47.85753 | 11.83851 | 92° | 22km/h | 19047m | 4.2m/s | -55.2°C | 4.8% | 68.2hPa | 2.7V | 00:00:00 | 01:38:32 | 00:00:00 | |
| DM0DOS-11 | 2026-09-01 16:48:50 | 47.85760 | 11.83799 | 107° | 20km/h | 19017m | 5.6m/s | -55.1°C | 4.6% | 68.5hPa | 2.7V | 08:30:00 | 01:38:26 | 00:00:00 | |
| NBG1-10 | 2026-09-01 16:48:48 | 47.85756 | 11.83823 | 105° | 24km/h | 19032m | 4.0m/s | -55.1°C | 4.7% | 68.4hPa | 2.6V | 00:00:00 | 01:38:29 | 00:00:00 | |
| OE5WHR-10 | 2026-09-01 16:48:47 | 47.85757 | 11.83814 | 103° | 22km/h | 19027m | 5.9m/s | -55.2°C | 4.7% | 68.4hPa | 2.6V | 00:00:00 | 00:00:00 | 00:00:00 | |
| DO3MHA-12 | 2026-09-01 16:48:44 | 47.85761 | 11.83792 | 111° | 18km/h | 19012m | 4.6m/s | -55.1°C | 4.6% | 68.6hPa | 2.6V | 00:00:00 | 01:38:25 | 00:00:00 | |
| DK5PH-5 | 2026-09-01 16:48:43 | 47.85763 | 11.83785 | 110° | 24km/h | 19008m | 4.6m/s | -55.1°C | 4.6% | 68.6hPa | 2.6V | 00:00:00 | 01:38:24 | 00:00:00 | |
| OE5DXL-15 | 2026-09-01 16:48:42 | 47.85764 | 11.83779 | 104° | 24km/h | 19002m | 5.4m/s | -55.1°C | 4.6% | 68.7hPa | 2.6V | 00:00:00 | 00:00:00 | 00:00:00 | |
| OE5DRO-10 | 2026-09-01 16:48:41 | 47.85766 | 11.83768 | 107° | 24km/h | 18993m | 4.7m/s | -55.1°C | 4.7% | 68.8hPa | 2.7V | 00:00:00 | 00:00:00 | 00:00:00 | |
| DM0DOS-11 | 2026-09-01 16:48:40 | 47.85778 | 11.83734 | 124° | 24km/h | 18968m | 5m/s | -55.2°C | 4.8% | 69.1hPa | 2.7V | 08:30:00 | 01:38:16 | 00:00:00 | |
| DL6DJ-15 | 2026-09-01 16:48:37 | 47.85775 | 11.83741 | 121° | 20km/h | 18973m | 5.1m/s | -55.3°C | 1.5% | 69.0hPa | 2.6V | 00:00:00 | 00:00:00 | 00:00:00 | |
| DO3MHA-12 | 2026-09-01 16:48:34 | 47.85782 | 11.83727 | 129° | 26km/h | 18963m | 6.3m/s | -55.1°C | 4.8% | 69.1hPa | 2.6V | 00:00:00 | 01:38:15 | 00:00:00 | |
| DG1MFX-10 | 2026-09-01 16:48:33 | 47.85782 | 11.83727 | 129° | 26km/h | 18963m | 6.4m/s | -55.1°C | 1.5% | 69.2hPa | 2.6V | 00:00:00 | 00:00:00 | 00:00:00 | |
| DO3MHA-11 | 2026-09-01 16:48:31 | 47.85793 | 11.83703 | 116° | 26km/h | 18948m | 4.3m/s | -54.9°C | 4.8% | 69.3hPa | 2.6V | 00:00:00 | 01:38:12 | 08:30:00 | |
| DM0DOS-11 | 2026-09-01 16:48:30 | 47.85803 | 11.83648 | 95° | 22km/h | 18917m | 3.8m/s | -54.9°C | 4.7% | 69.6hPa | 2.6V | 08:30:00 | 01:38:06 | 00:00:00 | |
| OE5WHR-10 | 2026-09-01 16:48:26 | 47.85802 | 11.83656 | 96° | 27km/h | 18921m | 4.2m/s | -54.8°C | 4.7% | 69.5hPa | 2.7V | 00:00:00 | 01:38:07 | 00:00:00 | |
| DO3MHA-12 | 2026-09-01 16:48:24 | 47.85804 | 11.83639 | 100° | 26km/h | 18913m | 5.8m/s | -54.8°C | 4.7% | 69.6hPa | 2.7V | 00:00:00 | 01:38:05 | 08:30:00 | |
| DF7PN | 2026-09-01 16:48:21 | 47.85809 | 11.83604 | 101° | 22km/h | 18892m | 3.8m/s | -54.7°C | 1.4% | 69.9hPa | 2.6V | 00:00:00 | 00:00:00 | 00:00:00 | |
| DM0DOS-11 | 2026-09-01 16:48:20 | 47.85817 | 11.83556 | 99° | 24km/h | 18868m | 4.5m/s | -54.6°C | 0% | 70.2hPa | 2.6V | 08:30:00 | 01:37:56 | 00:00:00 | |
| DB0UT-7 | 2026-09-01 16:48:18 | 47.85812 | 11.83585 | 105° | 33km/h | 18882m | 4.4m/s | -54.6°C | 4.6% | 70.0hPa | 2.7V | 00:00:00 | 01:37:59 | 08:30:00 | |
| NBG1-10 | 2026-09-01 16:48:15 | 47.85816 | 11.83556 | 100° | 33km/h | 18868m | 4.4m/s | -54.5°C | 4.6% | 70.1hPa | 2.6V | 00:00:00 | 01:37:56 | 00:00:00 | |
| DO3MHA-12 | 2026-09-01 16:48:14 | 47.85817 | 11.83547 | 100° | 29km/h | 18864m | 3.8m/s | -54.5°C | 4.6% | 70.2hPa | 2.6V | 00:00:00 | 01:37:55 | 00:00:00 | |
| PG1ADW-2 | 2026-09-01 16:48:13 | 47.85821 | 11.83517 | 101° | 33km/h | 18849m | 4.2m/s | -54.4°C | 4.6% | 70.3hPa | 2.6V | 00:00:00 | 00:00:00 | 00:00:00 | |
| DO3MHA-11 | 2026-09-01 16:48:12 | 47.85821 | 11.83517 | 101° | 33km/h | 18849m | 4.2m/s | -54.4°C | 4.6% | 70.3hPa | 2.6V | 00:00:00 | 01:37:52 | 00:00:00 | |
| DM0DOS-11 | 2026-09-01 16:48:12 | 47.85821 | 11.83446 | 81° | 37km/h | 18820m | 4.4m/s | 0°C | 0% | 0hPa | 2.6V | 08:30:00 | 01:37:46 | 00:00:00 | |
| OE5MMP-10 | 2026-09-01 16:48:11 | 47.85821 | 11.83517 | 101° | 33km/h | 18849m | 4.2m/s | -54.4°C | 4.6% | 70.3hPa | 2.6V | 00:00:00 | 01:37:52 | 00:00:00 | |
| DL6DJ-15 | 2026-09-01 16:48:06 | 47.85821 | 11.83446 | 81° | 35km/h | 18820m | 4.4m/s | -54.2°C | 1.4% | 70.7hPa | 2.6V | 00:00:00 | 00:00:00 | 00:00:00 | |
| OE5WHR-10 | 2026-09-01 16:48:05 | 47.85821 | 11.83446 | 82° | 35km/h | 18820m | 4.3m/s | -54.2°C | 4.5% | 70.7hPa | 2.6V | 00:00:00 | 00:00:00 | 00:00:00 | |
| DO3MHA-12 | 2026-09-01 16:48:04 | 47.85819 | 11.83433 | 78° | 35km/h | 18815m | 5.3m/s | -54.2°C | 4.5% | 70.7hPa | 2.7V | 00:00:00 | 01:37:45 | 00:00:00 | |
| OE5DRO-10 | 2026-09-01 16:48:02 | 47.85815 | 11.83408 | 75° | 35km/h | 18806m | 3.2m/s | -54.2°C | 4.4% | 70.8hPa | 2.7V | 00:00:00 | 00:00:00 | 00:00:00 | |
| DO3MHA-11 | 2026-09-01 16:48:01 | 47.85813 | 11.83396 | 76° | 35km/h | 18801m | 5.4m/s | -54.1°C | 4.5% | 70.9hPa | 2.7V | 00:00:00 | 01:37:42 | 00:00:00 | |
| DM0DOS-11 | 2026-09-01 16:48:00 | 47.85802 | 11.83320 | 79° | 35km/h | 18773m | 5.3m/s | 0°C | 0% | 0hPa | 2.7V | 00:00:00 | 01:37:36 | 00:00:00 | |
| BAUMI2-15 | 2026-09-01 16:47:55 | 47.85802 | 11.83319 | 80° | 35km/h | 18773m | 5.3m/s | -53.9°C | 4.4% | 71.2hPa | 2.6V | 00:00:00 | 01:37:36 | 00:00:00 | |
| DO3MHA-12 | 2026-09-01 16:47:54 | 47.85801 | 11.83306 | 85° | 35km/h | 18768m | 4.6m/s | -53.9°C | 4.4% | 71.3hPa | 2.6V | 00:00:00 | 01:37:35 | 00:00:00 | |
| DO3MHA-11 | 2026-09-01 16:47:51 | 47.85799 | 11.83267 | 86° | 35km/h | 18755m | 4.3m/s | -53.9°C | 4.3% | 71.4hPa | 2.7V | 00:00:00 | 01:37:32 | 00:00:00 | |
| DM0DOS-11 | 2026-09-01 16:47:50 | 47.85798 | 11.83193 | 85° | 35km/h | 18728m | 5.2m/s | 0°C | 0% | 0hPa | 2.7V | 00:00:00 | 01:37:26 | 00:00:00 | |
| DF7PN | 2026-09-01 16:47:50 | 47.85799 | 11.83241 | 92° | 33km/h | 18745m | 5.2m/s | -53.9°C | 1.3% | 71.5hPa | 2.7V | 00:00:00 | 00:00:00 | 00:00:00 | |
| BAUMI2-15 | 2026-09-01 16:47:49 | 47.85799 | 11.83241 | 93° | 33km/h | 18745m | 5.2m/s | -53.9°C | 4.3% | 71.5hPa | 2.7V | 00:00:00 | 01:37:30 | 08:30:00 | |
| DB0UT-7 | 2026-09-01 16:47:48 | 47.85799 | 11.83229 | 92° | 42km/h | 18741m | 3.8m/s | -53.9°C | 4.3% | 71.5hPa | 2.6V | 00:00:00 | 00:00:00 | 00:00:00 | |
| DO3MHA-12 | 2026-09-01 16:47:44 | 47.85797 | 11.83179 | 88° | 42km/h | 18723m | 4.5m/s | -53.8°C | 4.4% | 71.7hPa | 2.6V | 00:00:00 | 01:37:25 | 00:00:00 | |
| DK5PH-5 | 2026-09-01 16:47:43 | 47.85796 | 11.83165 | 85° | 44km/h | 18718m | 4.4m/s | -53.7°C | 4.3% | 71.8hPa | 2.6V | 00:00:00 | 01:37:24 | 00:00:00 | |
| OE5DXL-15 | 2026-09-01 16:47:42 | 47.85795 | 11.83151 | 83° | 44km/h | 18714m | 5.2m/s | -53.7°C | 4.3% | 71.8hPa | 2.6V | 00:00:00 | 00:00:00 | 00:00:00 | |
| OE5MMP-10 | 2026-09-01 16:47:41 | 47.85793 | 11.83135 | 81° | 44km/h | 18709m | 3.5m/s | -53.7°C | 4.3% | 71.9hPa | 2.6V | 00:00:00 | 01:37:22 | 00:00:00 | |
| BAUMI2-15 | 2026-09-01 16:47:39 | 47.85790 | 11.83103 | 86° | 46km/h | 18700m | 4.3m/s | -53.8°C | 4.3% | 72.0hPa | 2.6V | 00:00:00 | 01:37:20 | 00:00:00 | |
| DL6DJ-15 | 2026-09-01 16:47:37 | 47.85784 | 11.83020 | 82° | 40km/h | 18678m | 5.5m/s | -54.2°C | 1.4% | 72.3hPa | 2.6V | 00:00:00 | 00:00:00 | 00:00:00 | |
| DO3MHA-12 | 2026-09-01 16:47:34 | 47.85784 | 11.83019 | 83° | 40km/h | 18678m | 5.4m/s | -54.1°C | 4.4% | 72.3hPa | 2.6V | 00:00:00 | 01:37:15 | 00:00:00 | |
| DO3MHA-11 | 2026-09-01 16:47:31 | 47.85779 | 11.82976 | 78° | 44km/h | 18664m | 3.8m/s | -54.4°C | 4.4% | 72.4hPa | 2.6V | 00:00:00 | 01:37:12 | 00:00:00 | |
| DG1MFX-10 | 2026-09-01 16:47:30 | 47.85779 | 11.82976 | 78° | 38km/h | 18664m | 3.9m/s | -54.4°C | 1.4% | 72.5hPa | 2.6V | 00:00:00 | 00:00:00 | 00:00:00 | |
| BAUMI2-15 | 2026-09-01 16:47:29 | 47.85775 | 11.82948 | 82° | 44km/h | 18655m | 3.4m/s | -54.5°C | 4.5% | 72.5hPa | 2.6V | 00:00:00 | 01:37:10 | 00:00:00 | |
| DO3MHA-12 | 2026-09-01 16:47:24 | 47.85765 | 11.82866 | 80° | 47km/h | 18633m | 3.0m/s | -54.9°C | 4.8% | 72.8hPa | 2.6V | 00:00:00 | 01:37:05 | 00:00:00 | |
| OE5WHR-10 | 2026-09-01 16:47:23 | 47.85763 | 11.82847 | 77° | 44km/h | 18629m | 5.6m/s | -54.9°C | 4.8% | 72.8hPa | 2.6V | 00:00:00 | 01:37:04 | 00:00:00 | |
| DO3MHA-11 | 2026-09-01 16:47:21 | 47.85756 | 11.82811 | 73° | 46km/h | 18619m | 5.1m/s | -54.8°C | 4.8% | 72.9hPa | 2.6V | 00:00:00 | 01:37:02 | 00:00:00 | |
| BAUMI2-15 | 2026-09-01 16:47:19 | 47.85748 | 11.82776 | 71° | 44km/h | 18610m | 4.4m/s | -54.7°C | 4.7% | 73.0hPa | 2.6V | 00:00:00 | 01:37:00 | 00:00:00 | |
| DB0UT-7 | 2026-09-01 16:47:18 | 47.85744 | 11.82760 | 68° | 40km/h | 18605m | 5.5m/s | -54.7°C | 4.6% | 73.1hPa | 2.7V | 00:00:00 | 01:36:59 | 00:00:00 | |
| DO3MHA-12 | 2026-09-01 16:47:14 | 47.85729 | 11.82699 | 73° | 42km/h | 18586m | 3.5m/s | -54.5°C | 4.6% | 73.3hPa | 2.7V | 00:00:00 | 01:36:55 | 00:00:00 | |
| DK5PH-5 | 2026-09-01 16:47:13 | 47.85725 | 11.82684 | 71° | 38km/h | 18582m | 5.6m/s | -54.5°C | 4.6% | 73.4hPa | 2.7V | 00:00:00 | 01:36:54 | 00:00:00 | |
| OE5DXL-15 | 2026-09-01 16:47:12 | 47.85721 | 11.82669 | 69° | 38km/h | 18577m | 4.2m/s | -54.4°C | 4.6% | 73.4hPa | 2.7V | 00:00:00 | 00:00:00 | 08:30:00 | |
| OE5MMP-10 | 2026-09-01 16:47:11 | 47.85718 | 11.82653 | 70° | 40km/h | 18573m | 4.8m/s | -54.3°C | 4.6% | 73.5hPa | 2.6V | 00:00:00 | 01:36:52 | 00:00:00 | |
| BAUMI2-15 | 2026-09-01 16:47:09 | 47.85710 | 11.82623 | 72° | 42km/h | 18564m | 3.3m/s | -54.3°C | 4.6% | 73.6hPa | 2.6V | 00:00:00 | 01:36:50 | 00:00:00 | |
| OE5DRO-10 | 2026-09-01 16:47:06 | 47.85693 | 11.82567 | 64° | 37km/h | 18545m | 5.8m/s | -54.1°C | 4.5% | 73.8hPa | 2.6V | 00:00:00 | 00:00:00 | 00:00:00 | |
| DL6DJ-15 | 2026-09-01 16:47:04 | 47.85686 | 11.82540 | 68° | 37km/h | 18535m | 3.4m/s | -54.0°C | 1.4% | 73.9hPa | 2.6V | 00:00:00 | 00:00:00 | 00:00:00 | |
| OE5WHR-10 | 2026-09-01 16:47:02 | 47.85682 | 11.82527 | 69° | 37km/h | 18531m | 6.0m/s | -54.0°C | 4.4% | 73.9hPa | 2.6V | 00:00:00 | 00:00:00 | 00:00:00 | |
| DO3MHA-11 | 2026-09-01 16:47:01 | 47.85679 | 11.82513 | 70° | 35km/h | 18526m | 3.9m/s | -53.9°C | 4.4% | 74.0hPa | 2.7V | 00:00:00 | 01:36:42 | 08:30:00 | |
| BAUMI2-15 | 2026-09-01 16:46:59 | 47.85673 | 11.82486 | 74° | 35km/h | 18516m | 5.6m/s | -53.9°C | 4.4% | 74.1hPa | 2.7V | 00:00:00 | 01:36:40 | 00:00:00 | |
| OE3JTB-15 | 2026-09-01 16:46:55 | 47.85661 | 11.82436 | 70° | 31km/h | 18496m | 4.2m/s | 0°C | 0% | 0hPa | 2.7V | 00:00:00 | 01:36:36 | 00:00:00 | |
| DO3MHA-12 | 2026-09-01 16:46:54 | 47.85658 | 11.82424 | 72° | 37km/h | 18492m | 5.1m/s | -53.7°C | 4.3% | 74.4hPa | 2.7V | 00:00:00 | 01:36:35 | 08:30:00 | |
| DF1GD-15 | 2026-09-01 16:46:52 | 47.85656 | 11.82412 | 72° | 33km/h | 18487m | 4.3m/s | 0°C | 0% | 0hPa | 2.7V | 00:00:00 | 00:00:00 | 00:00:00 | |
| DO3MHA-11 | 2026-09-01 16:46:51 | 47.85649 | 11.82388 | 64° | 37km/h | 18477m | 5.2m/s | -53.8°C | 4.2% | 74.6hPa | 2.7V | 00:00:00 | 01:36:32 | 00:00:00 | |
| BAUMI2-15 | 2026-09-01 16:46:49 | 47.85640 | 11.82363 | 65° | 37km/h | 18468m | 5.6m/s | -53.9°C | 4.3% | 74.7hPa | 2.7V | 00:00:00 | 01:36:30 | 00:00:00 | |
| DB0UT-7 | 2026-09-01 16:46:48 | 47.85636 | 11.82350 | 69° | 33km/h | 18463m | 4.6m/s | -54.0°C | 4.3% | 74.7hPa | 2.6V | 00:00:00 | 00:00:00 | 00:00:00 | |
| OE5DRO-10 | 2026-09-01 16:46:46 | 47.85630 | 11.82324 | 70° | 35km/h | 18453m | 5.9m/s | -54.4°C | 4.4% | 74.8hPa | 2.6V | 00:00:00 | 00:00:00 | 00:00:00 | |
| DO3MHA-12 | 2026-09-01 16:46:44 | 47.85625 | 11.82297 | 81° | 37km/h | 18444m | 5.1m/s | -54.6°C | 4.5% | 74.9hPa | 2.6V | 00:00:00 | 01:36:25 | 00:00:00 | |
| DK5PH-5 | 2026-09-01 16:46:43 | 47.85623 | 11.82283 | 87° | 33km/h | 18439m | 5.0m/s | -54.7°C | 4.5% | 75.0hPa | 2.6V | 00:00:00 | 01:36:24 | 00:00:00 | |
| BAUMI2-15 | 2026-09-01 16:46:39 | 47.85622 | 11.82227 | 87° | 35km/h | 18420m | 5.1m/s | -54.9°C | 4.6% | 75.2hPa | 2.6V | 00:00:00 | 01:36:20 | 00:00:00 | |
| NBG1-10 | 2026-09-01 16:46:36 | 47.85621 | 11.82187 | 84° | 29km/h | 18402m | 6.7m/s | -55.0°C | 4.7% | 75.4hPa | 2.6V | 00:00:00 | 01:36:17 | 00:00:00 | |
| DO3MHA-12 | 2026-09-01 16:46:34 | 47.85618 | 11.82163 | 82° | 31km/h | 18392m | 5.3m/s | -54.9°C | 4.6% | 75.5hPa | 2.6V | 00:00:00 | 01:36:15 | 00:00:00 | |
| DL6DJ-15 | 2026-09-01 16:46:32 | 47.85616 | 11.82140 | 84° | 29km/h | 18382m | 4.9m/s | -55.0°C | 1.5% | 75.7hPa | 2.6V | 00:00:00 | 00:00:00 | 00:00:00 | |
| DO3MHA-11 | 2026-09-01 16:46:31 | 47.85616 | 11.82128 | 83° | 29km/h | 18376m | 6.2m/s | -54.9°C | 4.7% | 75.7hPa | 2.6V | 00:00:00 | 01:36:12 | 00:00:00 | |
| DB0ND-19 | 2026-09-01 16:46:30 | 47.85615 | 11.82117 | 86° | 31km/h | 18371m | 4.0m/s | 0°C | -1.0% | -1.0hPa | 2.7V | 00:00:00 | 00:00:00 | 00:00:00 | |
| BAUMI2-15 | 2026-09-01 16:46:29 | 47.85615 | 11.82105 | 92° | 31km/h | 18366m | 6.2m/s | -54.9°C | 4.7% | 75.9hPa | 2.7V | 00:00:00 | 01:36:10 | 00:00:00 | |
| OE5DRO-10 | 2026-09-01 16:46:27 | 47.85615 | 11.82081 | 89° | 29km/h | 18356m | 5.4m/s | -54.8°C | 4.6% | 75.9hPa | 2.7V | 00:00:00 | 00:00:00 | 00:00:00 | |
| DO3MHA-12 | 2026-09-01 16:46:24 | 47.85612 | 11.82048 | 82° | 29km/h | 18340m | 6.4m/s | -54.8°C | 4.6% | 76.1hPa | 2.6V | 00:00:00 | 01:36:05 | 00:00:00 | |
| DO3MHA-11 | 2026-09-01 16:46:21 | 47.85609 | 11.82019 | 75° | 31km/h | 18326m | 5.9m/s | -54.9°C | 4.7% | 76.3hPa | 2.6V | 00:00:00 | 01:36:02 | 00:00:00 | |
| OE5WHR-10 | 2026-09-01 16:46:20 | 47.85607 | 11.82009 | 72° | 29km/h | 18321m | 4.5m/s | -54.9°C | 4.7% | 76.4hPa | 2.6V | 00:00:00 | 01:36:01 | 00:00:00 | |
| BAUMI2-15 | 2026-09-01 16:46:19 | 47.85605 | 11.81999 | 75° | 31km/h | 18316m | 4.8m/s | -55.0°C | 4.7% | 76.4hPa | 2.6V | 00:00:00 | 01:36:00 | 08:30:00 | |
| OE3JTB-15 | 2026-09-01 16:46:17 | 47.85602 | 11.81977 | 80° | 29km/h | 18306m | 4.6m/s | 0°C | 0% | 0hPa | 2.6V | 00:00:00 | 00:00:00 | 00:00:00 | |
| DO3MHA-12 | 2026-09-01 16:46:14 | 47.85597 | 11.81940 | 83° | 27km/h | 18290m | 6.2m/s | -54.9°C | 4.7% | 76.7hPa | 2.6V | 00:00:00 | 01:35:55 | 00:00:00 | |
| DK5PH-5 | 2026-09-01 16:46:13 | 47.85596 | 11.81928 | 84° | 31km/h | 18285m | 4.6m/s | -54.9°C | 4.7% | 76.8hPa | 2.6V | 00:00:00 | 01:35:54 | 08:30:00 | |
| OE5DXL-15 | 2026-09-01 16:46:12 | 47.85595 | 11.81916 | 82° | 31km/h | 18280m | 4.6m/s | -54.8°C | 4.6% | 76.9hPa | 2.7V | 00:00:00 | 00:00:00 | 00:00:00 | |
| BAUMI2-15 | 2026-09-01 16:46:09 | 47.85589 | 11.81885 | 67° | 24km/h | 18265m | 5.1m/s | -54.7°C | 4.6% | 77.1hPa | 2.7V | 00:00:00 | 01:35:50 | 00:00:00 | |
| OE5DRO-10 | 2026-09-01 16:46:08 | 47.85586 | 11.81876 | 69° | 29km/h | 18260m | 5.5m/s | -54.7°C | 4.6% | 77.1hPa | 2.7V | 00:00:00 | 00:00:00 | 00:00:00 | |
| DF1GD-15 | 2026-09-01 16:46:07 | 47.85586 | 11.81876 | 69° | 24km/h | 18260m | 5.6m/s | 0°C | 0% | 0hPa | 2.7V | 00:00:00 | 00:00:00 | 00:00:00 | |
| DO3MHA-12 | 2026-09-01 16:46:05 | 47.85576 | 11.81845 | 59° | 31km/h | 18239m | 4.4m/s | -54.6°C | 4.6% | 77.4hPa | 2.7V | 00:00:00 | 01:35:45 | 00:00:00 | |
| NBG1-10 | 2026-09-01 16:46:03 | 47.85573 | 11.81836 | 66° | 33km/h | 18234m | 6.3m/s | -54.5°C | 4.6% | 77.4hPa | 2.7V | 00:00:00 | 01:35:44 | 00:00:00 | |
| DO3MHA-11 | 2026-09-01 16:46:01 | 47.85567 | 11.81817 | 67° | 31km/h | 18224m | 6.4m/s | -54.4°C | 4.5% | 77.6hPa | 2.7V | 00:00:00 | 01:35:42 | 00:00:00 | |
| IN3HCDX | 2026-09-01 16:46:00 | 47.85567 | 11.81817 | 67° | 31km/h | 18224m | 6.4m/s | -54.5°C | 1.4% | 77.6hPa | 2.7V | 00:00:00 | 00:00:00 | 00:00:00 | |
| OE5WHR-10 | 2026-09-01 16:45:59 | 47.85561 | 11.81795 | 70° | 33km/h | 18213m | 5.5m/s | -54.4°C | 4.6% | 77.7hPa | 2.7V | 00:00:00 | 00:00:00 | 08:30:00 | |
| DO3MHA-12 | 2026-09-01 16:45:54 | 47.85547 | 11.81738 | 69° | 33km/h | 18187m | 6.5m/s | -54.5°C | 4.5% | 78.0hPa | 2.7V | 00:00:00 | 01:35:35 | 00:00:00 | |
| DO3MHA-11 | 2026-09-01 16:45:51 | 47.85538 | 11.81709 | 59° | 35km/h | 18172m | 5.5m/s | -54.8°C | 4.7% | 78.2hPa | 2.6V | 00:00:00 | 01:35:32 | 00:00:00 | |
| DL2OL | 2026-09-01 16:45:50 | 47.85538 | 11.81709 | 60° | 29km/h | 18172m | 5.5m/s | -54.8°C | 1.5% | 78.2hPa | 2.6V | 00:00:00 | 00:00:00 | 00:00:00 | |
| OE5DRO-10 | 2026-09-01 16:45:49 | 47.85530 | 11.81689 | 61° | 33km/h | 18162m | 4.8m/s | -54.7°C | 4.7% | 78.3hPa | 2.6V | 00:00:00 | 00:00:00 | 00:00:00 | |
| DB0UT-7 | 2026-09-01 16:45:48 | 47.85526 | 11.81678 | 65° | 33km/h | 18157m | 5.4m/s | -54.7°C | 4.7% | 78.4hPa | 2.6V | 00:00:00 | 00:00:00 | 00:00:00 | |
| OE3JTB-15 | 2026-09-01 16:45:47 | 47.85523 | 11.81667 | 68° | 33km/h | 18152m | 4.1m/s | 0°C | 0% | 0hPa | 2.6V | 00:00:00 | 00:00:00 | 00:00:00 | |
| DG1MFX-10 | 2026-09-01 16:45:46 | 47.85523 | 11.81667 | 68° | 35km/h | 18152m | 4.2m/s | -54.7°C | 1.5% | 78.5hPa | 2.6V | 00:00:00 | 00:00:00 | 00:00:00 | |
| DF1GD-15 | 2026-09-01 16:45:45 | 47.85519 | 11.81654 | 69° | 37km/h | 18147m | 6.0m/s | 0°C | 0% | 0hPa | 2.6V | 00:00:00 | 00:00:00 | 00:00:00 | |
| DO3MHA-12 | 2026-09-01 16:45:44 | 47.85512 | 11.81627 | 70° | 33km/h | 18137m | 4.7m/s | -54.5°C | 4.6% | 78.6hPa | 2.6V | 00:00:00 | 01:35:25 | 00:00:00 | |
| DK5PH-5 | 2026-09-01 16:45:43 | 47.85509 | 11.81614 | 73° | 33km/h | 18132m | 5.9m/s | -54.5°C | 4.7% | 78.7hPa | 2.6V | 00:00:00 | 01:35:24 | 00:00:00 | |
| OE5DXL-15 | 2026-09-01 16:45:42 | 47.85506 | 11.81601 | 73° | 33km/h | 18126m | 5.1m/s | -54.4°C | 4.7% | 78.8hPa | 2.6V | 00:00:00 | 00:00:00 | 00:00:00 | |
| IN3HCDX | 2026-09-01 16:45:40 | 47.85501 | 11.81576 | 72° | 35km/h | 18115m | 4.2m/s | -54.4°C | 1.5% | 78.9hPa | 2.6V | 00:00:00 | 00:00:00 | 00:00:00 | |
| OE5WHR-10 | 2026-09-01 16:45:38 | 47.85496 | 11.81553 | 73° | 33km/h | 18107m | 5.3m/s | -54.4°C | 4.6% | 79.0hPa | 2.6V | 00:00:00 | 00:00:00 | 00:00:00 | |
| DO3MHA-12 | 2026-09-01 16:45:34 | 47.85485 | 11.81512 | 66° | 35km/h | 18085m | 4.8m/s | -54.1°C | 4.6% | 79.3hPa | 2.6V | 00:00:00 | 01:35:15 | 00:00:00 | |
| DO3MHA-11 | 2026-09-01 16:45:31 | 47.85477 | 11.81476 | 72° | 35km/h | 18070m | 4.3m/s | -54.0°C | 4.6% | 79.4hPa | 2.6V | 00:00:00 | 01:35:12 | 08:30:00 | |
| NBG1-10 | 2026-09-01 16:45:30 | 47.85473 | 11.81463 | 70° | 33km/h | 18065m | 6.0m/s | -53.9°C | 4.5% | 79.5hPa | 2.6V | 00:00:00 | 01:35:11 | 00:00:00 | |
| DG1MFX-10 | 2026-09-01 16:45:26 | 47.85464 | 11.81424 | 73° | 35km/h | 18050m | 5.0m/s | -53.9°C | 1.5% | 79.7hPa | 2.7V | 00:00:00 | 00:00:00 | 00:00:00 | |
| DO3MHA-12 | 2026-09-01 16:45:24 | 47.85456 | 11.81389 | 66° | 31km/h | 18035m | 5.3m/s | -53.8°C | 4.4% | 79.9hPa | 2.7V | 00:00:00 | 01:35:05 | 08:30:00 | |
| OE5MMP-10 | 2026-09-01 16:45:21 | 47.85446 | 11.81356 | 67° | 31km/h | 18019m | 4.2m/s | -53.7°C | 4.4% | 80.1hPa | 2.6V | 00:00:00 | 01:35:02 | 08:30:00 | |
| DB0UT-7 | 2026-09-01 16:45:18 | 47.85435 | 11.81325 | 60° | 33km/h | 18004m | 4.3m/s | -53.5°C | 4.4% | 80.3hPa | 2.7V | 00:00:00 | 01:34:59 | 00:00:00 | |
| OE5WHR-10 | 2026-09-01 16:45:17 | 47.85431 | 11.81315 | 62° | 33km/h | 17999m | 6.0m/s | -53.5°C | 4.4% | 80.3hPa | 2.7V | 00:00:00 | 01:34:58 | 00:00:00 | |
| OE3JTB-15 | 2026-09-01 16:45:16 | 47.85427 | 11.81305 | 63° | 35km/h | 17994m | 4.0m/s | 0°C | 0% | 0hPa | 2.7V | 00:00:00 | 01:34:57 | 00:00:00 | |
| DO3MHA-12 | 2026-09-01 16:45:14 | 47.85420 | 11.81284 | 61° | 33km/h | 17984m | 5.8m/s | -53.5°C | 4.5% | 80.5hPa | 2.7V | 00:00:00 | 01:34:55 | 00:00:00 | |
| DK5PH-5 | 2026-09-01 16:45:13 | 47.85416 | 11.81274 | 60° | 35km/h | 17979m | 4.7m/s | -53.4°C | 4.4% | 80.6hPa | 2.7V | 00:00:00 | 01:34:54 | 00:00:00 | |
| OE5DXL-15 | 2026-09-01 16:45:12 | 47.85412 | 11.81263 | 62° | 35km/h | 17973m | 6.0m/s | -53.4°C | 4.4% | 80.6hPa | 2.7V | 00:00:00 | 00:00:00 | 00:00:00 | |
| DO3MHA-11 | 2026-09-01 16:45:11 | 47.85408 | 11.81253 | 66° | 35km/h | 17968m | 5.4m/s | -53.4°C | 4.4% | 80.7hPa | 2.7V | 00:00:00 | 01:34:52 | 00:00:00 | |
| PG1ADW-2 | 2026-09-01 16:45:09 | 47.85402 | 11.81232 | 62° | 37km/h | 17958m | 5.7m/s | -53.3°C | 4.2% | 80.8hPa | 2.7V | 00:00:00 | 00:00:00 | 00:00:00 | |
| DG1MFX-10 | 2026-09-01 16:45:05 | 47.85389 | 11.81199 | 64° | 35km/h | 17942m | 5.9m/s | -53.3°C | 1.4% | 81.1hPa | 2.7V | 00:00:00 | 00:00:00 | 00:00:00 | |
| DO3MHA-12 | 2026-09-01 16:45:04 | 47.85381 | 11.81175 | 62° | 33km/h | 17931m | 6.5m/s | -53.2°C | 4.2% | 81.2hPa | 2.7V | 00:00:00 | 01:34:45 | 00:00:00 | |
| DL6DJ-15 | 2026-09-01 16:44:59 | 47.85361 | 11.81116 | 64° | 31km/h | 17905m | 5.4m/s | -53.4°C | 1.4% | 81.5hPa | 2.7V | 00:00:00 | 00:00:00 | 00:00:00 | |
| NBG1-10 | 2026-09-01 16:44:57 | 47.85353 | 11.81095 | 62° | 37km/h | 17894m | 4.8m/s | -53.3°C | 4.3% | 81.6hPa | 2.7V | 00:00:00 | 01:34:38 | 00:00:00 | |
| OE5WHR-10 | 2026-09-01 16:44:56 | 47.85349 | 11.81085 | 62° | 37km/h | 17888m | 6.3m/s | -53.3°C | 4.3% | 81.7hPa | 2.7V | 00:00:00 | 00:00:00 | 00:00:00 | |
| DO3MHA-12 | 2026-09-01 16:44:54 | 47.85344 | 11.81065 | 72° | 37km/h | 17878m | 5.0m/s | -53.2°C | 4.3% | 81.8hPa | 2.6V | 00:00:00 | 01:34:35 | 00:00:00 | |
| OE5DRO-10 | 2026-09-01 16:44:52 | 47.85339 | 11.81042 | 76° | 38km/h | 17865m | 4.8m/s | -53.3°C | 4.2% | 82.0hPa | 2.6V | 00:00:00 | 00:00:00 | 00:00:00 | |
| DO3MHA-11 | 2026-09-01 16:44:51 | 47.85336 | 11.81028 | 76° | 38km/h | 17861m | 4.3m/s | -53.3°C | 4.2% | 82.0hPa | 2.6V | 00:00:00 | 01:34:32 | 00:00:00 | |
| DB0UT-7 | 2026-09-01 16:44:48 | 47.85329 | 11.80989 | 79° | 38km/h | 17844m | 4.2m/s | -53.8°C | 4.4% | 82.3hPa | 2.6V | 00:00:00 | 00:00:00 | 00:00:00 | |
| DG1MFX-10 | 2026-09-01 16:44:45 | 47.85327 | 11.80962 | 89° | 38km/h | 17832m | 6.8m/s | -53.9°C | 1.4% | 82.5hPa | 2.6V | 00:00:00 | 00:00:00 | 00:00:00 | |
| DO3MHA-12 | 2026-09-01 16:44:44 | 47.85327 | 11.80932 | 91° | 40km/h | 17821m | 6.1m/s | -53.7°C | 4.3% | 82.6hPa | 2.6V | 00:00:00 | 01:34:25 | 00:00:00 | |
| OE3JTB-15 | 2026-09-01 16:44:43 | 47.85327 | 11.80917 | 90° | 38km/h | 17816m | 4.6m/s | 0°C | 0% | 0hPa | 2.6V | 00:00:00 | 00:00:00 | 00:00:00 | |
| OE5DXL-15 | 2026-09-01 16:44:42 | 47.85327 | 11.80902 | 90° | 37km/h | 17811m | 3.9m/s | -53.7°C | 4.3% | 82.7hPa | 2.6V | 00:00:00 | 00:00:00 | 00:00:00 | |
| DO3MHA-11 | 2026-09-01 16:44:41 | 47.85327 | 11.80887 | 91° | 38km/h | 17806m | 5.6m/s | -53.7°C | 4.3% | 82.8hPa | 2.6V | 00:00:00 | 01:34:22 | 00:00:00 | |
| DL2OL | 2026-09-01 16:44:37 | 47.85326 | 11.80841 | 86° | 38km/h | 17791m | 4.9m/s | -53.7°C | 1.4% | 83.0hPa | 2.6V | 00:00:00 | 00:00:00 | 00:00:00 | |
| OE5WHR-10 | 2026-09-01 16:44:35 | 47.85323 | 11.80799 | 85° | 35km/h | 17777m | 4.3m/s | -53.6°C | 4.4% | 83.2hPa | 2.6V | 00:00:00 | 00:00:00 | 00:00:00 | |
| DO3MHA-12 | 2026-09-01 16:44:34 | 47.85322 | 11.80786 | 85° | 38km/h | 17772m | 4.4m/s | -53.6°C | 4.3% | 83.2hPa | 2.6V | 00:00:00 | 01:34:15 | 00:00:00 | |
| OE5DRO-10 | 2026-09-01 16:44:33 | 47.85321 | 11.80772 | 85° | 35km/h | 17767m | 5.8m/s | -53.6°C | 4.3% | 83.3hPa | 2.6V | 00:00:00 | 00:00:00 | 08:30:00 | |
| PG1ADW-2 | 2026-09-01 16:44:32 | 47.85321 | 11.80760 | 86° | 35km/h | 17762m | 4.4m/s | -53.6°C | 4.3% | 83.3hPa | 2.6V | 00:00:00 | 00:00:00 | 00:00:00 | |
| DO3MHA-11 | 2026-09-01 16:44:31 | 47.85320 | 11.80747 | 88° | 38km/h | 17757m | 4.8m/s | -53.7°C | 4.3% | 83.4hPa | 2.6V | 00:00:00 | 01:34:12 | 00:00:00 | |
| DL6DJ-15 | 2026-09-01 16:44:28 | 47.85319 | 11.80704 | 84° | 38km/h | 17741m | 5.8m/s | -53.9°C | 1.4% | 83.7hPa | 2.7V | 00:00:00 | 00:00:00 | 00:00:00 | |
| DO3MHA-12 | 2026-09-01 16:44:24 | 47.85312 | 11.80644 | 78° | 33km/h | 17721m | 5.2m/s | -53.9°C | 4.5% | 83.9hPa | 2.7V | 00:00:00 | 01:34:05 | 00:00:00 | |
| DO3MHA-11 | 2026-09-01 16:44:21 | 47.85304 | 11.80604 | 71° | 29km/h | 17706m | 6.7m/s | -54.0°C | 4.5% | 84.1hPa | 2.7V | 00:00:00 | 01:34:02 | 00:00:00 | |
| DB0UT-7 | 2026-09-01 16:44:18 | 47.85295 | 11.80570 | 67° | 27km/h | 17690m | 6.2m/s | -53.9°C | 4.5% | 84.3hPa | 2.7V | 00:00:00 | 01:33:59 | 00:00:00 | |
| OE5WHR-10 | 2026-09-01 16:44:14 | 47.85287 | 11.80531 | 78° | 27km/h | 17669m | 3.8m/s | -53.9°C | 4.5% | 84.5hPa | 2.7V | 00:00:00 | 01:33:55 | 00:00:00 | |
| DK5PH-5 | 2026-09-01 16:44:13 | 47.85285 | 11.80520 | 73° | 27km/h | 17664m | 5.9m/s | -53.9°C | 4.6% | 84.6hPa | 2.7V | 00:00:00 | 01:33:54 | 00:00:00 | |
| OE5DXL-15 | 2026-09-01 16:44:12 | 47.85282 | 11.80510 | 65° | 27km/h | 17659m | 5.2m/s | -53.9°C | 4.6% | 84.7hPa | 2.7V | 00:00:00 | 00:00:00 | 00:00:00 | |
| DO3MHA-11 | 2026-09-01 16:44:11 | 47.85279 | 11.80499 | 60° | 31km/h | 17654m | 4.3m/s | -53.8°C | 4.6% | 84.8hPa | 2.6V | 00:00:00 | 01:33:52 | 00:00:00 | |
| DO3MHA-12 | 2026-09-01 16:44:04 | 47.85245 | 11.80434 | 56° | 26km/h | 17617m | 4.7m/s | -53.7°C | 4.4% | 85.2hPa | 2.6V | 00:00:00 | 01:33:45 | 00:00:00 | |
| DG1MFX-10 | 2026-09-01 16:44:03 | 47.85245 | 11.80434 | 56° | 31km/h | 17617m | 4.7m/s | -53.7°C | 1.5% | 85.3hPa | 2.6V | 00:00:00 | 00:00:00 | 00:00:00 | |
| OE5MMP-10 | 2026-09-01 16:44:02 | 47.85235 | 11.80405 | 67° | 26km/h | 17601m | 7.2m/s | -53.6°C | 4.4% | 85.5hPa | 2.6V | 00:00:00 | 01:33:42 | 00:00:00 | |
| DO3MHA-11 | 2026-09-01 16:44:01 | 47.85235 | 11.80405 | 67° | 26km/h | 17601m | 7.2m/s | -53.6°C | 4.4% | 85.5hPa | 2.6V | 00:00:00 | 01:33:42 | 08:30:00 | |
| BAUMI2-15 | 2026-09-01 16:43:57 | 47.85226 | 11.80370 | 73° | 26km/h | 17580m | 5.8m/s | -53.5°C | 4.4% | 85.8hPa | 2.6V | 00:00:00 | 01:33:38 | 00:00:00 | |
| OE5DRO-10 | 2026-09-01 16:43:55 | 47.85223 | 11.80353 | 77° | 24km/h | 17569m | 5.6m/s | -53.5°C | 4.3% | 85.9hPa | 2.6V | 00:00:00 | 00:00:00 | 00:00:00 | |
| DO3MHA-12 | 2026-09-01 16:43:54 | 47.85221 | 11.80344 | 75° | 24km/h | 17563m | 6.0m/s | -53.6°C | 4.4% | 86.0hPa | 2.6V | 00:00:00 | 01:33:35 | 08:30:00 | |
| OE5WHR-10 | 2026-09-01 16:43:53 | 47.85220 | 11.80334 | 74° | 24km/h | 17557m | 4.9m/s | -53.5°C | 4.4% | 86.0hPa | 2.7V | 00:00:00 | 00:00:00 | 00:00:00 | |
| BAUMI2-15 | 2026-09-01 16:43:52 | 47.85218 | 11.80325 | 77° | 24km/h | 17552m | 6.2m/s | -53.6°C | 4.4% | 86.1hPa | 2.7V | 00:00:00 | 01:33:33 | 00:00:00 | |
| DO3MHA-11 | 2026-09-01 16:43:51 | 47.85217 | 11.80317 | 76° | 22km/h | 17546m | 5.0m/s | -53.5°C | 4.4% | 86.2hPa | 2.7V | 00:00:00 | 01:33:32 | 00:00:00 | |
| DB0UT-7 | 2026-09-01 16:43:48 | 47.85212 | 11.80292 | 75° | 29km/h | 17531m | 4.7m/s | -53.5°C | 4.4% | 86.4hPa | 2.7V | 00:00:00 | 00:00:00 | 08:30:00 | |
| BAUMI2-15 | 2026-09-01 16:43:47 | 47.85210 | 11.80283 | 78° | 22km/h | 17527m | 4.9m/s | -53.4°C | 4.4% | 86.5hPa | 2.7V | 00:00:00 | 01:33:28 | 00:00:00 | |
| DO3MHA-12 | 2026-09-01 16:43:44 | 47.85208 | 11.80258 | 83° | 26km/h | 17510m | 6.9m/s | -53.5°C | 4.4% | 86.7hPa | 2.7V | 00:00:00 | 01:33:25 | 00:00:00 | |
| DK5PH-5 | 2026-09-01 16:43:43 | 47.85208 | 11.80249 | 82° | 33km/h | 17504m | 4.6m/s | -53.5°C | 4.3% | 86.8hPa | 2.7V | 00:00:00 | 01:33:24 | 00:00:00 | |
| OE5DXL-15 | 2026-09-01 16:43:42 | 47.85207 | 11.80241 | 84° | 33km/h | 17499m | 6.8m/s | -53.5°C | 4.3% | 86.8hPa | 2.7V | 00:00:00 | 00:00:00 | 00:00:00 | |
| DO3MHA-11 | 2026-09-01 16:43:41 | 47.85206 | 11.80233 | 85° | 27km/h | 17493m | 3.5m/s | -53.5°C | 4.4% | 86.9hPa | 2.7V | 00:00:00 | 01:33:22 | 00:00:00 | |
| BAUMI2-15 | 2026-09-01 16:43:37 | 47.85203 | 11.80197 | 81° | 29km/h | 17472m | 6.2m/s | -53.7°C | 4.4% | 87.2hPa | 2.7V | 00:00:00 | 01:33:18 | 00:00:00 | |
| OE5DRO-10 | 2026-09-01 16:43:36 | 47.85201 | 11.80187 | 80° | 35km/h | 17467m | 5.0m/s | -53.8°C | 4.4% | 87.3hPa | 2.7V | 00:00:00 | 00:00:00 | 00:00:00 | |
| DO3MHA-12 | 2026-09-01 16:43:34 | 47.85199 | 11.80165 | 83° | 31km/h | 17455m | 4.6m/s | -54.0°C | 4.6% | 87.4hPa | 2.7V | 00:00:00 | 01:33:15 | 00:00:00 | |
| OE5WHR-10 | 2026-09-01 16:43:32 | 47.85198 | 11.80143 | 92° | 37km/h | 17445m | 6.2m/s | -53.9°C | 4.5% | 87.6hPa | 2.7V | 00:00:00 | 00:00:00 | 00:00:00 | |
| DO3MHA-11 | 2026-09-01 16:43:31 | 47.85199 | 11.80133 | 95° | 35km/h | 17439m | 3.8m/s | -53.8°C | 4.5% | 87.6hPa | 2.7V | 00:00:00 | 01:33:12 | 00:00:00 | |
| OE3JTB-15 | 2026-09-01 16:43:30 | 47.85199 | 11.80123 | 94° | 58km/h | 17435m | 5.2m/s | 0°C | 0% | 0hPa | 2.6V | 00:00:00 | 01:33:11 | 00:00:00 | |
| DL6DJ-15 | 2026-09-01 16:43:27 | 47.85199 | 11.80072 | 84° | 35km/h | 17413m | 7.9m/s | -53.7°C | 1.5% | 88.0hPa | 2.6V | 00:00:00 | 00:00:00 | 00:00:00 | |
| BAUMI2-15 | 2026-09-01 16:43:25 | 47.85198 | 11.80059 | 83° | 38km/h | 17407m | 3.8m/s | -53.5°C | 4.4% | 88.1hPa | 2.6V | 00:00:00 | 01:33:06 | 00:00:00 | |
| DO3MHA-12 | 2026-09-01 16:43:24 | 47.85197 | 11.80045 | 84° | 38km/h | 17401m | 7.2m/s | -53.6°C | 4.5% | 88.1hPa | 2.6V | 00:00:00 | 01:33:05 | 00:00:00 | |
| DG1MFX-10 | 2026-09-01 16:43:22 | 47.85196 | 11.80030 | 86° | 40km/h | 17396m | 4.2m/s | -53.5°C | 1.5% | 88.3hPa | 2.7V | 00:00:00 | 00:00:00 | 00:00:00 | |
| DO3MHA-11 | 2026-09-01 16:43:21 | 47.85194 | 11.80001 | 86° | 37km/h | 17384m | 5.1m/s | -53.4°C | 4.4% | 88.4hPa | 2.7V | 00:00:00 | 01:33:02 | 00:00:00 | |
| BAUMI2-15 | 2026-09-01 16:43:20 | 47.85193 | 11.79986 | 89° | 40km/h | 17379m | 5.7m/s | -53.4°C | 4.4% | 88.5hPa | 2.7V | 00:00:00 | 01:33:01 | 00:00:00 | |
| NBG1-10 | 2026-09-01 16:43:18 | 47.85193 | 11.79955 | 92° | 35km/h | 17368m | 4.9m/s | -53.3°C | 4.3% | 88.7hPa | 2.7V | 00:00:00 | 01:32:59 | 00:00:00 | |
| OE5DRO-10 | 2026-09-01 16:43:17 | 47.85194 | 11.79940 | 92° | 35km/h | 17362m | 6.3m/s | -53.3°C | 4.4% | 88.7hPa | 2.7V | 00:00:00 | 00:00:00 | 00:00:00 | |
| BAUMI2-15 | 2026-09-01 16:43:15 | 47.85195 | 11.79913 | 93° | 33km/h | 17351m | 6.3m/s | -53.2°C | 4.3% | 88.9hPa | 2.7V | 00:00:00 | 01:32:56 | 00:00:00 | |
| DO3MHA-12 | 2026-09-01 16:43:14 | 47.85195 | 11.79899 | 90° | 33km/h | 17346m | 4.2m/s | -53.2°C | 4.3% | 89.0hPa | 2.6V | 00:00:00 | 01:32:55 | 00:00:00 | |
| DK5PH-5 | 2026-09-01 16:43:13 | 47.85194 | 11.79886 | 88° | 35km/h | 17341m | 6.8m/s | -53.2°C | 4.2% | 89.0hPa | 2.6V | 00:00:00 | 01:32:54 | 00:00:00 | |
| OE5DXL-15 | 2026-09-01 16:43:12 | 47.85194 | 11.79875 | 83° | 35km/h | 17335m | 5.3m/s | -53.1°C | 4.2% | 89.1hPa | 2.7V | 00:00:00 | 00:00:00 | 00:00:00 | |
| OE5WHR-10 | 2026-09-01 16:43:11 | 47.85192 | 11.79863 | 82° | 33km/h | 17329m | 5.5m/s | -53.1°C | 4.2% | 89.2hPa | 2.7V | 00:00:00 | 01:32:52 | 00:00:00 | |
| BAUMI2-15 | 2026-09-01 16:43:10 | 47.85191 | 11.79851 | 82° | 33km/h | 17323m | 6.1m/s | -53.2°C | 4.3% | 89.3hPa | 2.7V | 00:00:00 | 01:32:51 | 00:00:00 | |
| BAUMI2-15 | 2026-09-01 16:43:05 | 47.85188 | 11.79790 | 91° | 37km/h | 17298m | 6.0m/s | -53.1°C | 4.3% | 89.6hPa | 2.7V | 00:00:00 | 01:32:46 | 00:00:00 | |
| DO3MHA-12 | 2026-09-01 16:43:04 | 47.85188 | 11.79777 | 95° | 35km/h | 17292m | 5.4m/s | -53.1°C | 4.3% | 89.7hPa | 2.7V | 00:00:00 | 01:32:45 | 00:00:00 | |
| DO3MHA-11 | 2026-09-01 16:43:01 | 47.85191 | 11.79735 | 94° | 33km/h | 17277m | 5.2m/s | -53.1°C | 4.2% | 89.9hPa | 2.7V | 00:00:00 | 01:32:42 | 00:00:00 | |
| BAUMI2-15 | 2026-09-01 16:43:00 | 47.85191 | 11.79722 | 93° | 33km/h | 17271m | 5.3m/s | -53.0°C | 4.2% | 90.0hPa | 2.7V | 00:00:00 | 01:32:41 | 00:00:00 | |
| OE5DRO-10 | 2026-09-01 16:42:58 | 47.85192 | 11.79695 | 92° | 37km/h | 17259m | 5.0m/s | -53.1°C | 4.2% | 90.2hPa | 2.7V | 00:00:00 | 00:00:00 | 00:00:00 | |
| BAUMI2-15 | 2026-09-01 16:42:55 | 47.85193 | 11.79661 | 98° | 31km/h | 17243m | 5.4m/s | -53.5°C | 4.3% | 90.4hPa | 2.7V | 00:00:00 | 01:32:36 | 00:00:00 | |
| DO3MHA-12 | 2026-09-01 16:42:54 | 47.85195 | 11.79649 | 102° | 35km/h | 17237m | 5.7m/s | -53.5°C | 4.3% | 90.4hPa | 2.7V | 00:00:00 | 01:32:35 | 00:00:00 | |
| PG1ADW-2 | 2026-09-01 16:42:52 | 47.85199 | 11.79626 | 108° | 38km/h | 17226m | 6.1m/s | -53.6°C | 4.3% | 90.6hPa | 2.7V | 00:00:00 | 01:32:33 | 00:00:00 | |
| DO3MHA-11 | 2026-09-01 16:42:51 | 47.85201 | 11.79615 | 107° | 37km/h | 17221m | 4.7m/s | -53.6°C | 4.3% | 90.7hPa | 2.7V | 00:00:00 | 01:32:32 | 00:00:00 | |
| OE5WHR-10 | 2026-09-01 16:42:50 | 47.85203 | 11.79603 | 104° | 40km/h | 17215m | 6.1m/s | -53.7°C | 4.4% | 90.8hPa | 2.7V | 00:00:00 | 00:00:00 | 08:30:00 | |
| NBG1-10 | 2026-09-01 16:42:49 | 47.85205 | 11.79535 | 88° | 40km/h | 17188m | 6.5m/s | -54.0°C | 4.5% | 91.1hPa | 2.7V | 00:00:00 | 01:32:26 | 00:00:00 | |
| BAUMI2-15 | 2026-09-01 16:42:45 | 47.85205 | 11.79535 | 88° | 40km/h | 17188m | 6.5m/s | -54.0°C | 4.5% | 91.1hPa | 2.7V | 00:00:00 | 01:32:26 | 08:30:00 | |
| DO3MHA-12 | 2026-09-01 16:42:44 | 47.85205 | 11.79520 | 87° | 42km/h | 17182m | 4.9m/s | -54.2°C | 4.5% | 91.3hPa | 2.6V | 00:00:00 | 01:32:25 | 00:00:00 | |
| DK5PH-5 | 2026-09-01 16:42:43 | 47.85204 | 11.79504 | 88° | 40km/h | 17177m | 6.0m/s | -54.2°C | 4.5% | 91.3hPa | 2.6V | 00:00:00 | 01:32:24 | 00:00:00 | |
| OE5DXL-15 | 2026-09-01 16:42:42 | 47.85204 | 11.79489 | 88° | 40km/h | 17172m | 4.9m/s | -54.2°C | 4.5% | 91.4hPa | 2.6V | 00:00:00 | 00:00:00 | 08:30:00 | |
| DO3MHA-11 | 2026-09-01 16:42:41 | 47.85203 | 11.79474 | 89° | 42km/h | 17166m | 5.5m/s | -54.2°C | 4.5% | 91.5hPa | 2.7V | 00:00:00 | 01:32:22 | 00:00:00 | |
| BAUMI2-15 | 2026-09-01 16:42:40 | 47.85203 | 11.79458 | 90° | 42km/h | 17160m | 6.9m/s | -54.1°C | 4.4% | 91.6hPa | 2.7V | 00:00:00 | 01:32:21 | 00:00:00 | |
| OE5DRO-10 | 2026-09-01 16:42:39 | 47.85203 | 11.79442 | 92° | 40km/h | 17154m | 5.0m/s | -54.1°C | 4.5% | 91.7hPa | 2.7V | 00:00:00 | 00:00:00 | 00:00:00 | |
| DB0NH | 2026-09-01 16:42:38 | 47.85204 | 11.79427 | 93° | 38km/h | 17148m | 6.5m/s | -54.1°C | 4.5% | 91.7hPa | 2.7V | 00:00:00 | 01:32:19 | 00:00:00 | |
| DL2OL | 2026-09-01 16:42:36 | 47.85204 | 11.79411 | 95° | 40km/h | 17143m | 5.2m/s | -54.1°C | 1.5% | 91.8hPa | 2.7V | 00:00:00 | 00:00:00 | 00:00:00 | |
| BAUMI2-15 | 2026-09-01 16:42:34 | 47.85206 | 11.79362 | 90° | 44km/h | 17126m | 5.2m/s | -54.1°C | 4.6% | 92.0hPa | 2.7V | 00:00:00 | 01:32:15 | 00:00:00 | |
| PG1ADW-2 | 2026-09-01 16:42:32 | 47.85205 | 11.79331 | 86° | 38km/h | 17115m | 4.6m/s | -54.2°C | 4.6% | 92.2hPa | 2.7V | 00:00:00 | 00:00:00 | 00:00:00 | |
| OE5MMP-10 | 2026-09-01 16:42:31 | 47.85204 | 11.79315 | 84° | 38km/h | 17110m | 5.8m/s | -54.2°C | 4.6% | 92.3hPa | 2.7V | 00:00:00 | 01:32:12 | 00:00:00 | |
| OE5WHR-10 | 2026-09-01 16:42:29 | 47.85201 | 11.79282 | 80° | 38km/h | 17099m | 4.6m/s | -54.2°C | 4.5% | 92.4hPa | 2.7V | 00:00:00 | 00:00:00 | 00:00:00 | |
| DO3MHA-12 | 2026-09-01 16:42:24 | 47.85189 | 11.79210 | 84° | 37km/h | 17072m | 4.5m/s | -54.0°C | 4.5% | 92.8hPa | 2.7V | 00:00:00 | 01:32:05 | 08:30:00 | |
| DO3MHA-11 | 2026-09-01 16:42:21 | 47.85188 | 11.79173 | 97° | 38km/h | 17055m | 6.7m/s | -53.9°C | 4.5% | 93.1hPa | 2.7V | 00:00:00 | 01:32:02 | 00:00:00 | |
| OE5DRO-10 | 2026-09-01 16:42:20 | 47.85190 | 11.79160 | 100° | 40km/h | 17050m | 4.9m/s | -53.8°C | 4.5% | 93.2hPa | 2.7V | 00:00:00 | 00:00:00 | 00:00:00 | |
| BAUMI2-15 | 2026-09-01 16:42:19 | 47.85191 | 11.79145 | 99° | 40km/h | 17044m | 5.3m/s | -53.9°C | 4.5% | 93.2hPa | 2.7V | 00:00:00 | 01:32:00 | 00:00:00 | |
| DB0UT-7 | 2026-09-01 16:42:18 | 47.85193 | 11.79131 | 97° | 42km/h | 17039m | 5.3m/s | -53.9°C | 4.5% | 93.3hPa | 2.7V | 00:00:00 | 01:31:59 | 00:00:00 | |
| DO3MHA-12 | 2026-09-01 16:42:14 | 47.85195 | 11.79070 | 90° | 38km/h | 17018m | 5.6m/s | -53.8°C | 4.5% | 93.6hPa | 2.7V | 00:00:00 | 01:31:55 | 00:00:00 | |
| DK5PH-5 | 2026-09-01 16:42:13 | 47.85195 | 11.79056 | 89° | 42km/h | 17012m | 5.8m/s | -53.9°C | 4.5% | 93.7hPa | 2.7V | 00:00:00 | 01:31:54 | 00:00:00 | |
| OE5DXL-15 | 2026-09-01 16:42:12 | 47.85195 | 11.79042 | 89° | 42km/h | 17007m | 4.4m/s | -53.9°C | 4.5% | 93.7hPa | 2.7V | 00:00:00 | 00:00:00 | 00:00:00 | |
| DO3MHA-11 | 2026-09-01 16:42:11 | 47.85195 | 11.79029 | 91° | 42km/h | 17002m | 6.4m/s | -53.9°C | 4.5% | 93.8hPa | 2.7V | 00:00:00 | 01:31:52 | 00:00:00 | |
| BAUMI2-15 | 2026-09-01 16:42:09 | 47.85196 | 11.79001 | 98° | 42km/h | 16991m | 5.2m/s | -53.8°C | 4.5% | 94.0hPa | 2.7V | 00:00:00 | 01:31:50 | 00:00:00 | |
| OE5WHR-10 | 2026-09-01 16:42:08 | 47.85197 | 11.78987 | 101° | 44km/h | 16985m | 6.2m/s | -53.8°C | 4.5% | 94.1hPa | 2.7V | 00:00:00 | 01:31:49 | 00:00:00 | |
| DB0NH | 2026-09-01 16:42:07 | 47.85199 | 11.78973 | 103° | 44km/h | 16979m | 4.8m/s | -53.7°C | 4.5% | 94.1hPa | 2.7V | 00:00:00 | 01:31:48 | 00:00:00 | |
| DO3MHA-12 | 2026-09-01 16:42:04 | 47.85207 | 11.78925 | 102° | 46km/h | 16964m | 3.8m/s | -53.7°C | 4.5% | 94.4hPa | 2.7V | 00:00:00 | 01:31:45 | 00:00:00 | |
| DL6DJ-15 | 2026-09-01 16:41:53 | 47.85224 | 11.78742 | 95° | 42km/h | 16907m | 5.8m/s | -53.5°C | 1.5% | 95.3hPa | 2.7V | 00:00:00 | 00:00:00 | 00:00:00 | |
| PG1ADW-2 | 2026-09-01 16:41:52 | 47.85225 | 11.78726 | 93° | 42km/h | 16901m | 5.0m/s | -53.5°C | 4.5% | 95.3hPa | 2.7V | 00:00:00 | 00:00:00 | 00:00:00 | |
| DO3MHA-11 | 2026-09-01 16:41:51 | 47.85225 | 11.78711 | 90° | 42km/h | 16897m | 4.2m/s | -53.5°C | 4.4% | 95.4hPa | 2.7V | 00:00:00 | 01:31:32 | 00:00:00 | |
| DG1MJG | 2026-09-01 16:41:50 | 47.85225 | 11.78711 | 90° | 40km/h | 16897m | 4.3m/s | -53.5°C | 1.5% | 95.4hPa | 2.7V | 00:00:00 | 00:00:00 | 00:00:00 | |
| DB0UT-7 | 2026-09-01 16:41:48 | 47.85225 | 11.78663 | 91° | 42km/h | 16881m | 4.6m/s | -53.5°C | 4.4% | 95.6hPa | 2.7V | 00:00:00 | 00:00:00 | 00:00:00 | |
| OE5WHR-10 | 2026-09-01 16:41:47 | 47.85225 | 11.78647 | 93° | 42km/h | 16876m | 5.7m/s | -53.4°C | 4.4% | 95.7hPa | 2.7V | 00:00:00 | 00:00:00 | 00:00:00 | |
| DF1GD-15 | 2026-09-01 16:41:45 | 47.85226 | 11.78631 | 95° | 42km/h | 16871m | 4.6m/s | 0°C | 0% | 0hPa | 2.7V | 00:00:00 | 00:00:00 | 00:00:00 | |
| DO3MHA-12 | 2026-09-01 16:41:44 | 47.85227 | 11.78600 | 94° | 42km/h | 16861m | 4.3m/s | -53.4°C | 4.4% | 95.9hPa | 2.7V | 00:00:00 | 01:31:25 | 00:00:00 | |
| DK5PH-5 | 2026-09-01 16:41:43 | 47.85228 | 11.78584 | 93° | 42km/h | 16855m | 5.5m/s | -53.5°C | 4.4% | 96.0hPa | 2.7V | 00:00:00 | 01:31:24 | 08:30:00 | |
| OE5DXL-15 | 2026-09-01 16:41:42 | 47.85228 | 11.78569 | 92° | 42km/h | 16850m | 5.6m/s | -53.5°C | 4.5% | 96.1hPa | 2.7V | 00:00:00 | 00:00:00 | 00:00:00 | |
| DO3MHA-11 | 2026-09-01 16:41:41 | 47.85228 | 11.78553 | 91° | 42km/h | 16845m | 4.6m/s | -53.4°C | 4.4% | 96.1hPa | 2.7V | 00:00:00 | 01:31:22 | 00:00:00 | |
| NBG1-10 | 2026-09-01 16:41:39 | 47.85228 | 11.78522 | 90° | 44km/h | 16834m | 4.6m/s | -53.3°C | 4.5% | 96.3hPa | 2.7V | 00:00:00 | 01:31:20 | 00:00:00 | |
| DF2AP-13 | 2026-09-01 16:41:38 | 47.85228 | 11.78506 | 87° | 44km/h | 16829m | 4.8m/s | -53.4°C | 4.5% | 96.4hPa | 2.7V | 00:00:00 | 01:31:19 | 00:00:00 | |
| DF7PN | 2026-09-01 16:41:37 | 47.85227 | 11.78490 | 84° | 38km/h | 16823m | 6.2m/s | -53.4°C | 1.5% | 96.5hPa | 2.7V | 00:00:00 | 00:00:00 | 00:00:00 | |
| DO3MHA-12 | 2026-09-01 16:41:34 | 47.85222 | 11.78445 | 79° | 44km/h | 16808m | 4.8m/s | -53.4°C | 4.4% | 96.7hPa | 2.7V | 00:00:00 | 01:31:15 | 00:00:00 | |
| DN1GJH-1 | 2026-09-01 16:41:33 | 47.85222 | 11.78445 | 80° | 42km/h | 16808m | 4.8m/s | -53.4°C | 1.6% | 96.8hPa | 2.7V | 00:00:00 | 00:00:00 | 00:00:00 | |
| PG1ADW-2 | 2026-09-01 16:41:32 | 47.85218 | 11.78415 | 77° | 42km/h | 16797m | 4.8m/s | -53.3°C | 4.3% | 96.9hPa | 2.7V | 00:00:00 | 01:31:13 | 00:00:00 | |
| DO3MHA-11 | 2026-09-01 16:41:31 | 47.85215 | 11.78400 | 77° | 44km/h | 16792m | 5.3m/s | -53.3°C | 4.3% | 97.0hPa | 2.7V | 00:00:00 | 01:31:12 | 00:00:00 | |
| IN3HCDX | 2026-09-01 16:41:28 | 47.85210 | 11.78368 | 79° | 46km/h | 16781m | 3.3m/s | -53.3°C | 1.5% | 97.2hPa | 2.7V | 00:00:00 | 00:00:00 | 00:00:00 | |
| DB0NH | 2026-09-01 16:41:27 | 47.85205 | 11.78336 | 75° | 47km/h | 16772m | 5.2m/s | -53.2°C | 4.2% | 97.3hPa | 2.7V | 00:00:00 | 01:31:08 | 00:00:00 | |
| OE5WHR-10 | 2026-09-01 16:41:26 | 47.85202 | 11.78321 | 74° | 44km/h | 16767m | 4.2m/s | -53.4°C | 4.3% | 97.3hPa | 2.7V | 00:00:00 | 00:00:00 | 00:00:00 | |
| OE5DRO-10 | 2026-09-01 16:41:23 | 47.85193 | 11.78272 | 76° | 44km/h | 16752m | 6.1m/s | -53.4°C | 4.4% | 97.6hPa | 2.7V | 00:00:00 | 00:00:00 | 00:00:00 | |
| DL6DJ-15 | 2026-09-01 16:41:22 | 47.85191 | 11.78257 | 79° | 38km/h | 16746m | 4.7m/s | -53.5°C | 1.5% | 97.7hPa | 2.7V | 00:00:00 | 00:00:00 | 00:00:00 | |
| DO3MHA-11 | 2026-09-01 16:41:21 | 47.85189 | 11.78243 | 83° | 44km/h | 16742m | 4.5m/s | -53.4°C | 4.5% | 97.7hPa | 2.7V | 00:00:00 | 01:31:02 | 00:00:00 | |
| DG1MJG | 2026-09-01 16:41:20 | 47.85189 | 11.78243 | 84° | 38km/h | 16742m | 4.6m/s | -53.5°C | 1.6% | 97.7hPa | 2.7V | 00:00:00 | 00:00:00 | 00:00:00 | |
| DB0UT-7 | 2026-09-01 16:41:18 | 47.85186 | 11.78196 | 87° | 49km/h | 16727m | 4.3m/s | -53.5°C | 4.5% | 97.9hPa | 2.7V | 00:00:00 | 01:30:59 | 00:00:00 | |
| DO3MHA-12 | 2026-09-01 16:41:14 | 47.85183 | 11.78132 | 84° | 47km/h | 16707m | 4.7m/s | -53.5°C | 4.3% | 98.2hPa | 2.7V | 00:00:00 | 01:30:55 | 00:00:00 | |
| DK5PH-5 | 2026-09-01 16:41:13 | 47.85181 | 11.78114 | 84° | 51km/h | 16702m | 4.9m/s | -53.5°C | 4.3% | 98.3hPa | 2.7V | 00:00:00 | 01:30:54 | 00:00:00 | |
| OE5DXL-15 | 2026-09-01 16:41:12 | 47.85180 | 11.78097 | 83° | 53km/h | 16697m | 5.5m/s | -53.5°C | 4.4% | 98.4hPa | 2.7V | 00:00:00 | 00:00:00 | 00:00:00 | |
| DO3MHA-11 | 2026-09-01 16:41:11 | 47.85179 | 11.78080 | 85° | 47km/h | 16692m | 4.4m/s | -53.5°C | 4.4% | 98.5hPa | 2.7V | 00:00:00 | 01:30:52 | 00:00:00 | |
| DF2AP-13 | 2026-09-01 16:41:08 | 47.85175 | 11.78027 | 86° | 53km/h | 16676m | 6.7m/s | -53.6°C | 4.5% | 98.7hPa | 2.7V | 00:00:00 | 01:30:49 | 00:00:00 | |
| IN3HCDX | 2026-09-01 16:41:07 | 47.85175 | 11.78027 | 86° | 46km/h | 16676m | 6.7m/s | -53.6°C | 1.6% | 98.7hPa | 2.7V | 00:00:00 | 00:00:00 | 00:00:00 | |
| NBG1-10 | 2026-09-01 16:41:06 | 47.85175 | 11.77992 | 91° | 53km/h | 16665m | 6.6m/s | -53.5°C | 4.4% | 98.8hPa | 2.7V | 00:00:00 | 01:30:47 | 00:00:00 | |
| OE5WHR-10 | 2026-09-01 16:41:05 | 47.85175 | 11.77974 | 91° | 53km/h | 16660m | 4.2m/s | -53.5°C | 4.4% | 98.9hPa | 2.7V | 00:00:00 | 01:30:46 | 00:00:00 | |
| DO3MHA-12 | 2026-09-01 16:41:04 | 47.85175 | 11.77956 | 91° | 55km/h | 16654m | 7.0m/s | -53.5°C | 4.4% | 99.0hPa | 2.7V | 00:00:00 | 01:30:45 | 00:00:00 | |
| DO3MHA-11 | 2026-09-01 16:41:01 | 47.85177 | 11.77898 | 94° | 55km/h | 16638m | 3.5m/s | -53.7°C | 4.5% | 99.3hPa | 2.7V | 00:00:00 | 01:30:42 | 08:30:00 | |
| DG1MFX-10 | 2026-09-01 16:40:58 | 47.85180 | 11.77856 | 96° | 55km/h | 16629m | 3.7m/s | -53.8°C | 1.6% | 99.5hPa | 2.7V | 00:00:00 | 00:00:00 | 00:00:00 | |
| DB0NH | 2026-09-01 16:40:57 | 47.85181 | 11.77814 | 93° | 55km/h | 16620m | 5.4m/s | -53.9°C | 4.5% | 99.6hPa | 2.7V | 00:00:00 | 01:30:38 | 00:00:00 | |
| DO3MHA-12 | 2026-09-01 16:40:54 | 47.85182 | 11.77752 | 92° | 53km/h | 16604m | 3.3m/s | -53.9°C | 4.5% | 99.8hPa | 2.6V | 00:00:00 | 01:30:35 | 08:30:00 | |
| PG1ADW-2 | 2026-09-01 16:40:52 | 47.85183 | 11.77712 | 90° | 55km/h | 16594m | 3.8m/s | -53.9°C | 4.5% | 100.0hPa | 2.6V | 00:00:00 | 00:00:00 | 00:00:00 | |
| DO3MHA-11 | 2026-09-01 16:40:51 | 47.85183 | 11.77693 | 92° | 55km/h | 16589m | 5.4m/s | -53.9°C | 4.5% | 100.0hPa | 2.6V | 00:00:00 | 01:30:32 | 00:00:00 | |
| DG1MJG | 2026-09-01 16:40:50 | 47.85182 | 11.77693 | 92° | 51km/h | 16589m | 5.5m/s | -54.0°C | 1.6% | 100.1hPa | 2.6V | 00:00:00 | 00:00:00 | 00:00:00 | |
| DB0UT-7 | 2026-09-01 16:40:48 | 47.85184 | 11.77634 | 93° | 55km/h | 16575m | 4.5m/s | -54.2°C | 4.7% | 100.3hPa | 2.6V | 00:00:00 | 00:00:00 | 00:00:00 | |
| OE5DRO-10 | 2026-09-01 16:40:45 | 47.85186 | 11.77573 | 90° | 55km/h | 16560m | 4.2m/s | -54.2°C | 4.7% | 100.5hPa | 2.7V | 00:00:00 | 00:00:00 | 00:00:00 | |
| OE5WHR-10 | 2026-09-01 16:40:44 | 47.85185 | 11.77552 | 88° | 53km/h | 16556m | 5.5m/s | -54.2°C | 4.6% | 100.6hPa | 2.7V | 00:00:00 | 00:00:00 | 00:00:00 | |
| DK5PH-5 | 2026-09-01 16:40:43 | 47.85184 | 11.77530 | 83° | 55km/h | 16551m | 4.2m/s | -54.1°C | 4.6% | 100.6hPa | 2.6V | 00:00:00 | 01:30:24 | 00:00:00 | |
| OE5DXL-15 | 2026-09-01 16:40:42 | 47.85182 | 11.77510 | 82° | 55km/h | 16546m | 4.8m/s | -54.1°C | 4.6% | 100.7hPa | 2.6V | 00:00:00 | 00:00:00 | 00:00:00 | |
| DO3MHA-11 | 2026-09-01 16:40:41 | 47.85180 | 11.77490 | 82° | 55km/h | 16541m | 4.9m/s | -54.1°C | 4.6% | 100.8hPa | 2.6V | 00:00:00 | 01:30:22 | 00:00:00 | |
| DF2AP-13 | 2026-09-01 16:40:38 | 47.85173 | 11.77431 | 78° | 55km/h | 16527m | 4.1m/s | 0°C | 0% | 0hPa | 2.6V | 00:00:00 | 01:30:19 | 00:00:00 | |
| DG1MFX-10 | 2026-09-01 16:40:37 | 47.85173 | 11.77431 | 79° | 55km/h | 16527m | 4.2m/s | -54.2°C | 1.7% | 101.0hPa | 2.6V | 00:00:00 | 00:00:00 | 00:00:00 | |
| DF1GD-15 | 2026-09-01 16:40:36 | 47.85170 | 11.77411 | 80° | 55km/h | 16523m | 3.4m/s | 0°C | 0% | 0hPa | 2.6V | 00:00:00 | 00:00:00 | 00:00:00 | |
| DO3MHA-12 | 2026-09-01 16:40:34 | 47.85163 | 11.77351 | 82° | 55km/h | 16509m | 5.3m/s | -54.1°C | 4.5% | 101.3hPa | 2.6V | 00:00:00 | 01:30:15 | 00:00:00 | |
| NBG1-10 | 2026-09-01 16:40:33 | 47.85161 | 11.77330 | 83° | 57km/h | 16505m | 4.1m/s | -54.1°C | 4.5% | 101.4hPa | 2.6V | 00:00:00 | 01:30:14 | 00:00:00 | |
| PG1ADW-2 | 2026-09-01 16:40:32 | 47.85160 | 11.77309 | 86° | 55km/h | 16500m | 5.1m/s | -54.1°C | 4.5% | 101.4hPa | 2.7V | 00:00:00 | 00:00:00 | 00:00:00 | |
| OE5MMP-10 | 2026-09-01 16:40:31 | 47.85159 | 11.77288 | 89° | 53km/h | 16495m | 4.9m/s | -54.3°C | 4.6% | 101.5hPa | 2.7V | 00:00:00 | 01:30:12 | 00:00:00 | |
| DB0NH | 2026-09-01 16:40:27 | 47.85159 | 11.77206 | 90° | 60km/h | 16477m | 3.2m/s | -54.4°C | 4.6% | 101.8hPa | 2.7V | 00:00:00 | 01:30:08 | 00:00:00 | |
| OE5DRO-10 | 2026-09-01 16:40:26 | 47.85159 | 11.77186 | 90° | 55km/h | 16472m | 5.4m/s | -54.4°C | 4.6% | 101.9hPa | 2.7V | 00:00:00 | 00:00:00 | 00:00:00 | |
| DO3MHA-12 | 2026-09-01 16:40:24 | 47.85159 | 11.77150 | 92° | 55km/h | 16463m | 4.0m/s | -54.4°C | 4.7% | 102.0hPa | 2.7V | 00:00:00 | 01:30:05 | 00:00:00 | |
| OE5WHR-10 | 2026-09-01 16:40:23 | 47.85159 | 11.77132 | 90° | 57km/h | 16459m | 5.1m/s | -54.4°C | 4.7% | 102.1hPa | 2.6V | 00:00:00 | 00:00:00 | 00:00:00 | |
| DO3MHA-11 | 2026-09-01 16:40:21 | 47.85159 | 11.77092 | 92° | 57km/h | 16450m | 4.9m/s | -54.6°C | 4.8% | 102.2hPa | 2.6V | 00:00:00 | 01:30:02 | 00:00:00 | |
| DG1MJG | 2026-09-01 16:40:19 | 47.85159 | 11.77070 | 94° | 58km/h | 16445m | 4.7m/s | -54.7°C | 1.7% | 102.4hPa | 2.6V | 00:00:00 | 00:00:00 | 00:00:00 | |
| DB0UT-7 | 2026-09-01 16:40:18 | 47.85161 | 11.77026 | 92° | 60km/h | 16436m | 5.2m/s | -54.6°C | 4.8% | 102.5hPa | 2.6V | 00:00:00 | 01:29:59 | 00:00:00 | |
| DG1MFX-10 | 2026-09-01 16:40:16 | 47.85161 | 11.77004 | 92° | 57km/h | 16431m | 3.9m/s | -54.6°C | 1.7% | 102.5hPa | 2.6V | 00:00:00 | 00:00:00 | 00:00:00 | |
| DO3MHA-12 | 2026-09-01 16:40:14 | 47.85164 | 11.76942 | 95° | 57km/h | 16417m | 4.9m/s | -54.5°C | 4.7% | 102.7hPa | 2.6V | 00:00:00 | 01:29:55 | 00:00:00 | |
| DK5PH-5 | 2026-09-01 16:40:13 | 47.85164 | 11.76922 | 93° | 62km/h | 16413m | 4.1m/s | -54.5°C | 4.8% | 102.8hPa | 2.6V | 00:00:00 | 01:29:54 | 00:00:00 | |
| OE5DXL-15 | 2026-09-01 16:40:12 | 47.85165 | 11.76901 | 93° | 64km/h | 16409m | 3.4m/s | -54.5°C | 4.7% | 102.9hPa | 2.7V | 00:00:00 | 00:00:00 | 00:00:00 | |
| OE5MMP-10 | 2026-09-01 16:40:11 | 47.85166 | 11.76881 | 95° | 58km/h | 16405m | 5.2m/s | -54.5°C | 4.6% | 102.9hPa | 2.7V | 00:00:00 | 01:29:52 | 00:00:00 | |
| DF2AP-13 | 2026-09-01 16:40:08 | 47.85169 | 11.76817 | 91° | 64km/h | 16391m | 4.9m/s | 0°C | 0% | 0hPa | 2.7V | 00:00:00 | 01:29:49 | 00:00:00 | |
| OE5DRO-10 | 2026-09-01 16:40:07 | 47.85169 | 11.76795 | 92° | 62km/h | 16386m | 3.8m/s | -54.3°C | 4.5% | 103.2hPa | 2.7V | 00:00:00 | 00:00:00 | 00:00:00 | |
| DO3MHA-12 | 2026-09-01 16:40:04 | 47.85173 | 11.76729 | 96° | 62km/h | 16372m | 5.1m/s | -54.3°C | 4.5% | 103.5hPa | 2.7V | 00:00:00 | 01:29:45 | 00:00:00 | |
| DH7VM-15 | 2026-09-01 16:40:03 | 47.85173 | 11.76729 | 96° | 58km/h | 16372m | 5.1m/s | 0°C | 0% | 0hPa | 2.7V | 00:00:00 | 00:00:00 | 00:00:00 | |
| DL6DJ-15 | 2026-09-01 16:39:49 | 47.85196 | 11.76349 | 94° | 68km/h | 16301m | 4.5m/s | -55.1°C | 1.7% | 104.7hPa | 2.7V | 00:00:00 | 00:00:00 | 00:00:00 | |
| BAUMI2-15 | 2026-09-01 16:39:48 | 47.85195 | 11.76349 | 95° | 71km/h | 16301m | 4.5m/s | -55.0°C | 4.8% | 104.6hPa | 2.7V | 00:00:00 | 01:29:29 | 00:00:00 | |
| IN3HCDX | 2026-09-01 16:39:46 | 47.85197 | 11.76323 | 93° | 71km/h | 16296m | 6.4m/s | -55.1°C | 1.8% | 104.8hPa | 2.7V | 00:00:00 | 00:00:00 | 00:00:00 | |
| DO3MHA-12 | 2026-09-01 16:39:44 | 47.85196 | 11.76242 | 89° | 69km/h | 16280m | 3.5m/s | -55.1°C | 4.9% | 105.0hPa | 2.7V | 00:00:00 | 01:29:25 | 00:00:00 | |
| DK5PH-5 | 2026-09-01 16:39:43 | 47.85195 | 11.76215 | 87° | 68km/h | 16276m | 5.7m/s | -55.1°C | 4.8% | 105.0hPa | 2.7V | 00:00:00 | 01:29:24 | 00:00:00 | |
| OE5DXL-15 | 2026-09-01 16:39:42 | 47.85193 | 11.76188 | 85° | 68km/h | 16271m | 3.8m/s | -55.1°C | 4.9% | 105.1hPa | 2.7V | 00:00:00 | 00:00:00 | 00:00:00 | |
| DO3MHA-11 | 2026-09-01 16:39:41 | 47.85192 | 11.76163 | 85° | 69km/h | 16266m | 5.3m/s | -55.1°C | 4.9% | 105.2hPa | 2.7V | 00:00:00 | 01:29:22 | 00:00:00 | |
| BAUMI2-15 | 2026-09-01 16:39:38 | 47.85189 | 11.76087 | 87° | 69km/h | 16251m | 4.6m/s | -55.1°C | 4.8% | 105.5hPa | 2.7V | 00:00:00 | 01:29:19 | 00:00:00 | |
| DG1MFX-10 | 2026-09-01 16:39:36 | 47.85188 | 11.76062 | 90° | 68km/h | 16247m | 4.4m/s | -55.2°C | 1.8% | 105.6hPa | 2.7V | 00:00:00 | 00:00:00 | 00:00:00 | |
| DO3MHA-12 | 2026-09-01 16:39:34 | 47.85188 | 11.75984 | 90° | 71km/h | 16232m | 5.0m/s | -55.0°C | 4.8% | 105.8hPa | 2.7V | 00:00:00 | 01:29:15 | 00:00:00 | |
| DF7PN | 2026-09-01 16:39:33 | 47.85187 | 11.75931 | 88° | 71km/h | 16222m | 5.1m/s | -55.1°C | 1.7% | 106.0hPa | 2.7V | 00:00:00 | 00:00:00 | 00:00:00 | |
| OE5MMP-10 | 2026-09-01 16:39:31 | 47.85187 | 11.75903 | 88° | 68km/h | 16217m | 4.6m/s | -55.2°C | 4.9% | 106.0hPa | 2.7V | 00:00:00 | 01:29:12 | 00:00:00 | |
| OE5DRO-10 | 2026-09-01 16:39:29 | 47.85184 | 11.75848 | 84° | 68km/h | 16207m | 3.5m/s | -55.1°C | 4.9% | 106.2hPa | 2.7V | 00:00:00 | 00:00:00 | 00:00:00 | |
| NBG1-10 | 2026-09-01 16:39:27 | 47.85180 | 11.75794 | 87° | 66km/h | 16197m | 3.8m/s | -55.1°C | 5.0% | 106.4hPa | 2.7V | 00:00:00 | 01:29:08 | 00:00:00 | |
| IN3HCDX | 2026-09-01 16:39:26 | 47.85180 | 11.75768 | 88° | 68km/h | 16193m | 5.0m/s | -55.2°C | 1.8% | 106.5hPa | 2.7V | 00:00:00 | 00:00:00 | 00:00:00 | |
| DL2OL | 2026-09-01 16:39:25 | 47.85180 | 11.75768 | 88° | 68km/h | 16193m | 5.0m/s | -55.2°C | 1.8% | 106.5hPa | 2.7V | 00:00:00 | 00:00:00 | 00:00:00 | |
| DO3MHA-12 | 2026-09-01 16:39:24 | 47.85178 | 11.75719 | 89° | 64km/h | 16184m | 4.7m/s | -55.2°C | 4.9% | 106.6hPa | 2.7V | 00:00:00 | 01:29:05 | 08:30:00 | |
| BAUMI2-15 | 2026-09-01 16:39:23 | 47.85177 | 11.75696 | 91° | 62km/h | 16178m | 6.3m/s | -55.2°C | 5.0% | 106.7hPa | 2.7V | 00:00:00 | 01:29:04 | 00:00:00 | |
| DO3MHA-11 | 2026-09-01 16:39:21 | 47.85179 | 11.75651 | 92° | 68km/h | 16168m | 5.5m/s | -55.3°C | 5.0% | 106.8hPa | 2.7V | 00:00:00 | 01:29:02 | 00:00:00 | |
| OE5WHR-10 | 2026-09-01 16:39:20 | 47.85179 | 11.75629 | 91° | 68km/h | 16164m | 3.3m/s | -55.3°C | 5.0% | 106.9hPa | 2.7V | 00:00:00 | 00:00:00 | 00:00:00 | |
| DL6DJ-15 | 2026-09-01 16:39:18 | 47.85180 | 11.75556 | 88° | 68km/h | 16150m | 4.5m/s | -55.3°C | 1.8% | 107.2hPa | 2.7V | 00:00:00 | 00:00:00 | 00:00:00 | |
| DG1MFX-10 | 2026-09-01 16:39:15 | 47.85179 | 11.75530 | 87° | 69km/h | 16146m | 5.2m/s | -55.3°C | 1.8% | 107.3hPa | 2.7V | 00:00:00 | 00:00:00 | 00:00:00 | |
| DO3MHA-12 | 2026-09-01 16:39:14 | 47.85175 | 11.75477 | 84° | 69km/h | 16137m | 5.0m/s | -55.2°C | 4.9% | 107.3hPa | 2.7V | 00:00:00 | 01:28:55 | 00:00:00 | |
| BAUMI2-15 | 2026-09-01 16:39:13 | 47.85173 | 11.75450 | 84° | 71km/h | 16132m | 4.6m/s | -55.2°C | 4.9% | 107.4hPa | 2.7V | 00:00:00 | 01:28:54 | 08:30:00 | |
| OE5DXL-15 | 2026-09-01 16:39:12 | 47.85171 | 11.75422 | 83° | 66km/h | 16127m | 5.4m/s | -55.2°C | 5.0% | 107.5hPa | 2.7V | 00:00:00 | 00:00:00 | 00:00:00 | |
| OE5MMP-10 | 2026-09-01 16:39:11 | 47.85169 | 11.75395 | 82° | 66km/h | 16122m | 4.2m/s | -55.1°C | 5.0% | 107.6hPa | 2.7V | 00:00:00 | 01:28:52 | 00:00:00 | |
| OE5DRO-10 | 2026-09-01 16:39:10 | 47.85166 | 11.75369 | 83° | 64km/h | 16118m | 3.2m/s | -55.1°C | 4.9% | 107.7hPa | 2.7V | 00:00:00 | 00:00:00 | 00:00:00 | |
| BAUMI2-15 | 2026-09-01 16:39:08 | 47.85163 | 11.75318 | 86° | 66km/h | 16110m | 3.5m/s | -55.0°C | 4.9% | 107.8hPa | 2.7V | 00:00:00 | 01:28:49 | 00:00:00 | |
| DO3MHA-12 | 2026-09-01 16:39:04 | 47.85157 | 11.75221 | 88° | 64km/h | 16091m | 5.8m/s | -55.1°C | 4.9% | 108.1hPa | 2.7V | 00:00:00 | 01:28:45 | 00:00:00 | |
| BAUMI2-15 | 2026-09-01 16:39:03 | 47.85157 | 11.75197 | 88° | 62km/h | 16086m | 4.0m/s | -55.1°C | 4.8% | 108.2hPa | 2.7V | 00:00:00 | 01:28:44 | 00:00:00 | |
| DF7PN | 2026-09-01 16:39:02 | 47.85152 | 11.75007 | 91° | 62km/h | 16048m | 4.6m/s | -55.1°C | 1.8% | 108.9hPa | 2.7V | 00:00:00 | 00:00:00 | 00:00:00 | |
| DL6DJ-15 | 2026-09-01 16:38:46 | 47.85159 | 11.74791 | 89° | 64km/h | 16008m | 4.2m/s | -55.2°C | 1.8% | 109.6hPa | 2.7V | 00:00:00 | 00:00:00 | 00:00:00 | |
| DO3MHA-12 | 2026-09-01 16:38:44 | 47.85159 | 11.74740 | 91° | 71km/h | 15999m | 3.7m/s | -55.2°C | 5.0% | 109.7hPa | 2.7V | 00:00:00 | 01:28:25 | 00:00:00 | |
| BAUMI2-15 | 2026-09-01 16:38:43 | 47.85159 | 11.74713 | 91° | 71km/h | 15994m | 5.2m/s | -55.2°C | 4.9% | 109.8hPa | 2.7V | 00:00:00 | 01:28:24 | 00:00:00 | |
| DK5PH-5 | 2026-09-01 16:38:42 | 47.85159 | 11.74686 | 90° | 71km/h | 15990m | 3.5m/s | -55.2°C | 5.0% | 109.8hPa | 2.7V | 00:00:00 | 01:28:23 | 00:00:00 | |
| DO3MHA-11 | 2026-09-01 16:38:41 | 47.85159 | 11.74660 | 90° | 73km/h | 15986m | 4.7m/s | -55.3°C | 5.0% | 109.9hPa | 2.7V | 00:00:00 | 01:28:22 | 00:00:00 | |
| OE5WHR-10 | 2026-09-01 16:38:38 | 47.85158 | 11.74580 | 88° | 73km/h | 15970m | 6.5m/s | -55.3°C | 5.1% | 110.2hPa | 2.7V | 00:00:00 | 00:00:00 | 00:00:00 | |
| DO3MHA-12 | 2026-09-01 16:38:34 | 47.85155 | 11.74473 | 88° | 77km/h | 15949m | 5.6m/s | -55.3°C | 5.0% | 110.5hPa | 2.7V | 00:00:00 | 01:28:15 | 00:00:00 | |
| BAUMI2-15 | 2026-09-01 16:38:33 | 47.85155 | 11.74445 | 90° | 77km/h | 15944m | 3.8m/s | -55.3°C | 5.0% | 110.6hPa | 2.7V | 00:00:00 | 01:28:14 | 00:00:00 | |
| OE5DRO-10 | 2026-09-01 16:38:32 | 47.85154 | 11.74417 | 90° | 71km/h | 15939m | 5.6m/s | -55.4°C | 5.0% | 110.7hPa | 2.7V | 00:00:00 | 00:00:00 | 00:00:00 | |
| DF7PN | 2026-09-01 16:38:31 | 47.85153 | 11.74329 | 88° | 77km/h | 15925m | 5.6m/s | -55.5°C | 1.8% | 111.0hPa | 2.7V | 00:00:00 | 00:00:00 | 00:00:00 | |
| BAUMI2-15 | 2026-09-01 16:38:28 | 47.85152 | 11.74300 | 89° | 73km/h | 15920m | 4.7m/s | -55.4°C | 5.1% | 111.1hPa | 2.7V | 00:00:00 | 01:28:09 | 08:30:00 | |
| DL2OL | 2026-09-01 16:38:25 | 47.85151 | 11.74243 | 88° | 75km/h | 15911m | 4.4m/s | -55.4°C | 1.9% | 111.3hPa | 2.7V | 00:00:00 | 00:00:00 | 00:00:00 | |
| DO3MHA-12 | 2026-09-01 16:38:24 | 47.85150 | 11.74189 | 90° | 68km/h | 15901m | 4.4m/s | -55.2°C | 5.0% | 111.4hPa | 2.7V | 00:00:00 | 01:28:05 | 00:00:00 | |
| BAUMI2-15 | 2026-09-01 16:38:23 | 47.85150 | 11.74162 | 89° | 69km/h | 15895m | 6.5m/s | -55.2°C | 5.0% | 111.5hPa | 2.7V | 00:00:00 | 01:28:04 | 00:00:00 | |
| DO3MHA-11 | 2026-09-01 16:38:21 | 47.85149 | 11.74111 | 90° | 66km/h | 15886m | 5.6m/s | -55.3°C | 5.1% | 111.6hPa | 2.7V | 00:00:00 | 01:28:02 | 00:00:00 | |
| DB0NH | 2026-09-01 16:38:20 | 47.85148 | 11.74085 | 90° | 62km/h | 15881m | 3.9m/s | -55.3°C | 5.1% | 111.7hPa | 2.7V | 00:00:00 | 01:28:01 | 08:30:00 | |
| BAUMI2-15 | 2026-09-01 16:38:18 | 47.85147 | 11.74034 | 87° | 66km/h | 15871m | 4.0m/s | -55.2°C | 5.0% | 111.9hPa | 2.7V | 00:00:00 | 01:27:59 | 00:00:00 | |
| OE5WHR-10 | 2026-09-01 16:38:17 | 47.85146 | 11.74008 | 88° | 60km/h | 15866m | 5.3m/s | -55.1°C | 4.9% | 112.0hPa | 2.7V | 00:00:00 | 00:00:00 | 00:00:00 | |
| DL6DJ-15 | 2026-09-01 16:38:15 | 47.85145 | 11.73959 | 86° | 64km/h | 15855m | 5.4m/s | -55.1°C | 1.8% | 112.2hPa | 2.7V | 00:00:00 | 00:00:00 | 00:00:00 | |
| DO3MHA-12 | 2026-09-01 16:38:14 | 47.85143 | 11.73935 | 86° | 60km/h | 15851m | 4.7m/s | -55.0°C | 5.0% | 112.3hPa | 2.7V | 00:00:00 | 01:27:55 | 00:00:00 | |
| BAUMI2-15 | 2026-09-01 16:38:13 | 47.85142 | 11.73912 | 86° | 60km/h | 15846m | 5.1m/s | -55.0°C | 5.0% | 112.4hPa | 2.7V | 00:00:00 | 01:27:54 | 00:00:00 | |
| DK5PH-5 | 2026-09-01 16:38:12 | 47.85141 | 11.73889 | 86° | 68km/h | 15840m | 6.0m/s | -55.0°C | 5.1% | 112.5hPa | 2.7V | 00:00:00 | 01:27:53 | 00:00:00 | |
| DO3MHA-11 | 2026-09-01 16:38:11 | 47.85140 | 11.73867 | 86° | 60km/h | 15835m | 4.4m/s | -54.9°C | 5.0% | 112.6hPa | 2.7V | 00:00:00 | 01:27:52 | 00:00:00 | |
| IN3HCDX | 2026-09-01 16:38:10 | 47.85140 | 11.73867 | 86° | 60km/h | 15835m | 4.4m/s | -55.0°C | 1.9% | 112.6hPa | 2.7V | 00:00:00 | 00:00:00 | 00:00:00 | |
| BAUMI2-15 | 2026-09-01 16:38:08 | 47.85136 | 11.73801 | 86° | 60km/h | 15819m | 6.7m/s | -54.8°C | 4.9% | 112.8hPa | 2.7V | 00:00:00 | 01:27:49 | 00:00:00 | |
| DL2OL | 2026-09-01 16:38:05 | 47.85134 | 11.73755 | 88° | 60km/h | 15808m | 5.5m/s | -54.8°C | 1.9% | 113.1hPa | 2.7V | 00:00:00 | 00:00:00 | 00:00:00 | |
| DO3MHA-12 | 2026-09-01 16:38:04 | 47.85133 | 11.73710 | 89° | 58km/h | 15798m | 6.4m/s | -54.7°C | 4.9% | 113.2hPa | 2.7V | 00:00:00 | 01:27:45 | 00:00:00 | |
| BAUMI2-15 | 2026-09-01 16:38:03 | 47.85133 | 11.73688 | 90° | 64km/h | 15792m | 4.2m/s | -54.8°C | 4.9% | 113.3hPa | 2.7V | 00:00:00 | 01:27:44 | 00:00:00 | |
| DO3MHA-11 | 2026-09-01 16:38:01 | 47.85133 | 11.73642 | 92° | 58km/h | 15783m | 6.1m/s | -54.8°C | 4.8% | 113.5hPa | 2.7V | 00:00:00 | 01:27:42 | 08:30:00 | |
| OE5WHR-10 | 2026-09-01 16:37:56 | 47.85134 | 11.73532 | 91° | 62km/h | 15756m | 4.6m/s | -54.9°C | 4.9% | 114.0hPa | 2.7V | 00:00:00 | 01:27:37 | 00:00:00 | |
| DO3MHA-12 | 2026-09-01 16:37:54 | 47.85134 | 11.73489 | 91° | 62km/h | 15747m | 5.7m/s | -55.0°C | 5.0% | 114.1hPa | 2.7V | 00:00:00 | 01:27:35 | 08:30:00 | |
| DO3MHA-11 | 2026-09-01 16:37:51 | 47.85136 | 11.73419 | 95° | 64km/h | 15733m | 5.9m/s | -54.9°C | 5.0% | 114.4hPa | 2.7V | 00:00:00 | 01:27:32 | 00:00:00 | |
| DB0NH | 2026-09-01 16:37:50 | 47.85137 | 11.73397 | 96° | 66km/h | 15728m | 3.5m/s | -55.0°C | 5.0% | 114.5hPa | 2.7V | 00:00:00 | 01:27:31 | 00:00:00 | |
| IN3HCDX | 2026-09-01 16:37:49 | 47.85138 | 11.73397 | 96° | 60km/h | 15728m | 3.6m/s | -55.0°C | 1.9% | 114.5hPa | 2.7V | 00:00:00 | 00:00:00 | 00:00:00 | |
| NBG1-10 | 2026-09-01 16:37:48 | 47.85141 | 11.73350 | 97° | 69km/h | 15718m | 4.7m/s | -55.0°C | 5.0% | 114.6hPa | 2.7V | 00:00:00 | 01:27:29 | 00:00:00 | |
| DG1MJG | 2026-09-01 16:37:47 | 47.85141 | 11.73350 | 98° | 64km/h | 15718m | 4.8m/s | -55.1°C | 1.9% | 114.7hPa | 2.7V | 00:00:00 | 00:00:00 | 00:00:00 | |
| DO3MHA-12 | 2026-09-01 16:37:44 | 47.85149 | 11.73256 | 98° | 66km/h | 15699m | 5.2m/s | -55.0°C | 5.0% | 115.0hPa | 2.7V | 00:00:00 | 01:27:25 | 00:00:00 | |
| OE5DXL-15 | 2026-09-01 16:37:42 | 47.85153 | 11.73208 | 98° | 73km/h | 15689m | 4.8m/s | -55.1°C | 5.0% | 115.1hPa | 2.7V | 00:00:00 | 01:27:23 | 00:00:00 | |
| DO3MHA-11 | 2026-09-01 16:37:41 | 47.85155 | 11.73183 | 97° | 66km/h | 15684m | 5.8m/s | -55.0°C | 5.0% | 115.2hPa | 2.7V | 00:00:00 | 01:27:22 | 00:00:00 | |
| PG1ADW-2 | 2026-09-01 16:37:37 | 47.85162 | 11.73086 | 93° | 66km/h | 15665m | 4.1m/s | -55.0°C | 5.0% | 115.6hPa | 2.7V | 00:00:00 | 00:00:00 | 00:00:00 | |
| OE5WHR-10 | 2026-09-01 16:37:35 | 47.85163 | 11.73037 | 93° | 75km/h | 15655m | 7.0m/s | -55.1°C | 5.0% | 115.8hPa | 2.7V | 00:00:00 | 00:00:00 | 00:00:00 | |
| DO3MHA-12 | 2026-09-01 16:37:34 | 47.85164 | 11.73012 | 92° | 71km/h | 15649m | 4.1m/s | -55.2°C | 5.2% | 115.9hPa | 2.7V | 00:00:00 | 01:27:15 | 00:00:00 | |
| DO3MHA-11 | 2026-09-01 16:37:31 | 47.85166 | 11.72936 | 93° | 73km/h | 15634m | 5.5m/s | -55.4°C | 5.2% | 116.1hPa | 2.7V | 00:00:00 | 01:27:12 | 00:00:00 | |
| DL2OL | 2026-09-01 16:37:30 | 47.85166 | 11.72936 | 93° | 68km/h | 15634m | 5.5m/s | -55.4°C | 2.0% | 116.2hPa | 2.7V | 00:00:00 | 00:00:00 | 00:00:00 | |
| IN3HCDX | 2026-09-01 16:37:28 | 47.85167 | 11.72883 | 92° | 73km/h | 15624m | 5.2m/s | -55.4°C | 2.0% | 116.4hPa | 2.7V | 00:00:00 | 00:00:00 | 00:00:00 | |
| DO3MHA-12 | 2026-09-01 16:37:24 | 47.85167 | 11.72742 | 90° | 78km/h | 15596m | 6.6m/s | -55.2°C | 5.1% | 116.8hPa | 2.7V | 00:00:00 | 01:27:05 | 00:00:00 | |
| OE5MMP-10 | 2026-09-01 16:37:21 | 47.85166 | 11.72657 | 87° | 80km/h | 15581m | 5.8m/s | -55.3°C | 5.2% | 117.1hPa | 2.7V | 00:00:00 | 01:27:02 | 00:00:00 | |
| DB0NH | 2026-09-01 16:37:20 | 47.85164 | 11.72628 | 88° | 80km/h | 15576m | 4.3m/s | -55.3°C | 5.2% | 117.2hPa | 2.7V | 00:00:00 | 01:27:01 | 00:00:00 | |
| DB0UT-7 | 2026-09-01 16:37:18 | 47.85164 | 11.72571 | 90° | 84km/h | 15565m | 3.5m/s | -55.3°C | 5.2% | 117.4hPa | 2.7V | 00:00:00 | 01:26:59 | 00:00:00 | |
| NBG1-10 | 2026-09-01 16:37:17 | 47.85164 | 11.72479 | 91° | 84km/h | 15550m | 5.6m/s | -55.3°C | 5.1% | 117.7hPa | 2.7V | 00:00:00 | 01:26:56 | 08:30:00 | |
| DO3MHA-12 | 2026-09-01 16:37:16 | 47.85164 | 11.72448 | 92° | 82km/h | 15545m | 4.2m/s | -55.3°C | 5.2% | 117.8hPa | 2.7V | 00:00:00 | 01:26:55 | 00:00:00 | |
| OE5WHR-10 | 2026-09-01 16:37:14 | 47.85164 | 11.72448 | 92° | 84km/h | 15545m | 4.2m/s | -55.3°C | 5.2% | 117.8hPa | 2.7V | 00:00:00 | 00:00:00 | 00:00:00 | |
| DL6DJ-15 | 2026-09-01 16:37:13 | 47.85164 | 11.72417 | 90° | 82km/h | 15541m | 3.9m/s | -55.4°C | 2.0% | 117.9hPa | 2.7V | 00:00:00 | 00:00:00 | 00:00:00 | |
| OE5DXL-15 | 2026-09-01 16:37:12 | 47.85164 | 11.72386 | 90° | 84km/h | 15536m | 6.1m/s | -55.2°C | 5.2% | 118.0hPa | 2.7V | 00:00:00 | 00:00:00 | 00:00:00 | |
| OE5MMP-10 | 2026-09-01 16:37:11 | 47.85164 | 11.72354 | 87° | 82km/h | 15531m | 4.0m/s | -55.2°C | 5.2% | 118.1hPa | 2.7V | 00:00:00 | 01:26:52 | 00:00:00 | |
| DG1MFX-10 | 2026-09-01 16:37:10 | 47.85163 | 11.72354 | 88° | 84km/h | 15531m | 4.0m/s | -55.3°C | 2.0% | 118.1hPa | 2.7V | 00:00:00 | 00:00:00 | 00:00:00 | |
| DO8TBO-1 | 2026-09-01 16:37:09 | 47.85161 | 11.72292 | 85° | 84km/h | 15520m | 4.4m/s | -55.2°C | 5.1% | 118.3hPa | 2.7V | 00:00:00 | 01:26:50 | 00:00:00 | |
| IN3HCDX | 2026-09-01 16:37:07 | 47.85158 | 11.72262 | 84° | 80km/h | 15516m | 4.8m/s | -55.3°C | 2.0% | 118.4hPa | 2.7V | 00:00:00 | 00:00:00 | 00:00:00 | |
| DO3MHA-12 | 2026-09-01 16:37:04 | 47.85147 | 11.72144 | 84° | 86km/h | 15494m | 4.5m/s | -55.0°C | 5.1% | 118.7hPa | 2.7V | 00:00:00 | 01:26:45 | 00:00:00 | |
| DN1GJH-1 | 2026-09-01 16:37:02 | 47.85144 | 11.72113 | 85° | 82km/h | 15490m | 4.0m/s | -55.0°C | 2.0% | 118.9hPa | 2.7V | 00:00:00 | 00:00:00 | 00:00:00 | |
| DO3MHA-11 | 2026-09-01 16:37:01 | 47.85140 | 11.72050 | 83° | 86km/h | 15480m | 5.2m/s | -54.9°C | 5.1% | 119.0hPa | 2.7V | 00:00:00 | 01:26:42 | 00:00:00 | |
| OE5DRO-10 | 2026-09-01 16:36:57 | 47.85128 | 11.71923 | 83° | 84km/h | 15460m | 3.6m/s | -54.8°C | 5.0% | 119.4hPa | 2.7V | 00:00:00 | 00:00:00 | 00:00:00 | |
| DO3MHA-12 | 2026-09-01 16:36:54 | 47.85120 | 11.71826 | 84° | 84km/h | 15446m | 5.4m/s | -55.1°C | 5.0% | 119.7hPa | 2.7V | 00:00:00 | 01:26:35 | 00:00:00 | |
| OE5WHR-10 | 2026-09-01 16:36:53 | 47.85117 | 11.71793 | 84° | 80km/h | 15441m | 4.0m/s | -55.1°C | 5.1% | 119.7hPa | 2.7V | 00:00:00 | 01:26:34 | 00:00:00 | |
| DO3MHA-11 | 2026-09-01 16:36:51 | 47.85112 | 11.71730 | 81° | 82km/h | 15432m | 5.2m/s | -55.2°C | 5.1% | 119.9hPa | 2.7V | 00:00:00 | 01:26:32 | 00:00:00 | |
| DK5PH-5 | 2026-09-01 16:36:50 | 47.85108 | 11.71698 | 81° | 80km/h | 15427m | 4.2m/s | -55.3°C | 5.1% | 120.0hPa | 2.7V | 00:00:00 | 01:26:31 | 08:30:00 | |
| DG1MFX-10 | 2026-09-01 16:36:49 | 47.85108 | 11.71698 | 81° | 86km/h | 15427m | 4.3m/s | -55.4°C | 2.0% | 120.0hPa | 2.7V | 00:00:00 | 00:00:00 | 00:00:00 | |
| DB0UT-7 | 2026-09-01 16:36:48 | 47.85101 | 11.71636 | 80° | 80km/h | 15417m | 3.9m/s | -55.4°C | 5.2% | 120.2hPa | 2.7V | 00:00:00 | 00:00:00 | 00:00:00 | |
| DG1MJG | 2026-09-01 16:36:46 | 47.85093 | 11.71575 | 80° | 84km/h | 15406m | 4.1m/s | -55.5°C | 2.1% | 120.4hPa | 2.7V | 00:00:00 | 00:00:00 | 00:00:00 | |
| DH7VM-15 | 2026-09-01 16:36:45 | 47.85093 | 11.71575 | 80° | 84km/h | 15406m | 4.1m/s | 0°C | 0% | 0hPa | 2.7V | 00:00:00 | 00:00:00 | 00:00:00 | |
| DO3MHA-12 | 2026-09-01 16:36:44 | 47.85086 | 11.71514 | 82° | 78km/h | 15396m | 5.0m/s | -55.4°C | 5.3% | 120.6hPa | 2.7V | 00:00:00 | 01:26:25 | 00:00:00 | |
| OE5DXL-15 | 2026-09-01 16:36:42 | 47.85080 | 11.71454 | 82° | 78km/h | 15388m | 5.9m/s | -55.5°C | 5.3% | 120.7hPa | 2.7V | 00:00:00 | 00:00:00 | 00:00:00 | |
| OE5MMP-10 | 2026-09-01 16:36:41 | 47.85077 | 11.71424 | 81° | 77km/h | 15382m | 3.9m/s | -55.4°C | 5.2% | 120.8hPa | 2.7V | 00:00:00 | 01:26:22 | 00:00:00 | |
| DO8TBO-1 | 2026-09-01 16:36:40 | 47.85071 | 11.71367 | 82° | 78km/h | 15373m | 4.6m/s | -55.4°C | 5.2% | 121.0hPa | 2.7V | 00:00:00 | 01:26:20 | 00:00:00 | |
| OE5DRO-10 | 2026-09-01 16:36:38 | 47.85068 | 11.71338 | 82° | 78km/h | 15368m | 5.9m/s | -55.4°C | 5.2% | 121.1hPa | 2.7V | 00:00:00 | 00:00:00 | 00:00:00 | |
| DO3MHA-12 | 2026-09-01 16:36:34 | 47.85057 | 11.71224 | 83° | 78km/h | 15349m | 3.7m/s | -55.3°C | 5.3% | 121.5hPa | 2.7V | 00:00:00 | 01:26:15 | 00:00:00 | |
| OE5WHR-10 | 2026-09-01 16:36:32 | 47.85051 | 11.71166 | 81° | 78km/h | 15339m | 4.4m/s | -55.3°C | 5.3% | 121.7hPa | 2.7V | 00:00:00 | 00:00:00 | 08:30:00 | |
| OE5MMP-10 | 2026-09-01 16:36:31 | 47.85048 | 11.71137 | 81° | 80km/h | 15335m | 3.7m/s | -55.2°C | 5.3% | 121.7hPa | 2.7V | 00:00:00 | 01:26:12 | 00:00:00 | |
| DG1MFX-10 | 2026-09-01 16:36:29 | 47.85045 | 11.71109 | 82° | 77km/h | 15331m | 5.0m/s | -55.3°C | 2.1% | 121.9hPa | 2.7V | 00:00:00 | 00:00:00 | 00:00:00 | |
| IN3HCDX | 2026-09-01 16:36:27 | 47.85036 | 11.71024 | 82° | 78km/h | 15316m | 5.0m/s | -55.2°C | 2.1% | 122.2hPa | 2.7V | 00:00:00 | 00:00:00 | 00:00:00 | |
| DF7PN | 2026-09-01 16:36:26 | 47.85033 | 11.70994 | 82° | 78km/h | 15311m | 4.8m/s | -55.2°C | 2.1% | 122.3hPa | 2.7V | 00:00:00 | 00:00:00 | 00:00:00 | |
| DO3MHA-12 | 2026-09-01 16:36:24 | 47.85029 | 11.70934 | 86° | 80km/h | 15302m | 3.3m/s | -55.1°C | 5.3% | 122.4hPa | 2.7V | 00:00:00 | 01:26:05 | 08:30:00 | |
| DO3MHA-11 | 2026-09-01 16:36:21 | 47.85023 | 11.70840 | 84° | 78km/h | 15288m | 5.1m/s | -55.0°C | 5.2% | 122.7hPa | 2.7V | 00:00:00 | 01:26:02 | 00:00:00 | |
| DK5PH-5 | 2026-09-01 16:36:20 | 47.85020 | 11.70810 | 85° | 78km/h | 15283m | 5.1m/s | -55.0°C | 5.2% | 122.8hPa | 2.7V | 00:00:00 | 01:26:01 | 00:00:00 | |
| OE5DRO-10 | 2026-09-01 16:36:19 | 47.85018 | 11.70780 | 85° | 78km/h | 15278m | 4.7m/s | -55.0°C | 5.2% | 122.9hPa | 2.7V | 00:00:00 | 00:00:00 | 00:00:00 | |
| DB0UT-7 | 2026-09-01 16:36:18 | 47.85016 | 11.70751 | 84° | 78km/h | 15273m | 5.3m/s | -54.9°C | 5.2% | 123.0hPa | 2.7V | 00:00:00 | 01:25:59 | 00:00:00 | |
| DL2OL | 2026-09-01 16:36:17 | 47.85016 | 11.70751 | 84° | 78km/h | 15273m | 5.4m/s | -55.0°C | 2.1% | 123.0hPa | 2.7V | 00:00:00 | 00:00:00 | 00:00:00 | |
| DG1MJG | 2026-09-01 16:36:15 | 47.85012 | 11.70694 | 84° | 75km/h | 15262m | 6.4m/s | -54.9°C | 2.0% | 123.2hPa | 2.7V | 00:00:00 | 00:00:00 | 00:00:00 | |
| DO3MHA-12 | 2026-09-01 16:36:14 | 47.85007 | 11.70639 | 83° | 80km/h | 15252m | 5.8m/s | -54.8°C | 5.1% | 123.4hPa | 2.7V | 00:00:00 | 01:25:55 | 00:00:00 | |
| OE5DXL-15 | 2026-09-01 16:36:12 | 47.85002 | 11.70581 | 84° | 77km/h | 15241m | 5.0m/s | -54.8°C | 5.2% | 123.6hPa | 2.7V | 00:00:00 | 00:00:00 | 00:00:00 | |
| DO3MHA-11 | 2026-09-01 16:36:11 | 47.85000 | 11.70551 | 85° | 80km/h | 15236m | 5.0m/s | -54.8°C | 5.1% | 123.7hPa | 2.7V | 00:00:00 | 01:25:52 | 00:00:00 | |
| PG1ADW-2 | 2026-09-01 16:36:10 | 47.84997 | 11.70520 | 84° | 78km/h | 15231m | 6.1m/s | -54.8°C | 5.2% | 123.8hPa | 2.7V | 00:00:00 | 00:00:00 | 00:00:00 | |
| NBG1-10 | 2026-09-01 16:36:09 | 47.84995 | 11.70489 | 83° | 75km/h | 15225m | 4.6m/s | -54.7°C | 5.1% | 123.9hPa | 2.7V | 00:00:00 | 01:25:50 | 00:00:00 | |
| DO8TBO-1 | 2026-09-01 16:36:06 | 47.84988 | 11.70397 | 84° | 75km/h | 15210m | 5.3m/s | -54.6°C | 5.0% | 124.2hPa | 2.7V | 00:00:00 | 01:25:47 | 00:00:00 | |
| IN3HCDX | 2026-09-01 16:36:05 | 47.84988 | 11.70397 | 84° | 80km/h | 15210m | 5.4m/s | -54.7°C | 2.0% | 124.2hPa | 2.7V | 00:00:00 | 00:00:00 | 00:00:00 | |
| DO3MHA-12 | 2026-09-01 16:36:04 | 47.84982 | 11.70337 | 83° | 78km/h | 15200m | 4.3m/s | -54.7°C | 5.0% | 124.4hPa | 2.7V | 00:00:00 | 01:25:45 | 00:00:00 | |
| DF7PN | 2026-09-01 16:35:55 | 47.84961 | 11.70072 | 82° | 75km/h | 15155m | 4.1m/s | -54.8°C | 2.1% | 125.3hPa | 2.7V | 00:00:00 | 00:00:00 | 00:00:00 | |
| DO3MHA-12 | 2026-09-01 16:35:54 | 47.84959 | 11.70044 | 84° | 73km/h | 15150m | 5.4m/s | -54.7°C | 5.1% | 125.3hPa | 2.7V | 00:00:00 | 01:25:35 | 00:00:00 | |
| BAUMI2-15 | 2026-09-01 16:35:53 | 47.84957 | 11.70016 | 85° | 73km/h | 15145m | 4.3m/s | -54.7°C | 5.2% | 125.5hPa | 2.7V | 00:00:00 | 01:25:34 | 00:00:00 | |
| OE5MMP-10 | 2026-09-01 16:35:51 | 47.84953 | 11.69961 | 83° | 71km/h | 15135m | 5.0m/s | -54.6°C | 5.2% | 125.6hPa | 2.7V | 00:00:00 | 01:25:32 | 00:00:00 | |
| OE5WHR-10 | 2026-09-01 16:35:50 | 47.84950 | 11.69934 | 82° | 69km/h | 15131m | 4.4m/s | -54.6°C | 5.1% | 125.7hPa | 2.7V | 00:00:00 | 01:25:31 | 00:00:00 | |
| DG1MFX-10 | 2026-09-01 16:35:49 | 47.84950 | 11.69934 | 83° | 75km/h | 15131m | 4.4m/s | -54.6°C | 2.1% | 125.8hPa | 2.7V | 00:00:00 | 00:00:00 | 00:00:00 | |
| BAUMI2-15 | 2026-09-01 16:35:48 | 47.84945 | 11.69879 | 84° | 71km/h | 15121m | 3.9m/s | -54.5°C | 5.1% | 125.9hPa | 2.7V | 00:00:00 | 01:25:29 | 00:00:00 | |
| DO3MHA-12 | 2026-09-01 16:35:44 | 47.84934 | 11.69773 | 82° | 68km/h | 15101m | 6.1m/s | -54.4°C | 5.0% | 126.3hPa | 2.7V | 00:00:00 | 01:25:25 | 00:00:00 | |
| BAUMI2-15 | 2026-09-01 16:35:43 | 47.84931 | 11.69747 | 84° | 68km/h | 15096m | 4.6m/s | -54.4°C | 5.0% | 126.4hPa | 2.7V | 00:00:00 | 01:25:24 | 08:30:00 | |
| DL2OL | 2026-09-01 16:35:42 | 47.84931 | 11.69747 | 84° | 69km/h | 15096m | 4.7m/s | -54.4°C | 2.0% | 126.5hPa | 2.7V | 00:00:00 | 00:00:00 | 00:00:00 | |
| DO3MHA-11 | 2026-09-01 16:35:41 | 47.84927 | 11.69696 | 83° | 68km/h | 15086m | 5.1m/s | -54.4°C | 5.0% | 126.6hPa | 2.7V | 00:00:00 | 01:25:22 | 00:00:00 | |
| DL6DJ-15 | 2026-09-01 16:35:40 | 47.84925 | 11.69672 | 82° | 66km/h | 15080m | 5.8m/s | -54.5°C | 2.0% | 126.7hPa | 2.7V | 00:00:00 | 00:00:00 | 00:00:00 | |
| BAUMI2-15 | 2026-09-01 16:35:38 | 47.84920 | 11.69622 | 81° | 68km/h | 15070m | 4.8m/s | -54.6°C | 5.1% | 126.9hPa | 2.7V | 00:00:00 | 01:25:19 | 00:00:00 | |
| DO8TBO-1 | 2026-09-01 16:35:36 | 47.84906 | 11.69523 | 78° | 68km/h | 15049m | 4.6m/s | -54.6°C | 5.1% | 127.3hPa | 2.7V | 00:00:00 | 01:25:15 | 00:00:00 | |
| DO3MHA-12 | 2026-09-01 16:35:34 | 47.84906 | 11.69523 | 78° | 68km/h | 15049m | 4.6m/s | -54.6°C | 5.1% | 127.3hPa | 2.7V | 00:00:00 | 01:25:15 | 00:00:00 | |
| BAUMI2-15 | 2026-09-01 16:35:33 | 47.84902 | 11.69499 | 77° | 68km/h | 15045m | 4.6m/s | -54.6°C | 5.1% | 127.5hPa | 2.7V | 00:00:00 | 01:25:14 | 00:00:00 | |
| DO3MHA-11 | 2026-09-01 16:35:31 | 47.84894 | 11.69450 | 79° | 66km/h | 15035m | 6.2m/s | -54.6°C | 5.2% | 127.7hPa | 2.7V | 00:00:00 | 01:25:12 | 00:00:00 | |
| OE5WHR-10 | 2026-09-01 16:35:29 | 47.84888 | 11.69400 | 79° | 66km/h | 15025m | 5.6m/s | -54.5°C | 5.0% | 127.8hPa | 2.7V | 00:00:00 | 00:00:00 | 00:00:00 | |
| BAUMI2-15 | 2026-09-01 16:35:28 | 47.84884 | 11.69375 | 77° | 66km/h | 15020m | 4.5m/s | -54.5°C | 5.1% | 127.9hPa | 2.7V | 00:00:00 | 01:25:09 | 00:00:00 | |
| DO3MHA-12 | 2026-09-01 16:35:24 | 47.84870 | 11.69277 | 79° | 66km/h | 14999m | 6.3m/s | -54.4°C | 5.0% | 128.4hPa | 2.7V | 00:00:00 | 01:25:05 | 00:00:00 | |
| BAUMI2-15 | 2026-09-01 16:35:23 | 47.84867 | 11.69254 | 80° | 64km/h | 14994m | 4.2m/s | -54.4°C | 5.0% | 128.4hPa | 2.7V | 00:00:00 | 01:25:04 | 00:00:00 | |
| OE5DRO-10 | 2026-09-01 16:35:22 | 47.84864 | 11.69231 | 82° | 68km/h | 14989m | 6.4m/s | -54.4°C | 5.0% | 128.5hPa | 2.7V | 00:00:00 | 00:00:00 | 00:00:00 | |
| OE5MMP-10 | 2026-09-01 16:35:21 | 47.84862 | 11.69207 | 84° | 69km/h | 14983m | 3.8m/s | -54.4°C | 5.0% | 128.7hPa | 2.7V | 00:00:00 | 01:25:02 | 00:00:00 | |
| DK5PH-5 | 2026-09-01 16:35:20 | 47.84860 | 11.69184 | 83° | 68km/h | 14979m | 4.8m/s | -54.5°C | 5.1% | 128.7hPa | 2.7V | 00:00:00 | 01:25:01 | 00:00:00 | |
| BAUMI2-15 | 2026-09-01 16:35:18 | 47.84856 | 11.69135 | 82° | 71km/h | 14969m | 4.2m/s | -54.5°C | 5.1% | 128.9hPa | 2.7V | 00:00:00 | 01:24:59 | 00:00:00 | |
| DL2OL | 2026-09-01 16:35:15 | 47.84851 | 11.69082 | 85° | 73km/h | 14959m | 4.2m/s | -54.4°C | 2.1% | 129.2hPa | 2.7V | 00:00:00 | 00:00:00 | 00:00:00 | |
| DO3MHA-12 | 2026-09-01 16:35:14 | 47.84847 | 11.69029 | 83° | 68km/h | 14949m | 3.8m/s | -54.4°C | 5.1% | 129.4hPa | 2.7V | 00:00:00 | 01:24:55 | 00:00:00 | |
| BAUMI2-15 | 2026-09-01 16:35:13 | 47.84845 | 11.69003 | 83° | 68km/h | 14945m | 4.6m/s | -54.3°C | 5.0% | 129.4hPa | 2.7V | 00:00:00 | 01:24:54 | 00:00:00 | |
| OE5DXL-15 | 2026-09-01 16:35:12 | 47.84842 | 11.68976 | 83° | 69km/h | 14939m | 6.0m/s | -54.3°C | 5.0% | 129.5hPa | 2.7V | 00:00:00 | 00:00:00 | 00:00:00 | |
| OE5MMP-10 | 2026-09-01 16:35:11 | 47.84840 | 11.68950 | 83° | 68km/h | 14934m | 4.5m/s | -54.3°C | 5.0% | 129.7hPa | 2.7V | 00:00:00 | 01:24:52 | 00:00:00 | |
| PG1ADW-2 | 2026-09-01 16:35:09 | 47.84836 | 11.68901 | 84° | 71km/h | 14924m | 3.4m/s | -54.4°C | 5.0% | 129.9hPa | 2.7V | 00:00:00 | 00:00:00 | 00:00:00 | |
| BAUMI2-15 | 2026-09-01 16:35:08 | 47.84834 | 11.68877 | 85° | 66km/h | 14919m | 6.2m/s | -54.5°C | 5.1% | 129.9hPa | 2.7V | 00:00:00 | 01:24:49 | 00:00:00 | |
| DG1MFX-10 | 2026-09-01 16:35:07 | 47.84834 | 11.68877 | 85° | 64km/h | 14919m | 6.2m/s | -54.6°C | 2.1% | 130.0hPa | 2.7V | 00:00:00 | 00:00:00 | 00:00:00 | |
| DO8TBO-1 | 2026-09-01 16:35:05 | 47.84828 | 11.68779 | 89° | 71km/h | 14899m | 4.6m/s | -54.8°C | 5.4% | 130.4hPa | 2.7V | 00:00:00 | 01:24:45 | 00:00:00 | |
| DO3MHA-12 | 2026-09-01 16:35:04 | 47.84828 | 11.68779 | 89° | 73km/h | 14899m | 4.6m/s | -54.8°C | 5.4% | 130.4hPa | 2.7V | 00:00:00 | 01:24:45 | 00:00:00 | |
| IN3HCDX | 2026-09-01 16:35:03 | 47.84828 | 11.68753 | 89° | 71km/h | 14893m | 5.1m/s | -54.8°C | 0% | 130.5hPa | 2.7V | 00:00:00 | 00:00:00 | 00:00:00 | |
| DO3MHA-11 | 2026-09-01 16:35:01 | 47.84827 | 11.68698 | 91° | 73km/h | 14882m | 5.8m/s | -54.8°C | 5.3% | 130.7hPa | 2.7V | 00:00:00 | 01:24:42 | 08:30:00 | |
| DN1GJH-1 | 2026-09-01 16:35:00 | 47.84827 | 11.68698 | 92° | 73km/h | 14882m | 5.9m/s | -54.9°C | 2.2% | 130.8hPa | 2.7V | 00:00:00 | 00:00:00 | 00:00:00 | |
| DF1GD-15 | 2026-09-01 16:34:59 | 47.84827 | 11.68670 | 92° | 75km/h | 14877m | 5.2m/s | 0°C | 0% | 0hPa | 2.7V | 00:00:00 | 00:00:00 | 00:00:00 | |
| BAUMI2-15 | 2026-09-01 16:34:58 | 47.84827 | 11.68614 | 89° | 71km/h | 14868m | 5.1m/s | -54.8°C | 5.3% | 131.0hPa | 2.7V | 00:00:00 | 01:24:39 | 08:30:00 | |
| DO3MHA-12 | 2026-09-01 16:34:54 | 47.84825 | 11.68506 | 88° | 71km/h | 14847m | 5.0m/s | -54.6°C | 5.0% | 131.4hPa | 2.7V | 00:00:00 | 01:24:35 | 08:30:00 | |
| BAUMI2-15 | 2026-09-01 16:34:53 | 47.84825 | 11.68479 | 89° | 71km/h | 14841m | 5.0m/s | -54.6°C | 5.0% | 131.6hPa | 2.7V | 00:00:00 | 01:24:34 | 00:00:00 | |
| DH7VM-15 | 2026-09-01 16:34:52 | 47.84825 | 11.68479 | 90° | 71km/h | 14841m | 5.0m/s | 0°C | 0% | 0hPa | 2.7V | 00:00:00 | 00:00:00 | 00:00:00 | |
| OE5MMP-10 | 2026-09-01 16:34:51 | 47.84824 | 11.68425 | 90° | 69km/h | 14831m | 6.2m/s | -54.7°C | 5.0% | 131.7hPa | 2.7V | 00:00:00 | 01:24:32 | 08:30:00 | |
| DK5PH-5 | 2026-09-01 16:34:50 | 47.84824 | 11.68398 | 88° | 66km/h | 14826m | 4.1m/s | -54.7°C | 0% | 131.8hPa | 2.7V | 00:00:00 | 01:24:31 | 00:00:00 | |
| PG1ADW-2 | 2026-09-01 16:34:49 | 47.84823 | 11.68371 | 88° | 69km/h | 14822m | 4.7m/s | -54.7°C | 5.1% | 131.9hPa | 2.7V | 00:00:00 | 00:00:00 | 00:00:00 | |
| BAUMI2-15 | 2026-09-01 16:34:48 | 47.84822 | 11.68345 | 88° | 68km/h | 14816m | 6.3m/s | -54.7°C | 5.1% | 132.0hPa | 2.7V | 00:00:00 | 01:24:29 | 00:00:00 | |
| DG1MFX-10 | 2026-09-01 16:34:47 | 47.84822 | 11.68345 | 89° | 69km/h | 14816m | 6.3m/s | -54.7°C | 2.1% | 132.1hPa | 2.7V | 00:00:00 | 00:00:00 | 00:00:00 | |
| DO3MHA-12 | 2026-09-01 16:34:44 | 47.84818 | 11.68242 | 88° | 69km/h | 14797m | 4.7m/s | -54.8°C | 5.2% | 132.5hPa | 2.7V | 00:00:00 | 01:24:25 | 00:00:00 | |
| BAUMI2-15 | 2026-09-01 16:34:43 | 47.84818 | 11.68218 | 89° | 68km/h | 14792m | 4.7m/s | -54.7°C | 5.2% | 132.5hPa | 2.7V | 00:00:00 | 01:24:24 | 00:00:00 | |
| OE5DXL-15 | 2026-09-01 16:34:42 | 47.84817 | 11.68192 | 90° | 62km/h | 14787m | 4.2m/s | -54.7°C | 5.2% | 132.6hPa | 2.7V | 00:00:00 | 00:00:00 | 00:00:00 | |
| OE5WHR-10 | 2026-09-01 16:34:41 | 47.84817 | 11.68167 | 89° | 60km/h | 14782m | 6.5m/s | -54.8°C | 5.2% | 132.7hPa | 2.7V | 00:00:00 | 00:00:00 | 00:00:00 | |
| BAUMI2-15 | 2026-09-01 16:34:38 | 47.84816 | 11.68090 | 90° | 71km/h | 14767m | 4.4m/s | -54.9°C | 5.2% | 133.1hPa | 2.7V | 00:00:00 | 01:24:19 | 00:00:00 | |
| DN1GJH-1 | 2026-09-01 16:34:36 | 47.84816 | 11.68065 | 90° | 69km/h | 14763m | 4.7m/s | -54.9°C | 2.2% | 133.2hPa | 2.7V | 00:00:00 | 00:00:00 | 00:00:00 | |
| DO3MHA-12 | 2026-09-01 16:34:34 | 47.84814 | 11.67983 | 90° | 66km/h | 14749m | 5.1m/s | -54.9°C | 5.2% | 133.4hPa | 2.7V | 00:00:00 | 01:24:15 | 00:00:00 | |
| BAUMI2-15 | 2026-09-01 16:34:33 | 47.84814 | 11.67956 | 89° | 68km/h | 14745m | 4.0m/s | -54.9°C | 5.3% | 133.5hPa | 2.7V | 00:00:00 | 01:24:14 | 00:00:00 | |
| NBG1-10 | 2026-09-01 16:34:30 | 47.84810 | 11.67880 | 86° | 62km/h | 14731m | 6.4m/s | -55.0°C | 5.2% | 133.8hPa | 2.7V | 00:00:00 | 01:24:11 | 00:00:00 | |
| PG1ADW-2 | 2026-09-01 16:34:29 | 47.84809 | 11.67855 | 86° | 58km/h | 14725m | 5.4m/s | -55.0°C | 5.3% | 134.0hPa | 2.7V | 00:00:00 | 00:00:00 | 00:00:00 | |
| BAUMI2-15 | 2026-09-01 16:34:28 | 47.84808 | 11.67831 | 86° | 60km/h | 14720m | 4.5m/s | -55.1°C | 5.3% | 134.1hPa | 2.7V | 00:00:00 | 01:24:09 | 00:00:00 | |
| DG1MFX-10 | 2026-09-01 16:34:26 | 47.84807 | 11.67808 | 86° | 60km/h | 14715m | 4.9m/s | -55.2°C | 2.2% | 134.2hPa | 2.7V | 00:00:00 | 00:00:00 | 00:00:00 | |
| OE5DRO-10 | 2026-09-01 16:34:25 | 47.84805 | 11.67763 | 89° | 58km/h | 14704m | 4.1m/s | -55.1°C | 5.3% | 134.4hPa | 2.7V | 00:00:00 | 00:00:00 | 00:00:00 | |
| DO3MHA-12 | 2026-09-01 16:34:24 | 47.84805 | 11.67742 | 90° | 55km/h | 14700m | 5.2m/s | -55.2°C | 5.3% | 134.5hPa | 2.7V | 00:00:00 | 01:24:05 | 00:00:00 | |
| BAUMI2-15 | 2026-09-01 16:34:23 | 47.84805 | 11.67721 | 90° | 55km/h | 14694m | 5.2m/s | -55.3°C | 5.2% | 134.6hPa | 2.7V | 00:00:00 | 01:24:04 | 00:00:00 | |
| DF7PN | 2026-09-01 16:34:22 | 47.84805 | 11.67701 | 90° | 53km/h | 14689m | 5.1m/s | -55.3°C | 2.2% | 134.7hPa | 2.7V | 00:00:00 | 00:00:00 | 00:00:00 | |
| DO3MHA-11 | 2026-09-01 16:34:21 | 47.84805 | 11.67681 | 91° | 57km/h | 14684m | 5.5m/s | -55.2°C | 5.3% | 134.8hPa | 2.7V | 00:00:00 | 01:24:02 | 00:00:00 | |
| DK5PH-5 | 2026-09-01 16:34:20 | 47.84805 | 11.67660 | 90° | 60km/h | 14679m | 3.7m/s | 0°C | 0% | 0hPa | 2.7V | 00:00:00 | 01:24:01 | 00:00:00 | |
| DB0UT-7 | 2026-09-01 16:34:18 | 47.84804 | 11.67619 | 89° | 66km/h | 14671m | 4.4m/s | -55.2°C | 5.2% | 135.1hPa | 2.7V | 00:00:00 | 01:23:59 | 00:00:00 | |
| DN1GJH-1 | 2026-09-01 16:34:16 | 47.84804 | 11.67598 | 91° | 53km/h | 14667m | 3.2m/s | -55.3°C | 2.2% | 135.2hPa | 2.7V | 00:00:00 | 00:00:00 | 00:00:00 | |
| DO3MHA-12 | 2026-09-01 16:34:14 | 47.84806 | 11.67535 | 94° | 64km/h | 14654m | 4.1m/s | -55.2°C | 5.3% | 135.5hPa | 2.7V | 00:00:00 | 01:23:55 | 00:00:00 | |
| BAUMI2-15 | 2026-09-01 16:34:13 | 47.84807 | 11.67512 | 94° | 64km/h | 14649m | 5.5m/s | -55.2°C | 5.2% | 135.5hPa | 2.7V | 00:00:00 | 01:23:54 | 08:30:00 | |
| OE5DXL-15 | 2026-09-01 16:34:12 | 47.84808 | 11.67490 | 94° | 69km/h | 14644m | 4.1m/s | -55.2°C | 5.4% | 135.6hPa | 2.7V | 00:00:00 | 00:00:00 | 00:00:00 | |
| DO3MHA-11 | 2026-09-01 16:34:11 | 47.84809 | 11.67467 | 96° | 66km/h | 14640m | 4.8m/s | -55.2°C | 5.3% | 135.7hPa | 2.7V | 00:00:00 | 01:23:52 | 00:00:00 | |
| PG1ADW-2 | 2026-09-01 16:34:09 | 47.84812 | 11.67418 | 96° | 68km/h | 14630m | 6.0m/s | -55.2°C | 5.4% | 135.9hPa | 2.7V | 00:00:00 | 01:23:50 | 00:00:00 | |
| BAUMI2-15 | 2026-09-01 16:34:08 | 47.84814 | 11.67393 | 97° | 68km/h | 14625m | 4.4m/s | -55.1°C | 5.4% | 136.0hPa | 2.7V | 00:00:00 | 01:23:49 | 00:00:00 | |
| DL6DJ-15 | 2026-09-01 16:34:07 | 47.84816 | 11.67369 | 97° | 66km/h | 14620m | 4.8m/s | -55.1°C | 2.2% | 136.2hPa | 2.7V | 00:00:00 | 00:00:00 | 00:00:00 | |
| OE5DRO-10 | 2026-09-01 16:34:06 | 47.84819 | 11.67344 | 98° | 69km/h | 14615m | 4.3m/s | -55.1°C | 5.4% | 136.2hPa | 2.7V | 00:00:00 | 00:00:00 | 00:00:00 | |
| DG1MFX-10 | 2026-09-01 16:34:05 | 47.84819 | 11.67344 | 99° | 68km/h | 14615m | 4.4m/s | -55.2°C | 2.3% | 136.3hPa | 2.7V | 00:00:00 | 00:00:00 | 00:00:00 | |
| DO3MHA-12 | 2026-09-01 16:34:04 | 47.84823 | 11.67294 | 98° | 66km/h | 14605m | 5.4m/s | -55.1°C | 5.3% | 136.5hPa | 2.7V | 00:00:00 | 01:23:45 | 00:00:00 | |
| BAUMI2-15 | 2026-09-01 16:34:03 | 47.84826 | 11.67269 | 99° | 66km/h | 14600m | 3.9m/s | -55.1°C | 5.2% | 136.6hPa | 2.7V | 00:00:00 | 01:23:44 | 00:00:00 | |
| DO8TBO-1 | 2026-09-01 16:34:02 | 47.84828 | 11.67245 | 98° | 75km/h | 14596m | 4.5m/s | -55.2°C | 5.2% | 136.7hPa | 2.7V | 00:00:00 | 01:23:43 | 00:00:00 | |
| OE5MMP-10 | 2026-09-01 16:34:01 | 47.84830 | 11.67220 | 99° | 69km/h | 14591m | 4.5m/s | -55.2°C | 5.2% | 136.7hPa | 2.7V | 00:00:00 | 01:23:42 | 00:00:00 | |
| IN3HCDX | 2026-09-01 16:34:00 | 47.84830 | 11.67220 | 99° | 68km/h | 14591m | 4.5m/s | 0°C | 0% | 0hPa | 2.7V | 00:00:00 | 00:00:00 | 00:00:00 | |
| DL2OL | 2026-09-01 16:33:59 | 47.84833 | 11.67195 | 99° | 66km/h | 14587m | 5.3m/s | -55.3°C | 2.1% | 136.9hPa | 2.7V | 00:00:00 | 00:00:00 | 00:00:00 | |
| NBG1-10 | 2026-09-01 16:33:57 | 47.84842 | 11.67123 | 103° | 77km/h | 14573m | 4.3m/s | -55.3°C | 5.4% | 137.2hPa | 2.7V | 00:00:00 | 01:23:38 | 00:00:00 | |
| DH7VM-15 | 2026-09-01 16:33:56 | 47.84842 | 11.67123 | 104° | 68km/h | 14573m | 4.3m/s | 0°C | 0% | 0hPa | 2.7V | 00:00:00 | 00:00:00 | 00:00:00 | |
| DN1GJH-1 | 2026-09-01 16:33:55 | 47.84846 | 11.67099 | 104° | 69km/h | 14569m | 4.3m/s | -55.3°C | 2.2% | 137.3hPa | 2.7V | 00:00:00 | 00:00:00 | 00:00:00 | |
| DO3MHA-12 | 2026-09-01 16:33:54 | 47.84853 | 11.67047 | 103° | 75km/h | 14559m | 4.1m/s | -55.2°C | 5.4% | 137.5hPa | 2.7V | 00:00:00 | 01:23:35 | 00:00:00 | |
| OE5MMP-10 | 2026-09-01 16:33:51 | 47.84864 | 11.66966 | 101° | 77km/h | 14545m | 4.9m/s | -55.3°C | 5.6% | 137.7hPa | 2.7V | 00:00:00 | 01:23:32 | 00:00:00 | |
| PG1ADW-2 | 2026-09-01 16:33:49 | 47.84871 | 11.66910 | 99° | 78km/h | 14536m | 3.5m/s | -55.3°C | 5.5% | 137.9hPa | 2.7V | 00:00:00 | 00:00:00 | 00:00:00 | |
| DB0UT-7 | 2026-09-01 16:33:48 | 47.84873 | 11.66881 | 99° | 80km/h | 14532m | 4.9m/s | -55.2°C | 5.4% | 138.0hPa | 2.7V | 00:00:00 | 00:00:00 | 00:00:00 | |
| OE5DRO-10 | 2026-09-01 16:33:47 | 47.84876 | 11.66853 | 98° | 78km/h | 14527m | 5.5m/s | -55.2°C | 5.4% | 138.2hPa | 2.7V | 00:00:00 | 00:00:00 | 00:00:00 | |
| DO3MHA-12 | 2026-09-01 16:33:44 | 47.84883 | 11.66768 | 97° | 80km/h | 14513m | 4.5m/s | -55.1°C | 5.2% | 138.5hPa | 2.7V | 00:00:00 | 01:23:25 | 00:00:00 | |
| OE5DXL-15 | 2026-09-01 16:33:42 | 47.84888 | 11.66710 | 97° | 82km/h | 14503m | 4.2m/s | -55.1°C | 5.3% | 138.7hPa | 2.7V | 00:00:00 | 00:00:00 | 08:30:00 | |
| DO3MHA-11 | 2026-09-01 16:33:41 | 47.84890 | 11.66681 | 97° | 80km/h | 14498m | 4.9m/s | -55.2°C | 5.4% | 138.8hPa | 2.7V | 00:00:00 | 01:23:22 | 00:00:00 | |
| DL6DJ-15 | 2026-09-01 16:33:36 | 47.84903 | 11.66500 | 95° | 80km/h | 14470m | 4.8m/s | -55.1°C | 2.3% | 139.5hPa | 2.7V | 00:00:00 | 00:00:00 | 00:00:00 | |
| DO3MHA-12 | 2026-09-01 16:33:34 | 47.84905 | 11.66469 | 96° | 80km/h | 14465m | 5.5m/s | -55.0°C | 5.3% | 139.5hPa | 2.7V | 00:00:00 | 01:23:15 | 00:00:00 | |
| DO3MHA-11 | 2026-09-01 16:33:31 | 47.84910 | 11.66380 | 95° | 82km/h | 14450m | 4.3m/s | -55.0°C | 5.4% | 139.8hPa | 2.7V | 00:00:00 | 01:23:12 | 08:30:00 | |
| OE5WHR-10 | 2026-09-01 16:33:30 | 47.84911 | 11.66349 | 94° | 82km/h | 14446m | 4.5m/s | -55.0°C | 5.4% | 139.9hPa | 2.7V | 00:00:00 | 00:00:00 | 00:00:00 | |
| PG1ADW-2 | 2026-09-01 16:33:29 | 47.84912 | 11.66319 | 93° | 82km/h | 14441m | 5.2m/s | -55.0°C | 5.5% | 140.1hPa | 2.7V | 00:00:00 | 00:00:00 | 00:00:00 | |
| OE5DRO-10 | 2026-09-01 16:33:28 | 47.84913 | 11.66290 | 92° | 84km/h | 14436m | 4.7m/s | -55.0°C | 5.4% | 140.1hPa | 2.7V | 00:00:00 | 00:00:00 | 00:00:00 | |
| DO3MHA-12 | 2026-09-01 16:33:24 | 47.84914 | 11.66167 | 90° | 82km/h | 14416m | 4.6m/s | -55.0°C | 5.5% | 140.6hPa | 2.7V | 00:00:00 | 01:23:05 | 08:30:00 | |
| DG1MFX-10 | 2026-09-01 16:33:23 | 47.84914 | 11.66167 | 91° | 82km/h | 14416m | 4.7m/s | -55.1°C | 2.4% | 140.6hPa | 2.7V | 00:00:00 | 00:00:00 | 00:00:00 | |
| DO3MHA-11 | 2026-09-01 16:33:21 | 47.84915 | 11.66074 | 91° | 84km/h | 14402m | 5.0m/s | -55.0°C | 5.4% | 140.9hPa | 2.7V | 00:00:00 | 01:23:02 | 00:00:00 | |
| DK5PH-5 | 2026-09-01 16:33:20 | 47.84915 | 11.66043 | 90° | 82km/h | 14397m | 4.6m/s | 0°C | 0% | 0hPa | 2.7V | 00:00:00 | 01:23:01 | 00:00:00 | |
| DB0UT-7 | 2026-09-01 16:33:18 | 47.84914 | 11.65981 | 90° | 89km/h | 14387m | 4.9m/s | -54.9°C | 5.4% | 141.2hPa | 2.7V | 00:00:00 | 01:22:59 | 00:00:00 | |
| DO3MHA-12 | 2026-09-01 16:33:14 | 47.84911 | 11.65856 | 88° | 88km/h | 14369m | 4.6m/s | -55.0°C | 5.4% | 141.6hPa | 2.7V | 00:00:00 | 01:22:55 | 00:00:00 | |
| DN1GJH-1 | 2026-09-01 16:33:13 | 47.84911 | 11.65856 | 88° | 86km/h | 14369m | 4.7m/s | -55.1°C | 2.3% | 141.7hPa | 2.7V | 00:00:00 | 00:00:00 | 00:00:00 | |
| OE5DXL-15 | 2026-09-01 16:33:12 | 47.84909 | 11.65792 | 87° | 91km/h | 14359m | 6.2m/s | -54.9°C | 5.3% | 141.9hPa | 2.7V | 00:00:00 | 00:00:00 | 00:00:00 | |
| OE5MMP-10 | 2026-09-01 16:33:11 | 47.84908 | 11.65760 | 86° | 89km/h | 14354m | 3.5m/s | -54.9°C | 5.3% | 142.0hPa | 2.7V | 00:00:00 | 01:22:52 | 00:00:00 | |
| OE5WHR-10 | 2026-09-01 16:33:09 | 47.84904 | 11.65694 | 87° | 91km/h | 14344m | 5.2m/s | -54.9°C | 5.4% | 142.2hPa | 2.7V | 00:00:00 | 01:22:50 | 00:00:00 | |
| DL6DJ-15 | 2026-09-01 16:33:05 | 47.84889 | 11.65528 | 79° | 91km/h | 14322m | 5.5m/s | -55.0°C | 2.4% | 142.7hPa | 2.7V | 00:00:00 | 00:00:00 | 00:00:00 | |
| DO3MHA-12 | 2026-09-01 16:33:04 | 47.84889 | 11.65528 | 80° | 91km/h | 14322m | 5.5m/s | -54.9°C | 5.5% | 142.6hPa | 2.7V | 00:00:00 | 01:22:45 | 00:00:00 | |
| DG1MFX-10 | 2026-09-01 16:33:03 | 47.84889 | 11.65528 | 81° | 93km/h | 14322m | 5.5m/s | -55.0°C | 2.4% | 142.7hPa | 2.7V | 00:00:00 | 00:00:00 | 00:00:00 | |
| DO3MHA-11 | 2026-09-01 16:33:01 | 47.84877 | 11.65426 | 80° | 93km/h | 14306m | 3.7m/s | -55.0°C | 5.6% | 143.0hPa | 2.7V | 00:00:00 | 01:22:42 | 00:00:00 | |
| DO3MHA-12 | 2026-09-01 16:32:54 | 47.84851 | 11.65189 | 81° | 93km/h | 14274m | 7.1m/s | -55.2°C | 5.6% | 143.7hPa | 2.7V | 00:00:00 | 01:22:35 | 00:00:00 | |
| NBG1-10 | 2026-09-01 16:32:53 | 47.84837 | 11.65082 | 78° | 93km/h | 14259m | 3.5m/s | -55.1°C | 5.6% | 144.1hPa | 2.7V | 00:00:00 | 01:22:32 | 00:00:00 | |
| OE5MMP-10 | 2026-09-01 16:32:52 | 47.84837 | 11.65082 | 78° | 91km/h | 14259m | 3.5m/s | -55.1°C | 5.6% | 144.1hPa | 2.7V | 00:00:00 | 01:22:32 | 00:00:00 | |
| DO3MHA-11 | 2026-09-01 16:32:51 | 47.84837 | 11.65082 | 78° | 91km/h | 14259m | 3.5m/s | -55.1°C | 5.6% | 144.1hPa | 2.7V | 00:00:00 | 01:22:32 | 00:00:00 | |
| OE5DRO-10 | 2026-09-01 16:32:50 | 47.84831 | 11.65048 | 76° | 91km/h | 14255m | 4.0m/s | -55.1°C | 5.6% | 144.2hPa | 2.7V | 00:00:00 | 00:00:00 | 00:00:00 | |
| PG1ADW-2 | 2026-09-01 16:32:49 | 47.84825 | 11.65015 | 75° | 91km/h | 14250m | 6.0m/s | -55.0°C | 5.6% | 144.3hPa | 2.7V | 00:00:00 | 01:22:30 | 08:30:00 | |
| OE5WHR-10 | 2026-09-01 16:32:48 | 47.84819 | 11.64982 | 74° | 91km/h | 14244m | 5.0m/s | -55.0°C | 5.6% | 144.4hPa | 2.7V | 00:00:00 | 00:00:00 | 08:30:00 | |
| DO3MHA-12 | 2026-09-01 16:32:44 | 47.84794 | 11.64853 | 75° | 93km/h | 14224m | 4.6m/s | -55.0°C | 5.6% | 144.8hPa | 2.7V | 00:00:00 | 01:22:25 | 00:00:00 | |
| OE5DXL-15 | 2026-09-01 16:32:42 | 47.84782 | 11.64787 | 76° | 91km/h | 14216m | 4.9m/s | -55.1°C | 5.6% | 145.1hPa | 2.7V | 00:00:00 | 00:00:00 | 00:00:00 | |
| DO3MHA-11 | 2026-09-01 16:32:41 | 47.84775 | 11.64753 | 75° | 93km/h | 14211m | 5.7m/s | -55.0°C | 5.6% | 145.2hPa | 2.7V | 00:00:00 | 01:22:22 | 00:00:00 | |
| DL6DJ-15 | 2026-09-01 16:32:34 | 47.84714 | 11.64487 | 68° | 89km/h | 14173m | 4.9m/s | -55.1°C | 2.5% | 146.1hPa | 2.7V | 00:00:00 | 00:00:00 | 00:00:00 | |
| OE5MMP-10 | 2026-09-01 16:32:31 | 47.84698 | 11.64423 | 70° | 93km/h | 14163m | 4.5m/s | -55.0°C | 5.7% | 146.2hPa | 2.7V | 00:00:00 | 01:22:12 | 00:00:00 | |
| PG1ADW-2 | 2026-09-01 16:32:29 | 47.84682 | 11.64357 | 71° | 89km/h | 14153m | 3.9m/s | -55.0°C | 5.7% | 146.5hPa | 2.7V | 00:00:00 | 00:00:00 | 00:00:00 | |
| DL2OL | 2026-09-01 16:32:28 | 47.84682 | 11.64357 | 71° | 93km/h | 14153m | 4.0m/s | -55.1°C | 2.6% | 146.5hPa | 2.7V | 00:00:00 | 00:00:00 | 00:00:00 | |
| OE5WHR-10 | 2026-09-01 16:32:27 | 47.84665 | 11.64291 | 69° | 89km/h | 14145m | 3.7m/s | -55.2°C | 5.8% | 146.7hPa | 2.7V | 00:00:00 | 00:00:00 | 00:00:00 | |
| DO3MHA-12 | 2026-09-01 16:32:24 | 47.84639 | 11.64192 | 69° | 89km/h | 14131m | 4.9m/s | -55.3°C | 5.8% | 147.0hPa | 2.7V | 00:00:00 | 01:22:05 | 00:00:00 | |
| DG1MFX-10 | 2026-09-01 16:32:22 | 47.84630 | 11.64159 | 68° | 95km/h | 14127m | 4.6m/s | -55.3°C | 2.7% | 147.2hPa | 2.7V | 00:00:00 | 00:00:00 | 00:00:00 | |
| DO3MHA-11 | 2026-09-01 16:32:21 | 47.84612 | 11.64094 | 69° | 88km/h | 14118m | 5.8m/s | -55.3°C | 6.0% | 147.3hPa | 2.7V | 00:00:00 | 01:22:02 | 00:00:00 | |
| DB0UT-7 | 2026-09-01 16:32:18 | 47.84588 | 11.64000 | 69° | 84km/h | 14103m | 3.5m/s | -55.1°C | 6.0% | 147.7hPa | 2.7V | 00:00:00 | 01:21:59 | 00:00:00 | |
| DO3MHA-12 | 2026-09-01 16:32:14 | 47.84558 | 11.63878 | 72° | 86km/h | 14085m | 6.1m/s | -55.2°C | 5.9% | 148.1hPa | 2.7V | 00:00:00 | 01:21:55 | 00:00:00 | |
| OE5DXL-15 | 2026-09-01 16:32:12 | 47.84544 | 11.63817 | 73° | 82km/h | 14076m | 3.6m/s | -55.0°C | 5.8% | 148.3hPa | 2.7V | 00:00:00 | 00:00:00 | 00:00:00 | |
| OE5MMP-10 | 2026-09-01 16:32:11 | 47.84538 | 11.63786 | 72° | 84km/h | 14071m | 4.7m/s | -55.0°C | 5.7% | 148.4hPa | 2.7V | 00:00:00 | 01:21:52 | 00:00:00 | |
| DG1MJG | 2026-09-01 16:32:10 | 47.84538 | 11.63786 | 73° | 86km/h | 14071m | 4.7m/s | -55.1°C | 2.6% | 148.5hPa | 2.7V | 00:00:00 | 00:00:00 | 00:00:00 | |
| PG1ADW-2 | 2026-09-01 16:32:09 | 47.84524 | 11.63724 | 72° | 84km/h | 14061m | 4.0m/s | -54.9°C | 5.7% | 148.7hPa | 2.7V | 00:00:00 | 00:00:00 | 00:00:00 | |
| OE5WHR-10 | 2026-09-01 16:32:06 | 47.84505 | 11.63633 | 74° | 82km/h | 14046m | 5.3m/s | -54.9°C | 5.8% | 149.0hPa | 2.7V | 00:00:00 | 01:21:47 | 00:00:00 | |
| DO3MHA-12 | 2026-09-01 16:32:04 | 47.84493 | 11.63574 | 74° | 82km/h | 14035m | 5.1m/s | -54.8°C | 5.7% | 149.2hPa | 2.7V | 00:00:00 | 01:21:45 | 00:00:00 | |
| DL6DJ-15 | 2026-09-01 16:32:03 | 47.84482 | 11.63516 | 75° | 80km/h | 14025m | 5.6m/s | -54.8°C | 2.6% | 149.5hPa | 2.7V | 00:00:00 | 00:00:00 | 00:00:00 | |
| DF7PN | 2026-09-01 16:31:47 | 47.84411 | 11.63058 | 78° | 80km/h | 13951m | 4.7m/s | -54.7°C | 2.6% | 151.3hPa | 2.7V | 00:00:00 | 00:00:00 | 00:00:00 | |
| OE5WHR-10 | 2026-09-01 16:31:45 | 47.84403 | 11.62999 | 80° | 82km/h | 13941m | 4.6m/s | -54.6°C | 5.8% | 151.5hPa | 2.7V | 00:00:00 | 00:00:00 | 00:00:00 | |
| DO3MHA-12 | 2026-09-01 16:31:44 | 47.84399 | 11.62969 | 79° | 80km/h | 13935m | 5.2m/s | -54.7°C | 5.8% | 151.6hPa | 2.7V | 00:00:00 | 01:21:25 | 00:00:00 | |
| BAUMI2-15 | 2026-09-01 16:31:43 | 47.84395 | 11.62940 | 78° | 78km/h | 13930m | 5.1m/s | -54.7°C | 5.7% | 151.7hPa | 2.7V | 00:00:00 | 01:21:24 | 00:00:00 | |
| OE5DXL-15 | 2026-09-01 16:31:42 | 47.84390 | 11.62912 | 78° | 82km/h | 13925m | 5.2m/s | -54.7°C | 5.7% | 151.8hPa | 2.7V | 00:00:00 | 00:00:00 | 00:00:00 | |
| DO3MHA-11 | 2026-09-01 16:31:41 | 47.84386 | 11.62884 | 79° | 82km/h | 13920m | 5.1m/s | -54.7°C | 5.7% | 151.9hPa | 2.7V | 00:00:00 | 01:21:22 | 00:00:00 | |
| DG1MJG | 2026-09-01 16:31:39 | 47.84382 | 11.62855 | 80° | 78km/h | 13915m | 4.5m/s | -54.7°C | 2.6% | 152.1hPa | 2.7V | 00:00:00 | 00:00:00 | 00:00:00 | |
| BAUMI2-15 | 2026-09-01 16:31:38 | 47.84375 | 11.62797 | 81° | 82km/h | 13905m | 5.1m/s | -54.6°C | 5.6% | 152.3hPa | 2.7V | 00:00:00 | 01:21:19 | 00:00:00 | |
| DO3MHA-12 | 2026-09-01 16:31:34 | 47.84363 | 11.62673 | 82° | 84km/h | 13885m | 4.5m/s | -54.5°C | 5.7% | 152.8hPa | 2.7V | 00:00:00 | 01:21:15 | 00:00:00 | |
| BAUMI2-15 | 2026-09-01 16:31:33 | 47.84360 | 11.62642 | 82° | 84km/h | 13880m | 3.7m/s | -54.4°C | 5.8% | 152.9hPa | 2.7V | 00:00:00 | 01:21:14 | 00:00:00 | |
| DO3MHA-11 | 2026-09-01 16:31:31 | 47.84355 | 11.62580 | 82° | 84km/h | 13870m | 6.5m/s | -54.4°C | 5.7% | 153.1hPa | 2.7V | 00:00:00 | 01:21:12 | 00:00:00 | |
| PG1ADW-2 | 2026-09-01 16:31:29 | 47.84347 | 11.62518 | 80° | 80km/h | 13859m | 4.4m/s | -54.4°C | 5.8% | 153.4hPa | 2.7V | 00:00:00 | 01:21:10 | 00:00:00 | |
| BAUMI2-15 | 2026-09-01 16:31:28 | 47.84343 | 11.62486 | 80° | 84km/h | 13854m | 5.3m/s | -54.4°C | 5.8% | 153.5hPa | 2.7V | 00:00:00 | 01:21:09 | 08:30:00 | |
| DN1GJH-1 | 2026-09-01 16:31:27 | 47.84343 | 11.62486 | 81° | 84km/h | 13854m | 5.4m/s | -54.5°C | 2.7% | 153.5hPa | 2.7V | 00:00:00 | 00:00:00 | 00:00:00 | |
| DO3MHA-12 | 2026-09-01 16:31:24 | 47.84326 | 11.62362 | 79° | 80km/h | 13834m | 4.4m/s | -54.3°C | 5.8% | 154.0hPa | 2.7V | 00:00:00 | 01:21:05 | 00:00:00 | |
| BAUMI2-15 | 2026-09-01 16:31:23 | 47.84322 | 11.62332 | 79° | 80km/h | 13829m | 5.3m/s | -54.3°C | 5.8% | 154.1hPa | 2.7V | 00:00:00 | 01:21:04 | 00:00:00 | |
| DO3MHA-11 | 2026-09-01 16:31:21 | 47.84313 | 11.62273 | 77° | 78km/h | 13817m | 4.5m/s | -54.2°C | 5.7% | 154.4hPa | 2.7V | 00:00:00 | 01:21:02 | 00:00:00 | |
| DG1MFX-10 | 2026-09-01 16:31:20 | 47.84313 | 11.62273 | 78° | 80km/h | 13817m | 4.6m/s | -54.2°C | 2.7% | 154.4hPa | 2.7V | 00:00:00 | 00:00:00 | 00:00:00 | |
| BAUMI2-15 | 2026-09-01 16:31:18 | 47.84301 | 11.62186 | 79° | 80km/h | 13803m | 5.9m/s | -54.1°C | 5.6% | 154.7hPa | 2.7V | 00:00:00 | 01:20:59 | 00:00:00 | |
| DF7PN | 2026-09-01 16:31:16 | 47.84292 | 11.62126 | 78° | 80km/h | 13792m | 4.3m/s | -54.1°C | 2.5% | 155.0hPa | 2.7V | 00:00:00 | 00:00:00 | 00:00:00 | |
| OE5DRO-10 | 2026-09-01 16:31:15 | 47.84288 | 11.62097 | 79° | 73km/h | 13786m | 7.4m/s | -54.1°C | 5.5% | 155.1hPa | 2.7V | 00:00:00 | 00:00:00 | 00:00:00 | |
| DO3MHA-12 | 2026-09-01 16:31:14 | 47.84284 | 11.62068 | 81° | 71km/h | 13780m | 5.4m/s | -54.0°C | 5.5% | 155.3hPa | 2.7V | 00:00:00 | 01:20:55 | 00:00:00 | |
| BAUMI2-15 | 2026-09-01 16:31:13 | 47.84281 | 11.62039 | 81° | 73km/h | 13774m | 6.1m/s | -54.0°C | 5.5% | 155.4hPa | 2.7V | 00:00:00 | 01:20:54 | 00:00:00 | |
| OE5DXL-15 | 2026-09-01 16:31:12 | 47.84278 | 11.62010 | 82° | 73km/h | 13769m | 4.2m/s | -54.0°C | 5.5% | 155.5hPa | 2.7V | 00:00:00 | 00:00:00 | 00:00:00 | |
| DO3MHA-11 | 2026-09-01 16:31:11 | 47.84275 | 11.61982 | 82° | 71km/h | 13764m | 5.9m/s | -54.1°C | 5.6% | 155.6hPa | 2.7V | 00:00:00 | 01:20:52 | 00:00:00 | |
| PG1ADW-2 | 2026-09-01 16:31:09 | 47.84270 | 11.61931 | 81° | 71km/h | 13752m | 4.2m/s | -54.0°C | 5.6% | 155.9hPa | 2.7V | 00:00:00 | 00:00:00 | 00:00:00 | |
| BAUMI2-15 | 2026-09-01 16:31:08 | 47.84267 | 11.61907 | 81° | 71km/h | 13747m | 5.6m/s | -54.0°C | 5.7% | 156.1hPa | 2.7V | 00:00:00 | 01:20:49 | 00:00:00 | |
| DN1GJH-1 | 2026-09-01 16:31:05 | 47.84262 | 11.61856 | 85° | 71km/h | 13737m | 3.6m/s | -54.0°C | 2.9% | 156.3hPa | 2.7V | 00:00:00 | 00:00:00 | 00:00:00 | |
| DO3MHA-12 | 2026-09-01 16:31:04 | 47.84259 | 11.61801 | 86° | 71km/h | 13729m | 5.3m/s | -54.0°C | 5.8% | 156.5hPa | 2.7V | 00:00:00 | 01:20:45 | 00:00:00 | |
| OE5WHR-10 | 2026-09-01 16:31:03 | 47.84258 | 11.61773 | 86° | 73km/h | 13723m | 7.0m/s | -54.0°C | 5.8% | 156.7hPa | 2.7V | 00:00:00 | 01:20:44 | 00:00:00 | |
| DL2OL | 2026-09-01 16:31:02 | 47.84258 | 11.61774 | 86° | 73km/h | 13723m | 7.1m/s | -54.0°C | 2.8% | 156.7hPa | 2.7V | 00:00:00 | 00:00:00 | 00:00:00 | |
| DL6DJ-15 | 2026-09-01 16:31:00 | 47.84254 | 11.61693 | 87° | 73km/h | 13709m | 5.5m/s | -54.0°C | 2.7% | 157.0hPa | 2.7V | 00:00:00 | 00:00:00 | 00:00:00 | |
| DG1MFX-10 | 2026-09-01 16:30:59 | 47.84254 | 11.61692 | 88° | 73km/h | 13709m | 5.5m/s | -54.0°C | 2.7% | 157.0hPa | 2.7V | 00:00:00 | 00:00:00 | 00:00:00 | |
| OE5DRO-10 | 2026-09-01 16:30:56 | 47.84251 | 11.61586 | 89° | 75km/h | 13689m | 4.7m/s | -53.9°C | 5.7% | 157.5hPa | 2.7V | 00:00:00 | 00:00:00 | 00:00:00 | |
| DO3MHA-12 | 2026-09-01 16:30:54 | 47.84250 | 11.61532 | 87° | 75km/h | 13679m | 4.7m/s | -54.1°C | 5.8% | 157.7hPa | 2.7V | 00:00:00 | 01:20:35 | 00:00:00 | |
| DO3MHA-11 | 2026-09-01 16:30:51 | 47.84244 | 11.61451 | 83° | 77km/h | 13665m | 5.4m/s | -54.2°C | 5.9% | 158.1hPa | 2.7V | 00:00:00 | 01:20:32 | 00:00:00 | |
| PG1ADW-2 | 2026-09-01 16:30:49 | 47.84239 | 11.61396 | 81° | 77km/h | 13655m | 5.2m/s | -54.1°C | 5.9% | 158.3hPa | 2.7V | 00:00:00 | 00:00:00 | 00:00:00 | |
| BAUMI2-15 | 2026-09-01 16:30:48 | 47.84236 | 11.61368 | 81° | 77km/h | 13650m | 4.7m/s | -54.0°C | 5.8% | 158.5hPa | 2.7V | 00:00:00 | 01:20:29 | 00:00:00 | |
| DO8TBO-1 | 2026-09-01 16:30:45 | 47.84225 | 11.61283 | 80° | 80km/h | 13635m | 5.2m/s | -53.9°C | 5.7% | 158.8hPa | 2.7V | 00:00:00 | 01:20:26 | 00:00:00 | |
| DN1GJH-1 | 2026-09-01 16:30:44 | 47.84225 | 11.61283 | 81° | 78km/h | 13635m | 5.2m/s | -54.0°C | 2.8% | 158.9hPa | 2.7V | 00:00:00 | 00:00:00 | 00:00:00 | |
| OE5WHR-10 | 2026-09-01 16:30:43 | 47.84216 | 11.61197 | 83° | 78km/h | 13618m | 5.6m/s | -53.8°C | 5.8% | 159.3hPa | 2.7V | 00:00:00 | 00:00:00 | 00:00:00 | |
| OE5DXL-15 | 2026-09-01 16:30:42 | 47.84216 | 11.61197 | 83° | 80km/h | 13618m | 5.6m/s | -53.8°C | 5.8% | 159.3hPa | 2.7V | 00:00:00 | 00:00:00 | 00:00:00 | |
| DO3MHA-11 | 2026-09-01 16:30:41 | 47.84214 | 11.61168 | 84° | 78km/h | 13613m | 5.4m/s | -53.7°C | 5.8% | 159.4hPa | 2.7V | 00:00:00 | 01:20:22 | 00:00:00 | |
| NBG1-10 | 2026-09-01 16:30:39 | 47.84209 | 11.61108 | 85° | 82km/h | 13602m | 6.3m/s | -53.7°C | 5.8% | 159.7hPa | 2.7V | 00:00:00 | 01:20:20 | 00:00:00 | |
| BAUMI2-15 | 2026-09-01 16:30:38 | 47.84207 | 11.61079 | 85° | 78km/h | 13597m | 2.5m/s | -53.7°C | 5.8% | 159.8hPa | 2.7V | 00:00:00 | 01:20:19 | 00:00:00 | |
| OE5DRO-10 | 2026-09-01 16:30:37 | 47.84205 | 11.61049 | 85° | 80km/h | 13593m | 5.7m/s | -53.8°C | 5.7% | 159.8hPa | 2.7V | 00:00:00 | 00:00:00 | 00:00:00 | |
| OE5MMP-10 | 2026-09-01 16:30:34 | 47.84200 | 11.60962 | 86° | 77km/h | 13575m | 5.0m/s | -54.3°C | 6.1% | 160.3hPa | 2.7V | 00:00:00 | 01:20:15 | 00:00:00 | |
| BAUMI2-15 | 2026-09-01 16:30:33 | 47.84198 | 11.60933 | 86° | 77km/h | 13569m | 5.6m/s | -54.4°C | 6.1% | 160.5hPa | 2.7V | 00:00:00 | 01:20:14 | 00:00:00 | |
| DO3MHA-11 | 2026-09-01 16:30:31 | 47.84195 | 11.60875 | 86° | 78km/h | 13558m | 6.2m/s | -54.5°C | 6.2% | 160.7hPa | 2.7V | 00:00:00 | 01:20:12 | 08:30:00 | |
| PG1ADW-2 | 2026-09-01 16:30:29 | 47.84191 | 11.60819 | 86° | 84km/h | 13548m | 4.2m/s | -54.5°C | 6.3% | 161.0hPa | 2.7V | 00:00:00 | 00:00:00 | 00:00:00 | |
| BAUMI2-15 | 2026-09-01 16:30:28 | 47.84190 | 11.60791 | 86° | 78km/h | 13543m | 6.8m/s | -54.6°C | 6.4% | 161.1hPa | 2.7V | 00:00:00 | 01:20:09 | 00:00:00 | |
| DO3MHA-12 | 2026-09-01 16:30:24 | 47.84186 | 11.60673 | 87° | 86km/h | 13521m | 4.6m/s | -54.7°C | 6.5% | 161.7hPa | 2.7V | 00:00:00 | 01:20:05 | 08:30:00 | |
| BAUMI2-15 | 2026-09-01 16:30:23 | 47.84185 | 11.60642 | 88° | 86km/h | 13516m | 5.3m/s | -54.7°C | 6.6% | 161.8hPa | 2.7V | 00:00:00 | 01:20:04 | 00:00:00 | |
| DO3MHA-11 | 2026-09-01 16:30:21 | 47.84183 | 11.60578 | 89° | 88km/h | 13507m | 3.1m/s | -54.7°C | 6.6% | 162.1hPa | 2.7V | 00:00:00 | 01:20:02 | 00:00:00 | |
| BAUMI2-15 | 2026-09-01 16:30:18 | 47.84181 | 11.60481 | 89° | 88km/h | 13492m | 5.2m/s | -54.7°C | 6.7% | 162.4hPa | 2.7V | 00:00:00 | 01:19:59 | 00:00:00 | |
| DN1GJH-1 | 2026-09-01 16:30:17 | 47.84181 | 11.60481 | 89° | 86km/h | 13492m | 5.2m/s | -54.8°C | 3.5% | 162.4hPa | 2.7V | 00:00:00 | 00:00:00 | 00:00:00 | |
| DO3MHA-12 | 2026-09-01 16:30:15 | 47.84176 | 11.60350 | 87° | 88km/h | 13472m | 5.2m/s | -54.7°C | 6.8% | 162.9hPa | 2.7V | 00:00:00 | 01:19:55 | 00:00:00 | |
| DF7PN | 2026-09-01 16:30:14 | 47.84175 | 11.60317 | 86° | 89km/h | 13467m | 4.2m/s | -54.7°C | 3.6% | 163.1hPa | 2.7V | 00:00:00 | 00:00:00 | 00:00:00 | |
| BAUMI2-15 | 2026-09-01 16:30:13 | 47.84175 | 11.60317 | 87° | 91km/h | 13467m | 4.2m/s | -54.6°C | 6.8% | 163.1hPa | 2.7V | 00:00:00 | 01:19:54 | 00:00:00 | |
| OE5DXL-15 | 2026-09-01 16:30:12 | 47.84173 | 11.60282 | 86° | 91km/h | 13463m | 4.9m/s | -54.6°C | 6.8% | 163.2hPa | 2.7V | 00:00:00 | 00:00:00 | 00:00:00 | |
| DO3MHA-11 | 2026-09-01 16:30:11 | 47.84171 | 11.60248 | 86° | 86km/h | 13458m | 5.4m/s | -54.6°C | 6.8% | 163.3hPa | 2.7V | 00:00:00 | 01:19:52 | 00:00:00 | |
| DH7VM-15 | 2026-09-01 16:30:10 | 47.84172 | 11.60248 | 87° | 91km/h | 13458m | 5.5m/s | 0°C | 0% | 0hPa | 2.7V | 00:00:00 | 00:00:00 | 00:00:00 | |
| PG1ADW-2 | 2026-09-01 16:30:09 | 47.84168 | 11.60180 | 86° | 89km/h | 13447m | 5.2m/s | -54.7°C | 6.8% | 163.6hPa | 2.7V | 00:00:00 | 01:19:50 | 00:00:00 | |
| BAUMI2-15 | 2026-09-01 16:30:08 | 47.84166 | 11.60147 | 84° | 86km/h | 13443m | 4.3m/s | -54.7°C | 7.0% | 163.7hPa | 2.7V | 00:00:00 | 01:19:49 | 00:00:00 | |
| NBG1-10 | 2026-09-01 16:30:06 | 47.84161 | 11.60083 | 85° | 89km/h | 13433m | 4.8m/s | -54.8°C | 7.0% | 163.9hPa | 2.7V | 00:00:00 | 01:19:47 | 00:00:00 | |
| OE5MMP-10 | 2026-09-01 16:30:04 | 47.84157 | 11.60021 | 84° | 89km/h | 13423m | 5.2m/s | -54.8°C | 7.0% | 164.2hPa | 2.7V | 00:00:00 | 01:19:45 | 00:00:00 | |
| DL6DJ-15 | 2026-09-01 16:29:58 | 47.84142 | 11.59825 | 81° | 91km/h | 13395m | 5.3m/s | -55.4°C | 4.2% | 164.9hPa | 2.7V | 00:00:00 | 00:00:00 | 00:00:00 | |
| DN1GJH-1 | 2026-09-01 16:29:57 | 47.84142 | 11.59825 | 83° | 91km/h | 13395m | 5.3m/s | -55.4°C | 4.3% | 165.0hPa | 2.7V | 00:00:00 | 00:00:00 | 00:00:00 | |
| DO3MHA-12 | 2026-09-01 16:29:54 | 47.84129 | 11.59686 | 83° | 95km/h | 13375m | 5.0m/s | -55.7°C | 8.2% | 165.5hPa | 2.7V | 00:00:00 | 01:19:35 | 00:00:00 | |
| DO3MHA-11 | 2026-09-01 16:29:51 | 47.84120 | 11.59577 | 84° | 93km/h | 13360m | 3.8m/s | -55.7°C | 8.4% | 165.8hPa | 2.7V | 00:00:00 | 01:19:32 | 00:00:00 | |
| DB0UT-7 | 2026-09-01 16:29:48 | 47.84112 | 11.59469 | 84° | 86km/h | 13344m | 4.6m/s | -55.7°C | 8.5% | 166.3hPa | 2.7V | 00:00:00 | 00:00:00 | 00:00:00 | |
| DO8TBO-1 | 2026-09-01 16:29:45 | 47.84101 | 11.59364 | 80° | 86km/h | 13329m | 4.6m/s | -55.5°C | 8.4% | 166.6hPa | 2.7V | 00:00:00 | 01:19:26 | 00:00:00 | |
| DO3MHA-12 | 2026-09-01 16:29:44 | 47.84097 | 11.59330 | 80° | 88km/h | 13324m | 4.8m/s | -55.5°C | 8.3% | 166.7hPa | 2.7V | 00:00:00 | 01:19:25 | 00:00:00 | |
| DF7PN | 2026-09-01 16:29:43 | 47.84089 | 11.59264 | 79° | 88km/h | 13314m | 5.7m/s | -55.6°C | 4.7% | 167.1hPa | 2.7V | 00:00:00 | 00:00:00 | 00:00:00 | |
| OE5DXL-15 | 2026-09-01 16:29:42 | 47.84089 | 11.59264 | 80° | 84km/h | 13314m | 5.6m/s | -55.5°C | 8.3% | 167.0hPa | 2.7V | 00:00:00 | 00:00:00 | 00:00:00 | |
| DO3MHA-11 | 2026-09-01 16:29:41 | 47.84085 | 11.59232 | 81° | 86km/h | 13309m | 4.6m/s | -55.6°C | 8.5% | 167.1hPa | 2.7V | 00:00:00 | 01:19:22 | 00:00:00 | |
| OE5DRO-10 | 2026-09-01 16:29:40 | 47.84081 | 11.59199 | 81° | 86km/h | 13304m | 4.9m/s | -55.5°C | 8.4% | 167.3hPa | 2.7V | 00:00:00 | 00:00:00 | 00:00:00 | |
| OE5WHR-10 | 2026-09-01 16:29:39 | 47.84078 | 11.59167 | 82° | 84km/h | 13299m | 4.9m/s | -55.5°C | 8.5% | 167.4hPa | 2.7V | 00:00:00 | 00:00:00 | 08:30:00 | |
| DG1MFX-10 | 2026-09-01 16:29:37 | 47.84075 | 11.59135 | 82° | 86km/h | 13294m | 5.1m/s | -55.6°C | 5.0% | 167.6hPa | 2.7V | 00:00:00 | 00:00:00 | 00:00:00 | |
| DN1GJH-1 | 2026-09-01 16:29:36 | 47.84071 | 11.59104 | 82° | 86km/h | 13289m | 5.1m/s | -55.5°C | 5.0% | 167.7hPa | 2.7V | 00:00:00 | 00:00:00 | 00:00:00 | |
| DO3MHA-12 | 2026-09-01 16:29:34 | 47.84061 | 11.59009 | 81° | 86km/h | 13274m | 5.7m/s | -55.4°C | 8.7% | 168.0hPa | 2.7V | 00:00:00 | 01:19:15 | 00:00:00 | |
| NBG1-10 | 2026-09-01 16:29:33 | 47.84058 | 11.58978 | 81° | 82km/h | 13269m | 4.7m/s | -55.3°C | 8.7% | 168.2hPa | 2.7V | 00:00:00 | 01:19:14 | 00:00:00 | |
| DO3MHA-11 | 2026-09-01 16:29:31 | 47.84050 | 11.58917 | 81° | 86km/h | 13258m | 5.2m/s | -55.2°C | 8.8% | 168.5hPa | 2.7V | 00:00:00 | 01:19:12 | 00:00:00 | |
| PG1ADW-2 | 2026-09-01 16:29:29 | 47.84042 | 11.58854 | 79° | 82km/h | 13248m | 4.5m/s | -55.1°C | 8.8% | 168.7hPa | 2.7V | 00:00:00 | 00:00:00 | 00:00:00 | |
| DL6DJ-15 | 2026-09-01 16:29:27 | 47.84034 | 11.58790 | 80° | 88km/h | 13238m | 5.6m/s | -55.2°C | 5.2% | 169.0hPa | 2.7V | 00:00:00 | 00:00:00 | 00:00:00 | |
| OE5MMP-10 | 2026-09-01 16:29:24 | 47.84025 | 11.58694 | 84° | 82km/h | 13224m | 4.4m/s | -55.1°C | 8.8% | 169.4hPa | 2.7V | 00:00:00 | 01:19:05 | 00:00:00 | |
| DO3MHA-11 | 2026-09-01 16:29:21 | 47.84019 | 11.58601 | 85° | 82km/h | 13209m | 5.1m/s | -55.1°C | 8.6% | 169.8hPa | 2.7V | 00:00:00 | 01:19:02 | 00:00:00 | |
| OE5WHR-10 | 2026-09-01 16:29:18 | 47.84012 | 11.58509 | 84° | 80km/h | 13194m | 4.6m/s | -55.0°C | 8.7% | 170.2hPa | 2.7V | 00:00:00 | 00:00:00 | 00:00:00 | |
| DG1MFX-10 | 2026-09-01 16:29:17 | 47.84012 | 11.58509 | 84° | 84km/h | 13194m | 4.7m/s | -55.1°C | 5.2% | 170.2hPa | 2.7V | 00:00:00 | 00:00:00 | 00:00:00 | |
| DN1GJH-1 | 2026-09-01 16:29:16 | 47.84010 | 11.58479 | 84° | 82km/h | 13190m | 4.7m/s | -55.1°C | 5.2% | 170.3hPa | 2.7V | 00:00:00 | 00:00:00 | 00:00:00 | |
| DO8TBO-1 | 2026-09-01 16:29:15 | 47.84004 | 11.58418 | 81° | 84km/h | 13179m | 4.4m/s | -55.1°C | 8.9% | 170.5hPa | 2.7V | 00:00:00 | 01:18:56 | 00:00:00 | |
| DK5PH-5 | 2026-09-01 16:29:14 | 47.84001 | 11.58388 | 82° | 78km/h | 13174m | 4.5m/s | 0°C | 0% | 0hPa | 2.7V | 00:00:00 | 01:18:55 | 00:00:00 | |
| DF7PN | 2026-09-01 16:29:12 | 47.83994 | 11.58299 | 85° | 77km/h | 13160m | 4.9m/s | -55.2°C | 5.7% | 171.1hPa | 2.7V | 00:00:00 | 00:00:00 | 00:00:00 | |
| DO3MHA-11 | 2026-09-01 16:29:11 | 47.83994 | 11.58299 | 86° | 80km/h | 13160m | 4.9m/s | -55.2°C | 9.5% | 171.1hPa | 2.7V | 00:00:00 | 01:18:52 | 00:00:00 | |
| PG1ADW-2 | 2026-09-01 16:29:09 | 47.83991 | 11.58240 | 87° | 84km/h | 13150m | 4.9m/s | -55.3°C | 9.6% | 171.3hPa | 2.7V | 00:00:00 | 00:00:00 | 00:00:00 | |
| DO3MHA-12 | 2026-09-01 16:29:04 | 47.83984 | 11.58091 | 86° | 84km/h | 13125m | 5.2m/s | -55.4°C | 10.0% | 172.0hPa | 2.7V | 00:00:00 | 01:18:45 | 00:00:00 | |
| DL6DJ-15 | 2026-09-01 16:28:56 | 47.83973 | 11.57841 | 87° | 86km/h | 13085m | 4.7m/s | -55.4°C | 6.4% | 173.2hPa | 2.7V | 00:00:00 | 00:00:00 | 00:00:00 | |
| DO3MHA-12 | 2026-09-01 16:28:54 | 47.83971 | 11.57776 | 88° | 88km/h | 13075m | 5.2m/s | -55.3°C | 10.3% | 173.4hPa | 2.7V | 00:00:00 | 01:18:35 | 08:30:00 | |
| DO3MHA-11 | 2026-09-01 16:28:51 | 47.83968 | 11.57677 | 88° | 89km/h | 13061m | 5.2m/s | -55.4°C | 10.6% | 173.8hPa | 2.7V | 00:00:00 | 01:18:32 | 00:00:00 | |
| PG1ADW-2 | 2026-09-01 16:28:49 | 47.83966 | 11.57611 | 88° | 95km/h | 13052m | 4.8m/s | -55.4°C | 11.0% | 174.0hPa | 2.7V | 00:00:00 | 01:18:30 | 00:00:00 | |
| DB0UT-7 | 2026-09-01 16:28:48 | 47.83966 | 11.57578 | 89° | 95km/h | 13047m | 4.1m/s | -55.5°C | 11.0% | 174.2hPa | 2.7V | 00:00:00 | 00:00:00 | 00:00:00 | |
| DO8TBO-1 | 2026-09-01 16:28:45 | 47.83965 | 11.57477 | 91° | 97km/h | 13033m | 4.1m/s | -55.4°C | 11.4% | 174.6hPa | 2.7V | 00:00:00 | 01:18:26 | 08:30:00 | |
| DO3MHA-12 | 2026-09-01 16:28:44 | 47.83965 | 11.57443 | 91° | 95km/h | 13029m | 4.5m/s | -55.5°C | 11.4% | 174.7hPa | 2.7V | 00:00:00 | 01:18:25 | 00:00:00 | |
| OE5DRO-10 | 2026-09-01 16:28:43 | 47.83965 | 11.57408 | 91° | 97km/h | 13024m | 5.3m/s | -55.4°C | 11.4% | 174.8hPa | 2.7V | 00:00:00 | 00:00:00 | 00:00:00 | |
| OE5DXL-15 | 2026-09-01 16:28:42 | 47.83965 | 11.57374 | 91° | 97km/h | 13019m | 5.3m/s | -55.4°C | 11.5% | 174.9hPa | 2.7V | 00:00:00 | 00:00:00 | 00:00:00 | |
| DO3MHA-11 | 2026-09-01 16:28:41 | 47.83965 | 11.57339 | 91° | 97km/h | 13014m | 4.4m/s | -55.4°C | 11.4% | 175.1hPa | 2.7V | 00:00:00 | 01:18:22 | 00:00:00 | |
| DF7PN | 2026-09-01 16:28:40 | 47.83966 | 11.57304 | 90° | 95km/h | 13009m | 5.0m/s | -55.5°C | 7.4% | 175.2hPa | 2.7V | 00:00:00 | 00:00:00 | 00:00:00 | |
| DG1MJG | 2026-09-01 16:28:39 | 47.83966 | 11.57304 | 92° | 95km/h | 13009m | 5.0m/s | -55.5°C | 7.4% | 175.2hPa | 2.7V | 00:00:00 | 00:00:00 | 00:00:00 | |
| IN3HCDX | 2026-09-01 16:28:38 | 47.83966 | 11.57268 | 92° | 97km/h | 13004m | 4.8m/s | 0°C | 0% | 0hPa | 2.7V | 00:00:00 | 00:00:00 | 00:00:00 | |
| OE5WHR-10 | 2026-09-01 16:28:36 | 47.83968 | 11.57158 | 92° | 97km/h | 12989m | 4.5m/s | -55.6°C | 11.9% | 175.7hPa | 2.7V | 00:00:00 | 00:00:00 | 00:00:00 | |
| DN1GJH-1 | 2026-09-01 16:28:35 | 47.83968 | 11.57158 | 93° | 99km/h | 12989m | 4.5m/s | -55.7°C | 0% | 175.8hPa | 2.7V | 00:00:00 | 00:00:00 | 00:00:00 | |
| DO3MHA-12 | 2026-09-01 16:28:34 | 47.83970 | 11.57084 | 93° | 97km/h | 12980m | 4.5m/s | -55.9°C | 12.5% | 176.0hPa | 2.7V | 00:00:00 | 01:18:15 | 00:00:00 | |
| DO3MHA-11 | 2026-09-01 16:28:31 | 47.83972 | 11.56971 | 91° | 97km/h | 12966m | 4.5m/s | -56.1°C | 13.0% | 176.4hPa | 2.7V | 00:00:00 | 01:18:12 | 00:00:00 | |
| PG1ADW-2 | 2026-09-01 16:28:29 | 47.83973 | 11.56898 | 90° | 97km/h | 12956m | 4.7m/s | -56.1°C | 13.2% | 176.7hPa | 2.7V | 00:00:00 | 00:00:00 | 00:00:00 | |
| NBG1-10 | 2026-09-01 16:28:27 | 47.83971 | 11.56826 | 88° | 97km/h | 12947m | 4.1m/s | -56.1°C | 13.3% | 177.0hPa | 2.7V | 00:00:00 | 01:18:08 | 00:00:00 | |
| OE5MMP-10 | 2026-09-01 16:28:26 | 47.83970 | 11.56790 | 88° | 95km/h | 12942m | 5.1m/s | -56.2°C | 13.4% | 177.1hPa | 2.7V | 00:00:00 | 01:18:07 | 00:00:00 | |
| DL6DJ-15 | 2026-09-01 16:28:25 | 47.83970 | 11.56754 | 87° | 93km/h | 12937m | 5.1m/s | -56.3°C | 9.2% | 177.3hPa | 2.7V | 00:00:00 | 00:00:00 | 00:00:00 | |
| DO3MHA-12 | 2026-09-01 16:28:24 | 47.83969 | 11.56719 | 88° | 97km/h | 12932m | 4.3m/s | -56.3°C | 13.9% | 177.4hPa | 2.7V | 00:00:00 | 01:18:05 | 00:00:00 | |
| DO3MHA-11 | 2026-09-01 16:28:21 | 47.83965 | 11.56612 | 88° | 97km/h | 12918m | 5.1m/s | -56.5°C | 14.6% | 177.8hPa | 2.7V | 00:00:00 | 01:18:02 | 00:00:00 | |
| DB0UT-7 | 2026-09-01 16:28:18 | 47.83962 | 11.56503 | 88° | 97km/h | 12903m | 5.0m/s | -56.5°C | 14.9% | 178.2hPa | 2.7V | 00:00:00 | 01:17:59 | 00:00:00 | |
| OE5MMP-10 | 2026-09-01 16:28:16 | 47.83959 | 11.56430 | 87° | 99km/h | 12893m | 4.7m/s | -56.5°C | 15.6% | 178.5hPa | 2.7V | 00:00:00 | 01:17:57 | 00:00:00 | |
| OE5WHR-10 | 2026-09-01 16:28:15 | 47.83957 | 11.56393 | 86° | 97km/h | 12889m | 3.2m/s | -56.5°C | 15.6% | 178.6hPa | 2.7V | 00:00:00 | 00:00:00 | 00:00:00 | |
| DO3MHA-12 | 2026-09-01 16:28:14 | 47.83955 | 11.56356 | 86° | 99km/h | 12884m | 5.5m/s | -56.5°C | 15.5% | 178.7hPa | 2.7V | 00:00:00 | 01:17:55 | 00:00:00 | |
| OE5DXL-15 | 2026-09-01 16:28:12 | 47.83951 | 11.56283 | 86° | 95km/h | 12874m | 3.9m/s | -56.6°C | 15.8% | 179.0hPa | 2.7V | 00:00:00 | 00:00:00 | 00:00:00 | |
| DO3MHA-11 | 2026-09-01 16:28:11 | 47.83949 | 11.56246 | 86° | 97km/h | 12870m | 3.8m/s | -56.6°C | 15.6% | 179.2hPa | 2.7V | 00:00:00 | 01:17:52 | 00:00:00 | |
| PG1ADW-2 | 2026-09-01 16:28:09 | 47.83945 | 11.56172 | 86° | 97km/h | 12860m | 5.4m/s | -56.5°C | 15.7% | 179.4hPa | 2.7V | 00:00:00 | 00:00:00 | 00:00:00 | |
| DG1MJG | 2026-09-01 16:28:08 | 47.83945 | 11.56172 | 86° | 99km/h | 12860m | 5.4m/s | -56.6°C | 10.8% | 179.5hPa | 2.7V | 00:00:00 | 00:00:00 | 00:00:00 | |
| OE5MMP-10 | 2026-09-01 16:28:06 | 47.83938 | 11.56064 | 85° | 95km/h | 12845m | 6.5m/s | -56.4°C | 15.4% | 179.8hPa | 2.7V | 00:00:00 | 01:17:47 | 00:00:00 | |
| OE5DRO-10 | 2026-09-01 16:28:05 | 47.83936 | 11.56027 | 85° | 95km/h | 12840m | 4.4m/s | -56.4°C | 15.2% | 180.0hPa | 2.7V | 00:00:00 | 00:00:00 | 00:00:00 | |
| DO3MHA-12 | 2026-09-01 16:28:04 | 47.83934 | 11.55991 | 86° | 95km/h | 12835m | 5.0m/s | -56.4°C | 15.1% | 180.1hPa | 2.7V | 00:00:00 | 01:17:45 | 00:00:00 | |
| DO3MHA-11 | 2026-09-01 16:28:01 | 47.83928 | 11.55886 | 85° | 97km/h | 12815m | 6.0m/s | -56.5°C | 15.8% | 180.7hPa | 2.7V | 00:00:00 | 01:17:42 | 00:00:00 | |
| BAUMI2-15 | 2026-09-01 16:27:58 | 47.83918 | 11.55780 | 80° | 97km/h | 12799m | 5.1m/s | -56.5°C | 16.6% | 181.2hPa | 2.7V | 00:00:00 | 01:17:39 | 08:30:00 | |
| OE5MMP-10 | 2026-09-01 16:27:56 | 47.83908 | 11.55708 | 79° | 95km/h | 12789m | 5.4m/s | -56.7°C | 16.9% | 181.5hPa | 2.7V | 00:00:00 | 01:17:37 | 00:00:00 | |
| DG1MFX-10 | 2026-09-01 16:27:55 | 47.83908 | 11.55708 | 79° | 99km/h | 12789m | 5.5m/s | -56.8°C | 11.9% | 181.5hPa | 2.7V | 00:00:00 | 00:00:00 | 00:00:00 | |
| OE5WHR-10 | 2026-09-01 16:27:54 | 47.83897 | 11.55637 | 78° | 97km/h | 12778m | 4.7m/s | 0°C | 0% | 0hPa | 2.7V | 00:00:00 | 01:17:35 | 00:00:00 | |
| BAUMI2-15 | 2026-09-01 16:27:53 | 47.83892 | 11.55602 | 78° | 95km/h | 12774m | 4.5m/s | -56.9°C | 17.9% | 181.9hPa | 2.7V | 00:00:00 | 01:17:34 | 00:00:00 | |
| IN3HCDX | 2026-09-01 16:27:52 | 47.83892 | 11.55602 | 79° | 97km/h | 12774m | 4.5m/s | 0°C | 0% | 0hPa | 2.7V | 00:00:00 | 00:00:00 | 00:00:00 | |
| DO3MHA-11 | 2026-09-01 16:27:51 | 47.83882 | 11.55531 | 79° | 95km/h | 12764m | 5.1m/s | -56.9°C | 18.0% | 182.1hPa | 2.7V | 00:00:00 | 01:17:32 | 00:00:00 | |
| PG1ADW-2 | 2026-09-01 16:27:49 | 47.83873 | 11.55462 | 78° | 99km/h | 12754m | 3.9m/s | 0°C | 0% | 0hPa | 2.7V | 00:00:00 | 00:00:00 | 00:00:00 | |
| BAUMI2-15 | 2026-09-01 16:27:48 | 47.83868 | 11.55427 | 78° | 95km/h | 12750m | 4.8m/s | -57.0°C | 18.3% | 182.6hPa | 2.7V | 00:00:00 | 01:17:29 | 00:00:00 | |
| OE5MMP-10 | 2026-09-01 16:27:46 | 47.83858 | 11.55358 | 79° | 97km/h | 12739m | 4.8m/s | -57.0°C | 18.6% | 182.9hPa | 2.7V | 00:00:00 | 01:17:27 | 00:00:00 | |
| DO8TBO-1 | 2026-09-01 16:27:45 | 47.83853 | 11.55324 | 79° | 99km/h | 12735m | 4.0m/s | -57.0°C | 18.5% | 183.0hPa | 2.7V | 00:00:00 | 01:17:26 | 00:00:00 | |
| DO3MHA-12 | 2026-09-01 16:27:44 | 47.83849 | 11.55288 | 80° | 97km/h | 12730m | 5.2m/s | !°C | 18.7% | 183.1hPa | 2.7V | 00:00:00 | 01:17:25 | 00:00:00 | |
| BAUMI2-15 | 2026-09-01 16:27:43 | 47.83844 | 11.55253 | 80° | 97km/h | 12725m | 5.5m/s | -57.0°C | 18.8% | 183.3hPa | 2.7V | 00:00:00 | 01:17:24 | 00:00:00 | |
| OE5DXL-15 | 2026-09-01 16:27:42 | 47.83840 | 11.55218 | 80° | 99km/h | 12720m | 5.0m/s | -57.0°C | 18.8% | 183.4hPa | 2.7V | 00:00:00 | 00:00:00 | 00:00:00 | |
| DO3MHA-11 | 2026-09-01 16:27:41 | 47.83835 | 11.55182 | 80° | 99km/h | 12715m | 3.9m/s | -57.0°C | 18.9% | 183.6hPa | 2.7V | 00:00:00 | 01:17:22 | 00:00:00 | |
| BAUMI2-15 | 2026-09-01 16:27:38 | 47.83823 | 11.55073 | 81° | 99km/h | 12700m | 5.9m/s | -57.1°C | 19.6% | 184.0hPa | 2.7V | 00:00:00 | 01:17:19 | 00:00:00 | |
| DG1MJG | 2026-09-01 16:27:37 | 47.83823 | 11.55073 | 81° | 97km/h | 12700m | 5.9m/s | -57.1°C | 14.1% | 184.1hPa | 2.7V | 00:00:00 | 00:00:00 | 00:00:00 | |
| OE5MMP-10 | 2026-09-01 16:27:36 | 47.83815 | 11.55000 | 82° | 100km/h | 12690m | 5.1m/s | -57.1°C | 19.5% | 184.3hPa | 2.7V | 00:00:00 | 01:17:17 | 00:00:00 | |
| DG1MFX-10 | 2026-09-01 16:27:35 | 47.83815 | 11.55000 | 83° | 99km/h | 12690m | 5.2m/s | -57.1°C | 14.1% | 184.3hPa | 2.7V | 00:00:00 | 00:00:00 | 00:00:00 | |
| DO3MHA-12 | 2026-09-01 16:27:34 | 47.83808 | 11.54926 | 84° | 100km/h | 12680m | 5.0m/s | -57.1°C | 20.0% | 184.6hPa | 2.7V | 00:00:00 | 01:17:15 | 00:00:00 | |
| OE5WHR-10 | 2026-09-01 16:27:33 | 47.83806 | 11.54888 | 85° | 99km/h | 12675m | 4.7m/s | 0°C | 0% | 0hPa | 2.7V | 00:00:00 | 00:00:00 | 00:00:00 | |
| DO3MHA-11 | 2026-09-01 16:27:31 | 47.83800 | 11.54812 | 84° | 99km/h | 12665m | 4.1m/s | -57.3°C | 20.2% | 185.0hPa | 2.7V | 00:00:00 | 01:17:12 | 08:30:00 | |
| PG1ADW-2 | 2026-09-01 16:27:29 | 47.83795 | 11.54735 | 84° | 97km/h | 12656m | 5.1m/s | 0°C | 0% | 0hPa | 2.7V | 00:00:00 | 01:17:10 | 00:00:00 | |
| BAUMI2-15 | 2026-09-01 16:27:28 | 47.83792 | 11.54697 | 84° | 99km/h | 12650m | 5.1m/s | -57.4°C | 20.7% | 185.4hPa | 2.7V | 00:00:00 | 01:17:09 | 00:00:00 | |
| OE5DRO-10 | 2026-09-01 16:27:27 | 47.83789 | 11.54660 | 84° | 97km/h | 12645m | 4.9m/s | -57.5°C | 20.9% | 185.6hPa | 2.7V | 00:00:00 | 00:00:00 | 08:30:00 | |
| OE5MMP-10 | 2026-09-01 16:27:26 | 47.83786 | 11.54624 | 84° | 97km/h | 12640m | 4.9m/s | -57.6°C | 21.4% | 185.7hPa | 2.7V | 00:00:00 | 01:17:07 | 00:00:00 | |
| DO3MHA-12 | 2026-09-01 16:27:24 | 47.83780 | 11.54552 | 81° | 97km/h | 12631m | 5.5m/s | -57.5°C | 21.4% | 186.0hPa | 2.7V | 00:00:00 | 01:17:05 | 08:30:00 | |
| BAUMI2-15 | 2026-09-01 16:27:23 | 47.83775 | 11.54516 | 80° | 97km/h | 12626m | 4.5m/s | -57.5°C | 21.5% | 186.1hPa | 2.7V | 00:00:00 | 01:17:04 | 00:00:00 | |
| DO3MHA-11 | 2026-09-01 16:27:21 | 47.83767 | 11.54446 | 80° | 97km/h | 12616m | 4.4m/s | -57.5°C | 21.4% | 186.5hPa | 2.7V | 00:00:00 | 01:17:02 | 00:00:00 | |
| BAUMI2-15 | 2026-09-01 16:27:18 | 47.83752 | 11.54339 | 79° | 99km/h | 12603m | 4.5m/s | -57.6°C | 21.9% | 186.8hPa | 2.7V | 00:00:00 | 01:16:59 | 00:00:00 | |
| OE5MMP-10 | 2026-09-01 16:27:16 | 47.83742 | 11.54266 | 79° | 95km/h | 12593m | 4.6m/s | -57.5°C | 21.9% | 187.1hPa | 2.7V | 00:00:00 | 01:16:57 | 00:00:00 | |
| DG1MFX-10 | 2026-09-01 16:27:15 | 47.83742 | 11.54266 | 80° | 99km/h | 12593m | 4.7m/s | -57.6°C | 16.1% | 187.2hPa | 2.7V | 00:00:00 | 00:00:00 | 00:00:00 | |
| DO3MHA-12 | 2026-09-01 16:27:14 | 47.83732 | 11.54194 | 79° | 97km/h | 12585m | 3.8m/s | -57.5°C | 21.9% | 187.4hPa | 2.7V | 00:00:00 | 01:16:55 | 00:00:00 | |
| BAUMI2-15 | 2026-09-01 16:27:13 | 47.83727 | 11.54159 | 79° | 93km/h | 12580m | 5.3m/s | -57.5°C | 22.1% | 187.5hPa | 2.7V | 00:00:00 | 01:16:54 | 08:30:00 | |
| OE5WHR-10 | 2026-09-01 16:27:12 | 47.83723 | 11.54125 | 79° | 119km/h | 12575m | 4.7m/s | 0°C | 0% | 0hPa | 2.7V | 00:00:00 | 00:00:00 | 00:00:00 | |
| DO3MHA-11 | 2026-09-01 16:27:11 | 47.83718 | 11.54091 | 79° | 99km/h | 12570m | 4.9m/s | -57.5°C | 22.6% | 187.8hPa | 2.7V | 00:00:00 | 01:16:52 | 00:00:00 | |
| IN3HCDX | 2026-09-01 16:27:10 | 47.83718 | 11.54091 | 79° | 93km/h | 12570m | 5.0m/s | 0°C | 0% | 0hPa | 2.7V | 00:00:00 | 00:00:00 | 00:00:00 | |
| BAUMI2-15 | 2026-09-01 16:27:08 | 47.83706 | 11.53986 | 82° | 100km/h | 12556m | 4.6m/s | -57.6°C | 23.2% | 188.3hPa | 2.7V | 00:00:00 | 01:16:49 | 00:00:00 | |
| DF7PN | 2026-09-01 16:27:07 | 47.83702 | 11.53949 | 81° | 99km/h | 12552m | 3.9m/s | -57.6°C | 17.1% | 188.4hPa | 2.7V | 00:00:00 | 00:00:00 | 00:00:00 | |
| OE5MMP-10 | 2026-09-01 16:27:06 | 47.83698 | 11.53911 | 82° | 100km/h | 12547m | 4.8m/s | -57.6°C | 22.8% | 188.5hPa | 2.7V | 00:00:00 | 01:16:47 | 08:30:00 | |
| DO3MHA-12 | 2026-09-01 16:27:04 | 47.83691 | 11.53836 | 82° | 100km/h | 12537m | 4.7m/s | -57.6°C | 23.3% | 188.8hPa | 2.7V | 00:00:00 | 01:16:45 | 00:00:00 | |
| DL6DJ-15 | 2026-09-01 16:26:52 | 47.83632 | 11.53361 | 79° | 95km/h | 12476m | 4.7m/s | -57.5°C | 17.5% | 190.7hPa | 2.7V | 00:00:00 | 00:00:00 | 00:00:00 | |
| DO3MHA-11 | 2026-09-01 16:26:51 | 47.83632 | 11.53361 | 80° | 95km/h | 12476m | 4.7m/s | -57.5°C | 23.6% | 190.6hPa | 2.7V | 00:00:00 | 01:16:32 | 00:00:00 | |
| PG1ADW-2 | 2026-09-01 16:26:49 | 47.83622 | 11.53291 | 78° | 93km/h | 12466m | 4.2m/s | 0°C | 0% | 0hPa | 2.7V | 00:00:00 | 00:00:00 | 08:30:00 | |
| BAUMI2-15 | 2026-09-01 16:26:48 | 47.83617 | 11.53256 | 79° | 95km/h | 12462m | 4.5m/s | -57.4°C | 24.0% | 191.0hPa | 2.7V | 00:00:00 | 01:16:29 | 00:00:00 | |
| OE5MMP-10 | 2026-09-01 16:26:46 | 47.83608 | 11.53187 | 79° | 93km/h | 12454m | 4.6m/s | -57.4°C | 24.2% | 191.3hPa | 2.7V | 00:00:00 | 01:16:27 | 00:00:00 | |
| DO3MHA-12 | 2026-09-01 16:26:44 | 47.83598 | 11.53118 | 79° | 91km/h | 12444m | 4.5m/s | -57.4°C | 24.9% | 191.6hPa | 2.7V | 00:00:00 | 01:16:25 | 00:00:00 | |
| DO8TBO-1 | 2026-09-01 16:26:43 | 47.83593 | 11.53083 | 80° | 91km/h | 12440m | 4.6m/s | -57.4°C | 25.4% | 191.8hPa | 2.7V | 00:00:00 | 01:16:24 | 00:00:00 | |
| OE5DXL-15 | 2026-09-01 16:26:42 | 47.83589 | 11.53049 | 80° | 91km/h | 12435m | 4.4m/s | -57.3°C | 25.6% | 191.8hPa | 2.7V | 00:00:00 | 00:00:00 | 00:00:00 | |
| DO3MHA-11 | 2026-09-01 16:26:41 | 47.83585 | 11.53015 | 79° | 91km/h | 12431m | 4.8m/s | -57.3°C | 25.9% | 192.0hPa | 2.7V | 00:00:00 | 01:16:22 | 00:00:00 | |
| BAUMI2-15 | 2026-09-01 16:26:38 | 47.83572 | 11.52914 | 80° | 91km/h | 12417m | 4.9m/s | -57.3°C | 26.3% | 192.4hPa | 2.7V | 00:00:00 | 01:16:19 | 00:00:00 | |
| DG1MJG | 2026-09-01 16:26:37 | 47.83571 | 11.52914 | 81° | 91km/h | 12417m | 4.9m/s | -57.4°C | 19.9% | 192.5hPa | 2.7V | 00:00:00 | 00:00:00 | 00:00:00 | |
| OE5MMP-10 | 2026-09-01 16:26:36 | 47.83562 | 11.52846 | 79° | 89km/h | 12406m | 3.9m/s | -57.4°C | 27.3% | 192.7hPa | 2.7V | 00:00:00 | 01:16:17 | 00:00:00 | |
| DO3MHA-12 | 2026-09-01 16:26:34 | 47.83553 | 11.52778 | 80° | 89km/h | 12399m | 4.9m/s | -57.5°C | 27.8% | 193.0hPa | 2.7V | 00:00:00 | 01:16:15 | 00:00:00 | |
| BAUMI2-15 | 2026-09-01 16:26:33 | 47.83549 | 11.52744 | 80° | 89km/h | 12393m | 4.7m/s | -57.5°C | 28.2% | 193.1hPa | 2.7V | 00:00:00 | 01:16:14 | 00:00:00 | |
| DO3MHA-11 | 2026-09-01 16:26:31 | 47.83542 | 11.52677 | 83° | 89km/h | 12385m | 1.4m/s | -57.6°C | 29.1% | 193.4hPa | 2.7V | 00:00:00 | 01:16:12 | 00:00:00 | |
| OE5DRO-10 | 2026-09-01 16:26:30 | 47.83538 | 11.52644 | 83° | 89km/h | 12382m | 4.9m/s | -57.7°C | 29.6% | 193.6hPa | 2.7V | 00:00:00 | 00:00:00 | 00:00:00 | |
| BAUMI2-15 | 2026-09-01 16:26:28 | 47.83532 | 11.52578 | 83° | 89km/h | 12371m | 4.7m/s | -57.6°C | 30.5% | 193.9hPa | 2.7V | 00:00:00 | 01:16:09 | 08:30:00 | |
| OE5MMP-10 | 2026-09-01 16:26:26 | 47.83527 | 11.52512 | 84° | 91km/h | 12363m | 5.1m/s | -57.7°C | 31.6% | 194.1hPa | 2.7V | 00:00:00 | 01:16:07 | 00:00:00 | |
| IN3HCDX | 2026-09-01 16:26:25 | 47.83527 | 11.52512 | 85° | 89km/h | 12363m | 5.2m/s | 0°C | 0% | 0hPa | 2.7V | 00:00:00 | 00:00:00 | 00:00:00 | |
| DO3MHA-12 | 2026-09-01 16:26:24 | 47.83523 | 11.52444 | 84° | 91km/h | 12352m | 5.0m/s | -57.7°C | 33.1% | 194.5hPa | 2.7V | 00:00:00 | 01:16:05 | 00:00:00 | |
| BAUMI2-15 | 2026-09-01 16:26:23 | 47.83520 | 11.52410 | 84° | 91km/h | 12347m | 3.7m/s | -57.8°C | 34.0% | 194.6hPa | 2.7V | 00:00:00 | 01:16:04 | 00:00:00 | |
| DO3MHA-11 | 2026-09-01 16:26:21 | 47.83516 | 11.52341 | 85° | 89km/h | 12337m | 5.2m/s | -57.9°C | 35.8% | 194.9hPa | 2.7V | 00:00:00 | 01:16:02 | 00:00:00 | |
| BAUMI2-15 | 2026-09-01 16:26:18 | 47.83510 | 11.52239 | 87° | 89km/h | 12323m | 4.8m/s | -58.1°C | 38.5% | 195.3hPa | 2.7V | 00:00:00 | 01:15:59 | 00:00:00 | |
| OE5MMP-10 | 2026-09-01 16:26:16 | 47.83508 | 11.52172 | 88° | 91km/h | 12313m | 5.0m/s | -58.3°C | 0% | 195.6hPa | 2.7V | 00:00:00 | 01:15:57 | 00:00:00 | |
| NBG1-10 | 2026-09-01 16:26:15 | 47.83507 | 11.52138 | 87° | 100km/h | 12308m | 4.8m/s | -58.5°C | 41.1% | 195.8hPa | 2.7V | 00:00:00 | 01:15:56 | 00:00:00 | |
| DG1MFX-10 | 2026-09-01 16:26:14 | 47.83507 | 11.52138 | 88° | 89km/h | 12308m | 4.8m/s | -58.6°C | 32.6% | 195.8hPa | 2.7V | 00:00:00 | 00:00:00 | 00:00:00 | |
| BAUMI2-15 | 2026-09-01 16:26:13 | 47.83505 | 11.52071 | 90° | 89km/h | 12299m | 4.8m/s | -58.9°C | 42.3% | 196.0hPa | 2.7V | 00:00:00 | 01:15:54 | 00:00:00 | |
| OE5DXL-15 | 2026-09-01 16:26:12 | 47.83505 | 11.52037 | 90° | 102km/h | 12293m | 5.8m/s | -59.3°C | 44.1% | 196.2hPa | 2.7V | 00:00:00 | 00:00:00 | 00:00:00 | |
| DB0NH | 2026-09-01 16:26:11 | 47.83505 | 11.52003 | 89° | 100km/h | 12288m | 3.7m/s | -59.5°C | 45.2% | 196.3hPa | 2.7V | 00:00:00 | 01:15:52 | 00:00:00 | |
| BAUMI2-15 | 2026-09-01 16:26:08 | 47.83506 | 11.51901 | 93° | 99km/h | 12276m | 4.2m/s | -59.5°C | 46.2% | 196.8hPa | 2.7V | 00:00:00 | 01:15:49 | 00:00:00 | |
| DG1MJG | 2026-09-01 16:26:07 | 47.83506 | 11.51901 | 94° | 93km/h | 12276m | 4.2m/s | -59.6°C | 36.8% | 196.8hPa | 2.7V | 00:00:00 | 00:00:00 | 00:00:00 | |
| OE5MMP-10 | 2026-09-01 16:26:06 | 47.83509 | 11.51830 | 94° | 104km/h | 12267m | 5.1m/s | 0°C | 0% | 0hPa | 2.7V | 00:00:00 | 01:15:47 | 00:00:00 | |
| DF7PN | 2026-09-01 16:26:05 | 47.83510 | 11.51792 | 92° | 100km/h | 12261m | 5.4m/s | -59.5°C | 38.2% | 197.2hPa | 2.7V | 00:00:00 | 00:00:00 | 00:00:00 | |
| DO3MHA-12 | 2026-09-01 16:26:04 | 47.83511 | 11.51754 | 92° | 106km/h | 12257m | 4.0m/s | -59.4°C | 48.4% | 197.4hPa | 2.7V | 00:00:00 | 01:15:45 | 00:00:00 | |
| BAUMI2-15 | 2026-09-01 16:26:03 | 47.83512 | 11.51714 | 91° | 110km/h | 12252m | 4.1m/s | -59.4°C | 48.6% | 197.5hPa | 2.7V | 00:00:00 | 01:15:44 | 00:00:00 | |
| DL6DJ-15 | 2026-09-01 16:25:50 | 47.83510 | 11.51156 | 88° | 104km/h | 12186m | 5.6m/s | -59.3°C | 42.1% | 199.6hPa | 2.7V | 00:00:00 | 00:00:00 | 00:00:00 | |
| DB0UT-7 | 2026-09-01 16:25:48 | 47.83510 | 11.51116 | 88° | 106km/h | 12181m | 4.4m/s | -59.2°C | 52.6% | 199.8hPa | 2.7V | 00:00:00 | 00:00:00 | 08:30:00 | |
| DO3MHA-12 | 2026-09-01 16:25:44 | 47.83505 | 11.50962 | 89° | 100km/h | 12162m | 5.0m/s | -59.1°C | 54.2% | 200.4hPa | 2.7V | 00:00:00 | 01:15:25 | 00:00:00 | |
| NBG1-10 | 2026-09-01 16:25:42 | 47.83504 | 11.50886 | 88° | 106km/h | 12154m | 5.6m/s | -59.1°C | 55.0% | 200.6hPa | 2.7V | 00:00:00 | 01:15:23 | 00:00:00 | |
| DO3MHA-11 | 2026-09-01 16:25:41 | 47.83503 | 11.50847 | 88° | 99km/h | 12148m | 4.7m/s | -59.0°C | 55.7% | 200.8hPa | 2.7V | 00:00:00 | 01:15:22 | 00:00:00 | |
| DB0NH | 2026-09-01 16:25:38 | 47.83498 | 11.50734 | 85° | 108km/h | 12135m | 5.4m/s | -59.5°C | 59.6% | 201.3hPa | 2.7V | 00:00:00 | 01:15:19 | 00:00:00 | |
| DG1MJG | 2026-09-01 16:25:36 | 47.83496 | 11.50697 | 85° | 99km/h | 12130m | 4.8m/s | -59.6°C | 49.4% | 201.5hPa | 2.7V | 00:00:00 | 00:00:00 | 00:00:00 | |
| DO3MHA-12 | 2026-09-01 16:25:34 | 47.83486 | 11.50587 | 82° | 108km/h | 12115m | 6.6m/s | -59.7°C | 61.4% | 201.9hPa | 2.7V | 00:00:00 | 01:15:15 | 00:00:00 | |
| OE5DRO-10 | 2026-09-01 16:25:33 | 47.83482 | 11.50551 | 81° | 108km/h | 12109m | 4.4m/s | -59.6°C | 62.6% | 202.1hPa | 2.7V | 00:00:00 | 00:00:00 | 00:00:00 | |
| DG1MFX-10 | 2026-09-01 16:25:32 | 47.83482 | 11.50551 | 81° | 99km/h | 12109m | 4.4m/s | -59.7°C | 51.2% | 202.1hPa | 2.7V | 00:00:00 | 00:00:00 | 00:00:00 | |
| DO3MHA-11 | 2026-09-01 16:25:31 | 47.83473 | 11.50477 | 81° | 111km/h | 12100m | 4.3m/s | -59.6°C | 62.9% | 202.4hPa | 2.7V | 00:00:00 | 01:15:12 | 00:00:00 | |
| DO3MHA-12 | 2026-09-01 16:25:24 | 47.83453 | 11.50181 | 86° | 108km/h | 12067m | 6.4m/s | -59.5°C | 60.4% | 203.4hPa | 2.7V | 00:00:00 | 01:15:05 | 00:00:00 | |
| DO3MHA-11 | 2026-09-01 16:25:21 | 47.83445 | 11.50058 | 87° | 106km/h | 12044m | 8.7m/s | -59.4°C | 62.5% | 204.2hPa | 2.7V | 00:00:00 | 01:15:02 | 00:00:00 | |
| DL6DJ-15 | 2026-09-01 16:25:19 | 47.83444 | 11.49939 | 89° | 104km/h | 12026m | 5.8m/s | -59.3°C | 53.9% | 204.8hPa | 2.7V | 00:00:00 | 00:00:00 | 00:00:00 | |
| DB0UT-7 | 2026-09-01 16:25:18 | 47.83444 | 11.49938 | 90° | 115km/h | 12026m | 5.8m/s | -59.3°C | 65.6% | 204.8hPa | 2.7V | 00:00:00 | 01:14:59 | 00:00:00 | |
| DO3MHA-12 | 2026-09-01 16:25:14 | 47.83445 | 11.49778 | 92° | 111km/h | 12005m | 5.5m/s | -59.1°C | 63.6% | 205.5hPa | 2.7V | 00:00:00 | 01:14:55 | 00:00:00 | |
| OE5MMP-10 | 2026-09-01 16:25:13 | 47.83447 | 11.49738 | 93° | 113km/h | 11999m | 6.5m/s | 0°C | 0% | 0hPa | 2.7V | 00:00:00 | 01:14:54 | 00:00:00 | |
| OE5DXL-15 | 2026-09-01 16:25:12 | 47.83448 | 11.49698 | 96° | 117km/h | 11992m | 7.1m/s | -59.0°C | 62.1% | 205.8hPa | 2.7V | 00:00:00 | 00:00:00 | 00:00:00 | |
| DO3MHA-11 | 2026-09-01 16:25:11 | 47.83451 | 11.49657 | 97° | 115km/h | 11986m | 5.1m/s | -59.0°C | 62.0% | 206.1hPa | 2.7V | 00:00:00 | 01:14:52 | 00:00:00 | |
| NBG1-10 | 2026-09-01 16:25:09 | 47.83456 | 11.49570 | 93° | 119km/h | 11973m | 6.5m/s | -58.9°C | 61.3% | 206.5hPa | 2.7V | 00:00:00 | 01:14:50 | 00:00:00 | |
| DG1MJG | 2026-09-01 16:25:06 | 47.83459 | 11.49442 | 93° | 113km/h | 11951m | 7.3m/s | -58.8°C | 51.3% | 207.3hPa | 2.7V | 00:00:00 | 00:00:00 | 00:00:00 | |
| DO3MHA-12 | 2026-09-01 16:25:04 | 47.83463 | 11.49356 | 97° | 117km/h | 11939m | 3.4m/s | -58.6°C | 63.1% | 207.6hPa | 2.7V | 00:00:00 | 01:14:45 | 00:00:00 | |
| DF7PN | 2026-09-01 16:25:03 | 47.83466 | 11.49313 | 96° | 113km/h | 11934m | 5.8m/s | -58.7°C | 52.0% | 207.8hPa | 2.7V | 00:00:00 | 00:00:00 | 00:00:00 | |
| DL6DJ-15 | 2026-09-01 16:24:48 | 47.83501 | 11.48607 | 95° | 117km/h | 11860m | 5.4m/s | -58.2°C | 52.1% | 210.3hPa | 2.7V | 00:00:00 | 00:00:00 | 00:00:00 | |
| DO3MHA-12 | 2026-09-01 16:24:44 | 47.83510 | 11.48475 | 96° | 122km/h | 11846m | 4.3m/s | -58.3°C | 64.8% | 210.7hPa | 2.7V | 00:00:00 | 01:14:25 | 00:00:00 | |
| OE5DXL-15 | 2026-09-01 16:24:42 | 47.83516 | 11.48384 | 97° | 124km/h | 11837m | 3.9m/s | -58.4°C | 65.3% | 211.1hPa | 2.7V | 00:00:00 | 00:00:00 | 08:30:00 | |
| DO3MHA-11 | 2026-09-01 16:24:41 | 47.83520 | 11.48339 | 97° | 122km/h | 11832m | 4.9m/s | -58.3°C | 64.2% | 211.2hPa | 2.7V | 00:00:00 | 01:14:22 | 00:00:00 | |
| DO8TBO-1 | 2026-09-01 16:24:39 | 47.83527 | 11.48247 | 98° | 124km/h | 11823m | 4.3m/s | -58.2°C | 64.3% | 211.5hPa | 2.7V | 00:00:00 | 01:14:20 | 00:00:00 | |
| OE5MMP-10 | 2026-09-01 16:24:37 | 47.83536 | 11.48156 | 98° | 124km/h | 11813m | 4.5m/s | 0°C | 0% | 0hPa | 2.7V | 00:00:00 | 01:14:18 | 00:00:00 | |
| NBG1-10 | 2026-09-01 16:24:36 | 47.83540 | 11.48111 | 98° | 124km/h | 11809m | 4.5m/s | -58.1°C | 64.2% | 211.9hPa | 2.7V | 00:00:00 | 01:14:17 | 00:00:00 | |
| DG1MJG | 2026-09-01 16:24:35 | 47.83540 | 11.48111 | 99° | 120km/h | 11809m | 4.6m/s | -58.2°C | 53.1% | 212.0hPa | 2.7V | 00:00:00 | 00:00:00 | 00:00:00 | |
| DO3MHA-12 | 2026-09-01 16:24:34 | 47.83548 | 11.48021 | 98° | 126km/h | 11799m | 4.0m/s | -58.0°C | 64.5% | 212.3hPa | 2.7V | 00:00:00 | 01:14:15 | 00:00:00 | |
| DF7PN | 2026-09-01 16:24:32 | 47.83556 | 11.47929 | 96° | 122km/h | 11791m | 4.4m/s | -58.0°C | 53.4% | 212.7hPa | 2.7V | 00:00:00 | 00:00:00 | 00:00:00 | |
| DO3MHA-11 | 2026-09-01 16:24:31 | 47.83559 | 11.47883 | 96° | 126km/h | 11785m | 6.0m/s | -57.9°C | 63.9% | 212.8hPa | 2.7V | 00:00:00 | 01:14:12 | 08:30:00 | |
| OE5MMP-10 | 2026-09-01 16:24:27 | 47.83569 | 11.47694 | 94° | 128km/h | 11766m | 5.1m/s | 0°C | 0% | 0hPa | 2.7V | 00:00:00 | 01:14:08 | 00:00:00 | |
| DO3MHA-12 | 2026-09-01 16:24:24 | 47.83573 | 11.47551 | 94° | 122km/h | 11751m | 5.5m/s | -57.6°C | 64.1% | 214.0hPa | 2.7V | 00:00:00 | 01:14:05 | 08:30:00 | |
| DO3MHA-11 | 2026-09-01 16:24:21 | 47.83581 | 11.47409 | 96° | 124km/h | 11737m | 4.6m/s | -57.5°C | 65.9% | 214.5hPa | 2.7V | 00:00:00 | 01:14:02 | 00:00:00 | |
| DB0UT-7 | 2026-09-01 16:24:18 | 47.83588 | 11.47274 | 94° | 126km/h | 11722m | 4.9m/s | -57.4°C | 66.0% | 214.9hPa | 2.7V | 00:00:00 | 01:13:59 | 00:00:00 | |
| OE5MMP-10 | 2026-09-01 16:24:17 | 47.83590 | 11.47230 | 93° | 124km/h | 11717m | 4.7m/s | 0°C | 0% | 0hPa | 2.7V | 00:00:00 | 01:13:58 | 00:00:00 | |
| DL6DJ-15 | 2026-09-01 16:24:16 | 47.83591 | 11.47184 | 92° | 122km/h | 11713m | 4.5m/s | -57.3°C | 53.8% | 215.3hPa | 2.7V | 00:00:00 | 00:00:00 | 00:00:00 | |
| DO3MHA-12 | 2026-09-01 16:24:14 | 47.83594 | 11.47090 | 93° | 126km/h | 11703m | 3.7m/s | -57.3°C | 63.8% | 215.6hPa | 2.7V | 00:00:00 | 01:13:55 | 00:00:00 | |
| OE5DXL-15 | 2026-09-01 16:24:12 | 47.83597 | 11.46994 | 93° | 126km/h | 11692m | 6.8m/s | -57.1°C | 62.7% | 215.9hPa | 2.7V | 00:00:00 | 00:00:00 | 00:00:00 | |
| DO3MHA-11 | 2026-09-01 16:24:11 | 47.83599 | 11.46946 | 94° | 126km/h | 11686m | 5.0m/s | -57.0°C | 63.1% | 216.2hPa | 2.7V | 00:00:00 | 01:13:52 | 00:00:00 | |
| DO8TBO-1 | 2026-09-01 16:24:09 | 47.83603 | 11.46851 | 95° | 126km/h | 11677m | 5.6m/s | -56.9°C | 63.3% | 216.5hPa | 2.7V | 00:00:00 | 01:13:50 | 00:00:00 | |
| OE3JTB-15 | 2026-09-01 16:24:08 | 47.83606 | 11.46803 | 96° | 115km/h | 11672m | 4.1m/s | 0°C | 0% | 0hPa | 2.7V | 00:00:00 | 00:00:00 | 00:00:00 | |
| OE5MMP-10 | 2026-09-01 16:24:07 | 47.83609 | 11.46756 | 96° | 124km/h | 11667m | 6.0m/s | 0°C | 0% | 0hPa | 2.7V | 00:00:00 | 01:13:48 | 00:00:00 | |
| DG1MJG | 2026-09-01 16:24:05 | 47.83612 | 11.46710 | 96° | 124km/h | 11661m | 4.5m/s | -56.9°C | 54.4% | 217.0hPa | 2.7V | 00:00:00 | 00:00:00 | 00:00:00 | |
| DO3MHA-12 | 2026-09-01 16:24:04 | 47.83618 | 11.46617 | 95° | 126km/h | 11652m | 5.0m/s | -56.7°C | 65.7% | 217.4hPa | 2.7V | 00:00:00 | 01:13:45 | 00:00:00 | |
| NBG1-10 | 2026-09-01 16:24:03 | 47.83620 | 11.46570 | 95° | 124km/h | 11647m | 4.5m/s | -56.6°C | 66.3% | 217.5hPa | 2.7V | 00:00:00 | 01:13:44 | 00:00:00 | |
| DF7PN | 2026-09-01 16:24:01 | 47.83625 | 11.46476 | 93° | 126km/h | 11638m | 4.6m/s | 0°C | -1.0% | 217.9hPa | 2.7V | 00:00:00 | 00:00:00 | 00:00:00 | |
| DL6DJ-15 | 2026-09-01 16:23:45 | 47.83664 | 11.45719 | 94° | 124km/h | 11560m | 5.1m/s | -56.1°C | 54.3% | 220.6hPa | 2.7V | 00:00:00 | 00:00:00 | 00:00:00 | |
| DO3MHA-12 | 2026-09-01 16:23:44 | 47.83666 | 11.45673 | 95° | 122km/h | 11556m | 3.5m/s | -55.9°C | 64.5% | 220.7hPa | 2.7V | 00:00:00 | 01:13:25 | 00:00:00 | |
| OE5DXL-15 | 2026-09-01 16:23:42 | 47.83670 | 11.45581 | 95° | 124km/h | 11546m | 4.7m/s | -55.8°C | 63.8% | 221.0hPa | 2.7V | 00:00:00 | 00:00:00 | 00:00:00 | |
| DO3MHA-11 | 2026-09-01 16:23:41 | 47.83673 | 11.45535 | 95° | 122km/h | 11541m | 5.4m/s | -55.8°C | 64.0% | 221.2hPa | 2.7V | 00:00:00 | 01:13:22 | 00:00:00 | |
| IN3HCDX | 2026-09-01 16:23:40 | 47.83673 | 11.45535 | 96° | 122km/h | 11541m | 5.5m/s | 0°C | 0% | 0hPa | 2.7V | 00:00:00 | 00:00:00 | 00:00:00 | |
| OE5DRO-10 | 2026-09-01 16:23:39 | 47.83678 | 11.45444 | 96° | 124km/h | 11532m | 5.5m/s | -55.7°C | 63.1% | 221.5hPa | 2.7V | 00:00:00 | 00:00:00 | 00:00:00 | |
| BAUMI2-15 | 2026-09-01 16:23:37 | 47.83684 | 11.45352 | 96° | 124km/h | 11522m | 5.5m/s | -55.6°C | 63.4% | 221.8hPa | 2.7V | 00:00:00 | 01:13:18 | 00:00:00 | |
| DN1GJH-1 | 2026-09-01 16:23:36 | 47.83684 | 11.45352 | 97° | 124km/h | 11522m | 5.6m/s | -55.7°C | 0% | 221.9hPa | 2.7V | 00:00:00 | 00:00:00 | 00:00:00 | |
| DO3MHA-12 | 2026-09-01 16:23:34 | 47.83692 | 11.45212 | 95° | 122km/h | 11508m | 4.7m/s | -55.6°C | 65.3% | 222.3hPa | 2.7V | 00:00:00 | 01:13:15 | 00:00:00 | |
| OE5WHR-10 | 2026-09-01 16:23:33 | 47.83695 | 11.45166 | 94° | 122km/h | 11503m | 5.4m/s | 0°C | 0% | 0hPa | 2.7V | 00:00:00 | 00:00:00 | 00:00:00 | |
| BAUMI2-15 | 2026-09-01 16:23:32 | 47.83696 | 11.45120 | 93° | 120km/h | 11499m | 3.8m/s | -55.5°C | 65.0% | 222.6hPa | 2.7V | 00:00:00 | 01:13:13 | 00:00:00 | |
| DO3MHA-11 | 2026-09-01 16:23:31 | 47.83697 | 11.45075 | 92° | 124km/h | 11494m | 5.3m/s | -55.5°C | 64.5% | 222.8hPa | 2.7V | 00:00:00 | 01:13:12 | 00:00:00 | |
| NBG1-10 | 2026-09-01 16:23:30 | 47.83699 | 11.45029 | 92° | 124km/h | 11489m | 4.6m/s | -55.4°C | 64.9% | 223.0hPa | 2.7V | 00:00:00 | 01:13:11 | 00:00:00 | |
| DG1MFX-10 | 2026-09-01 16:23:29 | 47.83699 | 11.45029 | 93° | 122km/h | 11489m | 4.7m/s | -55.4°C | 54.6% | 223.1hPa | 2.7V | 00:00:00 | 00:00:00 | 00:00:00 | |
| BAUMI2-15 | 2026-09-01 16:23:27 | 47.83703 | 11.44892 | 94° | 126km/h | 11474m | 5.1m/s | -55.3°C | 63.8% | 223.4hPa | 2.7V | 00:00:00 | 01:13:08 | 00:00:00 | |
| DL2OL | 2026-09-01 16:23:25 | 47.83704 | 11.44846 | 95° | 124km/h | 11469m | 4.7m/s | -55.3°C | 54.0% | 223.7hPa | 2.7V | 00:00:00 | 00:00:00 | 00:00:00 | |
| DO3MHA-12 | 2026-09-01 16:23:24 | 47.83710 | 11.44752 | 96° | 126km/h | 11460m | 4.3m/s | -55.1°C | 63.9% | 224.0hPa | 2.7V | 00:00:00 | 01:13:05 | 00:00:00 | |
| BAUMI2-15 | 2026-09-01 16:23:22 | 47.83716 | 11.44657 | 96° | 128km/h | 11450m | 4.3m/s | -55.1°C | 64.7% | 224.3hPa | 2.7V | 00:00:00 | 01:13:03 | 00:00:00 | |
| DO3MHA-11 | 2026-09-01 16:23:21 | 47.83719 | 11.44608 | 95° | 124km/h | 11446m | 4.0m/s | -55.0°C | 64.3% | 224.5hPa | 2.7V | 00:00:00 | 01:13:02 | 00:00:00 | |
| OE5MMP-10 | 2026-09-01 16:23:20 | 47.83721 | 11.44560 | 95° | 126km/h | 11442m | 5.0m/s | 0°C | 0% | 0hPa | 2.7V | 00:00:00 | 01:13:01 | 00:00:00 | |
| DB0UT-7 | 2026-09-01 16:23:18 | 47.83725 | 11.44466 | 94° | 124km/h | 11432m | 5.7m/s | -54.9°C | 64.2% | 225.0hPa | 2.7V | 00:00:00 | 01:12:59 | 00:00:00 | |
| BAUMI2-15 | 2026-09-01 16:23:17 | 47.83727 | 11.44420 | 93° | 122km/h | 11428m | 3.6m/s | -54.8°C | 63.6% | 225.1hPa | 2.7V | 00:00:00 | 01:12:58 | 00:00:00 | |
| DO3MHA-12 | 2026-09-01 16:23:14 | 47.83731 | 11.44282 | 93° | 124km/h | 11413m | 5.8m/s | -54.7°C | 62.8% | 225.6hPa | 2.7V | 00:00:00 | 01:12:55 | 00:00:00 | |
| OE5DXL-15 | 2026-09-01 16:23:12 | 47.83734 | 11.44190 | 93° | 122km/h | 11403m | 5.2m/s | -54.7°C | 62.9% | 226.0hPa | 2.7V | 00:00:00 | 00:00:00 | 00:00:00 | |
| DO3MHA-11 | 2026-09-01 16:23:11 | 47.83735 | 11.44144 | 93° | 124km/h | 11397m | 4.9m/s | -54.6°C | 63.7% | 226.1hPa | 2.7V | 00:00:00 | 01:12:52 | 00:00:00 | |
| DO8TBO-1 | 2026-09-01 16:23:09 | 47.83738 | 11.44051 | 94° | 122km/h | 11387m | 4.8m/s | -54.5°C | 63.4% | 226.5hPa | 2.7V | 00:00:00 | 01:12:50 | 08:30:00 | |
| DG1MFX-10 | 2026-09-01 16:23:08 | 47.83739 | 11.44051 | 95° | 124km/h | 11387m | 4.9m/s | -54.5°C | 53.6% | 226.5hPa | 2.7V | 00:00:00 | 00:00:00 | 00:00:00 | |
| BAUMI2-15 | 2026-09-01 16:23:07 | 47.83743 | 11.43958 | 95° | 124km/h | 11377m | 4.2m/s | -54.4°C | 62.8% | 226.8hPa | 2.7V | 00:00:00 | 01:12:48 | 00:00:00 | |
| DO3MHA-12 | 2026-09-01 16:23:04 | 47.83751 | 11.43817 | 95° | 124km/h | 11363m | 5.2m/s | -54.3°C | 62.2% | 227.3hPa | 2.7V | 00:00:00 | 01:12:45 | 00:00:00 | |
| DG1MJG | 2026-09-01 16:23:03 | 47.83751 | 11.43818 | 95° | 126km/h | 11363m | 5.3m/s | -54.4°C | 52.5% | 227.4hPa | 2.7V | 00:00:00 | 00:00:00 | 00:00:00 | |
| DF7PN | 2026-09-01 16:22:59 | 47.83762 | 11.43539 | 93° | 124km/h | 11335m | 3.8m/s | 0°C | -1.0% | -1.0hPa | 2.7V | 00:00:00 | 00:00:00 | 00:00:00 | |
| BAUMI2-15 | 2026-09-01 16:22:57 | 47.83764 | 11.43491 | 94° | 124km/h | 11330m | 5.4m/s | -54.0°C | 60.1% | 228.5hPa | 2.7V | 00:00:00 | 01:12:38 | 08:30:00 | |
| DO3MHA-12 | 2026-09-01 16:22:54 | 47.83771 | 11.43350 | 96° | 120km/h | 11316m | 3.9m/s | -53.9°C | 60.4% | 229.0hPa | 2.7V | 00:00:00 | 01:12:35 | 08:30:00 | |
| BAUMI2-15 | 2026-09-01 16:22:52 | 47.83777 | 11.43259 | 96° | 120km/h | 11307m | 4.0m/s | -53.8°C | 60.6% | 229.3hPa | 2.7V | 00:00:00 | 01:12:33 | 00:00:00 | |
| DO3MHA-11 | 2026-09-01 16:22:51 | 47.83780 | 11.43214 | 96° | 120km/h | 11302m | 5.3m/s | -53.8°C | 60.3% | 229.5hPa | 2.7V | 00:00:00 | 01:12:32 | 00:00:00 | |
| DH7VM-15 | 2026-09-01 16:22:50 | 47.83780 | 11.43214 | 96° | 120km/h | 11302m | 5.4m/s | 0°C | 0% | 0hPa | 2.7V | 00:00:00 | 00:00:00 | 00:00:00 | |
| DB0UT-7 | 2026-09-01 16:22:48 | 47.83788 | 11.43078 | 95° | 120km/h | 11288m | 4.4m/s | -53.7°C | 60.3% | 230.1hPa | 2.7V | 00:00:00 | 00:00:00 | 00:00:00 | |
| BAUMI2-15 | 2026-09-01 16:22:47 | 47.83791 | 11.43032 | 94° | 119km/h | 11283m | 4.7m/s | -53.7°C | 59.7% | 230.2hPa | 2.7V | 00:00:00 | 01:12:28 | 00:00:00 | |
| DO3MHA-12 | 2026-09-01 16:22:44 | 47.83796 | 11.42898 | 93° | 120km/h | 11270m | 5.0m/s | -53.5°C | 59.2% | 230.7hPa | 2.7V | 00:00:00 | 01:12:25 | 00:00:00 | |
| DL6DJ-15 | 2026-09-01 16:22:43 | 47.83798 | 11.42854 | 92° | 117km/h | 11265m | 4.4m/s | -53.5°C | 50.1% | 230.9hPa | 2.7V | 00:00:00 | 00:00:00 | 00:00:00 | |
| BAUMI2-15 | 2026-09-01 16:22:42 | 47.83799 | 11.42810 | 94° | 119km/h | 11260m | 5.1m/s | -53.4°C | 59.3% | 231.1hPa | 2.7V | 00:00:00 | 01:12:23 | 00:00:00 | |
| DO3MHA-11 | 2026-09-01 16:22:41 | 47.83801 | 11.42766 | 95° | 120km/h | 11256m | 4.0m/s | -53.4°C | 58.6% | 231.2hPa | 2.7V | 00:00:00 | 01:12:22 | 00:00:00 | |
| DO8TBO-1 | 2026-09-01 16:22:39 | 47.83806 | 11.42677 | 96° | 120km/h | 11246m | 4.3m/s | -53.3°C | 57.6% | 231.5hPa | 2.7V | 00:00:00 | 01:12:20 | 00:00:00 | |
| BAUMI2-15 | 2026-09-01 16:22:37 | 47.83812 | 11.42586 | 97° | 122km/h | 11237m | 3.5m/s | -53.2°C | 57.8% | 231.9hPa | 2.7V | 00:00:00 | 01:12:18 | 00:00:00 | |
| DO3MHA-12 | 2026-09-01 16:22:34 | 47.83821 | 11.42448 | 95° | 119km/h | 11222m | 4.9m/s | -53.0°C | 57.1% | 232.5hPa | 2.7V | 00:00:00 | 01:12:15 | 00:00:00 | |
| DG1MJG | 2026-09-01 16:22:33 | 47.83821 | 11.42448 | 95° | 122km/h | 11222m | 5.0m/s | -53.1°C | 48.2% | 232.5hPa | 2.7V | 00:00:00 | 00:00:00 | 00:00:00 | |
| BAUMI2-15 | 2026-09-01 16:22:32 | 47.83825 | 11.42356 | 93° | 119km/h | 11213m | 4.9m/s | -52.9°C | 56.4% | 232.8hPa | 2.7V | 00:00:00 | 01:12:13 | 00:00:00 | |
| DO3MHA-11 | 2026-09-01 16:22:31 | 47.83826 | 11.42311 | 92° | 119km/h | 11208m | 4.8m/s | -52.9°C | 56.4% | 232.9hPa | 2.7V | 00:00:00 | 01:12:12 | 00:00:00 | |
| DH7VM-15 | 2026-09-01 16:22:30 | 47.83826 | 11.42311 | 93° | 119km/h | 11208m | 4.9m/s | 0°C | 0% | 0hPa | 2.7V | 00:00:00 | 00:00:00 | 00:00:00 | |
| BAUMI2-15 | 2026-09-01 16:22:27 | 47.83831 | 11.42136 | 94° | 120km/h | 11189m | 4.8m/s | -52.8°C | 55.8% | 233.7hPa | 2.7V | 00:00:00 | 01:12:08 | 00:00:00 | |
| DO3MHA-12 | 2026-09-01 16:22:24 | 47.83839 | 11.42001 | 97° | 122km/h | 11176m | 4.1m/s | -52.6°C | 54.5% | 234.1hPa | 2.7V | 00:00:00 | 01:12:05 | 00:00:00 | |
| OE5DRO-10 | 2026-09-01 16:22:23 | 47.83842 | 11.41955 | 97° | 120km/h | 11172m | 4.4m/s | -52.6°C | 53.7% | 234.3hPa | 2.7V | 00:00:00 | 00:00:00 | 00:00:00 | |
| BAUMI2-15 | 2026-09-01 16:22:22 | 47.83845 | 11.41909 | 96° | 122km/h | 11167m | 4.4m/s | -52.6°C | 53.5% | 234.4hPa | 2.7V | 00:00:00 | 01:12:03 | 00:00:00 | |
| DO3MHA-11 | 2026-09-01 16:22:21 | 47.83848 | 11.41863 | 96° | 120km/h | 11162m | 4.8m/s | -52.5°C | 53.5% | 234.6hPa | 2.7V | 00:00:00 | 01:12:02 | 00:00:00 | |
| DB0UT-7 | 2026-09-01 16:22:18 | 47.83854 | 11.41725 | 92° | 120km/h | 11149m | 3.9m/s | -52.4°C | 53.6% | 235.1hPa | 2.7V | 00:00:00 | 01:11:59 | 00:00:00 | |
| BAUMI2-15 | 2026-09-01 16:22:17 | 47.83854 | 11.41680 | 91° | 120km/h | 11145m | 4.8m/s | -52.4°C | 53.4% | 235.3hPa | 2.7V | 00:00:00 | 01:11:58 | 00:00:00 | |
| DO3MHA-12 | 2026-09-01 16:22:14 | 47.83857 | 11.41545 | 93° | 120km/h | 11131m | 5.2m/s | -52.2°C | 53.6% | 235.7hPa | 2.7V | 00:00:00 | 01:11:55 | 00:00:00 | |
| OE5DXL-15 | 2026-09-01 16:22:12 | 47.83861 | 11.41456 | 95° | 120km/h | 11122m | 5.7m/s | -52.1°C | 53.1% | 236.1hPa | 2.7V | 00:00:00 | 00:00:00 | 00:00:00 | |
| DO3MHA-11 | 2026-09-01 16:22:11 | 47.83863 | 11.41411 | 95° | 120km/h | 11117m | 4.1m/s | -52.1°C | 52.9% | 236.3hPa | 2.7V | 00:00:00 | 01:11:52 | 00:00:00 | |
| DO8TBO-1 | 2026-09-01 16:22:09 | 47.83868 | 11.41321 | 96° | 120km/h | 11107m | 4.4m/s | -52.0°C | 52.7% | 236.6hPa | 2.7V | 00:00:00 | 01:11:50 | 00:00:00 | |
| BAUMI2-15 | 2026-09-01 16:22:07 | 47.83874 | 11.41231 | 96° | 120km/h | 11097m | 4.7m/s | -51.9°C | 51.4% | 237.0hPa | 2.7V | 00:00:00 | 01:11:48 | 00:00:00 | |
| DO3MHA-12 | 2026-09-01 16:22:04 | 47.83882 | 11.41096 | 95° | 120km/h | 11083m | 5.3m/s | -51.9°C | 52.0% | 237.5hPa | 2.7V | 00:00:00 | 01:11:45 | 00:00:00 | |
| DG1MJG | 2026-09-01 16:22:03 | 47.83882 | 11.41096 | 96° | 120km/h | 11083m | 5.4m/s | -51.9°C | 43.9% | 237.6hPa | 2.7V | 00:00:00 | 00:00:00 | 00:00:00 | |
| BAUMI2-15 | 2026-09-01 16:22:02 | 47.83886 | 11.41005 | 94° | 122km/h | 11073m | 4.4m/s | -51.8°C | 52.2% | 237.9hPa | 2.7V | 00:00:00 | 01:11:43 | 00:00:00 | |
| DO3MHA-11 | 2026-09-01 16:22:01 | 47.83888 | 11.40960 | 94° | 120km/h | 11069m | 4.7m/s | -51.7°C | 53.0% | 238.0hPa | 2.7V | 00:00:00 | 01:11:42 | 00:00:00 | |
| DO3MHA-12 | 2026-09-01 16:21:54 | 47.83906 | 11.40642 | 96° | 122km/h | 11037m | 4.2m/s | -51.6°C | 54.4% | 239.2hPa | 2.7V | 00:00:00 | 01:11:35 | 00:00:00 | |
| NBG1-10 | 2026-09-01 16:21:51 | 47.83914 | 11.40505 | 94° | 122km/h | 11022m | 5.6m/s | -51.4°C | 54.3% | 239.7hPa | 2.7V | 00:00:00 | 01:11:32 | 00:00:00 | |
| DB0UT-7 | 2026-09-01 16:21:48 | 47.83919 | 11.40367 | 94° | 122km/h | 11008m | 3.9m/s | -51.2°C | 53.9% | 240.2hPa | 2.7V | 00:00:00 | 00:00:00 | 00:00:00 | |
| DG1MFX-10 | 2026-09-01 16:21:46 | 47.83921 | 11.40321 | 94° | 122km/h | 11003m | 5.2m/s | -51.3°C | 46.4% | 240.4hPa | 2.7V | 00:00:00 | 00:00:00 | 00:00:00 | |
| OE5DRO-10 | 2026-09-01 16:21:45 | 47.83925 | 11.40230 | 94° | 122km/h | 10994m | 4.6m/s | -51.1°C | 54.3% | 240.7hPa | 2.7V | 00:00:00 | 00:00:00 | 08:30:00 | |
| DO3MHA-12 | 2026-09-01 16:21:44 | 47.83927 | 11.40184 | 95° | 120km/h | 10989m | 4.7m/s | -51.1°C | 54.2% | 240.9hPa | 2.9V | 00:00:00 | 01:11:25 | 00:00:00 | |
| OE5DXL-15 | 2026-09-01 16:21:42 | 47.83931 | 11.40093 | 95° | 122km/h | 10980m | 5.9m/s | -51.0°C | 52.7% | 241.2hPa | 2.9V | 00:00:00 | 00:00:00 | 00:00:00 | |
| DO3MHA-11 | 2026-09-01 16:21:41 | 47.83933 | 11.40048 | 94° | 122km/h | 10976m | 3.9m/s | -51.0°C | 53.2% | 241.4hPa | 2.9V | 00:00:00 | 01:11:22 | 00:00:00 | |
| IN3HCDX | 2026-09-01 16:21:37 | 47.83938 | 11.39912 | 94° | 120km/h | 10961m | 5.6m/s | 0°C | 0% | 0hPa | 2.9V | 00:00:00 | 00:00:00 | 00:00:00 | |
| DO3MHA-12 | 2026-09-01 16:21:34 | 47.83942 | 11.39729 | 91° | 122km/h | 10939m | 5.4m/s | -50.6°C | 52.8% | 242.8hPa | 2.9V | 00:00:00 | 01:11:15 | 00:00:00 | |
| DG1MJG | 2026-09-01 16:21:32 | 47.83942 | 11.39682 | 92° | 122km/h | 10934m | 3.7m/s | -50.6°C | 45.4% | 243.0hPa | 2.9V | 00:00:00 | 00:00:00 | 00:00:00 | |
| DO3MHA-11 | 2026-09-01 16:21:31 | 47.83944 | 11.39590 | 94° | 122km/h | 10925m | 4.3m/s | -50.5°C | 53.7% | 243.4hPa | 2.9V | 00:00:00 | 01:11:12 | 08:30:00 | |
| OE5DRO-10 | 2026-09-01 16:21:26 | 47.83955 | 11.39362 | 95° | 122km/h | 10902m | 3.4m/s | -50.3°C | 53.1% | 244.2hPa | 2.7V | 00:00:00 | 00:00:00 | 00:00:00 | |
| DN1GJH-1 | 2026-09-01 16:21:25 | 47.83955 | 11.39362 | 95° | 124km/h | 10902m | 3.5m/s | -50.4°C | 0% | 0hPa | 2.7V | 00:00:00 | 00:00:00 | 00:00:00 | |
| DO3MHA-12 | 2026-09-01 16:21:24 | 47.83958 | 11.39268 | 93° | 120km/h | 10893m | 5.1m/s | -50.2°C | 53.0% | 244.6hPa | 2.7V | 00:00:00 | 01:11:05 | 08:30:00 | |
| Es werden nur die letzten 3500 von 4185 Frames angezeigt. GPX/KML und Diagramme bleiben verfügbar. | |||||||||||||||